<?xml version="1.0" encoding="UTF-8" standalone="no" ?>
<gpx xmlns="http://www.topografix.com/GPX/1/1" xmlns:xsi="http://www.w3.org/2001/XMLSchema-instance" xsi:schemaLocation="http://www.topografix.com/GPX/1/1 http://www.topografix.com/GPX/1/1/gpx.xsd" version="1.1" creator="VisuGPX - https://www.visugpx.com">
  <metadata>
    <name>Rando VTT Mercy le bas 2024</name>
    <desc><![CDATA[Magnifique trace vtt du club des vttvores de Mercy le bas.
Tres techniques et physique. Attention certains passages necessitent un bon bagage technique.]]></desc>
  </metadata>
  <trk>
    <name><![CDATA[240609 Rando de Mercy le bas ++++]]></name>
    <trkseg>
      <trkpt lat="49.39438" lon="5.76408">
        <ele>303</ele>
        <time>2024-06-09T06:39:07Z</time>
      </trkpt>
      <trkpt lat="49.39435" lon="5.76395">
        <ele>303</ele>
        <time>2024-06-09T06:39:12Z</time>
      </trkpt>
      <trkpt lat="49.39433" lon="5.76391">
        <ele>303</ele>
        <time>2024-06-09T06:39:14Z</time>
      </trkpt>
      <trkpt lat="49.39431" lon="5.76386">
        <ele>303</ele>
        <time>2024-06-09T06:39:16Z</time>
      </trkpt>
      <trkpt lat="49.39428" lon="5.76379">
        <ele>303</ele>
        <time>2024-06-09T06:39:18Z</time>
      </trkpt>
      <trkpt lat="49.39425" lon="5.76376">
        <ele>303</ele>
        <time>2024-06-09T06:39:19Z</time>
      </trkpt>
      <trkpt lat="49.39422" lon="5.76374">
        <ele>303</ele>
        <time>2024-06-09T06:39:20Z</time>
      </trkpt>
      <trkpt lat="49.39415" lon="5.76371">
        <ele>303</ele>
        <time>2024-06-09T06:39:22Z</time>
      </trkpt>
      <trkpt lat="49.39407" lon="5.76369">
        <ele>303</ele>
        <time>2024-06-09T06:39:24Z</time>
      </trkpt>
      <trkpt lat="49.39399" lon="5.76368">
        <ele>303</ele>
        <time>2024-06-09T06:39:26Z</time>
      </trkpt>
      <trkpt lat="49.39392" lon="5.76367">
        <ele>303</ele>
        <time>2024-06-09T06:39:28Z</time>
      </trkpt>
      <trkpt lat="49.39384" lon="5.76366">
        <ele>303</ele>
        <time>2024-06-09T06:39:30Z</time>
      </trkpt>
      <trkpt lat="49.39377" lon="5.76364">
        <ele>303</ele>
        <time>2024-06-09T06:39:32Z</time>
      </trkpt>
      <trkpt lat="49.3937" lon="5.76363">
        <ele>303</ele>
        <time>2024-06-09T06:39:34Z</time>
      </trkpt>
      <trkpt lat="49.39364" lon="5.76362">
        <ele>303</ele>
        <time>2024-06-09T06:39:36Z</time>
      </trkpt>
      <trkpt lat="49.39357" lon="5.7636">
        <ele>303.20001220703</ele>
        <time>2024-06-09T06:39:38Z</time>
      </trkpt>
      <trkpt lat="49.39353" lon="5.7636">
        <ele>303.20001220703</ele>
        <time>2024-06-09T06:39:39Z</time>
      </trkpt>
      <trkpt lat="49.39349" lon="5.76359">
        <ele>303.39999389648</ele>
        <time>2024-06-09T06:39:40Z</time>
      </trkpt>
      <trkpt lat="49.39346" lon="5.76356">
        <ele>303.39999389648</ele>
        <time>2024-06-09T06:39:41Z</time>
      </trkpt>
      <trkpt lat="49.39343" lon="5.76353">
        <ele>303.39999389648</ele>
        <time>2024-06-09T06:39:42Z</time>
      </trkpt>
      <trkpt lat="49.39341" lon="5.76348">
        <ele>303.60000610352</ele>
        <time>2024-06-09T06:39:43Z</time>
      </trkpt>
      <trkpt lat="49.3934" lon="5.76342">
        <ele>303.60000610352</ele>
        <time>2024-06-09T06:39:44Z</time>
      </trkpt>
      <trkpt lat="49.39338" lon="5.76331">
        <ele>303.60000610352</ele>
        <time>2024-06-09T06:39:46Z</time>
      </trkpt>
      <trkpt lat="49.39339" lon="5.76325">
        <ele>303.60000610352</ele>
        <time>2024-06-09T06:39:47Z</time>
      </trkpt>
      <trkpt lat="49.3934" lon="5.76319">
        <ele>303.60000610352</ele>
        <time>2024-06-09T06:39:48Z</time>
      </trkpt>
      <trkpt lat="49.39341" lon="5.76312">
        <ele>303.60000610352</ele>
        <time>2024-06-09T06:39:49Z</time>
      </trkpt>
      <trkpt lat="49.39339" lon="5.76306">
        <ele>303.60000610352</ele>
        <time>2024-06-09T06:39:50Z</time>
      </trkpt>
      <trkpt lat="49.39337" lon="5.76301">
        <ele>303.39999389648</ele>
        <time>2024-06-09T06:39:51Z</time>
      </trkpt>
      <trkpt lat="49.39334" lon="5.76295">
        <ele>303.39999389648</ele>
        <time>2024-06-09T06:39:52Z</time>
      </trkpt>
      <trkpt lat="49.39331" lon="5.76289">
        <ele>303.39999389648</ele>
        <time>2024-06-09T06:39:53Z</time>
      </trkpt>
      <trkpt lat="49.39328" lon="5.76283">
        <ele>303.39999389648</ele>
        <time>2024-06-09T06:39:54Z</time>
      </trkpt>
      <trkpt lat="49.39324" lon="5.76269">
        <ele>303.20001220703</ele>
        <time>2024-06-09T06:39:56Z</time>
      </trkpt>
      <trkpt lat="49.39322" lon="5.76262">
        <ele>303</ele>
        <time>2024-06-09T06:39:57Z</time>
      </trkpt>
      <trkpt lat="49.3932" lon="5.76254">
        <ele>303</ele>
        <time>2024-06-09T06:39:58Z</time>
      </trkpt>
      <trkpt lat="49.39316" lon="5.76239">
        <ele>302.79998779297</ele>
        <time>2024-06-09T06:40:00Z</time>
      </trkpt>
      <trkpt lat="49.39311" lon="5.76225">
        <ele>302.60000610352</ele>
        <time>2024-06-09T06:40:02Z</time>
      </trkpt>
      <trkpt lat="49.39304" lon="5.76213">
        <ele>302.60000610352</ele>
        <time>2024-06-09T06:40:04Z</time>
      </trkpt>
      <trkpt lat="49.39294" lon="5.76213">
        <ele>302.39999389648</ele>
        <time>2024-06-09T06:40:06Z</time>
      </trkpt>
      <trkpt lat="49.39288" lon="5.76216">
        <ele>302.20001220703</ele>
        <time>2024-06-09T06:40:07Z</time>
      </trkpt>
      <trkpt lat="49.39283" lon="5.7622">
        <ele>302.20001220703</ele>
        <time>2024-06-09T06:40:08Z</time>
      </trkpt>
      <trkpt lat="49.39273" lon="5.76227">
        <ele>301.79998779297</ele>
        <time>2024-06-09T06:40:10Z</time>
      </trkpt>
      <trkpt lat="49.39263" lon="5.76232">
        <ele>301.79998779297</ele>
        <time>2024-06-09T06:40:12Z</time>
      </trkpt>
      <trkpt lat="49.39252" lon="5.76231">
        <ele>301.79998779297</ele>
        <time>2024-06-09T06:40:14Z</time>
      </trkpt>
      <trkpt lat="49.39242" lon="5.76225">
        <ele>301.79998779297</ele>
        <time>2024-06-09T06:40:16Z</time>
      </trkpt>
      <trkpt lat="49.39233" lon="5.76219">
        <ele>301.79998779297</ele>
        <time>2024-06-09T06:40:18Z</time>
      </trkpt>
      <trkpt lat="49.39223" lon="5.76212">
        <ele>302</ele>
        <time>2024-06-09T06:40:20Z</time>
      </trkpt>
      <trkpt lat="49.39214" lon="5.76203">
        <ele>301.79998779297</ele>
        <time>2024-06-09T06:40:22Z</time>
      </trkpt>
      <trkpt lat="49.39206" lon="5.76193">
        <ele>302.20001220703</ele>
        <time>2024-06-09T06:40:24Z</time>
      </trkpt>
      <trkpt lat="49.39197" lon="5.76184">
        <ele>302.39999389648</ele>
        <time>2024-06-09T06:40:26Z</time>
      </trkpt>
      <trkpt lat="49.39193" lon="5.76178">
        <ele>302.39999389648</ele>
        <time>2024-06-09T06:40:27Z</time>
      </trkpt>
      <trkpt lat="49.39189" lon="5.76172">
        <ele>302.39999389648</ele>
        <time>2024-06-09T06:40:28Z</time>
      </trkpt>
      <trkpt lat="49.39183" lon="5.76158">
        <ele>302.39999389648</ele>
        <time>2024-06-09T06:40:30Z</time>
      </trkpt>
      <trkpt lat="49.3918" lon="5.76151">
        <ele>302.39999389648</ele>
        <time>2024-06-09T06:40:31Z</time>
      </trkpt>
      <trkpt lat="49.39177" lon="5.76144">
        <ele>302.39999389648</ele>
        <time>2024-06-09T06:40:32Z</time>
      </trkpt>
      <trkpt lat="49.39172" lon="5.76128">
        <ele>302.39999389648</ele>
        <time>2024-06-09T06:40:34Z</time>
      </trkpt>
      <trkpt lat="49.39168" lon="5.76111">
        <ele>302.39999389648</ele>
        <time>2024-06-09T06:40:36Z</time>
      </trkpt>
      <trkpt lat="49.39167" lon="5.76103">
        <ele>302.39999389648</ele>
        <time>2024-06-09T06:40:37Z</time>
      </trkpt>
      <trkpt lat="49.39165" lon="5.76094">
        <ele>302.39999389648</ele>
        <time>2024-06-09T06:40:38Z</time>
      </trkpt>
      <trkpt lat="49.39165" lon="5.76086">
        <ele>302.20001220703</ele>
        <time>2024-06-09T06:40:39Z</time>
      </trkpt>
      <trkpt lat="49.39164" lon="5.76077">
        <ele>302.20001220703</ele>
        <time>2024-06-09T06:40:40Z</time>
      </trkpt>
      <trkpt lat="49.39165" lon="5.7606">
        <ele>302</ele>
        <time>2024-06-09T06:40:42Z</time>
      </trkpt>
      <trkpt lat="49.39167" lon="5.76043">
        <ele>302</ele>
        <time>2024-06-09T06:40:44Z</time>
      </trkpt>
      <trkpt lat="49.3917" lon="5.76026">
        <ele>301.79998779297</ele>
        <time>2024-06-09T06:40:46Z</time>
      </trkpt>
      <trkpt lat="49.39173" lon="5.76018">
        <ele>301.60000610352</ele>
        <time>2024-06-09T06:40:47Z</time>
      </trkpt>
      <trkpt lat="49.39176" lon="5.7601">
        <ele>301.39999389648</ele>
        <time>2024-06-09T06:40:48Z</time>
      </trkpt>
      <trkpt lat="49.39179" lon="5.76003">
        <ele>301.20001220703</ele>
        <time>2024-06-09T06:40:49Z</time>
      </trkpt>
      <trkpt lat="49.39182" lon="5.75995">
        <ele>301.20001220703</ele>
        <time>2024-06-09T06:40:50Z</time>
      </trkpt>
      <trkpt lat="49.39183" lon="5.75986">
        <ele>301</ele>
        <time>2024-06-09T06:40:51Z</time>
      </trkpt>
      <trkpt lat="49.39183" lon="5.75977">
        <ele>301</ele>
        <time>2024-06-09T06:40:52Z</time>
      </trkpt>
      <trkpt lat="49.3918" lon="5.75959">
        <ele>300.60000610352</ele>
        <time>2024-06-09T06:40:54Z</time>
      </trkpt>
      <trkpt lat="49.3918" lon="5.75949">
        <ele>300.60000610352</ele>
        <time>2024-06-09T06:40:55Z</time>
      </trkpt>
      <trkpt lat="49.3918" lon="5.7594">
        <ele>300.39999389648</ele>
        <time>2024-06-09T06:40:56Z</time>
      </trkpt>
      <trkpt lat="49.39182" lon="5.75921">
        <ele>300.39999389648</ele>
        <time>2024-06-09T06:40:58Z</time>
      </trkpt>
      <trkpt lat="49.39183" lon="5.75911">
        <ele>300.20001220703</ele>
        <time>2024-06-09T06:40:59Z</time>
      </trkpt>
      <trkpt lat="49.39183" lon="5.75902">
        <ele>300.20001220703</ele>
        <time>2024-06-09T06:41:00Z</time>
      </trkpt>
      <trkpt lat="49.39181" lon="5.75893">
        <ele>300.20001220703</ele>
        <time>2024-06-09T06:41:01Z</time>
      </trkpt>
      <trkpt lat="49.39179" lon="5.75885">
        <ele>300</ele>
        <time>2024-06-09T06:41:02Z</time>
      </trkpt>
      <trkpt lat="49.39174" lon="5.75869">
        <ele>300</ele>
        <time>2024-06-09T06:41:04Z</time>
      </trkpt>
      <trkpt lat="49.39167" lon="5.75856">
        <ele>300</ele>
        <time>2024-06-09T06:41:06Z</time>
      </trkpt>
      <trkpt lat="49.39158" lon="5.75845">
        <ele>300</ele>
        <time>2024-06-09T06:41:08Z</time>
      </trkpt>
      <trkpt lat="49.39149" lon="5.75834">
        <ele>300.20001220703</ele>
        <time>2024-06-09T06:41:10Z</time>
      </trkpt>
      <trkpt lat="49.3914" lon="5.75824">
        <ele>300.20001220703</ele>
        <time>2024-06-09T06:41:12Z</time>
      </trkpt>
      <trkpt lat="49.39131" lon="5.75813">
        <ele>300.20001220703</ele>
        <time>2024-06-09T06:41:14Z</time>
      </trkpt>
      <trkpt lat="49.39127" lon="5.75808">
        <ele>300.39999389648</ele>
        <time>2024-06-09T06:41:15Z</time>
      </trkpt>
      <trkpt lat="49.39122" lon="5.75803">
        <ele>300.60000610352</ele>
        <time>2024-06-09T06:41:16Z</time>
      </trkpt>
      <trkpt lat="49.39113" lon="5.75793">
        <ele>301</ele>
        <time>2024-06-09T06:41:18Z</time>
      </trkpt>
      <trkpt lat="49.39109" lon="5.75787">
        <ele>301</ele>
        <time>2024-06-09T06:41:19Z</time>
      </trkpt>
      <trkpt lat="49.39104" lon="5.75783">
        <ele>301.20001220703</ele>
        <time>2024-06-09T06:41:20Z</time>
      </trkpt>
      <trkpt lat="49.39096" lon="5.75772">
        <ele>301.39999389648</ele>
        <time>2024-06-09T06:41:22Z</time>
      </trkpt>
      <trkpt lat="49.39087" lon="5.75763">
        <ele>301.79998779297</ele>
        <time>2024-06-09T06:41:24Z</time>
      </trkpt>
      <trkpt lat="49.39081" lon="5.75761">
        <ele>301.79998779297</ele>
        <time>2024-06-09T06:41:25Z</time>
      </trkpt>
      <trkpt lat="49.39077" lon="5.75763">
        <ele>301.79998779297</ele>
        <time>2024-06-09T06:41:26Z</time>
      </trkpt>
      <trkpt lat="49.39073" lon="5.75766">
        <ele>302</ele>
        <time>2024-06-09T06:41:27Z</time>
      </trkpt>
      <trkpt lat="49.39069" lon="5.75766">
        <ele>302</ele>
        <time>2024-06-09T06:41:28Z</time>
      </trkpt>
      <trkpt lat="49.39067" lon="5.75763">
        <ele>302</ele>
        <time>2024-06-09T06:41:29Z</time>
      </trkpt>
      <trkpt lat="49.39066" lon="5.75758">
        <ele>302.20001220703</ele>
        <time>2024-06-09T06:41:30Z</time>
      </trkpt>
      <trkpt lat="49.39065" lon="5.75753">
        <ele>302.20001220703</ele>
        <time>2024-06-09T06:41:31Z</time>
      </trkpt>
      <trkpt lat="49.39064" lon="5.75747">
        <ele>302.20001220703</ele>
        <time>2024-06-09T06:41:32Z</time>
      </trkpt>
      <trkpt lat="49.39064" lon="5.75734">
        <ele>302.39999389648</ele>
        <time>2024-06-09T06:41:34Z</time>
      </trkpt>
      <trkpt lat="49.39065" lon="5.75728">
        <ele>302.60000610352</ele>
        <time>2024-06-09T06:41:35Z</time>
      </trkpt>
      <trkpt lat="49.39066" lon="5.75722">
        <ele>302.60000610352</ele>
        <time>2024-06-09T06:41:36Z</time>
      </trkpt>
      <trkpt lat="49.39063" lon="5.75711">
        <ele>302.79998779297</ele>
        <time>2024-06-09T06:41:38Z</time>
      </trkpt>
      <trkpt lat="49.3906" lon="5.75707">
        <ele>302.79998779297</ele>
        <time>2024-06-09T06:41:39Z</time>
      </trkpt>
      <trkpt lat="49.39056" lon="5.75704">
        <ele>303</ele>
        <time>2024-06-09T06:41:40Z</time>
      </trkpt>
      <trkpt lat="49.39046" lon="5.757">
        <ele>303</ele>
        <time>2024-06-09T06:41:42Z</time>
      </trkpt>
      <trkpt lat="49.39041" lon="5.75699">
        <ele>303</ele>
        <time>2024-06-09T06:41:43Z</time>
      </trkpt>
      <trkpt lat="49.39036" lon="5.75699">
        <ele>303</ele>
        <time>2024-06-09T06:41:44Z</time>
      </trkpt>
      <trkpt lat="49.39025" lon="5.75697">
        <ele>303</ele>
        <time>2024-06-09T06:41:46Z</time>
      </trkpt>
      <trkpt lat="49.39014" lon="5.75692">
        <ele>302.60000610352</ele>
        <time>2024-06-09T06:41:48Z</time>
      </trkpt>
      <trkpt lat="49.39009" lon="5.7569">
        <ele>302.39999389648</ele>
        <time>2024-06-09T06:41:49Z</time>
      </trkpt>
      <trkpt lat="49.39004" lon="5.75689">
        <ele>302.39999389648</ele>
        <time>2024-06-09T06:41:50Z</time>
      </trkpt>
      <trkpt lat="49.38999" lon="5.75688">
        <ele>302.39999389648</ele>
        <time>2024-06-09T06:41:51Z</time>
      </trkpt>
      <trkpt lat="49.38994" lon="5.75687">
        <ele>302.39999389648</ele>
        <time>2024-06-09T06:41:52Z</time>
      </trkpt>
      <trkpt lat="49.3899" lon="5.75685">
        <ele>302.20001220703</ele>
        <time>2024-06-09T06:41:53Z</time>
      </trkpt>
      <trkpt lat="49.38987" lon="5.7568">
        <ele>302</ele>
        <time>2024-06-09T06:41:54Z</time>
      </trkpt>
      <trkpt lat="49.38984" lon="5.75665">
        <ele>301.79998779297</ele>
        <time>2024-06-09T06:41:56Z</time>
      </trkpt>
      <trkpt lat="49.38982" lon="5.75649">
        <ele>301.60000610352</ele>
        <time>2024-06-09T06:41:58Z</time>
      </trkpt>
      <trkpt lat="49.38981" lon="5.75632">
        <ele>301.60000610352</ele>
        <time>2024-06-09T06:42:00Z</time>
      </trkpt>
      <trkpt lat="49.38979" lon="5.75615">
        <ele>301.39999389648</ele>
        <time>2024-06-09T06:42:02Z</time>
      </trkpt>
      <trkpt lat="49.3898" lon="5.75605">
        <ele>301.20001220703</ele>
        <time>2024-06-09T06:42:04Z</time>
      </trkpt>
      <trkpt lat="49.38981" lon="5.75601">
        <ele>301</ele>
        <time>2024-06-09T06:42:05Z</time>
      </trkpt>
      <trkpt lat="49.38982" lon="5.75596">
        <ele>301</ele>
        <time>2024-06-09T06:42:06Z</time>
      </trkpt>
      <trkpt lat="49.38984" lon="5.75584">
        <ele>300.79998779297</ele>
        <time>2024-06-09T06:42:08Z</time>
      </trkpt>
      <trkpt lat="49.38984" lon="5.75577">
        <ele>300.60000610352</ele>
        <time>2024-06-09T06:42:09Z</time>
      </trkpt>
      <trkpt lat="49.38985" lon="5.7557">
        <ele>300.60000610352</ele>
        <time>2024-06-09T06:42:10Z</time>
      </trkpt>
      <trkpt lat="49.38986" lon="5.75558">
        <ele>300.39999389648</ele>
        <time>2024-06-09T06:42:12Z</time>
      </trkpt>
      <trkpt lat="49.38989" lon="5.75554">
        <ele>300.20001220703</ele>
        <time>2024-06-09T06:42:13Z</time>
      </trkpt>
      <trkpt lat="49.38992" lon="5.75553">
        <ele>300.20001220703</ele>
        <time>2024-06-09T06:42:14Z</time>
      </trkpt>
      <trkpt lat="49.39001" lon="5.75553">
        <ele>300</ele>
        <time>2024-06-09T06:42:16Z</time>
      </trkpt>
      <trkpt lat="49.39005" lon="5.75553">
        <ele>300</ele>
        <time>2024-06-09T06:42:17Z</time>
      </trkpt>
      <trkpt lat="49.3901" lon="5.75554">
        <ele>300</ele>
        <time>2024-06-09T06:42:18Z</time>
      </trkpt>
      <trkpt lat="49.39018" lon="5.75555">
        <ele>300</ele>
        <time>2024-06-09T06:42:20Z</time>
      </trkpt>
      <trkpt lat="49.39028" lon="5.75556">
        <ele>300</ele>
        <time>2024-06-09T06:42:22Z</time>
      </trkpt>
      <trkpt lat="49.39032" lon="5.75556">
        <ele>300</ele>
        <time>2024-06-09T06:42:23Z</time>
      </trkpt>
      <trkpt lat="49.39037" lon="5.75555">
        <ele>300</ele>
        <time>2024-06-09T06:42:24Z</time>
      </trkpt>
      <trkpt lat="49.39041" lon="5.75554">
        <ele>300</ele>
        <time>2024-06-09T06:42:25Z</time>
      </trkpt>
      <trkpt lat="49.39046" lon="5.75553">
        <ele>300</ele>
        <time>2024-06-09T06:42:26Z</time>
      </trkpt>
      <trkpt lat="49.39053" lon="5.75543">
        <ele>300</ele>
        <time>2024-06-09T06:42:28Z</time>
      </trkpt>
      <trkpt lat="49.39055" lon="5.75529">
        <ele>300.20001220703</ele>
        <time>2024-06-09T06:42:30Z</time>
      </trkpt>
      <trkpt lat="49.39056" lon="5.75522">
        <ele>300.20001220703</ele>
        <time>2024-06-09T06:42:31Z</time>
      </trkpt>
      <trkpt lat="49.39057" lon="5.75514">
        <ele>300.39999389648</ele>
        <time>2024-06-09T06:42:32Z</time>
      </trkpt>
      <trkpt lat="49.39057" lon="5.75499">
        <ele>300.39999389648</ele>
        <time>2024-06-09T06:42:34Z</time>
      </trkpt>
      <trkpt lat="49.39058" lon="5.75483">
        <ele>300.39999389648</ele>
        <time>2024-06-09T06:42:36Z</time>
      </trkpt>
      <trkpt lat="49.39059" lon="5.75467">
        <ele>301</ele>
        <time>2024-06-09T06:42:38Z</time>
      </trkpt>
      <trkpt lat="49.39059" lon="5.75458">
        <ele>301</ele>
        <time>2024-06-09T06:42:39Z</time>
      </trkpt>
      <trkpt lat="49.3906" lon="5.7545">
        <ele>301.20001220703</ele>
        <time>2024-06-09T06:42:40Z</time>
      </trkpt>
      <trkpt lat="49.39061" lon="5.75433">
        <ele>301.20001220703</ele>
        <time>2024-06-09T06:42:42Z</time>
      </trkpt>
      <trkpt lat="49.39061" lon="5.75416">
        <ele>301.20001220703</ele>
        <time>2024-06-09T06:42:44Z</time>
      </trkpt>
      <trkpt lat="49.39062" lon="5.75397">
        <ele>301.20001220703</ele>
        <time>2024-06-09T06:42:46Z</time>
      </trkpt>
      <trkpt lat="49.39062" lon="5.75378">
        <ele>301.20001220703</ele>
        <time>2024-06-09T06:42:48Z</time>
      </trkpt>
      <trkpt lat="49.39062" lon="5.75368">
        <ele>301</ele>
        <time>2024-06-09T06:42:49Z</time>
      </trkpt>
      <trkpt lat="49.39062" lon="5.75358">
        <ele>301</ele>
        <time>2024-06-09T06:42:50Z</time>
      </trkpt>
      <trkpt lat="49.39063" lon="5.75349">
        <ele>300.79998779297</ele>
        <time>2024-06-09T06:42:51Z</time>
      </trkpt>
      <trkpt lat="49.39063" lon="5.75339">
        <ele>300.79998779297</ele>
        <time>2024-06-09T06:42:52Z</time>
      </trkpt>
      <trkpt lat="49.39064" lon="5.7532">
        <ele>300.60000610352</ele>
        <time>2024-06-09T06:42:54Z</time>
      </trkpt>
      <trkpt lat="49.39065" lon="5.753">
        <ele>300.20001220703</ele>
        <time>2024-06-09T06:42:56Z</time>
      </trkpt>
      <trkpt lat="49.39066" lon="5.7529">
        <ele>300</ele>
        <time>2024-06-09T06:42:57Z</time>
      </trkpt>
      <trkpt lat="49.39068" lon="5.75279">
        <ele>299.79998779297</ele>
        <time>2024-06-09T06:42:58Z</time>
      </trkpt>
      <trkpt lat="49.3907" lon="5.75258">
        <ele>299.39999389648</ele>
        <time>2024-06-09T06:43:00Z</time>
      </trkpt>
      <trkpt lat="49.39073" lon="5.75236">
        <ele>299.39999389648</ele>
        <time>2024-06-09T06:43:02Z</time>
      </trkpt>
      <trkpt lat="49.39076" lon="5.75214">
        <ele>299</ele>
        <time>2024-06-09T06:43:04Z</time>
      </trkpt>
      <trkpt lat="49.39077" lon="5.75203">
        <ele>298.79998779297</ele>
        <time>2024-06-09T06:43:05Z</time>
      </trkpt>
      <trkpt lat="49.39079" lon="5.75192">
        <ele>298.79998779297</ele>
        <time>2024-06-09T06:43:06Z</time>
      </trkpt>
      <trkpt lat="49.39082" lon="5.7517">
        <ele>298.60000610352</ele>
        <time>2024-06-09T06:43:08Z</time>
      </trkpt>
      <trkpt lat="49.39084" lon="5.75147">
        <ele>298.39999389648</ele>
        <time>2024-06-09T06:43:10Z</time>
      </trkpt>
      <trkpt lat="49.39087" lon="5.75125">
        <ele>298.20001220703</ele>
        <time>2024-06-09T06:43:12Z</time>
      </trkpt>
      <trkpt lat="49.3909" lon="5.75103">
        <ele>298</ele>
        <time>2024-06-09T06:43:14Z</time>
      </trkpt>
      <trkpt lat="49.39091" lon="5.75092">
        <ele>297.79998779297</ele>
        <time>2024-06-09T06:43:15Z</time>
      </trkpt>
      <trkpt lat="49.39093" lon="5.75082">
        <ele>297.60000610352</ele>
        <time>2024-06-09T06:43:16Z</time>
      </trkpt>
      <trkpt lat="49.39095" lon="5.75061">
        <ele>297.60000610352</ele>
        <time>2024-06-09T06:43:18Z</time>
      </trkpt>
      <trkpt lat="49.39098" lon="5.75039">
        <ele>297.60000610352</ele>
        <time>2024-06-09T06:43:20Z</time>
      </trkpt>
      <trkpt lat="49.391" lon="5.75018">
        <ele>297.39999389648</ele>
        <time>2024-06-09T06:43:22Z</time>
      </trkpt>
      <trkpt lat="49.39103" lon="5.74996">
        <ele>297.39999389648</ele>
        <time>2024-06-09T06:43:24Z</time>
      </trkpt>
      <trkpt lat="49.39106" lon="5.74975">
        <ele>297.39999389648</ele>
        <time>2024-06-09T06:43:26Z</time>
      </trkpt>
      <trkpt lat="49.39109" lon="5.74953">
        <ele>297.39999389648</ele>
        <time>2024-06-09T06:43:28Z</time>
      </trkpt>
      <trkpt lat="49.39111" lon="5.74932">
        <ele>297.39999389648</ele>
        <time>2024-06-09T06:43:30Z</time>
      </trkpt>
      <trkpt lat="49.39114" lon="5.7491">
        <ele>297.39999389648</ele>
        <time>2024-06-09T06:43:32Z</time>
      </trkpt>
      <trkpt lat="49.39116" lon="5.74889">
        <ele>297.39999389648</ele>
        <time>2024-06-09T06:43:34Z</time>
      </trkpt>
      <trkpt lat="49.39119" lon="5.74868">
        <ele>297.39999389648</ele>
        <time>2024-06-09T06:43:36Z</time>
      </trkpt>
      <trkpt lat="49.3912" lon="5.74858">
        <ele>297.20001220703</ele>
        <time>2024-06-09T06:43:37Z</time>
      </trkpt>
      <trkpt lat="49.39121" lon="5.74847">
        <ele>297.20001220703</ele>
        <time>2024-06-09T06:43:38Z</time>
      </trkpt>
      <trkpt lat="49.39124" lon="5.74827">
        <ele>297.20001220703</ele>
        <time>2024-06-09T06:43:40Z</time>
      </trkpt>
      <trkpt lat="49.39126" lon="5.74807">
        <ele>297.39999389648</ele>
        <time>2024-06-09T06:43:42Z</time>
      </trkpt>
      <trkpt lat="49.39128" lon="5.74787">
        <ele>297.39999389648</ele>
        <time>2024-06-09T06:43:44Z</time>
      </trkpt>
      <trkpt lat="49.39126" lon="5.74768">
        <ele>297.20001220703</ele>
        <time>2024-06-09T06:43:46Z</time>
      </trkpt>
      <trkpt lat="49.39115" lon="5.7476">
        <ele>297.20001220703</ele>
        <time>2024-06-09T06:43:48Z</time>
      </trkpt>
      <trkpt lat="49.39103" lon="5.74764">
        <ele>297.39999389648</ele>
        <time>2024-06-09T06:43:50Z</time>
      </trkpt>
      <trkpt lat="49.39097" lon="5.74767">
        <ele>297.39999389648</ele>
        <time>2024-06-09T06:43:51Z</time>
      </trkpt>
      <trkpt lat="49.39091" lon="5.7477">
        <ele>297.39999389648</ele>
        <time>2024-06-09T06:43:52Z</time>
      </trkpt>
      <trkpt lat="49.39078" lon="5.74778">
        <ele>297.39999389648</ele>
        <time>2024-06-09T06:43:54Z</time>
      </trkpt>
      <trkpt lat="49.39064" lon="5.74785">
        <ele>297.39999389648</ele>
        <time>2024-06-09T06:43:56Z</time>
      </trkpt>
      <trkpt lat="49.3905" lon="5.74792">
        <ele>297.20001220703</ele>
        <time>2024-06-09T06:43:58Z</time>
      </trkpt>
      <trkpt lat="49.39035" lon="5.74799">
        <ele>297.20001220703</ele>
        <time>2024-06-09T06:44:00Z</time>
      </trkpt>
      <trkpt lat="49.3902" lon="5.74807">
        <ele>296.79998779297</ele>
        <time>2024-06-09T06:44:02Z</time>
      </trkpt>
      <trkpt lat="49.39004" lon="5.74814">
        <ele>296.20001220703</ele>
        <time>2024-06-09T06:44:04Z</time>
      </trkpt>
      <trkpt lat="49.38989" lon="5.74822">
        <ele>295.79998779297</ele>
        <time>2024-06-09T06:44:06Z</time>
      </trkpt>
      <trkpt lat="49.38981" lon="5.74826">
        <ele>295.79998779297</ele>
        <time>2024-06-09T06:44:07Z</time>
      </trkpt>
      <trkpt lat="49.38973" lon="5.7483">
        <ele>295.60000610352</ele>
        <time>2024-06-09T06:44:08Z</time>
      </trkpt>
      <trkpt lat="49.38957" lon="5.74837">
        <ele>295</ele>
        <time>2024-06-09T06:44:10Z</time>
      </trkpt>
      <trkpt lat="49.38941" lon="5.74845">
        <ele>294.39999389648</ele>
        <time>2024-06-09T06:44:12Z</time>
      </trkpt>
      <trkpt lat="49.38925" lon="5.74853">
        <ele>294</ele>
        <time>2024-06-09T06:44:14Z</time>
      </trkpt>
      <trkpt lat="49.38909" lon="5.74861">
        <ele>293.79998779297</ele>
        <time>2024-06-09T06:44:16Z</time>
      </trkpt>
      <trkpt lat="49.38892" lon="5.74869">
        <ele>293.39999389648</ele>
        <time>2024-06-09T06:44:18Z</time>
      </trkpt>
      <trkpt lat="49.38876" lon="5.74878">
        <ele>292.79998779297</ele>
        <time>2024-06-09T06:44:20Z</time>
      </trkpt>
      <trkpt lat="49.38859" lon="5.74886">
        <ele>292.20001220703</ele>
        <time>2024-06-09T06:44:22Z</time>
      </trkpt>
      <trkpt lat="49.38842" lon="5.74894">
        <ele>291.60000610352</ele>
        <time>2024-06-09T06:44:24Z</time>
      </trkpt>
      <trkpt lat="49.38826" lon="5.74901">
        <ele>291.39999389648</ele>
        <time>2024-06-09T06:44:26Z</time>
      </trkpt>
      <trkpt lat="49.38818" lon="5.74905">
        <ele>291.20001220703</ele>
        <time>2024-06-09T06:44:27Z</time>
      </trkpt>
      <trkpt lat="49.3881" lon="5.74909">
        <ele>291</ele>
        <time>2024-06-09T06:44:28Z</time>
      </trkpt>
      <trkpt lat="49.38803" lon="5.74912">
        <ele>290.79998779297</ele>
        <time>2024-06-09T06:44:29Z</time>
      </trkpt>
      <trkpt lat="49.38795" lon="5.74916">
        <ele>290.60000610352</ele>
        <time>2024-06-09T06:44:30Z</time>
      </trkpt>
      <trkpt lat="49.3878" lon="5.74923">
        <ele>290.60000610352</ele>
        <time>2024-06-09T06:44:32Z</time>
      </trkpt>
      <trkpt lat="49.38766" lon="5.7493">
        <ele>290.39999389648</ele>
        <time>2024-06-09T06:44:34Z</time>
      </trkpt>
      <trkpt lat="49.38752" lon="5.74937">
        <ele>290.39999389648</ele>
        <time>2024-06-09T06:44:36Z</time>
      </trkpt>
      <trkpt lat="49.38745" lon="5.7494">
        <ele>290.39999389648</ele>
        <time>2024-06-09T06:44:37Z</time>
      </trkpt>
      <trkpt lat="49.38738" lon="5.74943">
        <ele>290.39999389648</ele>
        <time>2024-06-09T06:44:38Z</time>
      </trkpt>
      <trkpt lat="49.38731" lon="5.74947">
        <ele>290.60000610352</ele>
        <time>2024-06-09T06:44:39Z</time>
      </trkpt>
      <trkpt lat="49.38724" lon="5.7495">
        <ele>291</ele>
        <time>2024-06-09T06:44:40Z</time>
      </trkpt>
      <trkpt lat="49.38711" lon="5.74957">
        <ele>291.20001220703</ele>
        <time>2024-06-09T06:44:42Z</time>
      </trkpt>
      <trkpt lat="49.38698" lon="5.74963">
        <ele>291.39999389648</ele>
        <time>2024-06-09T06:44:44Z</time>
      </trkpt>
      <trkpt lat="49.38686" lon="5.74969">
        <ele>291.60000610352</ele>
        <time>2024-06-09T06:44:46Z</time>
      </trkpt>
      <trkpt lat="49.38674" lon="5.74974">
        <ele>291.79998779297</ele>
        <time>2024-06-09T06:44:48Z</time>
      </trkpt>
      <trkpt lat="49.38669" lon="5.74973">
        <ele>291.79998779297</ele>
        <time>2024-06-09T06:44:49Z</time>
      </trkpt>
      <trkpt lat="49.38665" lon="5.74968">
        <ele>291.79998779297</ele>
        <time>2024-06-09T06:44:50Z</time>
      </trkpt>
      <trkpt lat="49.38664" lon="5.74961">
        <ele>292</ele>
        <time>2024-06-09T06:44:51Z</time>
      </trkpt>
      <trkpt lat="49.38665" lon="5.74952">
        <ele>292</ele>
        <time>2024-06-09T06:44:52Z</time>
      </trkpt>
      <trkpt lat="49.38666" lon="5.74944">
        <ele>292.20001220703</ele>
        <time>2024-06-09T06:44:53Z</time>
      </trkpt>
      <trkpt lat="49.38667" lon="5.74935">
        <ele>292.20001220703</ele>
        <time>2024-06-09T06:44:54Z</time>
      </trkpt>
      <trkpt lat="49.38668" lon="5.74926">
        <ele>292.20001220703</ele>
        <time>2024-06-09T06:44:55Z</time>
      </trkpt>
      <trkpt lat="49.38669" lon="5.74916">
        <ele>292.39999389648</ele>
        <time>2024-06-09T06:44:56Z</time>
      </trkpt>
      <trkpt lat="49.38672" lon="5.74897">
        <ele>292.39999389648</ele>
        <time>2024-06-09T06:44:58Z</time>
      </trkpt>
      <trkpt lat="49.38675" lon="5.74877">
        <ele>292.39999389648</ele>
        <time>2024-06-09T06:45:00Z</time>
      </trkpt>
      <trkpt lat="49.38677" lon="5.74857">
        <ele>292.39999389648</ele>
        <time>2024-06-09T06:45:02Z</time>
      </trkpt>
      <trkpt lat="49.38678" lon="5.74847">
        <ele>292.39999389648</ele>
        <time>2024-06-09T06:45:03Z</time>
      </trkpt>
      <trkpt lat="49.38679" lon="5.74837">
        <ele>292.39999389648</ele>
        <time>2024-06-09T06:45:04Z</time>
      </trkpt>
      <trkpt lat="49.38682" lon="5.74817">
        <ele>292.39999389648</ele>
        <time>2024-06-09T06:45:06Z</time>
      </trkpt>
      <trkpt lat="49.38684" lon="5.74797">
        <ele>292.39999389648</ele>
        <time>2024-06-09T06:45:08Z</time>
      </trkpt>
      <trkpt lat="49.38687" lon="5.74777">
        <ele>292.39999389648</ele>
        <time>2024-06-09T06:45:10Z</time>
      </trkpt>
      <trkpt lat="49.3869" lon="5.74756">
        <ele>292.20001220703</ele>
        <time>2024-06-09T06:45:12Z</time>
      </trkpt>
      <trkpt lat="49.38693" lon="5.74735">
        <ele>292.20001220703</ele>
        <time>2024-06-09T06:45:14Z</time>
      </trkpt>
      <trkpt lat="49.38695" lon="5.74712">
        <ele>292</ele>
        <time>2024-06-09T06:45:16Z</time>
      </trkpt>
      <trkpt lat="49.38698" lon="5.7469">
        <ele>292</ele>
        <time>2024-06-09T06:45:18Z</time>
      </trkpt>
      <trkpt lat="49.38701" lon="5.74669">
        <ele>291.60000610352</ele>
        <time>2024-06-09T06:45:20Z</time>
      </trkpt>
      <trkpt lat="49.38702" lon="5.74658">
        <ele>291.60000610352</ele>
        <time>2024-06-09T06:45:21Z</time>
      </trkpt>
      <trkpt lat="49.387" lon="5.74648">
        <ele>291.39999389648</ele>
        <time>2024-06-09T06:45:22Z</time>
      </trkpt>
      <trkpt lat="49.38697" lon="5.74638">
        <ele>291</ele>
        <time>2024-06-09T06:45:23Z</time>
      </trkpt>
      <trkpt lat="49.38694" lon="5.7463">
        <ele>290.60000610352</ele>
        <time>2024-06-09T06:45:24Z</time>
      </trkpt>
      <trkpt lat="49.38692" lon="5.74621">
        <ele>290.20001220703</ele>
        <time>2024-06-09T06:45:26Z</time>
      </trkpt>
      <trkpt lat="49.38694" lon="5.74617">
        <ele>290</ele>
        <time>2024-06-09T06:45:27Z</time>
      </trkpt>
      <trkpt lat="49.38696" lon="5.74616">
        <ele>289.79998779297</ele>
        <time>2024-06-09T06:45:28Z</time>
      </trkpt>
      <trkpt lat="49.38699" lon="5.74615">
        <ele>289.60000610352</ele>
        <time>2024-06-09T06:45:29Z</time>
      </trkpt>
      <trkpt lat="49.38702" lon="5.74613">
        <ele>289.39999389648</ele>
        <time>2024-06-09T06:45:30Z</time>
      </trkpt>
      <trkpt lat="49.3871" lon="5.74606">
        <ele>289.20001220703</ele>
        <time>2024-06-09T06:45:32Z</time>
      </trkpt>
      <trkpt lat="49.38719" lon="5.74596">
        <ele>289</ele>
        <time>2024-06-09T06:45:34Z</time>
      </trkpt>
      <trkpt lat="49.38728" lon="5.74587">
        <ele>288.60000610352</ele>
        <time>2024-06-09T06:45:36Z</time>
      </trkpt>
      <trkpt lat="49.38737" lon="5.74576">
        <ele>288.39999389648</ele>
        <time>2024-06-09T06:45:38Z</time>
      </trkpt>
      <trkpt lat="49.38741" lon="5.74571">
        <ele>288.20001220703</ele>
        <time>2024-06-09T06:45:39Z</time>
      </trkpt>
      <trkpt lat="49.38745" lon="5.74566">
        <ele>287.60000610352</ele>
        <time>2024-06-09T06:45:40Z</time>
      </trkpt>
      <trkpt lat="49.38749" lon="5.74559">
        <ele>287</ele>
        <time>2024-06-09T06:45:41Z</time>
      </trkpt>
      <trkpt lat="49.38752" lon="5.74554">
        <ele>286.39999389648</ele>
        <time>2024-06-09T06:45:42Z</time>
      </trkpt>
      <trkpt lat="49.38756" lon="5.74549">
        <ele>285.60000610352</ele>
        <time>2024-06-09T06:45:43Z</time>
      </trkpt>
      <trkpt lat="49.38759" lon="5.74544">
        <ele>285</ele>
        <time>2024-06-09T06:45:44Z</time>
      </trkpt>
      <trkpt lat="49.38766" lon="5.74535">
        <ele>283.60000610352</ele>
        <time>2024-06-09T06:45:46Z</time>
      </trkpt>
      <trkpt lat="49.38772" lon="5.74527">
        <ele>283</ele>
        <time>2024-06-09T06:45:48Z</time>
      </trkpt>
      <trkpt lat="49.3878" lon="5.7452">
        <ele>282.79998779297</ele>
        <time>2024-06-09T06:45:50Z</time>
      </trkpt>
      <trkpt lat="49.38786" lon="5.74511">
        <ele>282.60000610352</ele>
        <time>2024-06-09T06:45:52Z</time>
      </trkpt>
      <trkpt lat="49.38792" lon="5.74504">
        <ele>282.60000610352</ele>
        <time>2024-06-09T06:45:54Z</time>
      </trkpt>
      <trkpt lat="49.388" lon="5.74496">
        <ele>282.79998779297</ele>
        <time>2024-06-09T06:45:56Z</time>
      </trkpt>
      <trkpt lat="49.38806" lon="5.7449">
        <ele>283</ele>
        <time>2024-06-09T06:45:58Z</time>
      </trkpt>
      <trkpt lat="49.38808" lon="5.74486">
        <ele>283</ele>
        <time>2024-06-09T06:45:59Z</time>
      </trkpt>
      <trkpt lat="49.38811" lon="5.74483">
        <ele>283.20001220703</ele>
        <time>2024-06-09T06:46:00Z</time>
      </trkpt>
      <trkpt lat="49.38817" lon="5.74476">
        <ele>283.39999389648</ele>
        <time>2024-06-09T06:46:02Z</time>
      </trkpt>
      <trkpt lat="49.38822" lon="5.74469">
        <ele>283.60000610352</ele>
        <time>2024-06-09T06:46:04Z</time>
      </trkpt>
      <trkpt lat="49.38825" lon="5.74465">
        <ele>283.79998779297</ele>
        <time>2024-06-09T06:46:05Z</time>
      </trkpt>
      <trkpt lat="49.38828" lon="5.74461">
        <ele>284</ele>
        <time>2024-06-09T06:46:06Z</time>
      </trkpt>
      <trkpt lat="49.38831" lon="5.74457">
        <ele>284.39999389648</ele>
        <time>2024-06-09T06:46:07Z</time>
      </trkpt>
      <trkpt lat="49.38834" lon="5.74452">
        <ele>284.79998779297</ele>
        <time>2024-06-09T06:46:08Z</time>
      </trkpt>
      <trkpt lat="49.38835" lon="5.74448">
        <ele>285</ele>
        <time>2024-06-09T06:46:09Z</time>
      </trkpt>
      <trkpt lat="49.38835" lon="5.74445">
        <ele>285.39999389648</ele>
        <time>2024-06-09T06:46:10Z</time>
      </trkpt>
      <trkpt lat="49.38835" lon="5.74439">
        <ele>285.79998779297</ele>
        <time>2024-06-09T06:46:12Z</time>
      </trkpt>
      <trkpt lat="49.38835" lon="5.74429">
        <ele>285.79998779297</ele>
        <time>2024-06-09T06:46:14Z</time>
      </trkpt>
      <trkpt lat="49.38835" lon="5.74425">
        <ele>286</ele>
        <time>2024-06-09T06:46:15Z</time>
      </trkpt>
      <trkpt lat="49.38835" lon="5.74421">
        <ele>286</ele>
        <time>2024-06-09T06:46:16Z</time>
      </trkpt>
      <trkpt lat="49.38838" lon="5.74413">
        <ele>286</ele>
        <time>2024-06-09T06:46:18Z</time>
      </trkpt>
      <trkpt lat="49.3884" lon="5.74409">
        <ele>286</ele>
        <time>2024-06-09T06:46:19Z</time>
      </trkpt>
      <trkpt lat="49.38841" lon="5.74406">
        <ele>285.39999389648</ele>
        <time>2024-06-09T06:46:20Z</time>
      </trkpt>
      <trkpt lat="49.38843" lon="5.74403">
        <ele>284.79998779297</ele>
        <time>2024-06-09T06:46:21Z</time>
      </trkpt>
      <trkpt lat="49.38845" lon="5.74399">
        <ele>283.79998779297</ele>
        <time>2024-06-09T06:46:22Z</time>
      </trkpt>
      <trkpt lat="49.38847" lon="5.74394">
        <ele>283.39999389648</ele>
        <time>2024-06-09T06:46:23Z</time>
      </trkpt>
      <trkpt lat="49.3885" lon="5.74389">
        <ele>283</ele>
        <time>2024-06-09T06:46:24Z</time>
      </trkpt>
      <trkpt lat="49.38854" lon="5.74381">
        <ele>283</ele>
        <time>2024-06-09T06:46:26Z</time>
      </trkpt>
      <trkpt lat="49.38856" lon="5.74374">
        <ele>282.79998779297</ele>
        <time>2024-06-09T06:46:28Z</time>
      </trkpt>
      <trkpt lat="49.38858" lon="5.74367">
        <ele>282.79998779297</ele>
        <time>2024-06-09T06:46:30Z</time>
      </trkpt>
      <trkpt lat="49.38861" lon="5.74362">
        <ele>282.79998779297</ele>
        <time>2024-06-09T06:46:32Z</time>
      </trkpt>
      <trkpt lat="49.38862" lon="5.74361">
        <ele>283</ele>
        <time>2024-06-09T06:46:33Z</time>
      </trkpt>
      <trkpt lat="49.38864" lon="5.74359">
        <ele>283.20001220703</ele>
        <time>2024-06-09T06:46:34Z</time>
      </trkpt>
      <trkpt lat="49.38867" lon="5.74356">
        <ele>283.39999389648</ele>
        <time>2024-06-09T06:46:36Z</time>
      </trkpt>
      <trkpt lat="49.38871" lon="5.74351">
        <ele>283.39999389648</ele>
        <time>2024-06-09T06:46:38Z</time>
      </trkpt>
      <trkpt lat="49.38874" lon="5.74346">
        <ele>283.60000610352</ele>
        <time>2024-06-09T06:46:40Z</time>
      </trkpt>
      <trkpt lat="49.38876" lon="5.74342">
        <ele>283.60000610352</ele>
        <time>2024-06-09T06:46:42Z</time>
      </trkpt>
      <trkpt lat="49.38879" lon="5.74338">
        <ele>283.79998779297</ele>
        <time>2024-06-09T06:46:44Z</time>
      </trkpt>
      <trkpt lat="49.38882" lon="5.74333">
        <ele>284</ele>
        <time>2024-06-09T06:46:46Z</time>
      </trkpt>
      <trkpt lat="49.38885" lon="5.74329">
        <ele>284.39999389648</ele>
        <time>2024-06-09T06:46:48Z</time>
      </trkpt>
      <trkpt lat="49.38887" lon="5.74326">
        <ele>284.60000610352</ele>
        <time>2024-06-09T06:46:49Z</time>
      </trkpt>
      <trkpt lat="49.38889" lon="5.74323">
        <ele>285</ele>
        <time>2024-06-09T06:46:50Z</time>
      </trkpt>
      <trkpt lat="49.38891" lon="5.74318">
        <ele>285.39999389648</ele>
        <time>2024-06-09T06:46:52Z</time>
      </trkpt>
      <trkpt lat="49.38893" lon="5.74314">
        <ele>285.60000610352</ele>
        <time>2024-06-09T06:46:54Z</time>
      </trkpt>
      <trkpt lat="49.38897" lon="5.74307">
        <ele>285.60000610352</ele>
        <time>2024-06-09T06:46:56Z</time>
      </trkpt>
      <trkpt lat="49.38902" lon="5.74297">
        <ele>285.60000610352</ele>
        <time>2024-06-09T06:46:58Z</time>
      </trkpt>
      <trkpt lat="49.38904" lon="5.7429">
        <ele>285.60000610352</ele>
        <time>2024-06-09T06:47:00Z</time>
      </trkpt>
      <trkpt lat="49.38906" lon="5.74286">
        <ele>285.60000610352</ele>
        <time>2024-06-09T06:47:01Z</time>
      </trkpt>
      <trkpt lat="49.38907" lon="5.74283">
        <ele>285.60000610352</ele>
        <time>2024-06-09T06:47:02Z</time>
      </trkpt>
      <trkpt lat="49.38909" lon="5.74279">
        <ele>285.60000610352</ele>
        <time>2024-06-09T06:47:03Z</time>
      </trkpt>
      <trkpt lat="49.38911" lon="5.74278">
        <ele>285.60000610352</ele>
        <time>2024-06-09T06:47:04Z</time>
      </trkpt>
      <trkpt lat="49.38916" lon="5.74274">
        <ele>285</ele>
        <time>2024-06-09T06:47:06Z</time>
      </trkpt>
      <trkpt lat="49.3892" lon="5.74267">
        <ele>284.79998779297</ele>
        <time>2024-06-09T06:47:08Z</time>
      </trkpt>
      <trkpt lat="49.38924" lon="5.74261">
        <ele>284.60000610352</ele>
        <time>2024-06-09T06:47:10Z</time>
      </trkpt>
      <trkpt lat="49.38926" lon="5.7426">
        <ele>284.60000610352</ele>
        <time>2024-06-09T06:47:11Z</time>
      </trkpt>
      <trkpt lat="49.38927" lon="5.74258">
        <ele>284.60000610352</ele>
        <time>2024-06-09T06:47:12Z</time>
      </trkpt>
      <trkpt lat="49.38931" lon="5.74256">
        <ele>284.60000610352</ele>
        <time>2024-06-09T06:47:14Z</time>
      </trkpt>
      <trkpt lat="49.38933" lon="5.74254">
        <ele>284.60000610352</ele>
        <time>2024-06-09T06:47:16Z</time>
      </trkpt>
      <trkpt lat="49.38933" lon="5.74252">
        <ele>284.79998779297</ele>
        <time>2024-06-09T06:47:18Z</time>
      </trkpt>
      <trkpt lat="49.38934" lon="5.74251">
        <ele>284.79998779297</ele>
        <time>2024-06-09T06:47:20Z</time>
      </trkpt>
      <trkpt lat="49.38934" lon="5.74251">
        <ele>284.79998779297</ele>
        <time>2024-06-09T06:47:22Z</time>
      </trkpt>
      <trkpt lat="49.38935" lon="5.74249">
        <ele>284.79998779297</ele>
        <time>2024-06-09T06:47:23Z</time>
      </trkpt>
      <trkpt lat="49.38935" lon="5.74248">
        <ele>284.79998779297</ele>
        <time>2024-06-09T06:47:24Z</time>
      </trkpt>
      <trkpt lat="49.38937" lon="5.74245">
        <ele>284.79998779297</ele>
        <time>2024-06-09T06:47:25Z</time>
      </trkpt>
      <trkpt lat="49.38938" lon="5.74243">
        <ele>284.79998779297</ele>
        <time>2024-06-09T06:47:26Z</time>
      </trkpt>
      <trkpt lat="49.38939" lon="5.7424">
        <ele>284.79998779297</ele>
        <time>2024-06-09T06:47:28Z</time>
      </trkpt>
      <trkpt lat="49.38942" lon="5.74237">
        <ele>284.79998779297</ele>
        <time>2024-06-09T06:47:30Z</time>
      </trkpt>
      <trkpt lat="49.38945" lon="5.74234">
        <ele>284.79998779297</ele>
        <time>2024-06-09T06:47:32Z</time>
      </trkpt>
      <trkpt lat="49.38948" lon="5.7423">
        <ele>284.60000610352</ele>
        <time>2024-06-09T06:47:34Z</time>
      </trkpt>
      <trkpt lat="49.38949" lon="5.74228">
        <ele>284.60000610352</ele>
        <time>2024-06-09T06:47:35Z</time>
      </trkpt>
      <trkpt lat="49.38951" lon="5.74225">
        <ele>284.39999389648</ele>
        <time>2024-06-09T06:47:36Z</time>
      </trkpt>
      <trkpt lat="49.38954" lon="5.7422">
        <ele>284.39999389648</ele>
        <time>2024-06-09T06:47:38Z</time>
      </trkpt>
      <trkpt lat="49.38957" lon="5.74219">
        <ele>284.39999389648</ele>
        <time>2024-06-09T06:47:39Z</time>
      </trkpt>
      <trkpt lat="49.38959" lon="5.74218">
        <ele>284.39999389648</ele>
        <time>2024-06-09T06:47:40Z</time>
      </trkpt>
      <trkpt lat="49.38963" lon="5.74213">
        <ele>284.39999389648</ele>
        <time>2024-06-09T06:47:42Z</time>
      </trkpt>
      <trkpt lat="49.38967" lon="5.7421">
        <ele>284.39999389648</ele>
        <time>2024-06-09T06:47:44Z</time>
      </trkpt>
      <trkpt lat="49.38969" lon="5.74208">
        <ele>284.39999389648</ele>
        <time>2024-06-09T06:47:45Z</time>
      </trkpt>
      <trkpt lat="49.38971" lon="5.74206">
        <ele>284.39999389648</ele>
        <time>2024-06-09T06:47:46Z</time>
      </trkpt>
      <trkpt lat="49.38973" lon="5.74203">
        <ele>284.39999389648</ele>
        <time>2024-06-09T06:47:47Z</time>
      </trkpt>
      <trkpt lat="49.38976" lon="5.742">
        <ele>284.39999389648</ele>
        <time>2024-06-09T06:47:48Z</time>
      </trkpt>
      <trkpt lat="49.3898" lon="5.74194">
        <ele>284.39999389648</ele>
        <time>2024-06-09T06:47:50Z</time>
      </trkpt>
      <trkpt lat="49.38985" lon="5.74187">
        <ele>284.20001220703</ele>
        <time>2024-06-09T06:47:52Z</time>
      </trkpt>
      <trkpt lat="49.38991" lon="5.74178">
        <ele>284.20001220703</ele>
        <time>2024-06-09T06:47:54Z</time>
      </trkpt>
      <trkpt lat="49.38996" lon="5.7417">
        <ele>284.20001220703</ele>
        <time>2024-06-09T06:47:56Z</time>
      </trkpt>
      <trkpt lat="49.38998" lon="5.74166">
        <ele>284</ele>
        <time>2024-06-09T06:47:57Z</time>
      </trkpt>
      <trkpt lat="49.39001" lon="5.74162">
        <ele>283.79998779297</ele>
        <time>2024-06-09T06:47:58Z</time>
      </trkpt>
      <trkpt lat="49.39006" lon="5.74152">
        <ele>283.79998779297</ele>
        <time>2024-06-09T06:48:00Z</time>
      </trkpt>
      <trkpt lat="49.39012" lon="5.74143">
        <ele>283.60000610352</ele>
        <time>2024-06-09T06:48:02Z</time>
      </trkpt>
      <trkpt lat="49.39014" lon="5.74139">
        <ele>283.60000610352</ele>
        <time>2024-06-09T06:48:03Z</time>
      </trkpt>
      <trkpt lat="49.39016" lon="5.74134">
        <ele>283.39999389648</ele>
        <time>2024-06-09T06:48:04Z</time>
      </trkpt>
      <trkpt lat="49.39021" lon="5.74124">
        <ele>283.39999389648</ele>
        <time>2024-06-09T06:48:06Z</time>
      </trkpt>
      <trkpt lat="49.39026" lon="5.74114">
        <ele>283.39999389648</ele>
        <time>2024-06-09T06:48:08Z</time>
      </trkpt>
      <trkpt lat="49.39032" lon="5.74107">
        <ele>283.20001220703</ele>
        <time>2024-06-09T06:48:10Z</time>
      </trkpt>
      <trkpt lat="49.39037" lon="5.741">
        <ele>283.20001220703</ele>
        <time>2024-06-09T06:48:12Z</time>
      </trkpt>
      <trkpt lat="49.39042" lon="5.74094">
        <ele>283.39999389648</ele>
        <time>2024-06-09T06:48:14Z</time>
      </trkpt>
      <trkpt lat="49.39045" lon="5.74088">
        <ele>283.39999389648</ele>
        <time>2024-06-09T06:48:16Z</time>
      </trkpt>
      <trkpt lat="49.39048" lon="5.74082">
        <ele>283.39999389648</ele>
        <time>2024-06-09T06:48:17Z</time>
      </trkpt>
      <trkpt lat="49.39049" lon="5.74078">
        <ele>283.79998779297</ele>
        <time>2024-06-09T06:48:18Z</time>
      </trkpt>
      <trkpt lat="49.39052" lon="5.74073">
        <ele>284.39999389648</ele>
        <time>2024-06-09T06:48:20Z</time>
      </trkpt>
      <trkpt lat="49.39054" lon="5.74069">
        <ele>284.60000610352</ele>
        <time>2024-06-09T06:48:21Z</time>
      </trkpt>
      <trkpt lat="49.39056" lon="5.74066">
        <ele>284.79998779297</ele>
        <time>2024-06-09T06:48:22Z</time>
      </trkpt>
      <trkpt lat="49.3906" lon="5.7406">
        <ele>285</ele>
        <time>2024-06-09T06:48:24Z</time>
      </trkpt>
      <trkpt lat="49.39064" lon="5.74052">
        <ele>285.20001220703</ele>
        <time>2024-06-09T06:48:26Z</time>
      </trkpt>
      <trkpt lat="49.39069" lon="5.74045">
        <ele>285.20001220703</ele>
        <time>2024-06-09T06:48:28Z</time>
      </trkpt>
      <trkpt lat="49.39072" lon="5.7404">
        <ele>285.20001220703</ele>
        <time>2024-06-09T06:48:30Z</time>
      </trkpt>
      <trkpt lat="49.39075" lon="5.74031">
        <ele>285.79998779297</ele>
        <time>2024-06-09T06:48:32Z</time>
      </trkpt>
      <trkpt lat="49.39078" lon="5.74022">
        <ele>286.39999389648</ele>
        <time>2024-06-09T06:48:34Z</time>
      </trkpt>
      <trkpt lat="49.39081" lon="5.74014">
        <ele>286.79998779297</ele>
        <time>2024-06-09T06:48:36Z</time>
      </trkpt>
      <trkpt lat="49.39083" lon="5.7401">
        <ele>287.20001220703</ele>
        <time>2024-06-09T06:48:37Z</time>
      </trkpt>
      <trkpt lat="49.39085" lon="5.74006">
        <ele>287.60000610352</ele>
        <time>2024-06-09T06:48:38Z</time>
      </trkpt>
      <trkpt lat="49.39089" lon="5.73997">
        <ele>288.39999389648</ele>
        <time>2024-06-09T06:48:40Z</time>
      </trkpt>
      <trkpt lat="49.39092" lon="5.7399">
        <ele>288.39999389648</ele>
        <time>2024-06-09T06:48:42Z</time>
      </trkpt>
      <trkpt lat="49.39096" lon="5.7398">
        <ele>288.60000610352</ele>
        <time>2024-06-09T06:48:44Z</time>
      </trkpt>
      <trkpt lat="49.39101" lon="5.73969">
        <ele>288.79998779297</ele>
        <time>2024-06-09T06:48:46Z</time>
      </trkpt>
      <trkpt lat="49.39104" lon="5.7396">
        <ele>288.79998779297</ele>
        <time>2024-06-09T06:48:48Z</time>
      </trkpt>
      <trkpt lat="49.39105" lon="5.73954">
        <ele>288.79998779297</ele>
        <time>2024-06-09T06:48:49Z</time>
      </trkpt>
      <trkpt lat="49.39107" lon="5.73949">
        <ele>288.79998779297</ele>
        <time>2024-06-09T06:48:50Z</time>
      </trkpt>
      <trkpt lat="49.39112" lon="5.73942">
        <ele>288.79998779297</ele>
        <time>2024-06-09T06:48:52Z</time>
      </trkpt>
      <trkpt lat="49.39113" lon="5.73938">
        <ele>289</ele>
        <time>2024-06-09T06:48:53Z</time>
      </trkpt>
      <trkpt lat="49.39114" lon="5.73934">
        <ele>289</ele>
        <time>2024-06-09T06:48:54Z</time>
      </trkpt>
      <trkpt lat="49.39118" lon="5.73925">
        <ele>289</ele>
        <time>2024-06-09T06:48:56Z</time>
      </trkpt>
      <trkpt lat="49.3912" lon="5.73921">
        <ele>289</ele>
        <time>2024-06-09T06:48:57Z</time>
      </trkpt>
      <trkpt lat="49.39122" lon="5.73916">
        <ele>289</ele>
        <time>2024-06-09T06:48:58Z</time>
      </trkpt>
      <trkpt lat="49.39127" lon="5.73907">
        <ele>289</ele>
        <time>2024-06-09T06:49:00Z</time>
      </trkpt>
      <trkpt lat="49.39131" lon="5.73896">
        <ele>289</ele>
        <time>2024-06-09T06:49:02Z</time>
      </trkpt>
      <trkpt lat="49.39133" lon="5.73891">
        <ele>289</ele>
        <time>2024-06-09T06:49:03Z</time>
      </trkpt>
      <trkpt lat="49.39135" lon="5.73886">
        <ele>289</ele>
        <time>2024-06-09T06:49:04Z</time>
      </trkpt>
      <trkpt lat="49.3914" lon="5.73877">
        <ele>289</ele>
        <time>2024-06-09T06:49:06Z</time>
      </trkpt>
      <trkpt lat="49.39146" lon="5.73872">
        <ele>289.20001220703</ele>
        <time>2024-06-09T06:49:08Z</time>
      </trkpt>
      <trkpt lat="49.39151" lon="5.73867">
        <ele>289.39999389648</ele>
        <time>2024-06-09T06:49:10Z</time>
      </trkpt>
      <trkpt lat="49.39152" lon="5.73867">
        <ele>289.39999389648</ele>
        <time>2024-06-09T06:49:11Z</time>
      </trkpt>
      <trkpt lat="49.39152" lon="5.73866">
        <ele>289.39999389648</ele>
        <time>2024-06-09T06:49:12Z</time>
      </trkpt>
      <trkpt lat="49.39156" lon="5.73864">
        <ele>289.60000610352</ele>
        <time>2024-06-09T06:49:14Z</time>
      </trkpt>
      <trkpt lat="49.39158" lon="5.73862">
        <ele>289.60000610352</ele>
        <time>2024-06-09T06:49:15Z</time>
      </trkpt>
      <trkpt lat="49.3916" lon="5.73859">
        <ele>289.79998779297</ele>
        <time>2024-06-09T06:49:16Z</time>
      </trkpt>
      <trkpt lat="49.39162" lon="5.73857">
        <ele>289.79998779297</ele>
        <time>2024-06-09T06:49:17Z</time>
      </trkpt>
      <trkpt lat="49.39164" lon="5.73854">
        <ele>290</ele>
        <time>2024-06-09T06:49:18Z</time>
      </trkpt>
      <trkpt lat="49.39168" lon="5.73847">
        <ele>290.39999389648</ele>
        <time>2024-06-09T06:49:20Z</time>
      </trkpt>
      <trkpt lat="49.39168" lon="5.73844">
        <ele>290.60000610352</ele>
        <time>2024-06-09T06:49:21Z</time>
      </trkpt>
      <trkpt lat="49.39168" lon="5.73841">
        <ele>290.60000610352</ele>
        <time>2024-06-09T06:49:22Z</time>
      </trkpt>
      <trkpt lat="49.39167" lon="5.73833">
        <ele>290.79998779297</ele>
        <time>2024-06-09T06:49:24Z</time>
      </trkpt>
      <trkpt lat="49.39166" lon="5.73828">
        <ele>290.79998779297</ele>
        <time>2024-06-09T06:49:25Z</time>
      </trkpt>
      <trkpt lat="49.39164" lon="5.73823">
        <ele>290.79998779297</ele>
        <time>2024-06-09T06:49:26Z</time>
      </trkpt>
      <trkpt lat="49.39164" lon="5.73815">
        <ele>290.79998779297</ele>
        <time>2024-06-09T06:49:27Z</time>
      </trkpt>
      <trkpt lat="49.39165" lon="5.73807">
        <ele>290.79998779297</ele>
        <time>2024-06-09T06:49:28Z</time>
      </trkpt>
      <trkpt lat="49.39169" lon="5.73797">
        <ele>290.79998779297</ele>
        <time>2024-06-09T06:49:30Z</time>
      </trkpt>
      <trkpt lat="49.39172" lon="5.73795">
        <ele>290.79998779297</ele>
        <time>2024-06-09T06:49:31Z</time>
      </trkpt>
      <trkpt lat="49.39174" lon="5.73795">
        <ele>290.79998779297</ele>
        <time>2024-06-09T06:49:32Z</time>
      </trkpt>
      <trkpt lat="49.39177" lon="5.73794">
        <ele>290.39999389648</ele>
        <time>2024-06-09T06:49:33Z</time>
      </trkpt>
      <trkpt lat="49.3918" lon="5.73794">
        <ele>290.20001220703</ele>
        <time>2024-06-09T06:49:34Z</time>
      </trkpt>
      <trkpt lat="49.39183" lon="5.73793">
        <ele>290</ele>
        <time>2024-06-09T06:49:35Z</time>
      </trkpt>
      <trkpt lat="49.39185" lon="5.7379">
        <ele>290</ele>
        <time>2024-06-09T06:49:36Z</time>
      </trkpt>
      <trkpt lat="49.39189" lon="5.73785">
        <ele>290</ele>
        <time>2024-06-09T06:49:38Z</time>
      </trkpt>
      <trkpt lat="49.39193" lon="5.7378">
        <ele>290</ele>
        <time>2024-06-09T06:49:40Z</time>
      </trkpt>
      <trkpt lat="49.39195" lon="5.73779">
        <ele>290</ele>
        <time>2024-06-09T06:49:41Z</time>
      </trkpt>
      <trkpt lat="49.39197" lon="5.7378">
        <ele>290.20001220703</ele>
        <time>2024-06-09T06:49:42Z</time>
      </trkpt>
      <trkpt lat="49.39202" lon="5.73783">
        <ele>290.79998779297</ele>
        <time>2024-06-09T06:49:44Z</time>
      </trkpt>
      <trkpt lat="49.39207" lon="5.73783">
        <ele>291.20001220703</ele>
        <time>2024-06-09T06:49:46Z</time>
      </trkpt>
      <trkpt lat="49.39213" lon="5.73781">
        <ele>291.39999389648</ele>
        <time>2024-06-09T06:49:48Z</time>
      </trkpt>
      <trkpt lat="49.39218" lon="5.73779">
        <ele>291.60000610352</ele>
        <time>2024-06-09T06:49:50Z</time>
      </trkpt>
      <trkpt lat="49.39223" lon="5.73779">
        <ele>291.79998779297</ele>
        <time>2024-06-09T06:49:52Z</time>
      </trkpt>
      <trkpt lat="49.39229" lon="5.73778">
        <ele>292</ele>
        <time>2024-06-09T06:49:54Z</time>
      </trkpt>
      <trkpt lat="49.39234" lon="5.73775">
        <ele>292</ele>
        <time>2024-06-09T06:49:56Z</time>
      </trkpt>
      <trkpt lat="49.39236" lon="5.73774">
        <ele>292.20001220703</ele>
        <time>2024-06-09T06:49:57Z</time>
      </trkpt>
      <trkpt lat="49.39239" lon="5.73772">
        <ele>292.20001220703</ele>
        <time>2024-06-09T06:49:58Z</time>
      </trkpt>
      <trkpt lat="49.39244" lon="5.73771">
        <ele>292.39999389648</ele>
        <time>2024-06-09T06:50:00Z</time>
      </trkpt>
      <trkpt lat="49.39247" lon="5.7377">
        <ele>292.60000610352</ele>
        <time>2024-06-09T06:50:01Z</time>
      </trkpt>
      <trkpt lat="49.3925" lon="5.73768">
        <ele>293</ele>
        <time>2024-06-09T06:50:02Z</time>
      </trkpt>
      <trkpt lat="49.39255" lon="5.73765">
        <ele>293.60000610352</ele>
        <time>2024-06-09T06:50:04Z</time>
      </trkpt>
      <trkpt lat="49.39259" lon="5.73764">
        <ele>293.79998779297</ele>
        <time>2024-06-09T06:50:06Z</time>
      </trkpt>
      <trkpt lat="49.39261" lon="5.73762">
        <ele>293.79998779297</ele>
        <time>2024-06-09T06:50:07Z</time>
      </trkpt>
      <trkpt lat="49.39263" lon="5.73759">
        <ele>293.79998779297</ele>
        <time>2024-06-09T06:50:08Z</time>
      </trkpt>
      <trkpt lat="49.39268" lon="5.73751">
        <ele>294</ele>
        <time>2024-06-09T06:50:10Z</time>
      </trkpt>
      <trkpt lat="49.39273" lon="5.73745">
        <ele>294.20001220703</ele>
        <time>2024-06-09T06:50:12Z</time>
      </trkpt>
      <trkpt lat="49.39279" lon="5.7374">
        <ele>294.20001220703</ele>
        <time>2024-06-09T06:50:14Z</time>
      </trkpt>
      <trkpt lat="49.39286" lon="5.73735">
        <ele>294.20001220703</ele>
        <time>2024-06-09T06:50:16Z</time>
      </trkpt>
      <trkpt lat="49.39289" lon="5.73732">
        <ele>294.39999389648</ele>
        <time>2024-06-09T06:50:17Z</time>
      </trkpt>
      <trkpt lat="49.39292" lon="5.7373">
        <ele>294.39999389648</ele>
        <time>2024-06-09T06:50:18Z</time>
      </trkpt>
      <trkpt lat="49.39295" lon="5.73729">
        <ele>294.39999389648</ele>
        <time>2024-06-09T06:50:19Z</time>
      </trkpt>
      <trkpt lat="49.39299" lon="5.73728">
        <ele>294.39999389648</ele>
        <time>2024-06-09T06:50:20Z</time>
      </trkpt>
      <trkpt lat="49.39302" lon="5.73729">
        <ele>294.60000610352</ele>
        <time>2024-06-09T06:50:21Z</time>
      </trkpt>
      <trkpt lat="49.39305" lon="5.73729">
        <ele>294.60000610352</ele>
        <time>2024-06-09T06:50:22Z</time>
      </trkpt>
      <trkpt lat="49.39311" lon="5.7373">
        <ele>294.60000610352</ele>
        <time>2024-06-09T06:50:24Z</time>
      </trkpt>
      <trkpt lat="49.39316" lon="5.73732">
        <ele>294.79998779297</ele>
        <time>2024-06-09T06:50:26Z</time>
      </trkpt>
      <trkpt lat="49.39319" lon="5.73734">
        <ele>294.79998779297</ele>
        <time>2024-06-09T06:50:27Z</time>
      </trkpt>
      <trkpt lat="49.39321" lon="5.73737">
        <ele>295</ele>
        <time>2024-06-09T06:50:28Z</time>
      </trkpt>
      <trkpt lat="49.39326" lon="5.73742">
        <ele>295.20001220703</ele>
        <time>2024-06-09T06:50:30Z</time>
      </trkpt>
      <trkpt lat="49.39329" lon="5.73745">
        <ele>295.20001220703</ele>
        <time>2024-06-09T06:50:31Z</time>
      </trkpt>
      <trkpt lat="49.39332" lon="5.73746">
        <ele>295.39999389648</ele>
        <time>2024-06-09T06:50:32Z</time>
      </trkpt>
      <trkpt lat="49.39336" lon="5.73752">
        <ele>295.60000610352</ele>
        <time>2024-06-09T06:50:34Z</time>
      </trkpt>
      <trkpt lat="49.39341" lon="5.73757">
        <ele>295.79998779297</ele>
        <time>2024-06-09T06:50:36Z</time>
      </trkpt>
      <trkpt lat="49.39344" lon="5.7376">
        <ele>295.79998779297</ele>
        <time>2024-06-09T06:50:37Z</time>
      </trkpt>
      <trkpt lat="49.39346" lon="5.73763">
        <ele>295.79998779297</ele>
        <time>2024-06-09T06:50:38Z</time>
      </trkpt>
      <trkpt lat="49.39351" lon="5.73767">
        <ele>296.20001220703</ele>
        <time>2024-06-09T06:50:40Z</time>
      </trkpt>
      <trkpt lat="49.39354" lon="5.73771">
        <ele>296.60000610352</ele>
        <time>2024-06-09T06:50:42Z</time>
      </trkpt>
      <trkpt lat="49.39357" lon="5.73778">
        <ele>296.79998779297</ele>
        <time>2024-06-09T06:50:44Z</time>
      </trkpt>
      <trkpt lat="49.39359" lon="5.73782">
        <ele>297</ele>
        <time>2024-06-09T06:50:45Z</time>
      </trkpt>
      <trkpt lat="49.39361" lon="5.73785">
        <ele>297</ele>
        <time>2024-06-09T06:50:46Z</time>
      </trkpt>
      <trkpt lat="49.39365" lon="5.73791">
        <ele>297.20001220703</ele>
        <time>2024-06-09T06:50:48Z</time>
      </trkpt>
      <trkpt lat="49.39371" lon="5.73795">
        <ele>297.20001220703</ele>
        <time>2024-06-09T06:50:50Z</time>
      </trkpt>
      <trkpt lat="49.39376" lon="5.738">
        <ele>297.39999389648</ele>
        <time>2024-06-09T06:50:52Z</time>
      </trkpt>
      <trkpt lat="49.39381" lon="5.73807">
        <ele>297.39999389648</ele>
        <time>2024-06-09T06:50:54Z</time>
      </trkpt>
      <trkpt lat="49.39384" lon="5.73811">
        <ele>297.39999389648</ele>
        <time>2024-06-09T06:50:55Z</time>
      </trkpt>
      <trkpt lat="49.39387" lon="5.73815">
        <ele>297.60000610352</ele>
        <time>2024-06-09T06:50:56Z</time>
      </trkpt>
      <trkpt lat="49.39392" lon="5.73825">
        <ele>297.60000610352</ele>
        <time>2024-06-09T06:50:58Z</time>
      </trkpt>
      <trkpt lat="49.39396" lon="5.73833">
        <ele>297.79998779297</ele>
        <time>2024-06-09T06:51:00Z</time>
      </trkpt>
      <trkpt lat="49.39401" lon="5.73843">
        <ele>297.79998779297</ele>
        <time>2024-06-09T06:51:02Z</time>
      </trkpt>
      <trkpt lat="49.39405" lon="5.73853">
        <ele>297.79998779297</ele>
        <time>2024-06-09T06:51:04Z</time>
      </trkpt>
      <trkpt lat="49.39408" lon="5.73857">
        <ele>298</ele>
        <time>2024-06-09T06:51:05Z</time>
      </trkpt>
      <trkpt lat="49.3941" lon="5.7386">
        <ele>298.20001220703</ele>
        <time>2024-06-09T06:51:06Z</time>
      </trkpt>
      <trkpt lat="49.39413" lon="5.73865">
        <ele>298.39999389648</ele>
        <time>2024-06-09T06:51:08Z</time>
      </trkpt>
      <trkpt lat="49.39415" lon="5.73873">
        <ele>298.60000610352</ele>
        <time>2024-06-09T06:51:10Z</time>
      </trkpt>
      <trkpt lat="49.3942" lon="5.73882">
        <ele>298.79998779297</ele>
        <time>2024-06-09T06:51:12Z</time>
      </trkpt>
      <trkpt lat="49.39425" lon="5.73886">
        <ele>299</ele>
        <time>2024-06-09T06:51:14Z</time>
      </trkpt>
      <trkpt lat="49.3943" lon="5.7389">
        <ele>299.39999389648</ele>
        <time>2024-06-09T06:51:16Z</time>
      </trkpt>
      <trkpt lat="49.39435" lon="5.73892">
        <ele>299.60000610352</ele>
        <time>2024-06-09T06:51:18Z</time>
      </trkpt>
      <trkpt lat="49.39438" lon="5.73888">
        <ele>299.60000610352</ele>
        <time>2024-06-09T06:51:20Z</time>
      </trkpt>
      <trkpt lat="49.3944" lon="5.73883">
        <ele>299.79998779297</ele>
        <time>2024-06-09T06:51:22Z</time>
      </trkpt>
      <trkpt lat="49.39443" lon="5.73879">
        <ele>300</ele>
        <time>2024-06-09T06:51:24Z</time>
      </trkpt>
      <trkpt lat="49.39445" lon="5.73876">
        <ele>300.20001220703</ele>
        <time>2024-06-09T06:51:25Z</time>
      </trkpt>
      <trkpt lat="49.39447" lon="5.73874">
        <ele>300.20001220703</ele>
        <time>2024-06-09T06:51:26Z</time>
      </trkpt>
      <trkpt lat="49.39452" lon="5.73871">
        <ele>300.20001220703</ele>
        <time>2024-06-09T06:51:28Z</time>
      </trkpt>
      <trkpt lat="49.39454" lon="5.7387">
        <ele>300.20001220703</ele>
        <time>2024-06-09T06:51:29Z</time>
      </trkpt>
      <trkpt lat="49.39456" lon="5.73869">
        <ele>300.20001220703</ele>
        <time>2024-06-09T06:51:30Z</time>
      </trkpt>
      <trkpt lat="49.3946" lon="5.73864">
        <ele>300.20001220703</ele>
        <time>2024-06-09T06:51:32Z</time>
      </trkpt>
      <trkpt lat="49.39465" lon="5.7386">
        <ele>300.20001220703</ele>
        <time>2024-06-09T06:51:34Z</time>
      </trkpt>
      <trkpt lat="49.39467" lon="5.73859">
        <ele>300</ele>
        <time>2024-06-09T06:51:35Z</time>
      </trkpt>
      <trkpt lat="49.3947" lon="5.73856">
        <ele>300</ele>
        <time>2024-06-09T06:51:36Z</time>
      </trkpt>
      <trkpt lat="49.39473" lon="5.73852">
        <ele>299.79998779297</ele>
        <time>2024-06-09T06:51:38Z</time>
      </trkpt>
      <trkpt lat="49.39474" lon="5.73852">
        <ele>299.79998779297</ele>
        <time>2024-06-09T06:51:39Z</time>
      </trkpt>
      <trkpt lat="49.39477" lon="5.73853">
        <ele>299.60000610352</ele>
        <time>2024-06-09T06:51:40Z</time>
      </trkpt>
      <trkpt lat="49.39481" lon="5.73851">
        <ele>299.60000610352</ele>
        <time>2024-06-09T06:51:42Z</time>
      </trkpt>
      <trkpt lat="49.39487" lon="5.73844">
        <ele>299.39999389648</ele>
        <time>2024-06-09T06:51:44Z</time>
      </trkpt>
      <trkpt lat="49.39494" lon="5.73838">
        <ele>299.39999389648</ele>
        <time>2024-06-09T06:51:46Z</time>
      </trkpt>
      <trkpt lat="49.39501" lon="5.73832">
        <ele>299.39999389648</ele>
        <time>2024-06-09T06:51:48Z</time>
      </trkpt>
      <trkpt lat="49.39507" lon="5.73825">
        <ele>299.20001220703</ele>
        <time>2024-06-09T06:51:50Z</time>
      </trkpt>
      <trkpt lat="49.39511" lon="5.73823">
        <ele>299</ele>
        <time>2024-06-09T06:51:51Z</time>
      </trkpt>
      <trkpt lat="49.39514" lon="5.7382">
        <ele>298.79998779297</ele>
        <time>2024-06-09T06:51:52Z</time>
      </trkpt>
      <trkpt lat="49.39515" lon="5.73817">
        <ele>298.60000610352</ele>
        <time>2024-06-09T06:51:53Z</time>
      </trkpt>
      <trkpt lat="49.39516" lon="5.73814">
        <ele>298.60000610352</ele>
        <time>2024-06-09T06:51:54Z</time>
      </trkpt>
      <trkpt lat="49.39521" lon="5.7381">
        <ele>298.39999389648</ele>
        <time>2024-06-09T06:51:56Z</time>
      </trkpt>
      <trkpt lat="49.39524" lon="5.73808">
        <ele>298.20001220703</ele>
        <time>2024-06-09T06:51:57Z</time>
      </trkpt>
      <trkpt lat="49.39528" lon="5.73807">
        <ele>298.20001220703</ele>
        <time>2024-06-09T06:51:58Z</time>
      </trkpt>
      <trkpt lat="49.39531" lon="5.73807">
        <ele>297.79998779297</ele>
        <time>2024-06-09T06:51:59Z</time>
      </trkpt>
      <trkpt lat="49.39534" lon="5.73807">
        <ele>297.60000610352</ele>
        <time>2024-06-09T06:52:00Z</time>
      </trkpt>
      <trkpt lat="49.39539" lon="5.73808">
        <ele>297.39999389648</ele>
        <time>2024-06-09T06:52:02Z</time>
      </trkpt>
      <trkpt lat="49.39545" lon="5.73811">
        <ele>297.39999389648</ele>
        <time>2024-06-09T06:52:04Z</time>
      </trkpt>
      <trkpt lat="49.39547" lon="5.73813">
        <ele>297.39999389648</ele>
        <time>2024-06-09T06:52:05Z</time>
      </trkpt>
      <trkpt lat="49.39549" lon="5.73815">
        <ele>297.20001220703</ele>
        <time>2024-06-09T06:52:06Z</time>
      </trkpt>
      <trkpt lat="49.39552" lon="5.73818">
        <ele>297.20001220703</ele>
        <time>2024-06-09T06:52:08Z</time>
      </trkpt>
      <trkpt lat="49.39555" lon="5.73822">
        <ele>297.20001220703</ele>
        <time>2024-06-09T06:52:10Z</time>
      </trkpt>
      <trkpt lat="49.39557" lon="5.73824">
        <ele>297.20001220703</ele>
        <time>2024-06-09T06:52:11Z</time>
      </trkpt>
      <trkpt lat="49.39559" lon="5.73825">
        <ele>297.20001220703</ele>
        <time>2024-06-09T06:52:12Z</time>
      </trkpt>
      <trkpt lat="49.39562" lon="5.7383">
        <ele>297.20001220703</ele>
        <time>2024-06-09T06:52:14Z</time>
      </trkpt>
      <trkpt lat="49.39565" lon="5.73837">
        <ele>297.20001220703</ele>
        <time>2024-06-09T06:52:16Z</time>
      </trkpt>
      <trkpt lat="49.39569" lon="5.73845">
        <ele>297.20001220703</ele>
        <time>2024-06-09T06:52:18Z</time>
      </trkpt>
      <trkpt lat="49.39572" lon="5.73848">
        <ele>297.20001220703</ele>
        <time>2024-06-09T06:52:19Z</time>
      </trkpt>
      <trkpt lat="49.39574" lon="5.73851">
        <ele>297.20001220703</ele>
        <time>2024-06-09T06:52:20Z</time>
      </trkpt>
      <trkpt lat="49.39579" lon="5.73855">
        <ele>297.39999389648</ele>
        <time>2024-06-09T06:52:22Z</time>
      </trkpt>
      <trkpt lat="49.39587" lon="5.73854">
        <ele>297.39999389648</ele>
        <time>2024-06-09T06:52:24Z</time>
      </trkpt>
      <trkpt lat="49.39593" lon="5.73854">
        <ele>297.39999389648</ele>
        <time>2024-06-09T06:52:26Z</time>
      </trkpt>
      <trkpt lat="49.39599" lon="5.73856">
        <ele>297.60000610352</ele>
        <time>2024-06-09T06:52:28Z</time>
      </trkpt>
      <trkpt lat="49.39602" lon="5.73857">
        <ele>297.60000610352</ele>
        <time>2024-06-09T06:52:29Z</time>
      </trkpt>
      <trkpt lat="49.39604" lon="5.73859">
        <ele>297.60000610352</ele>
        <time>2024-06-09T06:52:30Z</time>
      </trkpt>
      <trkpt lat="49.3961" lon="5.73863">
        <ele>297.79998779297</ele>
        <time>2024-06-09T06:52:32Z</time>
      </trkpt>
      <trkpt lat="49.39614" lon="5.73869">
        <ele>297.79998779297</ele>
        <time>2024-06-09T06:52:34Z</time>
      </trkpt>
      <trkpt lat="49.39619" lon="5.73876">
        <ele>297.79998779297</ele>
        <time>2024-06-09T06:52:36Z</time>
      </trkpt>
      <trkpt lat="49.39622" lon="5.73879">
        <ele>297.79998779297</ele>
        <time>2024-06-09T06:52:37Z</time>
      </trkpt>
      <trkpt lat="49.39626" lon="5.7388">
        <ele>297.79998779297</ele>
        <time>2024-06-09T06:52:38Z</time>
      </trkpt>
      <trkpt lat="49.39633" lon="5.7388">
        <ele>297.79998779297</ele>
        <time>2024-06-09T06:52:40Z</time>
      </trkpt>
      <trkpt lat="49.39636" lon="5.73879">
        <ele>297.60000610352</ele>
        <time>2024-06-09T06:52:41Z</time>
      </trkpt>
      <trkpt lat="49.39638" lon="5.73878">
        <ele>297.60000610352</ele>
        <time>2024-06-09T06:52:42Z</time>
      </trkpt>
      <trkpt lat="49.39643" lon="5.73874">
        <ele>297.39999389648</ele>
        <time>2024-06-09T06:52:44Z</time>
      </trkpt>
      <trkpt lat="49.39647" lon="5.73872">
        <ele>297.39999389648</ele>
        <time>2024-06-09T06:52:46Z</time>
      </trkpt>
      <trkpt lat="49.39649" lon="5.73871">
        <ele>297.39999389648</ele>
        <time>2024-06-09T06:52:47Z</time>
      </trkpt>
      <trkpt lat="49.39651" lon="5.7387">
        <ele>297.39999389648</ele>
        <time>2024-06-09T06:52:48Z</time>
      </trkpt>
      <trkpt lat="49.39657" lon="5.73867">
        <ele>297.20001220703</ele>
        <time>2024-06-09T06:52:50Z</time>
      </trkpt>
      <trkpt lat="49.39664" lon="5.73861">
        <ele>297</ele>
        <time>2024-06-09T06:52:52Z</time>
      </trkpt>
      <trkpt lat="49.39673" lon="5.73854">
        <ele>296.79998779297</ele>
        <time>2024-06-09T06:52:54Z</time>
      </trkpt>
      <trkpt lat="49.39677" lon="5.73852">
        <ele>296.60000610352</ele>
        <time>2024-06-09T06:52:55Z</time>
      </trkpt>
      <trkpt lat="49.3968" lon="5.7385">
        <ele>296.20001220703</ele>
        <time>2024-06-09T06:52:56Z</time>
      </trkpt>
      <trkpt lat="49.39683" lon="5.7385">
        <ele>295.79998779297</ele>
        <time>2024-06-09T06:52:57Z</time>
      </trkpt>
      <trkpt lat="49.39687" lon="5.73849">
        <ele>295.39999389648</ele>
        <time>2024-06-09T06:52:58Z</time>
      </trkpt>
      <trkpt lat="49.39693" lon="5.73844">
        <ele>294.39999389648</ele>
        <time>2024-06-09T06:53:00Z</time>
      </trkpt>
      <trkpt lat="49.39696" lon="5.73842">
        <ele>294</ele>
        <time>2024-06-09T06:53:01Z</time>
      </trkpt>
      <trkpt lat="49.39698" lon="5.73843">
        <ele>293.79998779297</ele>
        <time>2024-06-09T06:53:02Z</time>
      </trkpt>
      <trkpt lat="49.39705" lon="5.73842">
        <ele>293.60000610352</ele>
        <time>2024-06-09T06:53:04Z</time>
      </trkpt>
      <trkpt lat="49.39712" lon="5.73842">
        <ele>293.20001220703</ele>
        <time>2024-06-09T06:53:06Z</time>
      </trkpt>
      <trkpt lat="49.39715" lon="5.73844">
        <ele>293</ele>
        <time>2024-06-09T06:53:07Z</time>
      </trkpt>
      <trkpt lat="49.3972" lon="5.73843">
        <ele>292.60000610352</ele>
        <time>2024-06-09T06:53:08Z</time>
      </trkpt>
      <trkpt lat="49.39725" lon="5.73843">
        <ele>292.39999389648</ele>
        <time>2024-06-09T06:53:09Z</time>
      </trkpt>
      <trkpt lat="49.3973" lon="5.73843">
        <ele>292.39999389648</ele>
        <time>2024-06-09T06:53:10Z</time>
      </trkpt>
      <trkpt lat="49.39734" lon="5.73841">
        <ele>292.20001220703</ele>
        <time>2024-06-09T06:53:11Z</time>
      </trkpt>
      <trkpt lat="49.39737" lon="5.73838">
        <ele>292</ele>
        <time>2024-06-09T06:53:12Z</time>
      </trkpt>
      <trkpt lat="49.39739" lon="5.73836">
        <ele>291.79998779297</ele>
        <time>2024-06-09T06:53:13Z</time>
      </trkpt>
      <trkpt lat="49.39743" lon="5.73835">
        <ele>291.60000610352</ele>
        <time>2024-06-09T06:53:14Z</time>
      </trkpt>
      <trkpt lat="49.39746" lon="5.73835">
        <ele>291.60000610352</ele>
        <time>2024-06-09T06:53:15Z</time>
      </trkpt>
      <trkpt lat="49.39752" lon="5.73835">
        <ele>291.39999389648</ele>
        <time>2024-06-09T06:53:16Z</time>
      </trkpt>
      <trkpt lat="49.3976" lon="5.73835">
        <ele>291.20001220703</ele>
        <time>2024-06-09T06:53:18Z</time>
      </trkpt>
      <trkpt lat="49.3977" lon="5.73835">
        <ele>291</ele>
        <time>2024-06-09T06:53:20Z</time>
      </trkpt>
      <trkpt lat="49.39775" lon="5.73835">
        <ele>290.79998779297</ele>
        <time>2024-06-09T06:53:21Z</time>
      </trkpt>
      <trkpt lat="49.3978" lon="5.73834">
        <ele>290.60000610352</ele>
        <time>2024-06-09T06:53:22Z</time>
      </trkpt>
      <trkpt lat="49.39787" lon="5.73828">
        <ele>289.60000610352</ele>
        <time>2024-06-09T06:53:24Z</time>
      </trkpt>
      <trkpt lat="49.39789" lon="5.73823">
        <ele>288.60000610352</ele>
        <time>2024-06-09T06:53:25Z</time>
      </trkpt>
      <trkpt lat="49.3979" lon="5.73819">
        <ele>288</ele>
        <time>2024-06-09T06:53:26Z</time>
      </trkpt>
      <trkpt lat="49.39791" lon="5.73815">
        <ele>287.39999389648</ele>
        <time>2024-06-09T06:53:27Z</time>
      </trkpt>
      <trkpt lat="49.3979" lon="5.73813">
        <ele>287</ele>
        <time>2024-06-09T06:53:28Z</time>
      </trkpt>
      <trkpt lat="49.39792" lon="5.73805">
        <ele>286.39999389648</ele>
        <time>2024-06-09T06:53:30Z</time>
      </trkpt>
      <trkpt lat="49.39794" lon="5.73797">
        <ele>286</ele>
        <time>2024-06-09T06:53:32Z</time>
      </trkpt>
      <trkpt lat="49.39795" lon="5.73789">
        <ele>285.79998779297</ele>
        <time>2024-06-09T06:53:34Z</time>
      </trkpt>
      <trkpt lat="49.39798" lon="5.73783">
        <ele>285.60000610352</ele>
        <time>2024-06-09T06:53:36Z</time>
      </trkpt>
      <trkpt lat="49.398" lon="5.73775">
        <ele>285.20001220703</ele>
        <time>2024-06-09T06:53:38Z</time>
      </trkpt>
      <trkpt lat="49.39801" lon="5.73768">
        <ele>284.79998779297</ele>
        <time>2024-06-09T06:53:40Z</time>
      </trkpt>
      <trkpt lat="49.39802" lon="5.73764">
        <ele>284.60000610352</ele>
        <time>2024-06-09T06:53:41Z</time>
      </trkpt>
      <trkpt lat="49.39802" lon="5.73762">
        <ele>284.20001220703</ele>
        <time>2024-06-09T06:53:42Z</time>
      </trkpt>
      <trkpt lat="49.39802" lon="5.73759">
        <ele>283.79998779297</ele>
        <time>2024-06-09T06:53:43Z</time>
      </trkpt>
      <trkpt lat="49.39803" lon="5.73756">
        <ele>283.39999389648</ele>
        <time>2024-06-09T06:53:44Z</time>
      </trkpt>
      <trkpt lat="49.39805" lon="5.73753">
        <ele>283</ele>
        <time>2024-06-09T06:53:45Z</time>
      </trkpt>
      <trkpt lat="49.39806" lon="5.7375">
        <ele>282.20001220703</ele>
        <time>2024-06-09T06:53:46Z</time>
      </trkpt>
      <trkpt lat="49.39807" lon="5.73746">
        <ele>281.39999389648</ele>
        <time>2024-06-09T06:53:47Z</time>
      </trkpt>
      <trkpt lat="49.39809" lon="5.73743">
        <ele>280.60000610352</ele>
        <time>2024-06-09T06:53:48Z</time>
      </trkpt>
      <trkpt lat="49.3981" lon="5.73741">
        <ele>279.39999389648</ele>
        <time>2024-06-09T06:53:49Z</time>
      </trkpt>
      <trkpt lat="49.3981" lon="5.73739">
        <ele>278.39999389648</ele>
        <time>2024-06-09T06:53:50Z</time>
      </trkpt>
      <trkpt lat="49.3981" lon="5.73737">
        <ele>277.20001220703</ele>
        <time>2024-06-09T06:53:51Z</time>
      </trkpt>
      <trkpt lat="49.3981" lon="5.73735">
        <ele>275.79998779297</ele>
        <time>2024-06-09T06:53:52Z</time>
      </trkpt>
      <trkpt lat="49.3981" lon="5.73731">
        <ele>273</ele>
        <time>2024-06-09T06:53:53Z</time>
      </trkpt>
      <trkpt lat="49.3981" lon="5.73726">
        <ele>271.79998779297</ele>
        <time>2024-06-09T06:53:54Z</time>
      </trkpt>
      <trkpt lat="49.39809" lon="5.73721">
        <ele>270.79998779297</ele>
        <time>2024-06-09T06:53:55Z</time>
      </trkpt>
      <trkpt lat="49.39809" lon="5.73716">
        <ele>269.79998779297</ele>
        <time>2024-06-09T06:53:56Z</time>
      </trkpt>
      <trkpt lat="49.39808" lon="5.73712">
        <ele>269.20001220703</ele>
        <time>2024-06-09T06:53:57Z</time>
      </trkpt>
      <trkpt lat="49.39808" lon="5.73708">
        <ele>268.79998779297</ele>
        <time>2024-06-09T06:53:58Z</time>
      </trkpt>
      <trkpt lat="49.3981" lon="5.73699">
        <ele>267.79998779297</ele>
        <time>2024-06-09T06:54:00Z</time>
      </trkpt>
      <trkpt lat="49.39812" lon="5.73688">
        <ele>266.20001220703</ele>
        <time>2024-06-09T06:54:02Z</time>
      </trkpt>
      <trkpt lat="49.39811" lon="5.73683">
        <ele>265.20001220703</ele>
        <time>2024-06-09T06:54:03Z</time>
      </trkpt>
      <trkpt lat="49.3981" lon="5.73677">
        <ele>264.20001220703</ele>
        <time>2024-06-09T06:54:04Z</time>
      </trkpt>
      <trkpt lat="49.39809" lon="5.7367">
        <ele>263</ele>
        <time>2024-06-09T06:54:05Z</time>
      </trkpt>
      <trkpt lat="49.39808" lon="5.73666">
        <ele>262.20001220703</ele>
        <time>2024-06-09T06:54:06Z</time>
      </trkpt>
      <trkpt lat="49.39807" lon="5.73664">
        <ele>261.20001220703</ele>
        <time>2024-06-09T06:54:07Z</time>
      </trkpt>
      <trkpt lat="49.39807" lon="5.73661">
        <ele>259.79998779297</ele>
        <time>2024-06-09T06:54:08Z</time>
      </trkpt>
      <trkpt lat="49.39807" lon="5.73658">
        <ele>258.20001220703</ele>
        <time>2024-06-09T06:54:09Z</time>
      </trkpt>
      <trkpt lat="49.39806" lon="5.73655">
        <ele>256.79998779297</ele>
        <time>2024-06-09T06:54:10Z</time>
      </trkpt>
      <trkpt lat="49.39807" lon="5.73653">
        <ele>255.60000610352</ele>
        <time>2024-06-09T06:54:11Z</time>
      </trkpt>
      <trkpt lat="49.39807" lon="5.73651">
        <ele>254.39999389648</ele>
        <time>2024-06-09T06:54:12Z</time>
      </trkpt>
      <trkpt lat="49.39806" lon="5.73648">
        <ele>253.19999694824</ele>
        <time>2024-06-09T06:54:13Z</time>
      </trkpt>
      <trkpt lat="49.39805" lon="5.73644">
        <ele>252.39999389648</ele>
        <time>2024-06-09T06:54:14Z</time>
      </trkpt>
      <trkpt lat="49.39805" lon="5.73641">
        <ele>251.60000610352</ele>
        <time>2024-06-09T06:54:15Z</time>
      </trkpt>
      <trkpt lat="49.39805" lon="5.73639">
        <ele>251</ele>
        <time>2024-06-09T06:54:16Z</time>
      </trkpt>
      <trkpt lat="49.39805" lon="5.73637">
        <ele>250.60000610352</ele>
        <time>2024-06-09T06:54:17Z</time>
      </trkpt>
      <trkpt lat="49.39804" lon="5.73635">
        <ele>250.39999389648</ele>
        <time>2024-06-09T06:54:18Z</time>
      </trkpt>
      <trkpt lat="49.39803" lon="5.73628">
        <ele>249.80000305176</ele>
        <time>2024-06-09T06:54:20Z</time>
      </trkpt>
      <trkpt lat="49.39802" lon="5.73625">
        <ele>248.80000305176</ele>
        <time>2024-06-09T06:54:21Z</time>
      </trkpt>
      <trkpt lat="49.39802" lon="5.73622">
        <ele>248.60000610352</ele>
        <time>2024-06-09T06:54:22Z</time>
      </trkpt>
      <trkpt lat="49.39799" lon="5.73617">
        <ele>247.39999389648</ele>
        <time>2024-06-09T06:54:24Z</time>
      </trkpt>
      <trkpt lat="49.39798" lon="5.73615">
        <ele>247.19999694824</ele>
        <time>2024-06-09T06:54:25Z</time>
      </trkpt>
      <trkpt lat="49.39796" lon="5.73614">
        <ele>246.80000305176</ele>
        <time>2024-06-09T06:54:26Z</time>
      </trkpt>
      <trkpt lat="49.39794" lon="5.73612">
        <ele>246.39999389648</ele>
        <time>2024-06-09T06:54:28Z</time>
      </trkpt>
      <trkpt lat="49.39792" lon="5.7361">
        <ele>246</ele>
        <time>2024-06-09T06:54:29Z</time>
      </trkpt>
      <trkpt lat="49.3979" lon="5.73608">
        <ele>245.80000305176</ele>
        <time>2024-06-09T06:54:30Z</time>
      </trkpt>
      <trkpt lat="49.39787" lon="5.73603">
        <ele>245.39999389648</ele>
        <time>2024-06-09T06:54:32Z</time>
      </trkpt>
      <trkpt lat="49.39785" lon="5.73599">
        <ele>245.19999694824</ele>
        <time>2024-06-09T06:54:33Z</time>
      </trkpt>
      <trkpt lat="49.39783" lon="5.73597">
        <ele>245.19999694824</ele>
        <time>2024-06-09T06:54:34Z</time>
      </trkpt>
      <trkpt lat="49.39779" lon="5.73596">
        <ele>245</ele>
        <time>2024-06-09T06:54:35Z</time>
      </trkpt>
      <trkpt lat="49.39777" lon="5.73594">
        <ele>245</ele>
        <time>2024-06-09T06:54:36Z</time>
      </trkpt>
      <trkpt lat="49.39772" lon="5.73591">
        <ele>244.80000305176</ele>
        <time>2024-06-09T06:54:38Z</time>
      </trkpt>
      <trkpt lat="49.39767" lon="5.73588">
        <ele>244.80000305176</ele>
        <time>2024-06-09T06:54:40Z</time>
      </trkpt>
      <trkpt lat="49.39763" lon="5.73584">
        <ele>244.80000305176</ele>
        <time>2024-06-09T06:54:42Z</time>
      </trkpt>
      <trkpt lat="49.39759" lon="5.73582">
        <ele>244.80000305176</ele>
        <time>2024-06-09T06:54:44Z</time>
      </trkpt>
      <trkpt lat="49.39757" lon="5.73578">
        <ele>245</ele>
        <time>2024-06-09T06:54:46Z</time>
      </trkpt>
      <trkpt lat="49.39757" lon="5.73576">
        <ele>245</ele>
        <time>2024-06-09T06:54:47Z</time>
      </trkpt>
      <trkpt lat="49.39756" lon="5.73574">
        <ele>245</ele>
        <time>2024-06-09T06:54:48Z</time>
      </trkpt>
      <trkpt lat="49.39752" lon="5.73568">
        <ele>244.80000305176</ele>
        <time>2024-06-09T06:54:50Z</time>
      </trkpt>
      <trkpt lat="49.39748" lon="5.73565">
        <ele>244.80000305176</ele>
        <time>2024-06-09T06:54:51Z</time>
      </trkpt>
      <trkpt lat="49.39744" lon="5.73563">
        <ele>244.80000305176</ele>
        <time>2024-06-09T06:54:52Z</time>
      </trkpt>
      <trkpt lat="49.39742" lon="5.73561">
        <ele>244.80000305176</ele>
        <time>2024-06-09T06:54:53Z</time>
      </trkpt>
      <trkpt lat="49.39739" lon="5.7356">
        <ele>244.80000305176</ele>
        <time>2024-06-09T06:54:54Z</time>
      </trkpt>
      <trkpt lat="49.39734" lon="5.73555">
        <ele>244.80000305176</ele>
        <time>2024-06-09T06:54:56Z</time>
      </trkpt>
      <trkpt lat="49.39726" lon="5.7355">
        <ele>243.80000305176</ele>
        <time>2024-06-09T06:54:58Z</time>
      </trkpt>
      <trkpt lat="49.39719" lon="5.73546">
        <ele>243.39999389648</ele>
        <time>2024-06-09T06:55:00Z</time>
      </trkpt>
      <trkpt lat="49.39712" lon="5.73542">
        <ele>243.19999694824</ele>
        <time>2024-06-09T06:55:02Z</time>
      </trkpt>
      <trkpt lat="49.39707" lon="5.73535">
        <ele>243.19999694824</ele>
        <time>2024-06-09T06:55:04Z</time>
      </trkpt>
      <trkpt lat="49.39702" lon="5.73529">
        <ele>243.19999694824</ele>
        <time>2024-06-09T06:55:06Z</time>
      </trkpt>
      <trkpt lat="49.39698" lon="5.73525">
        <ele>243</ele>
        <time>2024-06-09T06:55:07Z</time>
      </trkpt>
      <trkpt lat="49.39693" lon="5.73521">
        <ele>243</ele>
        <time>2024-06-09T06:55:08Z</time>
      </trkpt>
      <trkpt lat="49.39679" lon="5.73512">
        <ele>242.80000305176</ele>
        <time>2024-06-09T06:55:10Z</time>
      </trkpt>
      <trkpt lat="49.39671" lon="5.735">
        <ele>242.80000305176</ele>
        <time>2024-06-09T06:55:12Z</time>
      </trkpt>
      <trkpt lat="49.39668" lon="5.73496">
        <ele>242.80000305176</ele>
        <time>2024-06-09T06:55:13Z</time>
      </trkpt>
      <trkpt lat="49.39665" lon="5.7349">
        <ele>242.80000305176</ele>
        <time>2024-06-09T06:55:14Z</time>
      </trkpt>
      <trkpt lat="49.39658" lon="5.73479">
        <ele>242.80000305176</ele>
        <time>2024-06-09T06:55:16Z</time>
      </trkpt>
      <trkpt lat="49.39652" lon="5.7347">
        <ele>242.80000305176</ele>
        <time>2024-06-09T06:55:18Z</time>
      </trkpt>
      <trkpt lat="49.39646" lon="5.7346">
        <ele>242.60000610352</ele>
        <time>2024-06-09T06:55:20Z</time>
      </trkpt>
      <trkpt lat="49.39641" lon="5.73453">
        <ele>242.80000305176</ele>
        <time>2024-06-09T06:55:22Z</time>
      </trkpt>
      <trkpt lat="49.39635" lon="5.73442">
        <ele>242.80000305176</ele>
        <time>2024-06-09T06:55:24Z</time>
      </trkpt>
      <trkpt lat="49.3963" lon="5.73434">
        <ele>242.60000610352</ele>
        <time>2024-06-09T06:55:26Z</time>
      </trkpt>
      <trkpt lat="49.39623" lon="5.73421">
        <ele>242.39999389648</ele>
        <time>2024-06-09T06:55:28Z</time>
      </trkpt>
      <trkpt lat="49.39617" lon="5.73407">
        <ele>242.39999389648</ele>
        <time>2024-06-09T06:55:30Z</time>
      </trkpt>
      <trkpt lat="49.3961" lon="5.73392">
        <ele>242.39999389648</ele>
        <time>2024-06-09T06:55:32Z</time>
      </trkpt>
      <trkpt lat="49.39603" lon="5.73383">
        <ele>242.39999389648</ele>
        <time>2024-06-09T06:55:34Z</time>
      </trkpt>
      <trkpt lat="49.39603" lon="5.7338">
        <ele>242.60000610352</ele>
        <time>2024-06-09T06:55:35Z</time>
      </trkpt>
      <trkpt lat="49.396" lon="5.73369">
        <ele>242.60000610352</ele>
        <time>2024-06-09T06:55:36Z</time>
      </trkpt>
      <trkpt lat="49.39601" lon="5.73358">
        <ele>242.80000305176</ele>
        <time>2024-06-09T06:55:38Z</time>
      </trkpt>
      <trkpt lat="49.39603" lon="5.73356">
        <ele>242.80000305176</ele>
        <time>2024-06-09T06:55:39Z</time>
      </trkpt>
      <trkpt lat="49.39603" lon="5.73354">
        <ele>243</ele>
        <time>2024-06-09T06:55:40Z</time>
      </trkpt>
      <trkpt lat="49.39604" lon="5.73349">
        <ele>243.19999694824</ele>
        <time>2024-06-09T06:55:42Z</time>
      </trkpt>
      <trkpt lat="49.39604" lon="5.73346">
        <ele>243.19999694824</ele>
        <time>2024-06-09T06:55:44Z</time>
      </trkpt>
      <trkpt lat="49.39606" lon="5.73348">
        <ele>243.39999389648</ele>
        <time>2024-06-09T06:55:46Z</time>
      </trkpt>
      <trkpt lat="49.39606" lon="5.73349">
        <ele>243.39999389648</ele>
        <time>2024-06-09T06:55:47Z</time>
      </trkpt>
      <trkpt lat="49.39606" lon="5.7335">
        <ele>243.39999389648</ele>
        <time>2024-06-09T06:55:48Z</time>
      </trkpt>
      <trkpt lat="49.39607" lon="5.73351">
        <ele>243.39999389648</ele>
        <time>2024-06-09T06:55:50Z</time>
      </trkpt>
      <trkpt lat="49.3961" lon="5.73347">
        <ele>243.39999389648</ele>
        <time>2024-06-09T06:55:52Z</time>
      </trkpt>
      <trkpt lat="49.39612" lon="5.73345">
        <ele>243.39999389648</ele>
        <time>2024-06-09T06:55:53Z</time>
      </trkpt>
      <trkpt lat="49.39614" lon="5.73343">
        <ele>243.39999389648</ele>
        <time>2024-06-09T06:55:54Z</time>
      </trkpt>
      <trkpt lat="49.3962" lon="5.73337">
        <ele>243.39999389648</ele>
        <time>2024-06-09T06:55:56Z</time>
      </trkpt>
      <trkpt lat="49.39622" lon="5.73335">
        <ele>243.39999389648</ele>
        <time>2024-06-09T06:55:57Z</time>
      </trkpt>
      <trkpt lat="49.39625" lon="5.73333">
        <ele>243.39999389648</ele>
        <time>2024-06-09T06:55:58Z</time>
      </trkpt>
      <trkpt lat="49.3963" lon="5.73329">
        <ele>243.39999389648</ele>
        <time>2024-06-09T06:56:00Z</time>
      </trkpt>
      <trkpt lat="49.39632" lon="5.73325">
        <ele>243.19999694824</ele>
        <time>2024-06-09T06:56:02Z</time>
      </trkpt>
      <trkpt lat="49.39634" lon="5.73323">
        <ele>243.19999694824</ele>
        <time>2024-06-09T06:56:03Z</time>
      </trkpt>
      <trkpt lat="49.39635" lon="5.73323">
        <ele>243.19999694824</ele>
        <time>2024-06-09T06:56:04Z</time>
      </trkpt>
      <trkpt lat="49.39639" lon="5.73322">
        <ele>243.39999389648</ele>
        <time>2024-06-09T06:56:06Z</time>
      </trkpt>
      <trkpt lat="49.39642" lon="5.73322">
        <ele>243.39999389648</ele>
        <time>2024-06-09T06:56:08Z</time>
      </trkpt>
      <trkpt lat="49.39645" lon="5.73322">
        <ele>243.39999389648</ele>
        <time>2024-06-09T06:56:10Z</time>
      </trkpt>
      <trkpt lat="49.39647" lon="5.73323">
        <ele>244</ele>
        <time>2024-06-09T06:56:12Z</time>
      </trkpt>
      <trkpt lat="49.3965" lon="5.73325">
        <ele>245.19999694824</ele>
        <time>2024-06-09T06:56:14Z</time>
      </trkpt>
      <trkpt lat="49.39651" lon="5.73326">
        <ele>245.60000610352</ele>
        <time>2024-06-09T06:56:15Z</time>
      </trkpt>
      <trkpt lat="49.39653" lon="5.73326">
        <ele>246</ele>
        <time>2024-06-09T06:56:16Z</time>
      </trkpt>
      <trkpt lat="49.39654" lon="5.73327">
        <ele>246.39999389648</ele>
        <time>2024-06-09T06:56:17Z</time>
      </trkpt>
      <trkpt lat="49.39655" lon="5.73328">
        <ele>246.60000610352</ele>
        <time>2024-06-09T06:56:18Z</time>
      </trkpt>
      <trkpt lat="49.39658" lon="5.7333">
        <ele>247.60000610352</ele>
        <time>2024-06-09T06:56:20Z</time>
      </trkpt>
      <trkpt lat="49.3966" lon="5.73332">
        <ele>248.19999694824</ele>
        <time>2024-06-09T06:56:22Z</time>
      </trkpt>
      <trkpt lat="49.39663" lon="5.73334">
        <ele>248.39999389648</ele>
        <time>2024-06-09T06:56:24Z</time>
      </trkpt>
      <trkpt lat="49.39664" lon="5.73336">
        <ele>248.60000610352</ele>
        <time>2024-06-09T06:56:25Z</time>
      </trkpt>
      <trkpt lat="49.39665" lon="5.73338">
        <ele>249</ele>
        <time>2024-06-09T06:56:26Z</time>
      </trkpt>
      <trkpt lat="49.39668" lon="5.7334">
        <ele>249.80000305176</ele>
        <time>2024-06-09T06:56:28Z</time>
      </trkpt>
      <trkpt lat="49.3967" lon="5.73342">
        <ele>250.19999694824</ele>
        <time>2024-06-09T06:56:29Z</time>
      </trkpt>
      <trkpt lat="49.39672" lon="5.73343">
        <ele>250.39999389648</ele>
        <time>2024-06-09T06:56:30Z</time>
      </trkpt>
      <trkpt lat="49.39676" lon="5.73346">
        <ele>250.80000305176</ele>
        <time>2024-06-09T06:56:32Z</time>
      </trkpt>
      <trkpt lat="49.39677" lon="5.73348">
        <ele>251</ele>
        <time>2024-06-09T06:56:33Z</time>
      </trkpt>
      <trkpt lat="49.39679" lon="5.73349">
        <ele>251</ele>
        <time>2024-06-09T06:56:34Z</time>
      </trkpt>
      <trkpt lat="49.39682" lon="5.73351">
        <ele>251.39999389648</ele>
        <time>2024-06-09T06:56:36Z</time>
      </trkpt>
      <trkpt lat="49.39685" lon="5.73354">
        <ele>251.60000610352</ele>
        <time>2024-06-09T06:56:38Z</time>
      </trkpt>
      <trkpt lat="49.39688" lon="5.73357">
        <ele>251.80000305176</ele>
        <time>2024-06-09T06:56:40Z</time>
      </trkpt>
      <trkpt lat="49.39691" lon="5.7336">
        <ele>252</ele>
        <time>2024-06-09T06:56:42Z</time>
      </trkpt>
      <trkpt lat="49.39692" lon="5.73362">
        <ele>252.19999694824</ele>
        <time>2024-06-09T06:56:43Z</time>
      </trkpt>
      <trkpt lat="49.39694" lon="5.73363">
        <ele>252.60000610352</ele>
        <time>2024-06-09T06:56:44Z</time>
      </trkpt>
      <trkpt lat="49.39698" lon="5.73366">
        <ele>253.19999694824</ele>
        <time>2024-06-09T06:56:46Z</time>
      </trkpt>
      <trkpt lat="49.39699" lon="5.73367">
        <ele>253.39999389648</ele>
        <time>2024-06-09T06:56:47Z</time>
      </trkpt>
      <trkpt lat="49.39701" lon="5.73366">
        <ele>253.60000610352</ele>
        <time>2024-06-09T06:56:48Z</time>
      </trkpt>
      <trkpt lat="49.39702" lon="5.73364">
        <ele>253.80000305176</ele>
        <time>2024-06-09T06:56:49Z</time>
      </trkpt>
      <trkpt lat="49.39702" lon="5.73363">
        <ele>254.19999694824</ele>
        <time>2024-06-09T06:56:50Z</time>
      </trkpt>
      <trkpt lat="49.39702" lon="5.73361">
        <ele>254.60000610352</ele>
        <time>2024-06-09T06:56:51Z</time>
      </trkpt>
      <trkpt lat="49.39702" lon="5.73359">
        <ele>255</ele>
        <time>2024-06-09T06:56:52Z</time>
      </trkpt>
      <trkpt lat="49.39701" lon="5.73358">
        <ele>255</ele>
        <time>2024-06-09T06:56:53Z</time>
      </trkpt>
      <trkpt lat="49.39701" lon="5.73356">
        <ele>255.39999389648</ele>
        <time>2024-06-09T06:56:54Z</time>
      </trkpt>
      <trkpt lat="49.397" lon="5.73355">
        <ele>255.60000610352</ele>
        <time>2024-06-09T06:56:55Z</time>
      </trkpt>
      <trkpt lat="49.39699" lon="5.73353">
        <ele>256</ele>
        <time>2024-06-09T06:56:56Z</time>
      </trkpt>
      <trkpt lat="49.39698" lon="5.73349">
        <ele>256.79998779297</ele>
        <time>2024-06-09T06:56:58Z</time>
      </trkpt>
      <trkpt lat="49.39697" lon="5.73347">
        <ele>257</ele>
        <time>2024-06-09T06:56:59Z</time>
      </trkpt>
      <trkpt lat="49.39696" lon="5.73345">
        <ele>257</ele>
        <time>2024-06-09T06:57:00Z</time>
      </trkpt>
      <trkpt lat="49.39695" lon="5.73343">
        <ele>257.20001220703</ele>
        <time>2024-06-09T06:57:01Z</time>
      </trkpt>
      <trkpt lat="49.39695" lon="5.7334">
        <ele>257.20001220703</ele>
        <time>2024-06-09T06:57:02Z</time>
      </trkpt>
      <trkpt lat="49.39693" lon="5.73336">
        <ele>257.79998779297</ele>
        <time>2024-06-09T06:57:04Z</time>
      </trkpt>
      <trkpt lat="49.39692" lon="5.73331">
        <ele>258</ele>
        <time>2024-06-09T06:57:06Z</time>
      </trkpt>
      <trkpt lat="49.39691" lon="5.73329">
        <ele>258</ele>
        <time>2024-06-09T06:57:07Z</time>
      </trkpt>
      <trkpt lat="49.39689" lon="5.73327">
        <ele>258</ele>
        <time>2024-06-09T06:57:08Z</time>
      </trkpt>
      <trkpt lat="49.39688" lon="5.73321">
        <ele>258.20001220703</ele>
        <time>2024-06-09T06:57:10Z</time>
      </trkpt>
      <trkpt lat="49.39686" lon="5.73316">
        <ele>258.79998779297</ele>
        <time>2024-06-09T06:57:12Z</time>
      </trkpt>
      <trkpt lat="49.39685" lon="5.73309">
        <ele>259</ele>
        <time>2024-06-09T06:57:14Z</time>
      </trkpt>
      <trkpt lat="49.39683" lon="5.73306">
        <ele>259</ele>
        <time>2024-06-09T06:57:15Z</time>
      </trkpt>
      <trkpt lat="49.39683" lon="5.73304">
        <ele>259.20001220703</ele>
        <time>2024-06-09T06:57:16Z</time>
      </trkpt>
      <trkpt lat="49.39682" lon="5.73299">
        <ele>259.60000610352</ele>
        <time>2024-06-09T06:57:18Z</time>
      </trkpt>
      <trkpt lat="49.39681" lon="5.73294">
        <ele>259.79998779297</ele>
        <time>2024-06-09T06:57:20Z</time>
      </trkpt>
      <trkpt lat="49.39681" lon="5.73292">
        <ele>259.79998779297</ele>
        <time>2024-06-09T06:57:21Z</time>
      </trkpt>
      <trkpt lat="49.3968" lon="5.73289">
        <ele>260</ele>
        <time>2024-06-09T06:57:22Z</time>
      </trkpt>
      <trkpt lat="49.3968" lon="5.73286">
        <ele>260.20001220703</ele>
        <time>2024-06-09T06:57:23Z</time>
      </trkpt>
      <trkpt lat="49.39679" lon="5.73283">
        <ele>260.39999389648</ele>
        <time>2024-06-09T06:57:24Z</time>
      </trkpt>
      <trkpt lat="49.39678" lon="5.73277">
        <ele>260.79998779297</ele>
        <time>2024-06-09T06:57:26Z</time>
      </trkpt>
      <trkpt lat="49.39677" lon="5.73274">
        <ele>261</ele>
        <time>2024-06-09T06:57:27Z</time>
      </trkpt>
      <trkpt lat="49.39677" lon="5.73271">
        <ele>261.20001220703</ele>
        <time>2024-06-09T06:57:28Z</time>
      </trkpt>
      <trkpt lat="49.39674" lon="5.73264">
        <ele>261.39999389648</ele>
        <time>2024-06-09T06:57:30Z</time>
      </trkpt>
      <trkpt lat="49.39672" lon="5.73258">
        <ele>261.79998779297</ele>
        <time>2024-06-09T06:57:32Z</time>
      </trkpt>
      <trkpt lat="49.39672" lon="5.73255">
        <ele>262</ele>
        <time>2024-06-09T06:57:33Z</time>
      </trkpt>
      <trkpt lat="49.39671" lon="5.73253">
        <ele>262.20001220703</ele>
        <time>2024-06-09T06:57:34Z</time>
      </trkpt>
      <trkpt lat="49.39671" lon="5.73247">
        <ele>262.39999389648</ele>
        <time>2024-06-09T06:57:36Z</time>
      </trkpt>
      <trkpt lat="49.3967" lon="5.73242">
        <ele>262.79998779297</ele>
        <time>2024-06-09T06:57:38Z</time>
      </trkpt>
      <trkpt lat="49.39668" lon="5.73233">
        <ele>263.20001220703</ele>
        <time>2024-06-09T06:57:40Z</time>
      </trkpt>
      <trkpt lat="49.39665" lon="5.73227">
        <ele>263.39999389648</ele>
        <time>2024-06-09T06:57:42Z</time>
      </trkpt>
      <trkpt lat="49.39663" lon="5.7322">
        <ele>263.79998779297</ele>
        <time>2024-06-09T06:57:44Z</time>
      </trkpt>
      <trkpt lat="49.39661" lon="5.73214">
        <ele>264.20001220703</ele>
        <time>2024-06-09T06:57:46Z</time>
      </trkpt>
      <trkpt lat="49.3966" lon="5.73211">
        <ele>264.39999389648</ele>
        <time>2024-06-09T06:57:47Z</time>
      </trkpt>
      <trkpt lat="49.39658" lon="5.73208">
        <ele>264.39999389648</ele>
        <time>2024-06-09T06:57:48Z</time>
      </trkpt>
      <trkpt lat="49.39656" lon="5.73201">
        <ele>264.79998779297</ele>
        <time>2024-06-09T06:57:50Z</time>
      </trkpt>
      <trkpt lat="49.39651" lon="5.73192">
        <ele>265</ele>
        <time>2024-06-09T06:57:52Z</time>
      </trkpt>
      <trkpt lat="49.39649" lon="5.73184">
        <ele>265.20001220703</ele>
        <time>2024-06-09T06:57:54Z</time>
      </trkpt>
      <trkpt lat="49.39648" lon="5.73181">
        <ele>265.39999389648</ele>
        <time>2024-06-09T06:57:55Z</time>
      </trkpt>
      <trkpt lat="49.39647" lon="5.73177">
        <ele>265.60000610352</ele>
        <time>2024-06-09T06:57:56Z</time>
      </trkpt>
      <trkpt lat="49.39647" lon="5.73173">
        <ele>265.60000610352</ele>
        <time>2024-06-09T06:57:57Z</time>
      </trkpt>
      <trkpt lat="49.39646" lon="5.7317">
        <ele>265.79998779297</ele>
        <time>2024-06-09T06:57:58Z</time>
      </trkpt>
      <trkpt lat="49.39644" lon="5.73164">
        <ele>266</ele>
        <time>2024-06-09T06:58:00Z</time>
      </trkpt>
      <trkpt lat="49.39643" lon="5.73157">
        <ele>266.39999389648</ele>
        <time>2024-06-09T06:58:02Z</time>
      </trkpt>
      <trkpt lat="49.39641" lon="5.7315">
        <ele>266.60000610352</ele>
        <time>2024-06-09T06:58:04Z</time>
      </trkpt>
      <trkpt lat="49.39639" lon="5.73141">
        <ele>267</ele>
        <time>2024-06-09T06:58:06Z</time>
      </trkpt>
      <trkpt lat="49.39636" lon="5.73132">
        <ele>267.20001220703</ele>
        <time>2024-06-09T06:58:08Z</time>
      </trkpt>
      <trkpt lat="49.39633" lon="5.73127">
        <ele>267.60000610352</ele>
        <time>2024-06-09T06:58:10Z</time>
      </trkpt>
      <trkpt lat="49.39632" lon="5.73125">
        <ele>267.60000610352</ele>
        <time>2024-06-09T06:58:11Z</time>
      </trkpt>
      <trkpt lat="49.39632" lon="5.73122">
        <ele>267.79998779297</ele>
        <time>2024-06-09T06:58:12Z</time>
      </trkpt>
      <trkpt lat="49.3963" lon="5.73115">
        <ele>268.20001220703</ele>
        <time>2024-06-09T06:58:14Z</time>
      </trkpt>
      <trkpt lat="49.39628" lon="5.73107">
        <ele>268.60000610352</ele>
        <time>2024-06-09T06:58:16Z</time>
      </trkpt>
      <trkpt lat="49.39628" lon="5.73104">
        <ele>268.60000610352</ele>
        <time>2024-06-09T06:58:17Z</time>
      </trkpt>
      <trkpt lat="49.39627" lon="5.73101">
        <ele>268.79998779297</ele>
        <time>2024-06-09T06:58:18Z</time>
      </trkpt>
      <trkpt lat="49.39626" lon="5.73094">
        <ele>269.20001220703</ele>
        <time>2024-06-09T06:58:20Z</time>
      </trkpt>
      <trkpt lat="49.39624" lon="5.73088">
        <ele>269.39999389648</ele>
        <time>2024-06-09T06:58:22Z</time>
      </trkpt>
      <trkpt lat="49.39623" lon="5.73084">
        <ele>269.60000610352</ele>
        <time>2024-06-09T06:58:23Z</time>
      </trkpt>
      <trkpt lat="49.39622" lon="5.73079">
        <ele>269.60000610352</ele>
        <time>2024-06-09T06:58:24Z</time>
      </trkpt>
      <trkpt lat="49.39619" lon="5.73071">
        <ele>270</ele>
        <time>2024-06-09T06:58:26Z</time>
      </trkpt>
      <trkpt lat="49.39618" lon="5.73062">
        <ele>270.60000610352</ele>
        <time>2024-06-09T06:58:28Z</time>
      </trkpt>
      <trkpt lat="49.39617" lon="5.73058">
        <ele>270.79998779297</ele>
        <time>2024-06-09T06:58:29Z</time>
      </trkpt>
      <trkpt lat="49.39616" lon="5.73054">
        <ele>271</ele>
        <time>2024-06-09T06:58:30Z</time>
      </trkpt>
      <trkpt lat="49.39613" lon="5.73044">
        <ele>271.39999389648</ele>
        <time>2024-06-09T06:58:32Z</time>
      </trkpt>
      <trkpt lat="49.3961" lon="5.73034">
        <ele>271.79998779297</ele>
        <time>2024-06-09T06:58:34Z</time>
      </trkpt>
      <trkpt lat="49.3961" lon="5.73031">
        <ele>272</ele>
        <time>2024-06-09T06:58:35Z</time>
      </trkpt>
      <trkpt lat="49.39609" lon="5.73027">
        <ele>272.39999389648</ele>
        <time>2024-06-09T06:58:36Z</time>
      </trkpt>
      <trkpt lat="49.39606" lon="5.73017">
        <ele>272.60000610352</ele>
        <time>2024-06-09T06:58:38Z</time>
      </trkpt>
      <trkpt lat="49.39604" lon="5.73012">
        <ele>272.79998779297</ele>
        <time>2024-06-09T06:58:39Z</time>
      </trkpt>
      <trkpt lat="49.39602" lon="5.73008">
        <ele>273</ele>
        <time>2024-06-09T06:58:40Z</time>
      </trkpt>
      <trkpt lat="49.396" lon="5.72999">
        <ele>273.39999389648</ele>
        <time>2024-06-09T06:58:42Z</time>
      </trkpt>
      <trkpt lat="49.39598" lon="5.7299">
        <ele>273.60000610352</ele>
        <time>2024-06-09T06:58:44Z</time>
      </trkpt>
      <trkpt lat="49.39596" lon="5.72982">
        <ele>274</ele>
        <time>2024-06-09T06:58:46Z</time>
      </trkpt>
      <trkpt lat="49.39595" lon="5.72978">
        <ele>274</ele>
        <time>2024-06-09T06:58:47Z</time>
      </trkpt>
      <trkpt lat="49.39594" lon="5.72975">
        <ele>274.20001220703</ele>
        <time>2024-06-09T06:58:48Z</time>
      </trkpt>
      <trkpt lat="49.39592" lon="5.72966">
        <ele>274.60000610352</ele>
        <time>2024-06-09T06:58:50Z</time>
      </trkpt>
      <trkpt lat="49.39591" lon="5.7296">
        <ele>275</ele>
        <time>2024-06-09T06:58:52Z</time>
      </trkpt>
      <trkpt lat="49.3959" lon="5.72956">
        <ele>275</ele>
        <time>2024-06-09T06:58:53Z</time>
      </trkpt>
      <trkpt lat="49.3959" lon="5.72952">
        <ele>275.20001220703</ele>
        <time>2024-06-09T06:58:54Z</time>
      </trkpt>
      <trkpt lat="49.3959" lon="5.72946">
        <ele>275.60000610352</ele>
        <time>2024-06-09T06:58:56Z</time>
      </trkpt>
      <trkpt lat="49.39589" lon="5.7294">
        <ele>275.79998779297</ele>
        <time>2024-06-09T06:58:58Z</time>
      </trkpt>
      <trkpt lat="49.39588" lon="5.72936">
        <ele>276</ele>
        <time>2024-06-09T06:58:59Z</time>
      </trkpt>
      <trkpt lat="49.39587" lon="5.72933">
        <ele>276.20001220703</ele>
        <time>2024-06-09T06:59:00Z</time>
      </trkpt>
      <trkpt lat="49.39585" lon="5.72926">
        <ele>276.60000610352</ele>
        <time>2024-06-09T06:59:02Z</time>
      </trkpt>
      <trkpt lat="49.39583" lon="5.72918">
        <ele>277.20001220703</ele>
        <time>2024-06-09T06:59:04Z</time>
      </trkpt>
      <trkpt lat="49.39582" lon="5.7291">
        <ele>277.60000610352</ele>
        <time>2024-06-09T06:59:06Z</time>
      </trkpt>
      <trkpt lat="49.3958" lon="5.72904">
        <ele>277.79998779297</ele>
        <time>2024-06-09T06:59:08Z</time>
      </trkpt>
      <trkpt lat="49.39579" lon="5.72901">
        <ele>278</ele>
        <time>2024-06-09T06:59:09Z</time>
      </trkpt>
      <trkpt lat="49.39577" lon="5.72897">
        <ele>278.20001220703</ele>
        <time>2024-06-09T06:59:10Z</time>
      </trkpt>
      <trkpt lat="49.39575" lon="5.72893">
        <ele>278.39999389648</ele>
        <time>2024-06-09T06:59:11Z</time>
      </trkpt>
      <trkpt lat="49.39574" lon="5.72889">
        <ele>278.39999389648</ele>
        <time>2024-06-09T06:59:12Z</time>
      </trkpt>
      <trkpt lat="49.39569" lon="5.7288">
        <ele>278.79998779297</ele>
        <time>2024-06-09T06:59:14Z</time>
      </trkpt>
      <trkpt lat="49.39567" lon="5.72877">
        <ele>279</ele>
        <time>2024-06-09T06:59:15Z</time>
      </trkpt>
      <trkpt lat="49.39564" lon="5.72873">
        <ele>279</ele>
        <time>2024-06-09T06:59:16Z</time>
      </trkpt>
      <trkpt lat="49.39559" lon="5.72866">
        <ele>279.39999389648</ele>
        <time>2024-06-09T06:59:18Z</time>
      </trkpt>
      <trkpt lat="49.39555" lon="5.7286">
        <ele>280</ele>
        <time>2024-06-09T06:59:20Z</time>
      </trkpt>
      <trkpt lat="49.39552" lon="5.72856">
        <ele>280.20001220703</ele>
        <time>2024-06-09T06:59:22Z</time>
      </trkpt>
      <trkpt lat="49.3955" lon="5.72853">
        <ele>280.60000610352</ele>
        <time>2024-06-09T06:59:23Z</time>
      </trkpt>
      <trkpt lat="49.39549" lon="5.72851">
        <ele>280.79998779297</ele>
        <time>2024-06-09T06:59:24Z</time>
      </trkpt>
      <trkpt lat="49.39545" lon="5.72846">
        <ele>281.20001220703</ele>
        <time>2024-06-09T06:59:26Z</time>
      </trkpt>
      <trkpt lat="49.3954" lon="5.72841">
        <ele>281.60000610352</ele>
        <time>2024-06-09T06:59:28Z</time>
      </trkpt>
      <trkpt lat="49.39535" lon="5.72836">
        <ele>282</ele>
        <time>2024-06-09T06:59:30Z</time>
      </trkpt>
      <trkpt lat="49.3953" lon="5.72829">
        <ele>282</ele>
        <time>2024-06-09T06:59:32Z</time>
      </trkpt>
      <trkpt lat="49.39526" lon="5.72825">
        <ele>282.60000610352</ele>
        <time>2024-06-09T06:59:34Z</time>
      </trkpt>
      <trkpt lat="49.39524" lon="5.72823">
        <ele>282.79998779297</ele>
        <time>2024-06-09T06:59:35Z</time>
      </trkpt>
      <trkpt lat="49.39521" lon="5.7282">
        <ele>283</ele>
        <time>2024-06-09T06:59:36Z</time>
      </trkpt>
      <trkpt lat="49.39515" lon="5.72815">
        <ele>283.39999389648</ele>
        <time>2024-06-09T06:59:38Z</time>
      </trkpt>
      <trkpt lat="49.3951" lon="5.72809">
        <ele>283.79998779297</ele>
        <time>2024-06-09T06:59:40Z</time>
      </trkpt>
      <trkpt lat="49.39505" lon="5.72802">
        <ele>284</ele>
        <time>2024-06-09T06:59:42Z</time>
      </trkpt>
      <trkpt lat="49.395" lon="5.72797">
        <ele>284.20001220703</ele>
        <time>2024-06-09T06:59:44Z</time>
      </trkpt>
      <trkpt lat="49.39495" lon="5.72792">
        <ele>284.60000610352</ele>
        <time>2024-06-09T06:59:46Z</time>
      </trkpt>
      <trkpt lat="49.39491" lon="5.72788">
        <ele>284.79998779297</ele>
        <time>2024-06-09T06:59:48Z</time>
      </trkpt>
      <trkpt lat="49.39488" lon="5.72783">
        <ele>285.20001220703</ele>
        <time>2024-06-09T06:59:50Z</time>
      </trkpt>
      <trkpt lat="49.39485" lon="5.7278">
        <ele>285.60000610352</ele>
        <time>2024-06-09T06:59:52Z</time>
      </trkpt>
      <trkpt lat="49.39482" lon="5.72777">
        <ele>286</ele>
        <time>2024-06-09T06:59:54Z</time>
      </trkpt>
      <trkpt lat="49.39478" lon="5.72774">
        <ele>286.60000610352</ele>
        <time>2024-06-09T06:59:56Z</time>
      </trkpt>
      <trkpt lat="49.39475" lon="5.72776">
        <ele>287</ele>
        <time>2024-06-09T06:59:58Z</time>
      </trkpt>
      <trkpt lat="49.39472" lon="5.72778">
        <ele>287</ele>
        <time>2024-06-09T06:59:59Z</time>
      </trkpt>
      <trkpt lat="49.3947" lon="5.7278">
        <ele>287</ele>
        <time>2024-06-09T07:00:00Z</time>
      </trkpt>
      <trkpt lat="49.39463" lon="5.72783">
        <ele>287</ele>
        <time>2024-06-09T07:00:02Z</time>
      </trkpt>
      <trkpt lat="49.39454" lon="5.72785">
        <ele>287</ele>
        <time>2024-06-09T07:00:04Z</time>
      </trkpt>
      <trkpt lat="49.39444" lon="5.72786">
        <ele>287</ele>
        <time>2024-06-09T07:00:06Z</time>
      </trkpt>
      <trkpt lat="49.39438" lon="5.72786">
        <ele>287</ele>
        <time>2024-06-09T07:00:07Z</time>
      </trkpt>
      <trkpt lat="49.39433" lon="5.72787">
        <ele>286.39999389648</ele>
        <time>2024-06-09T07:00:08Z</time>
      </trkpt>
      <trkpt lat="49.39428" lon="5.72788">
        <ele>285.79998779297</ele>
        <time>2024-06-09T07:00:09Z</time>
      </trkpt>
      <trkpt lat="49.39422" lon="5.72789">
        <ele>285.20001220703</ele>
        <time>2024-06-09T07:00:10Z</time>
      </trkpt>
      <trkpt lat="49.39416" lon="5.72789">
        <ele>284.79998779297</ele>
        <time>2024-06-09T07:00:11Z</time>
      </trkpt>
      <trkpt lat="49.39411" lon="5.7279">
        <ele>284.39999389648</ele>
        <time>2024-06-09T07:00:12Z</time>
      </trkpt>
      <trkpt lat="49.39401" lon="5.72791">
        <ele>283.79998779297</ele>
        <time>2024-06-09T07:00:14Z</time>
      </trkpt>
      <trkpt lat="49.39395" lon="5.72793">
        <ele>283.39999389648</ele>
        <time>2024-06-09T07:00:15Z</time>
      </trkpt>
      <trkpt lat="49.39389" lon="5.72794">
        <ele>283.20001220703</ele>
        <time>2024-06-09T07:00:16Z</time>
      </trkpt>
      <trkpt lat="49.39383" lon="5.72796">
        <ele>282.79998779297</ele>
        <time>2024-06-09T07:00:17Z</time>
      </trkpt>
      <trkpt lat="49.39377" lon="5.72797">
        <ele>282.60000610352</ele>
        <time>2024-06-09T07:00:18Z</time>
      </trkpt>
      <trkpt lat="49.39365" lon="5.72799">
        <ele>282.39999389648</ele>
        <time>2024-06-09T07:00:20Z</time>
      </trkpt>
      <trkpt lat="49.39359" lon="5.72801">
        <ele>282.39999389648</ele>
        <time>2024-06-09T07:00:21Z</time>
      </trkpt>
      <trkpt lat="49.39353" lon="5.72803">
        <ele>282.20001220703</ele>
        <time>2024-06-09T07:00:22Z</time>
      </trkpt>
      <trkpt lat="49.39346" lon="5.72806">
        <ele>282.20001220703</ele>
        <time>2024-06-09T07:00:23Z</time>
      </trkpt>
      <trkpt lat="49.3934" lon="5.72809">
        <ele>282</ele>
        <time>2024-06-09T07:00:24Z</time>
      </trkpt>
      <trkpt lat="49.39329" lon="5.72818">
        <ele>281.60000610352</ele>
        <time>2024-06-09T07:00:26Z</time>
      </trkpt>
      <trkpt lat="49.39316" lon="5.72824">
        <ele>281</ele>
        <time>2024-06-09T07:00:28Z</time>
      </trkpt>
      <trkpt lat="49.39303" lon="5.72828">
        <ele>280.60000610352</ele>
        <time>2024-06-09T07:00:30Z</time>
      </trkpt>
      <trkpt lat="49.39297" lon="5.72828">
        <ele>280.39999389648</ele>
        <time>2024-06-09T07:00:31Z</time>
      </trkpt>
      <trkpt lat="49.39291" lon="5.72828">
        <ele>280.20001220703</ele>
        <time>2024-06-09T07:00:32Z</time>
      </trkpt>
      <trkpt lat="49.39278" lon="5.7283">
        <ele>280</ele>
        <time>2024-06-09T07:00:34Z</time>
      </trkpt>
      <trkpt lat="49.39265" lon="5.72833">
        <ele>279.79998779297</ele>
        <time>2024-06-09T07:00:36Z</time>
      </trkpt>
      <trkpt lat="49.39251" lon="5.72837">
        <ele>279.60000610352</ele>
        <time>2024-06-09T07:00:38Z</time>
      </trkpt>
      <trkpt lat="49.39244" lon="5.72839">
        <ele>279.60000610352</ele>
        <time>2024-06-09T07:00:39Z</time>
      </trkpt>
      <trkpt lat="49.39236" lon="5.72842">
        <ele>279.39999389648</ele>
        <time>2024-06-09T07:00:40Z</time>
      </trkpt>
      <trkpt lat="49.39221" lon="5.72844">
        <ele>279.39999389648</ele>
        <time>2024-06-09T07:00:42Z</time>
      </trkpt>
      <trkpt lat="49.39207" lon="5.72847">
        <ele>278.60000610352</ele>
        <time>2024-06-09T07:00:44Z</time>
      </trkpt>
      <trkpt lat="49.39191" lon="5.72846">
        <ele>277.60000610352</ele>
        <time>2024-06-09T07:00:46Z</time>
      </trkpt>
      <trkpt lat="49.39184" lon="5.72846">
        <ele>277.20001220703</ele>
        <time>2024-06-09T07:00:47Z</time>
      </trkpt>
      <trkpt lat="49.39177" lon="5.72847">
        <ele>277</ele>
        <time>2024-06-09T07:00:48Z</time>
      </trkpt>
      <trkpt lat="49.39164" lon="5.72853">
        <ele>276.39999389648</ele>
        <time>2024-06-09T07:00:50Z</time>
      </trkpt>
      <trkpt lat="49.39157" lon="5.72854">
        <ele>276.20001220703</ele>
        <time>2024-06-09T07:00:51Z</time>
      </trkpt>
      <trkpt lat="49.39151" lon="5.72857">
        <ele>276.20001220703</ele>
        <time>2024-06-09T07:00:52Z</time>
      </trkpt>
      <trkpt lat="49.39138" lon="5.72863">
        <ele>275.39999389648</ele>
        <time>2024-06-09T07:00:54Z</time>
      </trkpt>
      <trkpt lat="49.39133" lon="5.72869">
        <ele>274.79998779297</ele>
        <time>2024-06-09T07:00:55Z</time>
      </trkpt>
      <trkpt lat="49.3913" lon="5.72874">
        <ele>274.20001220703</ele>
        <time>2024-06-09T07:00:56Z</time>
      </trkpt>
      <trkpt lat="49.39128" lon="5.72878">
        <ele>273.60000610352</ele>
        <time>2024-06-09T07:00:57Z</time>
      </trkpt>
      <trkpt lat="49.39127" lon="5.72885">
        <ele>272.20001220703</ele>
        <time>2024-06-09T07:00:58Z</time>
      </trkpt>
      <trkpt lat="49.39127" lon="5.72892">
        <ele>271.39999389648</ele>
        <time>2024-06-09T07:00:59Z</time>
      </trkpt>
      <trkpt lat="49.39126" lon="5.72898">
        <ele>270.60000610352</ele>
        <time>2024-06-09T07:01:00Z</time>
      </trkpt>
      <trkpt lat="49.39123" lon="5.72906">
        <ele>269.79998779297</ele>
        <time>2024-06-09T07:01:02Z</time>
      </trkpt>
      <trkpt lat="49.3912" lon="5.72908">
        <ele>269</ele>
        <time>2024-06-09T07:01:03Z</time>
      </trkpt>
      <trkpt lat="49.39117" lon="5.7291">
        <ele>268.20001220703</ele>
        <time>2024-06-09T07:01:04Z</time>
      </trkpt>
      <trkpt lat="49.39113" lon="5.72911">
        <ele>267.60000610352</ele>
        <time>2024-06-09T07:01:05Z</time>
      </trkpt>
      <trkpt lat="49.39109" lon="5.72915">
        <ele>267.20001220703</ele>
        <time>2024-06-09T07:01:06Z</time>
      </trkpt>
      <trkpt lat="49.39102" lon="5.72922">
        <ele>266.79998779297</ele>
        <time>2024-06-09T07:01:08Z</time>
      </trkpt>
      <trkpt lat="49.391" lon="5.72927">
        <ele>266.79998779297</ele>
        <time>2024-06-09T07:01:09Z</time>
      </trkpt>
      <trkpt lat="49.39099" lon="5.72934">
        <ele>266.60000610352</ele>
        <time>2024-06-09T07:01:10Z</time>
      </trkpt>
      <trkpt lat="49.39097" lon="5.72939">
        <ele>266.60000610352</ele>
        <time>2024-06-09T07:01:11Z</time>
      </trkpt>
      <trkpt lat="49.39095" lon="5.72946">
        <ele>266.39999389648</ele>
        <time>2024-06-09T07:01:12Z</time>
      </trkpt>
      <trkpt lat="49.39088" lon="5.72952">
        <ele>266.20001220703</ele>
        <time>2024-06-09T07:01:14Z</time>
      </trkpt>
      <trkpt lat="49.39084" lon="5.72953">
        <ele>266.20001220703</ele>
        <time>2024-06-09T07:01:15Z</time>
      </trkpt>
      <trkpt lat="49.39081" lon="5.72954">
        <ele>265.79998779297</ele>
        <time>2024-06-09T07:01:16Z</time>
      </trkpt>
      <trkpt lat="49.39074" lon="5.72959">
        <ele>265.39999389648</ele>
        <time>2024-06-09T07:01:18Z</time>
      </trkpt>
      <trkpt lat="49.39068" lon="5.72965">
        <ele>265.39999389648</ele>
        <time>2024-06-09T07:01:20Z</time>
      </trkpt>
      <trkpt lat="49.39062" lon="5.72971">
        <ele>265.39999389648</ele>
        <time>2024-06-09T07:01:22Z</time>
      </trkpt>
      <trkpt lat="49.3906" lon="5.72974">
        <ele>265.39999389648</ele>
        <time>2024-06-09T07:01:23Z</time>
      </trkpt>
      <trkpt lat="49.39056" lon="5.72977">
        <ele>265.39999389648</ele>
        <time>2024-06-09T07:01:24Z</time>
      </trkpt>
      <trkpt lat="49.39051" lon="5.72983">
        <ele>265.60000610352</ele>
        <time>2024-06-09T07:01:26Z</time>
      </trkpt>
      <trkpt lat="49.39045" lon="5.72989">
        <ele>266.60000610352</ele>
        <time>2024-06-09T07:01:28Z</time>
      </trkpt>
      <trkpt lat="49.39043" lon="5.72991">
        <ele>266.79998779297</ele>
        <time>2024-06-09T07:01:29Z</time>
      </trkpt>
      <trkpt lat="49.39041" lon="5.72992">
        <ele>267</ele>
        <time>2024-06-09T07:01:30Z</time>
      </trkpt>
      <trkpt lat="49.39037" lon="5.72994">
        <ele>267.60000610352</ele>
        <time>2024-06-09T07:01:32Z</time>
      </trkpt>
      <trkpt lat="49.39035" lon="5.72995">
        <ele>267.79998779297</ele>
        <time>2024-06-09T07:01:33Z</time>
      </trkpt>
      <trkpt lat="49.39034" lon="5.72997">
        <ele>268</ele>
        <time>2024-06-09T07:01:34Z</time>
      </trkpt>
      <trkpt lat="49.39031" lon="5.73002">
        <ele>268.79998779297</ele>
        <time>2024-06-09T07:01:36Z</time>
      </trkpt>
      <trkpt lat="49.3903" lon="5.73006">
        <ele>269</ele>
        <time>2024-06-09T07:01:37Z</time>
      </trkpt>
      <trkpt lat="49.39029" lon="5.73009">
        <ele>269</ele>
        <time>2024-06-09T07:01:38Z</time>
      </trkpt>
      <trkpt lat="49.39026" lon="5.73015">
        <ele>269.39999389648</ele>
        <time>2024-06-09T07:01:40Z</time>
      </trkpt>
      <trkpt lat="49.39025" lon="5.7302">
        <ele>270</ele>
        <time>2024-06-09T07:01:42Z</time>
      </trkpt>
      <trkpt lat="49.39022" lon="5.73027">
        <ele>270.39999389648</ele>
        <time>2024-06-09T07:01:44Z</time>
      </trkpt>
      <trkpt lat="49.39019" lon="5.73034">
        <ele>271</ele>
        <time>2024-06-09T07:01:46Z</time>
      </trkpt>
      <trkpt lat="49.39016" lon="5.73039">
        <ele>271.60000610352</ele>
        <time>2024-06-09T07:01:48Z</time>
      </trkpt>
      <trkpt lat="49.39013" lon="5.73044">
        <ele>272.20001220703</ele>
        <time>2024-06-09T07:01:50Z</time>
      </trkpt>
      <trkpt lat="49.39011" lon="5.73047">
        <ele>272.39999389648</ele>
        <time>2024-06-09T07:01:51Z</time>
      </trkpt>
      <trkpt lat="49.39009" lon="5.7305">
        <ele>272.60000610352</ele>
        <time>2024-06-09T07:01:52Z</time>
      </trkpt>
      <trkpt lat="49.39005" lon="5.73053">
        <ele>273</ele>
        <time>2024-06-09T07:01:54Z</time>
      </trkpt>
      <trkpt lat="49.39003" lon="5.73055">
        <ele>273.39999389648</ele>
        <time>2024-06-09T07:01:55Z</time>
      </trkpt>
      <trkpt lat="49.39001" lon="5.73057">
        <ele>273.39999389648</ele>
        <time>2024-06-09T07:01:56Z</time>
      </trkpt>
      <trkpt lat="49.38997" lon="5.73059">
        <ele>274</ele>
        <time>2024-06-09T07:01:58Z</time>
      </trkpt>
      <trkpt lat="49.38993" lon="5.73061">
        <ele>274.60000610352</ele>
        <time>2024-06-09T07:02:00Z</time>
      </trkpt>
      <trkpt lat="49.38991" lon="5.73061">
        <ele>275</ele>
        <time>2024-06-09T07:02:01Z</time>
      </trkpt>
      <trkpt lat="49.38988" lon="5.73062">
        <ele>275.20001220703</ele>
        <time>2024-06-09T07:02:02Z</time>
      </trkpt>
      <trkpt lat="49.38985" lon="5.73063">
        <ele>275.79998779297</ele>
        <time>2024-06-09T07:02:04Z</time>
      </trkpt>
      <trkpt lat="49.38982" lon="5.73062">
        <ele>276.20001220703</ele>
        <time>2024-06-09T07:02:06Z</time>
      </trkpt>
      <trkpt lat="49.3898" lon="5.73063">
        <ele>276.60000610352</ele>
        <time>2024-06-09T07:02:07Z</time>
      </trkpt>
      <trkpt lat="49.38979" lon="5.73062">
        <ele>276.79998779297</ele>
        <time>2024-06-09T07:02:08Z</time>
      </trkpt>
      <trkpt lat="49.38975" lon="5.73062">
        <ele>277.20001220703</ele>
        <time>2024-06-09T07:02:10Z</time>
      </trkpt>
      <trkpt lat="49.38971" lon="5.73062">
        <ele>277.79998779297</ele>
        <time>2024-06-09T07:02:12Z</time>
      </trkpt>
      <trkpt lat="49.38969" lon="5.73061">
        <ele>278</ele>
        <time>2024-06-09T07:02:13Z</time>
      </trkpt>
      <trkpt lat="49.38968" lon="5.73061">
        <ele>278.20001220703</ele>
        <time>2024-06-09T07:02:14Z</time>
      </trkpt>
      <trkpt lat="49.38967" lon="5.7306">
        <ele>278.39999389648</ele>
        <time>2024-06-09T07:02:15Z</time>
      </trkpt>
      <trkpt lat="49.38964" lon="5.7306">
        <ele>278.60000610352</ele>
        <time>2024-06-09T07:02:16Z</time>
      </trkpt>
      <trkpt lat="49.3896" lon="5.7306">
        <ele>278.79998779297</ele>
        <time>2024-06-09T07:02:18Z</time>
      </trkpt>
      <trkpt lat="49.38956" lon="5.7306">
        <ele>279.20001220703</ele>
        <time>2024-06-09T07:02:20Z</time>
      </trkpt>
      <trkpt lat="49.38951" lon="5.73058">
        <ele>279.39999389648</ele>
        <time>2024-06-09T07:02:22Z</time>
      </trkpt>
      <trkpt lat="49.38949" lon="5.73057">
        <ele>279.60000610352</ele>
        <time>2024-06-09T07:02:23Z</time>
      </trkpt>
      <trkpt lat="49.38947" lon="5.73056">
        <ele>280</ele>
        <time>2024-06-09T07:02:24Z</time>
      </trkpt>
      <trkpt lat="49.38943" lon="5.73053">
        <ele>280.39999389648</ele>
        <time>2024-06-09T07:02:26Z</time>
      </trkpt>
      <trkpt lat="49.3894" lon="5.73051">
        <ele>281</ele>
        <time>2024-06-09T07:02:28Z</time>
      </trkpt>
      <trkpt lat="49.38938" lon="5.7305">
        <ele>281</ele>
        <time>2024-06-09T07:02:29Z</time>
      </trkpt>
      <trkpt lat="49.38936" lon="5.73049">
        <ele>281.39999389648</ele>
        <time>2024-06-09T07:02:30Z</time>
      </trkpt>
      <trkpt lat="49.38932" lon="5.73047">
        <ele>282</ele>
        <time>2024-06-09T07:02:32Z</time>
      </trkpt>
      <trkpt lat="49.3893" lon="5.73044">
        <ele>282.20001220703</ele>
        <time>2024-06-09T07:02:33Z</time>
      </trkpt>
      <trkpt lat="49.38928" lon="5.73042">
        <ele>282.39999389648</ele>
        <time>2024-06-09T07:02:34Z</time>
      </trkpt>
      <trkpt lat="49.38926" lon="5.7304">
        <ele>282.60000610352</ele>
        <time>2024-06-09T07:02:35Z</time>
      </trkpt>
      <trkpt lat="49.38924" lon="5.73038">
        <ele>282.79998779297</ele>
        <time>2024-06-09T07:02:36Z</time>
      </trkpt>
      <trkpt lat="49.38921" lon="5.73036">
        <ele>283.20001220703</ele>
        <time>2024-06-09T07:02:38Z</time>
      </trkpt>
      <trkpt lat="49.38919" lon="5.73035">
        <ele>283.39999389648</ele>
        <time>2024-06-09T07:02:39Z</time>
      </trkpt>
      <trkpt lat="49.38917" lon="5.73033">
        <ele>283.39999389648</ele>
        <time>2024-06-09T07:02:40Z</time>
      </trkpt>
      <trkpt lat="49.38913" lon="5.73032">
        <ele>283.60000610352</ele>
        <time>2024-06-09T07:02:42Z</time>
      </trkpt>
      <trkpt lat="49.38908" lon="5.73029">
        <ele>283.79998779297</ele>
        <time>2024-06-09T07:02:44Z</time>
      </trkpt>
      <trkpt lat="49.38903" lon="5.73025">
        <ele>284</ele>
        <time>2024-06-09T07:02:46Z</time>
      </trkpt>
      <trkpt lat="49.389" lon="5.73023">
        <ele>284.20001220703</ele>
        <time>2024-06-09T07:02:47Z</time>
      </trkpt>
      <trkpt lat="49.38898" lon="5.73022">
        <ele>284.20001220703</ele>
        <time>2024-06-09T07:02:48Z</time>
      </trkpt>
      <trkpt lat="49.38896" lon="5.73021">
        <ele>284.39999389648</ele>
        <time>2024-06-09T07:02:49Z</time>
      </trkpt>
      <trkpt lat="49.38893" lon="5.73021">
        <ele>284.60000610352</ele>
        <time>2024-06-09T07:02:50Z</time>
      </trkpt>
      <trkpt lat="49.38891" lon="5.7302">
        <ele>284.79998779297</ele>
        <time>2024-06-09T07:02:51Z</time>
      </trkpt>
      <trkpt lat="49.38888" lon="5.7302">
        <ele>285</ele>
        <time>2024-06-09T07:02:52Z</time>
      </trkpt>
      <trkpt lat="49.38882" lon="5.7302">
        <ele>285.39999389648</ele>
        <time>2024-06-09T07:02:54Z</time>
      </trkpt>
      <trkpt lat="49.38876" lon="5.73019">
        <ele>285.60000610352</ele>
        <time>2024-06-09T07:02:56Z</time>
      </trkpt>
      <trkpt lat="49.38871" lon="5.73018">
        <ele>285.79998779297</ele>
        <time>2024-06-09T07:02:58Z</time>
      </trkpt>
      <trkpt lat="49.38865" lon="5.7301">
        <ele>286</ele>
        <time>2024-06-09T07:03:00Z</time>
      </trkpt>
      <trkpt lat="49.3886" lon="5.73007">
        <ele>286.60000610352</ele>
        <time>2024-06-09T07:03:02Z</time>
      </trkpt>
      <trkpt lat="49.38857" lon="5.73006">
        <ele>286.60000610352</ele>
        <time>2024-06-09T07:03:03Z</time>
      </trkpt>
      <trkpt lat="49.38854" lon="5.73004">
        <ele>286.60000610352</ele>
        <time>2024-06-09T07:03:04Z</time>
      </trkpt>
      <trkpt lat="49.38852" lon="5.73004">
        <ele>286.79998779297</ele>
        <time>2024-06-09T07:03:05Z</time>
      </trkpt>
      <trkpt lat="49.3885" lon="5.73005">
        <ele>287</ele>
        <time>2024-06-09T07:03:06Z</time>
      </trkpt>
      <trkpt lat="49.38849" lon="5.73008">
        <ele>287.20001220703</ele>
        <time>2024-06-09T07:03:07Z</time>
      </trkpt>
      <trkpt lat="49.38847" lon="5.73012">
        <ele>287.20001220703</ele>
        <time>2024-06-09T07:03:08Z</time>
      </trkpt>
      <trkpt lat="49.38846" lon="5.7302">
        <ele>287.39999389648</ele>
        <time>2024-06-09T07:03:10Z</time>
      </trkpt>
      <trkpt lat="49.38845" lon="5.73027">
        <ele>287.39999389648</ele>
        <time>2024-06-09T07:03:12Z</time>
      </trkpt>
      <trkpt lat="49.38844" lon="5.73036">
        <ele>287.39999389648</ele>
        <time>2024-06-09T07:03:14Z</time>
      </trkpt>
      <trkpt lat="49.38842" lon="5.73043">
        <ele>287.60000610352</ele>
        <time>2024-06-09T07:03:16Z</time>
      </trkpt>
      <trkpt lat="49.38842" lon="5.73048">
        <ele>287.60000610352</ele>
        <time>2024-06-09T07:03:17Z</time>
      </trkpt>
      <trkpt lat="49.38842" lon="5.73052">
        <ele>287.79998779297</ele>
        <time>2024-06-09T07:03:18Z</time>
      </trkpt>
      <trkpt lat="49.38841" lon="5.7306">
        <ele>288</ele>
        <time>2024-06-09T07:03:20Z</time>
      </trkpt>
      <trkpt lat="49.38841" lon="5.7307">
        <ele>288.20001220703</ele>
        <time>2024-06-09T07:03:22Z</time>
      </trkpt>
      <trkpt lat="49.3884" lon="5.73075">
        <ele>288.20001220703</ele>
        <time>2024-06-09T07:03:23Z</time>
      </trkpt>
      <trkpt lat="49.3884" lon="5.7308">
        <ele>288.20001220703</ele>
        <time>2024-06-09T07:03:24Z</time>
      </trkpt>
      <trkpt lat="49.38838" lon="5.73083">
        <ele>288.39999389648</ele>
        <time>2024-06-09T07:03:26Z</time>
      </trkpt>
      <trkpt lat="49.38835" lon="5.73081">
        <ele>288.39999389648</ele>
        <time>2024-06-09T07:03:28Z</time>
      </trkpt>
      <trkpt lat="49.38831" lon="5.73076">
        <ele>288.39999389648</ele>
        <time>2024-06-09T07:03:30Z</time>
      </trkpt>
      <trkpt lat="49.38828" lon="5.73072">
        <ele>288.60000610352</ele>
        <time>2024-06-09T07:03:32Z</time>
      </trkpt>
      <trkpt lat="49.38823" lon="5.73069">
        <ele>288.60000610352</ele>
        <time>2024-06-09T07:03:34Z</time>
      </trkpt>
      <trkpt lat="49.38819" lon="5.73063">
        <ele>288.60000610352</ele>
        <time>2024-06-09T07:03:36Z</time>
      </trkpt>
      <trkpt lat="49.38814" lon="5.73057">
        <ele>288.60000610352</ele>
        <time>2024-06-09T07:03:38Z</time>
      </trkpt>
      <trkpt lat="49.38811" lon="5.73054">
        <ele>288.60000610352</ele>
        <time>2024-06-09T07:03:39Z</time>
      </trkpt>
      <trkpt lat="49.38808" lon="5.7305">
        <ele>288.60000610352</ele>
        <time>2024-06-09T07:03:40Z</time>
      </trkpt>
      <trkpt lat="49.38804" lon="5.73044">
        <ele>288.60000610352</ele>
        <time>2024-06-09T07:03:42Z</time>
      </trkpt>
      <trkpt lat="49.388" lon="5.73038">
        <ele>288.79998779297</ele>
        <time>2024-06-09T07:03:44Z</time>
      </trkpt>
      <trkpt lat="49.38795" lon="5.7303">
        <ele>288.79998779297</ele>
        <time>2024-06-09T07:03:46Z</time>
      </trkpt>
      <trkpt lat="49.3879" lon="5.73022">
        <ele>288.79998779297</ele>
        <time>2024-06-09T07:03:48Z</time>
      </trkpt>
      <trkpt lat="49.38785" lon="5.73015">
        <ele>288.79998779297</ele>
        <time>2024-06-09T07:03:50Z</time>
      </trkpt>
      <trkpt lat="49.38781" lon="5.73009">
        <ele>288.79998779297</ele>
        <time>2024-06-09T07:03:52Z</time>
      </trkpt>
      <trkpt lat="49.38776" lon="5.73">
        <ele>289</ele>
        <time>2024-06-09T07:03:54Z</time>
      </trkpt>
      <trkpt lat="49.38769" lon="5.72988">
        <ele>289</ele>
        <time>2024-06-09T07:03:56Z</time>
      </trkpt>
      <trkpt lat="49.38764" lon="5.72972">
        <ele>289</ele>
        <time>2024-06-09T07:03:58Z</time>
      </trkpt>
      <trkpt lat="49.38761" lon="5.72965">
        <ele>289</ele>
        <time>2024-06-09T07:03:59Z</time>
      </trkpt>
      <trkpt lat="49.38758" lon="5.72957">
        <ele>289</ele>
        <time>2024-06-09T07:04:00Z</time>
      </trkpt>
      <trkpt lat="49.38752" lon="5.72939">
        <ele>289</ele>
        <time>2024-06-09T07:04:02Z</time>
      </trkpt>
      <trkpt lat="49.38747" lon="5.72922">
        <ele>289</ele>
        <time>2024-06-09T07:04:04Z</time>
      </trkpt>
      <trkpt lat="49.38742" lon="5.72908">
        <ele>289</ele>
        <time>2024-06-09T07:04:06Z</time>
      </trkpt>
      <trkpt lat="49.38738" lon="5.72894">
        <ele>289</ele>
        <time>2024-06-09T07:04:08Z</time>
      </trkpt>
      <trkpt lat="49.38734" lon="5.72882">
        <ele>289</ele>
        <time>2024-06-09T07:04:10Z</time>
      </trkpt>
      <trkpt lat="49.3873" lon="5.7287">
        <ele>289</ele>
        <time>2024-06-09T07:04:12Z</time>
      </trkpt>
      <trkpt lat="49.38727" lon="5.72859">
        <ele>289</ele>
        <time>2024-06-09T07:04:14Z</time>
      </trkpt>
      <trkpt lat="49.38724" lon="5.72847">
        <ele>289</ele>
        <time>2024-06-09T07:04:16Z</time>
      </trkpt>
      <trkpt lat="49.38721" lon="5.72837">
        <ele>289</ele>
        <time>2024-06-09T07:04:18Z</time>
      </trkpt>
      <trkpt lat="49.38718" lon="5.72828">
        <ele>289</ele>
        <time>2024-06-09T07:04:20Z</time>
      </trkpt>
      <trkpt lat="49.38716" lon="5.7282">
        <ele>289.20001220703</ele>
        <time>2024-06-09T07:04:22Z</time>
      </trkpt>
      <trkpt lat="49.38716" lon="5.72817">
        <ele>289.20001220703</ele>
        <time>2024-06-09T07:04:23Z</time>
      </trkpt>
      <trkpt lat="49.38717" lon="5.72814">
        <ele>289.20001220703</ele>
        <time>2024-06-09T07:04:24Z</time>
      </trkpt>
      <trkpt lat="49.38722" lon="5.72809">
        <ele>289.20001220703</ele>
        <time>2024-06-09T07:04:26Z</time>
      </trkpt>
      <trkpt lat="49.38725" lon="5.72807">
        <ele>289.20001220703</ele>
        <time>2024-06-09T07:04:27Z</time>
      </trkpt>
      <trkpt lat="49.38729" lon="5.72804">
        <ele>289.20001220703</ele>
        <time>2024-06-09T07:04:28Z</time>
      </trkpt>
      <trkpt lat="49.38736" lon="5.72798">
        <ele>289.20001220703</ele>
        <time>2024-06-09T07:04:30Z</time>
      </trkpt>
      <trkpt lat="49.38744" lon="5.72792">
        <ele>289.20001220703</ele>
        <time>2024-06-09T07:04:32Z</time>
      </trkpt>
      <trkpt lat="49.38752" lon="5.72786">
        <ele>289.20001220703</ele>
        <time>2024-06-09T07:04:34Z</time>
      </trkpt>
      <trkpt lat="49.38761" lon="5.7278">
        <ele>289.20001220703</ele>
        <time>2024-06-09T07:04:36Z</time>
      </trkpt>
      <trkpt lat="49.38769" lon="5.72774">
        <ele>289.20001220703</ele>
        <time>2024-06-09T07:04:38Z</time>
      </trkpt>
      <trkpt lat="49.38778" lon="5.72768">
        <ele>288.60000610352</ele>
        <time>2024-06-09T07:04:40Z</time>
      </trkpt>
      <trkpt lat="49.38783" lon="5.72766">
        <ele>288.39999389648</ele>
        <time>2024-06-09T07:04:41Z</time>
      </trkpt>
      <trkpt lat="49.38787" lon="5.72764">
        <ele>288.39999389648</ele>
        <time>2024-06-09T07:04:42Z</time>
      </trkpt>
      <trkpt lat="49.38796" lon="5.72758">
        <ele>288.20001220703</ele>
        <time>2024-06-09T07:04:44Z</time>
      </trkpt>
      <trkpt lat="49.38805" lon="5.72752">
        <ele>288</ele>
        <time>2024-06-09T07:04:46Z</time>
      </trkpt>
      <trkpt lat="49.38814" lon="5.72745">
        <ele>287.79998779297</ele>
        <time>2024-06-09T07:04:48Z</time>
      </trkpt>
      <trkpt lat="49.38819" lon="5.72742">
        <ele>287.79998779297</ele>
        <time>2024-06-09T07:04:49Z</time>
      </trkpt>
      <trkpt lat="49.38824" lon="5.72739">
        <ele>287.60000610352</ele>
        <time>2024-06-09T07:04:50Z</time>
      </trkpt>
      <trkpt lat="49.38829" lon="5.72736">
        <ele>287.60000610352</ele>
        <time>2024-06-09T07:04:51Z</time>
      </trkpt>
      <trkpt lat="49.38834" lon="5.72732">
        <ele>287.39999389648</ele>
        <time>2024-06-09T07:04:52Z</time>
      </trkpt>
      <trkpt lat="49.38844" lon="5.72725">
        <ele>287</ele>
        <time>2024-06-09T07:04:54Z</time>
      </trkpt>
      <trkpt lat="49.38853" lon="5.72718">
        <ele>286.79998779297</ele>
        <time>2024-06-09T07:04:56Z</time>
      </trkpt>
      <trkpt lat="49.38863" lon="5.7271">
        <ele>286.60000610352</ele>
        <time>2024-06-09T07:04:58Z</time>
      </trkpt>
      <trkpt lat="49.38868" lon="5.72706">
        <ele>286.39999389648</ele>
        <time>2024-06-09T07:04:59Z</time>
      </trkpt>
      <trkpt lat="49.38873" lon="5.72702">
        <ele>286.39999389648</ele>
        <time>2024-06-09T07:05:00Z</time>
      </trkpt>
      <trkpt lat="49.38882" lon="5.72695">
        <ele>286.20001220703</ele>
        <time>2024-06-09T07:05:02Z</time>
      </trkpt>
      <trkpt lat="49.38892" lon="5.72686">
        <ele>286.20001220703</ele>
        <time>2024-06-09T07:05:04Z</time>
      </trkpt>
      <trkpt lat="49.38901" lon="5.72678">
        <ele>286.20001220703</ele>
        <time>2024-06-09T07:05:06Z</time>
      </trkpt>
      <trkpt lat="49.3891" lon="5.72669">
        <ele>286.20001220703</ele>
        <time>2024-06-09T07:05:08Z</time>
      </trkpt>
      <trkpt lat="49.38914" lon="5.72664">
        <ele>286.20001220703</ele>
        <time>2024-06-09T07:05:09Z</time>
      </trkpt>
      <trkpt lat="49.38919" lon="5.7266">
        <ele>286.20001220703</ele>
        <time>2024-06-09T07:05:10Z</time>
      </trkpt>
      <trkpt lat="49.38927" lon="5.72651">
        <ele>286.39999389648</ele>
        <time>2024-06-09T07:05:12Z</time>
      </trkpt>
      <trkpt lat="49.38936" lon="5.72641">
        <ele>286.39999389648</ele>
        <time>2024-06-09T07:05:14Z</time>
      </trkpt>
      <trkpt lat="49.38944" lon="5.72632">
        <ele>286.60000610352</ele>
        <time>2024-06-09T07:05:16Z</time>
      </trkpt>
      <trkpt lat="49.38948" lon="5.72628">
        <ele>286.60000610352</ele>
        <time>2024-06-09T07:05:17Z</time>
      </trkpt>
      <trkpt lat="49.38952" lon="5.72623">
        <ele>286.60000610352</ele>
        <time>2024-06-09T07:05:18Z</time>
      </trkpt>
      <trkpt lat="49.3896" lon="5.72613">
        <ele>286.60000610352</ele>
        <time>2024-06-09T07:05:20Z</time>
      </trkpt>
      <trkpt lat="49.38969" lon="5.72603">
        <ele>286.60000610352</ele>
        <time>2024-06-09T07:05:22Z</time>
      </trkpt>
      <trkpt lat="49.38978" lon="5.72594">
        <ele>286.79998779297</ele>
        <time>2024-06-09T07:05:24Z</time>
      </trkpt>
      <trkpt lat="49.38983" lon="5.7259">
        <ele>286.79998779297</ele>
        <time>2024-06-09T07:05:25Z</time>
      </trkpt>
      <trkpt lat="49.38987" lon="5.72586">
        <ele>286.79998779297</ele>
        <time>2024-06-09T07:05:26Z</time>
      </trkpt>
      <trkpt lat="49.38997" lon="5.72578">
        <ele>286.79998779297</ele>
        <time>2024-06-09T07:05:28Z</time>
      </trkpt>
      <trkpt lat="49.39006" lon="5.7257">
        <ele>286.79998779297</ele>
        <time>2024-06-09T07:05:30Z</time>
      </trkpt>
      <trkpt lat="49.39015" lon="5.72562">
        <ele>286.79998779297</ele>
        <time>2024-06-09T07:05:32Z</time>
      </trkpt>
      <trkpt lat="49.39024" lon="5.72553">
        <ele>287</ele>
        <time>2024-06-09T07:05:34Z</time>
      </trkpt>
      <trkpt lat="49.39028" lon="5.72549">
        <ele>287</ele>
        <time>2024-06-09T07:05:35Z</time>
      </trkpt>
      <trkpt lat="49.39032" lon="5.72545">
        <ele>287</ele>
        <time>2024-06-09T07:05:36Z</time>
      </trkpt>
      <trkpt lat="49.3904" lon="5.72537">
        <ele>287.20001220703</ele>
        <time>2024-06-09T07:05:38Z</time>
      </trkpt>
      <trkpt lat="49.39049" lon="5.72528">
        <ele>287.20001220703</ele>
        <time>2024-06-09T07:05:40Z</time>
      </trkpt>
      <trkpt lat="49.39057" lon="5.72519">
        <ele>287.39999389648</ele>
        <time>2024-06-09T07:05:42Z</time>
      </trkpt>
      <trkpt lat="49.39065" lon="5.7251">
        <ele>287.60000610352</ele>
        <time>2024-06-09T07:05:44Z</time>
      </trkpt>
      <trkpt lat="49.39074" lon="5.725">
        <ele>287.60000610352</ele>
        <time>2024-06-09T07:05:46Z</time>
      </trkpt>
      <trkpt lat="49.39082" lon="5.72489">
        <ele>287.60000610352</ele>
        <time>2024-06-09T07:05:48Z</time>
      </trkpt>
      <trkpt lat="49.3909" lon="5.72477">
        <ele>287.60000610352</ele>
        <time>2024-06-09T07:05:50Z</time>
      </trkpt>
      <trkpt lat="49.39099" lon="5.72466">
        <ele>287.60000610352</ele>
        <time>2024-06-09T07:05:52Z</time>
      </trkpt>
      <trkpt lat="49.39108" lon="5.72455">
        <ele>287.60000610352</ele>
        <time>2024-06-09T07:05:54Z</time>
      </trkpt>
      <trkpt lat="49.39117" lon="5.72444">
        <ele>287.79998779297</ele>
        <time>2024-06-09T07:05:56Z</time>
      </trkpt>
      <trkpt lat="49.39125" lon="5.72434">
        <ele>287.79998779297</ele>
        <time>2024-06-09T07:05:58Z</time>
      </trkpt>
      <trkpt lat="49.39135" lon="5.72424">
        <ele>287.79998779297</ele>
        <time>2024-06-09T07:06:00Z</time>
      </trkpt>
      <trkpt lat="49.39144" lon="5.72415">
        <ele>287.60000610352</ele>
        <time>2024-06-09T07:06:02Z</time>
      </trkpt>
      <trkpt lat="49.39149" lon="5.72411">
        <ele>287.60000610352</ele>
        <time>2024-06-09T07:06:03Z</time>
      </trkpt>
      <trkpt lat="49.39154" lon="5.72408">
        <ele>287.60000610352</ele>
        <time>2024-06-09T07:06:04Z</time>
      </trkpt>
      <trkpt lat="49.39159" lon="5.72405">
        <ele>287.60000610352</ele>
        <time>2024-06-09T07:06:05Z</time>
      </trkpt>
      <trkpt lat="49.39164" lon="5.72403">
        <ele>287.60000610352</ele>
        <time>2024-06-09T07:06:06Z</time>
      </trkpt>
      <trkpt lat="49.39175" lon="5.72402">
        <ele>287.60000610352</ele>
        <time>2024-06-09T07:06:08Z</time>
      </trkpt>
      <trkpt lat="49.3918" lon="5.72403">
        <ele>287.60000610352</ele>
        <time>2024-06-09T07:06:09Z</time>
      </trkpt>
      <trkpt lat="49.39185" lon="5.72403">
        <ele>287.79998779297</ele>
        <time>2024-06-09T07:06:10Z</time>
      </trkpt>
      <trkpt lat="49.39195" lon="5.72403">
        <ele>287.79998779297</ele>
        <time>2024-06-09T07:06:12Z</time>
      </trkpt>
      <trkpt lat="49.39205" lon="5.72403">
        <ele>288</ele>
        <time>2024-06-09T07:06:14Z</time>
      </trkpt>
      <trkpt lat="49.39214" lon="5.72404">
        <ele>288</ele>
        <time>2024-06-09T07:06:16Z</time>
      </trkpt>
      <trkpt lat="49.39219" lon="5.72405">
        <ele>288.20001220703</ele>
        <time>2024-06-09T07:06:17Z</time>
      </trkpt>
      <trkpt lat="49.39223" lon="5.72405">
        <ele>288.20001220703</ele>
        <time>2024-06-09T07:06:18Z</time>
      </trkpt>
      <trkpt lat="49.39232" lon="5.72405">
        <ele>288.60000610352</ele>
        <time>2024-06-09T07:06:20Z</time>
      </trkpt>
      <trkpt lat="49.39241" lon="5.72405">
        <ele>289</ele>
        <time>2024-06-09T07:06:22Z</time>
      </trkpt>
      <trkpt lat="49.39249" lon="5.72403">
        <ele>289.39999389648</ele>
        <time>2024-06-09T07:06:24Z</time>
      </trkpt>
      <trkpt lat="49.39253" lon="5.72402">
        <ele>289.60000610352</ele>
        <time>2024-06-09T07:06:25Z</time>
      </trkpt>
      <trkpt lat="49.39257" lon="5.72401">
        <ele>289.79998779297</ele>
        <time>2024-06-09T07:06:26Z</time>
      </trkpt>
      <trkpt lat="49.39261" lon="5.72399">
        <ele>290</ele>
        <time>2024-06-09T07:06:27Z</time>
      </trkpt>
      <trkpt lat="49.39265" lon="5.72396">
        <ele>290.20001220703</ele>
        <time>2024-06-09T07:06:28Z</time>
      </trkpt>
      <trkpt lat="49.39272" lon="5.72392">
        <ele>290.60000610352</ele>
        <time>2024-06-09T07:06:30Z</time>
      </trkpt>
      <trkpt lat="49.39276" lon="5.7239">
        <ele>290.79998779297</ele>
        <time>2024-06-09T07:06:31Z</time>
      </trkpt>
      <trkpt lat="49.39279" lon="5.72388">
        <ele>291.20001220703</ele>
        <time>2024-06-09T07:06:32Z</time>
      </trkpt>
      <trkpt lat="49.39283" lon="5.72385">
        <ele>291.39999389648</ele>
        <time>2024-06-09T07:06:33Z</time>
      </trkpt>
      <trkpt lat="49.39287" lon="5.72383">
        <ele>291.60000610352</ele>
        <time>2024-06-09T07:06:34Z</time>
      </trkpt>
      <trkpt lat="49.39294" lon="5.72378">
        <ele>292</ele>
        <time>2024-06-09T07:06:36Z</time>
      </trkpt>
      <trkpt lat="49.39301" lon="5.72374">
        <ele>292.60000610352</ele>
        <time>2024-06-09T07:06:38Z</time>
      </trkpt>
      <trkpt lat="49.39307" lon="5.72369">
        <ele>292.79998779297</ele>
        <time>2024-06-09T07:06:40Z</time>
      </trkpt>
      <trkpt lat="49.39311" lon="5.72367">
        <ele>293</ele>
        <time>2024-06-09T07:06:41Z</time>
      </trkpt>
      <trkpt lat="49.39314" lon="5.72366">
        <ele>293.20001220703</ele>
        <time>2024-06-09T07:06:42Z</time>
      </trkpt>
      <trkpt lat="49.3932" lon="5.72366">
        <ele>293.39999389648</ele>
        <time>2024-06-09T07:06:44Z</time>
      </trkpt>
      <trkpt lat="49.39323" lon="5.72368">
        <ele>293.60000610352</ele>
        <time>2024-06-09T07:06:45Z</time>
      </trkpt>
      <trkpt lat="49.39326" lon="5.72372">
        <ele>293.79998779297</ele>
        <time>2024-06-09T07:06:46Z</time>
      </trkpt>
      <trkpt lat="49.39333" lon="5.7238">
        <ele>294.20001220703</ele>
        <time>2024-06-09T07:06:48Z</time>
      </trkpt>
      <trkpt lat="49.3934" lon="5.72388">
        <ele>294.39999389648</ele>
        <time>2024-06-09T07:06:50Z</time>
      </trkpt>
      <trkpt lat="49.39343" lon="5.72393">
        <ele>294.39999389648</ele>
        <time>2024-06-09T07:06:51Z</time>
      </trkpt>
      <trkpt lat="49.39347" lon="5.72398">
        <ele>294.39999389648</ele>
        <time>2024-06-09T07:06:52Z</time>
      </trkpt>
      <trkpt lat="49.39355" lon="5.72409">
        <ele>294.39999389648</ele>
        <time>2024-06-09T07:06:54Z</time>
      </trkpt>
      <trkpt lat="49.39364" lon="5.72421">
        <ele>294.39999389648</ele>
        <time>2024-06-09T07:06:56Z</time>
      </trkpt>
      <trkpt lat="49.39368" lon="5.72428">
        <ele>294.39999389648</ele>
        <time>2024-06-09T07:06:57Z</time>
      </trkpt>
      <trkpt lat="49.39373" lon="5.72434">
        <ele>294.39999389648</ele>
        <time>2024-06-09T07:06:58Z</time>
      </trkpt>
      <trkpt lat="49.39381" lon="5.72448">
        <ele>294</ele>
        <time>2024-06-09T07:07:00Z</time>
      </trkpt>
      <trkpt lat="49.3939" lon="5.72462">
        <ele>293.39999389648</ele>
        <time>2024-06-09T07:07:02Z</time>
      </trkpt>
      <trkpt lat="49.39398" lon="5.72478">
        <ele>293</ele>
        <time>2024-06-09T07:07:04Z</time>
      </trkpt>
      <trkpt lat="49.39402" lon="5.72486">
        <ele>292.79998779297</ele>
        <time>2024-06-09T07:07:05Z</time>
      </trkpt>
      <trkpt lat="49.39406" lon="5.72494">
        <ele>292.60000610352</ele>
        <time>2024-06-09T07:07:06Z</time>
      </trkpt>
      <trkpt lat="49.39413" lon="5.72511">
        <ele>292.20001220703</ele>
        <time>2024-06-09T07:07:08Z</time>
      </trkpt>
      <trkpt lat="49.39417" lon="5.72519">
        <ele>292</ele>
        <time>2024-06-09T07:07:09Z</time>
      </trkpt>
      <trkpt lat="49.39421" lon="5.72528">
        <ele>291.79998779297</ele>
        <time>2024-06-09T07:07:10Z</time>
      </trkpt>
      <trkpt lat="49.39428" lon="5.72546">
        <ele>291.60000610352</ele>
        <time>2024-06-09T07:07:12Z</time>
      </trkpt>
      <trkpt lat="49.39434" lon="5.72563">
        <ele>291.20001220703</ele>
        <time>2024-06-09T07:07:14Z</time>
      </trkpt>
      <trkpt lat="49.39439" lon="5.7258">
        <ele>291</ele>
        <time>2024-06-09T07:07:16Z</time>
      </trkpt>
      <trkpt lat="49.39444" lon="5.72596">
        <ele>290.60000610352</ele>
        <time>2024-06-09T07:07:18Z</time>
      </trkpt>
      <trkpt lat="49.39447" lon="5.72604">
        <ele>290.60000610352</ele>
        <time>2024-06-09T07:07:19Z</time>
      </trkpt>
      <trkpt lat="49.39451" lon="5.72611">
        <ele>290.60000610352</ele>
        <time>2024-06-09T07:07:20Z</time>
      </trkpt>
      <trkpt lat="49.39455" lon="5.72618">
        <ele>290.39999389648</ele>
        <time>2024-06-09T07:07:21Z</time>
      </trkpt>
      <trkpt lat="49.39458" lon="5.72626">
        <ele>290.39999389648</ele>
        <time>2024-06-09T07:07:22Z</time>
      </trkpt>
      <trkpt lat="49.3946" lon="5.72634">
        <ele>290.39999389648</ele>
        <time>2024-06-09T07:07:23Z</time>
      </trkpt>
      <trkpt lat="49.39463" lon="5.72643">
        <ele>290.39999389648</ele>
        <time>2024-06-09T07:07:24Z</time>
      </trkpt>
      <trkpt lat="49.39468" lon="5.7266">
        <ele>290.39999389648</ele>
        <time>2024-06-09T07:07:26Z</time>
      </trkpt>
      <trkpt lat="49.39471" lon="5.72668">
        <ele>290.39999389648</ele>
        <time>2024-06-09T07:07:27Z</time>
      </trkpt>
      <trkpt lat="49.39475" lon="5.72676">
        <ele>290.39999389648</ele>
        <time>2024-06-09T07:07:28Z</time>
      </trkpt>
      <trkpt lat="49.39484" lon="5.7269">
        <ele>290.20001220703</ele>
        <time>2024-06-09T07:07:30Z</time>
      </trkpt>
      <trkpt lat="49.39495" lon="5.727">
        <ele>290.39999389648</ele>
        <time>2024-06-09T07:07:32Z</time>
      </trkpt>
      <trkpt lat="49.39506" lon="5.7271">
        <ele>290.39999389648</ele>
        <time>2024-06-09T07:07:34Z</time>
      </trkpt>
      <trkpt lat="49.39516" lon="5.72719">
        <ele>290.39999389648</ele>
        <time>2024-06-09T07:07:36Z</time>
      </trkpt>
      <trkpt lat="49.39527" lon="5.72728">
        <ele>290.39999389648</ele>
        <time>2024-06-09T07:07:38Z</time>
      </trkpt>
      <trkpt lat="49.39538" lon="5.72735">
        <ele>290.39999389648</ele>
        <time>2024-06-09T07:07:40Z</time>
      </trkpt>
      <trkpt lat="49.39544" lon="5.72737">
        <ele>290.39999389648</ele>
        <time>2024-06-09T07:07:41Z</time>
      </trkpt>
      <trkpt lat="49.3955" lon="5.72737">
        <ele>290.39999389648</ele>
        <time>2024-06-09T07:07:42Z</time>
      </trkpt>
      <trkpt lat="49.39562" lon="5.72735">
        <ele>290.39999389648</ele>
        <time>2024-06-09T07:07:44Z</time>
      </trkpt>
      <trkpt lat="49.39567" lon="5.72733">
        <ele>290.39999389648</ele>
        <time>2024-06-09T07:07:45Z</time>
      </trkpt>
      <trkpt lat="49.39573" lon="5.7273">
        <ele>290.39999389648</ele>
        <time>2024-06-09T07:07:46Z</time>
      </trkpt>
      <trkpt lat="49.39583" lon="5.72721">
        <ele>290.39999389648</ele>
        <time>2024-06-09T07:07:48Z</time>
      </trkpt>
      <trkpt lat="49.39592" lon="5.72714">
        <ele>290.60000610352</ele>
        <time>2024-06-09T07:07:50Z</time>
      </trkpt>
      <trkpt lat="49.39597" lon="5.7271">
        <ele>290.79998779297</ele>
        <time>2024-06-09T07:07:51Z</time>
      </trkpt>
      <trkpt lat="49.39602" lon="5.72707">
        <ele>291</ele>
        <time>2024-06-09T07:07:52Z</time>
      </trkpt>
      <trkpt lat="49.3961" lon="5.72702">
        <ele>291.20001220703</ele>
        <time>2024-06-09T07:07:54Z</time>
      </trkpt>
      <trkpt lat="49.39618" lon="5.72699">
        <ele>291.39999389648</ele>
        <time>2024-06-09T07:07:56Z</time>
      </trkpt>
      <trkpt lat="49.39622" lon="5.72701">
        <ele>291.60000610352</ele>
        <time>2024-06-09T07:07:57Z</time>
      </trkpt>
      <trkpt lat="49.39625" lon="5.72705">
        <ele>291.79998779297</ele>
        <time>2024-06-09T07:07:58Z</time>
      </trkpt>
      <trkpt lat="49.39627" lon="5.72709">
        <ele>292</ele>
        <time>2024-06-09T07:07:59Z</time>
      </trkpt>
      <trkpt lat="49.39628" lon="5.72714">
        <ele>292.20001220703</ele>
        <time>2024-06-09T07:08:00Z</time>
      </trkpt>
      <trkpt lat="49.39626" lon="5.72722">
        <ele>292.39999389648</ele>
        <time>2024-06-09T07:08:02Z</time>
      </trkpt>
      <trkpt lat="49.39623" lon="5.72731">
        <ele>292.79998779297</ele>
        <time>2024-06-09T07:08:04Z</time>
      </trkpt>
      <trkpt lat="49.39621" lon="5.72742">
        <ele>292.79998779297</ele>
        <time>2024-06-09T07:08:06Z</time>
      </trkpt>
      <trkpt lat="49.39619" lon="5.72756">
        <ele>292.79998779297</ele>
        <time>2024-06-09T07:08:08Z</time>
      </trkpt>
      <trkpt lat="49.3962" lon="5.72763">
        <ele>292.79998779297</ele>
        <time>2024-06-09T07:08:09Z</time>
      </trkpt>
      <trkpt lat="49.39621" lon="5.72771">
        <ele>292.79998779297</ele>
        <time>2024-06-09T07:08:10Z</time>
      </trkpt>
      <trkpt lat="49.39623" lon="5.72789">
        <ele>292.79998779297</ele>
        <time>2024-06-09T07:08:12Z</time>
      </trkpt>
      <trkpt lat="49.39625" lon="5.72807">
        <ele>292.79998779297</ele>
        <time>2024-06-09T07:08:14Z</time>
      </trkpt>
      <trkpt lat="49.39625" lon="5.72816">
        <ele>292.60000610352</ele>
        <time>2024-06-09T07:08:15Z</time>
      </trkpt>
      <trkpt lat="49.39626" lon="5.72826">
        <ele>292.20001220703</ele>
        <time>2024-06-09T07:08:16Z</time>
      </trkpt>
      <trkpt lat="49.39627" lon="5.72849">
        <ele>291.60000610352</ele>
        <time>2024-06-09T07:08:18Z</time>
      </trkpt>
      <trkpt lat="49.39628" lon="5.72859">
        <ele>291</ele>
        <time>2024-06-09T07:08:19Z</time>
      </trkpt>
      <trkpt lat="49.39629" lon="5.7287">
        <ele>290.39999389648</ele>
        <time>2024-06-09T07:08:20Z</time>
      </trkpt>
      <trkpt lat="49.3963" lon="5.72883">
        <ele>289.79998779297</ele>
        <time>2024-06-09T07:08:21Z</time>
      </trkpt>
      <trkpt lat="49.39631" lon="5.72896">
        <ele>289.39999389648</ele>
        <time>2024-06-09T07:08:22Z</time>
      </trkpt>
      <trkpt lat="49.39633" lon="5.7291">
        <ele>288.79998779297</ele>
        <time>2024-06-09T07:08:23Z</time>
      </trkpt>
      <trkpt lat="49.39634" lon="5.72924">
        <ele>288.20001220703</ele>
        <time>2024-06-09T07:08:24Z</time>
      </trkpt>
      <trkpt lat="49.39636" lon="5.72938">
        <ele>287.39999389648</ele>
        <time>2024-06-09T07:08:25Z</time>
      </trkpt>
      <trkpt lat="49.39638" lon="5.72951">
        <ele>286.79998779297</ele>
        <time>2024-06-09T07:08:26Z</time>
      </trkpt>
      <trkpt lat="49.3964" lon="5.72964">
        <ele>286</ele>
        <time>2024-06-09T07:08:27Z</time>
      </trkpt>
      <trkpt lat="49.39642" lon="5.72976">
        <ele>285.39999389648</ele>
        <time>2024-06-09T07:08:28Z</time>
      </trkpt>
      <trkpt lat="49.39643" lon="5.72989">
        <ele>284.79998779297</ele>
        <time>2024-06-09T07:08:29Z</time>
      </trkpt>
      <trkpt lat="49.39645" lon="5.73001">
        <ele>284.60000610352</ele>
        <time>2024-06-09T07:08:30Z</time>
      </trkpt>
      <trkpt lat="49.3965" lon="5.73025">
        <ele>283.79998779297</ele>
        <time>2024-06-09T07:08:32Z</time>
      </trkpt>
      <trkpt lat="49.39652" lon="5.73037">
        <ele>283.60000610352</ele>
        <time>2024-06-09T07:08:33Z</time>
      </trkpt>
      <trkpt lat="49.39656" lon="5.73049">
        <ele>283.39999389648</ele>
        <time>2024-06-09T07:08:34Z</time>
      </trkpt>
      <trkpt lat="49.3966" lon="5.73059">
        <ele>283.20001220703</ele>
        <time>2024-06-09T07:08:35Z</time>
      </trkpt>
      <trkpt lat="49.39665" lon="5.73067">
        <ele>283</ele>
        <time>2024-06-09T07:08:36Z</time>
      </trkpt>
      <trkpt lat="49.39669" lon="5.73071">
        <ele>282.79998779297</ele>
        <time>2024-06-09T07:08:37Z</time>
      </trkpt>
      <trkpt lat="49.39672" lon="5.73074">
        <ele>282.79998779297</ele>
        <time>2024-06-09T07:08:38Z</time>
      </trkpt>
      <trkpt lat="49.39677" lon="5.73079">
        <ele>282.79998779297</ele>
        <time>2024-06-09T07:08:40Z</time>
      </trkpt>
      <trkpt lat="49.39679" lon="5.73082">
        <ele>282.79998779297</ele>
        <time>2024-06-09T07:08:41Z</time>
      </trkpt>
      <trkpt lat="49.39681" lon="5.73085">
        <ele>282.79998779297</ele>
        <time>2024-06-09T07:08:42Z</time>
      </trkpt>
      <trkpt lat="49.39687" lon="5.7309">
        <ele>282.79998779297</ele>
        <time>2024-06-09T07:08:44Z</time>
      </trkpt>
      <trkpt lat="49.39692" lon="5.73094">
        <ele>284</ele>
        <time>2024-06-09T07:08:46Z</time>
      </trkpt>
      <trkpt lat="49.39695" lon="5.73095">
        <ele>284.79998779297</ele>
        <time>2024-06-09T07:08:47Z</time>
      </trkpt>
      <trkpt lat="49.39698" lon="5.73096">
        <ele>285.79998779297</ele>
        <time>2024-06-09T07:08:48Z</time>
      </trkpt>
      <trkpt lat="49.39702" lon="5.73095">
        <ele>286.39999389648</ele>
        <time>2024-06-09T07:08:49Z</time>
      </trkpt>
      <trkpt lat="49.39705" lon="5.73097">
        <ele>286.79998779297</ele>
        <time>2024-06-09T07:08:50Z</time>
      </trkpt>
      <trkpt lat="49.39707" lon="5.73099">
        <ele>287.20001220703</ele>
        <time>2024-06-09T07:08:51Z</time>
      </trkpt>
      <trkpt lat="49.3971" lon="5.73104">
        <ele>287.39999389648</ele>
        <time>2024-06-09T07:08:52Z</time>
      </trkpt>
      <trkpt lat="49.39711" lon="5.73108">
        <ele>287.60000610352</ele>
        <time>2024-06-09T07:08:53Z</time>
      </trkpt>
      <trkpt lat="49.39712" lon="5.73113">
        <ele>287.60000610352</ele>
        <time>2024-06-09T07:08:54Z</time>
      </trkpt>
      <trkpt lat="49.3971" lon="5.73121">
        <ele>287.79998779297</ele>
        <time>2024-06-09T07:08:56Z</time>
      </trkpt>
      <trkpt lat="49.39709" lon="5.73126">
        <ele>288</ele>
        <time>2024-06-09T07:08:57Z</time>
      </trkpt>
      <trkpt lat="49.39709" lon="5.73131">
        <ele>288</ele>
        <time>2024-06-09T07:08:58Z</time>
      </trkpt>
      <trkpt lat="49.39708" lon="5.73144">
        <ele>288</ele>
        <time>2024-06-09T07:09:00Z</time>
      </trkpt>
      <trkpt lat="49.39708" lon="5.73151">
        <ele>288</ele>
        <time>2024-06-09T07:09:01Z</time>
      </trkpt>
      <trkpt lat="49.39707" lon="5.73158">
        <ele>288</ele>
        <time>2024-06-09T07:09:02Z</time>
      </trkpt>
      <trkpt lat="49.39708" lon="5.73165">
        <ele>288</ele>
        <time>2024-06-09T07:09:03Z</time>
      </trkpt>
      <trkpt lat="49.3971" lon="5.73173">
        <ele>288</ele>
        <time>2024-06-09T07:09:04Z</time>
      </trkpt>
      <trkpt lat="49.39712" lon="5.73181">
        <ele>287.79998779297</ele>
        <time>2024-06-09T07:09:05Z</time>
      </trkpt>
      <trkpt lat="49.39716" lon="5.73189">
        <ele>287.39999389648</ele>
        <time>2024-06-09T07:09:06Z</time>
      </trkpt>
      <trkpt lat="49.39725" lon="5.73204">
        <ele>286.20001220703</ele>
        <time>2024-06-09T07:09:08Z</time>
      </trkpt>
      <trkpt lat="49.39731" lon="5.73223">
        <ele>284.60000610352</ele>
        <time>2024-06-09T07:09:10Z</time>
      </trkpt>
      <trkpt lat="49.39733" lon="5.73234">
        <ele>284</ele>
        <time>2024-06-09T07:09:11Z</time>
      </trkpt>
      <trkpt lat="49.39735" lon="5.73246">
        <ele>283.20001220703</ele>
        <time>2024-06-09T07:09:12Z</time>
      </trkpt>
      <trkpt lat="49.39738" lon="5.73266">
        <ele>281.20001220703</ele>
        <time>2024-06-09T07:09:14Z</time>
      </trkpt>
      <trkpt lat="49.39739" lon="5.73275">
        <ele>280.60000610352</ele>
        <time>2024-06-09T07:09:15Z</time>
      </trkpt>
      <trkpt lat="49.39739" lon="5.73282">
        <ele>279.79998779297</ele>
        <time>2024-06-09T07:09:16Z</time>
      </trkpt>
      <trkpt lat="49.39742" lon="5.73299">
        <ele>278</ele>
        <time>2024-06-09T07:09:18Z</time>
      </trkpt>
      <trkpt lat="49.39744" lon="5.73307">
        <ele>277</ele>
        <time>2024-06-09T07:09:19Z</time>
      </trkpt>
      <trkpt lat="49.39747" lon="5.73315">
        <ele>275.79998779297</ele>
        <time>2024-06-09T07:09:20Z</time>
      </trkpt>
      <trkpt lat="49.39751" lon="5.73324">
        <ele>274.79998779297</ele>
        <time>2024-06-09T07:09:21Z</time>
      </trkpt>
      <trkpt lat="49.39754" lon="5.73332">
        <ele>274</ele>
        <time>2024-06-09T07:09:22Z</time>
      </trkpt>
      <trkpt lat="49.39757" lon="5.73338">
        <ele>273.20001220703</ele>
        <time>2024-06-09T07:09:23Z</time>
      </trkpt>
      <trkpt lat="49.39759" lon="5.73341">
        <ele>272.20001220703</ele>
        <time>2024-06-09T07:09:24Z</time>
      </trkpt>
      <trkpt lat="49.3976" lon="5.73345">
        <ele>270.79998779297</ele>
        <time>2024-06-09T07:09:25Z</time>
      </trkpt>
      <trkpt lat="49.3976" lon="5.73349">
        <ele>269.60000610352</ele>
        <time>2024-06-09T07:09:26Z</time>
      </trkpt>
      <trkpt lat="49.39759" lon="5.73352">
        <ele>268</ele>
        <time>2024-06-09T07:09:27Z</time>
      </trkpt>
      <trkpt lat="49.3976" lon="5.73356">
        <ele>266.79998779297</ele>
        <time>2024-06-09T07:09:28Z</time>
      </trkpt>
      <trkpt lat="49.3976" lon="5.73359">
        <ele>264.20001220703</ele>
        <time>2024-06-09T07:09:29Z</time>
      </trkpt>
      <trkpt lat="49.39759" lon="5.73363">
        <ele>262.79998779297</ele>
        <time>2024-06-09T07:09:30Z</time>
      </trkpt>
      <trkpt lat="49.39758" lon="5.73367">
        <ele>261.79998779297</ele>
        <time>2024-06-09T07:09:31Z</time>
      </trkpt>
      <trkpt lat="49.39758" lon="5.73369">
        <ele>261.39999389648</ele>
        <time>2024-06-09T07:09:32Z</time>
      </trkpt>
      <trkpt lat="49.39756" lon="5.73377">
        <ele>260.60000610352</ele>
        <time>2024-06-09T07:09:34Z</time>
      </trkpt>
      <trkpt lat="49.39754" lon="5.7338">
        <ele>260</ele>
        <time>2024-06-09T07:09:35Z</time>
      </trkpt>
      <trkpt lat="49.39752" lon="5.73382">
        <ele>259.39999389648</ele>
        <time>2024-06-09T07:09:36Z</time>
      </trkpt>
      <trkpt lat="49.3975" lon="5.73385">
        <ele>258.60000610352</ele>
        <time>2024-06-09T07:09:37Z</time>
      </trkpt>
      <trkpt lat="49.3975" lon="5.73387">
        <ele>257.79998779297</ele>
        <time>2024-06-09T07:09:38Z</time>
      </trkpt>
      <trkpt lat="49.3975" lon="5.73391">
        <ele>257.39999389648</ele>
        <time>2024-06-09T07:09:39Z</time>
      </trkpt>
      <trkpt lat="49.39752" lon="5.73395">
        <ele>257</ele>
        <time>2024-06-09T07:09:40Z</time>
      </trkpt>
      <trkpt lat="49.39756" lon="5.73404">
        <ele>256.20001220703</ele>
        <time>2024-06-09T07:09:42Z</time>
      </trkpt>
      <trkpt lat="49.39761" lon="5.73415">
        <ele>255.19999694824</ele>
        <time>2024-06-09T07:09:44Z</time>
      </trkpt>
      <trkpt lat="49.39765" lon="5.73422">
        <ele>255</ele>
        <time>2024-06-09T07:09:45Z</time>
      </trkpt>
      <trkpt lat="49.39767" lon="5.7343">
        <ele>254.60000610352</ele>
        <time>2024-06-09T07:09:46Z</time>
      </trkpt>
      <trkpt lat="49.39775" lon="5.73447">
        <ele>254</ele>
        <time>2024-06-09T07:09:48Z</time>
      </trkpt>
      <trkpt lat="49.39781" lon="5.73454">
        <ele>253.39999389648</ele>
        <time>2024-06-09T07:09:49Z</time>
      </trkpt>
      <trkpt lat="49.39788" lon="5.73458">
        <ele>253</ele>
        <time>2024-06-09T07:09:50Z</time>
      </trkpt>
      <trkpt lat="49.39794" lon="5.7346">
        <ele>252.60000610352</ele>
        <time>2024-06-09T07:09:51Z</time>
      </trkpt>
      <trkpt lat="49.398" lon="5.73459">
        <ele>252.19999694824</ele>
        <time>2024-06-09T07:09:52Z</time>
      </trkpt>
      <trkpt lat="49.39807" lon="5.73457">
        <ele>251.80000305176</ele>
        <time>2024-06-09T07:09:53Z</time>
      </trkpt>
      <trkpt lat="49.39814" lon="5.73453">
        <ele>251.19999694824</ele>
        <time>2024-06-09T07:09:54Z</time>
      </trkpt>
      <trkpt lat="49.39825" lon="5.73439">
        <ele>249.80000305176</ele>
        <time>2024-06-09T07:09:56Z</time>
      </trkpt>
      <trkpt lat="49.39831" lon="5.73418">
        <ele>248.80000305176</ele>
        <time>2024-06-09T07:09:58Z</time>
      </trkpt>
      <trkpt lat="49.39832" lon="5.73406">
        <ele>248.39999389648</ele>
        <time>2024-06-09T07:09:59Z</time>
      </trkpt>
      <trkpt lat="49.39833" lon="5.73394">
        <ele>247.80000305176</ele>
        <time>2024-06-09T07:10:00Z</time>
      </trkpt>
      <trkpt lat="49.39835" lon="5.73382">
        <ele>247.39999389648</ele>
        <time>2024-06-09T07:10:01Z</time>
      </trkpt>
      <trkpt lat="49.39835" lon="5.7337">
        <ele>247</ele>
        <time>2024-06-09T07:10:02Z</time>
      </trkpt>
      <trkpt lat="49.39837" lon="5.73346">
        <ele>246</ele>
        <time>2024-06-09T07:10:04Z</time>
      </trkpt>
      <trkpt lat="49.39838" lon="5.73335">
        <ele>245.39999389648</ele>
        <time>2024-06-09T07:10:05Z</time>
      </trkpt>
      <trkpt lat="49.39838" lon="5.73323">
        <ele>244.80000305176</ele>
        <time>2024-06-09T07:10:06Z</time>
      </trkpt>
      <trkpt lat="49.3984" lon="5.73303">
        <ele>243.60000610352</ele>
        <time>2024-06-09T07:10:08Z</time>
      </trkpt>
      <trkpt lat="49.39843" lon="5.73294">
        <ele>243.19999694824</ele>
        <time>2024-06-09T07:10:09Z</time>
      </trkpt>
      <trkpt lat="49.39847" lon="5.73285">
        <ele>242.80000305176</ele>
        <time>2024-06-09T07:10:10Z</time>
      </trkpt>
      <trkpt lat="49.39858" lon="5.73272">
        <ele>242.19999694824</ele>
        <time>2024-06-09T07:10:12Z</time>
      </trkpt>
      <trkpt lat="49.3987" lon="5.73261">
        <ele>241.60000610352</ele>
        <time>2024-06-09T07:10:14Z</time>
      </trkpt>
      <trkpt lat="49.39881" lon="5.73251">
        <ele>241.39999389648</ele>
        <time>2024-06-09T07:10:16Z</time>
      </trkpt>
      <trkpt lat="49.39887" lon="5.73246">
        <ele>241.39999389648</ele>
        <time>2024-06-09T07:10:17Z</time>
      </trkpt>
      <trkpt lat="49.39892" lon="5.73242">
        <ele>241.19999694824</ele>
        <time>2024-06-09T07:10:18Z</time>
      </trkpt>
      <trkpt lat="49.39901" lon="5.73235">
        <ele>241</ele>
        <time>2024-06-09T07:10:20Z</time>
      </trkpt>
      <trkpt lat="49.3991" lon="5.73227">
        <ele>241</ele>
        <time>2024-06-09T07:10:22Z</time>
      </trkpt>
      <trkpt lat="49.39918" lon="5.73216">
        <ele>241</ele>
        <time>2024-06-09T07:10:24Z</time>
      </trkpt>
      <trkpt lat="49.39925" lon="5.73201">
        <ele>241.19999694824</ele>
        <time>2024-06-09T07:10:26Z</time>
      </trkpt>
      <trkpt lat="49.39929" lon="5.73184">
        <ele>241.19999694824</ele>
        <time>2024-06-09T07:10:28Z</time>
      </trkpt>
      <trkpt lat="49.39932" lon="5.73166">
        <ele>241.39999389648</ele>
        <time>2024-06-09T07:10:30Z</time>
      </trkpt>
      <trkpt lat="49.39932" lon="5.73157">
        <ele>241.39999389648</ele>
        <time>2024-06-09T07:10:31Z</time>
      </trkpt>
      <trkpt lat="49.39933" lon="5.73149">
        <ele>241.39999389648</ele>
        <time>2024-06-09T07:10:32Z</time>
      </trkpt>
      <trkpt lat="49.39933" lon="5.73131">
        <ele>241.80000305176</ele>
        <time>2024-06-09T07:10:34Z</time>
      </trkpt>
      <trkpt lat="49.39934" lon="5.73114">
        <ele>242.39999389648</ele>
        <time>2024-06-09T07:10:36Z</time>
      </trkpt>
      <trkpt lat="49.39935" lon="5.73106">
        <ele>242.80000305176</ele>
        <time>2024-06-09T07:10:37Z</time>
      </trkpt>
      <trkpt lat="49.39935" lon="5.73098">
        <ele>243.19999694824</ele>
        <time>2024-06-09T07:10:38Z</time>
      </trkpt>
      <trkpt lat="49.39937" lon="5.73091">
        <ele>243.39999389648</ele>
        <time>2024-06-09T07:10:39Z</time>
      </trkpt>
      <trkpt lat="49.39938" lon="5.73084">
        <ele>243.39999389648</ele>
        <time>2024-06-09T07:10:40Z</time>
      </trkpt>
      <trkpt lat="49.39941" lon="5.73077">
        <ele>243.60000610352</ele>
        <time>2024-06-09T07:10:41Z</time>
      </trkpt>
      <trkpt lat="49.39944" lon="5.73073">
        <ele>243.60000610352</ele>
        <time>2024-06-09T07:10:42Z</time>
      </trkpt>
      <trkpt lat="49.39951" lon="5.7307">
        <ele>243.80000305176</ele>
        <time>2024-06-09T07:10:44Z</time>
      </trkpt>
      <trkpt lat="49.39958" lon="5.73073">
        <ele>244.19999694824</ele>
        <time>2024-06-09T07:10:46Z</time>
      </trkpt>
      <trkpt lat="49.39963" lon="5.73079">
        <ele>244.39999389648</ele>
        <time>2024-06-09T07:10:48Z</time>
      </trkpt>
      <trkpt lat="49.39965" lon="5.73083">
        <ele>244.60000610352</ele>
        <time>2024-06-09T07:10:49Z</time>
      </trkpt>
      <trkpt lat="49.39967" lon="5.73088">
        <ele>244.60000610352</ele>
        <time>2024-06-09T07:10:50Z</time>
      </trkpt>
      <trkpt lat="49.39968" lon="5.73092">
        <ele>244.80000305176</ele>
        <time>2024-06-09T07:10:51Z</time>
      </trkpt>
      <trkpt lat="49.39969" lon="5.73096">
        <ele>245.19999694824</ele>
        <time>2024-06-09T07:10:52Z</time>
      </trkpt>
      <trkpt lat="49.3997" lon="5.731">
        <ele>246.19999694824</ele>
        <time>2024-06-09T07:10:53Z</time>
      </trkpt>
      <trkpt lat="49.3997" lon="5.73104">
        <ele>246.80000305176</ele>
        <time>2024-06-09T07:10:54Z</time>
      </trkpt>
      <trkpt lat="49.39971" lon="5.73112">
        <ele>247.39999389648</ele>
        <time>2024-06-09T07:10:56Z</time>
      </trkpt>
      <trkpt lat="49.3997" lon="5.73122">
        <ele>248.19999694824</ele>
        <time>2024-06-09T07:10:58Z</time>
      </trkpt>
      <trkpt lat="49.39971" lon="5.73131">
        <ele>248.80000305176</ele>
        <time>2024-06-09T07:11:00Z</time>
      </trkpt>
      <trkpt lat="49.39971" lon="5.73141">
        <ele>249.19999694824</ele>
        <time>2024-06-09T07:11:02Z</time>
      </trkpt>
      <trkpt lat="49.39972" lon="5.7315">
        <ele>249.60000610352</ele>
        <time>2024-06-09T07:11:04Z</time>
      </trkpt>
      <trkpt lat="49.39973" lon="5.73155">
        <ele>249.80000305176</ele>
        <time>2024-06-09T07:11:05Z</time>
      </trkpt>
      <trkpt lat="49.39974" lon="5.7316">
        <ele>250</ele>
        <time>2024-06-09T07:11:06Z</time>
      </trkpt>
      <trkpt lat="49.39975" lon="5.7317">
        <ele>250.19999694824</ele>
        <time>2024-06-09T07:11:08Z</time>
      </trkpt>
      <trkpt lat="49.39977" lon="5.73181">
        <ele>250.60000610352</ele>
        <time>2024-06-09T07:11:10Z</time>
      </trkpt>
      <trkpt lat="49.39978" lon="5.73186">
        <ele>250.80000305176</ele>
        <time>2024-06-09T07:11:11Z</time>
      </trkpt>
      <trkpt lat="49.39978" lon="5.73191">
        <ele>251</ele>
        <time>2024-06-09T07:11:12Z</time>
      </trkpt>
      <trkpt lat="49.39981" lon="5.73201">
        <ele>251.39999389648</ele>
        <time>2024-06-09T07:11:14Z</time>
      </trkpt>
      <trkpt lat="49.39984" lon="5.7321">
        <ele>252</ele>
        <time>2024-06-09T07:11:16Z</time>
      </trkpt>
      <trkpt lat="49.39987" lon="5.73219">
        <ele>252.39999389648</ele>
        <time>2024-06-09T07:11:18Z</time>
      </trkpt>
      <trkpt lat="49.39988" lon="5.73224">
        <ele>252.39999389648</ele>
        <time>2024-06-09T07:11:19Z</time>
      </trkpt>
      <trkpt lat="49.3999" lon="5.73227">
        <ele>252.60000610352</ele>
        <time>2024-06-09T07:11:20Z</time>
      </trkpt>
      <trkpt lat="49.39993" lon="5.73237">
        <ele>253.19999694824</ele>
        <time>2024-06-09T07:11:22Z</time>
      </trkpt>
      <trkpt lat="49.39996" lon="5.73246">
        <ele>253.39999389648</ele>
        <time>2024-06-09T07:11:24Z</time>
      </trkpt>
      <trkpt lat="49.4" lon="5.73255">
        <ele>254</ele>
        <time>2024-06-09T07:11:26Z</time>
      </trkpt>
      <trkpt lat="49.40002" lon="5.73259">
        <ele>254.19999694824</ele>
        <time>2024-06-09T07:11:27Z</time>
      </trkpt>
      <trkpt lat="49.40004" lon="5.73262">
        <ele>254.39999389648</ele>
        <time>2024-06-09T07:11:28Z</time>
      </trkpt>
      <trkpt lat="49.40007" lon="5.7327">
        <ele>255</ele>
        <time>2024-06-09T07:11:30Z</time>
      </trkpt>
      <trkpt lat="49.40009" lon="5.73275">
        <ele>255.39999389648</ele>
        <time>2024-06-09T07:11:31Z</time>
      </trkpt>
      <trkpt lat="49.40011" lon="5.73279">
        <ele>255.60000610352</ele>
        <time>2024-06-09T07:11:32Z</time>
      </trkpt>
      <trkpt lat="49.40013" lon="5.73283">
        <ele>256</ele>
        <time>2024-06-09T07:11:33Z</time>
      </trkpt>
      <trkpt lat="49.40015" lon="5.73287">
        <ele>256.20001220703</ele>
        <time>2024-06-09T07:11:34Z</time>
      </trkpt>
      <trkpt lat="49.40017" lon="5.73291">
        <ele>256.60000610352</ele>
        <time>2024-06-09T07:11:35Z</time>
      </trkpt>
      <trkpt lat="49.40019" lon="5.73295">
        <ele>256.79998779297</ele>
        <time>2024-06-09T07:11:36Z</time>
      </trkpt>
      <trkpt lat="49.40022" lon="5.73303">
        <ele>257.39999389648</ele>
        <time>2024-06-09T07:11:38Z</time>
      </trkpt>
      <trkpt lat="49.40023" lon="5.73307">
        <ele>257.60000610352</ele>
        <time>2024-06-09T07:11:39Z</time>
      </trkpt>
      <trkpt lat="49.40025" lon="5.73311">
        <ele>257.79998779297</ele>
        <time>2024-06-09T07:11:40Z</time>
      </trkpt>
      <trkpt lat="49.40027" lon="5.73315">
        <ele>258</ele>
        <time>2024-06-09T07:11:41Z</time>
      </trkpt>
      <trkpt lat="49.40028" lon="5.73319">
        <ele>258.20001220703</ele>
        <time>2024-06-09T07:11:42Z</time>
      </trkpt>
      <trkpt lat="49.40033" lon="5.73327">
        <ele>258.60000610352</ele>
        <time>2024-06-09T07:11:44Z</time>
      </trkpt>
      <trkpt lat="49.40037" lon="5.73334">
        <ele>259</ele>
        <time>2024-06-09T07:11:46Z</time>
      </trkpt>
      <trkpt lat="49.40042" lon="5.73344">
        <ele>259.39999389648</ele>
        <time>2024-06-09T07:11:48Z</time>
      </trkpt>
      <trkpt lat="49.40045" lon="5.73348">
        <ele>259.79998779297</ele>
        <time>2024-06-09T07:11:49Z</time>
      </trkpt>
      <trkpt lat="49.40047" lon="5.73352">
        <ele>260</ele>
        <time>2024-06-09T07:11:50Z</time>
      </trkpt>
      <trkpt lat="49.40052" lon="5.73359">
        <ele>260.39999389648</ele>
        <time>2024-06-09T07:11:52Z</time>
      </trkpt>
      <trkpt lat="49.40057" lon="5.73367">
        <ele>260.79998779297</ele>
        <time>2024-06-09T07:11:54Z</time>
      </trkpt>
      <trkpt lat="49.40062" lon="5.73373">
        <ele>261.20001220703</ele>
        <time>2024-06-09T07:11:56Z</time>
      </trkpt>
      <trkpt lat="49.40064" lon="5.73376">
        <ele>261.39999389648</ele>
        <time>2024-06-09T07:11:57Z</time>
      </trkpt>
      <trkpt lat="49.40066" lon="5.73379">
        <ele>261.60000610352</ele>
        <time>2024-06-09T07:11:58Z</time>
      </trkpt>
      <trkpt lat="49.40071" lon="5.73384">
        <ele>262</ele>
        <time>2024-06-09T07:12:00Z</time>
      </trkpt>
      <trkpt lat="49.40076" lon="5.73389">
        <ele>262.39999389648</ele>
        <time>2024-06-09T07:12:02Z</time>
      </trkpt>
      <trkpt lat="49.40081" lon="5.73394">
        <ele>262.60000610352</ele>
        <time>2024-06-09T07:12:04Z</time>
      </trkpt>
      <trkpt lat="49.40084" lon="5.73396">
        <ele>262.79998779297</ele>
        <time>2024-06-09T07:12:05Z</time>
      </trkpt>
      <trkpt lat="49.40087" lon="5.73398">
        <ele>262.79998779297</ele>
        <time>2024-06-09T07:12:06Z</time>
      </trkpt>
      <trkpt lat="49.40093" lon="5.73402">
        <ele>263</ele>
        <time>2024-06-09T07:12:08Z</time>
      </trkpt>
      <trkpt lat="49.40098" lon="5.73405">
        <ele>263.20001220703</ele>
        <time>2024-06-09T07:12:10Z</time>
      </trkpt>
      <trkpt lat="49.40104" lon="5.73407">
        <ele>263.79998779297</ele>
        <time>2024-06-09T07:12:12Z</time>
      </trkpt>
      <trkpt lat="49.40109" lon="5.7341">
        <ele>264</ele>
        <time>2024-06-09T07:12:14Z</time>
      </trkpt>
      <trkpt lat="49.40112" lon="5.73411">
        <ele>264.20001220703</ele>
        <time>2024-06-09T07:12:15Z</time>
      </trkpt>
      <trkpt lat="49.40114" lon="5.73411">
        <ele>264.20001220703</ele>
        <time>2024-06-09T07:12:16Z</time>
      </trkpt>
      <trkpt lat="49.4012" lon="5.73413">
        <ele>265</ele>
        <time>2024-06-09T07:12:18Z</time>
      </trkpt>
      <trkpt lat="49.40122" lon="5.73414">
        <ele>265.20001220703</ele>
        <time>2024-06-09T07:12:19Z</time>
      </trkpt>
      <trkpt lat="49.40125" lon="5.73415">
        <ele>265.39999389648</ele>
        <time>2024-06-09T07:12:20Z</time>
      </trkpt>
      <trkpt lat="49.4013" lon="5.73416">
        <ele>266.20001220703</ele>
        <time>2024-06-09T07:12:22Z</time>
      </trkpt>
      <trkpt lat="49.40133" lon="5.73417">
        <ele>266.39999389648</ele>
        <time>2024-06-09T07:12:23Z</time>
      </trkpt>
      <trkpt lat="49.40136" lon="5.73417">
        <ele>266.60000610352</ele>
        <time>2024-06-09T07:12:24Z</time>
      </trkpt>
      <trkpt lat="49.40141" lon="5.73419">
        <ele>266.79998779297</ele>
        <time>2024-06-09T07:12:26Z</time>
      </trkpt>
      <trkpt lat="49.40147" lon="5.73419">
        <ele>266.79998779297</ele>
        <time>2024-06-09T07:12:28Z</time>
      </trkpt>
      <trkpt lat="49.40153" lon="5.7342">
        <ele>267.20001220703</ele>
        <time>2024-06-09T07:12:30Z</time>
      </trkpt>
      <trkpt lat="49.40156" lon="5.73421">
        <ele>267.39999389648</ele>
        <time>2024-06-09T07:12:31Z</time>
      </trkpt>
      <trkpt lat="49.40159" lon="5.73422">
        <ele>267.60000610352</ele>
        <time>2024-06-09T07:12:32Z</time>
      </trkpt>
      <trkpt lat="49.40165" lon="5.73423">
        <ele>268</ele>
        <time>2024-06-09T07:12:34Z</time>
      </trkpt>
      <trkpt lat="49.4017" lon="5.73424">
        <ele>268.39999389648</ele>
        <time>2024-06-09T07:12:36Z</time>
      </trkpt>
      <trkpt lat="49.40173" lon="5.73424">
        <ele>268.60000610352</ele>
        <time>2024-06-09T07:12:37Z</time>
      </trkpt>
      <trkpt lat="49.40176" lon="5.73425">
        <ele>268.79998779297</ele>
        <time>2024-06-09T07:12:38Z</time>
      </trkpt>
      <trkpt lat="49.40182" lon="5.73426">
        <ele>269.20001220703</ele>
        <time>2024-06-09T07:12:40Z</time>
      </trkpt>
      <trkpt lat="49.40185" lon="5.73426">
        <ele>269.39999389648</ele>
        <time>2024-06-09T07:12:41Z</time>
      </trkpt>
      <trkpt lat="49.40188" lon="5.73427">
        <ele>269.60000610352</ele>
        <time>2024-06-09T07:12:42Z</time>
      </trkpt>
      <trkpt lat="49.40193" lon="5.73428">
        <ele>270</ele>
        <time>2024-06-09T07:12:44Z</time>
      </trkpt>
      <trkpt lat="49.40199" lon="5.73429">
        <ele>270.39999389648</ele>
        <time>2024-06-09T07:12:46Z</time>
      </trkpt>
      <trkpt lat="49.40202" lon="5.73429">
        <ele>270.79998779297</ele>
        <time>2024-06-09T07:12:47Z</time>
      </trkpt>
      <trkpt lat="49.40205" lon="5.7343">
        <ele>271</ele>
        <time>2024-06-09T07:12:48Z</time>
      </trkpt>
      <trkpt lat="49.40208" lon="5.73431">
        <ele>271</ele>
        <time>2024-06-09T07:12:49Z</time>
      </trkpt>
      <trkpt lat="49.4021" lon="5.73431">
        <ele>271.20001220703</ele>
        <time>2024-06-09T07:12:50Z</time>
      </trkpt>
      <trkpt lat="49.40216" lon="5.73432">
        <ele>271.39999389648</ele>
        <time>2024-06-09T07:12:52Z</time>
      </trkpt>
      <trkpt lat="49.40221" lon="5.73433">
        <ele>271.79998779297</ele>
        <time>2024-06-09T07:12:54Z</time>
      </trkpt>
      <trkpt lat="49.40226" lon="5.73434">
        <ele>272.20001220703</ele>
        <time>2024-06-09T07:12:56Z</time>
      </trkpt>
      <trkpt lat="49.40229" lon="5.73435">
        <ele>272.39999389648</ele>
        <time>2024-06-09T07:12:57Z</time>
      </trkpt>
      <trkpt lat="49.40232" lon="5.73436">
        <ele>272.39999389648</ele>
        <time>2024-06-09T07:12:58Z</time>
      </trkpt>
      <trkpt lat="49.40237" lon="5.73437">
        <ele>273</ele>
        <time>2024-06-09T07:13:00Z</time>
      </trkpt>
      <trkpt lat="49.40242" lon="5.73437">
        <ele>273.20001220703</ele>
        <time>2024-06-09T07:13:02Z</time>
      </trkpt>
      <trkpt lat="49.40248" lon="5.73439">
        <ele>273.39999389648</ele>
        <time>2024-06-09T07:13:04Z</time>
      </trkpt>
      <trkpt lat="49.40253" lon="5.73442">
        <ele>273.79998779297</ele>
        <time>2024-06-09T07:13:06Z</time>
      </trkpt>
      <trkpt lat="49.40256" lon="5.73443">
        <ele>274</ele>
        <time>2024-06-09T07:13:07Z</time>
      </trkpt>
      <trkpt lat="49.40259" lon="5.73445">
        <ele>274.39999389648</ele>
        <time>2024-06-09T07:13:08Z</time>
      </trkpt>
      <trkpt lat="49.40265" lon="5.73447">
        <ele>274.39999389648</ele>
        <time>2024-06-09T07:13:10Z</time>
      </trkpt>
      <trkpt lat="49.40271" lon="5.7345">
        <ele>275</ele>
        <time>2024-06-09T07:13:12Z</time>
      </trkpt>
      <trkpt lat="49.40276" lon="5.73452">
        <ele>275.39999389648</ele>
        <time>2024-06-09T07:13:14Z</time>
      </trkpt>
      <trkpt lat="49.40279" lon="5.73454">
        <ele>275.60000610352</ele>
        <time>2024-06-09T07:13:15Z</time>
      </trkpt>
      <trkpt lat="49.40282" lon="5.73455">
        <ele>275.60000610352</ele>
        <time>2024-06-09T07:13:16Z</time>
      </trkpt>
      <trkpt lat="49.40287" lon="5.73458">
        <ele>276.20001220703</ele>
        <time>2024-06-09T07:13:18Z</time>
      </trkpt>
      <trkpt lat="49.4029" lon="5.7346">
        <ele>276.39999389648</ele>
        <time>2024-06-09T07:13:19Z</time>
      </trkpt>
      <trkpt lat="49.40293" lon="5.73462">
        <ele>276.60000610352</ele>
        <time>2024-06-09T07:13:20Z</time>
      </trkpt>
      <trkpt lat="49.40299" lon="5.73465">
        <ele>277.20001220703</ele>
        <time>2024-06-09T07:13:22Z</time>
      </trkpt>
      <trkpt lat="49.40304" lon="5.73468">
        <ele>277.39999389648</ele>
        <time>2024-06-09T07:13:24Z</time>
      </trkpt>
      <trkpt lat="49.4031" lon="5.73471">
        <ele>277.60000610352</ele>
        <time>2024-06-09T07:13:26Z</time>
      </trkpt>
      <trkpt lat="49.40315" lon="5.73475">
        <ele>278</ele>
        <time>2024-06-09T07:13:28Z</time>
      </trkpt>
      <trkpt lat="49.4032" lon="5.73479">
        <ele>278.39999389648</ele>
        <time>2024-06-09T07:13:30Z</time>
      </trkpt>
      <trkpt lat="49.40323" lon="5.73481">
        <ele>278.39999389648</ele>
        <time>2024-06-09T07:13:31Z</time>
      </trkpt>
      <trkpt lat="49.40326" lon="5.73483">
        <ele>278.60000610352</ele>
        <time>2024-06-09T07:13:32Z</time>
      </trkpt>
      <trkpt lat="49.40331" lon="5.73487">
        <ele>279.20001220703</ele>
        <time>2024-06-09T07:13:34Z</time>
      </trkpt>
      <trkpt lat="49.40337" lon="5.7349">
        <ele>279.60000610352</ele>
        <time>2024-06-09T07:13:36Z</time>
      </trkpt>
      <trkpt lat="49.40342" lon="5.73494">
        <ele>280</ele>
        <time>2024-06-09T07:13:38Z</time>
      </trkpt>
      <trkpt lat="49.40348" lon="5.73498">
        <ele>280.60000610352</ele>
        <time>2024-06-09T07:13:40Z</time>
      </trkpt>
      <trkpt lat="49.4035" lon="5.735">
        <ele>280.79998779297</ele>
        <time>2024-06-09T07:13:41Z</time>
      </trkpt>
      <trkpt lat="49.40353" lon="5.73502">
        <ele>281</ele>
        <time>2024-06-09T07:13:42Z</time>
      </trkpt>
      <trkpt lat="49.40358" lon="5.73506">
        <ele>281.39999389648</ele>
        <time>2024-06-09T07:13:44Z</time>
      </trkpt>
      <trkpt lat="49.40364" lon="5.7351">
        <ele>281.79998779297</ele>
        <time>2024-06-09T07:13:46Z</time>
      </trkpt>
      <trkpt lat="49.40366" lon="5.73512">
        <ele>281.79998779297</ele>
        <time>2024-06-09T07:13:47Z</time>
      </trkpt>
      <trkpt lat="49.40369" lon="5.73514">
        <ele>282</ele>
        <time>2024-06-09T07:13:48Z</time>
      </trkpt>
      <trkpt lat="49.40374" lon="5.73517">
        <ele>282.20001220703</ele>
        <time>2024-06-09T07:13:50Z</time>
      </trkpt>
      <trkpt lat="49.40376" lon="5.73519">
        <ele>282.39999389648</ele>
        <time>2024-06-09T07:13:51Z</time>
      </trkpt>
      <trkpt lat="49.40379" lon="5.73521">
        <ele>282.60000610352</ele>
        <time>2024-06-09T07:13:52Z</time>
      </trkpt>
      <trkpt lat="49.40385" lon="5.73523">
        <ele>283</ele>
        <time>2024-06-09T07:13:54Z</time>
      </trkpt>
      <trkpt lat="49.4039" lon="5.73526">
        <ele>283.20001220703</ele>
        <time>2024-06-09T07:13:56Z</time>
      </trkpt>
      <trkpt lat="49.40396" lon="5.73528">
        <ele>283.60000610352</ele>
        <time>2024-06-09T07:13:58Z</time>
      </trkpt>
      <trkpt lat="49.40402" lon="5.73531">
        <ele>283.79998779297</ele>
        <time>2024-06-09T07:14:00Z</time>
      </trkpt>
      <trkpt lat="49.40404" lon="5.73532">
        <ele>284</ele>
        <time>2024-06-09T07:14:01Z</time>
      </trkpt>
      <trkpt lat="49.40407" lon="5.73533">
        <ele>284</ele>
        <time>2024-06-09T07:14:02Z</time>
      </trkpt>
      <trkpt lat="49.40412" lon="5.73535">
        <ele>284.39999389648</ele>
        <time>2024-06-09T07:14:04Z</time>
      </trkpt>
      <trkpt lat="49.40418" lon="5.73537">
        <ele>284.60000610352</ele>
        <time>2024-06-09T07:14:06Z</time>
      </trkpt>
      <trkpt lat="49.40423" lon="5.73539">
        <ele>285.20001220703</ele>
        <time>2024-06-09T07:14:08Z</time>
      </trkpt>
      <trkpt lat="49.40427" lon="5.73541">
        <ele>285.79998779297</ele>
        <time>2024-06-09T07:14:10Z</time>
      </trkpt>
      <trkpt lat="49.40432" lon="5.73543">
        <ele>286.20001220703</ele>
        <time>2024-06-09T07:14:12Z</time>
      </trkpt>
      <trkpt lat="49.40436" lon="5.73544">
        <ele>286.60000610352</ele>
        <time>2024-06-09T07:14:14Z</time>
      </trkpt>
      <trkpt lat="49.4044" lon="5.73544">
        <ele>287</ele>
        <time>2024-06-09T07:14:16Z</time>
      </trkpt>
      <trkpt lat="49.40441" lon="5.73542">
        <ele>287.20001220703</ele>
        <time>2024-06-09T07:14:17Z</time>
      </trkpt>
      <trkpt lat="49.40441" lon="5.7354">
        <ele>287.39999389648</ele>
        <time>2024-06-09T07:14:18Z</time>
      </trkpt>
      <trkpt lat="49.40439" lon="5.73534">
        <ele>287.79998779297</ele>
        <time>2024-06-09T07:14:20Z</time>
      </trkpt>
      <trkpt lat="49.40437" lon="5.73531">
        <ele>288</ele>
        <time>2024-06-09T07:14:21Z</time>
      </trkpt>
      <trkpt lat="49.40435" lon="5.73528">
        <ele>288.20001220703</ele>
        <time>2024-06-09T07:14:22Z</time>
      </trkpt>
      <trkpt lat="49.40431" lon="5.73522">
        <ele>288.60000610352</ele>
        <time>2024-06-09T07:14:24Z</time>
      </trkpt>
      <trkpt lat="49.40427" lon="5.73516">
        <ele>289.39999389648</ele>
        <time>2024-06-09T07:14:26Z</time>
      </trkpt>
      <trkpt lat="49.40423" lon="5.73509">
        <ele>289.79998779297</ele>
        <time>2024-06-09T07:14:28Z</time>
      </trkpt>
      <trkpt lat="49.40421" lon="5.73506">
        <ele>289.79998779297</ele>
        <time>2024-06-09T07:14:29Z</time>
      </trkpt>
      <trkpt lat="49.4042" lon="5.73502">
        <ele>289.79998779297</ele>
        <time>2024-06-09T07:14:30Z</time>
      </trkpt>
      <trkpt lat="49.40421" lon="5.73493">
        <ele>290</ele>
        <time>2024-06-09T07:14:32Z</time>
      </trkpt>
      <trkpt lat="49.40422" lon="5.73489">
        <ele>290</ele>
        <time>2024-06-09T07:14:33Z</time>
      </trkpt>
      <trkpt lat="49.40424" lon="5.73486">
        <ele>290</ele>
        <time>2024-06-09T07:14:34Z</time>
      </trkpt>
      <trkpt lat="49.40428" lon="5.7348">
        <ele>290.20001220703</ele>
        <time>2024-06-09T07:14:36Z</time>
      </trkpt>
      <trkpt lat="49.40431" lon="5.73476">
        <ele>290.20001220703</ele>
        <time>2024-06-09T07:14:38Z</time>
      </trkpt>
      <trkpt lat="49.40433" lon="5.73474">
        <ele>290.39999389648</ele>
        <time>2024-06-09T07:14:39Z</time>
      </trkpt>
      <trkpt lat="49.40435" lon="5.73473">
        <ele>291</ele>
        <time>2024-06-09T07:14:40Z</time>
      </trkpt>
      <trkpt lat="49.40436" lon="5.73471">
        <ele>291.39999389648</ele>
        <time>2024-06-09T07:14:41Z</time>
      </trkpt>
      <trkpt lat="49.40438" lon="5.73469">
        <ele>291.79998779297</ele>
        <time>2024-06-09T07:14:42Z</time>
      </trkpt>
      <trkpt lat="49.4044" lon="5.73466">
        <ele>292</ele>
        <time>2024-06-09T07:14:43Z</time>
      </trkpt>
      <trkpt lat="49.40441" lon="5.73464">
        <ele>292.39999389648</ele>
        <time>2024-06-09T07:14:44Z</time>
      </trkpt>
      <trkpt lat="49.40443" lon="5.73462">
        <ele>292.60000610352</ele>
        <time>2024-06-09T07:14:45Z</time>
      </trkpt>
      <trkpt lat="49.40445" lon="5.7346">
        <ele>293</ele>
        <time>2024-06-09T07:14:46Z</time>
      </trkpt>
      <trkpt lat="49.40448" lon="5.73455">
        <ele>293.60000610352</ele>
        <time>2024-06-09T07:14:48Z</time>
      </trkpt>
      <trkpt lat="49.40451" lon="5.73451">
        <ele>294.20001220703</ele>
        <time>2024-06-09T07:14:50Z</time>
      </trkpt>
      <trkpt lat="49.40455" lon="5.73447">
        <ele>294.60000610352</ele>
        <time>2024-06-09T07:14:52Z</time>
      </trkpt>
      <trkpt lat="49.40456" lon="5.73445">
        <ele>294.79998779297</ele>
        <time>2024-06-09T07:14:53Z</time>
      </trkpt>
      <trkpt lat="49.40458" lon="5.73443">
        <ele>294.79998779297</ele>
        <time>2024-06-09T07:14:54Z</time>
      </trkpt>
      <trkpt lat="49.40463" lon="5.73439">
        <ele>295.20001220703</ele>
        <time>2024-06-09T07:14:56Z</time>
      </trkpt>
      <trkpt lat="49.40468" lon="5.73434">
        <ele>295.60000610352</ele>
        <time>2024-06-09T07:14:58Z</time>
      </trkpt>
      <trkpt lat="49.4047" lon="5.73432">
        <ele>295.79998779297</ele>
        <time>2024-06-09T07:14:59Z</time>
      </trkpt>
      <trkpt lat="49.40472" lon="5.73429">
        <ele>296</ele>
        <time>2024-06-09T07:15:00Z</time>
      </trkpt>
      <trkpt lat="49.40477" lon="5.73425">
        <ele>296.39999389648</ele>
        <time>2024-06-09T07:15:02Z</time>
      </trkpt>
      <trkpt lat="49.40482" lon="5.7342">
        <ele>296.79998779297</ele>
        <time>2024-06-09T07:15:04Z</time>
      </trkpt>
      <trkpt lat="49.40484" lon="5.73418">
        <ele>296.79998779297</ele>
        <time>2024-06-09T07:15:05Z</time>
      </trkpt>
      <trkpt lat="49.40487" lon="5.73416">
        <ele>296.79998779297</ele>
        <time>2024-06-09T07:15:06Z</time>
      </trkpt>
      <trkpt lat="49.40492" lon="5.73411">
        <ele>296.79998779297</ele>
        <time>2024-06-09T07:15:08Z</time>
      </trkpt>
      <trkpt lat="49.40497" lon="5.73407">
        <ele>297</ele>
        <time>2024-06-09T07:15:10Z</time>
      </trkpt>
      <trkpt lat="49.40503" lon="5.73402">
        <ele>297.20001220703</ele>
        <time>2024-06-09T07:15:12Z</time>
      </trkpt>
      <trkpt lat="49.40506" lon="5.734">
        <ele>297.20001220703</ele>
        <time>2024-06-09T07:15:13Z</time>
      </trkpt>
      <trkpt lat="49.40509" lon="5.73398">
        <ele>297.20001220703</ele>
        <time>2024-06-09T07:15:14Z</time>
      </trkpt>
      <trkpt lat="49.40514" lon="5.73392">
        <ele>297.39999389648</ele>
        <time>2024-06-09T07:15:16Z</time>
      </trkpt>
      <trkpt lat="49.4052" lon="5.73386">
        <ele>297.39999389648</ele>
        <time>2024-06-09T07:15:18Z</time>
      </trkpt>
      <trkpt lat="49.40524" lon="5.73383">
        <ele>297.60000610352</ele>
        <time>2024-06-09T07:15:19Z</time>
      </trkpt>
      <trkpt lat="49.40527" lon="5.73379">
        <ele>297.60000610352</ele>
        <time>2024-06-09T07:15:20Z</time>
      </trkpt>
      <trkpt lat="49.40533" lon="5.73373">
        <ele>297.60000610352</ele>
        <time>2024-06-09T07:15:22Z</time>
      </trkpt>
      <trkpt lat="49.4054" lon="5.73365">
        <ele>297.60000610352</ele>
        <time>2024-06-09T07:15:24Z</time>
      </trkpt>
      <trkpt lat="49.40546" lon="5.73358">
        <ele>297.79998779297</ele>
        <time>2024-06-09T07:15:26Z</time>
      </trkpt>
      <trkpt lat="49.40549" lon="5.73354">
        <ele>297.79998779297</ele>
        <time>2024-06-09T07:15:27Z</time>
      </trkpt>
      <trkpt lat="49.40552" lon="5.7335">
        <ele>298</ele>
        <time>2024-06-09T07:15:28Z</time>
      </trkpt>
      <trkpt lat="49.40555" lon="5.73346">
        <ele>298</ele>
        <time>2024-06-09T07:15:29Z</time>
      </trkpt>
      <trkpt lat="49.40559" lon="5.73343">
        <ele>298.20001220703</ele>
        <time>2024-06-09T07:15:30Z</time>
      </trkpt>
      <trkpt lat="49.40565" lon="5.73335">
        <ele>298.20001220703</ele>
        <time>2024-06-09T07:15:32Z</time>
      </trkpt>
      <trkpt lat="49.40571" lon="5.73326">
        <ele>298.20001220703</ele>
        <time>2024-06-09T07:15:34Z</time>
      </trkpt>
      <trkpt lat="49.40576" lon="5.73317">
        <ele>298.20001220703</ele>
        <time>2024-06-09T07:15:36Z</time>
      </trkpt>
      <trkpt lat="49.40581" lon="5.73309">
        <ele>298.39999389648</ele>
        <time>2024-06-09T07:15:38Z</time>
      </trkpt>
      <trkpt lat="49.40587" lon="5.733">
        <ele>298.39999389648</ele>
        <time>2024-06-09T07:15:40Z</time>
      </trkpt>
      <trkpt lat="49.40591" lon="5.73291">
        <ele>298.60000610352</ele>
        <time>2024-06-09T07:15:42Z</time>
      </trkpt>
      <trkpt lat="49.40595" lon="5.73281">
        <ele>298.79998779297</ele>
        <time>2024-06-09T07:15:44Z</time>
      </trkpt>
      <trkpt lat="49.40599" lon="5.73269">
        <ele>298.79998779297</ele>
        <time>2024-06-09T07:15:46Z</time>
      </trkpt>
      <trkpt lat="49.40604" lon="5.73255">
        <ele>298.79998779297</ele>
        <time>2024-06-09T07:15:48Z</time>
      </trkpt>
      <trkpt lat="49.40607" lon="5.73239">
        <ele>298.79998779297</ele>
        <time>2024-06-09T07:15:50Z</time>
      </trkpt>
      <trkpt lat="49.40611" lon="5.73221">
        <ele>298.79998779297</ele>
        <time>2024-06-09T07:15:52Z</time>
      </trkpt>
      <trkpt lat="49.40614" lon="5.73201">
        <ele>298.60000610352</ele>
        <time>2024-06-09T07:15:54Z</time>
      </trkpt>
      <trkpt lat="49.40616" lon="5.7318">
        <ele>298.20001220703</ele>
        <time>2024-06-09T07:15:56Z</time>
      </trkpt>
      <trkpt lat="49.40618" lon="5.73158">
        <ele>297.60000610352</ele>
        <time>2024-06-09T07:15:58Z</time>
      </trkpt>
      <trkpt lat="49.4062" lon="5.73134">
        <ele>297</ele>
        <time>2024-06-09T07:16:00Z</time>
      </trkpt>
      <trkpt lat="49.40621" lon="5.73122">
        <ele>296.60000610352</ele>
        <time>2024-06-09T07:16:01Z</time>
      </trkpt>
      <trkpt lat="49.40623" lon="5.7311">
        <ele>296.20001220703</ele>
        <time>2024-06-09T07:16:02Z</time>
      </trkpt>
      <trkpt lat="49.40625" lon="5.73098">
        <ele>295.60000610352</ele>
        <time>2024-06-09T07:16:03Z</time>
      </trkpt>
      <trkpt lat="49.40628" lon="5.73086">
        <ele>294.79998779297</ele>
        <time>2024-06-09T07:16:04Z</time>
      </trkpt>
      <trkpt lat="49.40631" lon="5.73075">
        <ele>294.39999389648</ele>
        <time>2024-06-09T07:16:05Z</time>
      </trkpt>
      <trkpt lat="49.40633" lon="5.73064">
        <ele>293.39999389648</ele>
        <time>2024-06-09T07:16:06Z</time>
      </trkpt>
      <trkpt lat="49.40638" lon="5.73043">
        <ele>292.20001220703</ele>
        <time>2024-06-09T07:16:08Z</time>
      </trkpt>
      <trkpt lat="49.40639" lon="5.73021">
        <ele>290.79998779297</ele>
        <time>2024-06-09T07:16:10Z</time>
      </trkpt>
      <trkpt lat="49.40639" lon="5.73">
        <ele>290</ele>
        <time>2024-06-09T07:16:12Z</time>
      </trkpt>
      <trkpt lat="49.40638" lon="5.72978">
        <ele>289.60000610352</ele>
        <time>2024-06-09T07:16:14Z</time>
      </trkpt>
      <trkpt lat="49.40637" lon="5.72956">
        <ele>289.39999389648</ele>
        <time>2024-06-09T07:16:16Z</time>
      </trkpt>
      <trkpt lat="49.40635" lon="5.72934">
        <ele>289.39999389648</ele>
        <time>2024-06-09T07:16:18Z</time>
      </trkpt>
      <trkpt lat="49.40635" lon="5.72911">
        <ele>289.20001220703</ele>
        <time>2024-06-09T07:16:20Z</time>
      </trkpt>
      <trkpt lat="49.40634" lon="5.72888">
        <ele>289</ele>
        <time>2024-06-09T07:16:22Z</time>
      </trkpt>
      <trkpt lat="49.40634" lon="5.72864">
        <ele>289</ele>
        <time>2024-06-09T07:16:24Z</time>
      </trkpt>
      <trkpt lat="49.40635" lon="5.72841">
        <ele>289</ele>
        <time>2024-06-09T07:16:26Z</time>
      </trkpt>
      <trkpt lat="49.40637" lon="5.72818">
        <ele>289</ele>
        <time>2024-06-09T07:16:28Z</time>
      </trkpt>
      <trkpt lat="49.40639" lon="5.72796">
        <ele>288.60000610352</ele>
        <time>2024-06-09T07:16:30Z</time>
      </trkpt>
      <trkpt lat="49.4064" lon="5.72774">
        <ele>288.39999389648</ele>
        <time>2024-06-09T07:16:32Z</time>
      </trkpt>
      <trkpt lat="49.4064" lon="5.72763">
        <ele>288.20001220703</ele>
        <time>2024-06-09T07:16:33Z</time>
      </trkpt>
      <trkpt lat="49.4064" lon="5.72752">
        <ele>288</ele>
        <time>2024-06-09T07:16:34Z</time>
      </trkpt>
      <trkpt lat="49.40641" lon="5.7273">
        <ele>288.20001220703</ele>
        <time>2024-06-09T07:16:36Z</time>
      </trkpt>
      <trkpt lat="49.40641" lon="5.72708">
        <ele>288</ele>
        <time>2024-06-09T07:16:38Z</time>
      </trkpt>
      <trkpt lat="49.40642" lon="5.72685">
        <ele>287.79998779297</ele>
        <time>2024-06-09T07:16:40Z</time>
      </trkpt>
      <trkpt lat="49.40642" lon="5.72662">
        <ele>287.60000610352</ele>
        <time>2024-06-09T07:16:42Z</time>
      </trkpt>
      <trkpt lat="49.40642" lon="5.7264">
        <ele>287.79998779297</ele>
        <time>2024-06-09T07:16:44Z</time>
      </trkpt>
      <trkpt lat="49.40642" lon="5.72617">
        <ele>287.60000610352</ele>
        <time>2024-06-09T07:16:46Z</time>
      </trkpt>
      <trkpt lat="49.40642" lon="5.72596">
        <ele>287.20001220703</ele>
        <time>2024-06-09T07:16:48Z</time>
      </trkpt>
      <trkpt lat="49.40644" lon="5.72585">
        <ele>287.20001220703</ele>
        <time>2024-06-09T07:16:49Z</time>
      </trkpt>
      <trkpt lat="49.40647" lon="5.72576">
        <ele>287</ele>
        <time>2024-06-09T07:16:50Z</time>
      </trkpt>
      <trkpt lat="49.4065" lon="5.72567">
        <ele>286.60000610352</ele>
        <time>2024-06-09T07:16:51Z</time>
      </trkpt>
      <trkpt lat="49.40653" lon="5.72558">
        <ele>286.20001220703</ele>
        <time>2024-06-09T07:16:52Z</time>
      </trkpt>
      <trkpt lat="49.40656" lon="5.72549">
        <ele>285.79998779297</ele>
        <time>2024-06-09T07:16:53Z</time>
      </trkpt>
      <trkpt lat="49.40658" lon="5.72539">
        <ele>285.79998779297</ele>
        <time>2024-06-09T07:16:54Z</time>
      </trkpt>
      <trkpt lat="49.40662" lon="5.72518">
        <ele>285.39999389648</ele>
        <time>2024-06-09T07:16:56Z</time>
      </trkpt>
      <trkpt lat="49.40665" lon="5.72496">
        <ele>285.20001220703</ele>
        <time>2024-06-09T07:16:58Z</time>
      </trkpt>
      <trkpt lat="49.40668" lon="5.72474">
        <ele>285</ele>
        <time>2024-06-09T07:17:00Z</time>
      </trkpt>
      <trkpt lat="49.4067" lon="5.72451">
        <ele>284.79998779297</ele>
        <time>2024-06-09T07:17:02Z</time>
      </trkpt>
      <trkpt lat="49.40673" lon="5.72426">
        <ele>284.20001220703</ele>
        <time>2024-06-09T07:17:04Z</time>
      </trkpt>
      <trkpt lat="49.40675" lon="5.72412">
        <ele>284</ele>
        <time>2024-06-09T07:17:05Z</time>
      </trkpt>
      <trkpt lat="49.40676" lon="5.72398">
        <ele>283.60000610352</ele>
        <time>2024-06-09T07:17:06Z</time>
      </trkpt>
      <trkpt lat="49.40679" lon="5.72368">
        <ele>282.60000610352</ele>
        <time>2024-06-09T07:17:08Z</time>
      </trkpt>
      <trkpt lat="49.40683" lon="5.7234">
        <ele>281.20001220703</ele>
        <time>2024-06-09T07:17:10Z</time>
      </trkpt>
      <trkpt lat="49.40685" lon="5.72328">
        <ele>280.60000610352</ele>
        <time>2024-06-09T07:17:11Z</time>
      </trkpt>
      <trkpt lat="49.40689" lon="5.72318">
        <ele>279.79998779297</ele>
        <time>2024-06-09T07:17:12Z</time>
      </trkpt>
      <trkpt lat="49.40694" lon="5.72312">
        <ele>278.39999389648</ele>
        <time>2024-06-09T07:17:13Z</time>
      </trkpt>
      <trkpt lat="49.407" lon="5.72306">
        <ele>277</ele>
        <time>2024-06-09T07:17:14Z</time>
      </trkpt>
      <trkpt lat="49.40707" lon="5.72302">
        <ele>276</ele>
        <time>2024-06-09T07:17:15Z</time>
      </trkpt>
      <trkpt lat="49.40714" lon="5.72297">
        <ele>274.60000610352</ele>
        <time>2024-06-09T07:17:16Z</time>
      </trkpt>
      <trkpt lat="49.40721" lon="5.72293">
        <ele>273.60000610352</ele>
        <time>2024-06-09T07:17:17Z</time>
      </trkpt>
      <trkpt lat="49.40727" lon="5.72289">
        <ele>273</ele>
        <time>2024-06-09T07:17:18Z</time>
      </trkpt>
      <trkpt lat="49.40741" lon="5.72282">
        <ele>272.20001220703</ele>
        <time>2024-06-09T07:17:20Z</time>
      </trkpt>
      <trkpt lat="49.40749" lon="5.72278">
        <ele>271.79998779297</ele>
        <time>2024-06-09T07:17:21Z</time>
      </trkpt>
      <trkpt lat="49.40756" lon="5.72274">
        <ele>271.20001220703</ele>
        <time>2024-06-09T07:17:22Z</time>
      </trkpt>
      <trkpt lat="49.40763" lon="5.7227">
        <ele>270.60000610352</ele>
        <time>2024-06-09T07:17:23Z</time>
      </trkpt>
      <trkpt lat="49.4077" lon="5.72267">
        <ele>270.39999389648</ele>
        <time>2024-06-09T07:17:24Z</time>
      </trkpt>
      <trkpt lat="49.40778" lon="5.72262">
        <ele>269.79998779297</ele>
        <time>2024-06-09T07:17:25Z</time>
      </trkpt>
      <trkpt lat="49.40786" lon="5.72257">
        <ele>269.20001220703</ele>
        <time>2024-06-09T07:17:26Z</time>
      </trkpt>
      <trkpt lat="49.40798" lon="5.72243">
        <ele>267.60000610352</ele>
        <time>2024-06-09T07:17:28Z</time>
      </trkpt>
      <trkpt lat="49.40807" lon="5.72224">
        <ele>266.20001220703</ele>
        <time>2024-06-09T07:17:30Z</time>
      </trkpt>
      <trkpt lat="49.40808" lon="5.72213">
        <ele>264.60000610352</ele>
        <time>2024-06-09T07:17:31Z</time>
      </trkpt>
      <trkpt lat="49.40809" lon="5.72201">
        <ele>263.60000610352</ele>
        <time>2024-06-09T07:17:32Z</time>
      </trkpt>
      <trkpt lat="49.4081" lon="5.72188">
        <ele>262.20001220703</ele>
        <time>2024-06-09T07:17:33Z</time>
      </trkpt>
      <trkpt lat="49.4081" lon="5.72175">
        <ele>260.79998779297</ele>
        <time>2024-06-09T07:17:34Z</time>
      </trkpt>
      <trkpt lat="49.40811" lon="5.72162">
        <ele>259.39999389648</ele>
        <time>2024-06-09T07:17:35Z</time>
      </trkpt>
      <trkpt lat="49.40811" lon="5.7215">
        <ele>258</ele>
        <time>2024-06-09T07:17:36Z</time>
      </trkpt>
      <trkpt lat="49.40812" lon="5.72138">
        <ele>256.60000610352</ele>
        <time>2024-06-09T07:17:37Z</time>
      </trkpt>
      <trkpt lat="49.40812" lon="5.72128">
        <ele>255.19999694824</ele>
        <time>2024-06-09T07:17:38Z</time>
      </trkpt>
      <trkpt lat="49.40814" lon="5.72121">
        <ele>254.39999389648</ele>
        <time>2024-06-09T07:17:39Z</time>
      </trkpt>
      <trkpt lat="49.40817" lon="5.72116">
        <ele>253.80000305176</ele>
        <time>2024-06-09T07:17:40Z</time>
      </trkpt>
      <trkpt lat="49.40821" lon="5.72115">
        <ele>252.80000305176</ele>
        <time>2024-06-09T07:17:41Z</time>
      </trkpt>
      <trkpt lat="49.40824" lon="5.72117">
        <ele>251.80000305176</ele>
        <time>2024-06-09T07:17:42Z</time>
      </trkpt>
      <trkpt lat="49.40832" lon="5.72125">
        <ele>250.19999694824</ele>
        <time>2024-06-09T07:17:44Z</time>
      </trkpt>
      <trkpt lat="49.40835" lon="5.72128">
        <ele>249.60000610352</ele>
        <time>2024-06-09T07:17:45Z</time>
      </trkpt>
      <trkpt lat="49.40839" lon="5.72131">
        <ele>249.39999389648</ele>
        <time>2024-06-09T07:17:46Z</time>
      </trkpt>
      <trkpt lat="49.40848" lon="5.72138">
        <ele>249.19999694824</ele>
        <time>2024-06-09T07:17:48Z</time>
      </trkpt>
      <trkpt lat="49.40856" lon="5.72145">
        <ele>249.19999694824</ele>
        <time>2024-06-09T07:17:50Z</time>
      </trkpt>
      <trkpt lat="49.4086" lon="5.72148">
        <ele>249.19999694824</ele>
        <time>2024-06-09T07:17:51Z</time>
      </trkpt>
      <trkpt lat="49.40864" lon="5.72151">
        <ele>249</ele>
        <time>2024-06-09T07:17:52Z</time>
      </trkpt>
      <trkpt lat="49.40872" lon="5.72153">
        <ele>249</ele>
        <time>2024-06-09T07:17:54Z</time>
      </trkpt>
      <trkpt lat="49.40876" lon="5.72153">
        <ele>249.39999389648</ele>
        <time>2024-06-09T07:17:55Z</time>
      </trkpt>
      <trkpt lat="49.4088" lon="5.72152">
        <ele>249.39999389648</ele>
        <time>2024-06-09T07:17:56Z</time>
      </trkpt>
      <trkpt lat="49.40887" lon="5.72151">
        <ele>249.80000305176</ele>
        <time>2024-06-09T07:17:58Z</time>
      </trkpt>
      <trkpt lat="49.40891" lon="5.72151">
        <ele>250.39999389648</ele>
        <time>2024-06-09T07:17:59Z</time>
      </trkpt>
      <trkpt lat="49.40895" lon="5.72152">
        <ele>250.60000610352</ele>
        <time>2024-06-09T07:18:00Z</time>
      </trkpt>
      <trkpt lat="49.40903" lon="5.72154">
        <ele>251</ele>
        <time>2024-06-09T07:18:02Z</time>
      </trkpt>
      <trkpt lat="49.40911" lon="5.72149">
        <ele>251</ele>
        <time>2024-06-09T07:18:04Z</time>
      </trkpt>
      <trkpt lat="49.40919" lon="5.72139">
        <ele>251</ele>
        <time>2024-06-09T07:18:06Z</time>
      </trkpt>
      <trkpt lat="49.40926" lon="5.72135">
        <ele>251</ele>
        <time>2024-06-09T07:18:07Z</time>
      </trkpt>
      <trkpt lat="49.40933" lon="5.72132">
        <ele>251</ele>
        <time>2024-06-09T07:18:08Z</time>
      </trkpt>
      <trkpt lat="49.4094" lon="5.7213">
        <ele>251</ele>
        <time>2024-06-09T07:18:09Z</time>
      </trkpt>
      <trkpt lat="49.40947" lon="5.72128">
        <ele>251</ele>
        <time>2024-06-09T07:18:10Z</time>
      </trkpt>
      <trkpt lat="49.40961" lon="5.72123">
        <ele>250.80000305176</ele>
        <time>2024-06-09T07:18:12Z</time>
      </trkpt>
      <trkpt lat="49.40968" lon="5.72121">
        <ele>250.60000610352</ele>
        <time>2024-06-09T07:18:13Z</time>
      </trkpt>
      <trkpt lat="49.40975" lon="5.72119">
        <ele>249.80000305176</ele>
        <time>2024-06-09T07:18:14Z</time>
      </trkpt>
      <trkpt lat="49.40983" lon="5.72116">
        <ele>248.60000610352</ele>
        <time>2024-06-09T07:18:15Z</time>
      </trkpt>
      <trkpt lat="49.4099" lon="5.72114">
        <ele>247</ele>
        <time>2024-06-09T07:18:16Z</time>
      </trkpt>
      <trkpt lat="49.40997" lon="5.72111">
        <ele>245.80000305176</ele>
        <time>2024-06-09T07:18:17Z</time>
      </trkpt>
      <trkpt lat="49.41005" lon="5.72109">
        <ele>245</ele>
        <time>2024-06-09T07:18:18Z</time>
      </trkpt>
      <trkpt lat="49.41012" lon="5.72106">
        <ele>244.39999389648</ele>
        <time>2024-06-09T07:18:19Z</time>
      </trkpt>
      <trkpt lat="49.4102" lon="5.72104">
        <ele>244.19999694824</ele>
        <time>2024-06-09T07:18:20Z</time>
      </trkpt>
      <trkpt lat="49.41028" lon="5.721">
        <ele>244</ele>
        <time>2024-06-09T07:18:21Z</time>
      </trkpt>
      <trkpt lat="49.41035" lon="5.72097">
        <ele>243.80000305176</ele>
        <time>2024-06-09T07:18:22Z</time>
      </trkpt>
      <trkpt lat="49.41042" lon="5.72094">
        <ele>243.39999389648</ele>
        <time>2024-06-09T07:18:23Z</time>
      </trkpt>
      <trkpt lat="49.4105" lon="5.7209">
        <ele>243</ele>
        <time>2024-06-09T07:18:24Z</time>
      </trkpt>
      <trkpt lat="49.41064" lon="5.72081">
        <ele>242.80000305176</ele>
        <time>2024-06-09T07:18:26Z</time>
      </trkpt>
      <trkpt lat="49.4107" lon="5.72077">
        <ele>242</ele>
        <time>2024-06-09T07:18:27Z</time>
      </trkpt>
      <trkpt lat="49.41077" lon="5.72072">
        <ele>241.80000305176</ele>
        <time>2024-06-09T07:18:28Z</time>
      </trkpt>
      <trkpt lat="49.4109" lon="5.72063">
        <ele>241.39999389648</ele>
        <time>2024-06-09T07:18:30Z</time>
      </trkpt>
      <trkpt lat="49.41102" lon="5.72054">
        <ele>241</ele>
        <time>2024-06-09T07:18:32Z</time>
      </trkpt>
      <trkpt lat="49.41114" lon="5.72046">
        <ele>240.60000610352</ele>
        <time>2024-06-09T07:18:34Z</time>
      </trkpt>
      <trkpt lat="49.4112" lon="5.72043">
        <ele>240.39999389648</ele>
        <time>2024-06-09T07:18:35Z</time>
      </trkpt>
      <trkpt lat="49.41126" lon="5.72039">
        <ele>240.39999389648</ele>
        <time>2024-06-09T07:18:36Z</time>
      </trkpt>
      <trkpt lat="49.41132" lon="5.72037">
        <ele>240.39999389648</ele>
        <time>2024-06-09T07:18:37Z</time>
      </trkpt>
      <trkpt lat="49.41138" lon="5.72037">
        <ele>240.39999389648</ele>
        <time>2024-06-09T07:18:38Z</time>
      </trkpt>
      <trkpt lat="49.41142" lon="5.72039">
        <ele>240.39999389648</ele>
        <time>2024-06-09T07:18:39Z</time>
      </trkpt>
      <trkpt lat="49.41145" lon="5.72043">
        <ele>240.19999694824</ele>
        <time>2024-06-09T07:18:40Z</time>
      </trkpt>
      <trkpt lat="49.41147" lon="5.72051">
        <ele>240.19999694824</ele>
        <time>2024-06-09T07:18:41Z</time>
      </trkpt>
      <trkpt lat="49.41147" lon="5.72059">
        <ele>240</ele>
        <time>2024-06-09T07:18:42Z</time>
      </trkpt>
      <trkpt lat="49.41147" lon="5.72068">
        <ele>239.80000305176</ele>
        <time>2024-06-09T07:18:43Z</time>
      </trkpt>
      <trkpt lat="49.41146" lon="5.72077">
        <ele>239.80000305176</ele>
        <time>2024-06-09T07:18:44Z</time>
      </trkpt>
      <trkpt lat="49.41146" lon="5.72086">
        <ele>239.60000610352</ele>
        <time>2024-06-09T07:18:45Z</time>
      </trkpt>
      <trkpt lat="49.41145" lon="5.72096">
        <ele>239.39999389648</ele>
        <time>2024-06-09T07:18:46Z</time>
      </trkpt>
      <trkpt lat="49.41144" lon="5.72114">
        <ele>238.80000305176</ele>
        <time>2024-06-09T07:18:48Z</time>
      </trkpt>
      <trkpt lat="49.41143" lon="5.72132">
        <ele>238.39999389648</ele>
        <time>2024-06-09T07:18:50Z</time>
      </trkpt>
      <trkpt lat="49.41143" lon="5.72149">
        <ele>237.80000305176</ele>
        <time>2024-06-09T07:18:52Z</time>
      </trkpt>
      <trkpt lat="49.41143" lon="5.72165">
        <ele>237.19999694824</ele>
        <time>2024-06-09T07:18:54Z</time>
      </trkpt>
      <trkpt lat="49.41144" lon="5.72181">
        <ele>236.80000305176</ele>
        <time>2024-06-09T07:18:56Z</time>
      </trkpt>
      <trkpt lat="49.41146" lon="5.72197">
        <ele>236.80000305176</ele>
        <time>2024-06-09T07:18:58Z</time>
      </trkpt>
      <trkpt lat="49.41147" lon="5.72205">
        <ele>236.80000305176</ele>
        <time>2024-06-09T07:18:59Z</time>
      </trkpt>
      <trkpt lat="49.41148" lon="5.72212">
        <ele>236.80000305176</ele>
        <time>2024-06-09T07:19:00Z</time>
      </trkpt>
      <trkpt lat="49.41151" lon="5.72227">
        <ele>236.80000305176</ele>
        <time>2024-06-09T07:19:02Z</time>
      </trkpt>
      <trkpt lat="49.41152" lon="5.72235">
        <ele>236.80000305176</ele>
        <time>2024-06-09T07:19:03Z</time>
      </trkpt>
      <trkpt lat="49.41153" lon="5.72242">
        <ele>236.80000305176</ele>
        <time>2024-06-09T07:19:04Z</time>
      </trkpt>
      <trkpt lat="49.41156" lon="5.72256">
        <ele>237.39999389648</ele>
        <time>2024-06-09T07:19:06Z</time>
      </trkpt>
      <trkpt lat="49.41159" lon="5.72271">
        <ele>237.80000305176</ele>
        <time>2024-06-09T07:19:08Z</time>
      </trkpt>
      <trkpt lat="49.41162" lon="5.72278">
        <ele>237.80000305176</ele>
        <time>2024-06-09T07:19:09Z</time>
      </trkpt>
      <trkpt lat="49.41164" lon="5.72285">
        <ele>237.80000305176</ele>
        <time>2024-06-09T07:19:10Z</time>
      </trkpt>
      <trkpt lat="49.41167" lon="5.72298">
        <ele>237.80000305176</ele>
        <time>2024-06-09T07:19:12Z</time>
      </trkpt>
      <trkpt lat="49.41173" lon="5.72312">
        <ele>238</ele>
        <time>2024-06-09T07:19:14Z</time>
      </trkpt>
      <trkpt lat="49.41176" lon="5.72318">
        <ele>238.19999694824</ele>
        <time>2024-06-09T07:19:15Z</time>
      </trkpt>
      <trkpt lat="49.4118" lon="5.72323">
        <ele>238.19999694824</ele>
        <time>2024-06-09T07:19:16Z</time>
      </trkpt>
      <trkpt lat="49.41184" lon="5.72328">
        <ele>238.19999694824</ele>
        <time>2024-06-09T07:19:17Z</time>
      </trkpt>
      <trkpt lat="49.41187" lon="5.72333">
        <ele>238.19999694824</ele>
        <time>2024-06-09T07:19:18Z</time>
      </trkpt>
      <trkpt lat="49.41196" lon="5.7234">
        <ele>238.39999389648</ele>
        <time>2024-06-09T07:19:20Z</time>
      </trkpt>
      <trkpt lat="49.41201" lon="5.72343">
        <ele>238.39999389648</ele>
        <time>2024-06-09T07:19:21Z</time>
      </trkpt>
      <trkpt lat="49.41205" lon="5.72346">
        <ele>238.39999389648</ele>
        <time>2024-06-09T07:19:22Z</time>
      </trkpt>
      <trkpt lat="49.41214" lon="5.72351">
        <ele>238.80000305176</ele>
        <time>2024-06-09T07:19:24Z</time>
      </trkpt>
      <trkpt lat="49.41219" lon="5.72352">
        <ele>238.80000305176</ele>
        <time>2024-06-09T07:19:25Z</time>
      </trkpt>
      <trkpt lat="49.41223" lon="5.72354">
        <ele>238.80000305176</ele>
        <time>2024-06-09T07:19:26Z</time>
      </trkpt>
      <trkpt lat="49.41233" lon="5.72357">
        <ele>239</ele>
        <time>2024-06-09T07:19:28Z</time>
      </trkpt>
      <trkpt lat="49.41241" lon="5.72362">
        <ele>239.19999694824</ele>
        <time>2024-06-09T07:19:30Z</time>
      </trkpt>
      <trkpt lat="49.41248" lon="5.72369">
        <ele>239.19999694824</ele>
        <time>2024-06-09T07:19:32Z</time>
      </trkpt>
      <trkpt lat="49.41255" lon="5.72374">
        <ele>239.39999389648</ele>
        <time>2024-06-09T07:19:34Z</time>
      </trkpt>
      <trkpt lat="49.41259" lon="5.72377">
        <ele>239.39999389648</ele>
        <time>2024-06-09T07:19:35Z</time>
      </trkpt>
      <trkpt lat="49.41263" lon="5.7238">
        <ele>239.60000610352</ele>
        <time>2024-06-09T07:19:36Z</time>
      </trkpt>
      <trkpt lat="49.41267" lon="5.72383">
        <ele>240</ele>
        <time>2024-06-09T07:19:37Z</time>
      </trkpt>
      <trkpt lat="49.41271" lon="5.72386">
        <ele>240.19999694824</ele>
        <time>2024-06-09T07:19:38Z</time>
      </trkpt>
      <trkpt lat="49.41278" lon="5.72393">
        <ele>240.60000610352</ele>
        <time>2024-06-09T07:19:40Z</time>
      </trkpt>
      <trkpt lat="49.41286" lon="5.72398">
        <ele>240.80000305176</ele>
        <time>2024-06-09T07:19:42Z</time>
      </trkpt>
      <trkpt lat="49.41289" lon="5.724">
        <ele>241</ele>
        <time>2024-06-09T07:19:43Z</time>
      </trkpt>
      <trkpt lat="49.41293" lon="5.72402">
        <ele>241</ele>
        <time>2024-06-09T07:19:44Z</time>
      </trkpt>
      <trkpt lat="49.41297" lon="5.72404">
        <ele>241</ele>
        <time>2024-06-09T07:19:45Z</time>
      </trkpt>
      <trkpt lat="49.41301" lon="5.72407">
        <ele>241</ele>
        <time>2024-06-09T07:19:46Z</time>
      </trkpt>
      <trkpt lat="49.41309" lon="5.7241">
        <ele>241.19999694824</ele>
        <time>2024-06-09T07:19:48Z</time>
      </trkpt>
      <trkpt lat="49.41318" lon="5.72413">
        <ele>241.39999389648</ele>
        <time>2024-06-09T07:19:50Z</time>
      </trkpt>
      <trkpt lat="49.41326" lon="5.72413">
        <ele>241.80000305176</ele>
        <time>2024-06-09T07:19:52Z</time>
      </trkpt>
      <trkpt lat="49.4133" lon="5.72412">
        <ele>241.80000305176</ele>
        <time>2024-06-09T07:19:53Z</time>
      </trkpt>
      <trkpt lat="49.41334" lon="5.72411">
        <ele>242.19999694824</ele>
        <time>2024-06-09T07:19:54Z</time>
      </trkpt>
      <trkpt lat="49.41343" lon="5.72408">
        <ele>242.39999389648</ele>
        <time>2024-06-09T07:19:56Z</time>
      </trkpt>
      <trkpt lat="49.41348" lon="5.72407">
        <ele>242.39999389648</ele>
        <time>2024-06-09T07:19:57Z</time>
      </trkpt>
      <trkpt lat="49.41353" lon="5.72406">
        <ele>242.60000610352</ele>
        <time>2024-06-09T07:19:58Z</time>
      </trkpt>
      <trkpt lat="49.4136" lon="5.72411">
        <ele>242.60000610352</ele>
        <time>2024-06-09T07:20:00Z</time>
      </trkpt>
      <trkpt lat="49.41361" lon="5.72419">
        <ele>242.60000610352</ele>
        <time>2024-06-09T07:20:02Z</time>
      </trkpt>
      <trkpt lat="49.41361" lon="5.72421">
        <ele>242.60000610352</ele>
        <time>2024-06-09T07:20:03Z</time>
      </trkpt>
      <trkpt lat="49.41359" lon="5.72423">
        <ele>242.60000610352</ele>
        <time>2024-06-09T07:20:04Z</time>
      </trkpt>
      <trkpt lat="49.41357" lon="5.72429">
        <ele>242.60000610352</ele>
        <time>2024-06-09T07:20:06Z</time>
      </trkpt>
      <trkpt lat="49.41356" lon="5.72432">
        <ele>242.80000305176</ele>
        <time>2024-06-09T07:20:07Z</time>
      </trkpt>
      <trkpt lat="49.41356" lon="5.72435">
        <ele>242.80000305176</ele>
        <time>2024-06-09T07:20:08Z</time>
      </trkpt>
      <trkpt lat="49.41355" lon="5.72438">
        <ele>242.80000305176</ele>
        <time>2024-06-09T07:20:09Z</time>
      </trkpt>
      <trkpt lat="49.41354" lon="5.72442">
        <ele>242.80000305176</ele>
        <time>2024-06-09T07:20:10Z</time>
      </trkpt>
      <trkpt lat="49.41354" lon="5.72448">
        <ele>243</ele>
        <time>2024-06-09T07:20:12Z</time>
      </trkpt>
      <trkpt lat="49.41353" lon="5.7245">
        <ele>243.39999389648</ele>
        <time>2024-06-09T07:20:13Z</time>
      </trkpt>
      <trkpt lat="49.41353" lon="5.72453">
        <ele>243.60000610352</ele>
        <time>2024-06-09T07:20:14Z</time>
      </trkpt>
      <trkpt lat="49.41352" lon="5.72457">
        <ele>244.19999694824</ele>
        <time>2024-06-09T07:20:16Z</time>
      </trkpt>
      <trkpt lat="49.41352" lon="5.72459">
        <ele>244.39999389648</ele>
        <time>2024-06-09T07:20:17Z</time>
      </trkpt>
      <trkpt lat="49.41353" lon="5.72461">
        <ele>244.60000610352</ele>
        <time>2024-06-09T07:20:18Z</time>
      </trkpt>
      <trkpt lat="49.41352" lon="5.72465">
        <ele>245.19999694824</ele>
        <time>2024-06-09T07:20:20Z</time>
      </trkpt>
      <trkpt lat="49.41352" lon="5.72467">
        <ele>245.80000305176</ele>
        <time>2024-06-09T07:20:21Z</time>
      </trkpt>
      <trkpt lat="49.41352" lon="5.72469">
        <ele>246.19999694824</ele>
        <time>2024-06-09T07:20:22Z</time>
      </trkpt>
      <trkpt lat="49.41352" lon="5.72473">
        <ele>246.80000305176</ele>
        <time>2024-06-09T07:20:24Z</time>
      </trkpt>
      <trkpt lat="49.41352" lon="5.72479">
        <ele>247.60000610352</ele>
        <time>2024-06-09T07:20:26Z</time>
      </trkpt>
      <trkpt lat="49.41352" lon="5.72484">
        <ele>248</ele>
        <time>2024-06-09T07:20:28Z</time>
      </trkpt>
      <trkpt lat="49.41352" lon="5.72486">
        <ele>248.39999389648</ele>
        <time>2024-06-09T07:20:29Z</time>
      </trkpt>
      <trkpt lat="49.41352" lon="5.72488">
        <ele>248.80000305176</ele>
        <time>2024-06-09T07:20:30Z</time>
      </trkpt>
      <trkpt lat="49.41352" lon="5.72492">
        <ele>249.39999389648</ele>
        <time>2024-06-09T07:20:32Z</time>
      </trkpt>
      <trkpt lat="49.41352" lon="5.72494">
        <ele>249.60000610352</ele>
        <time>2024-06-09T07:20:33Z</time>
      </trkpt>
      <trkpt lat="49.41352" lon="5.72496">
        <ele>249.80000305176</ele>
        <time>2024-06-09T07:20:34Z</time>
      </trkpt>
      <trkpt lat="49.41351" lon="5.72501">
        <ele>250.19999694824</ele>
        <time>2024-06-09T07:20:36Z</time>
      </trkpt>
      <trkpt lat="49.41351" lon="5.72503">
        <ele>250.39999389648</ele>
        <time>2024-06-09T07:20:37Z</time>
      </trkpt>
      <trkpt lat="49.41351" lon="5.72506">
        <ele>250.80000305176</ele>
        <time>2024-06-09T07:20:38Z</time>
      </trkpt>
      <trkpt lat="49.4135" lon="5.72512">
        <ele>251.19999694824</ele>
        <time>2024-06-09T07:20:40Z</time>
      </trkpt>
      <trkpt lat="49.4135" lon="5.72519">
        <ele>251.80000305176</ele>
        <time>2024-06-09T07:20:42Z</time>
      </trkpt>
      <trkpt lat="49.41349" lon="5.72525">
        <ele>252.19999694824</ele>
        <time>2024-06-09T07:20:44Z</time>
      </trkpt>
      <trkpt lat="49.4135" lon="5.7253">
        <ele>252.80000305176</ele>
        <time>2024-06-09T07:20:46Z</time>
      </trkpt>
      <trkpt lat="49.41349" lon="5.72536">
        <ele>253.19999694824</ele>
        <time>2024-06-09T07:20:48Z</time>
      </trkpt>
      <trkpt lat="49.41349" lon="5.72541">
        <ele>253.80000305176</ele>
        <time>2024-06-09T07:20:50Z</time>
      </trkpt>
      <trkpt lat="49.4135" lon="5.72546">
        <ele>254.39999389648</ele>
        <time>2024-06-09T07:20:52Z</time>
      </trkpt>
      <trkpt lat="49.4135" lon="5.72552">
        <ele>254.80000305176</ele>
        <time>2024-06-09T07:20:54Z</time>
      </trkpt>
      <trkpt lat="49.41349" lon="5.72554">
        <ele>255</ele>
        <time>2024-06-09T07:20:55Z</time>
      </trkpt>
      <trkpt lat="49.41349" lon="5.72557">
        <ele>255.19999694824</ele>
        <time>2024-06-09T07:20:56Z</time>
      </trkpt>
      <trkpt lat="49.41349" lon="5.72562">
        <ele>255.80000305176</ele>
        <time>2024-06-09T07:20:58Z</time>
      </trkpt>
      <trkpt lat="49.41349" lon="5.72566">
        <ele>256.20001220703</ele>
        <time>2024-06-09T07:21:00Z</time>
      </trkpt>
      <trkpt lat="49.41349" lon="5.72569">
        <ele>256.39999389648</ele>
        <time>2024-06-09T07:21:01Z</time>
      </trkpt>
      <trkpt lat="49.41349" lon="5.7257">
        <ele>256.60000610352</ele>
        <time>2024-06-09T07:21:02Z</time>
      </trkpt>
      <trkpt lat="49.41349" lon="5.72575">
        <ele>257.20001220703</ele>
        <time>2024-06-09T07:21:04Z</time>
      </trkpt>
      <trkpt lat="49.41349" lon="5.72578">
        <ele>257.39999389648</ele>
        <time>2024-06-09T07:21:05Z</time>
      </trkpt>
      <trkpt lat="49.41349" lon="5.72581">
        <ele>257.60000610352</ele>
        <time>2024-06-09T07:21:06Z</time>
      </trkpt>
      <trkpt lat="49.41349" lon="5.72584">
        <ele>257.79998779297</ele>
        <time>2024-06-09T07:21:07Z</time>
      </trkpt>
      <trkpt lat="49.41349" lon="5.72586">
        <ele>258</ele>
        <time>2024-06-09T07:21:08Z</time>
      </trkpt>
      <trkpt lat="49.41348" lon="5.7259">
        <ele>258.60000610352</ele>
        <time>2024-06-09T07:21:10Z</time>
      </trkpt>
      <trkpt lat="49.41347" lon="5.72596">
        <ele>258.79998779297</ele>
        <time>2024-06-09T07:21:12Z</time>
      </trkpt>
      <trkpt lat="49.41346" lon="5.726">
        <ele>259.20001220703</ele>
        <time>2024-06-09T07:21:14Z</time>
      </trkpt>
      <trkpt lat="49.41346" lon="5.72605">
        <ele>259.79998779297</ele>
        <time>2024-06-09T07:21:16Z</time>
      </trkpt>
      <trkpt lat="49.41346" lon="5.72609">
        <ele>260.60000610352</ele>
        <time>2024-06-09T07:21:18Z</time>
      </trkpt>
      <trkpt lat="49.41346" lon="5.72612">
        <ele>261</ele>
        <time>2024-06-09T07:21:19Z</time>
      </trkpt>
      <trkpt lat="49.41346" lon="5.72614">
        <ele>261.39999389648</ele>
        <time>2024-06-09T07:21:20Z</time>
      </trkpt>
      <trkpt lat="49.41346" lon="5.72618">
        <ele>261.79998779297</ele>
        <time>2024-06-09T07:21:22Z</time>
      </trkpt>
      <trkpt lat="49.41346" lon="5.72622">
        <ele>262.20001220703</ele>
        <time>2024-06-09T07:21:24Z</time>
      </trkpt>
      <trkpt lat="49.41346" lon="5.72626">
        <ele>262.39999389648</ele>
        <time>2024-06-09T07:21:26Z</time>
      </trkpt>
      <trkpt lat="49.41346" lon="5.7263">
        <ele>262.79998779297</ele>
        <time>2024-06-09T07:21:28Z</time>
      </trkpt>
      <trkpt lat="49.41345" lon="5.72635">
        <ele>263.39999389648</ele>
        <time>2024-06-09T07:21:30Z</time>
      </trkpt>
      <trkpt lat="49.41345" lon="5.72638">
        <ele>263.79998779297</ele>
        <time>2024-06-09T07:21:32Z</time>
      </trkpt>
      <trkpt lat="49.41344" lon="5.72643">
        <ele>264.20001220703</ele>
        <time>2024-06-09T07:21:34Z</time>
      </trkpt>
      <trkpt lat="49.41344" lon="5.72645">
        <ele>264.39999389648</ele>
        <time>2024-06-09T07:21:35Z</time>
      </trkpt>
      <trkpt lat="49.41344" lon="5.72647">
        <ele>264.60000610352</ele>
        <time>2024-06-09T07:21:36Z</time>
      </trkpt>
      <trkpt lat="49.41344" lon="5.7265">
        <ele>265.20001220703</ele>
        <time>2024-06-09T07:21:38Z</time>
      </trkpt>
      <trkpt lat="49.41345" lon="5.72652">
        <ele>265.39999389648</ele>
        <time>2024-06-09T07:21:39Z</time>
      </trkpt>
      <trkpt lat="49.41345" lon="5.72654">
        <ele>265.60000610352</ele>
        <time>2024-06-09T07:21:40Z</time>
      </trkpt>
      <trkpt lat="49.41345" lon="5.72658">
        <ele>266</ele>
        <time>2024-06-09T07:21:42Z</time>
      </trkpt>
      <trkpt lat="49.41345" lon="5.72662">
        <ele>266.39999389648</ele>
        <time>2024-06-09T07:21:44Z</time>
      </trkpt>
      <trkpt lat="49.41346" lon="5.72665">
        <ele>267.20001220703</ele>
        <time>2024-06-09T07:21:46Z</time>
      </trkpt>
      <trkpt lat="49.41346" lon="5.72667">
        <ele>267.79998779297</ele>
        <time>2024-06-09T07:21:47Z</time>
      </trkpt>
      <trkpt lat="49.41346" lon="5.72669">
        <ele>268</ele>
        <time>2024-06-09T07:21:48Z</time>
      </trkpt>
      <trkpt lat="49.41348" lon="5.72673">
        <ele>268.39999389648</ele>
        <time>2024-06-09T07:21:50Z</time>
      </trkpt>
      <trkpt lat="49.41348" lon="5.72675">
        <ele>268.79998779297</ele>
        <time>2024-06-09T07:21:51Z</time>
      </trkpt>
      <trkpt lat="49.41348" lon="5.72677">
        <ele>269</ele>
        <time>2024-06-09T07:21:52Z</time>
      </trkpt>
      <trkpt lat="49.41348" lon="5.72682">
        <ele>269.60000610352</ele>
        <time>2024-06-09T07:21:54Z</time>
      </trkpt>
      <trkpt lat="49.41348" lon="5.72684">
        <ele>269.79998779297</ele>
        <time>2024-06-09T07:21:55Z</time>
      </trkpt>
      <trkpt lat="49.41349" lon="5.72686">
        <ele>270</ele>
        <time>2024-06-09T07:21:56Z</time>
      </trkpt>
      <trkpt lat="49.41349" lon="5.72692">
        <ele>270.60000610352</ele>
        <time>2024-06-09T07:21:58Z</time>
      </trkpt>
      <trkpt lat="49.4135" lon="5.72698">
        <ele>271</ele>
        <time>2024-06-09T07:22:00Z</time>
      </trkpt>
      <trkpt lat="49.41349" lon="5.72703">
        <ele>271.60000610352</ele>
        <time>2024-06-09T07:22:02Z</time>
      </trkpt>
      <trkpt lat="49.41349" lon="5.72705">
        <ele>271.79998779297</ele>
        <time>2024-06-09T07:22:03Z</time>
      </trkpt>
      <trkpt lat="49.41348" lon="5.72707">
        <ele>272</ele>
        <time>2024-06-09T07:22:04Z</time>
      </trkpt>
      <trkpt lat="49.41348" lon="5.7271">
        <ele>272.20001220703</ele>
        <time>2024-06-09T07:22:05Z</time>
      </trkpt>
      <trkpt lat="49.41349" lon="5.72713">
        <ele>272.20001220703</ele>
        <time>2024-06-09T07:22:06Z</time>
      </trkpt>
      <trkpt lat="49.41348" lon="5.72717">
        <ele>272.60000610352</ele>
        <time>2024-06-09T07:22:08Z</time>
      </trkpt>
      <trkpt lat="49.41348" lon="5.72721">
        <ele>273</ele>
        <time>2024-06-09T07:22:10Z</time>
      </trkpt>
      <trkpt lat="49.41348" lon="5.72726">
        <ele>273.20001220703</ele>
        <time>2024-06-09T07:22:12Z</time>
      </trkpt>
      <trkpt lat="49.41348" lon="5.72731">
        <ele>273.60000610352</ele>
        <time>2024-06-09T07:22:14Z</time>
      </trkpt>
      <trkpt lat="49.41348" lon="5.72733">
        <ele>273.79998779297</ele>
        <time>2024-06-09T07:22:15Z</time>
      </trkpt>
      <trkpt lat="49.41347" lon="5.72735">
        <ele>274.20001220703</ele>
        <time>2024-06-09T07:22:16Z</time>
      </trkpt>
      <trkpt lat="49.41347" lon="5.72738">
        <ele>274.39999389648</ele>
        <time>2024-06-09T07:22:17Z</time>
      </trkpt>
      <trkpt lat="49.41347" lon="5.72739">
        <ele>274.60000610352</ele>
        <time>2024-06-09T07:22:18Z</time>
      </trkpt>
      <trkpt lat="49.41347" lon="5.72744">
        <ele>275.20001220703</ele>
        <time>2024-06-09T07:22:20Z</time>
      </trkpt>
      <trkpt lat="49.41347" lon="5.72745">
        <ele>275.39999389648</ele>
        <time>2024-06-09T07:22:21Z</time>
      </trkpt>
      <trkpt lat="49.41347" lon="5.72747">
        <ele>275.60000610352</ele>
        <time>2024-06-09T07:22:22Z</time>
      </trkpt>
      <trkpt lat="49.41347" lon="5.72752">
        <ele>276</ele>
        <time>2024-06-09T07:22:24Z</time>
      </trkpt>
      <trkpt lat="49.41347" lon="5.72756">
        <ele>276.79998779297</ele>
        <time>2024-06-09T07:22:26Z</time>
      </trkpt>
      <trkpt lat="49.41347" lon="5.72761">
        <ele>277.20001220703</ele>
        <time>2024-06-09T07:22:28Z</time>
      </trkpt>
      <trkpt lat="49.41348" lon="5.72766">
        <ele>277.60000610352</ele>
        <time>2024-06-09T07:22:30Z</time>
      </trkpt>
      <trkpt lat="49.41349" lon="5.72768">
        <ele>277.79998779297</ele>
        <time>2024-06-09T07:22:31Z</time>
      </trkpt>
      <trkpt lat="49.4135" lon="5.7277">
        <ele>278</ele>
        <time>2024-06-09T07:22:32Z</time>
      </trkpt>
      <trkpt lat="49.41351" lon="5.72773">
        <ele>278.20001220703</ele>
        <time>2024-06-09T07:22:33Z</time>
      </trkpt>
      <trkpt lat="49.41351" lon="5.72775">
        <ele>278.20001220703</ele>
        <time>2024-06-09T07:22:34Z</time>
      </trkpt>
      <trkpt lat="49.41354" lon="5.72781">
        <ele>278.39999389648</ele>
        <time>2024-06-09T07:22:36Z</time>
      </trkpt>
      <trkpt lat="49.41356" lon="5.72786">
        <ele>278.60000610352</ele>
        <time>2024-06-09T07:22:38Z</time>
      </trkpt>
      <trkpt lat="49.41359" lon="5.72791">
        <ele>278.79998779297</ele>
        <time>2024-06-09T07:22:40Z</time>
      </trkpt>
      <trkpt lat="49.41361" lon="5.72797">
        <ele>278.79998779297</ele>
        <time>2024-06-09T07:22:42Z</time>
      </trkpt>
      <trkpt lat="49.41363" lon="5.72802">
        <ele>279</ele>
        <time>2024-06-09T07:22:44Z</time>
      </trkpt>
      <trkpt lat="49.41363" lon="5.72805">
        <ele>279</ele>
        <time>2024-06-09T07:22:45Z</time>
      </trkpt>
      <trkpt lat="49.41364" lon="5.72808">
        <ele>279.20001220703</ele>
        <time>2024-06-09T07:22:46Z</time>
      </trkpt>
      <trkpt lat="49.41367" lon="5.72816">
        <ele>279.39999389648</ele>
        <time>2024-06-09T07:22:48Z</time>
      </trkpt>
      <trkpt lat="49.41368" lon="5.72823">
        <ele>279.39999389648</ele>
        <time>2024-06-09T07:22:50Z</time>
      </trkpt>
      <trkpt lat="49.41369" lon="5.72827">
        <ele>279.39999389648</ele>
        <time>2024-06-09T07:22:51Z</time>
      </trkpt>
      <trkpt lat="49.4137" lon="5.72831">
        <ele>279.39999389648</ele>
        <time>2024-06-09T07:22:52Z</time>
      </trkpt>
      <trkpt lat="49.41372" lon="5.72839">
        <ele>279.60000610352</ele>
        <time>2024-06-09T07:22:54Z</time>
      </trkpt>
      <trkpt lat="49.41375" lon="5.72848">
        <ele>279.60000610352</ele>
        <time>2024-06-09T07:22:56Z</time>
      </trkpt>
      <trkpt lat="49.41377" lon="5.72858">
        <ele>279.60000610352</ele>
        <time>2024-06-09T07:22:58Z</time>
      </trkpt>
      <trkpt lat="49.41379" lon="5.72869">
        <ele>279.79998779297</ele>
        <time>2024-06-09T07:23:00Z</time>
      </trkpt>
      <trkpt lat="49.4138" lon="5.72874">
        <ele>279.79998779297</ele>
        <time>2024-06-09T07:23:01Z</time>
      </trkpt>
      <trkpt lat="49.4138" lon="5.72878">
        <ele>279.79998779297</ele>
        <time>2024-06-09T07:23:02Z</time>
      </trkpt>
      <trkpt lat="49.41379" lon="5.72881">
        <ele>279.79998779297</ele>
        <time>2024-06-09T07:23:03Z</time>
      </trkpt>
      <trkpt lat="49.41379" lon="5.72885">
        <ele>280</ele>
        <time>2024-06-09T07:23:04Z</time>
      </trkpt>
      <trkpt lat="49.41377" lon="5.7289">
        <ele>280</ele>
        <time>2024-06-09T07:23:06Z</time>
      </trkpt>
      <trkpt lat="49.41377" lon="5.72895">
        <ele>280.20001220703</ele>
        <time>2024-06-09T07:23:08Z</time>
      </trkpt>
      <trkpt lat="49.41377" lon="5.729">
        <ele>280.20001220703</ele>
        <time>2024-06-09T07:23:10Z</time>
      </trkpt>
      <trkpt lat="49.41375" lon="5.72905">
        <ele>280.79998779297</ele>
        <time>2024-06-09T07:23:12Z</time>
      </trkpt>
      <trkpt lat="49.41375" lon="5.72908">
        <ele>281.20001220703</ele>
        <time>2024-06-09T07:23:13Z</time>
      </trkpt>
      <trkpt lat="49.41375" lon="5.7291">
        <ele>281.39999389648</ele>
        <time>2024-06-09T07:23:14Z</time>
      </trkpt>
      <trkpt lat="49.41375" lon="5.72916">
        <ele>282.20001220703</ele>
        <time>2024-06-09T07:23:16Z</time>
      </trkpt>
      <trkpt lat="49.41374" lon="5.72922">
        <ele>282.79998779297</ele>
        <time>2024-06-09T07:23:18Z</time>
      </trkpt>
      <trkpt lat="49.41373" lon="5.72923">
        <ele>283.20001220703</ele>
        <time>2024-06-09T07:23:19Z</time>
      </trkpt>
      <trkpt lat="49.41373" lon="5.72925">
        <ele>283.60000610352</ele>
        <time>2024-06-09T07:23:20Z</time>
      </trkpt>
      <trkpt lat="49.41373" lon="5.72929">
        <ele>284.39999389648</ele>
        <time>2024-06-09T07:23:22Z</time>
      </trkpt>
      <trkpt lat="49.41372" lon="5.72933">
        <ele>285.20001220703</ele>
        <time>2024-06-09T07:23:24Z</time>
      </trkpt>
      <trkpt lat="49.41372" lon="5.72935">
        <ele>285.60000610352</ele>
        <time>2024-06-09T07:23:25Z</time>
      </trkpt>
      <trkpt lat="49.41371" lon="5.72937">
        <ele>286</ele>
        <time>2024-06-09T07:23:26Z</time>
      </trkpt>
      <trkpt lat="49.41371" lon="5.7294">
        <ele>286.79998779297</ele>
        <time>2024-06-09T07:23:28Z</time>
      </trkpt>
      <trkpt lat="49.4137" lon="5.72942">
        <ele>287.20001220703</ele>
        <time>2024-06-09T07:23:29Z</time>
      </trkpt>
      <trkpt lat="49.41369" lon="5.72944">
        <ele>287.79998779297</ele>
        <time>2024-06-09T07:23:30Z</time>
      </trkpt>
      <trkpt lat="49.41369" lon="5.72946">
        <ele>288</ele>
        <time>2024-06-09T07:23:31Z</time>
      </trkpt>
      <trkpt lat="49.41368" lon="5.72948">
        <ele>288.39999389648</ele>
        <time>2024-06-09T07:23:32Z</time>
      </trkpt>
      <trkpt lat="49.41367" lon="5.72952">
        <ele>288.79998779297</ele>
        <time>2024-06-09T07:23:34Z</time>
      </trkpt>
      <trkpt lat="49.41365" lon="5.72955">
        <ele>289.39999389648</ele>
        <time>2024-06-09T07:23:36Z</time>
      </trkpt>
      <trkpt lat="49.41364" lon="5.72958">
        <ele>290</ele>
        <time>2024-06-09T07:23:38Z</time>
      </trkpt>
      <trkpt lat="49.41363" lon="5.72961">
        <ele>290.60000610352</ele>
        <time>2024-06-09T07:23:40Z</time>
      </trkpt>
      <trkpt lat="49.41363" lon="5.72963">
        <ele>291.39999389648</ele>
        <time>2024-06-09T07:23:41Z</time>
      </trkpt>
      <trkpt lat="49.41362" lon="5.72965">
        <ele>292</ele>
        <time>2024-06-09T07:23:42Z</time>
      </trkpt>
      <trkpt lat="49.4136" lon="5.72968">
        <ele>292.39999389648</ele>
        <time>2024-06-09T07:23:44Z</time>
      </trkpt>
      <trkpt lat="49.41358" lon="5.7297">
        <ele>293</ele>
        <time>2024-06-09T07:23:46Z</time>
      </trkpt>
      <trkpt lat="49.41356" lon="5.72973">
        <ele>293.39999389648</ele>
        <time>2024-06-09T07:23:48Z</time>
      </trkpt>
      <trkpt lat="49.41355" lon="5.72976">
        <ele>294.20001220703</ele>
        <time>2024-06-09T07:23:50Z</time>
      </trkpt>
      <trkpt lat="49.41353" lon="5.7298">
        <ele>294.39999389648</ele>
        <time>2024-06-09T07:23:52Z</time>
      </trkpt>
      <trkpt lat="49.41352" lon="5.72985">
        <ele>295.20001220703</ele>
        <time>2024-06-09T07:23:54Z</time>
      </trkpt>
      <trkpt lat="49.41351" lon="5.72988">
        <ele>295.60000610352</ele>
        <time>2024-06-09T07:23:56Z</time>
      </trkpt>
      <trkpt lat="49.41349" lon="5.72992">
        <ele>296.20001220703</ele>
        <time>2024-06-09T07:23:58Z</time>
      </trkpt>
      <trkpt lat="49.41348" lon="5.72994">
        <ele>296.39999389648</ele>
        <time>2024-06-09T07:23:59Z</time>
      </trkpt>
      <trkpt lat="49.41346" lon="5.72997">
        <ele>296.60000610352</ele>
        <time>2024-06-09T07:24:00Z</time>
      </trkpt>
      <trkpt lat="49.41345" lon="5.73001">
        <ele>296.60000610352</ele>
        <time>2024-06-09T07:24:01Z</time>
      </trkpt>
      <trkpt lat="49.41345" lon="5.73003">
        <ele>296.79998779297</ele>
        <time>2024-06-09T07:24:02Z</time>
      </trkpt>
      <trkpt lat="49.41345" lon="5.73008">
        <ele>297.20001220703</ele>
        <time>2024-06-09T07:24:04Z</time>
      </trkpt>
      <trkpt lat="49.41345" lon="5.7301">
        <ele>297.39999389648</ele>
        <time>2024-06-09T07:24:05Z</time>
      </trkpt>
      <trkpt lat="49.41345" lon="5.73012">
        <ele>297.60000610352</ele>
        <time>2024-06-09T07:24:06Z</time>
      </trkpt>
      <trkpt lat="49.41346" lon="5.73016">
        <ele>297.79998779297</ele>
        <time>2024-06-09T07:24:08Z</time>
      </trkpt>
      <trkpt lat="49.41347" lon="5.73018">
        <ele>298</ele>
        <time>2024-06-09T07:24:09Z</time>
      </trkpt>
      <trkpt lat="49.41347" lon="5.7302">
        <ele>298.20001220703</ele>
        <time>2024-06-09T07:24:10Z</time>
      </trkpt>
      <trkpt lat="49.41349" lon="5.73025">
        <ele>298.39999389648</ele>
        <time>2024-06-09T07:24:12Z</time>
      </trkpt>
      <trkpt lat="49.4135" lon="5.7303">
        <ele>298.39999389648</ele>
        <time>2024-06-09T07:24:14Z</time>
      </trkpt>
      <trkpt lat="49.41352" lon="5.73036">
        <ele>298.39999389648</ele>
        <time>2024-06-09T07:24:16Z</time>
      </trkpt>
      <trkpt lat="49.41356" lon="5.73042">
        <ele>298.39999389648</ele>
        <time>2024-06-09T07:24:18Z</time>
      </trkpt>
      <trkpt lat="49.41358" lon="5.73049">
        <ele>298.39999389648</ele>
        <time>2024-06-09T07:24:20Z</time>
      </trkpt>
      <trkpt lat="49.4136" lon="5.73055">
        <ele>298.39999389648</ele>
        <time>2024-06-09T07:24:22Z</time>
      </trkpt>
      <trkpt lat="49.41362" lon="5.7306">
        <ele>298.39999389648</ele>
        <time>2024-06-09T07:24:24Z</time>
      </trkpt>
      <trkpt lat="49.41362" lon="5.73062">
        <ele>298.60000610352</ele>
        <time>2024-06-09T07:24:25Z</time>
      </trkpt>
      <trkpt lat="49.41363" lon="5.73065">
        <ele>298.60000610352</ele>
        <time>2024-06-09T07:24:26Z</time>
      </trkpt>
      <trkpt lat="49.41365" lon="5.73071">
        <ele>298.60000610352</ele>
        <time>2024-06-09T07:24:28Z</time>
      </trkpt>
      <trkpt lat="49.41366" lon="5.73077">
        <ele>298.60000610352</ele>
        <time>2024-06-09T07:24:30Z</time>
      </trkpt>
      <trkpt lat="49.41367" lon="5.7308">
        <ele>298.79998779297</ele>
        <time>2024-06-09T07:24:31Z</time>
      </trkpt>
      <trkpt lat="49.41369" lon="5.73083">
        <ele>298.79998779297</ele>
        <time>2024-06-09T07:24:32Z</time>
      </trkpt>
      <trkpt lat="49.41371" lon="5.73088">
        <ele>299</ele>
        <time>2024-06-09T07:24:34Z</time>
      </trkpt>
      <trkpt lat="49.41374" lon="5.73094">
        <ele>299</ele>
        <time>2024-06-09T07:24:36Z</time>
      </trkpt>
      <trkpt lat="49.41375" lon="5.73098">
        <ele>299.20001220703</ele>
        <time>2024-06-09T07:24:38Z</time>
      </trkpt>
      <trkpt lat="49.41376" lon="5.73103">
        <ele>299.20001220703</ele>
        <time>2024-06-09T07:24:40Z</time>
      </trkpt>
      <trkpt lat="49.41378" lon="5.73109">
        <ele>299.39999389648</ele>
        <time>2024-06-09T07:24:42Z</time>
      </trkpt>
      <trkpt lat="49.41381" lon="5.73117">
        <ele>299.39999389648</ele>
        <time>2024-06-09T07:24:44Z</time>
      </trkpt>
      <trkpt lat="49.41385" lon="5.73128">
        <ele>299.39999389648</ele>
        <time>2024-06-09T07:24:46Z</time>
      </trkpt>
      <trkpt lat="49.41389" lon="5.73138">
        <ele>299.39999389648</ele>
        <time>2024-06-09T07:24:48Z</time>
      </trkpt>
      <trkpt lat="49.4139" lon="5.73143">
        <ele>299.39999389648</ele>
        <time>2024-06-09T07:24:49Z</time>
      </trkpt>
      <trkpt lat="49.41392" lon="5.73147">
        <ele>299.39999389648</ele>
        <time>2024-06-09T07:24:50Z</time>
      </trkpt>
      <trkpt lat="49.41394" lon="5.7315">
        <ele>299.39999389648</ele>
        <time>2024-06-09T07:24:51Z</time>
      </trkpt>
      <trkpt lat="49.41395" lon="5.73153">
        <ele>299.60000610352</ele>
        <time>2024-06-09T07:24:52Z</time>
      </trkpt>
      <trkpt lat="49.414" lon="5.7316">
        <ele>299.60000610352</ele>
        <time>2024-06-09T07:24:54Z</time>
      </trkpt>
      <trkpt lat="49.41404" lon="5.73168">
        <ele>299.60000610352</ele>
        <time>2024-06-09T07:24:56Z</time>
      </trkpt>
      <trkpt lat="49.41408" lon="5.73174">
        <ele>299.79998779297</ele>
        <time>2024-06-09T07:24:58Z</time>
      </trkpt>
      <trkpt lat="49.41411" lon="5.73183">
        <ele>300</ele>
        <time>2024-06-09T07:25:00Z</time>
      </trkpt>
      <trkpt lat="49.41416" lon="5.73193">
        <ele>300</ele>
        <time>2024-06-09T07:25:02Z</time>
      </trkpt>
      <trkpt lat="49.41418" lon="5.73197">
        <ele>300</ele>
        <time>2024-06-09T07:25:03Z</time>
      </trkpt>
      <trkpt lat="49.4142" lon="5.732">
        <ele>300</ele>
        <time>2024-06-09T07:25:04Z</time>
      </trkpt>
      <trkpt lat="49.41424" lon="5.73206">
        <ele>300</ele>
        <time>2024-06-09T07:25:06Z</time>
      </trkpt>
      <trkpt lat="49.4143" lon="5.73212">
        <ele>300</ele>
        <time>2024-06-09T07:25:08Z</time>
      </trkpt>
      <trkpt lat="49.41434" lon="5.7322">
        <ele>299.79998779297</ele>
        <time>2024-06-09T07:25:10Z</time>
      </trkpt>
      <trkpt lat="49.41439" lon="5.73228">
        <ele>299.79998779297</ele>
        <time>2024-06-09T07:25:12Z</time>
      </trkpt>
      <trkpt lat="49.41443" lon="5.73236">
        <ele>299.79998779297</ele>
        <time>2024-06-09T07:25:14Z</time>
      </trkpt>
      <trkpt lat="49.41446" lon="5.73239">
        <ele>299.79998779297</ele>
        <time>2024-06-09T07:25:15Z</time>
      </trkpt>
      <trkpt lat="49.41448" lon="5.73242">
        <ele>299.79998779297</ele>
        <time>2024-06-09T07:25:16Z</time>
      </trkpt>
      <trkpt lat="49.41454" lon="5.73251">
        <ele>299.79998779297</ele>
        <time>2024-06-09T07:25:18Z</time>
      </trkpt>
      <trkpt lat="49.41461" lon="5.73259">
        <ele>300</ele>
        <time>2024-06-09T07:25:20Z</time>
      </trkpt>
      <trkpt lat="49.41468" lon="5.73266">
        <ele>300</ele>
        <time>2024-06-09T07:25:22Z</time>
      </trkpt>
      <trkpt lat="49.41476" lon="5.73273">
        <ele>300.20001220703</ele>
        <time>2024-06-09T07:25:24Z</time>
      </trkpt>
      <trkpt lat="49.41483" lon="5.73278">
        <ele>300.20001220703</ele>
        <time>2024-06-09T07:25:26Z</time>
      </trkpt>
      <trkpt lat="49.41492" lon="5.73285">
        <ele>300.20001220703</ele>
        <time>2024-06-09T07:25:28Z</time>
      </trkpt>
      <trkpt lat="49.41499" lon="5.73291">
        <ele>300.20001220703</ele>
        <time>2024-06-09T07:25:30Z</time>
      </trkpt>
      <trkpt lat="49.41504" lon="5.73296">
        <ele>300.20001220703</ele>
        <time>2024-06-09T07:25:32Z</time>
      </trkpt>
      <trkpt lat="49.41507" lon="5.73298">
        <ele>300.20001220703</ele>
        <time>2024-06-09T07:25:33Z</time>
      </trkpt>
      <trkpt lat="49.4151" lon="5.733">
        <ele>300.20001220703</ele>
        <time>2024-06-09T07:25:34Z</time>
      </trkpt>
      <trkpt lat="49.41517" lon="5.7331">
        <ele>300</ele>
        <time>2024-06-09T07:25:36Z</time>
      </trkpt>
      <trkpt lat="49.41526" lon="5.7332">
        <ele>300</ele>
        <time>2024-06-09T07:25:38Z</time>
      </trkpt>
      <trkpt lat="49.4153" lon="5.73322">
        <ele>300</ele>
        <time>2024-06-09T07:25:39Z</time>
      </trkpt>
      <trkpt lat="49.41532" lon="5.73324">
        <ele>300</ele>
        <time>2024-06-09T07:25:40Z</time>
      </trkpt>
      <trkpt lat="49.41537" lon="5.7333">
        <ele>300</ele>
        <time>2024-06-09T07:25:42Z</time>
      </trkpt>
      <trkpt lat="49.41542" lon="5.73336">
        <ele>300</ele>
        <time>2024-06-09T07:25:44Z</time>
      </trkpt>
      <trkpt lat="49.41546" lon="5.73342">
        <ele>300.20001220703</ele>
        <time>2024-06-09T07:25:46Z</time>
      </trkpt>
      <trkpt lat="49.4155" lon="5.73348">
        <ele>300.39999389648</ele>
        <time>2024-06-09T07:25:48Z</time>
      </trkpt>
      <trkpt lat="49.41555" lon="5.73355">
        <ele>300.60000610352</ele>
        <time>2024-06-09T07:25:50Z</time>
      </trkpt>
      <trkpt lat="49.41557" lon="5.73359">
        <ele>300.60000610352</ele>
        <time>2024-06-09T07:25:51Z</time>
      </trkpt>
      <trkpt lat="49.4156" lon="5.73365">
        <ele>300.79998779297</ele>
        <time>2024-06-09T07:25:52Z</time>
      </trkpt>
      <trkpt lat="49.41565" lon="5.73376">
        <ele>300.79998779297</ele>
        <time>2024-06-09T07:25:54Z</time>
      </trkpt>
      <trkpt lat="49.4157" lon="5.73386">
        <ele>301.20001220703</ele>
        <time>2024-06-09T07:25:56Z</time>
      </trkpt>
      <trkpt lat="49.41574" lon="5.73393">
        <ele>301.39999389648</ele>
        <time>2024-06-09T07:25:58Z</time>
      </trkpt>
      <trkpt lat="49.4158" lon="5.73403">
        <ele>301.39999389648</ele>
        <time>2024-06-09T07:26:00Z</time>
      </trkpt>
      <trkpt lat="49.41585" lon="5.73412">
        <ele>301.79998779297</ele>
        <time>2024-06-09T07:26:02Z</time>
      </trkpt>
      <trkpt lat="49.41587" lon="5.73415">
        <ele>302</ele>
        <time>2024-06-09T07:26:03Z</time>
      </trkpt>
      <trkpt lat="49.41589" lon="5.73418">
        <ele>302.20001220703</ele>
        <time>2024-06-09T07:26:04Z</time>
      </trkpt>
      <trkpt lat="49.41595" lon="5.73421">
        <ele>302.39999389648</ele>
        <time>2024-06-09T07:26:06Z</time>
      </trkpt>
      <trkpt lat="49.41601" lon="5.7342">
        <ele>302.39999389648</ele>
        <time>2024-06-09T07:26:08Z</time>
      </trkpt>
      <trkpt lat="49.41607" lon="5.73418">
        <ele>302.39999389648</ele>
        <time>2024-06-09T07:26:10Z</time>
      </trkpt>
      <trkpt lat="49.41613" lon="5.73414">
        <ele>302.39999389648</ele>
        <time>2024-06-09T07:26:12Z</time>
      </trkpt>
      <trkpt lat="49.41616" lon="5.73412">
        <ele>302.39999389648</ele>
        <time>2024-06-09T07:26:13Z</time>
      </trkpt>
      <trkpt lat="49.4162" lon="5.7341">
        <ele>302.39999389648</ele>
        <time>2024-06-09T07:26:14Z</time>
      </trkpt>
      <trkpt lat="49.41626" lon="5.73408">
        <ele>302.20001220703</ele>
        <time>2024-06-09T07:26:16Z</time>
      </trkpt>
      <trkpt lat="49.41629" lon="5.73406">
        <ele>302</ele>
        <time>2024-06-09T07:26:17Z</time>
      </trkpt>
      <trkpt lat="49.41632" lon="5.73405">
        <ele>301.79998779297</ele>
        <time>2024-06-09T07:26:18Z</time>
      </trkpt>
      <trkpt lat="49.41637" lon="5.73406">
        <ele>300.60000610352</ele>
        <time>2024-06-09T07:26:20Z</time>
      </trkpt>
      <trkpt lat="49.41639" lon="5.73407">
        <ele>299.39999389648</ele>
        <time>2024-06-09T07:26:21Z</time>
      </trkpt>
      <trkpt lat="49.41641" lon="5.73406">
        <ele>298.20001220703</ele>
        <time>2024-06-09T07:26:22Z</time>
      </trkpt>
      <trkpt lat="49.41644" lon="5.73405">
        <ele>297.20001220703</ele>
        <time>2024-06-09T07:26:23Z</time>
      </trkpt>
      <trkpt lat="49.41647" lon="5.73403">
        <ele>296.20001220703</ele>
        <time>2024-06-09T07:26:24Z</time>
      </trkpt>
      <trkpt lat="49.4165" lon="5.73401">
        <ele>295.20001220703</ele>
        <time>2024-06-09T07:26:25Z</time>
      </trkpt>
      <trkpt lat="49.41657" lon="5.734">
        <ele>294.39999389648</ele>
        <time>2024-06-09T07:26:26Z</time>
      </trkpt>
      <trkpt lat="49.41664" lon="5.73397">
        <ele>292.79998779297</ele>
        <time>2024-06-09T07:26:28Z</time>
      </trkpt>
      <trkpt lat="49.41667" lon="5.73395">
        <ele>292.20001220703</ele>
        <time>2024-06-09T07:26:29Z</time>
      </trkpt>
      <trkpt lat="49.4167" lon="5.73394">
        <ele>291.20001220703</ele>
        <time>2024-06-09T07:26:30Z</time>
      </trkpt>
      <trkpt lat="49.41673" lon="5.73394">
        <ele>290</ele>
        <time>2024-06-09T07:26:31Z</time>
      </trkpt>
      <trkpt lat="49.41676" lon="5.73393">
        <ele>288</ele>
        <time>2024-06-09T07:26:32Z</time>
      </trkpt>
      <trkpt lat="49.41682" lon="5.73394">
        <ele>286.79998779297</ele>
        <time>2024-06-09T07:26:34Z</time>
      </trkpt>
      <trkpt lat="49.41684" lon="5.73396">
        <ele>286.60000610352</ele>
        <time>2024-06-09T07:26:35Z</time>
      </trkpt>
      <trkpt lat="49.41686" lon="5.73396">
        <ele>286.20001220703</ele>
        <time>2024-06-09T07:26:36Z</time>
      </trkpt>
      <trkpt lat="49.41688" lon="5.73397">
        <ele>285.60000610352</ele>
        <time>2024-06-09T07:26:37Z</time>
      </trkpt>
      <trkpt lat="49.41691" lon="5.73398">
        <ele>284.79998779297</ele>
        <time>2024-06-09T07:26:38Z</time>
      </trkpt>
      <trkpt lat="49.41692" lon="5.734">
        <ele>284.20001220703</ele>
        <time>2024-06-09T07:26:39Z</time>
      </trkpt>
      <trkpt lat="49.41694" lon="5.73402">
        <ele>283.79998779297</ele>
        <time>2024-06-09T07:26:40Z</time>
      </trkpt>
      <trkpt lat="49.41697" lon="5.73405">
        <ele>283.39999389648</ele>
        <time>2024-06-09T07:26:42Z</time>
      </trkpt>
      <trkpt lat="49.41701" lon="5.73407">
        <ele>283.20001220703</ele>
        <time>2024-06-09T07:26:44Z</time>
      </trkpt>
      <trkpt lat="49.41703" lon="5.73409">
        <ele>283</ele>
        <time>2024-06-09T07:26:45Z</time>
      </trkpt>
      <trkpt lat="49.41704" lon="5.7341">
        <ele>283</ele>
        <time>2024-06-09T07:26:46Z</time>
      </trkpt>
      <trkpt lat="49.41709" lon="5.73413">
        <ele>282.79998779297</ele>
        <time>2024-06-09T07:26:48Z</time>
      </trkpt>
      <trkpt lat="49.41713" lon="5.73414">
        <ele>282.60000610352</ele>
        <time>2024-06-09T07:26:50Z</time>
      </trkpt>
      <trkpt lat="49.41718" lon="5.73414">
        <ele>282.60000610352</ele>
        <time>2024-06-09T07:26:51Z</time>
      </trkpt>
      <trkpt lat="49.41721" lon="5.73414">
        <ele>282.60000610352</ele>
        <time>2024-06-09T07:26:52Z</time>
      </trkpt>
      <trkpt lat="49.41726" lon="5.73415">
        <ele>282.79998779297</ele>
        <time>2024-06-09T07:26:54Z</time>
      </trkpt>
      <trkpt lat="49.41731" lon="5.73417">
        <ele>283</ele>
        <time>2024-06-09T07:26:56Z</time>
      </trkpt>
      <trkpt lat="49.41733" lon="5.73419">
        <ele>283.20001220703</ele>
        <time>2024-06-09T07:26:57Z</time>
      </trkpt>
      <trkpt lat="49.41734" lon="5.73421">
        <ele>283.60000610352</ele>
        <time>2024-06-09T07:26:58Z</time>
      </trkpt>
      <trkpt lat="49.41738" lon="5.73425">
        <ele>283.79998779297</ele>
        <time>2024-06-09T07:27:00Z</time>
      </trkpt>
      <trkpt lat="49.4174" lon="5.73426">
        <ele>284</ele>
        <time>2024-06-09T07:27:01Z</time>
      </trkpt>
      <trkpt lat="49.41741" lon="5.73427">
        <ele>284</ele>
        <time>2024-06-09T07:27:02Z</time>
      </trkpt>
      <trkpt lat="49.41744" lon="5.73429">
        <ele>284.20001220703</ele>
        <time>2024-06-09T07:27:04Z</time>
      </trkpt>
      <trkpt lat="49.41748" lon="5.73432">
        <ele>284.39999389648</ele>
        <time>2024-06-09T07:27:06Z</time>
      </trkpt>
      <trkpt lat="49.41751" lon="5.73435">
        <ele>284.79998779297</ele>
        <time>2024-06-09T07:27:08Z</time>
      </trkpt>
      <trkpt lat="49.41753" lon="5.73438">
        <ele>285</ele>
        <time>2024-06-09T07:27:10Z</time>
      </trkpt>
      <trkpt lat="49.41755" lon="5.73441">
        <ele>285.39999389648</ele>
        <time>2024-06-09T07:27:12Z</time>
      </trkpt>
      <trkpt lat="49.41758" lon="5.73443">
        <ele>285.60000610352</ele>
        <time>2024-06-09T07:27:14Z</time>
      </trkpt>
      <trkpt lat="49.4176" lon="5.73445">
        <ele>285.60000610352</ele>
        <time>2024-06-09T07:27:16Z</time>
      </trkpt>
      <trkpt lat="49.41762" lon="5.73448">
        <ele>286</ele>
        <time>2024-06-09T07:27:18Z</time>
      </trkpt>
      <trkpt lat="49.41762" lon="5.73449">
        <ele>286</ele>
        <time>2024-06-09T07:27:19Z</time>
      </trkpt>
      <trkpt lat="49.41764" lon="5.7345">
        <ele>286.20001220703</ele>
        <time>2024-06-09T07:27:20Z</time>
      </trkpt>
      <trkpt lat="49.41765" lon="5.73455">
        <ele>286.60000610352</ele>
        <time>2024-06-09T07:27:22Z</time>
      </trkpt>
      <trkpt lat="49.41769" lon="5.73459">
        <ele>287</ele>
        <time>2024-06-09T07:27:24Z</time>
      </trkpt>
      <trkpt lat="49.41771" lon="5.73463">
        <ele>287.20001220703</ele>
        <time>2024-06-09T07:27:26Z</time>
      </trkpt>
      <trkpt lat="49.41772" lon="5.73466">
        <ele>287.39999389648</ele>
        <time>2024-06-09T07:27:27Z</time>
      </trkpt>
      <trkpt lat="49.41773" lon="5.73469">
        <ele>287.60000610352</ele>
        <time>2024-06-09T07:27:28Z</time>
      </trkpt>
      <trkpt lat="49.41775" lon="5.73474">
        <ele>288.20001220703</ele>
        <time>2024-06-09T07:27:30Z</time>
      </trkpt>
      <trkpt lat="49.41777" lon="5.7348">
        <ele>288.60000610352</ele>
        <time>2024-06-09T07:27:32Z</time>
      </trkpt>
      <trkpt lat="49.41778" lon="5.73486">
        <ele>289.20001220703</ele>
        <time>2024-06-09T07:27:34Z</time>
      </trkpt>
      <trkpt lat="49.41777" lon="5.73491">
        <ele>289.39999389648</ele>
        <time>2024-06-09T07:27:36Z</time>
      </trkpt>
      <trkpt lat="49.41777" lon="5.73495">
        <ele>289.39999389648</ele>
        <time>2024-06-09T07:27:38Z</time>
      </trkpt>
      <trkpt lat="49.41776" lon="5.73501">
        <ele>289.39999389648</ele>
        <time>2024-06-09T07:27:40Z</time>
      </trkpt>
      <trkpt lat="49.41775" lon="5.73504">
        <ele>289.60000610352</ele>
        <time>2024-06-09T07:27:42Z</time>
      </trkpt>
      <trkpt lat="49.41774" lon="5.73506">
        <ele>289.60000610352</ele>
        <time>2024-06-09T07:27:43Z</time>
      </trkpt>
      <trkpt lat="49.41773" lon="5.73507">
        <ele>289.60000610352</ele>
        <time>2024-06-09T07:27:44Z</time>
      </trkpt>
      <trkpt lat="49.41771" lon="5.7351">
        <ele>289.60000610352</ele>
        <time>2024-06-09T07:27:46Z</time>
      </trkpt>
      <trkpt lat="49.41771" lon="5.73512">
        <ele>289.60000610352</ele>
        <time>2024-06-09T07:27:47Z</time>
      </trkpt>
      <trkpt lat="49.4177" lon="5.73515">
        <ele>289.60000610352</ele>
        <time>2024-06-09T07:27:48Z</time>
      </trkpt>
      <trkpt lat="49.41769" lon="5.73521">
        <ele>289.79998779297</ele>
        <time>2024-06-09T07:27:50Z</time>
      </trkpt>
      <trkpt lat="49.41769" lon="5.73527">
        <ele>290</ele>
        <time>2024-06-09T07:27:52Z</time>
      </trkpt>
      <trkpt lat="49.41769" lon="5.73532">
        <ele>290.20001220703</ele>
        <time>2024-06-09T07:27:54Z</time>
      </trkpt>
      <trkpt lat="49.41771" lon="5.73537">
        <ele>290.20001220703</ele>
        <time>2024-06-09T07:27:56Z</time>
      </trkpt>
      <trkpt lat="49.41774" lon="5.7354">
        <ele>290.60000610352</ele>
        <time>2024-06-09T07:27:58Z</time>
      </trkpt>
      <trkpt lat="49.41775" lon="5.73542">
        <ele>290.60000610352</ele>
        <time>2024-06-09T07:27:59Z</time>
      </trkpt>
      <trkpt lat="49.41776" lon="5.73544">
        <ele>290.60000610352</ele>
        <time>2024-06-09T07:28:00Z</time>
      </trkpt>
      <trkpt lat="49.41779" lon="5.73549">
        <ele>290.60000610352</ele>
        <time>2024-06-09T07:28:02Z</time>
      </trkpt>
      <trkpt lat="49.41782" lon="5.73554">
        <ele>290.79998779297</ele>
        <time>2024-06-09T07:28:04Z</time>
      </trkpt>
      <trkpt lat="49.41785" lon="5.73559">
        <ele>290.79998779297</ele>
        <time>2024-06-09T07:28:06Z</time>
      </trkpt>
      <trkpt lat="49.41789" lon="5.73562">
        <ele>290.79998779297</ele>
        <time>2024-06-09T07:28:08Z</time>
      </trkpt>
      <trkpt lat="49.41792" lon="5.73567">
        <ele>290.60000610352</ele>
        <time>2024-06-09T07:28:10Z</time>
      </trkpt>
      <trkpt lat="49.41795" lon="5.73573">
        <ele>290.60000610352</ele>
        <time>2024-06-09T07:28:12Z</time>
      </trkpt>
      <trkpt lat="49.41798" lon="5.73577">
        <ele>290.60000610352</ele>
        <time>2024-06-09T07:28:13Z</time>
      </trkpt>
      <trkpt lat="49.418" lon="5.7358">
        <ele>290.60000610352</ele>
        <time>2024-06-09T07:28:14Z</time>
      </trkpt>
      <trkpt lat="49.41806" lon="5.73585">
        <ele>290.60000610352</ele>
        <time>2024-06-09T07:28:16Z</time>
      </trkpt>
      <trkpt lat="49.41811" lon="5.73589">
        <ele>290.79998779297</ele>
        <time>2024-06-09T07:28:18Z</time>
      </trkpt>
      <trkpt lat="49.41813" lon="5.73592">
        <ele>290.79998779297</ele>
        <time>2024-06-09T07:28:19Z</time>
      </trkpt>
      <trkpt lat="49.41815" lon="5.73596">
        <ele>290.79998779297</ele>
        <time>2024-06-09T07:28:20Z</time>
      </trkpt>
      <trkpt lat="49.41818" lon="5.73599">
        <ele>291</ele>
        <time>2024-06-09T07:28:22Z</time>
      </trkpt>
      <trkpt lat="49.41823" lon="5.73606">
        <ele>291.20001220703</ele>
        <time>2024-06-09T07:28:24Z</time>
      </trkpt>
      <trkpt lat="49.41828" lon="5.73612">
        <ele>291.39999389648</ele>
        <time>2024-06-09T07:28:26Z</time>
      </trkpt>
      <trkpt lat="49.4183" lon="5.73615">
        <ele>291.60000610352</ele>
        <time>2024-06-09T07:28:27Z</time>
      </trkpt>
      <trkpt lat="49.41832" lon="5.73617">
        <ele>291.79998779297</ele>
        <time>2024-06-09T07:28:28Z</time>
      </trkpt>
      <trkpt lat="49.41835" lon="5.73623">
        <ele>292</ele>
        <time>2024-06-09T07:28:30Z</time>
      </trkpt>
      <trkpt lat="49.41838" lon="5.73631">
        <ele>292.39999389648</ele>
        <time>2024-06-09T07:28:32Z</time>
      </trkpt>
      <trkpt lat="49.41839" lon="5.73634">
        <ele>292.39999389648</ele>
        <time>2024-06-09T07:28:33Z</time>
      </trkpt>
      <trkpt lat="49.41841" lon="5.73637">
        <ele>292.60000610352</ele>
        <time>2024-06-09T07:28:34Z</time>
      </trkpt>
      <trkpt lat="49.41846" lon="5.73642">
        <ele>292.60000610352</ele>
        <time>2024-06-09T07:28:36Z</time>
      </trkpt>
      <trkpt lat="49.41849" lon="5.73647">
        <ele>293</ele>
        <time>2024-06-09T07:28:38Z</time>
      </trkpt>
      <trkpt lat="49.41852" lon="5.73653">
        <ele>293.20001220703</ele>
        <time>2024-06-09T07:28:40Z</time>
      </trkpt>
      <trkpt lat="49.41855" lon="5.7366">
        <ele>293.39999389648</ele>
        <time>2024-06-09T07:28:42Z</time>
      </trkpt>
      <trkpt lat="49.41857" lon="5.73666">
        <ele>293.79998779297</ele>
        <time>2024-06-09T07:28:44Z</time>
      </trkpt>
      <trkpt lat="49.41861" lon="5.73672">
        <ele>294.20001220703</ele>
        <time>2024-06-09T07:28:45Z</time>
      </trkpt>
      <trkpt lat="49.41864" lon="5.73676">
        <ele>294.60000610352</ele>
        <time>2024-06-09T07:28:46Z</time>
      </trkpt>
      <trkpt lat="49.41871" lon="5.73683">
        <ele>295</ele>
        <time>2024-06-09T07:28:48Z</time>
      </trkpt>
      <trkpt lat="49.41873" lon="5.73687">
        <ele>295.20001220703</ele>
        <time>2024-06-09T07:28:49Z</time>
      </trkpt>
      <trkpt lat="49.41875" lon="5.73691">
        <ele>295.60000610352</ele>
        <time>2024-06-09T07:28:50Z</time>
      </trkpt>
      <trkpt lat="49.41878" lon="5.73695">
        <ele>295.79998779297</ele>
        <time>2024-06-09T07:28:51Z</time>
      </trkpt>
      <trkpt lat="49.4188" lon="5.73698">
        <ele>296</ele>
        <time>2024-06-09T07:28:52Z</time>
      </trkpt>
      <trkpt lat="49.41884" lon="5.73698">
        <ele>296.39999389648</ele>
        <time>2024-06-09T07:28:54Z</time>
      </trkpt>
      <trkpt lat="49.41888" lon="5.73698">
        <ele>296.60000610352</ele>
        <time>2024-06-09T07:28:56Z</time>
      </trkpt>
      <trkpt lat="49.41893" lon="5.73702">
        <ele>296.60000610352</ele>
        <time>2024-06-09T07:28:58Z</time>
      </trkpt>
      <trkpt lat="49.41896" lon="5.73708">
        <ele>296.60000610352</ele>
        <time>2024-06-09T07:29:00Z</time>
      </trkpt>
      <trkpt lat="49.419" lon="5.73714">
        <ele>297</ele>
        <time>2024-06-09T07:29:02Z</time>
      </trkpt>
      <trkpt lat="49.41905" lon="5.7372">
        <ele>297</ele>
        <time>2024-06-09T07:29:04Z</time>
      </trkpt>
      <trkpt lat="49.41908" lon="5.73723">
        <ele>297.20001220703</ele>
        <time>2024-06-09T07:29:05Z</time>
      </trkpt>
      <trkpt lat="49.4191" lon="5.73725">
        <ele>297</ele>
        <time>2024-06-09T07:29:06Z</time>
      </trkpt>
      <trkpt lat="49.41913" lon="5.73731">
        <ele>297.20001220703</ele>
        <time>2024-06-09T07:29:08Z</time>
      </trkpt>
      <trkpt lat="49.41914" lon="5.73738">
        <ele>297.39999389648</ele>
        <time>2024-06-09T07:29:10Z</time>
      </trkpt>
      <trkpt lat="49.41916" lon="5.73744">
        <ele>297.79998779297</ele>
        <time>2024-06-09T07:29:12Z</time>
      </trkpt>
      <trkpt lat="49.41916" lon="5.73746">
        <ele>297.79998779297</ele>
        <time>2024-06-09T07:29:13Z</time>
      </trkpt>
      <trkpt lat="49.41917" lon="5.73748">
        <ele>298</ele>
        <time>2024-06-09T07:29:14Z</time>
      </trkpt>
      <trkpt lat="49.41918" lon="5.73753">
        <ele>298.20001220703</ele>
        <time>2024-06-09T07:29:16Z</time>
      </trkpt>
      <trkpt lat="49.4192" lon="5.73757">
        <ele>298.20001220703</ele>
        <time>2024-06-09T07:29:18Z</time>
      </trkpt>
      <trkpt lat="49.41923" lon="5.73762">
        <ele>298.60000610352</ele>
        <time>2024-06-09T07:29:20Z</time>
      </trkpt>
      <trkpt lat="49.41924" lon="5.73764">
        <ele>299</ele>
        <time>2024-06-09T07:29:21Z</time>
      </trkpt>
      <trkpt lat="49.41925" lon="5.73766">
        <ele>299.20001220703</ele>
        <time>2024-06-09T07:29:22Z</time>
      </trkpt>
      <trkpt lat="49.41926" lon="5.73771">
        <ele>299.79998779297</ele>
        <time>2024-06-09T07:29:24Z</time>
      </trkpt>
      <trkpt lat="49.41927" lon="5.73774">
        <ele>300</ele>
        <time>2024-06-09T07:29:25Z</time>
      </trkpt>
      <trkpt lat="49.41927" lon="5.73777">
        <ele>300.39999389648</ele>
        <time>2024-06-09T07:29:26Z</time>
      </trkpt>
      <trkpt lat="49.41928" lon="5.7378">
        <ele>300.39999389648</ele>
        <time>2024-06-09T07:29:27Z</time>
      </trkpt>
      <trkpt lat="49.41928" lon="5.73782">
        <ele>300.60000610352</ele>
        <time>2024-06-09T07:29:28Z</time>
      </trkpt>
      <trkpt lat="49.41928" lon="5.73787">
        <ele>300.60000610352</ele>
        <time>2024-06-09T07:29:30Z</time>
      </trkpt>
      <trkpt lat="49.41928" lon="5.73792">
        <ele>300.79998779297</ele>
        <time>2024-06-09T07:29:32Z</time>
      </trkpt>
      <trkpt lat="49.41929" lon="5.73795">
        <ele>301</ele>
        <time>2024-06-09T07:29:33Z</time>
      </trkpt>
      <trkpt lat="49.4193" lon="5.73798">
        <ele>301.20001220703</ele>
        <time>2024-06-09T07:29:34Z</time>
      </trkpt>
      <trkpt lat="49.4193" lon="5.73804">
        <ele>301.79998779297</ele>
        <time>2024-06-09T07:29:36Z</time>
      </trkpt>
      <trkpt lat="49.4193" lon="5.73809">
        <ele>302.39999389648</ele>
        <time>2024-06-09T07:29:38Z</time>
      </trkpt>
      <trkpt lat="49.4193" lon="5.73814">
        <ele>303</ele>
        <time>2024-06-09T07:29:40Z</time>
      </trkpt>
      <trkpt lat="49.4193" lon="5.73816">
        <ele>303.20001220703</ele>
        <time>2024-06-09T07:29:41Z</time>
      </trkpt>
      <trkpt lat="49.41931" lon="5.73819">
        <ele>303.20001220703</ele>
        <time>2024-06-09T07:29:42Z</time>
      </trkpt>
      <trkpt lat="49.41933" lon="5.73824">
        <ele>303.60000610352</ele>
        <time>2024-06-09T07:29:44Z</time>
      </trkpt>
      <trkpt lat="49.41935" lon="5.73831">
        <ele>304</ele>
        <time>2024-06-09T07:29:46Z</time>
      </trkpt>
      <trkpt lat="49.41937" lon="5.73837">
        <ele>304.79998779297</ele>
        <time>2024-06-09T07:29:48Z</time>
      </trkpt>
      <trkpt lat="49.4194" lon="5.73845">
        <ele>305.39999389648</ele>
        <time>2024-06-09T07:29:50Z</time>
      </trkpt>
      <trkpt lat="49.41943" lon="5.73852">
        <ele>305.79998779297</ele>
        <time>2024-06-09T07:29:52Z</time>
      </trkpt>
      <trkpt lat="49.41947" lon="5.73859">
        <ele>305.79998779297</ele>
        <time>2024-06-09T07:29:54Z</time>
      </trkpt>
      <trkpt lat="49.41949" lon="5.73863">
        <ele>305.79998779297</ele>
        <time>2024-06-09T07:29:55Z</time>
      </trkpt>
      <trkpt lat="49.41951" lon="5.73867">
        <ele>305.79998779297</ele>
        <time>2024-06-09T07:29:56Z</time>
      </trkpt>
      <trkpt lat="49.41955" lon="5.73877">
        <ele>305.79998779297</ele>
        <time>2024-06-09T07:29:58Z</time>
      </trkpt>
      <trkpt lat="49.41959" lon="5.73885">
        <ele>305.79998779297</ele>
        <time>2024-06-09T07:30:00Z</time>
      </trkpt>
      <trkpt lat="49.41963" lon="5.73892">
        <ele>305.79998779297</ele>
        <time>2024-06-09T07:30:02Z</time>
      </trkpt>
      <trkpt lat="49.41966" lon="5.739">
        <ele>305.79998779297</ele>
        <time>2024-06-09T07:30:04Z</time>
      </trkpt>
      <trkpt lat="49.41971" lon="5.73906">
        <ele>306</ele>
        <time>2024-06-09T07:30:06Z</time>
      </trkpt>
      <trkpt lat="49.41975" lon="5.7391">
        <ele>306.39999389648</ele>
        <time>2024-06-09T07:30:08Z</time>
      </trkpt>
      <trkpt lat="49.41979" lon="5.73916">
        <ele>306.60000610352</ele>
        <time>2024-06-09T07:30:10Z</time>
      </trkpt>
      <trkpt lat="49.4198" lon="5.73918">
        <ele>306.60000610352</ele>
        <time>2024-06-09T07:30:11Z</time>
      </trkpt>
      <trkpt lat="49.41982" lon="5.73922">
        <ele>306.60000610352</ele>
        <time>2024-06-09T07:30:12Z</time>
      </trkpt>
      <trkpt lat="49.41987" lon="5.7393">
        <ele>306.60000610352</ele>
        <time>2024-06-09T07:30:14Z</time>
      </trkpt>
      <trkpt lat="49.4199" lon="5.73936">
        <ele>306.60000610352</ele>
        <time>2024-06-09T07:30:16Z</time>
      </trkpt>
      <trkpt lat="49.41994" lon="5.73941">
        <ele>306.60000610352</ele>
        <time>2024-06-09T07:30:18Z</time>
      </trkpt>
      <trkpt lat="49.41999" lon="5.73945">
        <ele>306.60000610352</ele>
        <time>2024-06-09T07:30:20Z</time>
      </trkpt>
      <trkpt lat="49.42003" lon="5.73951">
        <ele>306.60000610352</ele>
        <time>2024-06-09T07:30:22Z</time>
      </trkpt>
      <trkpt lat="49.42011" lon="5.73957">
        <ele>306.39999389648</ele>
        <time>2024-06-09T07:30:24Z</time>
      </trkpt>
      <trkpt lat="49.42015" lon="5.73961">
        <ele>306.39999389648</ele>
        <time>2024-06-09T07:30:25Z</time>
      </trkpt>
      <trkpt lat="49.42019" lon="5.73963">
        <ele>306.39999389648</ele>
        <time>2024-06-09T07:30:26Z</time>
      </trkpt>
      <trkpt lat="49.4203" lon="5.73963">
        <ele>306.20001220703</ele>
        <time>2024-06-09T07:30:28Z</time>
      </trkpt>
      <trkpt lat="49.42036" lon="5.73962">
        <ele>306.20001220703</ele>
        <time>2024-06-09T07:30:29Z</time>
      </trkpt>
      <trkpt lat="49.42042" lon="5.73958">
        <ele>306</ele>
        <time>2024-06-09T07:30:30Z</time>
      </trkpt>
      <trkpt lat="49.42048" lon="5.73953">
        <ele>305.79998779297</ele>
        <time>2024-06-09T07:30:31Z</time>
      </trkpt>
      <trkpt lat="49.42055" lon="5.73949">
        <ele>305.39999389648</ele>
        <time>2024-06-09T07:30:32Z</time>
      </trkpt>
      <trkpt lat="49.42062" lon="5.7395">
        <ele>304.79998779297</ele>
        <time>2024-06-09T07:30:33Z</time>
      </trkpt>
      <trkpt lat="49.42067" lon="5.7395">
        <ele>304.39999389648</ele>
        <time>2024-06-09T07:30:34Z</time>
      </trkpt>
      <trkpt lat="49.42074" lon="5.7395">
        <ele>303.20001220703</ele>
        <time>2024-06-09T07:30:35Z</time>
      </trkpt>
      <trkpt lat="49.4208" lon="5.73951">
        <ele>301.60000610352</ele>
        <time>2024-06-09T07:30:36Z</time>
      </trkpt>
      <trkpt lat="49.42087" lon="5.73953">
        <ele>300.20001220703</ele>
        <time>2024-06-09T07:30:37Z</time>
      </trkpt>
      <trkpt lat="49.42092" lon="5.73955">
        <ele>299.39999389648</ele>
        <time>2024-06-09T07:30:38Z</time>
      </trkpt>
      <trkpt lat="49.42095" lon="5.73956">
        <ele>298.79998779297</ele>
        <time>2024-06-09T07:30:39Z</time>
      </trkpt>
      <trkpt lat="49.42097" lon="5.73958">
        <ele>298.20001220703</ele>
        <time>2024-06-09T07:30:40Z</time>
      </trkpt>
      <trkpt lat="49.421" lon="5.73962">
        <ele>297.60000610352</ele>
        <time>2024-06-09T07:30:42Z</time>
      </trkpt>
      <trkpt lat="49.42102" lon="5.73968">
        <ele>297.60000610352</ele>
        <time>2024-06-09T07:30:44Z</time>
      </trkpt>
      <trkpt lat="49.42102" lon="5.73971">
        <ele>297.60000610352</ele>
        <time>2024-06-09T07:30:45Z</time>
      </trkpt>
      <trkpt lat="49.42103" lon="5.73974">
        <ele>297.60000610352</ele>
        <time>2024-06-09T07:30:46Z</time>
      </trkpt>
      <trkpt lat="49.42102" lon="5.73981">
        <ele>297.39999389648</ele>
        <time>2024-06-09T07:30:48Z</time>
      </trkpt>
      <trkpt lat="49.42102" lon="5.73988">
        <ele>297.60000610352</ele>
        <time>2024-06-09T07:30:50Z</time>
      </trkpt>
      <trkpt lat="49.42102" lon="5.73992">
        <ele>297.60000610352</ele>
        <time>2024-06-09T07:30:52Z</time>
      </trkpt>
      <trkpt lat="49.42102" lon="5.73996">
        <ele>298.20001220703</ele>
        <time>2024-06-09T07:30:54Z</time>
      </trkpt>
      <trkpt lat="49.42102" lon="5.74001">
        <ele>298.60000610352</ele>
        <time>2024-06-09T07:30:56Z</time>
      </trkpt>
      <trkpt lat="49.421" lon="5.74007">
        <ele>299.20001220703</ele>
        <time>2024-06-09T07:30:58Z</time>
      </trkpt>
      <trkpt lat="49.421" lon="5.7401">
        <ele>299.39999389648</ele>
        <time>2024-06-09T07:30:59Z</time>
      </trkpt>
      <trkpt lat="49.42099" lon="5.74012">
        <ele>299.60000610352</ele>
        <time>2024-06-09T07:31:00Z</time>
      </trkpt>
      <trkpt lat="49.42098" lon="5.74016">
        <ele>300.20001220703</ele>
        <time>2024-06-09T07:31:02Z</time>
      </trkpt>
      <trkpt lat="49.42097" lon="5.7402">
        <ele>300.79998779297</ele>
        <time>2024-06-09T07:31:04Z</time>
      </trkpt>
      <trkpt lat="49.42095" lon="5.74026">
        <ele>301.39999389648</ele>
        <time>2024-06-09T07:31:06Z</time>
      </trkpt>
      <trkpt lat="49.42095" lon="5.7403">
        <ele>301.79998779297</ele>
        <time>2024-06-09T07:31:08Z</time>
      </trkpt>
      <trkpt lat="49.42094" lon="5.74035">
        <ele>302.39999389648</ele>
        <time>2024-06-09T07:31:10Z</time>
      </trkpt>
      <trkpt lat="49.42093" lon="5.74039">
        <ele>303</ele>
        <time>2024-06-09T07:31:12Z</time>
      </trkpt>
      <trkpt lat="49.42093" lon="5.74043">
        <ele>303.39999389648</ele>
        <time>2024-06-09T07:31:14Z</time>
      </trkpt>
      <trkpt lat="49.42092" lon="5.74045">
        <ele>303.60000610352</ele>
        <time>2024-06-09T07:31:15Z</time>
      </trkpt>
      <trkpt lat="49.42092" lon="5.74047">
        <ele>304.20001220703</ele>
        <time>2024-06-09T07:31:16Z</time>
      </trkpt>
      <trkpt lat="49.42092" lon="5.74051">
        <ele>304.79998779297</ele>
        <time>2024-06-09T07:31:18Z</time>
      </trkpt>
      <trkpt lat="49.42092" lon="5.74055">
        <ele>305.39999389648</ele>
        <time>2024-06-09T07:31:20Z</time>
      </trkpt>
      <trkpt lat="49.42092" lon="5.74058">
        <ele>306</ele>
        <time>2024-06-09T07:31:22Z</time>
      </trkpt>
      <trkpt lat="49.42092" lon="5.7406">
        <ele>306.39999389648</ele>
        <time>2024-06-09T07:31:23Z</time>
      </trkpt>
      <trkpt lat="49.42092" lon="5.74062">
        <ele>306.60000610352</ele>
        <time>2024-06-09T07:31:24Z</time>
      </trkpt>
      <trkpt lat="49.42091" lon="5.74065">
        <ele>307.20001220703</ele>
        <time>2024-06-09T07:31:26Z</time>
      </trkpt>
      <trkpt lat="49.4209" lon="5.74069">
        <ele>307.60000610352</ele>
        <time>2024-06-09T07:31:28Z</time>
      </trkpt>
      <trkpt lat="49.4209" lon="5.74071">
        <ele>307.79998779297</ele>
        <time>2024-06-09T07:31:29Z</time>
      </trkpt>
      <trkpt lat="49.42089" lon="5.74073">
        <ele>308</ele>
        <time>2024-06-09T07:31:30Z</time>
      </trkpt>
      <trkpt lat="49.42088" lon="5.74076">
        <ele>308.60000610352</ele>
        <time>2024-06-09T07:31:32Z</time>
      </trkpt>
      <trkpt lat="49.42087" lon="5.74078">
        <ele>309</ele>
        <time>2024-06-09T07:31:33Z</time>
      </trkpt>
      <trkpt lat="49.42087" lon="5.7408">
        <ele>309.20001220703</ele>
        <time>2024-06-09T07:31:34Z</time>
      </trkpt>
      <trkpt lat="49.42085" lon="5.74083">
        <ele>309.60000610352</ele>
        <time>2024-06-09T07:31:36Z</time>
      </trkpt>
      <trkpt lat="49.42083" lon="5.74088">
        <ele>310</ele>
        <time>2024-06-09T07:31:38Z</time>
      </trkpt>
      <trkpt lat="49.42082" lon="5.74089">
        <ele>310.20001220703</ele>
        <time>2024-06-09T07:31:39Z</time>
      </trkpt>
      <trkpt lat="49.4208" lon="5.7409">
        <ele>310.20001220703</ele>
        <time>2024-06-09T07:31:40Z</time>
      </trkpt>
      <trkpt lat="49.42078" lon="5.74091">
        <ele>310.39999389648</ele>
        <time>2024-06-09T07:31:41Z</time>
      </trkpt>
      <trkpt lat="49.42077" lon="5.74091">
        <ele>310.60000610352</ele>
        <time>2024-06-09T07:31:42Z</time>
      </trkpt>
      <trkpt lat="49.42073" lon="5.74092">
        <ele>311.20001220703</ele>
        <time>2024-06-09T07:31:44Z</time>
      </trkpt>
      <trkpt lat="49.42071" lon="5.74091">
        <ele>311.20001220703</ele>
        <time>2024-06-09T07:31:45Z</time>
      </trkpt>
      <trkpt lat="49.42068" lon="5.74092">
        <ele>311.39999389648</ele>
        <time>2024-06-09T07:31:46Z</time>
      </trkpt>
      <trkpt lat="49.42064" lon="5.74092">
        <ele>311.79998779297</ele>
        <time>2024-06-09T07:31:48Z</time>
      </trkpt>
      <trkpt lat="49.42059" lon="5.74091">
        <ele>312</ele>
        <time>2024-06-09T07:31:50Z</time>
      </trkpt>
      <trkpt lat="49.42057" lon="5.74092">
        <ele>312.20001220703</ele>
        <time>2024-06-09T07:31:51Z</time>
      </trkpt>
      <trkpt lat="49.42055" lon="5.74094">
        <ele>312.20001220703</ele>
        <time>2024-06-09T07:31:52Z</time>
      </trkpt>
      <trkpt lat="49.42052" lon="5.74098">
        <ele>312.20001220703</ele>
        <time>2024-06-09T07:31:54Z</time>
      </trkpt>
      <trkpt lat="49.42049" lon="5.74103">
        <ele>312.20001220703</ele>
        <time>2024-06-09T07:31:56Z</time>
      </trkpt>
      <trkpt lat="49.42047" lon="5.74106">
        <ele>312.39999389648</ele>
        <time>2024-06-09T07:31:57Z</time>
      </trkpt>
      <trkpt lat="49.42046" lon="5.74109">
        <ele>312.39999389648</ele>
        <time>2024-06-09T07:31:58Z</time>
      </trkpt>
      <trkpt lat="49.42044" lon="5.74115">
        <ele>312.39999389648</ele>
        <time>2024-06-09T07:32:00Z</time>
      </trkpt>
      <trkpt lat="49.42042" lon="5.74122">
        <ele>312.39999389648</ele>
        <time>2024-06-09T07:32:02Z</time>
      </trkpt>
      <trkpt lat="49.42039" lon="5.74129">
        <ele>312.60000610352</ele>
        <time>2024-06-09T07:32:04Z</time>
      </trkpt>
      <trkpt lat="49.42036" lon="5.74137">
        <ele>312.79998779297</ele>
        <time>2024-06-09T07:32:06Z</time>
      </trkpt>
      <trkpt lat="49.42034" lon="5.74143">
        <ele>312.79998779297</ele>
        <time>2024-06-09T07:32:08Z</time>
      </trkpt>
      <trkpt lat="49.42033" lon="5.74151">
        <ele>313</ele>
        <time>2024-06-09T07:32:10Z</time>
      </trkpt>
      <trkpt lat="49.42031" lon="5.74158">
        <ele>313.20001220703</ele>
        <time>2024-06-09T07:32:12Z</time>
      </trkpt>
      <trkpt lat="49.4203" lon="5.74165">
        <ele>313.79998779297</ele>
        <time>2024-06-09T07:32:14Z</time>
      </trkpt>
      <trkpt lat="49.42031" lon="5.74173">
        <ele>313.79998779297</ele>
        <time>2024-06-09T07:32:16Z</time>
      </trkpt>
      <trkpt lat="49.42033" lon="5.74179">
        <ele>314</ele>
        <time>2024-06-09T07:32:18Z</time>
      </trkpt>
      <trkpt lat="49.42036" lon="5.74186">
        <ele>314.20001220703</ele>
        <time>2024-06-09T07:32:20Z</time>
      </trkpt>
      <trkpt lat="49.42037" lon="5.74193">
        <ele>314.60000610352</ele>
        <time>2024-06-09T07:32:22Z</time>
      </trkpt>
      <trkpt lat="49.42037" lon="5.74196">
        <ele>314.79998779297</ele>
        <time>2024-06-09T07:32:23Z</time>
      </trkpt>
      <trkpt lat="49.42037" lon="5.74199">
        <ele>314.79998779297</ele>
        <time>2024-06-09T07:32:24Z</time>
      </trkpt>
      <trkpt lat="49.42036" lon="5.74202">
        <ele>315</ele>
        <time>2024-06-09T07:32:25Z</time>
      </trkpt>
      <trkpt lat="49.42036" lon="5.74206">
        <ele>315</ele>
        <time>2024-06-09T07:32:26Z</time>
      </trkpt>
      <trkpt lat="49.42034" lon="5.74214">
        <ele>315.20001220703</ele>
        <time>2024-06-09T07:32:28Z</time>
      </trkpt>
      <trkpt lat="49.42034" lon="5.74224">
        <ele>315.20001220703</ele>
        <time>2024-06-09T07:32:30Z</time>
      </trkpt>
      <trkpt lat="49.42036" lon="5.74229">
        <ele>315.39999389648</ele>
        <time>2024-06-09T07:32:31Z</time>
      </trkpt>
      <trkpt lat="49.42037" lon="5.74233">
        <ele>315.60000610352</ele>
        <time>2024-06-09T07:32:32Z</time>
      </trkpt>
      <trkpt lat="49.42041" lon="5.74241">
        <ele>315.79998779297</ele>
        <time>2024-06-09T07:32:34Z</time>
      </trkpt>
      <trkpt lat="49.42043" lon="5.74249">
        <ele>316</ele>
        <time>2024-06-09T07:32:36Z</time>
      </trkpt>
      <trkpt lat="49.42045" lon="5.74252">
        <ele>316</ele>
        <time>2024-06-09T07:32:37Z</time>
      </trkpt>
      <trkpt lat="49.42047" lon="5.74256">
        <ele>316</ele>
        <time>2024-06-09T07:32:38Z</time>
      </trkpt>
      <trkpt lat="49.4205" lon="5.74262">
        <ele>316.20001220703</ele>
        <time>2024-06-09T07:32:40Z</time>
      </trkpt>
      <trkpt lat="49.42054" lon="5.74269">
        <ele>316.20001220703</ele>
        <time>2024-06-09T07:32:42Z</time>
      </trkpt>
      <trkpt lat="49.42057" lon="5.74278">
        <ele>316.20001220703</ele>
        <time>2024-06-09T07:32:44Z</time>
      </trkpt>
      <trkpt lat="49.42059" lon="5.74287">
        <ele>316.39999389648</ele>
        <time>2024-06-09T07:32:46Z</time>
      </trkpt>
      <trkpt lat="49.4206" lon="5.74291">
        <ele>316.39999389648</ele>
        <time>2024-06-09T07:32:47Z</time>
      </trkpt>
      <trkpt lat="49.42061" lon="5.74294">
        <ele>316.39999389648</ele>
        <time>2024-06-09T07:32:48Z</time>
      </trkpt>
      <trkpt lat="49.42064" lon="5.74302">
        <ele>316.60000610352</ele>
        <time>2024-06-09T07:32:50Z</time>
      </trkpt>
      <trkpt lat="49.42067" lon="5.74311">
        <ele>316.60000610352</ele>
        <time>2024-06-09T07:32:52Z</time>
      </trkpt>
      <trkpt lat="49.42068" lon="5.74319">
        <ele>316.79998779297</ele>
        <time>2024-06-09T07:32:54Z</time>
      </trkpt>
      <trkpt lat="49.4207" lon="5.7433">
        <ele>317</ele>
        <time>2024-06-09T07:32:56Z</time>
      </trkpt>
      <trkpt lat="49.42071" lon="5.74334">
        <ele>317</ele>
        <time>2024-06-09T07:32:57Z</time>
      </trkpt>
      <trkpt lat="49.42073" lon="5.74339">
        <ele>317</ele>
        <time>2024-06-09T07:32:58Z</time>
      </trkpt>
      <trkpt lat="49.42078" lon="5.74349">
        <ele>317.20001220703</ele>
        <time>2024-06-09T07:33:00Z</time>
      </trkpt>
      <trkpt lat="49.42082" lon="5.74359">
        <ele>317.20001220703</ele>
        <time>2024-06-09T07:33:02Z</time>
      </trkpt>
      <trkpt lat="49.42084" lon="5.74364">
        <ele>317.39999389648</ele>
        <time>2024-06-09T07:33:03Z</time>
      </trkpt>
      <trkpt lat="49.42085" lon="5.74369">
        <ele>317.60000610352</ele>
        <time>2024-06-09T07:33:04Z</time>
      </trkpt>
      <trkpt lat="49.42088" lon="5.74379">
        <ele>317.79998779297</ele>
        <time>2024-06-09T07:33:06Z</time>
      </trkpt>
      <trkpt lat="49.4209" lon="5.74387">
        <ele>317.79998779297</ele>
        <time>2024-06-09T07:33:08Z</time>
      </trkpt>
      <trkpt lat="49.42092" lon="5.74392">
        <ele>318.20001220703</ele>
        <time>2024-06-09T07:33:09Z</time>
      </trkpt>
      <trkpt lat="49.42095" lon="5.74396">
        <ele>318.20001220703</ele>
        <time>2024-06-09T07:33:10Z</time>
      </trkpt>
      <trkpt lat="49.42098" lon="5.74405">
        <ele>318.39999389648</ele>
        <time>2024-06-09T07:33:12Z</time>
      </trkpt>
      <trkpt lat="49.42102" lon="5.74414">
        <ele>318.39999389648</ele>
        <time>2024-06-09T07:33:14Z</time>
      </trkpt>
      <trkpt lat="49.42105" lon="5.74423">
        <ele>318.39999389648</ele>
        <time>2024-06-09T07:33:16Z</time>
      </trkpt>
      <trkpt lat="49.42108" lon="5.74431">
        <ele>318.60000610352</ele>
        <time>2024-06-09T07:33:18Z</time>
      </trkpt>
      <trkpt lat="49.4211" lon="5.74436">
        <ele>318.60000610352</ele>
        <time>2024-06-09T07:33:19Z</time>
      </trkpt>
      <trkpt lat="49.42112" lon="5.74442">
        <ele>318.60000610352</ele>
        <time>2024-06-09T07:33:20Z</time>
      </trkpt>
      <trkpt lat="49.42115" lon="5.74454">
        <ele>318.60000610352</ele>
        <time>2024-06-09T07:33:22Z</time>
      </trkpt>
      <trkpt lat="49.42119" lon="5.74466">
        <ele>318.60000610352</ele>
        <time>2024-06-09T07:33:24Z</time>
      </trkpt>
      <trkpt lat="49.4212" lon="5.74471">
        <ele>318.79998779297</ele>
        <time>2024-06-09T07:33:25Z</time>
      </trkpt>
      <trkpt lat="49.42121" lon="5.74476">
        <ele>318.79998779297</ele>
        <time>2024-06-09T07:33:26Z</time>
      </trkpt>
      <trkpt lat="49.42124" lon="5.74486">
        <ele>319</ele>
        <time>2024-06-09T07:33:28Z</time>
      </trkpt>
      <trkpt lat="49.42128" lon="5.74494">
        <ele>319</ele>
        <time>2024-06-09T07:33:30Z</time>
      </trkpt>
      <trkpt lat="49.4213" lon="5.74504">
        <ele>319.20001220703</ele>
        <time>2024-06-09T07:33:32Z</time>
      </trkpt>
      <trkpt lat="49.42133" lon="5.74512">
        <ele>319.20001220703</ele>
        <time>2024-06-09T07:33:34Z</time>
      </trkpt>
      <trkpt lat="49.42137" lon="5.74521">
        <ele>319.39999389648</ele>
        <time>2024-06-09T07:33:36Z</time>
      </trkpt>
      <trkpt lat="49.4214" lon="5.74532">
        <ele>319.60000610352</ele>
        <time>2024-06-09T07:33:38Z</time>
      </trkpt>
      <trkpt lat="49.42144" lon="5.74542">
        <ele>319.79998779297</ele>
        <time>2024-06-09T07:33:40Z</time>
      </trkpt>
      <trkpt lat="49.42146" lon="5.74548">
        <ele>319.79998779297</ele>
        <time>2024-06-09T07:33:41Z</time>
      </trkpt>
      <trkpt lat="49.42148" lon="5.74554">
        <ele>320</ele>
        <time>2024-06-09T07:33:42Z</time>
      </trkpt>
      <trkpt lat="49.42154" lon="5.74565">
        <ele>320.39999389648</ele>
        <time>2024-06-09T07:33:44Z</time>
      </trkpt>
      <trkpt lat="49.42157" lon="5.74569">
        <ele>320.39999389648</ele>
        <time>2024-06-09T07:33:45Z</time>
      </trkpt>
      <trkpt lat="49.42159" lon="5.74575">
        <ele>320.60000610352</ele>
        <time>2024-06-09T07:33:46Z</time>
      </trkpt>
      <trkpt lat="49.42163" lon="5.74581">
        <ele>320.60000610352</ele>
        <time>2024-06-09T07:33:47Z</time>
      </trkpt>
      <trkpt lat="49.42165" lon="5.74585">
        <ele>320.79998779297</ele>
        <time>2024-06-09T07:33:48Z</time>
      </trkpt>
      <trkpt lat="49.4217" lon="5.74593">
        <ele>321</ele>
        <time>2024-06-09T07:33:50Z</time>
      </trkpt>
      <trkpt lat="49.42174" lon="5.74602">
        <ele>321.20001220703</ele>
        <time>2024-06-09T07:33:52Z</time>
      </trkpt>
      <trkpt lat="49.42175" lon="5.74608">
        <ele>321.20001220703</ele>
        <time>2024-06-09T07:33:53Z</time>
      </trkpt>
      <trkpt lat="49.42177" lon="5.74615">
        <ele>321.39999389648</ele>
        <time>2024-06-09T07:33:54Z</time>
      </trkpt>
      <trkpt lat="49.42182" lon="5.74624">
        <ele>321.39999389648</ele>
        <time>2024-06-09T07:33:56Z</time>
      </trkpt>
      <trkpt lat="49.42183" lon="5.74628">
        <ele>321.39999389648</ele>
        <time>2024-06-09T07:33:57Z</time>
      </trkpt>
      <trkpt lat="49.42184" lon="5.74631">
        <ele>321.60000610352</ele>
        <time>2024-06-09T07:33:58Z</time>
      </trkpt>
      <trkpt lat="49.42186" lon="5.74636">
        <ele>321.60000610352</ele>
        <time>2024-06-09T07:33:59Z</time>
      </trkpt>
      <trkpt lat="49.42187" lon="5.74641">
        <ele>321.60000610352</ele>
        <time>2024-06-09T07:34:00Z</time>
      </trkpt>
      <trkpt lat="49.42192" lon="5.7465">
        <ele>321.79998779297</ele>
        <time>2024-06-09T07:34:02Z</time>
      </trkpt>
      <trkpt lat="49.42196" lon="5.74657">
        <ele>321.79998779297</ele>
        <time>2024-06-09T07:34:04Z</time>
      </trkpt>
      <trkpt lat="49.422" lon="5.74665">
        <ele>322</ele>
        <time>2024-06-09T07:34:06Z</time>
      </trkpt>
      <trkpt lat="49.42205" lon="5.74675">
        <ele>322.20001220703</ele>
        <time>2024-06-09T07:34:08Z</time>
      </trkpt>
      <trkpt lat="49.42209" lon="5.74684">
        <ele>322.39999389648</ele>
        <time>2024-06-09T07:34:10Z</time>
      </trkpt>
      <trkpt lat="49.4221" lon="5.74688">
        <ele>322.39999389648</ele>
        <time>2024-06-09T07:34:11Z</time>
      </trkpt>
      <trkpt lat="49.42212" lon="5.74693">
        <ele>322.60000610352</ele>
        <time>2024-06-09T07:34:12Z</time>
      </trkpt>
      <trkpt lat="49.42215" lon="5.74702">
        <ele>322.79998779297</ele>
        <time>2024-06-09T07:34:14Z</time>
      </trkpt>
      <trkpt lat="49.42219" lon="5.74711">
        <ele>322.79998779297</ele>
        <time>2024-06-09T07:34:16Z</time>
      </trkpt>
      <trkpt lat="49.42221" lon="5.74718">
        <ele>323</ele>
        <time>2024-06-09T07:34:18Z</time>
      </trkpt>
      <trkpt lat="49.42224" lon="5.74726">
        <ele>323.20001220703</ele>
        <time>2024-06-09T07:34:20Z</time>
      </trkpt>
      <trkpt lat="49.42225" lon="5.74731">
        <ele>323.39999389648</ele>
        <time>2024-06-09T07:34:21Z</time>
      </trkpt>
      <trkpt lat="49.42227" lon="5.74737">
        <ele>323.39999389648</ele>
        <time>2024-06-09T07:34:22Z</time>
      </trkpt>
      <trkpt lat="49.42229" lon="5.74746">
        <ele>323.60000610352</ele>
        <time>2024-06-09T07:34:24Z</time>
      </trkpt>
      <trkpt lat="49.42232" lon="5.74756">
        <ele>323.79998779297</ele>
        <time>2024-06-09T07:34:26Z</time>
      </trkpt>
      <trkpt lat="49.42234" lon="5.74769">
        <ele>323.79998779297</ele>
        <time>2024-06-09T07:34:28Z</time>
      </trkpt>
      <trkpt lat="49.42239" lon="5.74779">
        <ele>323.79998779297</ele>
        <time>2024-06-09T07:34:30Z</time>
      </trkpt>
      <trkpt lat="49.42242" lon="5.74786">
        <ele>324</ele>
        <time>2024-06-09T07:34:32Z</time>
      </trkpt>
      <trkpt lat="49.42243" lon="5.74789">
        <ele>324</ele>
        <time>2024-06-09T07:34:33Z</time>
      </trkpt>
      <trkpt lat="49.42245" lon="5.74793">
        <ele>324</ele>
        <time>2024-06-09T07:34:34Z</time>
      </trkpt>
      <trkpt lat="49.42248" lon="5.74801">
        <ele>324</ele>
        <time>2024-06-09T07:34:36Z</time>
      </trkpt>
      <trkpt lat="49.42252" lon="5.74814">
        <ele>324.20001220703</ele>
        <time>2024-06-09T07:34:38Z</time>
      </trkpt>
      <trkpt lat="49.42254" lon="5.74821">
        <ele>324.39999389648</ele>
        <time>2024-06-09T07:34:39Z</time>
      </trkpt>
      <trkpt lat="49.42257" lon="5.74826">
        <ele>324.39999389648</ele>
        <time>2024-06-09T07:34:40Z</time>
      </trkpt>
      <trkpt lat="49.4226" lon="5.74833">
        <ele>324.39999389648</ele>
        <time>2024-06-09T07:34:42Z</time>
      </trkpt>
      <trkpt lat="49.42262" lon="5.74837">
        <ele>324.60000610352</ele>
        <time>2024-06-09T07:34:43Z</time>
      </trkpt>
      <trkpt lat="49.42264" lon="5.74842">
        <ele>324.60000610352</ele>
        <time>2024-06-09T07:34:44Z</time>
      </trkpt>
      <trkpt lat="49.42266" lon="5.74847">
        <ele>324.60000610352</ele>
        <time>2024-06-09T07:34:45Z</time>
      </trkpt>
      <trkpt lat="49.42267" lon="5.74851">
        <ele>324.60000610352</ele>
        <time>2024-06-09T07:34:46Z</time>
      </trkpt>
      <trkpt lat="49.4227" lon="5.74858">
        <ele>324.79998779297</ele>
        <time>2024-06-09T07:34:48Z</time>
      </trkpt>
      <trkpt lat="49.42271" lon="5.74866">
        <ele>324.79998779297</ele>
        <time>2024-06-09T07:34:50Z</time>
      </trkpt>
      <trkpt lat="49.42274" lon="5.74874">
        <ele>325</ele>
        <time>2024-06-09T07:34:52Z</time>
      </trkpt>
      <trkpt lat="49.42279" lon="5.74884">
        <ele>325</ele>
        <time>2024-06-09T07:34:54Z</time>
      </trkpt>
      <trkpt lat="49.42283" lon="5.74892">
        <ele>325</ele>
        <time>2024-06-09T07:34:56Z</time>
      </trkpt>
      <trkpt lat="49.42288" lon="5.74899">
        <ele>325</ele>
        <time>2024-06-09T07:34:58Z</time>
      </trkpt>
      <trkpt lat="49.42292" lon="5.74905">
        <ele>325</ele>
        <time>2024-06-09T07:35:00Z</time>
      </trkpt>
      <trkpt lat="49.42294" lon="5.74907">
        <ele>325</ele>
        <time>2024-06-09T07:35:01Z</time>
      </trkpt>
      <trkpt lat="49.42296" lon="5.74911">
        <ele>325</ele>
        <time>2024-06-09T07:35:02Z</time>
      </trkpt>
      <trkpt lat="49.42299" lon="5.74917">
        <ele>325</ele>
        <time>2024-06-09T07:35:03Z</time>
      </trkpt>
      <trkpt lat="49.42301" lon="5.74921">
        <ele>325</ele>
        <time>2024-06-09T07:35:04Z</time>
      </trkpt>
      <trkpt lat="49.42304" lon="5.74932">
        <ele>325</ele>
        <time>2024-06-09T07:35:06Z</time>
      </trkpt>
      <trkpt lat="49.42309" lon="5.74944">
        <ele>325</ele>
        <time>2024-06-09T07:35:08Z</time>
      </trkpt>
      <trkpt lat="49.42314" lon="5.74953">
        <ele>325</ele>
        <time>2024-06-09T07:35:10Z</time>
      </trkpt>
      <trkpt lat="49.42317" lon="5.74961">
        <ele>325</ele>
        <time>2024-06-09T07:35:12Z</time>
      </trkpt>
      <trkpt lat="49.42319" lon="5.74965">
        <ele>325</ele>
        <time>2024-06-09T07:35:13Z</time>
      </trkpt>
      <trkpt lat="49.42321" lon="5.74971">
        <ele>325</ele>
        <time>2024-06-09T07:35:14Z</time>
      </trkpt>
      <trkpt lat="49.42325" lon="5.7498">
        <ele>325</ele>
        <time>2024-06-09T07:35:16Z</time>
      </trkpt>
      <trkpt lat="49.42328" lon="5.74989">
        <ele>325</ele>
        <time>2024-06-09T07:35:18Z</time>
      </trkpt>
      <trkpt lat="49.42332" lon="5.74998">
        <ele>325</ele>
        <time>2024-06-09T07:35:20Z</time>
      </trkpt>
      <trkpt lat="49.42334" lon="5.75008">
        <ele>325</ele>
        <time>2024-06-09T07:35:22Z</time>
      </trkpt>
      <trkpt lat="49.42335" lon="5.75014">
        <ele>325.20001220703</ele>
        <time>2024-06-09T07:35:23Z</time>
      </trkpt>
      <trkpt lat="49.42337" lon="5.7502">
        <ele>325.20001220703</ele>
        <time>2024-06-09T07:35:24Z</time>
      </trkpt>
      <trkpt lat="49.4234" lon="5.75027">
        <ele>325.39999389648</ele>
        <time>2024-06-09T07:35:26Z</time>
      </trkpt>
      <trkpt lat="49.42341" lon="5.75029">
        <ele>325.39999389648</ele>
        <time>2024-06-09T07:35:27Z</time>
      </trkpt>
      <trkpt lat="49.42343" lon="5.75034">
        <ele>325.60000610352</ele>
        <time>2024-06-09T07:35:28Z</time>
      </trkpt>
      <trkpt lat="49.42346" lon="5.7504">
        <ele>325.79998779297</ele>
        <time>2024-06-09T07:35:30Z</time>
      </trkpt>
      <trkpt lat="49.42348" lon="5.75047">
        <ele>325.79998779297</ele>
        <time>2024-06-09T07:35:32Z</time>
      </trkpt>
      <trkpt lat="49.4235" lon="5.75051">
        <ele>326</ele>
        <time>2024-06-09T07:35:33Z</time>
      </trkpt>
      <trkpt lat="49.42353" lon="5.75056">
        <ele>326</ele>
        <time>2024-06-09T07:35:34Z</time>
      </trkpt>
      <trkpt lat="49.42358" lon="5.75064">
        <ele>326.39999389648</ele>
        <time>2024-06-09T07:35:36Z</time>
      </trkpt>
      <trkpt lat="49.42364" lon="5.75072">
        <ele>326.79998779297</ele>
        <time>2024-06-09T07:35:38Z</time>
      </trkpt>
      <trkpt lat="49.42367" lon="5.75077">
        <ele>326.79998779297</ele>
        <time>2024-06-09T07:35:39Z</time>
      </trkpt>
      <trkpt lat="49.4237" lon="5.75082">
        <ele>327</ele>
        <time>2024-06-09T07:35:40Z</time>
      </trkpt>
      <trkpt lat="49.42374" lon="5.75091">
        <ele>327.20001220703</ele>
        <time>2024-06-09T07:35:42Z</time>
      </trkpt>
      <trkpt lat="49.42378" lon="5.751">
        <ele>327.20001220703</ele>
        <time>2024-06-09T07:35:44Z</time>
      </trkpt>
      <trkpt lat="49.42382" lon="5.75107">
        <ele>327.39999389648</ele>
        <time>2024-06-09T07:35:46Z</time>
      </trkpt>
      <trkpt lat="49.42388" lon="5.75112">
        <ele>327.39999389648</ele>
        <time>2024-06-09T07:35:47Z</time>
      </trkpt>
      <trkpt lat="49.42392" lon="5.75115">
        <ele>327.60000610352</ele>
        <time>2024-06-09T07:35:48Z</time>
      </trkpt>
      <trkpt lat="49.42395" lon="5.75115">
        <ele>327.60000610352</ele>
        <time>2024-06-09T07:35:49Z</time>
      </trkpt>
      <trkpt lat="49.42398" lon="5.75116">
        <ele>327.60000610352</ele>
        <time>2024-06-09T07:35:50Z</time>
      </trkpt>
      <trkpt lat="49.42403" lon="5.75118">
        <ele>327.60000610352</ele>
        <time>2024-06-09T07:35:52Z</time>
      </trkpt>
      <trkpt lat="49.42409" lon="5.7512">
        <ele>327.60000610352</ele>
        <time>2024-06-09T07:35:54Z</time>
      </trkpt>
      <trkpt lat="49.42414" lon="5.75117">
        <ele>327.60000610352</ele>
        <time>2024-06-09T07:35:56Z</time>
      </trkpt>
      <trkpt lat="49.42419" lon="5.75112">
        <ele>327.60000610352</ele>
        <time>2024-06-09T07:35:58Z</time>
      </trkpt>
      <trkpt lat="49.42422" lon="5.75108">
        <ele>327.60000610352</ele>
        <time>2024-06-09T07:35:59Z</time>
      </trkpt>
      <trkpt lat="49.42424" lon="5.75104">
        <ele>327.60000610352</ele>
        <time>2024-06-09T07:36:00Z</time>
      </trkpt>
      <trkpt lat="49.42428" lon="5.75095">
        <ele>327.60000610352</ele>
        <time>2024-06-09T07:36:02Z</time>
      </trkpt>
      <trkpt lat="49.42432" lon="5.75087">
        <ele>327.39999389648</ele>
        <time>2024-06-09T07:36:04Z</time>
      </trkpt>
      <trkpt lat="49.42437" lon="5.75079">
        <ele>327.39999389648</ele>
        <time>2024-06-09T07:36:06Z</time>
      </trkpt>
      <trkpt lat="49.42441" lon="5.75072">
        <ele>327.20001220703</ele>
        <time>2024-06-09T07:36:08Z</time>
      </trkpt>
      <trkpt lat="49.42442" lon="5.75069">
        <ele>327.20001220703</ele>
        <time>2024-06-09T07:36:09Z</time>
      </trkpt>
      <trkpt lat="49.42443" lon="5.75066">
        <ele>327</ele>
        <time>2024-06-09T07:36:10Z</time>
      </trkpt>
      <trkpt lat="49.42448" lon="5.75058">
        <ele>327</ele>
        <time>2024-06-09T07:36:12Z</time>
      </trkpt>
      <trkpt lat="49.42453" lon="5.75047">
        <ele>326.79998779297</ele>
        <time>2024-06-09T07:36:14Z</time>
      </trkpt>
      <trkpt lat="49.42457" lon="5.75036">
        <ele>326.20001220703</ele>
        <time>2024-06-09T07:36:16Z</time>
      </trkpt>
      <trkpt lat="49.4246" lon="5.75023">
        <ele>325.79998779297</ele>
        <time>2024-06-09T07:36:18Z</time>
      </trkpt>
      <trkpt lat="49.42465" lon="5.75009">
        <ele>325.60000610352</ele>
        <time>2024-06-09T07:36:20Z</time>
      </trkpt>
      <trkpt lat="49.4247" lon="5.74995">
        <ele>325.60000610352</ele>
        <time>2024-06-09T07:36:22Z</time>
      </trkpt>
      <trkpt lat="49.42475" lon="5.74988">
        <ele>325.20001220703</ele>
        <time>2024-06-09T07:36:24Z</time>
      </trkpt>
      <trkpt lat="49.42479" lon="5.74991">
        <ele>324.79998779297</ele>
        <time>2024-06-09T07:36:26Z</time>
      </trkpt>
      <trkpt lat="49.42481" lon="5.74993">
        <ele>324.60000610352</ele>
        <time>2024-06-09T07:36:27Z</time>
      </trkpt>
      <trkpt lat="49.42482" lon="5.74997">
        <ele>324.60000610352</ele>
        <time>2024-06-09T07:36:28Z</time>
      </trkpt>
      <trkpt lat="49.42483" lon="5.75001">
        <ele>324.20001220703</ele>
        <time>2024-06-09T07:36:29Z</time>
      </trkpt>
      <trkpt lat="49.42486" lon="5.75005">
        <ele>324.20001220703</ele>
        <time>2024-06-09T07:36:30Z</time>
      </trkpt>
      <trkpt lat="49.4249" lon="5.75013">
        <ele>324</ele>
        <time>2024-06-09T07:36:32Z</time>
      </trkpt>
      <trkpt lat="49.42495" lon="5.75022">
        <ele>323.79998779297</ele>
        <time>2024-06-09T07:36:34Z</time>
      </trkpt>
      <trkpt lat="49.42497" lon="5.75026">
        <ele>323.60000610352</ele>
        <time>2024-06-09T07:36:35Z</time>
      </trkpt>
      <trkpt lat="49.42501" lon="5.75032">
        <ele>323.39999389648</ele>
        <time>2024-06-09T07:36:36Z</time>
      </trkpt>
      <trkpt lat="49.42503" lon="5.75039">
        <ele>323.39999389648</ele>
        <time>2024-06-09T07:36:37Z</time>
      </trkpt>
      <trkpt lat="49.42505" lon="5.75046">
        <ele>323.20001220703</ele>
        <time>2024-06-09T07:36:38Z</time>
      </trkpt>
      <trkpt lat="49.4251" lon="5.75061">
        <ele>323</ele>
        <time>2024-06-09T07:36:40Z</time>
      </trkpt>
      <trkpt lat="49.42514" lon="5.75074">
        <ele>322.79998779297</ele>
        <time>2024-06-09T07:36:42Z</time>
      </trkpt>
      <trkpt lat="49.42519" lon="5.75088">
        <ele>322.60000610352</ele>
        <time>2024-06-09T07:36:44Z</time>
      </trkpt>
      <trkpt lat="49.42525" lon="5.75104">
        <ele>322.39999389648</ele>
        <time>2024-06-09T07:36:46Z</time>
      </trkpt>
      <trkpt lat="49.42528" lon="5.75111">
        <ele>322</ele>
        <time>2024-06-09T07:36:47Z</time>
      </trkpt>
      <trkpt lat="49.42532" lon="5.75119">
        <ele>321.79998779297</ele>
        <time>2024-06-09T07:36:48Z</time>
      </trkpt>
      <trkpt lat="49.42535" lon="5.75134">
        <ele>321.60000610352</ele>
        <time>2024-06-09T07:36:50Z</time>
      </trkpt>
      <trkpt lat="49.42538" lon="5.75141">
        <ele>321.39999389648</ele>
        <time>2024-06-09T07:36:51Z</time>
      </trkpt>
      <trkpt lat="49.4254" lon="5.75151">
        <ele>321.20001220703</ele>
        <time>2024-06-09T07:36:52Z</time>
      </trkpt>
      <trkpt lat="49.4255" lon="5.7517">
        <ele>320.20001220703</ele>
        <time>2024-06-09T07:36:54Z</time>
      </trkpt>
      <trkpt lat="49.42553" lon="5.75181">
        <ele>319.60000610352</ele>
        <time>2024-06-09T07:36:55Z</time>
      </trkpt>
      <trkpt lat="49.42556" lon="5.75191">
        <ele>319</ele>
        <time>2024-06-09T07:36:56Z</time>
      </trkpt>
      <trkpt lat="49.42559" lon="5.75206">
        <ele>317.60000610352</ele>
        <time>2024-06-09T07:36:58Z</time>
      </trkpt>
      <trkpt lat="49.42561" lon="5.7521">
        <ele>317</ele>
        <time>2024-06-09T07:36:59Z</time>
      </trkpt>
      <trkpt lat="49.42562" lon="5.75213">
        <ele>316.20001220703</ele>
        <time>2024-06-09T07:37:00Z</time>
      </trkpt>
      <trkpt lat="49.42564" lon="5.75215">
        <ele>315</ele>
        <time>2024-06-09T07:37:01Z</time>
      </trkpt>
      <trkpt lat="49.42565" lon="5.75216">
        <ele>313.79998779297</ele>
        <time>2024-06-09T07:37:02Z</time>
      </trkpt>
      <trkpt lat="49.42567" lon="5.75216">
        <ele>312.60000610352</ele>
        <time>2024-06-09T07:37:04Z</time>
      </trkpt>
      <trkpt lat="49.42567" lon="5.75215">
        <ele>312.39999389648</ele>
        <time>2024-06-09T07:37:05Z</time>
      </trkpt>
      <trkpt lat="49.42568" lon="5.75215">
        <ele>312.39999389648</ele>
        <time>2024-06-09T07:37:06Z</time>
      </trkpt>
      <trkpt lat="49.42571" lon="5.75213">
        <ele>312.39999389648</ele>
        <time>2024-06-09T07:37:08Z</time>
      </trkpt>
      <trkpt lat="49.42571" lon="5.75211">
        <ele>312.39999389648</ele>
        <time>2024-06-09T07:37:10Z</time>
      </trkpt>
      <trkpt lat="49.42572" lon="5.7521">
        <ele>312.39999389648</ele>
        <time>2024-06-09T07:37:12Z</time>
      </trkpt>
      <trkpt lat="49.42574" lon="5.7521">
        <ele>312.39999389648</ele>
        <time>2024-06-09T07:37:14Z</time>
      </trkpt>
      <trkpt lat="49.42578" lon="5.75211">
        <ele>312.39999389648</ele>
        <time>2024-06-09T07:37:16Z</time>
      </trkpt>
      <trkpt lat="49.4258" lon="5.75213">
        <ele>312.39999389648</ele>
        <time>2024-06-09T07:37:18Z</time>
      </trkpt>
      <trkpt lat="49.42583" lon="5.75218">
        <ele>312.39999389648</ele>
        <time>2024-06-09T07:37:20Z</time>
      </trkpt>
      <trkpt lat="49.42586" lon="5.75226">
        <ele>312.39999389648</ele>
        <time>2024-06-09T07:37:22Z</time>
      </trkpt>
      <trkpt lat="49.42588" lon="5.75232">
        <ele>312.39999389648</ele>
        <time>2024-06-09T07:37:23Z</time>
      </trkpt>
      <trkpt lat="49.42591" lon="5.75239">
        <ele>312.39999389648</ele>
        <time>2024-06-09T07:37:24Z</time>
      </trkpt>
      <trkpt lat="49.42596" lon="5.75254">
        <ele>311.20001220703</ele>
        <time>2024-06-09T07:37:26Z</time>
      </trkpt>
      <trkpt lat="49.426" lon="5.75267">
        <ele>310</ele>
        <time>2024-06-09T07:37:28Z</time>
      </trkpt>
      <trkpt lat="49.42607" lon="5.75281">
        <ele>308.60000610352</ele>
        <time>2024-06-09T07:37:30Z</time>
      </trkpt>
      <trkpt lat="49.42611" lon="5.75288">
        <ele>307.60000610352</ele>
        <time>2024-06-09T07:37:31Z</time>
      </trkpt>
      <trkpt lat="49.42616" lon="5.75294">
        <ele>306.20001220703</ele>
        <time>2024-06-09T07:37:32Z</time>
      </trkpt>
      <trkpt lat="49.42621" lon="5.75297">
        <ele>304.39999389648</ele>
        <time>2024-06-09T07:37:33Z</time>
      </trkpt>
      <trkpt lat="49.42626" lon="5.75301">
        <ele>302.79998779297</ele>
        <time>2024-06-09T07:37:34Z</time>
      </trkpt>
      <trkpt lat="49.4263" lon="5.75304">
        <ele>301.39999389648</ele>
        <time>2024-06-09T07:37:35Z</time>
      </trkpt>
      <trkpt lat="49.42636" lon="5.75306">
        <ele>299.60000610352</ele>
        <time>2024-06-09T07:37:36Z</time>
      </trkpt>
      <trkpt lat="49.42641" lon="5.75307">
        <ele>298.20001220703</ele>
        <time>2024-06-09T07:37:37Z</time>
      </trkpt>
      <trkpt lat="49.42645" lon="5.75308">
        <ele>296.60000610352</ele>
        <time>2024-06-09T07:37:38Z</time>
      </trkpt>
      <trkpt lat="49.42648" lon="5.75309">
        <ele>295.20001220703</ele>
        <time>2024-06-09T07:37:39Z</time>
      </trkpt>
      <trkpt lat="49.4265" lon="5.75311">
        <ele>294</ele>
        <time>2024-06-09T07:37:40Z</time>
      </trkpt>
      <trkpt lat="49.42652" lon="5.75313">
        <ele>292.60000610352</ele>
        <time>2024-06-09T07:37:41Z</time>
      </trkpt>
      <trkpt lat="49.42654" lon="5.75315">
        <ele>291.39999389648</ele>
        <time>2024-06-09T07:37:42Z</time>
      </trkpt>
      <trkpt lat="49.42657" lon="5.75316">
        <ele>290.20001220703</ele>
        <time>2024-06-09T07:37:43Z</time>
      </trkpt>
      <trkpt lat="49.42661" lon="5.75318">
        <ele>289</ele>
        <time>2024-06-09T07:37:44Z</time>
      </trkpt>
      <trkpt lat="49.42668" lon="5.75322">
        <ele>287.60000610352</ele>
        <time>2024-06-09T07:37:46Z</time>
      </trkpt>
      <trkpt lat="49.4267" lon="5.75324">
        <ele>286.79998779297</ele>
        <time>2024-06-09T07:37:47Z</time>
      </trkpt>
      <trkpt lat="49.42673" lon="5.75328">
        <ele>286</ele>
        <time>2024-06-09T07:37:48Z</time>
      </trkpt>
      <trkpt lat="49.42678" lon="5.75335">
        <ele>284.20001220703</ele>
        <time>2024-06-09T07:37:50Z</time>
      </trkpt>
      <trkpt lat="49.42682" lon="5.75339">
        <ele>283</ele>
        <time>2024-06-09T07:37:51Z</time>
      </trkpt>
      <trkpt lat="49.42685" lon="5.75343">
        <ele>282</ele>
        <time>2024-06-09T07:37:52Z</time>
      </trkpt>
      <trkpt lat="49.42688" lon="5.75345">
        <ele>280.79998779297</ele>
        <time>2024-06-09T07:37:53Z</time>
      </trkpt>
      <trkpt lat="49.42692" lon="5.75347">
        <ele>278</ele>
        <time>2024-06-09T07:37:54Z</time>
      </trkpt>
      <trkpt lat="49.42698" lon="5.75349">
        <ele>276.60000610352</ele>
        <time>2024-06-09T07:37:55Z</time>
      </trkpt>
      <trkpt lat="49.42703" lon="5.75349">
        <ele>275.39999389648</ele>
        <time>2024-06-09T07:37:56Z</time>
      </trkpt>
      <trkpt lat="49.42709" lon="5.75351">
        <ele>274.20001220703</ele>
        <time>2024-06-09T07:37:57Z</time>
      </trkpt>
      <trkpt lat="49.42715" lon="5.75352">
        <ele>273</ele>
        <time>2024-06-09T07:37:58Z</time>
      </trkpt>
      <trkpt lat="49.42721" lon="5.75356">
        <ele>271.60000610352</ele>
        <time>2024-06-09T07:37:59Z</time>
      </trkpt>
      <trkpt lat="49.42726" lon="5.75359">
        <ele>270.20001220703</ele>
        <time>2024-06-09T07:38:00Z</time>
      </trkpt>
      <trkpt lat="49.42732" lon="5.75364">
        <ele>268.79998779297</ele>
        <time>2024-06-09T07:38:01Z</time>
      </trkpt>
      <trkpt lat="49.42736" lon="5.75367">
        <ele>267</ele>
        <time>2024-06-09T07:38:02Z</time>
      </trkpt>
      <trkpt lat="49.42744" lon="5.75368">
        <ele>265.39999389648</ele>
        <time>2024-06-09T07:38:03Z</time>
      </trkpt>
      <trkpt lat="49.42753" lon="5.75369">
        <ele>263.60000610352</ele>
        <time>2024-06-09T07:38:04Z</time>
      </trkpt>
      <trkpt lat="49.4276" lon="5.75367">
        <ele>262</ele>
        <time>2024-06-09T07:38:05Z</time>
      </trkpt>
      <trkpt lat="49.42767" lon="5.75364">
        <ele>260.60000610352</ele>
        <time>2024-06-09T07:38:06Z</time>
      </trkpt>
      <trkpt lat="49.42774" lon="5.75359">
        <ele>258.79998779297</ele>
        <time>2024-06-09T07:38:07Z</time>
      </trkpt>
      <trkpt lat="49.4278" lon="5.75354">
        <ele>257.79998779297</ele>
        <time>2024-06-09T07:38:08Z</time>
      </trkpt>
      <trkpt lat="49.42786" lon="5.75348">
        <ele>257.20001220703</ele>
        <time>2024-06-09T07:38:09Z</time>
      </trkpt>
      <trkpt lat="49.42792" lon="5.75342">
        <ele>256.79998779297</ele>
        <time>2024-06-09T07:38:10Z</time>
      </trkpt>
      <trkpt lat="49.42801" lon="5.75329">
        <ele>256.20001220703</ele>
        <time>2024-06-09T07:38:12Z</time>
      </trkpt>
      <trkpt lat="49.42804" lon="5.75323">
        <ele>256.20001220703</ele>
        <time>2024-06-09T07:38:13Z</time>
      </trkpt>
      <trkpt lat="49.42808" lon="5.75319">
        <ele>256</ele>
        <time>2024-06-09T07:38:14Z</time>
      </trkpt>
      <trkpt lat="49.42816" lon="5.75321">
        <ele>255.80000305176</ele>
        <time>2024-06-09T07:38:16Z</time>
      </trkpt>
      <trkpt lat="49.42819" lon="5.75325">
        <ele>255.60000610352</ele>
        <time>2024-06-09T07:38:17Z</time>
      </trkpt>
      <trkpt lat="49.42822" lon="5.75329">
        <ele>255.39999389648</ele>
        <time>2024-06-09T07:38:18Z</time>
      </trkpt>
      <trkpt lat="49.42826" lon="5.75338">
        <ele>255.19999694824</ele>
        <time>2024-06-09T07:38:20Z</time>
      </trkpt>
      <trkpt lat="49.42829" lon="5.75343">
        <ele>255.19999694824</ele>
        <time>2024-06-09T07:38:21Z</time>
      </trkpt>
      <trkpt lat="49.42831" lon="5.75349">
        <ele>255</ele>
        <time>2024-06-09T07:38:22Z</time>
      </trkpt>
      <trkpt lat="49.42836" lon="5.75359">
        <ele>255</ele>
        <time>2024-06-09T07:38:24Z</time>
      </trkpt>
      <trkpt lat="49.42841" lon="5.75369">
        <ele>254.80000305176</ele>
        <time>2024-06-09T07:38:26Z</time>
      </trkpt>
      <trkpt lat="49.42845" lon="5.75379">
        <ele>254.80000305176</ele>
        <time>2024-06-09T07:38:28Z</time>
      </trkpt>
      <trkpt lat="49.4285" lon="5.7539">
        <ele>255</ele>
        <time>2024-06-09T07:38:30Z</time>
      </trkpt>
      <trkpt lat="49.42854" lon="5.75401">
        <ele>255</ele>
        <time>2024-06-09T07:38:32Z</time>
      </trkpt>
      <trkpt lat="49.42857" lon="5.75412">
        <ele>255</ele>
        <time>2024-06-09T07:38:34Z</time>
      </trkpt>
      <trkpt lat="49.42861" lon="5.75423">
        <ele>255</ele>
        <time>2024-06-09T07:38:36Z</time>
      </trkpt>
      <trkpt lat="49.42865" lon="5.75435">
        <ele>255.19999694824</ele>
        <time>2024-06-09T07:38:38Z</time>
      </trkpt>
      <trkpt lat="49.42869" lon="5.75446">
        <ele>255.39999389648</ele>
        <time>2024-06-09T07:38:40Z</time>
      </trkpt>
      <trkpt lat="49.42872" lon="5.75458">
        <ele>255.39999389648</ele>
        <time>2024-06-09T07:38:42Z</time>
      </trkpt>
      <trkpt lat="49.42874" lon="5.75469">
        <ele>255.39999389648</ele>
        <time>2024-06-09T07:38:44Z</time>
      </trkpt>
      <trkpt lat="49.42876" lon="5.75475">
        <ele>255.39999389648</ele>
        <time>2024-06-09T07:38:45Z</time>
      </trkpt>
      <trkpt lat="49.42877" lon="5.7548">
        <ele>255.39999389648</ele>
        <time>2024-06-09T07:38:46Z</time>
      </trkpt>
      <trkpt lat="49.42878" lon="5.75491">
        <ele>255.39999389648</ele>
        <time>2024-06-09T07:38:48Z</time>
      </trkpt>
      <trkpt lat="49.42879" lon="5.75502">
        <ele>255.39999389648</ele>
        <time>2024-06-09T07:38:50Z</time>
      </trkpt>
      <trkpt lat="49.4288" lon="5.75513">
        <ele>255.39999389648</ele>
        <time>2024-06-09T07:38:52Z</time>
      </trkpt>
      <trkpt lat="49.42881" lon="5.75523">
        <ele>255.39999389648</ele>
        <time>2024-06-09T07:38:54Z</time>
      </trkpt>
      <trkpt lat="49.42882" lon="5.75532">
        <ele>255.39999389648</ele>
        <time>2024-06-09T07:38:56Z</time>
      </trkpt>
      <trkpt lat="49.42882" lon="5.75542">
        <ele>255.39999389648</ele>
        <time>2024-06-09T07:38:58Z</time>
      </trkpt>
      <trkpt lat="49.42883" lon="5.75547">
        <ele>255.39999389648</ele>
        <time>2024-06-09T07:38:59Z</time>
      </trkpt>
      <trkpt lat="49.42883" lon="5.75552">
        <ele>255.39999389648</ele>
        <time>2024-06-09T07:39:00Z</time>
      </trkpt>
      <trkpt lat="49.42884" lon="5.75562">
        <ele>255.39999389648</ele>
        <time>2024-06-09T07:39:02Z</time>
      </trkpt>
      <trkpt lat="49.42885" lon="5.75572">
        <ele>255.39999389648</ele>
        <time>2024-06-09T07:39:04Z</time>
      </trkpt>
      <trkpt lat="49.42885" lon="5.75581">
        <ele>255.60000610352</ele>
        <time>2024-06-09T07:39:06Z</time>
      </trkpt>
      <trkpt lat="49.42885" lon="5.75589">
        <ele>255.60000610352</ele>
        <time>2024-06-09T07:39:08Z</time>
      </trkpt>
      <trkpt lat="49.42885" lon="5.75598">
        <ele>255.60000610352</ele>
        <time>2024-06-09T07:39:10Z</time>
      </trkpt>
      <trkpt lat="49.42885" lon="5.75604">
        <ele>255.60000610352</ele>
        <time>2024-06-09T07:39:11Z</time>
      </trkpt>
      <trkpt lat="49.42885" lon="5.75609">
        <ele>255.60000610352</ele>
        <time>2024-06-09T07:39:12Z</time>
      </trkpt>
      <trkpt lat="49.42885" lon="5.75619">
        <ele>255.80000305176</ele>
        <time>2024-06-09T07:39:14Z</time>
      </trkpt>
      <trkpt lat="49.42883" lon="5.7563">
        <ele>255.80000305176</ele>
        <time>2024-06-09T07:39:16Z</time>
      </trkpt>
      <trkpt lat="49.42882" lon="5.75636">
        <ele>255.80000305176</ele>
        <time>2024-06-09T07:39:17Z</time>
      </trkpt>
      <trkpt lat="49.42882" lon="5.75643">
        <ele>255.80000305176</ele>
        <time>2024-06-09T07:39:18Z</time>
      </trkpt>
      <trkpt lat="49.42879" lon="5.75654">
        <ele>255.80000305176</ele>
        <time>2024-06-09T07:39:20Z</time>
      </trkpt>
      <trkpt lat="49.42877" lon="5.75665">
        <ele>255.80000305176</ele>
        <time>2024-06-09T07:39:22Z</time>
      </trkpt>
      <trkpt lat="49.42874" lon="5.75675">
        <ele>255.80000305176</ele>
        <time>2024-06-09T07:39:24Z</time>
      </trkpt>
      <trkpt lat="49.4287" lon="5.75685">
        <ele>256</ele>
        <time>2024-06-09T07:39:26Z</time>
      </trkpt>
      <trkpt lat="49.42868" lon="5.75696">
        <ele>256</ele>
        <time>2024-06-09T07:39:28Z</time>
      </trkpt>
      <trkpt lat="49.42867" lon="5.75705">
        <ele>256</ele>
        <time>2024-06-09T07:39:30Z</time>
      </trkpt>
      <trkpt lat="49.42864" lon="5.75713">
        <ele>256</ele>
        <time>2024-06-09T07:39:32Z</time>
      </trkpt>
      <trkpt lat="49.42863" lon="5.75719">
        <ele>256</ele>
        <time>2024-06-09T07:39:34Z</time>
      </trkpt>
      <trkpt lat="49.42862" lon="5.75722">
        <ele>256</ele>
        <time>2024-06-09T07:39:35Z</time>
      </trkpt>
      <trkpt lat="49.42861" lon="5.75726">
        <ele>256</ele>
        <time>2024-06-09T07:39:36Z</time>
      </trkpt>
      <trkpt lat="49.42858" lon="5.75733">
        <ele>256.20001220703</ele>
        <time>2024-06-09T07:39:38Z</time>
      </trkpt>
      <trkpt lat="49.42856" lon="5.7574">
        <ele>256.60000610352</ele>
        <time>2024-06-09T07:39:40Z</time>
      </trkpt>
      <trkpt lat="49.42852" lon="5.75748">
        <ele>257</ele>
        <time>2024-06-09T07:39:42Z</time>
      </trkpt>
      <trkpt lat="49.42848" lon="5.75754">
        <ele>257</ele>
        <time>2024-06-09T07:39:44Z</time>
      </trkpt>
      <trkpt lat="49.42845" lon="5.75759">
        <ele>257</ele>
        <time>2024-06-09T07:39:46Z</time>
      </trkpt>
      <trkpt lat="49.42841" lon="5.75763">
        <ele>257.39999389648</ele>
        <time>2024-06-09T07:39:48Z</time>
      </trkpt>
      <trkpt lat="49.42838" lon="5.75766">
        <ele>257.20001220703</ele>
        <time>2024-06-09T07:39:50Z</time>
      </trkpt>
      <trkpt lat="49.42835" lon="5.7577">
        <ele>257.20001220703</ele>
        <time>2024-06-09T07:39:52Z</time>
      </trkpt>
      <trkpt lat="49.42831" lon="5.75775">
        <ele>257.39999389648</ele>
        <time>2024-06-09T07:39:54Z</time>
      </trkpt>
      <trkpt lat="49.42827" lon="5.75781">
        <ele>257.79998779297</ele>
        <time>2024-06-09T07:39:56Z</time>
      </trkpt>
      <trkpt lat="49.42826" lon="5.75784">
        <ele>258.20001220703</ele>
        <time>2024-06-09T07:39:57Z</time>
      </trkpt>
      <trkpt lat="49.42824" lon="5.75786">
        <ele>258.60000610352</ele>
        <time>2024-06-09T07:39:58Z</time>
      </trkpt>
      <trkpt lat="49.42821" lon="5.75791">
        <ele>259.20001220703</ele>
        <time>2024-06-09T07:40:00Z</time>
      </trkpt>
      <trkpt lat="49.42817" lon="5.75795">
        <ele>259.60000610352</ele>
        <time>2024-06-09T07:40:02Z</time>
      </trkpt>
      <trkpt lat="49.42814" lon="5.75799">
        <ele>259.79998779297</ele>
        <time>2024-06-09T07:40:04Z</time>
      </trkpt>
      <trkpt lat="49.4281" lon="5.75803">
        <ele>260.20001220703</ele>
        <time>2024-06-09T07:40:06Z</time>
      </trkpt>
      <trkpt lat="49.42806" lon="5.75807">
        <ele>261</ele>
        <time>2024-06-09T07:40:08Z</time>
      </trkpt>
      <trkpt lat="49.42804" lon="5.75809">
        <ele>261.20001220703</ele>
        <time>2024-06-09T07:40:09Z</time>
      </trkpt>
      <trkpt lat="49.42802" lon="5.75811">
        <ele>261.20001220703</ele>
        <time>2024-06-09T07:40:10Z</time>
      </trkpt>
      <trkpt lat="49.42797" lon="5.75815">
        <ele>261.60000610352</ele>
        <time>2024-06-09T07:40:12Z</time>
      </trkpt>
      <trkpt lat="49.42792" lon="5.75821">
        <ele>262</ele>
        <time>2024-06-09T07:40:14Z</time>
      </trkpt>
      <trkpt lat="49.42789" lon="5.75823">
        <ele>262</ele>
        <time>2024-06-09T07:40:15Z</time>
      </trkpt>
      <trkpt lat="49.42785" lon="5.75826">
        <ele>262</ele>
        <time>2024-06-09T07:40:16Z</time>
      </trkpt>
      <trkpt lat="49.42778" lon="5.7583">
        <ele>262.20001220703</ele>
        <time>2024-06-09T07:40:18Z</time>
      </trkpt>
      <trkpt lat="49.42771" lon="5.75834">
        <ele>262.20001220703</ele>
        <time>2024-06-09T07:40:20Z</time>
      </trkpt>
      <trkpt lat="49.42762" lon="5.75837">
        <ele>262</ele>
        <time>2024-06-09T07:40:22Z</time>
      </trkpt>
      <trkpt lat="49.42751" lon="5.75841">
        <ele>262</ele>
        <time>2024-06-09T07:40:24Z</time>
      </trkpt>
      <trkpt lat="49.42745" lon="5.75844">
        <ele>262</ele>
        <time>2024-06-09T07:40:25Z</time>
      </trkpt>
      <trkpt lat="49.42739" lon="5.75848">
        <ele>261.60000610352</ele>
        <time>2024-06-09T07:40:26Z</time>
      </trkpt>
      <trkpt lat="49.42727" lon="5.75856">
        <ele>261.20001220703</ele>
        <time>2024-06-09T07:40:28Z</time>
      </trkpt>
      <trkpt lat="49.42717" lon="5.75866">
        <ele>260.79998779297</ele>
        <time>2024-06-09T07:40:30Z</time>
      </trkpt>
      <trkpt lat="49.42712" lon="5.75872">
        <ele>260</ele>
        <time>2024-06-09T07:40:31Z</time>
      </trkpt>
      <trkpt lat="49.42708" lon="5.75878">
        <ele>259.60000610352</ele>
        <time>2024-06-09T07:40:32Z</time>
      </trkpt>
      <trkpt lat="49.42701" lon="5.75888">
        <ele>258.60000610352</ele>
        <time>2024-06-09T07:40:34Z</time>
      </trkpt>
      <trkpt lat="49.42696" lon="5.75891">
        <ele>258</ele>
        <time>2024-06-09T07:40:35Z</time>
      </trkpt>
      <trkpt lat="49.42694" lon="5.75894">
        <ele>257.60000610352</ele>
        <time>2024-06-09T07:40:36Z</time>
      </trkpt>
      <trkpt lat="49.42688" lon="5.759">
        <ele>257.20001220703</ele>
        <time>2024-06-09T07:40:38Z</time>
      </trkpt>
      <trkpt lat="49.42684" lon="5.75905">
        <ele>257</ele>
        <time>2024-06-09T07:40:39Z</time>
      </trkpt>
      <trkpt lat="49.42681" lon="5.75907">
        <ele>257</ele>
        <time>2024-06-09T07:40:40Z</time>
      </trkpt>
      <trkpt lat="49.42675" lon="5.75912">
        <ele>256.79998779297</ele>
        <time>2024-06-09T07:40:42Z</time>
      </trkpt>
      <trkpt lat="49.42669" lon="5.75918">
        <ele>256.79998779297</ele>
        <time>2024-06-09T07:40:44Z</time>
      </trkpt>
      <trkpt lat="49.42661" lon="5.75922">
        <ele>256.79998779297</ele>
        <time>2024-06-09T07:40:46Z</time>
      </trkpt>
      <trkpt lat="49.42653" lon="5.75928">
        <ele>257</ele>
        <time>2024-06-09T07:40:48Z</time>
      </trkpt>
      <trkpt lat="49.42645" lon="5.75936">
        <ele>257.20001220703</ele>
        <time>2024-06-09T07:40:50Z</time>
      </trkpt>
      <trkpt lat="49.42639" lon="5.75945">
        <ele>257.39999389648</ele>
        <time>2024-06-09T07:40:52Z</time>
      </trkpt>
      <trkpt lat="49.42633" lon="5.75953">
        <ele>258</ele>
        <time>2024-06-09T07:40:54Z</time>
      </trkpt>
      <trkpt lat="49.42631" lon="5.75956">
        <ele>258</ele>
        <time>2024-06-09T07:40:55Z</time>
      </trkpt>
      <trkpt lat="49.4263" lon="5.75959">
        <ele>258.20001220703</ele>
        <time>2024-06-09T07:40:56Z</time>
      </trkpt>
      <trkpt lat="49.42627" lon="5.75965">
        <ele>258.60000610352</ele>
        <time>2024-06-09T07:40:58Z</time>
      </trkpt>
      <trkpt lat="49.42626" lon="5.75968">
        <ele>258.60000610352</ele>
        <time>2024-06-09T07:40:59Z</time>
      </trkpt>
      <trkpt lat="49.42624" lon="5.75971">
        <ele>258.79998779297</ele>
        <time>2024-06-09T07:41:00Z</time>
      </trkpt>
      <trkpt lat="49.42624" lon="5.75974">
        <ele>259.20001220703</ele>
        <time>2024-06-09T07:41:01Z</time>
      </trkpt>
      <trkpt lat="49.42623" lon="5.75978">
        <ele>259.20001220703</ele>
        <time>2024-06-09T07:41:02Z</time>
      </trkpt>
      <trkpt lat="49.42624" lon="5.75984">
        <ele>259.79998779297</ele>
        <time>2024-06-09T07:41:04Z</time>
      </trkpt>
      <trkpt lat="49.42624" lon="5.75987">
        <ele>260</ele>
        <time>2024-06-09T07:41:05Z</time>
      </trkpt>
      <trkpt lat="49.42625" lon="5.75989">
        <ele>260.20001220703</ele>
        <time>2024-06-09T07:41:06Z</time>
      </trkpt>
      <trkpt lat="49.42625" lon="5.75992">
        <ele>260.39999389648</ele>
        <time>2024-06-09T07:41:07Z</time>
      </trkpt>
      <trkpt lat="49.42625" lon="5.75994">
        <ele>260.39999389648</ele>
        <time>2024-06-09T07:41:08Z</time>
      </trkpt>
      <trkpt lat="49.42626" lon="5.75995">
        <ele>260.60000610352</ele>
        <time>2024-06-09T07:41:10Z</time>
      </trkpt>
      <trkpt lat="49.42626" lon="5.75994">
        <ele>260.79998779297</ele>
        <time>2024-06-09T07:41:12Z</time>
      </trkpt>
      <trkpt lat="49.42625" lon="5.75994">
        <ele>261.39999389648</ele>
        <time>2024-06-09T07:41:14Z</time>
      </trkpt>
      <trkpt lat="49.42625" lon="5.75993">
        <ele>261.79998779297</ele>
        <time>2024-06-09T07:41:15Z</time>
      </trkpt>
      <trkpt lat="49.42625" lon="5.75992">
        <ele>262.39999389648</ele>
        <time>2024-06-09T07:41:16Z</time>
      </trkpt>
      <trkpt lat="49.42627" lon="5.75991">
        <ele>263</ele>
        <time>2024-06-09T07:41:18Z</time>
      </trkpt>
      <trkpt lat="49.42627" lon="5.7599">
        <ele>263.39999389648</ele>
        <time>2024-06-09T07:41:20Z</time>
      </trkpt>
      <trkpt lat="49.42627" lon="5.7599">
        <ele>263.60000610352</ele>
        <time>2024-06-09T07:41:22Z</time>
      </trkpt>
      <trkpt lat="49.42629" lon="5.75992">
        <ele>264</ele>
        <time>2024-06-09T07:41:24Z</time>
      </trkpt>
      <trkpt lat="49.4263" lon="5.75993">
        <ele>264.39999389648</ele>
        <time>2024-06-09T07:41:26Z</time>
      </trkpt>
      <trkpt lat="49.42631" lon="5.75995">
        <ele>265.20001220703</ele>
        <time>2024-06-09T07:41:28Z</time>
      </trkpt>
      <trkpt lat="49.42633" lon="5.75997">
        <ele>265.60000610352</ele>
        <time>2024-06-09T07:41:30Z</time>
      </trkpt>
      <trkpt lat="49.42634" lon="5.75997">
        <ele>266.20001220703</ele>
        <time>2024-06-09T07:41:32Z</time>
      </trkpt>
      <trkpt lat="49.42636" lon="5.75997">
        <ele>267</ele>
        <time>2024-06-09T07:41:34Z</time>
      </trkpt>
      <trkpt lat="49.42638" lon="5.75997">
        <ele>267.39999389648</ele>
        <time>2024-06-09T07:41:36Z</time>
      </trkpt>
      <trkpt lat="49.42639" lon="5.75997">
        <ele>267.39999389648</ele>
        <time>2024-06-09T07:41:37Z</time>
      </trkpt>
      <trkpt lat="49.4264" lon="5.75997">
        <ele>267.79998779297</ele>
        <time>2024-06-09T07:41:38Z</time>
      </trkpt>
      <trkpt lat="49.42642" lon="5.75997">
        <ele>268.39999389648</ele>
        <time>2024-06-09T07:41:40Z</time>
      </trkpt>
      <trkpt lat="49.42643" lon="5.75997">
        <ele>268.60000610352</ele>
        <time>2024-06-09T07:41:41Z</time>
      </trkpt>
      <trkpt lat="49.42644" lon="5.75997">
        <ele>269.39999389648</ele>
        <time>2024-06-09T07:41:42Z</time>
      </trkpt>
      <trkpt lat="49.42646" lon="5.75998">
        <ele>269.79998779297</ele>
        <time>2024-06-09T07:41:43Z</time>
      </trkpt>
      <trkpt lat="49.42647" lon="5.75999">
        <ele>270</ele>
        <time>2024-06-09T07:41:44Z</time>
      </trkpt>
      <trkpt lat="49.4265" lon="5.76">
        <ele>270.79998779297</ele>
        <time>2024-06-09T07:41:46Z</time>
      </trkpt>
      <trkpt lat="49.42651" lon="5.76">
        <ele>271</ele>
        <time>2024-06-09T07:41:47Z</time>
      </trkpt>
      <trkpt lat="49.42652" lon="5.76001">
        <ele>271.39999389648</ele>
        <time>2024-06-09T07:41:48Z</time>
      </trkpt>
      <trkpt lat="49.42653" lon="5.76002">
        <ele>271.79998779297</ele>
        <time>2024-06-09T07:41:49Z</time>
      </trkpt>
      <trkpt lat="49.42654" lon="5.76003">
        <ele>272.20001220703</ele>
        <time>2024-06-09T07:41:50Z</time>
      </trkpt>
      <trkpt lat="49.42656" lon="5.76005">
        <ele>272.79998779297</ele>
        <time>2024-06-09T07:41:52Z</time>
      </trkpt>
      <trkpt lat="49.42657" lon="5.76006">
        <ele>273.20001220703</ele>
        <time>2024-06-09T07:41:53Z</time>
      </trkpt>
      <trkpt lat="49.42659" lon="5.76007">
        <ele>273.60000610352</ele>
        <time>2024-06-09T07:41:54Z</time>
      </trkpt>
      <trkpt lat="49.42661" lon="5.76008">
        <ele>274.20001220703</ele>
        <time>2024-06-09T07:41:56Z</time>
      </trkpt>
      <trkpt lat="49.42663" lon="5.7601">
        <ele>275</ele>
        <time>2024-06-09T07:41:58Z</time>
      </trkpt>
      <trkpt lat="49.42665" lon="5.7601">
        <ele>275.20001220703</ele>
        <time>2024-06-09T07:41:59Z</time>
      </trkpt>
      <trkpt lat="49.42666" lon="5.76011">
        <ele>275.60000610352</ele>
        <time>2024-06-09T07:42:00Z</time>
      </trkpt>
      <trkpt lat="49.42668" lon="5.76012">
        <ele>276.20001220703</ele>
        <time>2024-06-09T07:42:02Z</time>
      </trkpt>
      <trkpt lat="49.4267" lon="5.76013">
        <ele>276.79998779297</ele>
        <time>2024-06-09T07:42:04Z</time>
      </trkpt>
      <trkpt lat="49.42672" lon="5.76014">
        <ele>277.39999389648</ele>
        <time>2024-06-09T07:42:06Z</time>
      </trkpt>
      <trkpt lat="49.42674" lon="5.76014">
        <ele>277.79998779297</ele>
        <time>2024-06-09T07:42:07Z</time>
      </trkpt>
      <trkpt lat="49.42675" lon="5.76014">
        <ele>278.20001220703</ele>
        <time>2024-06-09T07:42:08Z</time>
      </trkpt>
      <trkpt lat="49.42677" lon="5.76015">
        <ele>278.79998779297</ele>
        <time>2024-06-09T07:42:10Z</time>
      </trkpt>
      <trkpt lat="49.42679" lon="5.76015">
        <ele>279.60000610352</ele>
        <time>2024-06-09T07:42:11Z</time>
      </trkpt>
      <trkpt lat="49.42681" lon="5.76014">
        <ele>279.79998779297</ele>
        <time>2024-06-09T07:42:12Z</time>
      </trkpt>
      <trkpt lat="49.42683" lon="5.76014">
        <ele>280.79998779297</ele>
        <time>2024-06-09T07:42:14Z</time>
      </trkpt>
      <trkpt lat="49.42685" lon="5.76014">
        <ele>281.60000610352</ele>
        <time>2024-06-09T07:42:16Z</time>
      </trkpt>
      <trkpt lat="49.42687" lon="5.76014">
        <ele>282</ele>
        <time>2024-06-09T07:42:17Z</time>
      </trkpt>
      <trkpt lat="49.42688" lon="5.76015">
        <ele>282.39999389648</ele>
        <time>2024-06-09T07:42:18Z</time>
      </trkpt>
      <trkpt lat="49.4269" lon="5.76016">
        <ele>283</ele>
        <time>2024-06-09T07:42:20Z</time>
      </trkpt>
      <trkpt lat="49.42691" lon="5.76017">
        <ele>283.20001220703</ele>
        <time>2024-06-09T07:42:21Z</time>
      </trkpt>
      <trkpt lat="49.42692" lon="5.76018">
        <ele>283.39999389648</ele>
        <time>2024-06-09T07:42:22Z</time>
      </trkpt>
      <trkpt lat="49.42695" lon="5.76018">
        <ele>284</ele>
        <time>2024-06-09T07:42:24Z</time>
      </trkpt>
      <trkpt lat="49.42697" lon="5.76018">
        <ele>284.39999389648</ele>
        <time>2024-06-09T07:42:25Z</time>
      </trkpt>
      <trkpt lat="49.42699" lon="5.76019">
        <ele>284.79998779297</ele>
        <time>2024-06-09T07:42:26Z</time>
      </trkpt>
      <trkpt lat="49.42702" lon="5.76019">
        <ele>285.20001220703</ele>
        <time>2024-06-09T07:42:28Z</time>
      </trkpt>
      <trkpt lat="49.42703" lon="5.76018">
        <ele>285.60000610352</ele>
        <time>2024-06-09T07:42:29Z</time>
      </trkpt>
      <trkpt lat="49.42705" lon="5.76019">
        <ele>286</ele>
        <time>2024-06-09T07:42:30Z</time>
      </trkpt>
      <trkpt lat="49.42708" lon="5.76019">
        <ele>286.60000610352</ele>
        <time>2024-06-09T07:42:32Z</time>
      </trkpt>
      <trkpt lat="49.42709" lon="5.76019">
        <ele>286.79998779297</ele>
        <time>2024-06-09T07:42:33Z</time>
      </trkpt>
      <trkpt lat="49.4271" lon="5.76019">
        <ele>287.20001220703</ele>
        <time>2024-06-09T07:42:34Z</time>
      </trkpt>
      <trkpt lat="49.42713" lon="5.76018">
        <ele>288</ele>
        <time>2024-06-09T07:42:36Z</time>
      </trkpt>
      <trkpt lat="49.42715" lon="5.76016">
        <ele>288.20001220703</ele>
        <time>2024-06-09T07:42:37Z</time>
      </trkpt>
      <trkpt lat="49.42715" lon="5.76016">
        <ele>288.39999389648</ele>
        <time>2024-06-09T07:42:38Z</time>
      </trkpt>
      <trkpt lat="49.42717" lon="5.76014">
        <ele>289.20001220703</ele>
        <time>2024-06-09T07:42:40Z</time>
      </trkpt>
      <trkpt lat="49.42719" lon="5.76013">
        <ele>289.39999389648</ele>
        <time>2024-06-09T07:42:41Z</time>
      </trkpt>
      <trkpt lat="49.4272" lon="5.76012">
        <ele>289.60000610352</ele>
        <time>2024-06-09T07:42:42Z</time>
      </trkpt>
      <trkpt lat="49.42721" lon="5.7601">
        <ele>290</ele>
        <time>2024-06-09T07:42:44Z</time>
      </trkpt>
      <trkpt lat="49.42723" lon="5.76008">
        <ele>290.60000610352</ele>
        <time>2024-06-09T07:42:46Z</time>
      </trkpt>
      <trkpt lat="49.42725" lon="5.76006">
        <ele>291</ele>
        <time>2024-06-09T07:42:48Z</time>
      </trkpt>
      <trkpt lat="49.42728" lon="5.76004">
        <ele>291.39999389648</ele>
        <time>2024-06-09T07:42:50Z</time>
      </trkpt>
      <trkpt lat="49.42728" lon="5.76003">
        <ele>291.60000610352</ele>
        <time>2024-06-09T07:42:51Z</time>
      </trkpt>
      <trkpt lat="49.42729" lon="5.76002">
        <ele>292</ele>
        <time>2024-06-09T07:42:52Z</time>
      </trkpt>
      <trkpt lat="49.4273" lon="5.76001">
        <ele>292.39999389648</ele>
        <time>2024-06-09T07:42:53Z</time>
      </trkpt>
      <trkpt lat="49.42731" lon="5.76">
        <ele>292.60000610352</ele>
        <time>2024-06-09T07:42:54Z</time>
      </trkpt>
      <trkpt lat="49.42732" lon="5.75997">
        <ele>293</ele>
        <time>2024-06-09T07:42:56Z</time>
      </trkpt>
      <trkpt lat="49.42734" lon="5.75995">
        <ele>293.39999389648</ele>
        <time>2024-06-09T07:42:58Z</time>
      </trkpt>
      <trkpt lat="49.42735" lon="5.75992">
        <ele>293.79998779297</ele>
        <time>2024-06-09T07:43:00Z</time>
      </trkpt>
      <trkpt lat="49.42736" lon="5.75991">
        <ele>294</ele>
        <time>2024-06-09T07:43:01Z</time>
      </trkpt>
      <trkpt lat="49.42737" lon="5.75989">
        <ele>294.20001220703</ele>
        <time>2024-06-09T07:43:02Z</time>
      </trkpt>
      <trkpt lat="49.42739" lon="5.75986">
        <ele>294.79998779297</ele>
        <time>2024-06-09T07:43:04Z</time>
      </trkpt>
      <trkpt lat="49.4274" lon="5.75985">
        <ele>295.20001220703</ele>
        <time>2024-06-09T07:43:05Z</time>
      </trkpt>
      <trkpt lat="49.42741" lon="5.75983">
        <ele>295.39999389648</ele>
        <time>2024-06-09T07:43:06Z</time>
      </trkpt>
      <trkpt lat="49.42743" lon="5.75982">
        <ele>296</ele>
        <time>2024-06-09T07:43:08Z</time>
      </trkpt>
      <trkpt lat="49.42744" lon="5.75981">
        <ele>296.20001220703</ele>
        <time>2024-06-09T07:43:09Z</time>
      </trkpt>
      <trkpt lat="49.42745" lon="5.75979">
        <ele>296.39999389648</ele>
        <time>2024-06-09T07:43:10Z</time>
      </trkpt>
      <trkpt lat="49.42748" lon="5.75978">
        <ele>296.60000610352</ele>
        <time>2024-06-09T07:43:12Z</time>
      </trkpt>
      <trkpt lat="49.42751" lon="5.75976">
        <ele>296.60000610352</ele>
        <time>2024-06-09T07:43:14Z</time>
      </trkpt>
      <trkpt lat="49.42754" lon="5.75975">
        <ele>296.60000610352</ele>
        <time>2024-06-09T07:43:16Z</time>
      </trkpt>
      <trkpt lat="49.42757" lon="5.75975">
        <ele>296.79998779297</ele>
        <time>2024-06-09T07:43:18Z</time>
      </trkpt>
      <trkpt lat="49.4276" lon="5.75973">
        <ele>297.20001220703</ele>
        <time>2024-06-09T07:43:20Z</time>
      </trkpt>
      <trkpt lat="49.42764" lon="5.75972">
        <ele>297.60000610352</ele>
        <time>2024-06-09T07:43:22Z</time>
      </trkpt>
      <trkpt lat="49.42769" lon="5.7597">
        <ele>298</ele>
        <time>2024-06-09T07:43:24Z</time>
      </trkpt>
      <trkpt lat="49.42773" lon="5.75968">
        <ele>298.39999389648</ele>
        <time>2024-06-09T07:43:26Z</time>
      </trkpt>
      <trkpt lat="49.42778" lon="5.75966">
        <ele>298.79998779297</ele>
        <time>2024-06-09T07:43:28Z</time>
      </trkpt>
      <trkpt lat="49.42782" lon="5.75965">
        <ele>299</ele>
        <time>2024-06-09T07:43:30Z</time>
      </trkpt>
      <trkpt lat="49.42786" lon="5.75964">
        <ele>299</ele>
        <time>2024-06-09T07:43:32Z</time>
      </trkpt>
      <trkpt lat="49.42791" lon="5.75962">
        <ele>299.20001220703</ele>
        <time>2024-06-09T07:43:34Z</time>
      </trkpt>
      <trkpt lat="49.42796" lon="5.75961">
        <ele>299.60000610352</ele>
        <time>2024-06-09T07:43:36Z</time>
      </trkpt>
      <trkpt lat="49.42801" lon="5.7596">
        <ele>300</ele>
        <time>2024-06-09T07:43:38Z</time>
      </trkpt>
      <trkpt lat="49.42803" lon="5.7596">
        <ele>300.20001220703</ele>
        <time>2024-06-09T07:43:39Z</time>
      </trkpt>
      <trkpt lat="49.42806" lon="5.7596">
        <ele>300.39999389648</ele>
        <time>2024-06-09T07:43:40Z</time>
      </trkpt>
      <trkpt lat="49.42808" lon="5.75959">
        <ele>300.79998779297</ele>
        <time>2024-06-09T07:43:41Z</time>
      </trkpt>
      <trkpt lat="49.4281" lon="5.75959">
        <ele>301</ele>
        <time>2024-06-09T07:43:42Z</time>
      </trkpt>
      <trkpt lat="49.42815" lon="5.75959">
        <ele>301.39999389648</ele>
        <time>2024-06-09T07:43:44Z</time>
      </trkpt>
      <trkpt lat="49.42819" lon="5.75959">
        <ele>301.60000610352</ele>
        <time>2024-06-09T07:43:46Z</time>
      </trkpt>
      <trkpt lat="49.42824" lon="5.75959">
        <ele>301.79998779297</ele>
        <time>2024-06-09T07:43:48Z</time>
      </trkpt>
      <trkpt lat="49.42826" lon="5.75958">
        <ele>302</ele>
        <time>2024-06-09T07:43:49Z</time>
      </trkpt>
      <trkpt lat="49.42828" lon="5.75958">
        <ele>302</ele>
        <time>2024-06-09T07:43:50Z</time>
      </trkpt>
      <trkpt lat="49.42832" lon="5.75959">
        <ele>302.20001220703</ele>
        <time>2024-06-09T07:43:52Z</time>
      </trkpt>
      <trkpt lat="49.42836" lon="5.75959">
        <ele>302.39999389648</ele>
        <time>2024-06-09T07:43:54Z</time>
      </trkpt>
      <trkpt lat="49.4284" lon="5.7596">
        <ele>302.79998779297</ele>
        <time>2024-06-09T07:43:56Z</time>
      </trkpt>
      <trkpt lat="49.42841" lon="5.7596">
        <ele>303</ele>
        <time>2024-06-09T07:43:57Z</time>
      </trkpt>
      <trkpt lat="49.42843" lon="5.7596">
        <ele>303</ele>
        <time>2024-06-09T07:43:58Z</time>
      </trkpt>
      <trkpt lat="49.42847" lon="5.75961">
        <ele>303.39999389648</ele>
        <time>2024-06-09T07:44:00Z</time>
      </trkpt>
      <trkpt lat="49.42849" lon="5.75961">
        <ele>304</ele>
        <time>2024-06-09T07:44:02Z</time>
      </trkpt>
      <trkpt lat="49.42852" lon="5.75961">
        <ele>305</ele>
        <time>2024-06-09T07:44:04Z</time>
      </trkpt>
      <trkpt lat="49.42854" lon="5.75962">
        <ele>305.20001220703</ele>
        <time>2024-06-09T07:44:05Z</time>
      </trkpt>
      <trkpt lat="49.42856" lon="5.75962">
        <ele>305.20001220703</ele>
        <time>2024-06-09T07:44:06Z</time>
      </trkpt>
      <trkpt lat="49.42859" lon="5.75963">
        <ele>305.39999389648</ele>
        <time>2024-06-09T07:44:08Z</time>
      </trkpt>
      <trkpt lat="49.42861" lon="5.75963">
        <ele>305.60000610352</ele>
        <time>2024-06-09T07:44:09Z</time>
      </trkpt>
      <trkpt lat="49.42863" lon="5.75963">
        <ele>305.79998779297</ele>
        <time>2024-06-09T07:44:10Z</time>
      </trkpt>
      <trkpt lat="49.42867" lon="5.75963">
        <ele>306.20001220703</ele>
        <time>2024-06-09T07:44:12Z</time>
      </trkpt>
      <trkpt lat="49.42869" lon="5.75964">
        <ele>306.39999389648</ele>
        <time>2024-06-09T07:44:13Z</time>
      </trkpt>
      <trkpt lat="49.4287" lon="5.75966">
        <ele>306.60000610352</ele>
        <time>2024-06-09T07:44:14Z</time>
      </trkpt>
      <trkpt lat="49.42869" lon="5.75968">
        <ele>306.79998779297</ele>
        <time>2024-06-09T07:44:15Z</time>
      </trkpt>
      <trkpt lat="49.42869" lon="5.7597">
        <ele>307</ele>
        <time>2024-06-09T07:44:16Z</time>
      </trkpt>
      <trkpt lat="49.42868" lon="5.75972">
        <ele>307.20001220703</ele>
        <time>2024-06-09T07:44:17Z</time>
      </trkpt>
      <trkpt lat="49.42867" lon="5.75974">
        <ele>307.39999389648</ele>
        <time>2024-06-09T07:44:18Z</time>
      </trkpt>
      <trkpt lat="49.42865" lon="5.75978">
        <ele>307.60000610352</ele>
        <time>2024-06-09T07:44:20Z</time>
      </trkpt>
      <trkpt lat="49.42863" lon="5.75979">
        <ele>307.79998779297</ele>
        <time>2024-06-09T07:44:21Z</time>
      </trkpt>
      <trkpt lat="49.42862" lon="5.75981">
        <ele>308</ele>
        <time>2024-06-09T07:44:22Z</time>
      </trkpt>
      <trkpt lat="49.42858" lon="5.75986">
        <ele>308.20001220703</ele>
        <time>2024-06-09T07:44:24Z</time>
      </trkpt>
      <trkpt lat="49.42854" lon="5.75991">
        <ele>308.20001220703</ele>
        <time>2024-06-09T07:44:26Z</time>
      </trkpt>
      <trkpt lat="49.42852" lon="5.75994">
        <ele>308.20001220703</ele>
        <time>2024-06-09T07:44:27Z</time>
      </trkpt>
      <trkpt lat="49.4285" lon="5.75997">
        <ele>308.20001220703</ele>
        <time>2024-06-09T07:44:28Z</time>
      </trkpt>
      <trkpt lat="49.42847" lon="5.76004">
        <ele>308.20001220703</ele>
        <time>2024-06-09T07:44:30Z</time>
      </trkpt>
      <trkpt lat="49.42844" lon="5.76011">
        <ele>308.39999389648</ele>
        <time>2024-06-09T07:44:32Z</time>
      </trkpt>
      <trkpt lat="49.42841" lon="5.7602">
        <ele>308.39999389648</ele>
        <time>2024-06-09T07:44:34Z</time>
      </trkpt>
      <trkpt lat="49.42838" lon="5.7603">
        <ele>308.39999389648</ele>
        <time>2024-06-09T07:44:36Z</time>
      </trkpt>
      <trkpt lat="49.42836" lon="5.76035">
        <ele>308.39999389648</ele>
        <time>2024-06-09T07:44:37Z</time>
      </trkpt>
      <trkpt lat="49.42835" lon="5.76041">
        <ele>308.39999389648</ele>
        <time>2024-06-09T07:44:38Z</time>
      </trkpt>
      <trkpt lat="49.42831" lon="5.76053">
        <ele>308.20001220703</ele>
        <time>2024-06-09T07:44:40Z</time>
      </trkpt>
      <trkpt lat="49.42827" lon="5.76068">
        <ele>308</ele>
        <time>2024-06-09T07:44:42Z</time>
      </trkpt>
      <trkpt lat="49.42825" lon="5.76076">
        <ele>308</ele>
        <time>2024-06-09T07:44:43Z</time>
      </trkpt>
      <trkpt lat="49.42823" lon="5.76083">
        <ele>308</ele>
        <time>2024-06-09T07:44:44Z</time>
      </trkpt>
      <trkpt lat="49.4282" lon="5.7609">
        <ele>308</ele>
        <time>2024-06-09T07:44:45Z</time>
      </trkpt>
      <trkpt lat="49.42818" lon="5.76095">
        <ele>308</ele>
        <time>2024-06-09T07:44:46Z</time>
      </trkpt>
      <trkpt lat="49.42817" lon="5.761">
        <ele>308</ele>
        <time>2024-06-09T07:44:47Z</time>
      </trkpt>
      <trkpt lat="49.42816" lon="5.76103">
        <ele>307.60000610352</ele>
        <time>2024-06-09T07:44:48Z</time>
      </trkpt>
      <trkpt lat="49.42816" lon="5.76105">
        <ele>307.20001220703</ele>
        <time>2024-06-09T07:44:49Z</time>
      </trkpt>
      <trkpt lat="49.42814" lon="5.76106">
        <ele>306.60000610352</ele>
        <time>2024-06-09T07:44:50Z</time>
      </trkpt>
      <trkpt lat="49.42814" lon="5.76108">
        <ele>305.60000610352</ele>
        <time>2024-06-09T07:44:51Z</time>
      </trkpt>
      <trkpt lat="49.42814" lon="5.76111">
        <ele>304.79998779297</ele>
        <time>2024-06-09T07:44:52Z</time>
      </trkpt>
      <trkpt lat="49.42814" lon="5.76114">
        <ele>304.39999389648</ele>
        <time>2024-06-09T07:44:53Z</time>
      </trkpt>
      <trkpt lat="49.42814" lon="5.76115">
        <ele>304</ele>
        <time>2024-06-09T07:44:54Z</time>
      </trkpt>
      <trkpt lat="49.42814" lon="5.76121">
        <ele>303.79998779297</ele>
        <time>2024-06-09T07:44:56Z</time>
      </trkpt>
      <trkpt lat="49.42814" lon="5.76124">
        <ele>303.79998779297</ele>
        <time>2024-06-09T07:44:57Z</time>
      </trkpt>
      <trkpt lat="49.42814" lon="5.76126">
        <ele>303.79998779297</ele>
        <time>2024-06-09T07:44:58Z</time>
      </trkpt>
      <trkpt lat="49.42813" lon="5.76134">
        <ele>303.79998779297</ele>
        <time>2024-06-09T07:45:00Z</time>
      </trkpt>
      <trkpt lat="49.42813" lon="5.76139">
        <ele>303.79998779297</ele>
        <time>2024-06-09T07:45:02Z</time>
      </trkpt>
      <trkpt lat="49.42812" lon="5.76145">
        <ele>304</ele>
        <time>2024-06-09T07:45:04Z</time>
      </trkpt>
      <trkpt lat="49.42812" lon="5.76149">
        <ele>304</ele>
        <time>2024-06-09T07:45:06Z</time>
      </trkpt>
      <trkpt lat="49.4281" lon="5.76156">
        <ele>304</ele>
        <time>2024-06-09T07:45:08Z</time>
      </trkpt>
      <trkpt lat="49.4281" lon="5.76165">
        <ele>304</ele>
        <time>2024-06-09T07:45:10Z</time>
      </trkpt>
      <trkpt lat="49.4281" lon="5.76172">
        <ele>303.79998779297</ele>
        <time>2024-06-09T07:45:12Z</time>
      </trkpt>
      <trkpt lat="49.42809" lon="5.7618">
        <ele>303.60000610352</ele>
        <time>2024-06-09T07:45:14Z</time>
      </trkpt>
      <trkpt lat="49.42808" lon="5.76184">
        <ele>302.60000610352</ele>
        <time>2024-06-09T07:45:15Z</time>
      </trkpt>
      <trkpt lat="49.42807" lon="5.76189">
        <ele>301.39999389648</ele>
        <time>2024-06-09T07:45:16Z</time>
      </trkpt>
      <trkpt lat="49.42806" lon="5.76197">
        <ele>299.79998779297</ele>
        <time>2024-06-09T07:45:18Z</time>
      </trkpt>
      <trkpt lat="49.42805" lon="5.76204">
        <ele>297.79998779297</ele>
        <time>2024-06-09T07:45:20Z</time>
      </trkpt>
      <trkpt lat="49.42804" lon="5.76208">
        <ele>296.60000610352</ele>
        <time>2024-06-09T07:45:21Z</time>
      </trkpt>
      <trkpt lat="49.42804" lon="5.76213">
        <ele>296</ele>
        <time>2024-06-09T07:45:22Z</time>
      </trkpt>
      <trkpt lat="49.42805" lon="5.76216">
        <ele>295.60000610352</ele>
        <time>2024-06-09T07:45:23Z</time>
      </trkpt>
      <trkpt lat="49.42805" lon="5.7622">
        <ele>295.39999389648</ele>
        <time>2024-06-09T07:45:24Z</time>
      </trkpt>
      <trkpt lat="49.42804" lon="5.76228">
        <ele>295.20001220703</ele>
        <time>2024-06-09T07:45:26Z</time>
      </trkpt>
      <trkpt lat="49.42805" lon="5.76231">
        <ele>295.20001220703</ele>
        <time>2024-06-09T07:45:27Z</time>
      </trkpt>
      <trkpt lat="49.42805" lon="5.76234">
        <ele>295.20001220703</ele>
        <time>2024-06-09T07:45:28Z</time>
      </trkpt>
      <trkpt lat="49.42805" lon="5.76243">
        <ele>295.20001220703</ele>
        <time>2024-06-09T07:45:30Z</time>
      </trkpt>
      <trkpt lat="49.42805" lon="5.76251">
        <ele>295.20001220703</ele>
        <time>2024-06-09T07:45:32Z</time>
      </trkpt>
      <trkpt lat="49.42805" lon="5.76258">
        <ele>295.39999389648</ele>
        <time>2024-06-09T07:45:34Z</time>
      </trkpt>
      <trkpt lat="49.42804" lon="5.76266">
        <ele>295.39999389648</ele>
        <time>2024-06-09T07:45:36Z</time>
      </trkpt>
      <trkpt lat="49.42804" lon="5.7627">
        <ele>295.60000610352</ele>
        <time>2024-06-09T07:45:37Z</time>
      </trkpt>
      <trkpt lat="49.42803" lon="5.76274">
        <ele>295.60000610352</ele>
        <time>2024-06-09T07:45:38Z</time>
      </trkpt>
      <trkpt lat="49.42801" lon="5.76283">
        <ele>296</ele>
        <time>2024-06-09T07:45:40Z</time>
      </trkpt>
      <trkpt lat="49.42798" lon="5.76292">
        <ele>296</ele>
        <time>2024-06-09T07:45:42Z</time>
      </trkpt>
      <trkpt lat="49.42797" lon="5.76298">
        <ele>296</ele>
        <time>2024-06-09T07:45:43Z</time>
      </trkpt>
      <trkpt lat="49.42796" lon="5.76302">
        <ele>296</ele>
        <time>2024-06-09T07:45:44Z</time>
      </trkpt>
      <trkpt lat="49.42794" lon="5.76313">
        <ele>296</ele>
        <time>2024-06-09T07:45:46Z</time>
      </trkpt>
      <trkpt lat="49.42792" lon="5.76323">
        <ele>296</ele>
        <time>2024-06-09T07:45:48Z</time>
      </trkpt>
      <trkpt lat="49.42792" lon="5.76327">
        <ele>296</ele>
        <time>2024-06-09T07:45:49Z</time>
      </trkpt>
      <trkpt lat="49.4279" lon="5.76332">
        <ele>296</ele>
        <time>2024-06-09T07:45:50Z</time>
      </trkpt>
      <trkpt lat="49.42789" lon="5.76341">
        <ele>295.79998779297</ele>
        <time>2024-06-09T07:45:52Z</time>
      </trkpt>
      <trkpt lat="49.42788" lon="5.76349">
        <ele>295.79998779297</ele>
        <time>2024-06-09T07:45:54Z</time>
      </trkpt>
      <trkpt lat="49.42787" lon="5.76354">
        <ele>295.60000610352</ele>
        <time>2024-06-09T07:45:55Z</time>
      </trkpt>
      <trkpt lat="49.42783" lon="5.76361">
        <ele>295.60000610352</ele>
        <time>2024-06-09T07:45:56Z</time>
      </trkpt>
      <trkpt lat="49.42777" lon="5.76376">
        <ele>295.39999389648</ele>
        <time>2024-06-09T07:45:58Z</time>
      </trkpt>
      <trkpt lat="49.42773" lon="5.7639">
        <ele>295.20001220703</ele>
        <time>2024-06-09T07:46:00Z</time>
      </trkpt>
      <trkpt lat="49.42771" lon="5.76402">
        <ele>294.79998779297</ele>
        <time>2024-06-09T07:46:02Z</time>
      </trkpt>
      <trkpt lat="49.4277" lon="5.76408">
        <ele>294.60000610352</ele>
        <time>2024-06-09T07:46:03Z</time>
      </trkpt>
      <trkpt lat="49.42769" lon="5.76412">
        <ele>294.20001220703</ele>
        <time>2024-06-09T07:46:04Z</time>
      </trkpt>
      <trkpt lat="49.42768" lon="5.76417">
        <ele>293.79998779297</ele>
        <time>2024-06-09T07:46:05Z</time>
      </trkpt>
      <trkpt lat="49.42767" lon="5.76421">
        <ele>293.20001220703</ele>
        <time>2024-06-09T07:46:06Z</time>
      </trkpt>
      <trkpt lat="49.42764" lon="5.76425">
        <ele>292.79998779297</ele>
        <time>2024-06-09T07:46:08Z</time>
      </trkpt>
      <trkpt lat="49.42761" lon="5.76429">
        <ele>292.79998779297</ele>
        <time>2024-06-09T07:46:09Z</time>
      </trkpt>
      <trkpt lat="49.42757" lon="5.76432">
        <ele>292.79998779297</ele>
        <time>2024-06-09T07:46:10Z</time>
      </trkpt>
      <trkpt lat="49.42749" lon="5.76438">
        <ele>292.39999389648</ele>
        <time>2024-06-09T07:46:12Z</time>
      </trkpt>
      <trkpt lat="49.42746" lon="5.76441">
        <ele>292.20001220703</ele>
        <time>2024-06-09T07:46:13Z</time>
      </trkpt>
      <trkpt lat="49.42742" lon="5.76444">
        <ele>292</ele>
        <time>2024-06-09T07:46:14Z</time>
      </trkpt>
      <trkpt lat="49.42733" lon="5.76453">
        <ele>291.60000610352</ele>
        <time>2024-06-09T07:46:16Z</time>
      </trkpt>
      <trkpt lat="49.42725" lon="5.76463">
        <ele>291.79998779297</ele>
        <time>2024-06-09T07:46:18Z</time>
      </trkpt>
      <trkpt lat="49.42722" lon="5.76466">
        <ele>292</ele>
        <time>2024-06-09T07:46:19Z</time>
      </trkpt>
      <trkpt lat="49.4272" lon="5.76469">
        <ele>292</ele>
        <time>2024-06-09T07:46:20Z</time>
      </trkpt>
      <trkpt lat="49.42714" lon="5.76475">
        <ele>292.60000610352</ele>
        <time>2024-06-09T07:46:22Z</time>
      </trkpt>
      <trkpt lat="49.42708" lon="5.76482">
        <ele>293.20001220703</ele>
        <time>2024-06-09T07:46:24Z</time>
      </trkpt>
      <trkpt lat="49.42704" lon="5.76487">
        <ele>293.20001220703</ele>
        <time>2024-06-09T07:46:25Z</time>
      </trkpt>
      <trkpt lat="49.42701" lon="5.7649">
        <ele>293.39999389648</ele>
        <time>2024-06-09T07:46:26Z</time>
      </trkpt>
      <trkpt lat="49.42694" lon="5.76497">
        <ele>293.79998779297</ele>
        <time>2024-06-09T07:46:28Z</time>
      </trkpt>
      <trkpt lat="49.42686" lon="5.76505">
        <ele>294.20001220703</ele>
        <time>2024-06-09T07:46:30Z</time>
      </trkpt>
      <trkpt lat="49.42683" lon="5.76508">
        <ele>294.20001220703</ele>
        <time>2024-06-09T07:46:31Z</time>
      </trkpt>
      <trkpt lat="49.4268" lon="5.76512">
        <ele>294.39999389648</ele>
        <time>2024-06-09T07:46:32Z</time>
      </trkpt>
      <trkpt lat="49.42674" lon="5.76517">
        <ele>294.60000610352</ele>
        <time>2024-06-09T07:46:34Z</time>
      </trkpt>
      <trkpt lat="49.42666" lon="5.76526">
        <ele>294.79998779297</ele>
        <time>2024-06-09T07:46:36Z</time>
      </trkpt>
      <trkpt lat="49.42658" lon="5.76534">
        <ele>294.60000610352</ele>
        <time>2024-06-09T07:46:38Z</time>
      </trkpt>
      <trkpt lat="49.42651" lon="5.76542">
        <ele>294.79998779297</ele>
        <time>2024-06-09T07:46:40Z</time>
      </trkpt>
      <trkpt lat="49.42646" lon="5.76549">
        <ele>294.60000610352</ele>
        <time>2024-06-09T07:46:41Z</time>
      </trkpt>
      <trkpt lat="49.42644" lon="5.76555">
        <ele>294.60000610352</ele>
        <time>2024-06-09T07:46:42Z</time>
      </trkpt>
      <trkpt lat="49.4264" lon="5.76567">
        <ele>294.20001220703</ele>
        <time>2024-06-09T07:46:44Z</time>
      </trkpt>
      <trkpt lat="49.42636" lon="5.76578">
        <ele>294.39999389648</ele>
        <time>2024-06-09T07:46:46Z</time>
      </trkpt>
      <trkpt lat="49.42633" lon="5.76587">
        <ele>294.60000610352</ele>
        <time>2024-06-09T07:46:48Z</time>
      </trkpt>
      <trkpt lat="49.42632" lon="5.76595">
        <ele>294.60000610352</ele>
        <time>2024-06-09T07:46:50Z</time>
      </trkpt>
      <trkpt lat="49.42628" lon="5.76605">
        <ele>294.60000610352</ele>
        <time>2024-06-09T07:46:52Z</time>
      </trkpt>
      <trkpt lat="49.42624" lon="5.76616">
        <ele>295.39999389648</ele>
        <time>2024-06-09T07:46:54Z</time>
      </trkpt>
      <trkpt lat="49.42622" lon="5.76622">
        <ele>295.60000610352</ele>
        <time>2024-06-09T07:46:55Z</time>
      </trkpt>
      <trkpt lat="49.42621" lon="5.76627">
        <ele>296</ele>
        <time>2024-06-09T07:46:56Z</time>
      </trkpt>
      <trkpt lat="49.42619" lon="5.76638">
        <ele>296.20001220703</ele>
        <time>2024-06-09T07:46:58Z</time>
      </trkpt>
      <trkpt lat="49.42618" lon="5.76651">
        <ele>296.20001220703</ele>
        <time>2024-06-09T07:47:00Z</time>
      </trkpt>
      <trkpt lat="49.42618" lon="5.7666">
        <ele>296.20001220703</ele>
        <time>2024-06-09T07:47:01Z</time>
      </trkpt>
      <trkpt lat="49.42618" lon="5.76669">
        <ele>296.20001220703</ele>
        <time>2024-06-09T07:47:02Z</time>
      </trkpt>
      <trkpt lat="49.42619" lon="5.76686">
        <ele>296.20001220703</ele>
        <time>2024-06-09T07:47:04Z</time>
      </trkpt>
      <trkpt lat="49.42622" lon="5.76699">
        <ele>296.20001220703</ele>
        <time>2024-06-09T07:47:06Z</time>
      </trkpt>
      <trkpt lat="49.42624" lon="5.7671">
        <ele>295.79998779297</ele>
        <time>2024-06-09T07:47:08Z</time>
      </trkpt>
      <trkpt lat="49.42626" lon="5.76721">
        <ele>295.60000610352</ele>
        <time>2024-06-09T07:47:10Z</time>
      </trkpt>
      <trkpt lat="49.42626" lon="5.76727">
        <ele>295.60000610352</ele>
        <time>2024-06-09T07:47:11Z</time>
      </trkpt>
      <trkpt lat="49.42627" lon="5.76732">
        <ele>295.60000610352</ele>
        <time>2024-06-09T07:47:12Z</time>
      </trkpt>
      <trkpt lat="49.42629" lon="5.7674">
        <ele>295.60000610352</ele>
        <time>2024-06-09T07:47:14Z</time>
      </trkpt>
      <trkpt lat="49.42629" lon="5.76741">
        <ele>295.60000610352</ele>
        <time>2024-06-09T07:47:15Z</time>
      </trkpt>
      <trkpt lat="49.42627" lon="5.76739">
        <ele>295.39999389648</ele>
        <time>2024-06-09T07:47:16Z</time>
      </trkpt>
      <trkpt lat="49.42625" lon="5.76736">
        <ele>295.20001220703</ele>
        <time>2024-06-09T07:47:17Z</time>
      </trkpt>
      <trkpt lat="49.42622" lon="5.76731">
        <ele>295</ele>
        <time>2024-06-09T07:47:18Z</time>
      </trkpt>
      <trkpt lat="49.42613" lon="5.76719">
        <ele>294.79998779297</ele>
        <time>2024-06-09T07:47:20Z</time>
      </trkpt>
      <trkpt lat="49.42609" lon="5.76711">
        <ele>294.60000610352</ele>
        <time>2024-06-09T07:47:21Z</time>
      </trkpt>
      <trkpt lat="49.42603" lon="5.76704">
        <ele>294.60000610352</ele>
        <time>2024-06-09T07:47:22Z</time>
      </trkpt>
      <trkpt lat="49.42594" lon="5.7669">
        <ele>294</ele>
        <time>2024-06-09T07:47:24Z</time>
      </trkpt>
      <trkpt lat="49.42589" lon="5.76682">
        <ele>292.60000610352</ele>
        <time>2024-06-09T07:47:25Z</time>
      </trkpt>
      <trkpt lat="49.42585" lon="5.76675">
        <ele>290.60000610352</ele>
        <time>2024-06-09T07:47:26Z</time>
      </trkpt>
      <trkpt lat="49.42581" lon="5.76667">
        <ele>288.39999389648</ele>
        <time>2024-06-09T07:47:27Z</time>
      </trkpt>
      <trkpt lat="49.42577" lon="5.76659">
        <ele>285.79998779297</ele>
        <time>2024-06-09T07:47:28Z</time>
      </trkpt>
      <trkpt lat="49.42573" lon="5.76652">
        <ele>283.39999389648</ele>
        <time>2024-06-09T07:47:29Z</time>
      </trkpt>
      <trkpt lat="49.42571" lon="5.76645">
        <ele>281.60000610352</ele>
        <time>2024-06-09T07:47:30Z</time>
      </trkpt>
      <trkpt lat="49.42567" lon="5.76631">
        <ele>279.79998779297</ele>
        <time>2024-06-09T07:47:32Z</time>
      </trkpt>
      <trkpt lat="49.42565" lon="5.76615">
        <ele>278.79998779297</ele>
        <time>2024-06-09T07:47:34Z</time>
      </trkpt>
      <trkpt lat="49.42565" lon="5.76606">
        <ele>278.60000610352</ele>
        <time>2024-06-09T07:47:35Z</time>
      </trkpt>
      <trkpt lat="49.42565" lon="5.76598">
        <ele>278.60000610352</ele>
        <time>2024-06-09T07:47:36Z</time>
      </trkpt>
      <trkpt lat="49.42571" lon="5.76584">
        <ele>278.20001220703</ele>
        <time>2024-06-09T07:47:38Z</time>
      </trkpt>
      <trkpt lat="49.42578" lon="5.7657">
        <ele>278</ele>
        <time>2024-06-09T07:47:40Z</time>
      </trkpt>
      <trkpt lat="49.42582" lon="5.76564">
        <ele>278</ele>
        <time>2024-06-09T07:47:41Z</time>
      </trkpt>
      <trkpt lat="49.42587" lon="5.76558">
        <ele>277.60000610352</ele>
        <time>2024-06-09T07:47:42Z</time>
      </trkpt>
      <trkpt lat="49.42591" lon="5.76553">
        <ele>277.39999389648</ele>
        <time>2024-06-09T07:47:43Z</time>
      </trkpt>
      <trkpt lat="49.42594" lon="5.76549">
        <ele>277</ele>
        <time>2024-06-09T07:47:44Z</time>
      </trkpt>
      <trkpt lat="49.42598" lon="5.76544">
        <ele>276.39999389648</ele>
        <time>2024-06-09T07:47:45Z</time>
      </trkpt>
      <trkpt lat="49.42603" lon="5.76538">
        <ele>276.20001220703</ele>
        <time>2024-06-09T07:47:46Z</time>
      </trkpt>
      <trkpt lat="49.42611" lon="5.76526">
        <ele>275.79998779297</ele>
        <time>2024-06-09T07:47:48Z</time>
      </trkpt>
      <trkpt lat="49.42619" lon="5.76517">
        <ele>275.20001220703</ele>
        <time>2024-06-09T07:47:50Z</time>
      </trkpt>
      <trkpt lat="49.42622" lon="5.76513">
        <ele>275</ele>
        <time>2024-06-09T07:47:51Z</time>
      </trkpt>
      <trkpt lat="49.42627" lon="5.76507">
        <ele>275</ele>
        <time>2024-06-09T07:47:52Z</time>
      </trkpt>
      <trkpt lat="49.42638" lon="5.76497">
        <ele>274.79998779297</ele>
        <time>2024-06-09T07:47:54Z</time>
      </trkpt>
      <trkpt lat="49.42648" lon="5.76488">
        <ele>274.79998779297</ele>
        <time>2024-06-09T07:47:56Z</time>
      </trkpt>
      <trkpt lat="49.42658" lon="5.76479">
        <ele>274.60000610352</ele>
        <time>2024-06-09T07:47:58Z</time>
      </trkpt>
      <trkpt lat="49.42669" lon="5.76467">
        <ele>274.39999389648</ele>
        <time>2024-06-09T07:48:00Z</time>
      </trkpt>
      <trkpt lat="49.42675" lon="5.76461">
        <ele>274.20001220703</ele>
        <time>2024-06-09T07:48:01Z</time>
      </trkpt>
      <trkpt lat="49.42681" lon="5.76455">
        <ele>274.20001220703</ele>
        <time>2024-06-09T07:48:02Z</time>
      </trkpt>
      <trkpt lat="49.42688" lon="5.76443">
        <ele>274.20001220703</ele>
        <time>2024-06-09T07:48:04Z</time>
      </trkpt>
      <trkpt lat="49.42691" lon="5.76436">
        <ele>274</ele>
        <time>2024-06-09T07:48:05Z</time>
      </trkpt>
      <trkpt lat="49.42696" lon="5.76426">
        <ele>273.79998779297</ele>
        <time>2024-06-09T07:48:06Z</time>
      </trkpt>
      <trkpt lat="49.42705" lon="5.76406">
        <ele>273</ele>
        <time>2024-06-09T07:48:08Z</time>
      </trkpt>
      <trkpt lat="49.4271" lon="5.76395">
        <ele>272.60000610352</ele>
        <time>2024-06-09T07:48:09Z</time>
      </trkpt>
      <trkpt lat="49.42714" lon="5.76386">
        <ele>272</ele>
        <time>2024-06-09T07:48:10Z</time>
      </trkpt>
      <trkpt lat="49.42723" lon="5.76369">
        <ele>271.20001220703</ele>
        <time>2024-06-09T07:48:12Z</time>
      </trkpt>
      <trkpt lat="49.42727" lon="5.7636">
        <ele>270.39999389648</ele>
        <time>2024-06-09T07:48:13Z</time>
      </trkpt>
      <trkpt lat="49.42731" lon="5.7635">
        <ele>269.20001220703</ele>
        <time>2024-06-09T07:48:14Z</time>
      </trkpt>
      <trkpt lat="49.42734" lon="5.7634">
        <ele>267.60000610352</ele>
        <time>2024-06-09T07:48:15Z</time>
      </trkpt>
      <trkpt lat="49.42736" lon="5.76328">
        <ele>266</ele>
        <time>2024-06-09T07:48:16Z</time>
      </trkpt>
      <trkpt lat="49.42738" lon="5.76316">
        <ele>264.39999389648</ele>
        <time>2024-06-09T07:48:17Z</time>
      </trkpt>
      <trkpt lat="49.42741" lon="5.76303">
        <ele>263.20001220703</ele>
        <time>2024-06-09T07:48:18Z</time>
      </trkpt>
      <trkpt lat="49.42745" lon="5.7629">
        <ele>262.20001220703</ele>
        <time>2024-06-09T07:48:19Z</time>
      </trkpt>
      <trkpt lat="49.42745" lon="5.76278">
        <ele>262</ele>
        <time>2024-06-09T07:48:20Z</time>
      </trkpt>
      <trkpt lat="49.42744" lon="5.76267">
        <ele>261.79998779297</ele>
        <time>2024-06-09T07:48:21Z</time>
      </trkpt>
      <trkpt lat="49.4274" lon="5.76253">
        <ele>261.60000610352</ele>
        <time>2024-06-09T07:48:22Z</time>
      </trkpt>
      <trkpt lat="49.42731" lon="5.76227">
        <ele>261</ele>
        <time>2024-06-09T07:48:24Z</time>
      </trkpt>
      <trkpt lat="49.42727" lon="5.76214">
        <ele>260.79998779297</ele>
        <time>2024-06-09T07:48:25Z</time>
      </trkpt>
      <trkpt lat="49.42723" lon="5.76201">
        <ele>260.39999389648</ele>
        <time>2024-06-09T07:48:26Z</time>
      </trkpt>
      <trkpt lat="49.42719" lon="5.7618">
        <ele>260.20001220703</ele>
        <time>2024-06-09T07:48:28Z</time>
      </trkpt>
      <trkpt lat="49.42717" lon="5.76172">
        <ele>260.20001220703</ele>
        <time>2024-06-09T07:48:29Z</time>
      </trkpt>
      <trkpt lat="49.42714" lon="5.76163">
        <ele>260</ele>
        <time>2024-06-09T07:48:30Z</time>
      </trkpt>
      <trkpt lat="49.42708" lon="5.76146">
        <ele>259.79998779297</ele>
        <time>2024-06-09T07:48:32Z</time>
      </trkpt>
      <trkpt lat="49.42703" lon="5.76132">
        <ele>259.39999389648</ele>
        <time>2024-06-09T07:48:34Z</time>
      </trkpt>
      <trkpt lat="49.42699" lon="5.76126">
        <ele>259.39999389648</ele>
        <time>2024-06-09T07:48:35Z</time>
      </trkpt>
      <trkpt lat="49.42696" lon="5.76121">
        <ele>259.20001220703</ele>
        <time>2024-06-09T07:48:36Z</time>
      </trkpt>
      <trkpt lat="49.42692" lon="5.7611">
        <ele>259</ele>
        <time>2024-06-09T07:48:38Z</time>
      </trkpt>
      <trkpt lat="49.4269" lon="5.76104">
        <ele>258.79998779297</ele>
        <time>2024-06-09T07:48:39Z</time>
      </trkpt>
      <trkpt lat="49.42687" lon="5.76099">
        <ele>258.79998779297</ele>
        <time>2024-06-09T07:48:40Z</time>
      </trkpt>
      <trkpt lat="49.42679" lon="5.76085">
        <ele>258.60000610352</ele>
        <time>2024-06-09T07:48:42Z</time>
      </trkpt>
      <trkpt lat="49.42671" lon="5.76074">
        <ele>258.79998779297</ele>
        <time>2024-06-09T07:48:44Z</time>
      </trkpt>
      <trkpt lat="49.42665" lon="5.76068">
        <ele>259</ele>
        <time>2024-06-09T07:48:45Z</time>
      </trkpt>
      <trkpt lat="49.42661" lon="5.76063">
        <ele>259.20001220703</ele>
        <time>2024-06-09T07:48:46Z</time>
      </trkpt>
      <trkpt lat="49.4265" lon="5.76052">
        <ele>259.20001220703</ele>
        <time>2024-06-09T07:48:48Z</time>
      </trkpt>
      <trkpt lat="49.42643" lon="5.76041">
        <ele>259.79998779297</ele>
        <time>2024-06-09T07:48:50Z</time>
      </trkpt>
      <trkpt lat="49.42641" lon="5.76039">
        <ele>260.20001220703</ele>
        <time>2024-06-09T07:48:51Z</time>
      </trkpt>
      <trkpt lat="49.4264" lon="5.76037">
        <ele>260.39999389648</ele>
        <time>2024-06-09T07:48:52Z</time>
      </trkpt>
      <trkpt lat="49.42638" lon="5.7604">
        <ele>260.60000610352</ele>
        <time>2024-06-09T07:48:53Z</time>
      </trkpt>
      <trkpt lat="49.42637" lon="5.76043">
        <ele>260.79998779297</ele>
        <time>2024-06-09T07:48:54Z</time>
      </trkpt>
      <trkpt lat="49.42637" lon="5.76051">
        <ele>260.79998779297</ele>
        <time>2024-06-09T07:48:56Z</time>
      </trkpt>
      <trkpt lat="49.42634" lon="5.76059">
        <ele>260.79998779297</ele>
        <time>2024-06-09T07:48:58Z</time>
      </trkpt>
      <trkpt lat="49.42633" lon="5.76063">
        <ele>260.79998779297</ele>
        <time>2024-06-09T07:48:59Z</time>
      </trkpt>
      <trkpt lat="49.42632" lon="5.76067">
        <ele>260.79998779297</ele>
        <time>2024-06-09T07:49:00Z</time>
      </trkpt>
      <trkpt lat="49.42631" lon="5.76072">
        <ele>260.79998779297</ele>
        <time>2024-06-09T07:49:02Z</time>
      </trkpt>
      <trkpt lat="49.42629" lon="5.76079">
        <ele>260.20001220703</ele>
        <time>2024-06-09T07:49:04Z</time>
      </trkpt>
      <trkpt lat="49.4263" lon="5.76087">
        <ele>259.60000610352</ele>
        <time>2024-06-09T07:49:06Z</time>
      </trkpt>
      <trkpt lat="49.42629" lon="5.76095">
        <ele>259.39999389648</ele>
        <time>2024-06-09T07:49:08Z</time>
      </trkpt>
      <trkpt lat="49.4263" lon="5.76098">
        <ele>259.39999389648</ele>
        <time>2024-06-09T07:49:09Z</time>
      </trkpt>
      <trkpt lat="49.4263" lon="5.76102">
        <ele>259.39999389648</ele>
        <time>2024-06-09T07:49:10Z</time>
      </trkpt>
      <trkpt lat="49.42633" lon="5.76108">
        <ele>259.39999389648</ele>
        <time>2024-06-09T07:49:12Z</time>
      </trkpt>
      <trkpt lat="49.42633" lon="5.76114">
        <ele>259.39999389648</ele>
        <time>2024-06-09T07:49:14Z</time>
      </trkpt>
      <trkpt lat="49.42635" lon="5.76118">
        <ele>259.39999389648</ele>
        <time>2024-06-09T07:49:16Z</time>
      </trkpt>
      <trkpt lat="49.42638" lon="5.76125">
        <ele>259.60000610352</ele>
        <time>2024-06-09T07:49:18Z</time>
      </trkpt>
      <trkpt lat="49.4264" lon="5.76132">
        <ele>259.79998779297</ele>
        <time>2024-06-09T07:49:20Z</time>
      </trkpt>
      <trkpt lat="49.42641" lon="5.76138">
        <ele>260.20001220703</ele>
        <time>2024-06-09T07:49:22Z</time>
      </trkpt>
      <trkpt lat="49.42644" lon="5.76143">
        <ele>260.60000610352</ele>
        <time>2024-06-09T07:49:24Z</time>
      </trkpt>
      <trkpt lat="49.42647" lon="5.7615">
        <ele>261</ele>
        <time>2024-06-09T07:49:26Z</time>
      </trkpt>
      <trkpt lat="49.42649" lon="5.76157">
        <ele>261.60000610352</ele>
        <time>2024-06-09T07:49:28Z</time>
      </trkpt>
      <trkpt lat="49.42649" lon="5.7616">
        <ele>261.79998779297</ele>
        <time>2024-06-09T07:49:29Z</time>
      </trkpt>
      <trkpt lat="49.42648" lon="5.76163">
        <ele>262</ele>
        <time>2024-06-09T07:49:30Z</time>
      </trkpt>
      <trkpt lat="49.42647" lon="5.76169">
        <ele>262.60000610352</ele>
        <time>2024-06-09T07:49:32Z</time>
      </trkpt>
      <trkpt lat="49.42647" lon="5.76171">
        <ele>262.79998779297</ele>
        <time>2024-06-09T07:49:33Z</time>
      </trkpt>
      <trkpt lat="49.42647" lon="5.76174">
        <ele>263</ele>
        <time>2024-06-09T07:49:34Z</time>
      </trkpt>
      <trkpt lat="49.42646" lon="5.7618">
        <ele>263.60000610352</ele>
        <time>2024-06-09T07:49:36Z</time>
      </trkpt>
      <trkpt lat="49.42645" lon="5.76186">
        <ele>264</ele>
        <time>2024-06-09T07:49:38Z</time>
      </trkpt>
      <trkpt lat="49.42643" lon="5.76191">
        <ele>264.39999389648</ele>
        <time>2024-06-09T07:49:40Z</time>
      </trkpt>
      <trkpt lat="49.42642" lon="5.76196">
        <ele>264.79998779297</ele>
        <time>2024-06-09T07:49:42Z</time>
      </trkpt>
      <trkpt lat="49.42641" lon="5.76198">
        <ele>265.39999389648</ele>
        <time>2024-06-09T07:49:43Z</time>
      </trkpt>
      <trkpt lat="49.42641" lon="5.76199">
        <ele>265.79998779297</ele>
        <time>2024-06-09T07:49:44Z</time>
      </trkpt>
      <trkpt lat="49.42638" lon="5.76203">
        <ele>266.39999389648</ele>
        <time>2024-06-09T07:49:46Z</time>
      </trkpt>
      <trkpt lat="49.42636" lon="5.76204">
        <ele>266.79998779297</ele>
        <time>2024-06-09T07:49:47Z</time>
      </trkpt>
      <trkpt lat="49.42635" lon="5.76205">
        <ele>267</ele>
        <time>2024-06-09T07:49:48Z</time>
      </trkpt>
      <trkpt lat="49.42635" lon="5.76206">
        <ele>267.20001220703</ele>
        <time>2024-06-09T07:49:49Z</time>
      </trkpt>
      <trkpt lat="49.42633" lon="5.76207">
        <ele>267.39999389648</ele>
        <time>2024-06-09T07:49:50Z</time>
      </trkpt>
      <trkpt lat="49.4263" lon="5.7621">
        <ele>267.79998779297</ele>
        <time>2024-06-09T07:49:52Z</time>
      </trkpt>
      <trkpt lat="49.42628" lon="5.76212">
        <ele>268.20001220703</ele>
        <time>2024-06-09T07:49:54Z</time>
      </trkpt>
      <trkpt lat="49.42627" lon="5.76213">
        <ele>268.60000610352</ele>
        <time>2024-06-09T07:49:55Z</time>
      </trkpt>
      <trkpt lat="49.42626" lon="5.76214">
        <ele>268.79998779297</ele>
        <time>2024-06-09T07:49:56Z</time>
      </trkpt>
      <trkpt lat="49.42625" lon="5.76214">
        <ele>269</ele>
        <time>2024-06-09T07:49:57Z</time>
      </trkpt>
      <trkpt lat="49.42624" lon="5.76215">
        <ele>269.39999389648</ele>
        <time>2024-06-09T07:49:58Z</time>
      </trkpt>
      <trkpt lat="49.42622" lon="5.76216">
        <ele>269.79998779297</ele>
        <time>2024-06-09T07:50:00Z</time>
      </trkpt>
      <trkpt lat="49.42621" lon="5.76216">
        <ele>270.20001220703</ele>
        <time>2024-06-09T07:50:01Z</time>
      </trkpt>
      <trkpt lat="49.4262" lon="5.76215">
        <ele>270.39999389648</ele>
        <time>2024-06-09T07:50:02Z</time>
      </trkpt>
      <trkpt lat="49.42619" lon="5.76215">
        <ele>271</ele>
        <time>2024-06-09T07:50:04Z</time>
      </trkpt>
      <trkpt lat="49.42618" lon="5.76215">
        <ele>271.20001220703</ele>
        <time>2024-06-09T07:50:05Z</time>
      </trkpt>
      <trkpt lat="49.42617" lon="5.76215">
        <ele>271.39999389648</ele>
        <time>2024-06-09T07:50:06Z</time>
      </trkpt>
      <trkpt lat="49.42616" lon="5.76215">
        <ele>271.79998779297</ele>
        <time>2024-06-09T07:50:07Z</time>
      </trkpt>
      <trkpt lat="49.42614" lon="5.76214">
        <ele>272</ele>
        <time>2024-06-09T07:50:08Z</time>
      </trkpt>
      <trkpt lat="49.42614" lon="5.76213">
        <ele>272.20001220703</ele>
        <time>2024-06-09T07:50:09Z</time>
      </trkpt>
      <trkpt lat="49.42613" lon="5.76213">
        <ele>272.39999389648</ele>
        <time>2024-06-09T07:50:10Z</time>
      </trkpt>
      <trkpt lat="49.4261" lon="5.76211">
        <ele>273</ele>
        <time>2024-06-09T07:50:12Z</time>
      </trkpt>
      <trkpt lat="49.42608" lon="5.76211">
        <ele>273.20001220703</ele>
        <time>2024-06-09T07:50:13Z</time>
      </trkpt>
      <trkpt lat="49.42607" lon="5.7621">
        <ele>273.39999389648</ele>
        <time>2024-06-09T07:50:14Z</time>
      </trkpt>
      <trkpt lat="49.42605" lon="5.76208">
        <ele>273.79998779297</ele>
        <time>2024-06-09T07:50:16Z</time>
      </trkpt>
      <trkpt lat="49.42603" lon="5.76208">
        <ele>274.20001220703</ele>
        <time>2024-06-09T07:50:18Z</time>
      </trkpt>
      <trkpt lat="49.42601" lon="5.76207">
        <ele>274.39999389648</ele>
        <time>2024-06-09T07:50:19Z</time>
      </trkpt>
      <trkpt lat="49.426" lon="5.76207">
        <ele>274.79998779297</ele>
        <time>2024-06-09T07:50:20Z</time>
      </trkpt>
      <trkpt lat="49.42598" lon="5.76205">
        <ele>275.20001220703</ele>
        <time>2024-06-09T07:50:22Z</time>
      </trkpt>
      <trkpt lat="49.42595" lon="5.76204">
        <ele>275.39999389648</ele>
        <time>2024-06-09T07:50:24Z</time>
      </trkpt>
      <trkpt lat="49.42592" lon="5.76203">
        <ele>276</ele>
        <time>2024-06-09T07:50:26Z</time>
      </trkpt>
      <trkpt lat="49.42589" lon="5.76202">
        <ele>276.39999389648</ele>
        <time>2024-06-09T07:50:28Z</time>
      </trkpt>
      <trkpt lat="49.42586" lon="5.762">
        <ele>276.79998779297</ele>
        <time>2024-06-09T07:50:30Z</time>
      </trkpt>
      <trkpt lat="49.42584" lon="5.76199">
        <ele>277.20001220703</ele>
        <time>2024-06-09T07:50:32Z</time>
      </trkpt>
      <trkpt lat="49.42581" lon="5.76197">
        <ele>277.60000610352</ele>
        <time>2024-06-09T07:50:34Z</time>
      </trkpt>
      <trkpt lat="49.42579" lon="5.76195">
        <ele>278</ele>
        <time>2024-06-09T07:50:36Z</time>
      </trkpt>
      <trkpt lat="49.42578" lon="5.76193">
        <ele>278.39999389648</ele>
        <time>2024-06-09T07:50:38Z</time>
      </trkpt>
      <trkpt lat="49.42577" lon="5.76192">
        <ele>279</ele>
        <time>2024-06-09T07:50:39Z</time>
      </trkpt>
      <trkpt lat="49.42576" lon="5.76192">
        <ele>279.39999389648</ele>
        <time>2024-06-09T07:50:40Z</time>
      </trkpt>
      <trkpt lat="49.42575" lon="5.76191">
        <ele>279.60000610352</ele>
        <time>2024-06-09T07:50:41Z</time>
      </trkpt>
      <trkpt lat="49.42574" lon="5.76189">
        <ele>279.79998779297</ele>
        <time>2024-06-09T07:50:42Z</time>
      </trkpt>
      <trkpt lat="49.42572" lon="5.76187">
        <ele>280.20001220703</ele>
        <time>2024-06-09T07:50:44Z</time>
      </trkpt>
      <trkpt lat="49.42571" lon="5.76185">
        <ele>280.60000610352</ele>
        <time>2024-06-09T07:50:46Z</time>
      </trkpt>
      <trkpt lat="49.42569" lon="5.76184">
        <ele>281</ele>
        <time>2024-06-09T07:50:48Z</time>
      </trkpt>
      <trkpt lat="49.42568" lon="5.76183">
        <ele>281.20001220703</ele>
        <time>2024-06-09T07:50:49Z</time>
      </trkpt>
      <trkpt lat="49.42568" lon="5.76182">
        <ele>281.39999389648</ele>
        <time>2024-06-09T07:50:50Z</time>
      </trkpt>
      <trkpt lat="49.42566" lon="5.7618">
        <ele>281.79998779297</ele>
        <time>2024-06-09T07:50:52Z</time>
      </trkpt>
      <trkpt lat="49.42564" lon="5.76176">
        <ele>282.20001220703</ele>
        <time>2024-06-09T07:50:54Z</time>
      </trkpt>
      <trkpt lat="49.42563" lon="5.76174">
        <ele>282.39999389648</ele>
        <time>2024-06-09T07:50:55Z</time>
      </trkpt>
      <trkpt lat="49.42563" lon="5.76173">
        <ele>282.60000610352</ele>
        <time>2024-06-09T07:50:56Z</time>
      </trkpt>
      <trkpt lat="49.42561" lon="5.76171">
        <ele>283.20001220703</ele>
        <time>2024-06-09T07:50:58Z</time>
      </trkpt>
      <trkpt lat="49.42561" lon="5.7617">
        <ele>283.39999389648</ele>
        <time>2024-06-09T07:50:59Z</time>
      </trkpt>
      <trkpt lat="49.4256" lon="5.76169">
        <ele>283.60000610352</ele>
        <time>2024-06-09T07:51:00Z</time>
      </trkpt>
      <trkpt lat="49.42558" lon="5.76168">
        <ele>284</ele>
        <time>2024-06-09T07:51:02Z</time>
      </trkpt>
      <trkpt lat="49.42558" lon="5.76167">
        <ele>284.20001220703</ele>
        <time>2024-06-09T07:51:03Z</time>
      </trkpt>
      <trkpt lat="49.42557" lon="5.76166">
        <ele>284.60000610352</ele>
        <time>2024-06-09T07:51:04Z</time>
      </trkpt>
      <trkpt lat="49.42555" lon="5.76163">
        <ele>285</ele>
        <time>2024-06-09T07:51:06Z</time>
      </trkpt>
      <trkpt lat="49.42552" lon="5.76162">
        <ele>285.79998779297</ele>
        <time>2024-06-09T07:51:08Z</time>
      </trkpt>
      <trkpt lat="49.4255" lon="5.76161">
        <ele>286.39999389648</ele>
        <time>2024-06-09T07:51:10Z</time>
      </trkpt>
      <trkpt lat="49.42547" lon="5.7616">
        <ele>286.79998779297</ele>
        <time>2024-06-09T07:51:12Z</time>
      </trkpt>
      <trkpt lat="49.42546" lon="5.76159">
        <ele>287.39999389648</ele>
        <time>2024-06-09T07:51:14Z</time>
      </trkpt>
      <trkpt lat="49.42545" lon="5.76158">
        <ele>287.79998779297</ele>
        <time>2024-06-09T07:51:15Z</time>
      </trkpt>
      <trkpt lat="49.42544" lon="5.76158">
        <ele>288</ele>
        <time>2024-06-09T07:51:16Z</time>
      </trkpt>
      <trkpt lat="49.42543" lon="5.76158">
        <ele>288.20001220703</ele>
        <time>2024-06-09T07:51:18Z</time>
      </trkpt>
      <trkpt lat="49.42541" lon="5.76158">
        <ele>288.60000610352</ele>
        <time>2024-06-09T07:51:20Z</time>
      </trkpt>
      <trkpt lat="49.4254" lon="5.76159">
        <ele>289</ele>
        <time>2024-06-09T07:51:21Z</time>
      </trkpt>
      <trkpt lat="49.42539" lon="5.76159">
        <ele>289.20001220703</ele>
        <time>2024-06-09T07:51:22Z</time>
      </trkpt>
      <trkpt lat="49.42537" lon="5.7616">
        <ele>289.60000610352</ele>
        <time>2024-06-09T07:51:24Z</time>
      </trkpt>
      <trkpt lat="49.42536" lon="5.7616">
        <ele>289.79998779297</ele>
        <time>2024-06-09T07:51:25Z</time>
      </trkpt>
      <trkpt lat="49.42534" lon="5.7616">
        <ele>289.79998779297</ele>
        <time>2024-06-09T07:51:26Z</time>
      </trkpt>
      <trkpt lat="49.42532" lon="5.7616">
        <ele>290</ele>
        <time>2024-06-09T07:51:28Z</time>
      </trkpt>
      <trkpt lat="49.4253" lon="5.7616">
        <ele>290.39999389648</ele>
        <time>2024-06-09T07:51:30Z</time>
      </trkpt>
      <trkpt lat="49.42528" lon="5.7616">
        <ele>290.79998779297</ele>
        <time>2024-06-09T07:51:32Z</time>
      </trkpt>
      <trkpt lat="49.42527" lon="5.76159">
        <ele>291.20001220703</ele>
        <time>2024-06-09T07:51:34Z</time>
      </trkpt>
      <trkpt lat="49.42525" lon="5.76159">
        <ele>292</ele>
        <time>2024-06-09T07:51:36Z</time>
      </trkpt>
      <trkpt lat="49.42524" lon="5.76158">
        <ele>292</ele>
        <time>2024-06-09T07:51:37Z</time>
      </trkpt>
      <trkpt lat="49.42523" lon="5.76158">
        <ele>292.20001220703</ele>
        <time>2024-06-09T07:51:38Z</time>
      </trkpt>
      <trkpt lat="49.42521" lon="5.76157">
        <ele>292.60000610352</ele>
        <time>2024-06-09T07:51:40Z</time>
      </trkpt>
      <trkpt lat="49.42518" lon="5.76157">
        <ele>292.79998779297</ele>
        <time>2024-06-09T07:51:42Z</time>
      </trkpt>
      <trkpt lat="49.42516" lon="5.76158">
        <ele>293.20001220703</ele>
        <time>2024-06-09T07:51:44Z</time>
      </trkpt>
      <trkpt lat="49.42514" lon="5.76159">
        <ele>293.39999389648</ele>
        <time>2024-06-09T07:51:46Z</time>
      </trkpt>
      <trkpt lat="49.42513" lon="5.7616">
        <ele>293.60000610352</ele>
        <time>2024-06-09T07:51:47Z</time>
      </trkpt>
      <trkpt lat="49.42512" lon="5.7616">
        <ele>293.79998779297</ele>
        <time>2024-06-09T07:51:48Z</time>
      </trkpt>
      <trkpt lat="49.42511" lon="5.76161">
        <ele>294.20001220703</ele>
        <time>2024-06-09T07:51:50Z</time>
      </trkpt>
      <trkpt lat="49.4251" lon="5.76162">
        <ele>294.60000610352</ele>
        <time>2024-06-09T07:51:52Z</time>
      </trkpt>
      <trkpt lat="49.4251" lon="5.76162">
        <ele>294.79998779297</ele>
        <time>2024-06-09T07:51:53Z</time>
      </trkpt>
      <trkpt lat="49.42509" lon="5.76163">
        <ele>295</ele>
        <time>2024-06-09T07:51:54Z</time>
      </trkpt>
      <trkpt lat="49.42508" lon="5.76164">
        <ele>295.39999389648</ele>
        <time>2024-06-09T07:51:56Z</time>
      </trkpt>
      <trkpt lat="49.42507" lon="5.76165">
        <ele>295.79998779297</ele>
        <time>2024-06-09T07:51:58Z</time>
      </trkpt>
      <trkpt lat="49.42506" lon="5.76167">
        <ele>296</ele>
        <time>2024-06-09T07:52:00Z</time>
      </trkpt>
      <trkpt lat="49.42505" lon="5.76168">
        <ele>296.39999389648</ele>
        <time>2024-06-09T07:52:02Z</time>
      </trkpt>
      <trkpt lat="49.42505" lon="5.76169">
        <ele>296.60000610352</ele>
        <time>2024-06-09T07:52:03Z</time>
      </trkpt>
      <trkpt lat="49.42505" lon="5.7617">
        <ele>297</ele>
        <time>2024-06-09T07:52:04Z</time>
      </trkpt>
      <trkpt lat="49.42505" lon="5.76171">
        <ele>297.20001220703</ele>
        <time>2024-06-09T07:52:05Z</time>
      </trkpt>
      <trkpt lat="49.42504" lon="5.76171">
        <ele>297.20001220703</ele>
        <time>2024-06-09T07:52:06Z</time>
      </trkpt>
      <trkpt lat="49.42504" lon="5.76173">
        <ele>297.39999389648</ele>
        <time>2024-06-09T07:52:08Z</time>
      </trkpt>
      <trkpt lat="49.42503" lon="5.76174">
        <ele>297.60000610352</ele>
        <time>2024-06-09T07:52:10Z</time>
      </trkpt>
      <trkpt lat="49.42503" lon="5.76177">
        <ele>298.20001220703</ele>
        <time>2024-06-09T07:52:12Z</time>
      </trkpt>
      <trkpt lat="49.42503" lon="5.76179">
        <ele>298.60000610352</ele>
        <time>2024-06-09T07:52:14Z</time>
      </trkpt>
      <trkpt lat="49.42502" lon="5.76181">
        <ele>299</ele>
        <time>2024-06-09T07:52:16Z</time>
      </trkpt>
      <trkpt lat="49.42502" lon="5.76183">
        <ele>299.20001220703</ele>
        <time>2024-06-09T07:52:18Z</time>
      </trkpt>
      <trkpt lat="49.42501" lon="5.76185">
        <ele>299.60000610352</ele>
        <time>2024-06-09T07:52:20Z</time>
      </trkpt>
      <trkpt lat="49.425" lon="5.76188">
        <ele>299.79998779297</ele>
        <time>2024-06-09T07:52:22Z</time>
      </trkpt>
      <trkpt lat="49.42499" lon="5.76191">
        <ele>300.20001220703</ele>
        <time>2024-06-09T07:52:24Z</time>
      </trkpt>
      <trkpt lat="49.42499" lon="5.76192">
        <ele>300.39999389648</ele>
        <time>2024-06-09T07:52:25Z</time>
      </trkpt>
      <trkpt lat="49.42498" lon="5.76194">
        <ele>300.60000610352</ele>
        <time>2024-06-09T07:52:26Z</time>
      </trkpt>
      <trkpt lat="49.42498" lon="5.76196">
        <ele>300.79998779297</ele>
        <time>2024-06-09T07:52:28Z</time>
      </trkpt>
      <trkpt lat="49.42497" lon="5.76198">
        <ele>301.20001220703</ele>
        <time>2024-06-09T07:52:30Z</time>
      </trkpt>
      <trkpt lat="49.42497" lon="5.762">
        <ele>301.60000610352</ele>
        <time>2024-06-09T07:52:32Z</time>
      </trkpt>
      <trkpt lat="49.42496" lon="5.76202">
        <ele>302</ele>
        <time>2024-06-09T07:52:34Z</time>
      </trkpt>
      <trkpt lat="49.42496" lon="5.76204">
        <ele>302.60000610352</ele>
        <time>2024-06-09T07:52:36Z</time>
      </trkpt>
      <trkpt lat="49.42496" lon="5.76205">
        <ele>302.79998779297</ele>
        <time>2024-06-09T07:52:37Z</time>
      </trkpt>
      <trkpt lat="49.42495" lon="5.76205">
        <ele>303</ele>
        <time>2024-06-09T07:52:38Z</time>
      </trkpt>
      <trkpt lat="49.42495" lon="5.76207">
        <ele>303.39999389648</ele>
        <time>2024-06-09T07:52:40Z</time>
      </trkpt>
      <trkpt lat="49.42493" lon="5.7621">
        <ele>303.60000610352</ele>
        <time>2024-06-09T07:52:42Z</time>
      </trkpt>
      <trkpt lat="49.42493" lon="5.76212">
        <ele>303.79998779297</ele>
        <time>2024-06-09T07:52:43Z</time>
      </trkpt>
      <trkpt lat="49.42492" lon="5.76214">
        <ele>304</ele>
        <time>2024-06-09T07:52:44Z</time>
      </trkpt>
      <trkpt lat="49.42491" lon="5.76216">
        <ele>304.20001220703</ele>
        <time>2024-06-09T07:52:46Z</time>
      </trkpt>
      <trkpt lat="49.42489" lon="5.7622">
        <ele>304.20001220703</ele>
        <time>2024-06-09T07:52:48Z</time>
      </trkpt>
      <trkpt lat="49.42488" lon="5.76222">
        <ele>304.39999389648</ele>
        <time>2024-06-09T07:52:49Z</time>
      </trkpt>
      <trkpt lat="49.42487" lon="5.76224">
        <ele>304.39999389648</ele>
        <time>2024-06-09T07:52:50Z</time>
      </trkpt>
      <trkpt lat="49.42485" lon="5.76228">
        <ele>304.60000610352</ele>
        <time>2024-06-09T07:52:52Z</time>
      </trkpt>
      <trkpt lat="49.42483" lon="5.76233">
        <ele>304.79998779297</ele>
        <time>2024-06-09T07:52:54Z</time>
      </trkpt>
      <trkpt lat="49.42481" lon="5.76236">
        <ele>305.20001220703</ele>
        <time>2024-06-09T07:52:56Z</time>
      </trkpt>
      <trkpt lat="49.42479" lon="5.76239">
        <ele>305.60000610352</ele>
        <time>2024-06-09T07:52:58Z</time>
      </trkpt>
      <trkpt lat="49.42478" lon="5.76242">
        <ele>306.20001220703</ele>
        <time>2024-06-09T07:53:00Z</time>
      </trkpt>
      <trkpt lat="49.42476" lon="5.76244">
        <ele>306.60000610352</ele>
        <time>2024-06-09T07:53:02Z</time>
      </trkpt>
      <trkpt lat="49.42475" lon="5.76246">
        <ele>307</ele>
        <time>2024-06-09T07:53:04Z</time>
      </trkpt>
      <trkpt lat="49.42474" lon="5.76248">
        <ele>307.39999389648</ele>
        <time>2024-06-09T07:53:06Z</time>
      </trkpt>
      <trkpt lat="49.42472" lon="5.76249">
        <ele>307.60000610352</ele>
        <time>2024-06-09T07:53:08Z</time>
      </trkpt>
      <trkpt lat="49.4247" lon="5.76251">
        <ele>308</ele>
        <time>2024-06-09T07:53:10Z</time>
      </trkpt>
      <trkpt lat="49.42468" lon="5.76253">
        <ele>308.39999389648</ele>
        <time>2024-06-09T07:53:12Z</time>
      </trkpt>
      <trkpt lat="49.42466" lon="5.76254">
        <ele>308.60000610352</ele>
        <time>2024-06-09T07:53:13Z</time>
      </trkpt>
      <trkpt lat="49.42465" lon="5.76255">
        <ele>308.79998779297</ele>
        <time>2024-06-09T07:53:14Z</time>
      </trkpt>
      <trkpt lat="49.42463" lon="5.76257">
        <ele>309.20001220703</ele>
        <time>2024-06-09T07:53:16Z</time>
      </trkpt>
      <trkpt lat="49.42461" lon="5.76259">
        <ele>309.39999389648</ele>
        <time>2024-06-09T07:53:18Z</time>
      </trkpt>
      <trkpt lat="49.4246" lon="5.7626">
        <ele>309.60000610352</ele>
        <time>2024-06-09T07:53:19Z</time>
      </trkpt>
      <trkpt lat="49.42459" lon="5.76261">
        <ele>309.79998779297</ele>
        <time>2024-06-09T07:53:20Z</time>
      </trkpt>
      <trkpt lat="49.42458" lon="5.76264">
        <ele>310.20001220703</ele>
        <time>2024-06-09T07:53:22Z</time>
      </trkpt>
      <trkpt lat="49.42457" lon="5.76265">
        <ele>310.60000610352</ele>
        <time>2024-06-09T07:53:24Z</time>
      </trkpt>
      <trkpt lat="49.42456" lon="5.76266">
        <ele>310.79998779297</ele>
        <time>2024-06-09T07:53:25Z</time>
      </trkpt>
      <trkpt lat="49.42455" lon="5.76266">
        <ele>310.79998779297</ele>
        <time>2024-06-09T07:53:26Z</time>
      </trkpt>
      <trkpt lat="49.42454" lon="5.76268">
        <ele>311.39999389648</ele>
        <time>2024-06-09T07:53:28Z</time>
      </trkpt>
      <trkpt lat="49.42451" lon="5.7627">
        <ele>311.79998779297</ele>
        <time>2024-06-09T07:53:30Z</time>
      </trkpt>
      <trkpt lat="49.4245" lon="5.76271">
        <ele>312.20001220703</ele>
        <time>2024-06-09T07:53:32Z</time>
      </trkpt>
      <trkpt lat="49.42449" lon="5.76272">
        <ele>312.39999389648</ele>
        <time>2024-06-09T07:53:34Z</time>
      </trkpt>
      <trkpt lat="49.42446" lon="5.76274">
        <ele>312.60000610352</ele>
        <time>2024-06-09T07:53:36Z</time>
      </trkpt>
      <trkpt lat="49.42445" lon="5.76276">
        <ele>312.79998779297</ele>
        <time>2024-06-09T07:53:38Z</time>
      </trkpt>
      <trkpt lat="49.42442" lon="5.76278">
        <ele>313.20001220703</ele>
        <time>2024-06-09T07:53:40Z</time>
      </trkpt>
      <trkpt lat="49.42439" lon="5.76279">
        <ele>313.39999389648</ele>
        <time>2024-06-09T07:53:42Z</time>
      </trkpt>
      <trkpt lat="49.42436" lon="5.76282">
        <ele>313.60000610352</ele>
        <time>2024-06-09T07:53:44Z</time>
      </trkpt>
      <trkpt lat="49.42434" lon="5.76282">
        <ele>313.79998779297</ele>
        <time>2024-06-09T07:53:45Z</time>
      </trkpt>
      <trkpt lat="49.42433" lon="5.76284">
        <ele>314</ele>
        <time>2024-06-09T07:53:46Z</time>
      </trkpt>
      <trkpt lat="49.42429" lon="5.76285">
        <ele>314.39999389648</ele>
        <time>2024-06-09T07:53:48Z</time>
      </trkpt>
      <trkpt lat="49.42425" lon="5.76287">
        <ele>314.60000610352</ele>
        <time>2024-06-09T07:53:50Z</time>
      </trkpt>
      <trkpt lat="49.42422" lon="5.76288">
        <ele>315</ele>
        <time>2024-06-09T07:53:52Z</time>
      </trkpt>
      <trkpt lat="49.42418" lon="5.7629">
        <ele>315.20001220703</ele>
        <time>2024-06-09T07:53:54Z</time>
      </trkpt>
      <trkpt lat="49.42416" lon="5.76291">
        <ele>315.60000610352</ele>
        <time>2024-06-09T07:53:56Z</time>
      </trkpt>
      <trkpt lat="49.42415" lon="5.76292">
        <ele>316</ele>
        <time>2024-06-09T07:53:57Z</time>
      </trkpt>
      <trkpt lat="49.42413" lon="5.76292">
        <ele>316.20001220703</ele>
        <time>2024-06-09T07:53:58Z</time>
      </trkpt>
      <trkpt lat="49.42412" lon="5.76293">
        <ele>316.20001220703</ele>
        <time>2024-06-09T07:53:59Z</time>
      </trkpt>
      <trkpt lat="49.42411" lon="5.76294">
        <ele>316.60000610352</ele>
        <time>2024-06-09T07:54:00Z</time>
      </trkpt>
      <trkpt lat="49.42408" lon="5.76296">
        <ele>316.79998779297</ele>
        <time>2024-06-09T07:54:02Z</time>
      </trkpt>
      <trkpt lat="49.42405" lon="5.76299">
        <ele>317.39999389648</ele>
        <time>2024-06-09T07:54:04Z</time>
      </trkpt>
      <trkpt lat="49.42402" lon="5.76301">
        <ele>317.60000610352</ele>
        <time>2024-06-09T07:54:06Z</time>
      </trkpt>
      <trkpt lat="49.424" lon="5.76302">
        <ele>317.79998779297</ele>
        <time>2024-06-09T07:54:08Z</time>
      </trkpt>
      <trkpt lat="49.42398" lon="5.76304">
        <ele>317.79998779297</ele>
        <time>2024-06-09T07:54:10Z</time>
      </trkpt>
      <trkpt lat="49.42395" lon="5.76307">
        <ele>318</ele>
        <time>2024-06-09T07:54:12Z</time>
      </trkpt>
      <trkpt lat="49.42392" lon="5.7631">
        <ele>318.20001220703</ele>
        <time>2024-06-09T07:54:14Z</time>
      </trkpt>
      <trkpt lat="49.42391" lon="5.76312">
        <ele>318.39999389648</ele>
        <time>2024-06-09T07:54:15Z</time>
      </trkpt>
      <trkpt lat="49.4239" lon="5.76313">
        <ele>318.60000610352</ele>
        <time>2024-06-09T07:54:16Z</time>
      </trkpt>
      <trkpt lat="49.42388" lon="5.76316">
        <ele>318.79998779297</ele>
        <time>2024-06-09T07:54:18Z</time>
      </trkpt>
      <trkpt lat="49.42385" lon="5.76319">
        <ele>319</ele>
        <time>2024-06-09T07:54:20Z</time>
      </trkpt>
      <trkpt lat="49.42382" lon="5.76323">
        <ele>319.39999389648</ele>
        <time>2024-06-09T07:54:22Z</time>
      </trkpt>
      <trkpt lat="49.42381" lon="5.76324">
        <ele>319.39999389648</ele>
        <time>2024-06-09T07:54:23Z</time>
      </trkpt>
      <trkpt lat="49.42379" lon="5.76326">
        <ele>319.60000610352</ele>
        <time>2024-06-09T07:54:24Z</time>
      </trkpt>
      <trkpt lat="49.42376" lon="5.76328">
        <ele>319.79998779297</ele>
        <time>2024-06-09T07:54:26Z</time>
      </trkpt>
      <trkpt lat="49.42373" lon="5.76329">
        <ele>319.79998779297</ele>
        <time>2024-06-09T07:54:28Z</time>
      </trkpt>
      <trkpt lat="49.4237" lon="5.76329">
        <ele>320</ele>
        <time>2024-06-09T07:54:30Z</time>
      </trkpt>
      <trkpt lat="49.42367" lon="5.76328">
        <ele>320.20001220703</ele>
        <time>2024-06-09T07:54:32Z</time>
      </trkpt>
      <trkpt lat="49.42364" lon="5.76327">
        <ele>320.39999389648</ele>
        <time>2024-06-09T07:54:34Z</time>
      </trkpt>
      <trkpt lat="49.42363" lon="5.76326">
        <ele>320.60000610352</ele>
        <time>2024-06-09T07:54:35Z</time>
      </trkpt>
      <trkpt lat="49.42362" lon="5.76324">
        <ele>320.79998779297</ele>
        <time>2024-06-09T07:54:36Z</time>
      </trkpt>
      <trkpt lat="49.4236" lon="5.76321">
        <ele>321.20001220703</ele>
        <time>2024-06-09T07:54:38Z</time>
      </trkpt>
      <trkpt lat="49.42359" lon="5.76319">
        <ele>321.20001220703</ele>
        <time>2024-06-09T07:54:39Z</time>
      </trkpt>
      <trkpt lat="49.42357" lon="5.76318">
        <ele>321.20001220703</ele>
        <time>2024-06-09T07:54:40Z</time>
      </trkpt>
      <trkpt lat="49.42355" lon="5.76317">
        <ele>321.60000610352</ele>
        <time>2024-06-09T07:54:42Z</time>
      </trkpt>
      <trkpt lat="49.42354" lon="5.76316">
        <ele>321.79998779297</ele>
        <time>2024-06-09T07:54:43Z</time>
      </trkpt>
      <trkpt lat="49.42353" lon="5.76316">
        <ele>322</ele>
        <time>2024-06-09T07:54:44Z</time>
      </trkpt>
      <trkpt lat="49.42351" lon="5.76316">
        <ele>322.20001220703</ele>
        <time>2024-06-09T07:54:46Z</time>
      </trkpt>
      <trkpt lat="49.42348" lon="5.76318">
        <ele>322.60000610352</ele>
        <time>2024-06-09T07:54:48Z</time>
      </trkpt>
      <trkpt lat="49.42345" lon="5.76318">
        <ele>323</ele>
        <time>2024-06-09T07:54:50Z</time>
      </trkpt>
      <trkpt lat="49.42344" lon="5.76318">
        <ele>323.20001220703</ele>
        <time>2024-06-09T07:54:51Z</time>
      </trkpt>
      <trkpt lat="49.42341" lon="5.76318">
        <ele>323.39999389648</ele>
        <time>2024-06-09T07:54:52Z</time>
      </trkpt>
      <trkpt lat="49.42338" lon="5.76317">
        <ele>323.79998779297</ele>
        <time>2024-06-09T07:54:54Z</time>
      </trkpt>
      <trkpt lat="49.42335" lon="5.76316">
        <ele>323.79998779297</ele>
        <time>2024-06-09T07:54:56Z</time>
      </trkpt>
      <trkpt lat="49.42333" lon="5.76315">
        <ele>324</ele>
        <time>2024-06-09T07:54:58Z</time>
      </trkpt>
      <trkpt lat="49.4233" lon="5.76314">
        <ele>324.20001220703</ele>
        <time>2024-06-09T07:55:00Z</time>
      </trkpt>
      <trkpt lat="49.42327" lon="5.76313">
        <ele>324.39999389648</ele>
        <time>2024-06-09T07:55:02Z</time>
      </trkpt>
      <trkpt lat="49.42324" lon="5.76312">
        <ele>324.79998779297</ele>
        <time>2024-06-09T07:55:04Z</time>
      </trkpt>
      <trkpt lat="49.42322" lon="5.76311">
        <ele>325.20001220703</ele>
        <time>2024-06-09T07:55:05Z</time>
      </trkpt>
      <trkpt lat="49.4232" lon="5.7631">
        <ele>325.39999389648</ele>
        <time>2024-06-09T07:55:06Z</time>
      </trkpt>
      <trkpt lat="49.42317" lon="5.76308">
        <ele>325.60000610352</ele>
        <time>2024-06-09T07:55:08Z</time>
      </trkpt>
      <trkpt lat="49.42315" lon="5.76307">
        <ele>326.20001220703</ele>
        <time>2024-06-09T07:55:10Z</time>
      </trkpt>
      <trkpt lat="49.42312" lon="5.76306">
        <ele>326.39999389648</ele>
        <time>2024-06-09T07:55:12Z</time>
      </trkpt>
      <trkpt lat="49.4231" lon="5.76304">
        <ele>326.79998779297</ele>
        <time>2024-06-09T07:55:14Z</time>
      </trkpt>
      <trkpt lat="49.42306" lon="5.76303">
        <ele>327</ele>
        <time>2024-06-09T07:55:16Z</time>
      </trkpt>
      <trkpt lat="49.42305" lon="5.76301">
        <ele>327.20001220703</ele>
        <time>2024-06-09T07:55:17Z</time>
      </trkpt>
      <trkpt lat="49.42303" lon="5.76301">
        <ele>327.39999389648</ele>
        <time>2024-06-09T07:55:18Z</time>
      </trkpt>
      <trkpt lat="49.42299" lon="5.763">
        <ele>327.60000610352</ele>
        <time>2024-06-09T07:55:20Z</time>
      </trkpt>
      <trkpt lat="49.42296" lon="5.763">
        <ele>328.20001220703</ele>
        <time>2024-06-09T07:55:22Z</time>
      </trkpt>
      <trkpt lat="49.42292" lon="5.763">
        <ele>328.60000610352</ele>
        <time>2024-06-09T07:55:24Z</time>
      </trkpt>
      <trkpt lat="49.4229" lon="5.76299">
        <ele>328.79998779297</ele>
        <time>2024-06-09T07:55:26Z</time>
      </trkpt>
      <trkpt lat="49.42287" lon="5.76298">
        <ele>329</ele>
        <time>2024-06-09T07:55:28Z</time>
      </trkpt>
      <trkpt lat="49.42285" lon="5.76297">
        <ele>329.20001220703</ele>
        <time>2024-06-09T07:55:29Z</time>
      </trkpt>
      <trkpt lat="49.42284" lon="5.76296">
        <ele>329.39999389648</ele>
        <time>2024-06-09T07:55:30Z</time>
      </trkpt>
      <trkpt lat="49.42282" lon="5.76294">
        <ele>329.39999389648</ele>
        <time>2024-06-09T07:55:31Z</time>
      </trkpt>
      <trkpt lat="49.42281" lon="5.76294">
        <ele>329.60000610352</ele>
        <time>2024-06-09T07:55:32Z</time>
      </trkpt>
      <trkpt lat="49.42279" lon="5.76291">
        <ele>329.79998779297</ele>
        <time>2024-06-09T07:55:34Z</time>
      </trkpt>
      <trkpt lat="49.42276" lon="5.76289">
        <ele>329.79998779297</ele>
        <time>2024-06-09T07:55:36Z</time>
      </trkpt>
      <trkpt lat="49.42272" lon="5.76287">
        <ele>330</ele>
        <time>2024-06-09T07:55:38Z</time>
      </trkpt>
      <trkpt lat="49.4227" lon="5.76287">
        <ele>330.20001220703</ele>
        <time>2024-06-09T07:55:39Z</time>
      </trkpt>
      <trkpt lat="49.42268" lon="5.76286">
        <ele>330.20001220703</ele>
        <time>2024-06-09T07:55:40Z</time>
      </trkpt>
      <trkpt lat="49.42266" lon="5.76287">
        <ele>330.39999389648</ele>
        <time>2024-06-09T07:55:41Z</time>
      </trkpt>
      <trkpt lat="49.42264" lon="5.76286">
        <ele>330.39999389648</ele>
        <time>2024-06-09T07:55:42Z</time>
      </trkpt>
      <trkpt lat="49.42259" lon="5.76286">
        <ele>330.60000610352</ele>
        <time>2024-06-09T07:55:44Z</time>
      </trkpt>
      <trkpt lat="49.42257" lon="5.76285">
        <ele>330.79998779297</ele>
        <time>2024-06-09T07:55:45Z</time>
      </trkpt>
      <trkpt lat="49.42255" lon="5.76284">
        <ele>331</ele>
        <time>2024-06-09T07:55:46Z</time>
      </trkpt>
      <trkpt lat="49.42252" lon="5.76281">
        <ele>331.60000610352</ele>
        <time>2024-06-09T07:55:48Z</time>
      </trkpt>
      <trkpt lat="49.42248" lon="5.76279">
        <ele>332.20001220703</ele>
        <time>2024-06-09T07:55:50Z</time>
      </trkpt>
      <trkpt lat="49.42243" lon="5.76278">
        <ele>332.39999389648</ele>
        <time>2024-06-09T07:55:52Z</time>
      </trkpt>
      <trkpt lat="49.42238" lon="5.76276">
        <ele>332.60000610352</ele>
        <time>2024-06-09T07:55:54Z</time>
      </trkpt>
      <trkpt lat="49.42237" lon="5.76276">
        <ele>332.60000610352</ele>
        <time>2024-06-09T07:55:55Z</time>
      </trkpt>
      <trkpt lat="49.42235" lon="5.76274">
        <ele>332.79998779297</ele>
        <time>2024-06-09T07:55:56Z</time>
      </trkpt>
      <trkpt lat="49.42231" lon="5.76273">
        <ele>333</ele>
        <time>2024-06-09T07:55:58Z</time>
      </trkpt>
      <trkpt lat="49.4223" lon="5.76273">
        <ele>332.79998779297</ele>
        <time>2024-06-09T07:55:59Z</time>
      </trkpt>
      <trkpt lat="49.42229" lon="5.76273">
        <ele>332.79998779297</ele>
        <time>2024-06-09T07:56:00Z</time>
      </trkpt>
      <trkpt lat="49.42227" lon="5.76272">
        <ele>333.20001220703</ele>
        <time>2024-06-09T07:56:02Z</time>
      </trkpt>
      <trkpt lat="49.42227" lon="5.76271">
        <ele>333.39999389648</ele>
        <time>2024-06-09T07:56:04Z</time>
      </trkpt>
      <trkpt lat="49.42227" lon="5.76271">
        <ele>333.39999389648</ele>
        <time>2024-06-09T07:56:06Z</time>
      </trkpt>
      <trkpt lat="49.42227" lon="5.76271">
        <ele>333.39999389648</ele>
        <time>2024-06-09T07:56:08Z</time>
      </trkpt>
      <trkpt lat="49.42227" lon="5.76271">
        <ele>333.39999389648</ele>
        <time>2024-06-09T07:56:10Z</time>
      </trkpt>
      <trkpt lat="49.42227" lon="5.7627">
        <ele>333.39999389648</ele>
        <time>2024-06-09T07:56:12Z</time>
      </trkpt>
      <trkpt lat="49.42227" lon="5.7627">
        <ele>333.39999389648</ele>
        <time>2024-06-09T07:56:14Z</time>
      </trkpt>
      <trkpt lat="49.42227" lon="5.7627">
        <ele>333.39999389648</ele>
        <time>2024-06-09T07:56:16Z</time>
      </trkpt>
      <trkpt lat="49.42227" lon="5.7627">
        <ele>333.39999389648</ele>
        <time>2024-06-09T07:56:18Z</time>
      </trkpt>
      <trkpt lat="49.42227" lon="5.7627">
        <ele>333.20001220703</ele>
        <time>2024-06-09T07:56:20Z</time>
      </trkpt>
      <trkpt lat="49.42227" lon="5.7627">
        <ele>333.20001220703</ele>
        <time>2024-06-09T07:56:22Z</time>
      </trkpt>
      <trkpt lat="49.42227" lon="5.7627">
        <ele>333.20001220703</ele>
        <time>2024-06-09T07:56:24Z</time>
      </trkpt>
      <trkpt lat="49.42227" lon="5.7627">
        <ele>333.20001220703</ele>
        <time>2024-06-09T07:56:26Z</time>
      </trkpt>
      <trkpt lat="49.42227" lon="5.7627">
        <ele>333.20001220703</ele>
        <time>2024-06-09T07:56:28Z</time>
      </trkpt>
      <trkpt lat="49.42227" lon="5.7627">
        <ele>333.20001220703</ele>
        <time>2024-06-09T07:56:30Z</time>
      </trkpt>
      <trkpt lat="49.42227" lon="5.7627">
        <ele>333.20001220703</ele>
        <time>2024-06-09T07:56:32Z</time>
      </trkpt>
      <trkpt lat="49.42227" lon="5.7627">
        <ele>333.20001220703</ele>
        <time>2024-06-09T07:56:33Z</time>
      </trkpt>
      <trkpt lat="49.42227" lon="5.7627">
        <ele>333.20001220703</ele>
        <time>2024-06-09T07:56:34Z</time>
      </trkpt>
      <trkpt lat="49.42227" lon="5.7627">
        <ele>333.20001220703</ele>
        <time>2024-06-09T07:56:35Z</time>
      </trkpt>
      <trkpt lat="49.42227" lon="5.7627">
        <ele>333.20001220703</ele>
        <time>2024-06-09T07:56:36Z</time>
      </trkpt>
      <trkpt lat="49.42227" lon="5.7627">
        <ele>333</ele>
        <time>2024-06-09T07:56:38Z</time>
      </trkpt>
      <trkpt lat="49.42227" lon="5.7627">
        <ele>333</ele>
        <time>2024-06-09T07:56:40Z</time>
      </trkpt>
      <trkpt lat="49.42227" lon="5.7627">
        <ele>333</ele>
        <time>2024-06-09T07:56:42Z</time>
      </trkpt>
      <trkpt lat="49.42227" lon="5.7627">
        <ele>333</ele>
        <time>2024-06-09T07:56:44Z</time>
      </trkpt>
      <trkpt lat="49.42227" lon="5.76269">
        <ele>333</ele>
        <time>2024-06-09T07:56:46Z</time>
      </trkpt>
      <trkpt lat="49.42227" lon="5.76269">
        <ele>333</ele>
        <time>2024-06-09T07:56:48Z</time>
      </trkpt>
      <trkpt lat="49.42227" lon="5.76269">
        <ele>333</ele>
        <time>2024-06-09T07:56:50Z</time>
      </trkpt>
      <trkpt lat="49.42227" lon="5.76269">
        <ele>333</ele>
        <time>2024-06-09T07:56:52Z</time>
      </trkpt>
      <trkpt lat="49.42227" lon="5.76269">
        <ele>333</ele>
        <time>2024-06-09T07:56:54Z</time>
      </trkpt>
      <trkpt lat="49.42227" lon="5.76269">
        <ele>333</ele>
        <time>2024-06-09T07:56:56Z</time>
      </trkpt>
      <trkpt lat="49.42227" lon="5.76269">
        <ele>333.20001220703</ele>
        <time>2024-06-09T07:56:58Z</time>
      </trkpt>
      <trkpt lat="49.42227" lon="5.76269">
        <ele>333.20001220703</ele>
        <time>2024-06-09T07:57:00Z</time>
      </trkpt>
      <trkpt lat="49.42227" lon="5.76269">
        <ele>333.20001220703</ele>
        <time>2024-06-09T07:57:02Z</time>
      </trkpt>
      <trkpt lat="49.42227" lon="5.76269">
        <ele>333.20001220703</ele>
        <time>2024-06-09T07:57:04Z</time>
      </trkpt>
      <trkpt lat="49.42227" lon="5.76269">
        <ele>333.20001220703</ele>
        <time>2024-06-09T07:57:06Z</time>
      </trkpt>
      <trkpt lat="49.42227" lon="5.76269">
        <ele>333.20001220703</ele>
        <time>2024-06-09T07:57:08Z</time>
      </trkpt>
      <trkpt lat="49.42227" lon="5.76269">
        <ele>333.20001220703</ele>
        <time>2024-06-09T07:57:10Z</time>
      </trkpt>
      <trkpt lat="49.42227" lon="5.76269">
        <ele>333.20001220703</ele>
        <time>2024-06-09T07:57:12Z</time>
      </trkpt>
      <trkpt lat="49.42227" lon="5.76269">
        <ele>333.20001220703</ele>
        <time>2024-06-09T07:57:14Z</time>
      </trkpt>
      <trkpt lat="49.42227" lon="5.76269">
        <ele>333.20001220703</ele>
        <time>2024-06-09T07:57:16Z</time>
      </trkpt>
      <trkpt lat="49.42227" lon="5.76269">
        <ele>333.20001220703</ele>
        <time>2024-06-09T07:57:18Z</time>
      </trkpt>
      <trkpt lat="49.42227" lon="5.76269">
        <ele>333.20001220703</ele>
        <time>2024-06-09T07:57:20Z</time>
      </trkpt>
      <trkpt lat="49.42227" lon="5.76269">
        <ele>333.20001220703</ele>
        <time>2024-06-09T07:57:22Z</time>
      </trkpt>
      <trkpt lat="49.42227" lon="5.76269">
        <ele>333</ele>
        <time>2024-06-09T07:57:24Z</time>
      </trkpt>
      <trkpt lat="49.42227" lon="5.76269">
        <ele>333</ele>
        <time>2024-06-09T07:57:26Z</time>
      </trkpt>
      <trkpt lat="49.42227" lon="5.76269">
        <ele>333</ele>
        <time>2024-06-09T07:57:28Z</time>
      </trkpt>
      <trkpt lat="49.42227" lon="5.76269">
        <ele>333</ele>
        <time>2024-06-09T07:57:30Z</time>
      </trkpt>
      <trkpt lat="49.42227" lon="5.76269">
        <ele>333.20001220703</ele>
        <time>2024-06-09T07:57:32Z</time>
      </trkpt>
      <trkpt lat="49.42227" lon="5.76269">
        <ele>333.20001220703</ele>
        <time>2024-06-09T07:57:34Z</time>
      </trkpt>
      <trkpt lat="49.42227" lon="5.76269">
        <ele>333.20001220703</ele>
        <time>2024-06-09T07:57:36Z</time>
      </trkpt>
      <trkpt lat="49.42227" lon="5.76269">
        <ele>333.20001220703</ele>
        <time>2024-06-09T07:57:37Z</time>
      </trkpt>
      <trkpt lat="49.42227" lon="5.76269">
        <ele>333.20001220703</ele>
        <time>2024-06-09T07:57:38Z</time>
      </trkpt>
      <trkpt lat="49.42227" lon="5.76269">
        <ele>333.20001220703</ele>
        <time>2024-06-09T07:57:40Z</time>
      </trkpt>
      <trkpt lat="49.42227" lon="5.76269">
        <ele>333.20001220703</ele>
        <time>2024-06-09T07:57:42Z</time>
      </trkpt>
      <trkpt lat="49.42227" lon="5.76269">
        <ele>333.20001220703</ele>
        <time>2024-06-09T07:57:44Z</time>
      </trkpt>
      <trkpt lat="49.42227" lon="5.76269">
        <ele>333.20001220703</ele>
        <time>2024-06-09T07:57:46Z</time>
      </trkpt>
      <trkpt lat="49.42227" lon="5.76269">
        <ele>333.20001220703</ele>
        <time>2024-06-09T07:57:48Z</time>
      </trkpt>
      <trkpt lat="49.42227" lon="5.76269">
        <ele>333.20001220703</ele>
        <time>2024-06-09T07:57:50Z</time>
      </trkpt>
      <trkpt lat="49.42227" lon="5.76268">
        <ele>333.20001220703</ele>
        <time>2024-06-09T07:57:52Z</time>
      </trkpt>
      <trkpt lat="49.42227" lon="5.76268">
        <ele>333.20001220703</ele>
        <time>2024-06-09T07:57:54Z</time>
      </trkpt>
      <trkpt lat="49.42227" lon="5.76268">
        <ele>333.20001220703</ele>
        <time>2024-06-09T07:57:56Z</time>
      </trkpt>
      <trkpt lat="49.42227" lon="5.76268">
        <ele>333.39999389648</ele>
        <time>2024-06-09T07:57:58Z</time>
      </trkpt>
      <trkpt lat="49.42227" lon="5.76268">
        <ele>333.39999389648</ele>
        <time>2024-06-09T07:58:00Z</time>
      </trkpt>
      <trkpt lat="49.42227" lon="5.76268">
        <ele>333.39999389648</ele>
        <time>2024-06-09T07:58:02Z</time>
      </trkpt>
      <trkpt lat="49.42227" lon="5.76268">
        <ele>333.39999389648</ele>
        <time>2024-06-09T07:58:04Z</time>
      </trkpt>
      <trkpt lat="49.42227" lon="5.76268">
        <ele>333.39999389648</ele>
        <time>2024-06-09T07:58:06Z</time>
      </trkpt>
      <trkpt lat="49.42227" lon="5.76268">
        <ele>333.39999389648</ele>
        <time>2024-06-09T07:58:08Z</time>
      </trkpt>
      <trkpt lat="49.42227" lon="5.76268">
        <ele>333.39999389648</ele>
        <time>2024-06-09T07:58:10Z</time>
      </trkpt>
      <trkpt lat="49.42227" lon="5.76268">
        <ele>333.39999389648</ele>
        <time>2024-06-09T07:58:12Z</time>
      </trkpt>
      <trkpt lat="49.42227" lon="5.76268">
        <ele>333.39999389648</ele>
        <time>2024-06-09T07:58:14Z</time>
      </trkpt>
      <trkpt lat="49.42227" lon="5.76268">
        <ele>333.39999389648</ele>
        <time>2024-06-09T07:58:16Z</time>
      </trkpt>
      <trkpt lat="49.42227" lon="5.76268">
        <ele>333.39999389648</ele>
        <time>2024-06-09T07:58:17Z</time>
      </trkpt>
      <trkpt lat="49.42227" lon="5.76268">
        <ele>333.39999389648</ele>
        <time>2024-06-09T07:58:18Z</time>
      </trkpt>
      <trkpt lat="49.42227" lon="5.76268">
        <ele>333.39999389648</ele>
        <time>2024-06-09T07:58:20Z</time>
      </trkpt>
      <trkpt lat="49.42227" lon="5.76268">
        <ele>333.20001220703</ele>
        <time>2024-06-09T07:58:22Z</time>
      </trkpt>
      <trkpt lat="49.42227" lon="5.76268">
        <ele>333.20001220703</ele>
        <time>2024-06-09T07:58:24Z</time>
      </trkpt>
      <trkpt lat="49.42227" lon="5.76268">
        <ele>333.20001220703</ele>
        <time>2024-06-09T07:58:26Z</time>
      </trkpt>
      <trkpt lat="49.42227" lon="5.76268">
        <ele>333.20001220703</ele>
        <time>2024-06-09T07:58:28Z</time>
      </trkpt>
      <trkpt lat="49.42227" lon="5.76268">
        <ele>333.20001220703</ele>
        <time>2024-06-09T07:58:30Z</time>
      </trkpt>
      <trkpt lat="49.42227" lon="5.76268">
        <ele>333.20001220703</ele>
        <time>2024-06-09T07:58:32Z</time>
      </trkpt>
      <trkpt lat="49.42227" lon="5.76268">
        <ele>333.20001220703</ele>
        <time>2024-06-09T07:58:34Z</time>
      </trkpt>
      <trkpt lat="49.42227" lon="5.76268">
        <ele>333</ele>
        <time>2024-06-09T07:58:36Z</time>
      </trkpt>
      <trkpt lat="49.42227" lon="5.76268">
        <ele>333</ele>
        <time>2024-06-09T07:58:38Z</time>
      </trkpt>
      <trkpt lat="49.42227" lon="5.76268">
        <ele>333</ele>
        <time>2024-06-09T07:58:40Z</time>
      </trkpt>
      <trkpt lat="49.42227" lon="5.76268">
        <ele>333.20001220703</ele>
        <time>2024-06-09T07:58:42Z</time>
      </trkpt>
      <trkpt lat="49.42227" lon="5.76268">
        <ele>333.20001220703</ele>
        <time>2024-06-09T07:58:44Z</time>
      </trkpt>
      <trkpt lat="49.42227" lon="5.76268">
        <ele>333.20001220703</ele>
        <time>2024-06-09T07:58:46Z</time>
      </trkpt>
      <trkpt lat="49.42227" lon="5.76268">
        <ele>333.20001220703</ele>
        <time>2024-06-09T07:58:48Z</time>
      </trkpt>
      <trkpt lat="49.42227" lon="5.76268">
        <ele>333.20001220703</ele>
        <time>2024-06-09T07:58:50Z</time>
      </trkpt>
      <trkpt lat="49.42227" lon="5.76268">
        <ele>333.20001220703</ele>
        <time>2024-06-09T07:58:51Z</time>
      </trkpt>
      <trkpt lat="49.42227" lon="5.76268">
        <ele>333.20001220703</ele>
        <time>2024-06-09T07:58:52Z</time>
      </trkpt>
      <trkpt lat="49.42227" lon="5.76268">
        <ele>333.20001220703</ele>
        <time>2024-06-09T07:58:54Z</time>
      </trkpt>
      <trkpt lat="49.42227" lon="5.76268">
        <ele>333.20001220703</ele>
        <time>2024-06-09T07:58:56Z</time>
      </trkpt>
      <trkpt lat="49.42227" lon="5.76268">
        <ele>333.20001220703</ele>
        <time>2024-06-09T07:58:58Z</time>
      </trkpt>
      <trkpt lat="49.42227" lon="5.76268">
        <ele>333.20001220703</ele>
        <time>2024-06-09T07:59:00Z</time>
      </trkpt>
      <trkpt lat="49.42227" lon="5.76268">
        <ele>333.20001220703</ele>
        <time>2024-06-09T07:59:02Z</time>
      </trkpt>
      <trkpt lat="49.42227" lon="5.76268">
        <ele>333</ele>
        <time>2024-06-09T07:59:04Z</time>
      </trkpt>
      <trkpt lat="49.42227" lon="5.76268">
        <ele>333</ele>
        <time>2024-06-09T07:59:06Z</time>
      </trkpt>
      <trkpt lat="49.42227" lon="5.76268">
        <ele>333</ele>
        <time>2024-06-09T07:59:08Z</time>
      </trkpt>
      <trkpt lat="49.42227" lon="5.76268">
        <ele>333</ele>
        <time>2024-06-09T07:59:10Z</time>
      </trkpt>
      <trkpt lat="49.42227" lon="5.76268">
        <ele>333</ele>
        <time>2024-06-09T07:59:12Z</time>
      </trkpt>
      <trkpt lat="49.42227" lon="5.76268">
        <ele>333</ele>
        <time>2024-06-09T07:59:14Z</time>
      </trkpt>
      <trkpt lat="49.42227" lon="5.76268">
        <ele>333</ele>
        <time>2024-06-09T07:59:16Z</time>
      </trkpt>
      <trkpt lat="49.42227" lon="5.76268">
        <ele>333</ele>
        <time>2024-06-09T07:59:18Z</time>
      </trkpt>
      <trkpt lat="49.42227" lon="5.76268">
        <ele>333.20001220703</ele>
        <time>2024-06-09T07:59:20Z</time>
      </trkpt>
      <trkpt lat="49.42227" lon="5.76268">
        <ele>333.20001220703</ele>
        <time>2024-06-09T07:59:22Z</time>
      </trkpt>
      <trkpt lat="49.42227" lon="5.76268">
        <ele>333.20001220703</ele>
        <time>2024-06-09T07:59:24Z</time>
      </trkpt>
      <trkpt lat="49.42227" lon="5.76268">
        <ele>333.20001220703</ele>
        <time>2024-06-09T07:59:26Z</time>
      </trkpt>
      <trkpt lat="49.42227" lon="5.76268">
        <ele>333.20001220703</ele>
        <time>2024-06-09T07:59:28Z</time>
      </trkpt>
      <trkpt lat="49.42227" lon="5.76268">
        <ele>333.20001220703</ele>
        <time>2024-06-09T07:59:30Z</time>
      </trkpt>
      <trkpt lat="49.42227" lon="5.76268">
        <ele>333.20001220703</ele>
        <time>2024-06-09T07:59:32Z</time>
      </trkpt>
      <trkpt lat="49.42227" lon="5.76268">
        <ele>333</ele>
        <time>2024-06-09T07:59:34Z</time>
      </trkpt>
      <trkpt lat="49.42227" lon="5.76268">
        <ele>333</ele>
        <time>2024-06-09T07:59:36Z</time>
      </trkpt>
      <trkpt lat="49.42227" lon="5.76268">
        <ele>333</ele>
        <time>2024-06-09T07:59:38Z</time>
      </trkpt>
      <trkpt lat="49.42227" lon="5.76268">
        <ele>333</ele>
        <time>2024-06-09T07:59:40Z</time>
      </trkpt>
      <trkpt lat="49.42227" lon="5.76268">
        <ele>333</ele>
        <time>2024-06-09T07:59:42Z</time>
      </trkpt>
      <trkpt lat="49.42227" lon="5.76268">
        <ele>333</ele>
        <time>2024-06-09T07:59:44Z</time>
      </trkpt>
      <trkpt lat="49.42227" lon="5.76268">
        <ele>333</ele>
        <time>2024-06-09T07:59:46Z</time>
      </trkpt>
      <trkpt lat="49.42227" lon="5.76268">
        <ele>333</ele>
        <time>2024-06-09T07:59:48Z</time>
      </trkpt>
      <trkpt lat="49.42227" lon="5.76268">
        <ele>333</ele>
        <time>2024-06-09T07:59:50Z</time>
      </trkpt>
      <trkpt lat="49.42227" lon="5.76268">
        <ele>333.20001220703</ele>
        <time>2024-06-09T07:59:52Z</time>
      </trkpt>
      <trkpt lat="49.42227" lon="5.76268">
        <ele>333.20001220703</ele>
        <time>2024-06-09T07:59:54Z</time>
      </trkpt>
      <trkpt lat="49.42227" lon="5.76268">
        <ele>333.39999389648</ele>
        <time>2024-06-09T07:59:56Z</time>
      </trkpt>
      <trkpt lat="49.42227" lon="5.76268">
        <ele>333.39999389648</ele>
        <time>2024-06-09T07:59:58Z</time>
      </trkpt>
      <trkpt lat="49.42227" lon="5.76268">
        <ele>333.39999389648</ele>
        <time>2024-06-09T07:59:59Z</time>
      </trkpt>
      <trkpt lat="49.42227" lon="5.76268">
        <ele>333.39999389648</ele>
        <time>2024-06-09T08:00:00Z</time>
      </trkpt>
      <trkpt lat="49.42227" lon="5.76268">
        <ele>333.39999389648</ele>
        <time>2024-06-09T08:00:02Z</time>
      </trkpt>
      <trkpt lat="49.42227" lon="5.76268">
        <ele>333.39999389648</ele>
        <time>2024-06-09T08:00:04Z</time>
      </trkpt>
      <trkpt lat="49.42227" lon="5.76268">
        <ele>333.20001220703</ele>
        <time>2024-06-09T08:00:06Z</time>
      </trkpt>
      <trkpt lat="49.42227" lon="5.76268">
        <ele>333.20001220703</ele>
        <time>2024-06-09T08:00:08Z</time>
      </trkpt>
      <trkpt lat="49.42227" lon="5.76268">
        <ele>333.20001220703</ele>
        <time>2024-06-09T08:00:10Z</time>
      </trkpt>
      <trkpt lat="49.42227" lon="5.76268">
        <ele>333.20001220703</ele>
        <time>2024-06-09T08:00:12Z</time>
      </trkpt>
      <trkpt lat="49.42228" lon="5.76267">
        <ele>333.20001220703</ele>
        <time>2024-06-09T08:00:14Z</time>
      </trkpt>
      <trkpt lat="49.42228" lon="5.76267">
        <ele>333.20001220703</ele>
        <time>2024-06-09T08:00:16Z</time>
      </trkpt>
      <trkpt lat="49.42228" lon="5.76267">
        <ele>333.20001220703</ele>
        <time>2024-06-09T08:00:18Z</time>
      </trkpt>
      <trkpt lat="49.42228" lon="5.76267">
        <ele>333.20001220703</ele>
        <time>2024-06-09T08:00:20Z</time>
      </trkpt>
      <trkpt lat="49.42228" lon="5.76267">
        <ele>333.20001220703</ele>
        <time>2024-06-09T08:00:22Z</time>
      </trkpt>
      <trkpt lat="49.42228" lon="5.76267">
        <ele>333.20001220703</ele>
        <time>2024-06-09T08:00:24Z</time>
      </trkpt>
      <trkpt lat="49.42228" lon="5.76267">
        <ele>333.20001220703</ele>
        <time>2024-06-09T08:00:26Z</time>
      </trkpt>
      <trkpt lat="49.42228" lon="5.76267">
        <ele>333.20001220703</ele>
        <time>2024-06-09T08:00:28Z</time>
      </trkpt>
      <trkpt lat="49.42228" lon="5.76267">
        <ele>333.20001220703</ele>
        <time>2024-06-09T08:00:30Z</time>
      </trkpt>
      <trkpt lat="49.42228" lon="5.76267">
        <ele>333.39999389648</ele>
        <time>2024-06-09T08:00:32Z</time>
      </trkpt>
      <trkpt lat="49.42228" lon="5.76267">
        <ele>333.39999389648</ele>
        <time>2024-06-09T08:00:34Z</time>
      </trkpt>
      <trkpt lat="49.42228" lon="5.76267">
        <ele>333.39999389648</ele>
        <time>2024-06-09T08:00:36Z</time>
      </trkpt>
      <trkpt lat="49.42228" lon="5.76267">
        <ele>333.39999389648</ele>
        <time>2024-06-09T08:00:38Z</time>
      </trkpt>
      <trkpt lat="49.42228" lon="5.76267">
        <ele>333.39999389648</ele>
        <time>2024-06-09T08:00:40Z</time>
      </trkpt>
      <trkpt lat="49.42228" lon="5.76267">
        <ele>333.39999389648</ele>
        <time>2024-06-09T08:00:42Z</time>
      </trkpt>
      <trkpt lat="49.42228" lon="5.76267">
        <ele>333.39999389648</ele>
        <time>2024-06-09T08:00:44Z</time>
      </trkpt>
      <trkpt lat="49.42228" lon="5.76267">
        <ele>333.39999389648</ele>
        <time>2024-06-09T08:00:46Z</time>
      </trkpt>
      <trkpt lat="49.42228" lon="5.76267">
        <ele>333.39999389648</ele>
        <time>2024-06-09T08:00:48Z</time>
      </trkpt>
      <trkpt lat="49.42228" lon="5.76267">
        <ele>333.39999389648</ele>
        <time>2024-06-09T08:00:50Z</time>
      </trkpt>
      <trkpt lat="49.42228" lon="5.76267">
        <ele>333.39999389648</ele>
        <time>2024-06-09T08:00:52Z</time>
      </trkpt>
      <trkpt lat="49.42228" lon="5.76267">
        <ele>333.20001220703</ele>
        <time>2024-06-09T08:00:54Z</time>
      </trkpt>
      <trkpt lat="49.42228" lon="5.76267">
        <ele>333.20001220703</ele>
        <time>2024-06-09T08:00:56Z</time>
      </trkpt>
      <trkpt lat="49.42228" lon="5.76266">
        <ele>333.20001220703</ele>
        <time>2024-06-09T08:00:58Z</time>
      </trkpt>
      <trkpt lat="49.42228" lon="5.76266">
        <ele>333.20001220703</ele>
        <time>2024-06-09T08:01:00Z</time>
      </trkpt>
      <trkpt lat="49.42228" lon="5.76266">
        <ele>333.20001220703</ele>
        <time>2024-06-09T08:01:02Z</time>
      </trkpt>
      <trkpt lat="49.42228" lon="5.76266">
        <ele>333.20001220703</ele>
        <time>2024-06-09T08:01:04Z</time>
      </trkpt>
      <trkpt lat="49.42228" lon="5.76265">
        <ele>333.20001220703</ele>
        <time>2024-06-09T08:01:06Z</time>
      </trkpt>
      <trkpt lat="49.42228" lon="5.76265">
        <ele>333.20001220703</ele>
        <time>2024-06-09T08:01:07Z</time>
      </trkpt>
      <trkpt lat="49.42228" lon="5.76265">
        <ele>333.20001220703</ele>
        <time>2024-06-09T08:01:08Z</time>
      </trkpt>
      <trkpt lat="49.42228" lon="5.76265">
        <ele>333.20001220703</ele>
        <time>2024-06-09T08:01:10Z</time>
      </trkpt>
      <trkpt lat="49.42228" lon="5.76264">
        <ele>333.20001220703</ele>
        <time>2024-06-09T08:01:12Z</time>
      </trkpt>
      <trkpt lat="49.42228" lon="5.76264">
        <ele>333.20001220703</ele>
        <time>2024-06-09T08:01:14Z</time>
      </trkpt>
      <trkpt lat="49.42228" lon="5.76264">
        <ele>333.20001220703</ele>
        <time>2024-06-09T08:01:15Z</time>
      </trkpt>
      <trkpt lat="49.42229" lon="5.76264">
        <ele>333.20001220703</ele>
        <time>2024-06-09T08:01:16Z</time>
      </trkpt>
      <trkpt lat="49.42229" lon="5.76264">
        <ele>333.20001220703</ele>
        <time>2024-06-09T08:01:18Z</time>
      </trkpt>
      <trkpt lat="49.42229" lon="5.76264">
        <ele>333.20001220703</ele>
        <time>2024-06-09T08:01:19Z</time>
      </trkpt>
      <trkpt lat="49.42229" lon="5.76264">
        <ele>333.20001220703</ele>
        <time>2024-06-09T08:01:20Z</time>
      </trkpt>
      <trkpt lat="49.42229" lon="5.76264">
        <ele>333.20001220703</ele>
        <time>2024-06-09T08:01:22Z</time>
      </trkpt>
      <trkpt lat="49.42229" lon="5.76264">
        <ele>333.20001220703</ele>
        <time>2024-06-09T08:01:24Z</time>
      </trkpt>
      <trkpt lat="49.42229" lon="5.76264">
        <ele>333.20001220703</ele>
        <time>2024-06-09T08:01:26Z</time>
      </trkpt>
      <trkpt lat="49.42229" lon="5.76264">
        <ele>333.20001220703</ele>
        <time>2024-06-09T08:01:28Z</time>
      </trkpt>
      <trkpt lat="49.42229" lon="5.76264">
        <ele>333.20001220703</ele>
        <time>2024-06-09T08:01:30Z</time>
      </trkpt>
      <trkpt lat="49.42229" lon="5.76264">
        <ele>333.20001220703</ele>
        <time>2024-06-09T08:01:32Z</time>
      </trkpt>
      <trkpt lat="49.42229" lon="5.76264">
        <ele>333.20001220703</ele>
        <time>2024-06-09T08:01:34Z</time>
      </trkpt>
      <trkpt lat="49.42229" lon="5.76264">
        <ele>333.20001220703</ele>
        <time>2024-06-09T08:01:36Z</time>
      </trkpt>
      <trkpt lat="49.42229" lon="5.76264">
        <ele>333.20001220703</ele>
        <time>2024-06-09T08:01:38Z</time>
      </trkpt>
      <trkpt lat="49.42229" lon="5.76264">
        <ele>333.20001220703</ele>
        <time>2024-06-09T08:01:40Z</time>
      </trkpt>
      <trkpt lat="49.42229" lon="5.76264">
        <ele>333.20001220703</ele>
        <time>2024-06-09T08:01:42Z</time>
      </trkpt>
      <trkpt lat="49.42229" lon="5.76263">
        <ele>333.20001220703</ele>
        <time>2024-06-09T08:01:44Z</time>
      </trkpt>
      <trkpt lat="49.4223" lon="5.76263">
        <ele>333.20001220703</ele>
        <time>2024-06-09T08:01:46Z</time>
      </trkpt>
      <trkpt lat="49.42231" lon="5.76263">
        <ele>333.20001220703</ele>
        <time>2024-06-09T08:01:48Z</time>
      </trkpt>
      <trkpt lat="49.42233" lon="5.76263">
        <ele>333.39999389648</ele>
        <time>2024-06-09T08:01:50Z</time>
      </trkpt>
      <trkpt lat="49.42237" lon="5.76265">
        <ele>333.79998779297</ele>
        <time>2024-06-09T08:01:52Z</time>
      </trkpt>
      <trkpt lat="49.42242" lon="5.76267">
        <ele>333.79998779297</ele>
        <time>2024-06-09T08:01:54Z</time>
      </trkpt>
      <trkpt lat="49.42247" lon="5.76269">
        <ele>333.79998779297</ele>
        <time>2024-06-09T08:01:56Z</time>
      </trkpt>
      <trkpt lat="49.42252" lon="5.76271">
        <ele>333.79998779297</ele>
        <time>2024-06-09T08:01:58Z</time>
      </trkpt>
      <trkpt lat="49.42258" lon="5.76273">
        <ele>333.79998779297</ele>
        <time>2024-06-09T08:02:00Z</time>
      </trkpt>
      <trkpt lat="49.42263" lon="5.76277">
        <ele>333.79998779297</ele>
        <time>2024-06-09T08:02:02Z</time>
      </trkpt>
      <trkpt lat="49.42267" lon="5.76282">
        <ele>333.60000610352</ele>
        <time>2024-06-09T08:02:04Z</time>
      </trkpt>
      <trkpt lat="49.42271" lon="5.76288">
        <ele>333.39999389648</ele>
        <time>2024-06-09T08:02:06Z</time>
      </trkpt>
      <trkpt lat="49.42273" lon="5.76293">
        <ele>333.20001220703</ele>
        <time>2024-06-09T08:02:08Z</time>
      </trkpt>
      <trkpt lat="49.42274" lon="5.76295">
        <ele>333</ele>
        <time>2024-06-09T08:02:09Z</time>
      </trkpt>
      <trkpt lat="49.42274" lon="5.76297">
        <ele>332.79998779297</ele>
        <time>2024-06-09T08:02:10Z</time>
      </trkpt>
      <trkpt lat="49.42274" lon="5.76302">
        <ele>332.60000610352</ele>
        <time>2024-06-09T08:02:12Z</time>
      </trkpt>
      <trkpt lat="49.42274" lon="5.76307">
        <ele>332.39999389648</ele>
        <time>2024-06-09T08:02:14Z</time>
      </trkpt>
      <trkpt lat="49.42274" lon="5.7631">
        <ele>332.20001220703</ele>
        <time>2024-06-09T08:02:15Z</time>
      </trkpt>
      <trkpt lat="49.42275" lon="5.76314">
        <ele>332</ele>
        <time>2024-06-09T08:02:16Z</time>
      </trkpt>
      <trkpt lat="49.42276" lon="5.76327">
        <ele>331.79998779297</ele>
        <time>2024-06-09T08:02:18Z</time>
      </trkpt>
      <trkpt lat="49.42277" lon="5.76334">
        <ele>331.60000610352</ele>
        <time>2024-06-09T08:02:19Z</time>
      </trkpt>
      <trkpt lat="49.42278" lon="5.76341">
        <ele>331.60000610352</ele>
        <time>2024-06-09T08:02:20Z</time>
      </trkpt>
      <trkpt lat="49.42279" lon="5.76359">
        <ele>331.39999389648</ele>
        <time>2024-06-09T08:02:22Z</time>
      </trkpt>
      <trkpt lat="49.42279" lon="5.76378">
        <ele>330.79998779297</ele>
        <time>2024-06-09T08:02:24Z</time>
      </trkpt>
      <trkpt lat="49.42279" lon="5.764">
        <ele>330.20001220703</ele>
        <time>2024-06-09T08:02:26Z</time>
      </trkpt>
      <trkpt lat="49.42281" lon="5.76411">
        <ele>329.60000610352</ele>
        <time>2024-06-09T08:02:27Z</time>
      </trkpt>
      <trkpt lat="49.42283" lon="5.76421">
        <ele>329.20001220703</ele>
        <time>2024-06-09T08:02:28Z</time>
      </trkpt>
      <trkpt lat="49.42285" lon="5.76431">
        <ele>328.39999389648</ele>
        <time>2024-06-09T08:02:29Z</time>
      </trkpt>
      <trkpt lat="49.42286" lon="5.7644">
        <ele>327</ele>
        <time>2024-06-09T08:02:30Z</time>
      </trkpt>
      <trkpt lat="49.4229" lon="5.76459">
        <ele>325.60000610352</ele>
        <time>2024-06-09T08:02:32Z</time>
      </trkpt>
      <trkpt lat="49.42291" lon="5.76468">
        <ele>324.79998779297</ele>
        <time>2024-06-09T08:02:33Z</time>
      </trkpt>
      <trkpt lat="49.42292" lon="5.76477">
        <ele>324.20001220703</ele>
        <time>2024-06-09T08:02:34Z</time>
      </trkpt>
      <trkpt lat="49.42291" lon="5.76491">
        <ele>322.39999389648</ele>
        <time>2024-06-09T08:02:36Z</time>
      </trkpt>
      <trkpt lat="49.42291" lon="5.76497">
        <ele>321.39999389648</ele>
        <time>2024-06-09T08:02:37Z</time>
      </trkpt>
      <trkpt lat="49.42291" lon="5.76504">
        <ele>320.79998779297</ele>
        <time>2024-06-09T08:02:38Z</time>
      </trkpt>
      <trkpt lat="49.42292" lon="5.76517">
        <ele>320</ele>
        <time>2024-06-09T08:02:40Z</time>
      </trkpt>
      <trkpt lat="49.42292" lon="5.76523">
        <ele>319.39999389648</ele>
        <time>2024-06-09T08:02:41Z</time>
      </trkpt>
      <trkpt lat="49.42293" lon="5.76529">
        <ele>319.20001220703</ele>
        <time>2024-06-09T08:02:42Z</time>
      </trkpt>
      <trkpt lat="49.42294" lon="5.76542">
        <ele>319</ele>
        <time>2024-06-09T08:02:44Z</time>
      </trkpt>
      <trkpt lat="49.42296" lon="5.76548">
        <ele>318.79998779297</ele>
        <time>2024-06-09T08:02:45Z</time>
      </trkpt>
      <trkpt lat="49.42297" lon="5.76555">
        <ele>318.79998779297</ele>
        <time>2024-06-09T08:02:46Z</time>
      </trkpt>
      <trkpt lat="49.42298" lon="5.76561">
        <ele>318.79998779297</ele>
        <time>2024-06-09T08:02:47Z</time>
      </trkpt>
      <trkpt lat="49.423" lon="5.76568">
        <ele>318.79998779297</ele>
        <time>2024-06-09T08:02:48Z</time>
      </trkpt>
      <trkpt lat="49.42305" lon="5.76582">
        <ele>318.60000610352</ele>
        <time>2024-06-09T08:02:50Z</time>
      </trkpt>
      <trkpt lat="49.4231" lon="5.76595">
        <ele>318.60000610352</ele>
        <time>2024-06-09T08:02:52Z</time>
      </trkpt>
      <trkpt lat="49.42314" lon="5.76606">
        <ele>318.20001220703</ele>
        <time>2024-06-09T08:02:54Z</time>
      </trkpt>
      <trkpt lat="49.42318" lon="5.76618">
        <ele>317.60000610352</ele>
        <time>2024-06-09T08:02:56Z</time>
      </trkpt>
      <trkpt lat="49.42322" lon="5.7663">
        <ele>316.60000610352</ele>
        <time>2024-06-09T08:02:58Z</time>
      </trkpt>
      <trkpt lat="49.42327" lon="5.76642">
        <ele>315.60000610352</ele>
        <time>2024-06-09T08:03:00Z</time>
      </trkpt>
      <trkpt lat="49.4233" lon="5.76648">
        <ele>315.20001220703</ele>
        <time>2024-06-09T08:03:01Z</time>
      </trkpt>
      <trkpt lat="49.42333" lon="5.76654">
        <ele>314.79998779297</ele>
        <time>2024-06-09T08:03:02Z</time>
      </trkpt>
      <trkpt lat="49.42335" lon="5.76662">
        <ele>314.60000610352</ele>
        <time>2024-06-09T08:03:03Z</time>
      </trkpt>
      <trkpt lat="49.42336" lon="5.7667">
        <ele>314.60000610352</ele>
        <time>2024-06-09T08:03:04Z</time>
      </trkpt>
      <trkpt lat="49.42338" lon="5.76686">
        <ele>314.39999389648</ele>
        <time>2024-06-09T08:03:06Z</time>
      </trkpt>
      <trkpt lat="49.42339" lon="5.76694">
        <ele>314.20001220703</ele>
        <time>2024-06-09T08:03:07Z</time>
      </trkpt>
      <trkpt lat="49.42339" lon="5.76703">
        <ele>314</ele>
        <time>2024-06-09T08:03:08Z</time>
      </trkpt>
      <trkpt lat="49.42339" lon="5.76717">
        <ele>313.20001220703</ele>
        <time>2024-06-09T08:03:10Z</time>
      </trkpt>
      <trkpt lat="49.42339" lon="5.76723">
        <ele>313</ele>
        <time>2024-06-09T08:03:11Z</time>
      </trkpt>
      <trkpt lat="49.42339" lon="5.76728">
        <ele>312.60000610352</ele>
        <time>2024-06-09T08:03:12Z</time>
      </trkpt>
      <trkpt lat="49.42341" lon="5.76738">
        <ele>312.39999389648</ele>
        <time>2024-06-09T08:03:14Z</time>
      </trkpt>
      <trkpt lat="49.42342" lon="5.76748">
        <ele>312.20001220703</ele>
        <time>2024-06-09T08:03:16Z</time>
      </trkpt>
      <trkpt lat="49.42342" lon="5.76757">
        <ele>312</ele>
        <time>2024-06-09T08:03:18Z</time>
      </trkpt>
      <trkpt lat="49.42344" lon="5.76766">
        <ele>312</ele>
        <time>2024-06-09T08:03:20Z</time>
      </trkpt>
      <trkpt lat="49.42346" lon="5.76771">
        <ele>312</ele>
        <time>2024-06-09T08:03:21Z</time>
      </trkpt>
      <trkpt lat="49.42347" lon="5.76777">
        <ele>311.79998779297</ele>
        <time>2024-06-09T08:03:22Z</time>
      </trkpt>
      <trkpt lat="49.42351" lon="5.76788">
        <ele>311.60000610352</ele>
        <time>2024-06-09T08:03:24Z</time>
      </trkpt>
      <trkpt lat="49.42353" lon="5.76799">
        <ele>311.60000610352</ele>
        <time>2024-06-09T08:03:26Z</time>
      </trkpt>
      <trkpt lat="49.42354" lon="5.76804">
        <ele>311.20001220703</ele>
        <time>2024-06-09T08:03:27Z</time>
      </trkpt>
      <trkpt lat="49.42355" lon="5.76809">
        <ele>311</ele>
        <time>2024-06-09T08:03:28Z</time>
      </trkpt>
      <trkpt lat="49.42356" lon="5.76813">
        <ele>310.79998779297</ele>
        <time>2024-06-09T08:03:29Z</time>
      </trkpt>
      <trkpt lat="49.42356" lon="5.76817">
        <ele>310.60000610352</ele>
        <time>2024-06-09T08:03:30Z</time>
      </trkpt>
      <trkpt lat="49.42358" lon="5.76825">
        <ele>310</ele>
        <time>2024-06-09T08:03:32Z</time>
      </trkpt>
      <trkpt lat="49.42359" lon="5.76829">
        <ele>309.79998779297</ele>
        <time>2024-06-09T08:03:33Z</time>
      </trkpt>
      <trkpt lat="49.4236" lon="5.76833">
        <ele>309.60000610352</ele>
        <time>2024-06-09T08:03:34Z</time>
      </trkpt>
      <trkpt lat="49.42361" lon="5.76841">
        <ele>309.39999389648</ele>
        <time>2024-06-09T08:03:36Z</time>
      </trkpt>
      <trkpt lat="49.42359" lon="5.76846">
        <ele>309.39999389648</ele>
        <time>2024-06-09T08:03:38Z</time>
      </trkpt>
      <trkpt lat="49.42358" lon="5.76849">
        <ele>309.20001220703</ele>
        <time>2024-06-09T08:03:40Z</time>
      </trkpt>
      <trkpt lat="49.42358" lon="5.76851">
        <ele>309.20001220703</ele>
        <time>2024-06-09T08:03:42Z</time>
      </trkpt>
      <trkpt lat="49.42358" lon="5.76853">
        <ele>309.20001220703</ele>
        <time>2024-06-09T08:03:43Z</time>
      </trkpt>
      <trkpt lat="49.42358" lon="5.76854">
        <ele>309.20001220703</ele>
        <time>2024-06-09T08:03:44Z</time>
      </trkpt>
      <trkpt lat="49.42359" lon="5.76859">
        <ele>309.39999389648</ele>
        <time>2024-06-09T08:03:46Z</time>
      </trkpt>
      <trkpt lat="49.42361" lon="5.76863">
        <ele>310</ele>
        <time>2024-06-09T08:03:48Z</time>
      </trkpt>
      <trkpt lat="49.42362" lon="5.76866">
        <ele>310.39999389648</ele>
        <time>2024-06-09T08:03:49Z</time>
      </trkpt>
      <trkpt lat="49.42364" lon="5.76868">
        <ele>310.60000610352</ele>
        <time>2024-06-09T08:03:50Z</time>
      </trkpt>
      <trkpt lat="49.42368" lon="5.76875">
        <ele>310.60000610352</ele>
        <time>2024-06-09T08:03:52Z</time>
      </trkpt>
      <trkpt lat="49.4237" lon="5.76881">
        <ele>310.60000610352</ele>
        <time>2024-06-09T08:03:54Z</time>
      </trkpt>
      <trkpt lat="49.42372" lon="5.76887">
        <ele>310.79998779297</ele>
        <time>2024-06-09T08:03:56Z</time>
      </trkpt>
      <trkpt lat="49.42374" lon="5.76893">
        <ele>311</ele>
        <time>2024-06-09T08:03:58Z</time>
      </trkpt>
      <trkpt lat="49.42376" lon="5.76902">
        <ele>311</ele>
        <time>2024-06-09T08:04:00Z</time>
      </trkpt>
      <trkpt lat="49.42377" lon="5.76907">
        <ele>311</ele>
        <time>2024-06-09T08:04:01Z</time>
      </trkpt>
      <trkpt lat="49.42378" lon="5.76911">
        <ele>311</ele>
        <time>2024-06-09T08:04:02Z</time>
      </trkpt>
      <trkpt lat="49.4238" lon="5.76919">
        <ele>311</ele>
        <time>2024-06-09T08:04:04Z</time>
      </trkpt>
      <trkpt lat="49.42382" lon="5.76926">
        <ele>311</ele>
        <time>2024-06-09T08:04:06Z</time>
      </trkpt>
      <trkpt lat="49.42383" lon="5.76931">
        <ele>311</ele>
        <time>2024-06-09T08:04:07Z</time>
      </trkpt>
      <trkpt lat="49.42384" lon="5.76935">
        <ele>311.20001220703</ele>
        <time>2024-06-09T08:04:08Z</time>
      </trkpt>
      <trkpt lat="49.42385" lon="5.76942">
        <ele>311.60000610352</ele>
        <time>2024-06-09T08:04:10Z</time>
      </trkpt>
      <trkpt lat="49.42385" lon="5.76949">
        <ele>311.79998779297</ele>
        <time>2024-06-09T08:04:12Z</time>
      </trkpt>
      <trkpt lat="49.42384" lon="5.76952">
        <ele>312</ele>
        <time>2024-06-09T08:04:14Z</time>
      </trkpt>
      <trkpt lat="49.42383" lon="5.76955">
        <ele>312.39999389648</ele>
        <time>2024-06-09T08:04:16Z</time>
      </trkpt>
      <trkpt lat="49.42382" lon="5.76958">
        <ele>312.79998779297</ele>
        <time>2024-06-09T08:04:18Z</time>
      </trkpt>
      <trkpt lat="49.4238" lon="5.76961">
        <ele>313.20001220703</ele>
        <time>2024-06-09T08:04:20Z</time>
      </trkpt>
      <trkpt lat="49.42378" lon="5.76963">
        <ele>313.60000610352</ele>
        <time>2024-06-09T08:04:22Z</time>
      </trkpt>
      <trkpt lat="49.42376" lon="5.76965">
        <ele>314.20001220703</ele>
        <time>2024-06-09T08:04:24Z</time>
      </trkpt>
      <trkpt lat="49.42375" lon="5.76966">
        <ele>314.20001220703</ele>
        <time>2024-06-09T08:04:25Z</time>
      </trkpt>
      <trkpt lat="49.42374" lon="5.76967">
        <ele>314.39999389648</ele>
        <time>2024-06-09T08:04:26Z</time>
      </trkpt>
      <trkpt lat="49.42373" lon="5.76968">
        <ele>314.60000610352</ele>
        <time>2024-06-09T08:04:27Z</time>
      </trkpt>
      <trkpt lat="49.42372" lon="5.76969">
        <ele>314.60000610352</ele>
        <time>2024-06-09T08:04:28Z</time>
      </trkpt>
      <trkpt lat="49.4237" lon="5.76971">
        <ele>315.20001220703</ele>
        <time>2024-06-09T08:04:30Z</time>
      </trkpt>
      <trkpt lat="49.42368" lon="5.76972">
        <ele>315.60000610352</ele>
        <time>2024-06-09T08:04:31Z</time>
      </trkpt>
      <trkpt lat="49.42368" lon="5.76974">
        <ele>315.79998779297</ele>
        <time>2024-06-09T08:04:32Z</time>
      </trkpt>
      <trkpt lat="49.42366" lon="5.76976">
        <ele>316</ele>
        <time>2024-06-09T08:04:34Z</time>
      </trkpt>
      <trkpt lat="49.42364" lon="5.76979">
        <ele>316.20001220703</ele>
        <time>2024-06-09T08:04:36Z</time>
      </trkpt>
      <trkpt lat="49.42363" lon="5.7698">
        <ele>316.39999389648</ele>
        <time>2024-06-09T08:04:37Z</time>
      </trkpt>
      <trkpt lat="49.42362" lon="5.76981">
        <ele>316.60000610352</ele>
        <time>2024-06-09T08:04:38Z</time>
      </trkpt>
      <trkpt lat="49.42361" lon="5.76981">
        <ele>316.60000610352</ele>
        <time>2024-06-09T08:04:39Z</time>
      </trkpt>
      <trkpt lat="49.4236" lon="5.76983">
        <ele>316.79998779297</ele>
        <time>2024-06-09T08:04:40Z</time>
      </trkpt>
      <trkpt lat="49.42357" lon="5.76984">
        <ele>317.39999389648</ele>
        <time>2024-06-09T08:04:42Z</time>
      </trkpt>
      <trkpt lat="49.42356" lon="5.76985">
        <ele>317.79998779297</ele>
        <time>2024-06-09T08:04:43Z</time>
      </trkpt>
      <trkpt lat="49.42355" lon="5.76986">
        <ele>318.20001220703</ele>
        <time>2024-06-09T08:04:44Z</time>
      </trkpt>
      <trkpt lat="49.42352" lon="5.76987">
        <ele>318.79998779297</ele>
        <time>2024-06-09T08:04:46Z</time>
      </trkpt>
      <trkpt lat="49.4235" lon="5.76988">
        <ele>319</ele>
        <time>2024-06-09T08:04:47Z</time>
      </trkpt>
      <trkpt lat="49.42349" lon="5.76988">
        <ele>319.20001220703</ele>
        <time>2024-06-09T08:04:48Z</time>
      </trkpt>
      <trkpt lat="49.42348" lon="5.76988">
        <ele>319.20001220703</ele>
        <time>2024-06-09T08:04:49Z</time>
      </trkpt>
      <trkpt lat="49.42346" lon="5.76989">
        <ele>319.39999389648</ele>
        <time>2024-06-09T08:04:50Z</time>
      </trkpt>
      <trkpt lat="49.42344" lon="5.76991">
        <ele>320.20001220703</ele>
        <time>2024-06-09T08:04:52Z</time>
      </trkpt>
      <trkpt lat="49.42339" lon="5.76993">
        <ele>320.39999389648</ele>
        <time>2024-06-09T08:04:54Z</time>
      </trkpt>
      <trkpt lat="49.42336" lon="5.76994">
        <ele>320.60000610352</ele>
        <time>2024-06-09T08:04:56Z</time>
      </trkpt>
      <trkpt lat="49.42333" lon="5.76995">
        <ele>321</ele>
        <time>2024-06-09T08:04:58Z</time>
      </trkpt>
      <trkpt lat="49.42332" lon="5.76996">
        <ele>321</ele>
        <time>2024-06-09T08:04:59Z</time>
      </trkpt>
      <trkpt lat="49.4233" lon="5.76997">
        <ele>321.20001220703</ele>
        <time>2024-06-09T08:05:00Z</time>
      </trkpt>
      <trkpt lat="49.42327" lon="5.77001">
        <ele>321.60000610352</ele>
        <time>2024-06-09T08:05:02Z</time>
      </trkpt>
      <trkpt lat="49.42324" lon="5.77003">
        <ele>322</ele>
        <time>2024-06-09T08:05:04Z</time>
      </trkpt>
      <trkpt lat="49.42323" lon="5.77005">
        <ele>322.39999389648</ele>
        <time>2024-06-09T08:05:05Z</time>
      </trkpt>
      <trkpt lat="49.42322" lon="5.77006">
        <ele>322.60000610352</ele>
        <time>2024-06-09T08:05:06Z</time>
      </trkpt>
      <trkpt lat="49.4232" lon="5.77008">
        <ele>322.79998779297</ele>
        <time>2024-06-09T08:05:08Z</time>
      </trkpt>
      <trkpt lat="49.42318" lon="5.7701">
        <ele>323</ele>
        <time>2024-06-09T08:05:10Z</time>
      </trkpt>
      <trkpt lat="49.42317" lon="5.77013">
        <ele>323.20001220703</ele>
        <time>2024-06-09T08:05:12Z</time>
      </trkpt>
      <trkpt lat="49.42316" lon="5.77014">
        <ele>323.39999389648</ele>
        <time>2024-06-09T08:05:13Z</time>
      </trkpt>
      <trkpt lat="49.42315" lon="5.77016">
        <ele>323.60000610352</ele>
        <time>2024-06-09T08:05:14Z</time>
      </trkpt>
      <trkpt lat="49.42314" lon="5.7702">
        <ele>324</ele>
        <time>2024-06-09T08:05:16Z</time>
      </trkpt>
      <trkpt lat="49.42313" lon="5.77022">
        <ele>324.20001220703</ele>
        <time>2024-06-09T08:05:18Z</time>
      </trkpt>
      <trkpt lat="49.42312" lon="5.77026">
        <ele>324.60000610352</ele>
        <time>2024-06-09T08:05:20Z</time>
      </trkpt>
      <trkpt lat="49.42312" lon="5.77029">
        <ele>324.79998779297</ele>
        <time>2024-06-09T08:05:22Z</time>
      </trkpt>
      <trkpt lat="49.42312" lon="5.77031">
        <ele>325</ele>
        <time>2024-06-09T08:05:23Z</time>
      </trkpt>
      <trkpt lat="49.42312" lon="5.77033">
        <ele>325.20001220703</ele>
        <time>2024-06-09T08:05:24Z</time>
      </trkpt>
      <trkpt lat="49.42313" lon="5.77037">
        <ele>325.60000610352</ele>
        <time>2024-06-09T08:05:26Z</time>
      </trkpt>
      <trkpt lat="49.42316" lon="5.77036">
        <ele>325.60000610352</ele>
        <time>2024-06-09T08:05:27Z</time>
      </trkpt>
      <trkpt lat="49.42317" lon="5.77036">
        <ele>325.60000610352</ele>
        <time>2024-06-09T08:05:28Z</time>
      </trkpt>
      <trkpt lat="49.4232" lon="5.77036">
        <ele>325.60000610352</ele>
        <time>2024-06-09T08:05:29Z</time>
      </trkpt>
      <trkpt lat="49.42323" lon="5.77035">
        <ele>325.60000610352</ele>
        <time>2024-06-09T08:05:30Z</time>
      </trkpt>
      <trkpt lat="49.42326" lon="5.77035">
        <ele>325.79998779297</ele>
        <time>2024-06-09T08:05:31Z</time>
      </trkpt>
      <trkpt lat="49.4233" lon="5.77034">
        <ele>325.79998779297</ele>
        <time>2024-06-09T08:05:32Z</time>
      </trkpt>
      <trkpt lat="49.42335" lon="5.77035">
        <ele>325.79998779297</ele>
        <time>2024-06-09T08:05:33Z</time>
      </trkpt>
      <trkpt lat="49.4234" lon="5.77036">
        <ele>325.79998779297</ele>
        <time>2024-06-09T08:05:34Z</time>
      </trkpt>
      <trkpt lat="49.42347" lon="5.77039">
        <ele>325.79998779297</ele>
        <time>2024-06-09T08:05:35Z</time>
      </trkpt>
      <trkpt lat="49.42354" lon="5.77042">
        <ele>325.60000610352</ele>
        <time>2024-06-09T08:05:36Z</time>
      </trkpt>
      <trkpt lat="49.42368" lon="5.77049">
        <ele>324.79998779297</ele>
        <time>2024-06-09T08:05:38Z</time>
      </trkpt>
      <trkpt lat="49.42373" lon="5.77052">
        <ele>323.60000610352</ele>
        <time>2024-06-09T08:05:39Z</time>
      </trkpt>
      <trkpt lat="49.42378" lon="5.77056">
        <ele>322.79998779297</ele>
        <time>2024-06-09T08:05:40Z</time>
      </trkpt>
      <trkpt lat="49.42381" lon="5.7706">
        <ele>321.79998779297</ele>
        <time>2024-06-09T08:05:41Z</time>
      </trkpt>
      <trkpt lat="49.42384" lon="5.77065">
        <ele>320.79998779297</ele>
        <time>2024-06-09T08:05:42Z</time>
      </trkpt>
      <trkpt lat="49.42387" lon="5.7707">
        <ele>320</ele>
        <time>2024-06-09T08:05:43Z</time>
      </trkpt>
      <trkpt lat="49.42389" lon="5.77076">
        <ele>318.79998779297</ele>
        <time>2024-06-09T08:05:44Z</time>
      </trkpt>
      <trkpt lat="49.42391" lon="5.77083">
        <ele>317.60000610352</ele>
        <time>2024-06-09T08:05:45Z</time>
      </trkpt>
      <trkpt lat="49.42393" lon="5.77089">
        <ele>316.39999389648</ele>
        <time>2024-06-09T08:05:46Z</time>
      </trkpt>
      <trkpt lat="49.42394" lon="5.77096">
        <ele>315.79998779297</ele>
        <time>2024-06-09T08:05:47Z</time>
      </trkpt>
      <trkpt lat="49.42396" lon="5.77103">
        <ele>315</ele>
        <time>2024-06-09T08:05:48Z</time>
      </trkpt>
      <trkpt lat="49.42399" lon="5.77117">
        <ele>314.60000610352</ele>
        <time>2024-06-09T08:05:50Z</time>
      </trkpt>
      <trkpt lat="49.42402" lon="5.77132">
        <ele>314.20001220703</ele>
        <time>2024-06-09T08:05:52Z</time>
      </trkpt>
      <trkpt lat="49.42403" lon="5.77139">
        <ele>314</ele>
        <time>2024-06-09T08:05:53Z</time>
      </trkpt>
      <trkpt lat="49.42404" lon="5.77146">
        <ele>313.79998779297</ele>
        <time>2024-06-09T08:05:54Z</time>
      </trkpt>
      <trkpt lat="49.42404" lon="5.77154">
        <ele>313.79998779297</ele>
        <time>2024-06-09T08:05:55Z</time>
      </trkpt>
      <trkpt lat="49.42403" lon="5.77162">
        <ele>313.60000610352</ele>
        <time>2024-06-09T08:05:56Z</time>
      </trkpt>
      <trkpt lat="49.42403" lon="5.77168">
        <ele>313.39999389648</ele>
        <time>2024-06-09T08:05:57Z</time>
      </trkpt>
      <trkpt lat="49.42403" lon="5.77174">
        <ele>313.39999389648</ele>
        <time>2024-06-09T08:05:58Z</time>
      </trkpt>
      <trkpt lat="49.42406" lon="5.7718">
        <ele>313.20001220703</ele>
        <time>2024-06-09T08:06:00Z</time>
      </trkpt>
      <trkpt lat="49.42409" lon="5.77183">
        <ele>313.20001220703</ele>
        <time>2024-06-09T08:06:01Z</time>
      </trkpt>
      <trkpt lat="49.42412" lon="5.77188">
        <ele>313.20001220703</ele>
        <time>2024-06-09T08:06:02Z</time>
      </trkpt>
      <trkpt lat="49.42417" lon="5.77201">
        <ele>313</ele>
        <time>2024-06-09T08:06:04Z</time>
      </trkpt>
      <trkpt lat="49.4242" lon="5.77217">
        <ele>313</ele>
        <time>2024-06-09T08:06:06Z</time>
      </trkpt>
      <trkpt lat="49.42421" lon="5.77226">
        <ele>312.79998779297</ele>
        <time>2024-06-09T08:06:07Z</time>
      </trkpt>
      <trkpt lat="49.42422" lon="5.77235">
        <ele>312.39999389648</ele>
        <time>2024-06-09T08:06:08Z</time>
      </trkpt>
      <trkpt lat="49.42425" lon="5.77255">
        <ele>312</ele>
        <time>2024-06-09T08:06:10Z</time>
      </trkpt>
      <trkpt lat="49.42426" lon="5.77263">
        <ele>311.39999389648</ele>
        <time>2024-06-09T08:06:11Z</time>
      </trkpt>
      <trkpt lat="49.42427" lon="5.77271">
        <ele>310.79998779297</ele>
        <time>2024-06-09T08:06:12Z</time>
      </trkpt>
      <trkpt lat="49.42428" lon="5.7728">
        <ele>310.20001220703</ele>
        <time>2024-06-09T08:06:13Z</time>
      </trkpt>
      <trkpt lat="49.42429" lon="5.77288">
        <ele>309.79998779297</ele>
        <time>2024-06-09T08:06:14Z</time>
      </trkpt>
      <trkpt lat="49.42431" lon="5.77305">
        <ele>308.60000610352</ele>
        <time>2024-06-09T08:06:16Z</time>
      </trkpt>
      <trkpt lat="49.42432" lon="5.77314">
        <ele>307.39999389648</ele>
        <time>2024-06-09T08:06:17Z</time>
      </trkpt>
      <trkpt lat="49.42434" lon="5.77323">
        <ele>307.20001220703</ele>
        <time>2024-06-09T08:06:18Z</time>
      </trkpt>
      <trkpt lat="49.42435" lon="5.77332">
        <ele>307</ele>
        <time>2024-06-09T08:06:19Z</time>
      </trkpt>
      <trkpt lat="49.42436" lon="5.77341">
        <ele>306.79998779297</ele>
        <time>2024-06-09T08:06:20Z</time>
      </trkpt>
      <trkpt lat="49.4244" lon="5.77358">
        <ele>306.60000610352</ele>
        <time>2024-06-09T08:06:22Z</time>
      </trkpt>
      <trkpt lat="49.42443" lon="5.77375">
        <ele>306.60000610352</ele>
        <time>2024-06-09T08:06:24Z</time>
      </trkpt>
      <trkpt lat="49.42445" lon="5.77383">
        <ele>306.39999389648</ele>
        <time>2024-06-09T08:06:25Z</time>
      </trkpt>
      <trkpt lat="49.42447" lon="5.7739">
        <ele>306.20001220703</ele>
        <time>2024-06-09T08:06:26Z</time>
      </trkpt>
      <trkpt lat="49.4245" lon="5.77406">
        <ele>306</ele>
        <time>2024-06-09T08:06:28Z</time>
      </trkpt>
      <trkpt lat="49.42453" lon="5.77419">
        <ele>305.79998779297</ele>
        <time>2024-06-09T08:06:30Z</time>
      </trkpt>
      <trkpt lat="49.42455" lon="5.77424">
        <ele>305.79998779297</ele>
        <time>2024-06-09T08:06:31Z</time>
      </trkpt>
      <trkpt lat="49.42455" lon="5.7743">
        <ele>305.79998779297</ele>
        <time>2024-06-09T08:06:32Z</time>
      </trkpt>
      <trkpt lat="49.42456" lon="5.77439">
        <ele>305.79998779297</ele>
        <time>2024-06-09T08:06:34Z</time>
      </trkpt>
      <trkpt lat="49.42459" lon="5.77446">
        <ele>305.79998779297</ele>
        <time>2024-06-09T08:06:36Z</time>
      </trkpt>
      <trkpt lat="49.42461" lon="5.77452">
        <ele>306</ele>
        <time>2024-06-09T08:06:38Z</time>
      </trkpt>
      <trkpt lat="49.42463" lon="5.77461">
        <ele>306.20001220703</ele>
        <time>2024-06-09T08:06:40Z</time>
      </trkpt>
      <trkpt lat="49.42466" lon="5.77469">
        <ele>306.79998779297</ele>
        <time>2024-06-09T08:06:42Z</time>
      </trkpt>
      <trkpt lat="49.42468" lon="5.77476">
        <ele>307</ele>
        <time>2024-06-09T08:06:44Z</time>
      </trkpt>
      <trkpt lat="49.4247" lon="5.7748">
        <ele>307.20001220703</ele>
        <time>2024-06-09T08:06:45Z</time>
      </trkpt>
      <trkpt lat="49.42471" lon="5.77484">
        <ele>307.39999389648</ele>
        <time>2024-06-09T08:06:46Z</time>
      </trkpt>
      <trkpt lat="49.42474" lon="5.77491">
        <ele>307.39999389648</ele>
        <time>2024-06-09T08:06:48Z</time>
      </trkpt>
      <trkpt lat="49.42477" lon="5.77497">
        <ele>307.39999389648</ele>
        <time>2024-06-09T08:06:50Z</time>
      </trkpt>
      <trkpt lat="49.4248" lon="5.77505">
        <ele>307.60000610352</ele>
        <time>2024-06-09T08:06:52Z</time>
      </trkpt>
      <trkpt lat="49.42481" lon="5.77509">
        <ele>307.60000610352</ele>
        <time>2024-06-09T08:06:53Z</time>
      </trkpt>
      <trkpt lat="49.42482" lon="5.77514">
        <ele>307.60000610352</ele>
        <time>2024-06-09T08:06:54Z</time>
      </trkpt>
      <trkpt lat="49.42485" lon="5.77522">
        <ele>307.79998779297</ele>
        <time>2024-06-09T08:06:56Z</time>
      </trkpt>
      <trkpt lat="49.42488" lon="5.77529">
        <ele>307.79998779297</ele>
        <time>2024-06-09T08:06:58Z</time>
      </trkpt>
      <trkpt lat="49.42491" lon="5.77535">
        <ele>307.79998779297</ele>
        <time>2024-06-09T08:07:00Z</time>
      </trkpt>
      <trkpt lat="49.42494" lon="5.77542">
        <ele>308.20001220703</ele>
        <time>2024-06-09T08:07:02Z</time>
      </trkpt>
      <trkpt lat="49.42496" lon="5.77545">
        <ele>308.39999389648</ele>
        <time>2024-06-09T08:07:03Z</time>
      </trkpt>
      <trkpt lat="49.42497" lon="5.77548">
        <ele>308.60000610352</ele>
        <time>2024-06-09T08:07:04Z</time>
      </trkpt>
      <trkpt lat="49.42497" lon="5.77555">
        <ele>309</ele>
        <time>2024-06-09T08:07:06Z</time>
      </trkpt>
      <trkpt lat="49.42498" lon="5.77558">
        <ele>309.20001220703</ele>
        <time>2024-06-09T08:07:07Z</time>
      </trkpt>
      <trkpt lat="49.42498" lon="5.7756">
        <ele>309.39999389648</ele>
        <time>2024-06-09T08:07:08Z</time>
      </trkpt>
      <trkpt lat="49.42499" lon="5.77562">
        <ele>309.60000610352</ele>
        <time>2024-06-09T08:07:09Z</time>
      </trkpt>
      <trkpt lat="49.425" lon="5.77564">
        <ele>309.60000610352</ele>
        <time>2024-06-09T08:07:10Z</time>
      </trkpt>
      <trkpt lat="49.42505" lon="5.77565">
        <ele>310</ele>
        <time>2024-06-09T08:07:12Z</time>
      </trkpt>
      <trkpt lat="49.42509" lon="5.77564">
        <ele>310</ele>
        <time>2024-06-09T08:07:13Z</time>
      </trkpt>
      <trkpt lat="49.42513" lon="5.77563">
        <ele>310</ele>
        <time>2024-06-09T08:07:14Z</time>
      </trkpt>
      <trkpt lat="49.42525" lon="5.77561">
        <ele>310.20001220703</ele>
        <time>2024-06-09T08:07:16Z</time>
      </trkpt>
      <trkpt lat="49.42539" lon="5.77558">
        <ele>310.20001220703</ele>
        <time>2024-06-09T08:07:18Z</time>
      </trkpt>
      <trkpt lat="49.42551" lon="5.77558">
        <ele>310.20001220703</ele>
        <time>2024-06-09T08:07:20Z</time>
      </trkpt>
      <trkpt lat="49.42555" lon="5.77558">
        <ele>309</ele>
        <time>2024-06-09T08:07:21Z</time>
      </trkpt>
      <trkpt lat="49.42559" lon="5.77559">
        <ele>307</ele>
        <time>2024-06-09T08:07:22Z</time>
      </trkpt>
      <trkpt lat="49.42562" lon="5.77561">
        <ele>304.20001220703</ele>
        <time>2024-06-09T08:07:23Z</time>
      </trkpt>
      <trkpt lat="49.42564" lon="5.77563">
        <ele>301</ele>
        <time>2024-06-09T08:07:24Z</time>
      </trkpt>
      <trkpt lat="49.42565" lon="5.77566">
        <ele>297.60000610352</ele>
        <time>2024-06-09T08:07:25Z</time>
      </trkpt>
      <trkpt lat="49.42567" lon="5.77568">
        <ele>294.79998779297</ele>
        <time>2024-06-09T08:07:26Z</time>
      </trkpt>
      <trkpt lat="49.42568" lon="5.7757">
        <ele>292.39999389648</ele>
        <time>2024-06-09T08:07:27Z</time>
      </trkpt>
      <trkpt lat="49.42568" lon="5.77572">
        <ele>290.39999389648</ele>
        <time>2024-06-09T08:07:28Z</time>
      </trkpt>
      <trkpt lat="49.42569" lon="5.77575">
        <ele>289</ele>
        <time>2024-06-09T08:07:29Z</time>
      </trkpt>
      <trkpt lat="49.42571" lon="5.77578">
        <ele>288.20001220703</ele>
        <time>2024-06-09T08:07:30Z</time>
      </trkpt>
      <trkpt lat="49.42572" lon="5.77581">
        <ele>287.60000610352</ele>
        <time>2024-06-09T08:07:31Z</time>
      </trkpt>
      <trkpt lat="49.42574" lon="5.77584">
        <ele>287.39999389648</ele>
        <time>2024-06-09T08:07:32Z</time>
      </trkpt>
      <trkpt lat="49.42577" lon="5.77588">
        <ele>287.20001220703</ele>
        <time>2024-06-09T08:07:34Z</time>
      </trkpt>
      <trkpt lat="49.42578" lon="5.77593">
        <ele>287.20001220703</ele>
        <time>2024-06-09T08:07:36Z</time>
      </trkpt>
      <trkpt lat="49.4258" lon="5.77598">
        <ele>287.20001220703</ele>
        <time>2024-06-09T08:07:38Z</time>
      </trkpt>
      <trkpt lat="49.42583" lon="5.77604">
        <ele>287.20001220703</ele>
        <time>2024-06-09T08:07:40Z</time>
      </trkpt>
      <trkpt lat="49.42586" lon="5.77609">
        <ele>287.60000610352</ele>
        <time>2024-06-09T08:07:42Z</time>
      </trkpt>
      <trkpt lat="49.42588" lon="5.77616">
        <ele>288</ele>
        <time>2024-06-09T08:07:44Z</time>
      </trkpt>
      <trkpt lat="49.42591" lon="5.77623">
        <ele>288.20001220703</ele>
        <time>2024-06-09T08:07:46Z</time>
      </trkpt>
      <trkpt lat="49.42592" lon="5.77629">
        <ele>288.39999389648</ele>
        <time>2024-06-09T08:07:48Z</time>
      </trkpt>
      <trkpt lat="49.42594" lon="5.77631">
        <ele>288.20001220703</ele>
        <time>2024-06-09T08:07:49Z</time>
      </trkpt>
      <trkpt lat="49.42596" lon="5.77634">
        <ele>288.39999389648</ele>
        <time>2024-06-09T08:07:50Z</time>
      </trkpt>
      <trkpt lat="49.42598" lon="5.77636">
        <ele>288.60000610352</ele>
        <time>2024-06-09T08:07:51Z</time>
      </trkpt>
      <trkpt lat="49.426" lon="5.7764">
        <ele>288.79998779297</ele>
        <time>2024-06-09T08:07:52Z</time>
      </trkpt>
      <trkpt lat="49.42602" lon="5.77645">
        <ele>289.20001220703</ele>
        <time>2024-06-09T08:07:53Z</time>
      </trkpt>
      <trkpt lat="49.42604" lon="5.77649">
        <ele>289.39999389648</ele>
        <time>2024-06-09T08:07:54Z</time>
      </trkpt>
      <trkpt lat="49.42607" lon="5.77653">
        <ele>289.60000610352</ele>
        <time>2024-06-09T08:07:55Z</time>
      </trkpt>
      <trkpt lat="49.42608" lon="5.77656">
        <ele>289.79998779297</ele>
        <time>2024-06-09T08:07:56Z</time>
      </trkpt>
      <trkpt lat="49.42612" lon="5.77661">
        <ele>289.79998779297</ele>
        <time>2024-06-09T08:07:58Z</time>
      </trkpt>
      <trkpt lat="49.42615" lon="5.77667">
        <ele>290</ele>
        <time>2024-06-09T08:08:00Z</time>
      </trkpt>
      <trkpt lat="49.42617" lon="5.77672">
        <ele>290</ele>
        <time>2024-06-09T08:08:02Z</time>
      </trkpt>
      <trkpt lat="49.4262" lon="5.77679">
        <ele>290</ele>
        <time>2024-06-09T08:08:04Z</time>
      </trkpt>
      <trkpt lat="49.42623" lon="5.77685">
        <ele>289.79998779297</ele>
        <time>2024-06-09T08:08:06Z</time>
      </trkpt>
      <trkpt lat="49.42626" lon="5.77691">
        <ele>289.79998779297</ele>
        <time>2024-06-09T08:08:08Z</time>
      </trkpt>
      <trkpt lat="49.42629" lon="5.77699">
        <ele>289.79998779297</ele>
        <time>2024-06-09T08:08:10Z</time>
      </trkpt>
      <trkpt lat="49.42631" lon="5.77703">
        <ele>289.79998779297</ele>
        <time>2024-06-09T08:08:11Z</time>
      </trkpt>
      <trkpt lat="49.42633" lon="5.77708">
        <ele>289.79998779297</ele>
        <time>2024-06-09T08:08:12Z</time>
      </trkpt>
      <trkpt lat="49.42637" lon="5.77718">
        <ele>289.79998779297</ele>
        <time>2024-06-09T08:08:14Z</time>
      </trkpt>
      <trkpt lat="49.42638" lon="5.77722">
        <ele>290</ele>
        <time>2024-06-09T08:08:15Z</time>
      </trkpt>
      <trkpt lat="49.42639" lon="5.77726">
        <ele>290</ele>
        <time>2024-06-09T08:08:16Z</time>
      </trkpt>
      <trkpt lat="49.42642" lon="5.77733">
        <ele>290</ele>
        <time>2024-06-09T08:08:18Z</time>
      </trkpt>
      <trkpt lat="49.42644" lon="5.7774">
        <ele>290.20001220703</ele>
        <time>2024-06-09T08:08:20Z</time>
      </trkpt>
      <trkpt lat="49.42647" lon="5.77747">
        <ele>290.20001220703</ele>
        <time>2024-06-09T08:08:22Z</time>
      </trkpt>
      <trkpt lat="49.42648" lon="5.7775">
        <ele>290.60000610352</ele>
        <time>2024-06-09T08:08:23Z</time>
      </trkpt>
      <trkpt lat="49.4265" lon="5.77753">
        <ele>290.79998779297</ele>
        <time>2024-06-09T08:08:24Z</time>
      </trkpt>
      <trkpt lat="49.42653" lon="5.7776">
        <ele>291.20001220703</ele>
        <time>2024-06-09T08:08:26Z</time>
      </trkpt>
      <trkpt lat="49.42655" lon="5.77762">
        <ele>291.39999389648</ele>
        <time>2024-06-09T08:08:27Z</time>
      </trkpt>
      <trkpt lat="49.42656" lon="5.77765">
        <ele>291.39999389648</ele>
        <time>2024-06-09T08:08:28Z</time>
      </trkpt>
      <trkpt lat="49.4266" lon="5.7777">
        <ele>291.79998779297</ele>
        <time>2024-06-09T08:08:30Z</time>
      </trkpt>
      <trkpt lat="49.42661" lon="5.77779">
        <ele>291.79998779297</ele>
        <time>2024-06-09T08:08:32Z</time>
      </trkpt>
      <trkpt lat="49.42662" lon="5.77783">
        <ele>291.79998779297</ele>
        <time>2024-06-09T08:08:33Z</time>
      </trkpt>
      <trkpt lat="49.42663" lon="5.77786">
        <ele>291.79998779297</ele>
        <time>2024-06-09T08:08:34Z</time>
      </trkpt>
      <trkpt lat="49.42665" lon="5.77793">
        <ele>292</ele>
        <time>2024-06-09T08:08:36Z</time>
      </trkpt>
      <trkpt lat="49.42665" lon="5.77796">
        <ele>292</ele>
        <time>2024-06-09T08:08:37Z</time>
      </trkpt>
      <trkpt lat="49.42666" lon="5.778">
        <ele>292</ele>
        <time>2024-06-09T08:08:38Z</time>
      </trkpt>
      <trkpt lat="49.42667" lon="5.77807">
        <ele>292</ele>
        <time>2024-06-09T08:08:40Z</time>
      </trkpt>
      <trkpt lat="49.42668" lon="5.77813">
        <ele>292</ele>
        <time>2024-06-09T08:08:42Z</time>
      </trkpt>
      <trkpt lat="49.42669" lon="5.77816">
        <ele>292.20001220703</ele>
        <time>2024-06-09T08:08:43Z</time>
      </trkpt>
      <trkpt lat="49.4267" lon="5.77819">
        <ele>292.39999389648</ele>
        <time>2024-06-09T08:08:44Z</time>
      </trkpt>
      <trkpt lat="49.42672" lon="5.77821">
        <ele>292.60000610352</ele>
        <time>2024-06-09T08:08:45Z</time>
      </trkpt>
      <trkpt lat="49.42673" lon="5.77824">
        <ele>292.60000610352</ele>
        <time>2024-06-09T08:08:46Z</time>
      </trkpt>
      <trkpt lat="49.42676" lon="5.7783">
        <ele>292.60000610352</ele>
        <time>2024-06-09T08:08:48Z</time>
      </trkpt>
      <trkpt lat="49.42677" lon="5.77834">
        <ele>292.60000610352</ele>
        <time>2024-06-09T08:08:50Z</time>
      </trkpt>
      <trkpt lat="49.42678" lon="5.77836">
        <ele>292.60000610352</ele>
        <time>2024-06-09T08:08:51Z</time>
      </trkpt>
      <trkpt lat="49.42678" lon="5.77839">
        <ele>292.60000610352</ele>
        <time>2024-06-09T08:08:52Z</time>
      </trkpt>
      <trkpt lat="49.42678" lon="5.77844">
        <ele>292.60000610352</ele>
        <time>2024-06-09T08:08:54Z</time>
      </trkpt>
      <trkpt lat="49.42678" lon="5.77849">
        <ele>292.60000610352</ele>
        <time>2024-06-09T08:08:56Z</time>
      </trkpt>
      <trkpt lat="49.42678" lon="5.77855">
        <ele>292.60000610352</ele>
        <time>2024-06-09T08:08:58Z</time>
      </trkpt>
      <trkpt lat="49.42679" lon="5.77859">
        <ele>292.39999389648</ele>
        <time>2024-06-09T08:09:00Z</time>
      </trkpt>
      <trkpt lat="49.42679" lon="5.77862">
        <ele>292.39999389648</ele>
        <time>2024-06-09T08:09:01Z</time>
      </trkpt>
      <trkpt lat="49.42681" lon="5.77866">
        <ele>292.39999389648</ele>
        <time>2024-06-09T08:09:02Z</time>
      </trkpt>
      <trkpt lat="49.42682" lon="5.77874">
        <ele>292.20001220703</ele>
        <time>2024-06-09T08:09:04Z</time>
      </trkpt>
      <trkpt lat="49.42685" lon="5.77881">
        <ele>291.79998779297</ele>
        <time>2024-06-09T08:09:06Z</time>
      </trkpt>
      <trkpt lat="49.42686" lon="5.77886">
        <ele>291.60000610352</ele>
        <time>2024-06-09T08:09:07Z</time>
      </trkpt>
      <trkpt lat="49.42686" lon="5.77891">
        <ele>291.60000610352</ele>
        <time>2024-06-09T08:09:08Z</time>
      </trkpt>
      <trkpt lat="49.42687" lon="5.77897">
        <ele>291</ele>
        <time>2024-06-09T08:09:10Z</time>
      </trkpt>
      <trkpt lat="49.42688" lon="5.77902">
        <ele>290.39999389648</ele>
        <time>2024-06-09T08:09:11Z</time>
      </trkpt>
      <trkpt lat="49.42689" lon="5.77907">
        <ele>288.79998779297</ele>
        <time>2024-06-09T08:09:12Z</time>
      </trkpt>
      <trkpt lat="49.4269" lon="5.77912">
        <ele>287</ele>
        <time>2024-06-09T08:09:13Z</time>
      </trkpt>
      <trkpt lat="49.4269" lon="5.77916">
        <ele>286</ele>
        <time>2024-06-09T08:09:14Z</time>
      </trkpt>
      <trkpt lat="49.4269" lon="5.77922">
        <ele>285</ele>
        <time>2024-06-09T08:09:15Z</time>
      </trkpt>
      <trkpt lat="49.4269" lon="5.77928">
        <ele>284.20001220703</ele>
        <time>2024-06-09T08:09:16Z</time>
      </trkpt>
      <trkpt lat="49.42688" lon="5.77938">
        <ele>283</ele>
        <time>2024-06-09T08:09:18Z</time>
      </trkpt>
      <trkpt lat="49.42686" lon="5.77942">
        <ele>282</ele>
        <time>2024-06-09T08:09:19Z</time>
      </trkpt>
      <trkpt lat="49.42685" lon="5.77946">
        <ele>280.60000610352</ele>
        <time>2024-06-09T08:09:20Z</time>
      </trkpt>
      <trkpt lat="49.42684" lon="5.7795">
        <ele>279.60000610352</ele>
        <time>2024-06-09T08:09:21Z</time>
      </trkpt>
      <trkpt lat="49.42683" lon="5.77953">
        <ele>278.60000610352</ele>
        <time>2024-06-09T08:09:22Z</time>
      </trkpt>
      <trkpt lat="49.42682" lon="5.77957">
        <ele>277.39999389648</ele>
        <time>2024-06-09T08:09:23Z</time>
      </trkpt>
      <trkpt lat="49.42681" lon="5.77961">
        <ele>276.39999389648</ele>
        <time>2024-06-09T08:09:24Z</time>
      </trkpt>
      <trkpt lat="49.42679" lon="5.7797">
        <ele>275.20001220703</ele>
        <time>2024-06-09T08:09:26Z</time>
      </trkpt>
      <trkpt lat="49.42677" lon="5.77982">
        <ele>275</ele>
        <time>2024-06-09T08:09:28Z</time>
      </trkpt>
      <trkpt lat="49.42675" lon="5.77992">
        <ele>274.79998779297</ele>
        <time>2024-06-09T08:09:30Z</time>
      </trkpt>
      <trkpt lat="49.42673" lon="5.77996">
        <ele>274.79998779297</ele>
        <time>2024-06-09T08:09:31Z</time>
      </trkpt>
      <trkpt lat="49.42671" lon="5.77998">
        <ele>274.79998779297</ele>
        <time>2024-06-09T08:09:32Z</time>
      </trkpt>
      <trkpt lat="49.42669" lon="5.78003">
        <ele>274.79998779297</ele>
        <time>2024-06-09T08:09:34Z</time>
      </trkpt>
      <trkpt lat="49.42669" lon="5.78005">
        <ele>274.79998779297</ele>
        <time>2024-06-09T08:09:35Z</time>
      </trkpt>
      <trkpt lat="49.42668" lon="5.78008">
        <ele>274.79998779297</ele>
        <time>2024-06-09T08:09:36Z</time>
      </trkpt>
      <trkpt lat="49.42667" lon="5.78014">
        <ele>274.79998779297</ele>
        <time>2024-06-09T08:09:38Z</time>
      </trkpt>
      <trkpt lat="49.42667" lon="5.78021">
        <ele>274.79998779297</ele>
        <time>2024-06-09T08:09:40Z</time>
      </trkpt>
      <trkpt lat="49.42666" lon="5.78029">
        <ele>274.79998779297</ele>
        <time>2024-06-09T08:09:42Z</time>
      </trkpt>
      <trkpt lat="49.42664" lon="5.78038">
        <ele>274.79998779297</ele>
        <time>2024-06-09T08:09:44Z</time>
      </trkpt>
      <trkpt lat="49.42662" lon="5.78048">
        <ele>274.79998779297</ele>
        <time>2024-06-09T08:09:46Z</time>
      </trkpt>
      <trkpt lat="49.4266" lon="5.78054">
        <ele>274.79998779297</ele>
        <time>2024-06-09T08:09:47Z</time>
      </trkpt>
      <trkpt lat="49.4266" lon="5.78058">
        <ele>274.79998779297</ele>
        <time>2024-06-09T08:09:48Z</time>
      </trkpt>
      <trkpt lat="49.42659" lon="5.78066">
        <ele>274.79998779297</ele>
        <time>2024-06-09T08:09:50Z</time>
      </trkpt>
      <trkpt lat="49.42658" lon="5.78073">
        <ele>275</ele>
        <time>2024-06-09T08:09:52Z</time>
      </trkpt>
      <trkpt lat="49.42658" lon="5.78082">
        <ele>275</ele>
        <time>2024-06-09T08:09:54Z</time>
      </trkpt>
      <trkpt lat="49.4266" lon="5.7809">
        <ele>275</ele>
        <time>2024-06-09T08:09:56Z</time>
      </trkpt>
      <trkpt lat="49.42661" lon="5.78095">
        <ele>275</ele>
        <time>2024-06-09T08:09:57Z</time>
      </trkpt>
      <trkpt lat="49.42662" lon="5.78099">
        <ele>275.20001220703</ele>
        <time>2024-06-09T08:09:58Z</time>
      </trkpt>
      <trkpt lat="49.42665" lon="5.78107">
        <ele>275.20001220703</ele>
        <time>2024-06-09T08:10:00Z</time>
      </trkpt>
      <trkpt lat="49.42664" lon="5.7812">
        <ele>275.39999389648</ele>
        <time>2024-06-09T08:10:02Z</time>
      </trkpt>
      <trkpt lat="49.42664" lon="5.78126">
        <ele>275.39999389648</ele>
        <time>2024-06-09T08:10:03Z</time>
      </trkpt>
      <trkpt lat="49.42665" lon="5.78131">
        <ele>275.39999389648</ele>
        <time>2024-06-09T08:10:04Z</time>
      </trkpt>
      <trkpt lat="49.42667" lon="5.7814">
        <ele>275.39999389648</ele>
        <time>2024-06-09T08:10:06Z</time>
      </trkpt>
      <trkpt lat="49.42669" lon="5.78149">
        <ele>275.60000610352</ele>
        <time>2024-06-09T08:10:08Z</time>
      </trkpt>
      <trkpt lat="49.42672" lon="5.78157">
        <ele>275.79998779297</ele>
        <time>2024-06-09T08:10:10Z</time>
      </trkpt>
      <trkpt lat="49.42674" lon="5.7816">
        <ele>275.79998779297</ele>
        <time>2024-06-09T08:10:11Z</time>
      </trkpt>
      <trkpt lat="49.42675" lon="5.78163">
        <ele>275.79998779297</ele>
        <time>2024-06-09T08:10:12Z</time>
      </trkpt>
      <trkpt lat="49.42679" lon="5.78168">
        <ele>276</ele>
        <time>2024-06-09T08:10:14Z</time>
      </trkpt>
      <trkpt lat="49.42683" lon="5.78172">
        <ele>276</ele>
        <time>2024-06-09T08:10:16Z</time>
      </trkpt>
      <trkpt lat="49.42687" lon="5.78176">
        <ele>276</ele>
        <time>2024-06-09T08:10:18Z</time>
      </trkpt>
      <trkpt lat="49.42691" lon="5.7818">
        <ele>276</ele>
        <time>2024-06-09T08:10:20Z</time>
      </trkpt>
      <trkpt lat="49.42695" lon="5.78184">
        <ele>276.20001220703</ele>
        <time>2024-06-09T08:10:22Z</time>
      </trkpt>
      <trkpt lat="49.427" lon="5.78187">
        <ele>276.20001220703</ele>
        <time>2024-06-09T08:10:24Z</time>
      </trkpt>
      <trkpt lat="49.42702" lon="5.78189">
        <ele>276.20001220703</ele>
        <time>2024-06-09T08:10:25Z</time>
      </trkpt>
      <trkpt lat="49.42704" lon="5.78191">
        <ele>276.39999389648</ele>
        <time>2024-06-09T08:10:26Z</time>
      </trkpt>
      <trkpt lat="49.42706" lon="5.78195">
        <ele>276.39999389648</ele>
        <time>2024-06-09T08:10:28Z</time>
      </trkpt>
      <trkpt lat="49.4271" lon="5.78198">
        <ele>276.60000610352</ele>
        <time>2024-06-09T08:10:30Z</time>
      </trkpt>
      <trkpt lat="49.42713" lon="5.78201">
        <ele>277</ele>
        <time>2024-06-09T08:10:32Z</time>
      </trkpt>
      <trkpt lat="49.42716" lon="5.78204">
        <ele>277.39999389648</ele>
        <time>2024-06-09T08:10:34Z</time>
      </trkpt>
      <trkpt lat="49.42719" lon="5.78209">
        <ele>277.79998779297</ele>
        <time>2024-06-09T08:10:36Z</time>
      </trkpt>
      <trkpt lat="49.42722" lon="5.78215">
        <ele>278.39999389648</ele>
        <time>2024-06-09T08:10:38Z</time>
      </trkpt>
      <trkpt lat="49.42723" lon="5.78218">
        <ele>278.60000610352</ele>
        <time>2024-06-09T08:10:39Z</time>
      </trkpt>
      <trkpt lat="49.42725" lon="5.7822">
        <ele>278.79998779297</ele>
        <time>2024-06-09T08:10:40Z</time>
      </trkpt>
      <trkpt lat="49.42728" lon="5.78223">
        <ele>279.20001220703</ele>
        <time>2024-06-09T08:10:42Z</time>
      </trkpt>
      <trkpt lat="49.42732" lon="5.78226">
        <ele>279.20001220703</ele>
        <time>2024-06-09T08:10:44Z</time>
      </trkpt>
      <trkpt lat="49.42738" lon="5.78229">
        <ele>279.20001220703</ele>
        <time>2024-06-09T08:10:46Z</time>
      </trkpt>
      <trkpt lat="49.42743" lon="5.78231">
        <ele>279.20001220703</ele>
        <time>2024-06-09T08:10:48Z</time>
      </trkpt>
      <trkpt lat="49.42748" lon="5.78234">
        <ele>279.20001220703</ele>
        <time>2024-06-09T08:10:50Z</time>
      </trkpt>
      <trkpt lat="49.42753" lon="5.78236">
        <ele>279.20001220703</ele>
        <time>2024-06-09T08:10:52Z</time>
      </trkpt>
      <trkpt lat="49.42758" lon="5.7824">
        <ele>279</ele>
        <time>2024-06-09T08:10:54Z</time>
      </trkpt>
      <trkpt lat="49.42764" lon="5.78243">
        <ele>279</ele>
        <time>2024-06-09T08:10:56Z</time>
      </trkpt>
      <trkpt lat="49.42767" lon="5.78246">
        <ele>279</ele>
        <time>2024-06-09T08:10:57Z</time>
      </trkpt>
      <trkpt lat="49.4277" lon="5.78249">
        <ele>279</ele>
        <time>2024-06-09T08:10:58Z</time>
      </trkpt>
      <trkpt lat="49.42775" lon="5.78255">
        <ele>279</ele>
        <time>2024-06-09T08:11:00Z</time>
      </trkpt>
      <trkpt lat="49.4278" lon="5.78262">
        <ele>279</ele>
        <time>2024-06-09T08:11:02Z</time>
      </trkpt>
      <trkpt lat="49.42781" lon="5.78266">
        <ele>279</ele>
        <time>2024-06-09T08:11:03Z</time>
      </trkpt>
      <trkpt lat="49.42782" lon="5.78272">
        <ele>279.20001220703</ele>
        <time>2024-06-09T08:11:04Z</time>
      </trkpt>
      <trkpt lat="49.42781" lon="5.78281">
        <ele>279.20001220703</ele>
        <time>2024-06-09T08:11:06Z</time>
      </trkpt>
      <trkpt lat="49.4278" lon="5.78283">
        <ele>279.39999389648</ele>
        <time>2024-06-09T08:11:07Z</time>
      </trkpt>
      <trkpt lat="49.42779" lon="5.78285">
        <ele>279.39999389648</ele>
        <time>2024-06-09T08:11:08Z</time>
      </trkpt>
      <trkpt lat="49.42777" lon="5.7829">
        <ele>279.39999389648</ele>
        <time>2024-06-09T08:11:10Z</time>
      </trkpt>
      <trkpt lat="49.42775" lon="5.78293">
        <ele>279.60000610352</ele>
        <time>2024-06-09T08:11:12Z</time>
      </trkpt>
      <trkpt lat="49.42774" lon="5.78294">
        <ele>280.20001220703</ele>
        <time>2024-06-09T08:11:13Z</time>
      </trkpt>
      <trkpt lat="49.42772" lon="5.78297">
        <ele>280.60000610352</ele>
        <time>2024-06-09T08:11:14Z</time>
      </trkpt>
      <trkpt lat="49.42771" lon="5.78299">
        <ele>281</ele>
        <time>2024-06-09T08:11:15Z</time>
      </trkpt>
      <trkpt lat="49.4277" lon="5.78301">
        <ele>281.20001220703</ele>
        <time>2024-06-09T08:11:16Z</time>
      </trkpt>
      <trkpt lat="49.42769" lon="5.78305">
        <ele>281.60000610352</ele>
        <time>2024-06-09T08:11:18Z</time>
      </trkpt>
      <trkpt lat="49.42768" lon="5.78307">
        <ele>281.79998779297</ele>
        <time>2024-06-09T08:11:19Z</time>
      </trkpt>
      <trkpt lat="49.42768" lon="5.78309">
        <ele>282</ele>
        <time>2024-06-09T08:11:20Z</time>
      </trkpt>
      <trkpt lat="49.42769" lon="5.78314">
        <ele>282.20001220703</ele>
        <time>2024-06-09T08:11:22Z</time>
      </trkpt>
      <trkpt lat="49.42771" lon="5.78316">
        <ele>282.39999389648</ele>
        <time>2024-06-09T08:11:23Z</time>
      </trkpt>
      <trkpt lat="49.42773" lon="5.78317">
        <ele>282.60000610352</ele>
        <time>2024-06-09T08:11:24Z</time>
      </trkpt>
      <trkpt lat="49.42779" lon="5.78318">
        <ele>283</ele>
        <time>2024-06-09T08:11:26Z</time>
      </trkpt>
      <trkpt lat="49.42782" lon="5.78317">
        <ele>283.60000610352</ele>
        <time>2024-06-09T08:11:27Z</time>
      </trkpt>
      <trkpt lat="49.42786" lon="5.78317">
        <ele>284.20001220703</ele>
        <time>2024-06-09T08:11:28Z</time>
      </trkpt>
      <trkpt lat="49.42796" lon="5.78316">
        <ele>284.39999389648</ele>
        <time>2024-06-09T08:11:30Z</time>
      </trkpt>
      <trkpt lat="49.42801" lon="5.78315">
        <ele>284.39999389648</ele>
        <time>2024-06-09T08:11:31Z</time>
      </trkpt>
      <trkpt lat="49.42807" lon="5.78313">
        <ele>284.39999389648</ele>
        <time>2024-06-09T08:11:32Z</time>
      </trkpt>
      <trkpt lat="49.42819" lon="5.7831">
        <ele>284.39999389648</ele>
        <time>2024-06-09T08:11:34Z</time>
      </trkpt>
      <trkpt lat="49.42833" lon="5.78306">
        <ele>284.39999389648</ele>
        <time>2024-06-09T08:11:36Z</time>
      </trkpt>
      <trkpt lat="49.42845" lon="5.78302">
        <ele>284.20001220703</ele>
        <time>2024-06-09T08:11:38Z</time>
      </trkpt>
      <trkpt lat="49.42853" lon="5.78306">
        <ele>283</ele>
        <time>2024-06-09T08:11:40Z</time>
      </trkpt>
      <trkpt lat="49.4286" lon="5.78317">
        <ele>282</ele>
        <time>2024-06-09T08:11:42Z</time>
      </trkpt>
      <trkpt lat="49.42866" lon="5.78327">
        <ele>280.79998779297</ele>
        <time>2024-06-09T08:11:44Z</time>
      </trkpt>
      <trkpt lat="49.42868" lon="5.7833">
        <ele>280.60000610352</ele>
        <time>2024-06-09T08:11:45Z</time>
      </trkpt>
      <trkpt lat="49.42869" lon="5.78333">
        <ele>280.39999389648</ele>
        <time>2024-06-09T08:11:46Z</time>
      </trkpt>
      <trkpt lat="49.42872" lon="5.78339">
        <ele>280.20001220703</ele>
        <time>2024-06-09T08:11:48Z</time>
      </trkpt>
      <trkpt lat="49.42872" lon="5.78342">
        <ele>280.20001220703</ele>
        <time>2024-06-09T08:11:49Z</time>
      </trkpt>
      <trkpt lat="49.42873" lon="5.78344">
        <ele>280.20001220703</ele>
        <time>2024-06-09T08:11:50Z</time>
      </trkpt>
      <trkpt lat="49.42875" lon="5.78348">
        <ele>280.20001220703</ele>
        <time>2024-06-09T08:11:52Z</time>
      </trkpt>
      <trkpt lat="49.42877" lon="5.7835">
        <ele>280.20001220703</ele>
        <time>2024-06-09T08:11:53Z</time>
      </trkpt>
      <trkpt lat="49.42879" lon="5.78353">
        <ele>280.20001220703</ele>
        <time>2024-06-09T08:11:54Z</time>
      </trkpt>
      <trkpt lat="49.42881" lon="5.78359">
        <ele>281</ele>
        <time>2024-06-09T08:11:56Z</time>
      </trkpt>
      <trkpt lat="49.42885" lon="5.78364">
        <ele>281.60000610352</ele>
        <time>2024-06-09T08:11:58Z</time>
      </trkpt>
      <trkpt lat="49.42889" lon="5.7837">
        <ele>282</ele>
        <time>2024-06-09T08:12:00Z</time>
      </trkpt>
      <trkpt lat="49.42892" lon="5.78377">
        <ele>282.20001220703</ele>
        <time>2024-06-09T08:12:02Z</time>
      </trkpt>
      <trkpt lat="49.42895" lon="5.78384">
        <ele>282.60000610352</ele>
        <time>2024-06-09T08:12:04Z</time>
      </trkpt>
      <trkpt lat="49.42898" lon="5.7839">
        <ele>283</ele>
        <time>2024-06-09T08:12:06Z</time>
      </trkpt>
      <trkpt lat="49.42902" lon="5.78396">
        <ele>283.39999389648</ele>
        <time>2024-06-09T08:12:08Z</time>
      </trkpt>
      <trkpt lat="49.42906" lon="5.78402">
        <ele>283.79998779297</ele>
        <time>2024-06-09T08:12:10Z</time>
      </trkpt>
      <trkpt lat="49.42907" lon="5.78405">
        <ele>284</ele>
        <time>2024-06-09T08:12:11Z</time>
      </trkpt>
      <trkpt lat="49.42908" lon="5.78407">
        <ele>284.20001220703</ele>
        <time>2024-06-09T08:12:12Z</time>
      </trkpt>
      <trkpt lat="49.42911" lon="5.78412">
        <ele>284.79998779297</ele>
        <time>2024-06-09T08:12:14Z</time>
      </trkpt>
      <trkpt lat="49.42913" lon="5.78414">
        <ele>284.79998779297</ele>
        <time>2024-06-09T08:12:15Z</time>
      </trkpt>
      <trkpt lat="49.42915" lon="5.78416">
        <ele>285</ele>
        <time>2024-06-09T08:12:16Z</time>
      </trkpt>
      <trkpt lat="49.42919" lon="5.7842">
        <ele>285.39999389648</ele>
        <time>2024-06-09T08:12:18Z</time>
      </trkpt>
      <trkpt lat="49.42923" lon="5.78423">
        <ele>285.60000610352</ele>
        <time>2024-06-09T08:12:20Z</time>
      </trkpt>
      <trkpt lat="49.42928" lon="5.78427">
        <ele>286</ele>
        <time>2024-06-09T08:12:22Z</time>
      </trkpt>
      <trkpt lat="49.4293" lon="5.7843">
        <ele>286.20001220703</ele>
        <time>2024-06-09T08:12:23Z</time>
      </trkpt>
      <trkpt lat="49.42932" lon="5.78433">
        <ele>286.39999389648</ele>
        <time>2024-06-09T08:12:24Z</time>
      </trkpt>
      <trkpt lat="49.42935" lon="5.78436">
        <ele>286.79998779297</ele>
        <time>2024-06-09T08:12:25Z</time>
      </trkpt>
      <trkpt lat="49.42936" lon="5.78438">
        <ele>286.79998779297</ele>
        <time>2024-06-09T08:12:26Z</time>
      </trkpt>
      <trkpt lat="49.4294" lon="5.78442">
        <ele>287.20001220703</ele>
        <time>2024-06-09T08:12:28Z</time>
      </trkpt>
      <trkpt lat="49.42943" lon="5.78446">
        <ele>287.39999389648</ele>
        <time>2024-06-09T08:12:30Z</time>
      </trkpt>
      <trkpt lat="49.42946" lon="5.78448">
        <ele>287.60000610352</ele>
        <time>2024-06-09T08:12:31Z</time>
      </trkpt>
      <trkpt lat="49.42948" lon="5.7845">
        <ele>287.79998779297</ele>
        <time>2024-06-09T08:12:32Z</time>
      </trkpt>
      <trkpt lat="49.42953" lon="5.78452">
        <ele>288.20001220703</ele>
        <time>2024-06-09T08:12:34Z</time>
      </trkpt>
      <trkpt lat="49.42955" lon="5.78453">
        <ele>288.39999389648</ele>
        <time>2024-06-09T08:12:35Z</time>
      </trkpt>
      <trkpt lat="49.42957" lon="5.78454">
        <ele>288.39999389648</ele>
        <time>2024-06-09T08:12:36Z</time>
      </trkpt>
      <trkpt lat="49.42959" lon="5.78455">
        <ele>288.60000610352</ele>
        <time>2024-06-09T08:12:37Z</time>
      </trkpt>
      <trkpt lat="49.42962" lon="5.78457">
        <ele>288.60000610352</ele>
        <time>2024-06-09T08:12:38Z</time>
      </trkpt>
      <trkpt lat="49.42968" lon="5.78459">
        <ele>289</ele>
        <time>2024-06-09T08:12:40Z</time>
      </trkpt>
      <trkpt lat="49.4297" lon="5.7846">
        <ele>289.20001220703</ele>
        <time>2024-06-09T08:12:41Z</time>
      </trkpt>
      <trkpt lat="49.42972" lon="5.78461">
        <ele>289.39999389648</ele>
        <time>2024-06-09T08:12:42Z</time>
      </trkpt>
      <trkpt lat="49.42977" lon="5.78463">
        <ele>289.60000610352</ele>
        <time>2024-06-09T08:12:44Z</time>
      </trkpt>
      <trkpt lat="49.42983" lon="5.78465">
        <ele>289.79998779297</ele>
        <time>2024-06-09T08:12:46Z</time>
      </trkpt>
      <trkpt lat="49.42989" lon="5.78466">
        <ele>290.20001220703</ele>
        <time>2024-06-09T08:12:48Z</time>
      </trkpt>
      <trkpt lat="49.42992" lon="5.78467">
        <ele>290.39999389648</ele>
        <time>2024-06-09T08:12:49Z</time>
      </trkpt>
      <trkpt lat="49.42994" lon="5.78467">
        <ele>290.60000610352</ele>
        <time>2024-06-09T08:12:50Z</time>
      </trkpt>
      <trkpt lat="49.42999" lon="5.78469">
        <ele>291</ele>
        <time>2024-06-09T08:12:52Z</time>
      </trkpt>
      <trkpt lat="49.43005" lon="5.7847">
        <ele>291.60000610352</ele>
        <time>2024-06-09T08:12:54Z</time>
      </trkpt>
      <trkpt lat="49.43011" lon="5.78472">
        <ele>292</ele>
        <time>2024-06-09T08:12:56Z</time>
      </trkpt>
      <trkpt lat="49.43014" lon="5.78473">
        <ele>292.20001220703</ele>
        <time>2024-06-09T08:12:57Z</time>
      </trkpt>
      <trkpt lat="49.43016" lon="5.78474">
        <ele>292.20001220703</ele>
        <time>2024-06-09T08:12:58Z</time>
      </trkpt>
      <trkpt lat="49.43021" lon="5.78475">
        <ele>292.60000610352</ele>
        <time>2024-06-09T08:13:00Z</time>
      </trkpt>
      <trkpt lat="49.43027" lon="5.78476">
        <ele>293</ele>
        <time>2024-06-09T08:13:02Z</time>
      </trkpt>
      <trkpt lat="49.4303" lon="5.78476">
        <ele>293.20001220703</ele>
        <time>2024-06-09T08:13:03Z</time>
      </trkpt>
      <trkpt lat="49.43033" lon="5.78477">
        <ele>293.20001220703</ele>
        <time>2024-06-09T08:13:04Z</time>
      </trkpt>
      <trkpt lat="49.43038" lon="5.78478">
        <ele>293.39999389648</ele>
        <time>2024-06-09T08:13:06Z</time>
      </trkpt>
      <trkpt lat="49.43041" lon="5.78479">
        <ele>293.60000610352</ele>
        <time>2024-06-09T08:13:07Z</time>
      </trkpt>
      <trkpt lat="49.43043" lon="5.78479">
        <ele>293.79998779297</ele>
        <time>2024-06-09T08:13:08Z</time>
      </trkpt>
      <trkpt lat="49.43047" lon="5.78478">
        <ele>294</ele>
        <time>2024-06-09T08:13:10Z</time>
      </trkpt>
      <trkpt lat="49.43052" lon="5.78478">
        <ele>294.39999389648</ele>
        <time>2024-06-09T08:13:12Z</time>
      </trkpt>
      <trkpt lat="49.43057" lon="5.78478">
        <ele>294.60000610352</ele>
        <time>2024-06-09T08:13:14Z</time>
      </trkpt>
      <trkpt lat="49.43062" lon="5.78479">
        <ele>295</ele>
        <time>2024-06-09T08:13:16Z</time>
      </trkpt>
      <trkpt lat="49.43067" lon="5.7848">
        <ele>295.20001220703</ele>
        <time>2024-06-09T08:13:18Z</time>
      </trkpt>
      <trkpt lat="49.43071" lon="5.78479">
        <ele>295.39999389648</ele>
        <time>2024-06-09T08:13:20Z</time>
      </trkpt>
      <trkpt lat="49.43074" lon="5.78479">
        <ele>295.60000610352</ele>
        <time>2024-06-09T08:13:21Z</time>
      </trkpt>
      <trkpt lat="49.43076" lon="5.78479">
        <ele>295.79998779297</ele>
        <time>2024-06-09T08:13:22Z</time>
      </trkpt>
      <trkpt lat="49.43079" lon="5.78479">
        <ele>296</ele>
        <time>2024-06-09T08:13:23Z</time>
      </trkpt>
      <trkpt lat="49.43081" lon="5.78478">
        <ele>296.20001220703</ele>
        <time>2024-06-09T08:13:24Z</time>
      </trkpt>
      <trkpt lat="49.43086" lon="5.78475">
        <ele>296.39999389648</ele>
        <time>2024-06-09T08:13:26Z</time>
      </trkpt>
      <trkpt lat="49.4309" lon="5.78474">
        <ele>296.79998779297</ele>
        <time>2024-06-09T08:13:28Z</time>
      </trkpt>
      <trkpt lat="49.43095" lon="5.78472">
        <ele>297</ele>
        <time>2024-06-09T08:13:30Z</time>
      </trkpt>
      <trkpt lat="49.43101" lon="5.78471">
        <ele>297.39999389648</ele>
        <time>2024-06-09T08:13:32Z</time>
      </trkpt>
      <trkpt lat="49.43106" lon="5.78468">
        <ele>297.60000610352</ele>
        <time>2024-06-09T08:13:34Z</time>
      </trkpt>
      <trkpt lat="49.43111" lon="5.78466">
        <ele>297.79998779297</ele>
        <time>2024-06-09T08:13:36Z</time>
      </trkpt>
      <trkpt lat="49.43115" lon="5.78466">
        <ele>298.20001220703</ele>
        <time>2024-06-09T08:13:38Z</time>
      </trkpt>
      <trkpt lat="49.4312" lon="5.78465">
        <ele>298.39999389648</ele>
        <time>2024-06-09T08:13:40Z</time>
      </trkpt>
      <trkpt lat="49.43122" lon="5.78463">
        <ele>298.79998779297</ele>
        <time>2024-06-09T08:13:42Z</time>
      </trkpt>
      <trkpt lat="49.43124" lon="5.78462">
        <ele>299</ele>
        <time>2024-06-09T08:13:43Z</time>
      </trkpt>
      <trkpt lat="49.43126" lon="5.78461">
        <ele>299</ele>
        <time>2024-06-09T08:13:44Z</time>
      </trkpt>
      <trkpt lat="49.43128" lon="5.78461">
        <ele>299.20001220703</ele>
        <time>2024-06-09T08:13:45Z</time>
      </trkpt>
      <trkpt lat="49.43129" lon="5.78459">
        <ele>299.39999389648</ele>
        <time>2024-06-09T08:13:46Z</time>
      </trkpt>
      <trkpt lat="49.43133" lon="5.78458">
        <ele>299.60000610352</ele>
        <time>2024-06-09T08:13:48Z</time>
      </trkpt>
      <trkpt lat="49.43137" lon="5.78455">
        <ele>300</ele>
        <time>2024-06-09T08:13:50Z</time>
      </trkpt>
      <trkpt lat="49.43139" lon="5.78454">
        <ele>300.39999389648</ele>
        <time>2024-06-09T08:13:51Z</time>
      </trkpt>
      <trkpt lat="49.43141" lon="5.78454">
        <ele>300.39999389648</ele>
        <time>2024-06-09T08:13:52Z</time>
      </trkpt>
      <trkpt lat="49.43146" lon="5.78453">
        <ele>300.79998779297</ele>
        <time>2024-06-09T08:13:54Z</time>
      </trkpt>
      <trkpt lat="49.4315" lon="5.78451">
        <ele>301</ele>
        <time>2024-06-09T08:13:56Z</time>
      </trkpt>
      <trkpt lat="49.43152" lon="5.7845">
        <ele>301.20001220703</ele>
        <time>2024-06-09T08:13:57Z</time>
      </trkpt>
      <trkpt lat="49.43155" lon="5.78451">
        <ele>301.20001220703</ele>
        <time>2024-06-09T08:13:58Z</time>
      </trkpt>
      <trkpt lat="49.43157" lon="5.7845">
        <ele>301.39999389648</ele>
        <time>2024-06-09T08:13:59Z</time>
      </trkpt>
      <trkpt lat="49.43159" lon="5.7845">
        <ele>301.60000610352</ele>
        <time>2024-06-09T08:14:00Z</time>
      </trkpt>
      <trkpt lat="49.43163" lon="5.78449">
        <ele>301.79998779297</ele>
        <time>2024-06-09T08:14:02Z</time>
      </trkpt>
      <trkpt lat="49.43168" lon="5.78449">
        <ele>302</ele>
        <time>2024-06-09T08:14:04Z</time>
      </trkpt>
      <trkpt lat="49.43172" lon="5.78448">
        <ele>302.39999389648</ele>
        <time>2024-06-09T08:14:06Z</time>
      </trkpt>
      <trkpt lat="49.43177" lon="5.78448">
        <ele>302.60000610352</ele>
        <time>2024-06-09T08:14:08Z</time>
      </trkpt>
      <trkpt lat="49.43182" lon="5.78447">
        <ele>302.79998779297</ele>
        <time>2024-06-09T08:14:10Z</time>
      </trkpt>
      <trkpt lat="49.43186" lon="5.78446">
        <ele>303</ele>
        <time>2024-06-09T08:14:12Z</time>
      </trkpt>
      <trkpt lat="49.43189" lon="5.78445">
        <ele>303.20001220703</ele>
        <time>2024-06-09T08:14:14Z</time>
      </trkpt>
      <trkpt lat="49.43191" lon="5.78444">
        <ele>303.39999389648</ele>
        <time>2024-06-09T08:14:15Z</time>
      </trkpt>
      <trkpt lat="49.43193" lon="5.78445">
        <ele>303.79998779297</ele>
        <time>2024-06-09T08:14:16Z</time>
      </trkpt>
      <trkpt lat="49.43197" lon="5.78445">
        <ele>304</ele>
        <time>2024-06-09T08:14:18Z</time>
      </trkpt>
      <trkpt lat="49.43201" lon="5.78446">
        <ele>304.60000610352</ele>
        <time>2024-06-09T08:14:20Z</time>
      </trkpt>
      <trkpt lat="49.43202" lon="5.78446">
        <ele>304.60000610352</ele>
        <time>2024-06-09T08:14:21Z</time>
      </trkpt>
      <trkpt lat="49.43204" lon="5.78447">
        <ele>304.79998779297</ele>
        <time>2024-06-09T08:14:22Z</time>
      </trkpt>
      <trkpt lat="49.43207" lon="5.78449">
        <ele>305.20001220703</ele>
        <time>2024-06-09T08:14:24Z</time>
      </trkpt>
      <trkpt lat="49.4321" lon="5.7845">
        <ele>305.39999389648</ele>
        <time>2024-06-09T08:14:26Z</time>
      </trkpt>
      <trkpt lat="49.43213" lon="5.78451">
        <ele>305.60000610352</ele>
        <time>2024-06-09T08:14:28Z</time>
      </trkpt>
      <trkpt lat="49.43216" lon="5.78453">
        <ele>306</ele>
        <time>2024-06-09T08:14:30Z</time>
      </trkpt>
      <trkpt lat="49.4322" lon="5.78455">
        <ele>306.39999389648</ele>
        <time>2024-06-09T08:14:32Z</time>
      </trkpt>
      <trkpt lat="49.43224" lon="5.78457">
        <ele>306.60000610352</ele>
        <time>2024-06-09T08:14:34Z</time>
      </trkpt>
      <trkpt lat="49.43226" lon="5.78458">
        <ele>306.79998779297</ele>
        <time>2024-06-09T08:14:35Z</time>
      </trkpt>
      <trkpt lat="49.43228" lon="5.78459">
        <ele>306.79998779297</ele>
        <time>2024-06-09T08:14:36Z</time>
      </trkpt>
      <trkpt lat="49.43232" lon="5.7846">
        <ele>307.20001220703</ele>
        <time>2024-06-09T08:14:38Z</time>
      </trkpt>
      <trkpt lat="49.43237" lon="5.78462">
        <ele>307.60000610352</ele>
        <time>2024-06-09T08:14:40Z</time>
      </trkpt>
      <trkpt lat="49.4324" lon="5.78463">
        <ele>307.79998779297</ele>
        <time>2024-06-09T08:14:42Z</time>
      </trkpt>
      <trkpt lat="49.43243" lon="5.78464">
        <ele>308</ele>
        <time>2024-06-09T08:14:44Z</time>
      </trkpt>
      <trkpt lat="49.43245" lon="5.78465">
        <ele>308.20001220703</ele>
        <time>2024-06-09T08:14:45Z</time>
      </trkpt>
      <trkpt lat="49.43246" lon="5.78464">
        <ele>308.20001220703</ele>
        <time>2024-06-09T08:14:46Z</time>
      </trkpt>
      <trkpt lat="49.43249" lon="5.78466">
        <ele>308.60000610352</ele>
        <time>2024-06-09T08:14:48Z</time>
      </trkpt>
      <trkpt lat="49.43253" lon="5.78468">
        <ele>308.79998779297</ele>
        <time>2024-06-09T08:14:50Z</time>
      </trkpt>
      <trkpt lat="49.43256" lon="5.7847">
        <ele>309</ele>
        <time>2024-06-09T08:14:52Z</time>
      </trkpt>
      <trkpt lat="49.43259" lon="5.78474">
        <ele>309.39999389648</ele>
        <time>2024-06-09T08:14:54Z</time>
      </trkpt>
      <trkpt lat="49.43262" lon="5.78478">
        <ele>309.39999389648</ele>
        <time>2024-06-09T08:14:56Z</time>
      </trkpt>
      <trkpt lat="49.43263" lon="5.7848">
        <ele>309.60000610352</ele>
        <time>2024-06-09T08:14:57Z</time>
      </trkpt>
      <trkpt lat="49.43265" lon="5.78482">
        <ele>309.60000610352</ele>
        <time>2024-06-09T08:14:58Z</time>
      </trkpt>
      <trkpt lat="49.43266" lon="5.78483">
        <ele>309.79998779297</ele>
        <time>2024-06-09T08:14:59Z</time>
      </trkpt>
      <trkpt lat="49.43269" lon="5.78484">
        <ele>309.79998779297</ele>
        <time>2024-06-09T08:15:00Z</time>
      </trkpt>
      <trkpt lat="49.43271" lon="5.7849">
        <ele>310.39999389648</ele>
        <time>2024-06-09T08:15:02Z</time>
      </trkpt>
      <trkpt lat="49.43274" lon="5.78494">
        <ele>310.60000610352</ele>
        <time>2024-06-09T08:15:04Z</time>
      </trkpt>
      <trkpt lat="49.43277" lon="5.78498">
        <ele>311</ele>
        <time>2024-06-09T08:15:06Z</time>
      </trkpt>
      <trkpt lat="49.43278" lon="5.785">
        <ele>311</ele>
        <time>2024-06-09T08:15:07Z</time>
      </trkpt>
      <trkpt lat="49.43279" lon="5.78502">
        <ele>311</ele>
        <time>2024-06-09T08:15:08Z</time>
      </trkpt>
      <trkpt lat="49.43282" lon="5.78505">
        <ele>311.20001220703</ele>
        <time>2024-06-09T08:15:10Z</time>
      </trkpt>
      <trkpt lat="49.43283" lon="5.78507">
        <ele>311.39999389648</ele>
        <time>2024-06-09T08:15:11Z</time>
      </trkpt>
      <trkpt lat="49.43284" lon="5.78509">
        <ele>311.60000610352</ele>
        <time>2024-06-09T08:15:12Z</time>
      </trkpt>
      <trkpt lat="49.43285" lon="5.78513">
        <ele>312.39999389648</ele>
        <time>2024-06-09T08:15:14Z</time>
      </trkpt>
      <trkpt lat="49.43286" lon="5.78517">
        <ele>313.20001220703</ele>
        <time>2024-06-09T08:15:16Z</time>
      </trkpt>
      <trkpt lat="49.43287" lon="5.78519">
        <ele>313.60000610352</ele>
        <time>2024-06-09T08:15:17Z</time>
      </trkpt>
      <trkpt lat="49.43288" lon="5.78522">
        <ele>313.79998779297</ele>
        <time>2024-06-09T08:15:18Z</time>
      </trkpt>
      <trkpt lat="49.43289" lon="5.78526">
        <ele>314.20001220703</ele>
        <time>2024-06-09T08:15:20Z</time>
      </trkpt>
      <trkpt lat="49.43292" lon="5.78531">
        <ele>314.79998779297</ele>
        <time>2024-06-09T08:15:22Z</time>
      </trkpt>
      <trkpt lat="49.43294" lon="5.78534">
        <ele>315</ele>
        <time>2024-06-09T08:15:23Z</time>
      </trkpt>
      <trkpt lat="49.43295" lon="5.78537">
        <ele>315.20001220703</ele>
        <time>2024-06-09T08:15:24Z</time>
      </trkpt>
      <trkpt lat="49.43298" lon="5.78541">
        <ele>315.60000610352</ele>
        <time>2024-06-09T08:15:26Z</time>
      </trkpt>
      <trkpt lat="49.433" lon="5.78544">
        <ele>315.79998779297</ele>
        <time>2024-06-09T08:15:27Z</time>
      </trkpt>
      <trkpt lat="49.43302" lon="5.78548">
        <ele>316</ele>
        <time>2024-06-09T08:15:28Z</time>
      </trkpt>
      <trkpt lat="49.43303" lon="5.78551">
        <ele>316.20001220703</ele>
        <time>2024-06-09T08:15:29Z</time>
      </trkpt>
      <trkpt lat="49.43306" lon="5.78553">
        <ele>316.20001220703</ele>
        <time>2024-06-09T08:15:30Z</time>
      </trkpt>
      <trkpt lat="49.4331" lon="5.78561">
        <ele>316.39999389648</ele>
        <time>2024-06-09T08:15:32Z</time>
      </trkpt>
      <trkpt lat="49.43314" lon="5.78567">
        <ele>316.39999389648</ele>
        <time>2024-06-09T08:15:34Z</time>
      </trkpt>
      <trkpt lat="49.43317" lon="5.78574">
        <ele>316.39999389648</ele>
        <time>2024-06-09T08:15:36Z</time>
      </trkpt>
      <trkpt lat="49.4332" lon="5.78578">
        <ele>316.60000610352</ele>
        <time>2024-06-09T08:15:38Z</time>
      </trkpt>
      <trkpt lat="49.43323" lon="5.78583">
        <ele>316.60000610352</ele>
        <time>2024-06-09T08:15:40Z</time>
      </trkpt>
      <trkpt lat="49.43325" lon="5.78588">
        <ele>316.60000610352</ele>
        <time>2024-06-09T08:15:42Z</time>
      </trkpt>
      <trkpt lat="49.43326" lon="5.7859">
        <ele>316.60000610352</ele>
        <time>2024-06-09T08:15:43Z</time>
      </trkpt>
      <trkpt lat="49.43327" lon="5.78594">
        <ele>316.79998779297</ele>
        <time>2024-06-09T08:15:44Z</time>
      </trkpt>
      <trkpt lat="49.4333" lon="5.78599">
        <ele>316.79998779297</ele>
        <time>2024-06-09T08:15:46Z</time>
      </trkpt>
      <trkpt lat="49.43331" lon="5.78601">
        <ele>316.79998779297</ele>
        <time>2024-06-09T08:15:47Z</time>
      </trkpt>
      <trkpt lat="49.43332" lon="5.78603">
        <ele>317</ele>
        <time>2024-06-09T08:15:48Z</time>
      </trkpt>
      <trkpt lat="49.43335" lon="5.78609">
        <ele>317</ele>
        <time>2024-06-09T08:15:50Z</time>
      </trkpt>
      <trkpt lat="49.43337" lon="5.78612">
        <ele>317.20001220703</ele>
        <time>2024-06-09T08:15:51Z</time>
      </trkpt>
      <trkpt lat="49.43337" lon="5.78615">
        <ele>317.20001220703</ele>
        <time>2024-06-09T08:15:52Z</time>
      </trkpt>
      <trkpt lat="49.43337" lon="5.78618">
        <ele>317.39999389648</ele>
        <time>2024-06-09T08:15:53Z</time>
      </trkpt>
      <trkpt lat="49.43339" lon="5.7862">
        <ele>317.60000610352</ele>
        <time>2024-06-09T08:15:54Z</time>
      </trkpt>
      <trkpt lat="49.43343" lon="5.78624">
        <ele>318</ele>
        <time>2024-06-09T08:15:56Z</time>
      </trkpt>
      <trkpt lat="49.43346" lon="5.78627">
        <ele>318.39999389648</ele>
        <time>2024-06-09T08:15:58Z</time>
      </trkpt>
      <trkpt lat="49.43351" lon="5.78634">
        <ele>319.20001220703</ele>
        <time>2024-06-09T08:16:00Z</time>
      </trkpt>
      <trkpt lat="49.43357" lon="5.78639">
        <ele>319.60000610352</ele>
        <time>2024-06-09T08:16:02Z</time>
      </trkpt>
      <trkpt lat="49.43362" lon="5.78644">
        <ele>319.79998779297</ele>
        <time>2024-06-09T08:16:04Z</time>
      </trkpt>
      <trkpt lat="49.43367" lon="5.7865">
        <ele>320</ele>
        <time>2024-06-09T08:16:06Z</time>
      </trkpt>
      <trkpt lat="49.43369" lon="5.78652">
        <ele>320.20001220703</ele>
        <time>2024-06-09T08:16:07Z</time>
      </trkpt>
      <trkpt lat="49.4337" lon="5.78654">
        <ele>320.20001220703</ele>
        <time>2024-06-09T08:16:08Z</time>
      </trkpt>
      <trkpt lat="49.43372" lon="5.78658">
        <ele>320.20001220703</ele>
        <time>2024-06-09T08:16:09Z</time>
      </trkpt>
      <trkpt lat="49.43373" lon="5.78661">
        <ele>320.39999389648</ele>
        <time>2024-06-09T08:16:10Z</time>
      </trkpt>
      <trkpt lat="49.43377" lon="5.78666">
        <ele>320.79998779297</ele>
        <time>2024-06-09T08:16:12Z</time>
      </trkpt>
      <trkpt lat="49.43381" lon="5.78671">
        <ele>321.20001220703</ele>
        <time>2024-06-09T08:16:14Z</time>
      </trkpt>
      <trkpt lat="49.43386" lon="5.78676">
        <ele>321.39999389648</ele>
        <time>2024-06-09T08:16:16Z</time>
      </trkpt>
      <trkpt lat="49.43392" lon="5.78682">
        <ele>321.79998779297</ele>
        <time>2024-06-09T08:16:18Z</time>
      </trkpt>
      <trkpt lat="49.43399" lon="5.78686">
        <ele>321.79998779297</ele>
        <time>2024-06-09T08:16:20Z</time>
      </trkpt>
      <trkpt lat="49.43406" lon="5.78695">
        <ele>321.79998779297</ele>
        <time>2024-06-09T08:16:22Z</time>
      </trkpt>
      <trkpt lat="49.43413" lon="5.787">
        <ele>321.79998779297</ele>
        <time>2024-06-09T08:16:24Z</time>
      </trkpt>
      <trkpt lat="49.4342" lon="5.78706">
        <ele>321.79998779297</ele>
        <time>2024-06-09T08:16:26Z</time>
      </trkpt>
      <trkpt lat="49.43426" lon="5.78711">
        <ele>321.39999389648</ele>
        <time>2024-06-09T08:16:28Z</time>
      </trkpt>
      <trkpt lat="49.43434" lon="5.78716">
        <ele>321</ele>
        <time>2024-06-09T08:16:30Z</time>
      </trkpt>
      <trkpt lat="49.4344" lon="5.78722">
        <ele>321</ele>
        <time>2024-06-09T08:16:32Z</time>
      </trkpt>
      <trkpt lat="49.43445" lon="5.78727">
        <ele>320.79998779297</ele>
        <time>2024-06-09T08:16:34Z</time>
      </trkpt>
      <trkpt lat="49.43447" lon="5.7873">
        <ele>320.79998779297</ele>
        <time>2024-06-09T08:16:35Z</time>
      </trkpt>
      <trkpt lat="49.4345" lon="5.78734">
        <ele>320.79998779297</ele>
        <time>2024-06-09T08:16:36Z</time>
      </trkpt>
      <trkpt lat="49.43455" lon="5.78741">
        <ele>320.79998779297</ele>
        <time>2024-06-09T08:16:38Z</time>
      </trkpt>
      <trkpt lat="49.43461" lon="5.78747">
        <ele>321</ele>
        <time>2024-06-09T08:16:40Z</time>
      </trkpt>
      <trkpt lat="49.43463" lon="5.78749">
        <ele>321</ele>
        <time>2024-06-09T08:16:41Z</time>
      </trkpt>
      <trkpt lat="49.43466" lon="5.78752">
        <ele>321</ele>
        <time>2024-06-09T08:16:42Z</time>
      </trkpt>
      <trkpt lat="49.4347" lon="5.78757">
        <ele>321</ele>
        <time>2024-06-09T08:16:44Z</time>
      </trkpt>
      <trkpt lat="49.43474" lon="5.78764">
        <ele>321.39999389648</ele>
        <time>2024-06-09T08:16:46Z</time>
      </trkpt>
      <trkpt lat="49.43476" lon="5.78767">
        <ele>321.79998779297</ele>
        <time>2024-06-09T08:16:47Z</time>
      </trkpt>
      <trkpt lat="49.43478" lon="5.78769">
        <ele>322.20001220703</ele>
        <time>2024-06-09T08:16:48Z</time>
      </trkpt>
      <trkpt lat="49.4348" lon="5.78773">
        <ele>322.60000610352</ele>
        <time>2024-06-09T08:16:49Z</time>
      </trkpt>
      <trkpt lat="49.43482" lon="5.78777">
        <ele>322.60000610352</ele>
        <time>2024-06-09T08:16:50Z</time>
      </trkpt>
      <trkpt lat="49.43485" lon="5.78783">
        <ele>322.79998779297</ele>
        <time>2024-06-09T08:16:52Z</time>
      </trkpt>
      <trkpt lat="49.43487" lon="5.78787">
        <ele>323</ele>
        <time>2024-06-09T08:16:53Z</time>
      </trkpt>
      <trkpt lat="49.43489" lon="5.78791">
        <ele>323</ele>
        <time>2024-06-09T08:16:54Z</time>
      </trkpt>
      <trkpt lat="49.43492" lon="5.78798">
        <ele>323</ele>
        <time>2024-06-09T08:16:56Z</time>
      </trkpt>
      <trkpt lat="49.43495" lon="5.78806">
        <ele>323</ele>
        <time>2024-06-09T08:16:58Z</time>
      </trkpt>
      <trkpt lat="49.43496" lon="5.7881">
        <ele>323</ele>
        <time>2024-06-09T08:16:59Z</time>
      </trkpt>
      <trkpt lat="49.43497" lon="5.78813">
        <ele>323.20001220703</ele>
        <time>2024-06-09T08:17:00Z</time>
      </trkpt>
      <trkpt lat="49.43501" lon="5.7882">
        <ele>323.39999389648</ele>
        <time>2024-06-09T08:17:02Z</time>
      </trkpt>
      <trkpt lat="49.43503" lon="5.78824">
        <ele>323.60000610352</ele>
        <time>2024-06-09T08:17:03Z</time>
      </trkpt>
      <trkpt lat="49.43505" lon="5.78827">
        <ele>323.79998779297</ele>
        <time>2024-06-09T08:17:04Z</time>
      </trkpt>
      <trkpt lat="49.43507" lon="5.78831">
        <ele>324</ele>
        <time>2024-06-09T08:17:05Z</time>
      </trkpt>
      <trkpt lat="49.43509" lon="5.78834">
        <ele>324.20001220703</ele>
        <time>2024-06-09T08:17:06Z</time>
      </trkpt>
      <trkpt lat="49.43512" lon="5.7884">
        <ele>324.60000610352</ele>
        <time>2024-06-09T08:17:08Z</time>
      </trkpt>
      <trkpt lat="49.43515" lon="5.78847">
        <ele>325</ele>
        <time>2024-06-09T08:17:10Z</time>
      </trkpt>
      <trkpt lat="49.43516" lon="5.7885">
        <ele>325.20001220703</ele>
        <time>2024-06-09T08:17:11Z</time>
      </trkpt>
      <trkpt lat="49.43517" lon="5.78854">
        <ele>325.39999389648</ele>
        <time>2024-06-09T08:17:12Z</time>
      </trkpt>
      <trkpt lat="49.4352" lon="5.78861">
        <ele>325.60000610352</ele>
        <time>2024-06-09T08:17:14Z</time>
      </trkpt>
      <trkpt lat="49.43522" lon="5.78863">
        <ele>325.79998779297</ele>
        <time>2024-06-09T08:17:15Z</time>
      </trkpt>
      <trkpt lat="49.43523" lon="5.78866">
        <ele>326</ele>
        <time>2024-06-09T08:17:16Z</time>
      </trkpt>
      <trkpt lat="49.43524" lon="5.78869">
        <ele>326.20001220703</ele>
        <time>2024-06-09T08:17:17Z</time>
      </trkpt>
      <trkpt lat="49.43525" lon="5.78872">
        <ele>326.39999389648</ele>
        <time>2024-06-09T08:17:18Z</time>
      </trkpt>
      <trkpt lat="49.43527" lon="5.78878">
        <ele>327</ele>
        <time>2024-06-09T08:17:20Z</time>
      </trkpt>
      <trkpt lat="49.43529" lon="5.78883">
        <ele>327.39999389648</ele>
        <time>2024-06-09T08:17:22Z</time>
      </trkpt>
      <trkpt lat="49.43531" lon="5.78889">
        <ele>327.60000610352</ele>
        <time>2024-06-09T08:17:24Z</time>
      </trkpt>
      <trkpt lat="49.43533" lon="5.78895">
        <ele>328</ele>
        <time>2024-06-09T08:17:26Z</time>
      </trkpt>
      <trkpt lat="49.43534" lon="5.78898">
        <ele>328.39999389648</ele>
        <time>2024-06-09T08:17:27Z</time>
      </trkpt>
      <trkpt lat="49.43535" lon="5.789">
        <ele>328.79998779297</ele>
        <time>2024-06-09T08:17:28Z</time>
      </trkpt>
      <trkpt lat="49.43536" lon="5.78902">
        <ele>329.20001220703</ele>
        <time>2024-06-09T08:17:29Z</time>
      </trkpt>
      <trkpt lat="49.43537" lon="5.78905">
        <ele>329.39999389648</ele>
        <time>2024-06-09T08:17:30Z</time>
      </trkpt>
      <trkpt lat="49.43539" lon="5.7891">
        <ele>330.39999389648</ele>
        <time>2024-06-09T08:17:32Z</time>
      </trkpt>
      <trkpt lat="49.4354" lon="5.78914">
        <ele>330.60000610352</ele>
        <time>2024-06-09T08:17:34Z</time>
      </trkpt>
      <trkpt lat="49.43541" lon="5.78916">
        <ele>330.79998779297</ele>
        <time>2024-06-09T08:17:35Z</time>
      </trkpt>
      <trkpt lat="49.43543" lon="5.78918">
        <ele>331</ele>
        <time>2024-06-09T08:17:36Z</time>
      </trkpt>
      <trkpt lat="49.43545" lon="5.78925">
        <ele>331.20001220703</ele>
        <time>2024-06-09T08:17:38Z</time>
      </trkpt>
      <trkpt lat="49.43547" lon="5.78927">
        <ele>331.39999389648</ele>
        <time>2024-06-09T08:17:39Z</time>
      </trkpt>
      <trkpt lat="49.43548" lon="5.7893">
        <ele>331.60000610352</ele>
        <time>2024-06-09T08:17:40Z</time>
      </trkpt>
      <trkpt lat="49.4355" lon="5.78936">
        <ele>331.60000610352</ele>
        <time>2024-06-09T08:17:42Z</time>
      </trkpt>
      <trkpt lat="49.43554" lon="5.78941">
        <ele>331.79998779297</ele>
        <time>2024-06-09T08:17:44Z</time>
      </trkpt>
      <trkpt lat="49.43557" lon="5.78946">
        <ele>331.79998779297</ele>
        <time>2024-06-09T08:17:46Z</time>
      </trkpt>
      <trkpt lat="49.43561" lon="5.78951">
        <ele>331.79998779297</ele>
        <time>2024-06-09T08:17:48Z</time>
      </trkpt>
      <trkpt lat="49.43563" lon="5.78954">
        <ele>331.79998779297</ele>
        <time>2024-06-09T08:17:49Z</time>
      </trkpt>
      <trkpt lat="49.43566" lon="5.78957">
        <ele>331.79998779297</ele>
        <time>2024-06-09T08:17:50Z</time>
      </trkpt>
      <trkpt lat="49.43571" lon="5.78963">
        <ele>331.60000610352</ele>
        <time>2024-06-09T08:17:52Z</time>
      </trkpt>
      <trkpt lat="49.43577" lon="5.7897">
        <ele>331.39999389648</ele>
        <time>2024-06-09T08:17:54Z</time>
      </trkpt>
      <trkpt lat="49.4358" lon="5.78972">
        <ele>331.20001220703</ele>
        <time>2024-06-09T08:17:55Z</time>
      </trkpt>
      <trkpt lat="49.43582" lon="5.78975">
        <ele>331.20001220703</ele>
        <time>2024-06-09T08:17:56Z</time>
      </trkpt>
      <trkpt lat="49.43586" lon="5.78982">
        <ele>331.20001220703</ele>
        <time>2024-06-09T08:17:58Z</time>
      </trkpt>
      <trkpt lat="49.43591" lon="5.78993">
        <ele>331</ele>
        <time>2024-06-09T08:18:00Z</time>
      </trkpt>
      <trkpt lat="49.43592" lon="5.78997">
        <ele>331</ele>
        <time>2024-06-09T08:18:01Z</time>
      </trkpt>
      <trkpt lat="49.43593" lon="5.78999">
        <ele>331</ele>
        <time>2024-06-09T08:18:02Z</time>
      </trkpt>
      <trkpt lat="49.43599" lon="5.79005">
        <ele>331</ele>
        <time>2024-06-09T08:18:04Z</time>
      </trkpt>
      <trkpt lat="49.43601" lon="5.79009">
        <ele>331.20001220703</ele>
        <time>2024-06-09T08:18:05Z</time>
      </trkpt>
      <trkpt lat="49.43603" lon="5.79011">
        <ele>331.39999389648</ele>
        <time>2024-06-09T08:18:06Z</time>
      </trkpt>
      <trkpt lat="49.43607" lon="5.79014">
        <ele>331.79998779297</ele>
        <time>2024-06-09T08:18:08Z</time>
      </trkpt>
      <trkpt lat="49.43611" lon="5.79018">
        <ele>332</ele>
        <time>2024-06-09T08:18:10Z</time>
      </trkpt>
      <trkpt lat="49.43613" lon="5.79021">
        <ele>332</ele>
        <time>2024-06-09T08:18:11Z</time>
      </trkpt>
      <trkpt lat="49.43616" lon="5.79024">
        <ele>332.20001220703</ele>
        <time>2024-06-09T08:18:12Z</time>
      </trkpt>
      <trkpt lat="49.43618" lon="5.79027">
        <ele>332.20001220703</ele>
        <time>2024-06-09T08:18:13Z</time>
      </trkpt>
      <trkpt lat="49.4362" lon="5.7903">
        <ele>332.20001220703</ele>
        <time>2024-06-09T08:18:14Z</time>
      </trkpt>
      <trkpt lat="49.43627" lon="5.79035">
        <ele>332.39999389648</ele>
        <time>2024-06-09T08:18:16Z</time>
      </trkpt>
      <trkpt lat="49.43631" lon="5.79038">
        <ele>332.39999389648</ele>
        <time>2024-06-09T08:18:17Z</time>
      </trkpt>
      <trkpt lat="49.43635" lon="5.79041">
        <ele>332.39999389648</ele>
        <time>2024-06-09T08:18:18Z</time>
      </trkpt>
      <trkpt lat="49.4364" lon="5.79045">
        <ele>332.60000610352</ele>
        <time>2024-06-09T08:18:20Z</time>
      </trkpt>
      <trkpt lat="49.43645" lon="5.7905">
        <ele>332.60000610352</ele>
        <time>2024-06-09T08:18:22Z</time>
      </trkpt>
      <trkpt lat="49.43652" lon="5.79055">
        <ele>332.60000610352</ele>
        <time>2024-06-09T08:18:24Z</time>
      </trkpt>
      <trkpt lat="49.43659" lon="5.79058">
        <ele>332.60000610352</ele>
        <time>2024-06-09T08:18:26Z</time>
      </trkpt>
      <trkpt lat="49.43665" lon="5.79062">
        <ele>332.60000610352</ele>
        <time>2024-06-09T08:18:28Z</time>
      </trkpt>
      <trkpt lat="49.4367" lon="5.79065">
        <ele>332.60000610352</ele>
        <time>2024-06-09T08:18:30Z</time>
      </trkpt>
      <trkpt lat="49.43676" lon="5.79069">
        <ele>332.79998779297</ele>
        <time>2024-06-09T08:18:32Z</time>
      </trkpt>
      <trkpt lat="49.43683" lon="5.79074">
        <ele>332.79998779297</ele>
        <time>2024-06-09T08:18:34Z</time>
      </trkpt>
      <trkpt lat="49.43688" lon="5.79077">
        <ele>332.79998779297</ele>
        <time>2024-06-09T08:18:36Z</time>
      </trkpt>
      <trkpt lat="49.43693" lon="5.79083">
        <ele>333</ele>
        <time>2024-06-09T08:18:38Z</time>
      </trkpt>
      <trkpt lat="49.43694" lon="5.79085">
        <ele>333</ele>
        <time>2024-06-09T08:18:39Z</time>
      </trkpt>
      <trkpt lat="49.43696" lon="5.79089">
        <ele>333</ele>
        <time>2024-06-09T08:18:40Z</time>
      </trkpt>
      <trkpt lat="49.43699" lon="5.79094">
        <ele>333.39999389648</ele>
        <time>2024-06-09T08:18:42Z</time>
      </trkpt>
      <trkpt lat="49.43701" lon="5.79096">
        <ele>333.60000610352</ele>
        <time>2024-06-09T08:18:43Z</time>
      </trkpt>
      <trkpt lat="49.43703" lon="5.791">
        <ele>333.79998779297</ele>
        <time>2024-06-09T08:18:44Z</time>
      </trkpt>
      <trkpt lat="49.43704" lon="5.79103">
        <ele>334</ele>
        <time>2024-06-09T08:18:45Z</time>
      </trkpt>
      <trkpt lat="49.43705" lon="5.79108">
        <ele>334.20001220703</ele>
        <time>2024-06-09T08:18:46Z</time>
      </trkpt>
      <trkpt lat="49.43706" lon="5.79116">
        <ele>334.39999389648</ele>
        <time>2024-06-09T08:18:48Z</time>
      </trkpt>
      <trkpt lat="49.43709" lon="5.79121">
        <ele>334.79998779297</ele>
        <time>2024-06-09T08:18:50Z</time>
      </trkpt>
      <trkpt lat="49.43711" lon="5.79124">
        <ele>334.79998779297</ele>
        <time>2024-06-09T08:18:51Z</time>
      </trkpt>
      <trkpt lat="49.43713" lon="5.79128">
        <ele>334.79998779297</ele>
        <time>2024-06-09T08:18:52Z</time>
      </trkpt>
      <trkpt lat="49.43719" lon="5.79132">
        <ele>335</ele>
        <time>2024-06-09T08:18:54Z</time>
      </trkpt>
      <trkpt lat="49.43725" lon="5.79139">
        <ele>335.39999389648</ele>
        <time>2024-06-09T08:18:56Z</time>
      </trkpt>
      <trkpt lat="49.43728" lon="5.79142">
        <ele>335.60000610352</ele>
        <time>2024-06-09T08:18:57Z</time>
      </trkpt>
      <trkpt lat="49.43731" lon="5.79144">
        <ele>335.60000610352</ele>
        <time>2024-06-09T08:18:58Z</time>
      </trkpt>
      <trkpt lat="49.43735" lon="5.79152">
        <ele>335.60000610352</ele>
        <time>2024-06-09T08:19:00Z</time>
      </trkpt>
      <trkpt lat="49.43741" lon="5.79158">
        <ele>335.60000610352</ele>
        <time>2024-06-09T08:19:02Z</time>
      </trkpt>
      <trkpt lat="49.43743" lon="5.79161">
        <ele>335.60000610352</ele>
        <time>2024-06-09T08:19:03Z</time>
      </trkpt>
      <trkpt lat="49.43745" lon="5.79165">
        <ele>335.60000610352</ele>
        <time>2024-06-09T08:19:04Z</time>
      </trkpt>
      <trkpt lat="49.4375" lon="5.79171">
        <ele>335.60000610352</ele>
        <time>2024-06-09T08:19:06Z</time>
      </trkpt>
      <trkpt lat="49.43755" lon="5.79176">
        <ele>335.39999389648</ele>
        <time>2024-06-09T08:19:08Z</time>
      </trkpt>
      <trkpt lat="49.43759" lon="5.79186">
        <ele>335.20001220703</ele>
        <time>2024-06-09T08:19:10Z</time>
      </trkpt>
      <trkpt lat="49.43766" lon="5.79195">
        <ele>335.20001220703</ele>
        <time>2024-06-09T08:19:12Z</time>
      </trkpt>
      <trkpt lat="49.43771" lon="5.79206">
        <ele>334.79998779297</ele>
        <time>2024-06-09T08:19:14Z</time>
      </trkpt>
      <trkpt lat="49.43775" lon="5.79215">
        <ele>334.20001220703</ele>
        <time>2024-06-09T08:19:16Z</time>
      </trkpt>
      <trkpt lat="49.43781" lon="5.79224">
        <ele>334</ele>
        <time>2024-06-09T08:19:18Z</time>
      </trkpt>
      <trkpt lat="49.43784" lon="5.79232">
        <ele>334</ele>
        <time>2024-06-09T08:19:20Z</time>
      </trkpt>
      <trkpt lat="49.43788" lon="5.79239">
        <ele>334</ele>
        <time>2024-06-09T08:19:22Z</time>
      </trkpt>
      <trkpt lat="49.43794" lon="5.79246">
        <ele>334</ele>
        <time>2024-06-09T08:19:24Z</time>
      </trkpt>
      <trkpt lat="49.43801" lon="5.7925">
        <ele>333.79998779297</ele>
        <time>2024-06-09T08:19:26Z</time>
      </trkpt>
      <trkpt lat="49.43811" lon="5.79255">
        <ele>333.79998779297</ele>
        <time>2024-06-09T08:19:28Z</time>
      </trkpt>
      <trkpt lat="49.43815" lon="5.79259">
        <ele>333.79998779297</ele>
        <time>2024-06-09T08:19:29Z</time>
      </trkpt>
      <trkpt lat="49.43818" lon="5.79263">
        <ele>333.79998779297</ele>
        <time>2024-06-09T08:19:30Z</time>
      </trkpt>
      <trkpt lat="49.43821" lon="5.79267">
        <ele>333.79998779297</ele>
        <time>2024-06-09T08:19:31Z</time>
      </trkpt>
      <trkpt lat="49.43825" lon="5.79271">
        <ele>333.60000610352</ele>
        <time>2024-06-09T08:19:32Z</time>
      </trkpt>
      <trkpt lat="49.4383" lon="5.79278">
        <ele>333.60000610352</ele>
        <time>2024-06-09T08:19:34Z</time>
      </trkpt>
      <trkpt lat="49.43834" lon="5.79286">
        <ele>333.39999389648</ele>
        <time>2024-06-09T08:19:36Z</time>
      </trkpt>
      <trkpt lat="49.43838" lon="5.79298">
        <ele>333.39999389648</ele>
        <time>2024-06-09T08:19:38Z</time>
      </trkpt>
      <trkpt lat="49.43844" lon="5.79311">
        <ele>333.39999389648</ele>
        <time>2024-06-09T08:19:40Z</time>
      </trkpt>
      <trkpt lat="49.43845" lon="5.79315">
        <ele>333.39999389648</ele>
        <time>2024-06-09T08:19:41Z</time>
      </trkpt>
      <trkpt lat="49.43846" lon="5.79318">
        <ele>333.60000610352</ele>
        <time>2024-06-09T08:19:42Z</time>
      </trkpt>
      <trkpt lat="49.43848" lon="5.79328">
        <ele>333.79998779297</ele>
        <time>2024-06-09T08:19:44Z</time>
      </trkpt>
      <trkpt lat="49.4385" lon="5.79333">
        <ele>334</ele>
        <time>2024-06-09T08:19:46Z</time>
      </trkpt>
      <trkpt lat="49.43851" lon="5.79336">
        <ele>334.20001220703</ele>
        <time>2024-06-09T08:19:47Z</time>
      </trkpt>
      <trkpt lat="49.43852" lon="5.79339">
        <ele>334.60000610352</ele>
        <time>2024-06-09T08:19:48Z</time>
      </trkpt>
      <trkpt lat="49.43852" lon="5.79341">
        <ele>335</ele>
        <time>2024-06-09T08:19:49Z</time>
      </trkpt>
      <trkpt lat="49.43853" lon="5.79345">
        <ele>335.39999389648</ele>
        <time>2024-06-09T08:19:50Z</time>
      </trkpt>
      <trkpt lat="49.43854" lon="5.79351">
        <ele>336.20001220703</ele>
        <time>2024-06-09T08:19:52Z</time>
      </trkpt>
      <trkpt lat="49.43855" lon="5.79355">
        <ele>336.39999389648</ele>
        <time>2024-06-09T08:19:53Z</time>
      </trkpt>
      <trkpt lat="49.43856" lon="5.79359">
        <ele>336.79998779297</ele>
        <time>2024-06-09T08:19:54Z</time>
      </trkpt>
      <trkpt lat="49.4386" lon="5.7937">
        <ele>337.39999389648</ele>
        <time>2024-06-09T08:19:56Z</time>
      </trkpt>
      <trkpt lat="49.43865" lon="5.79381">
        <ele>338</ele>
        <time>2024-06-09T08:19:58Z</time>
      </trkpt>
      <trkpt lat="49.43867" lon="5.79387">
        <ele>338.60000610352</ele>
        <time>2024-06-09T08:19:59Z</time>
      </trkpt>
      <trkpt lat="49.43869" lon="5.79393">
        <ele>338.60000610352</ele>
        <time>2024-06-09T08:20:00Z</time>
      </trkpt>
      <trkpt lat="49.43873" lon="5.79403">
        <ele>339</ele>
        <time>2024-06-09T08:20:02Z</time>
      </trkpt>
      <trkpt lat="49.43877" lon="5.79412">
        <ele>339.39999389648</ele>
        <time>2024-06-09T08:20:04Z</time>
      </trkpt>
      <trkpt lat="49.4388" lon="5.7942">
        <ele>339.39999389648</ele>
        <time>2024-06-09T08:20:06Z</time>
      </trkpt>
      <trkpt lat="49.43881" lon="5.79424">
        <ele>339.60000610352</ele>
        <time>2024-06-09T08:20:07Z</time>
      </trkpt>
      <trkpt lat="49.43882" lon="5.79428">
        <ele>339.60000610352</ele>
        <time>2024-06-09T08:20:08Z</time>
      </trkpt>
      <trkpt lat="49.43884" lon="5.79436">
        <ele>339.60000610352</ele>
        <time>2024-06-09T08:20:10Z</time>
      </trkpt>
      <trkpt lat="49.43887" lon="5.79444">
        <ele>339.79998779297</ele>
        <time>2024-06-09T08:20:12Z</time>
      </trkpt>
      <trkpt lat="49.43889" lon="5.79452">
        <ele>340</ele>
        <time>2024-06-09T08:20:14Z</time>
      </trkpt>
      <trkpt lat="49.4389" lon="5.7946">
        <ele>340.39999389648</ele>
        <time>2024-06-09T08:20:16Z</time>
      </trkpt>
      <trkpt lat="49.43891" lon="5.79464">
        <ele>340.60000610352</ele>
        <time>2024-06-09T08:20:17Z</time>
      </trkpt>
      <trkpt lat="49.43892" lon="5.79468">
        <ele>340.60000610352</ele>
        <time>2024-06-09T08:20:18Z</time>
      </trkpt>
      <trkpt lat="49.43893" lon="5.79476">
        <ele>340.60000610352</ele>
        <time>2024-06-09T08:20:20Z</time>
      </trkpt>
      <trkpt lat="49.43894" lon="5.79483">
        <ele>340.79998779297</ele>
        <time>2024-06-09T08:20:22Z</time>
      </trkpt>
      <trkpt lat="49.43893" lon="5.79491">
        <ele>341</ele>
        <time>2024-06-09T08:20:24Z</time>
      </trkpt>
      <trkpt lat="49.43893" lon="5.79494">
        <ele>341</ele>
        <time>2024-06-09T08:20:25Z</time>
      </trkpt>
      <trkpt lat="49.43892" lon="5.79498">
        <ele>341.20001220703</ele>
        <time>2024-06-09T08:20:26Z</time>
      </trkpt>
      <trkpt lat="49.43891" lon="5.79504">
        <ele>341.60000610352</ele>
        <time>2024-06-09T08:20:28Z</time>
      </trkpt>
      <trkpt lat="49.4389" lon="5.79508">
        <ele>341.60000610352</ele>
        <time>2024-06-09T08:20:29Z</time>
      </trkpt>
      <trkpt lat="49.43889" lon="5.79511">
        <ele>341.79998779297</ele>
        <time>2024-06-09T08:20:30Z</time>
      </trkpt>
      <trkpt lat="49.43888" lon="5.79517">
        <ele>342</ele>
        <time>2024-06-09T08:20:32Z</time>
      </trkpt>
      <trkpt lat="49.43887" lon="5.79522">
        <ele>342.39999389648</ele>
        <time>2024-06-09T08:20:34Z</time>
      </trkpt>
      <trkpt lat="49.43887" lon="5.79525">
        <ele>342.60000610352</ele>
        <time>2024-06-09T08:20:35Z</time>
      </trkpt>
      <trkpt lat="49.43887" lon="5.79528">
        <ele>342.79998779297</ele>
        <time>2024-06-09T08:20:36Z</time>
      </trkpt>
      <trkpt lat="49.43887" lon="5.79533">
        <ele>343.20001220703</ele>
        <time>2024-06-09T08:20:38Z</time>
      </trkpt>
      <trkpt lat="49.43887" lon="5.79539">
        <ele>343.60000610352</ele>
        <time>2024-06-09T08:20:40Z</time>
      </trkpt>
      <trkpt lat="49.43888" lon="5.79543">
        <ele>343.60000610352</ele>
        <time>2024-06-09T08:20:41Z</time>
      </trkpt>
      <trkpt lat="49.43888" lon="5.79546">
        <ele>343.79998779297</ele>
        <time>2024-06-09T08:20:42Z</time>
      </trkpt>
      <trkpt lat="49.43889" lon="5.79552">
        <ele>344.39999389648</ele>
        <time>2024-06-09T08:20:44Z</time>
      </trkpt>
      <trkpt lat="49.4389" lon="5.79559">
        <ele>344.79998779297</ele>
        <time>2024-06-09T08:20:46Z</time>
      </trkpt>
      <trkpt lat="49.43892" lon="5.79566">
        <ele>345.20001220703</ele>
        <time>2024-06-09T08:20:48Z</time>
      </trkpt>
      <trkpt lat="49.43892" lon="5.79569">
        <ele>345.20001220703</ele>
        <time>2024-06-09T08:20:49Z</time>
      </trkpt>
      <trkpt lat="49.43893" lon="5.79573">
        <ele>345.20001220703</ele>
        <time>2024-06-09T08:20:50Z</time>
      </trkpt>
      <trkpt lat="49.43894" lon="5.7958">
        <ele>345.39999389648</ele>
        <time>2024-06-09T08:20:52Z</time>
      </trkpt>
      <trkpt lat="49.43896" lon="5.79587">
        <ele>345.39999389648</ele>
        <time>2024-06-09T08:20:54Z</time>
      </trkpt>
      <trkpt lat="49.43897" lon="5.79594">
        <ele>345.39999389648</ele>
        <time>2024-06-09T08:20:56Z</time>
      </trkpt>
      <trkpt lat="49.43898" lon="5.79598">
        <ele>345.39999389648</ele>
        <time>2024-06-09T08:20:57Z</time>
      </trkpt>
      <trkpt lat="49.43898" lon="5.79601">
        <ele>345.39999389648</ele>
        <time>2024-06-09T08:20:58Z</time>
      </trkpt>
      <trkpt lat="49.439" lon="5.79609">
        <ele>345.39999389648</ele>
        <time>2024-06-09T08:21:00Z</time>
      </trkpt>
      <trkpt lat="49.43901" lon="5.79616">
        <ele>345.39999389648</ele>
        <time>2024-06-09T08:21:02Z</time>
      </trkpt>
      <trkpt lat="49.43903" lon="5.79623">
        <ele>345.60000610352</ele>
        <time>2024-06-09T08:21:04Z</time>
      </trkpt>
      <trkpt lat="49.43904" lon="5.79631">
        <ele>345.79998779297</ele>
        <time>2024-06-09T08:21:06Z</time>
      </trkpt>
      <trkpt lat="49.43905" lon="5.79638">
        <ele>345.79998779297</ele>
        <time>2024-06-09T08:21:08Z</time>
      </trkpt>
      <trkpt lat="49.43907" lon="5.79646">
        <ele>346</ele>
        <time>2024-06-09T08:21:10Z</time>
      </trkpt>
      <trkpt lat="49.43908" lon="5.79653">
        <ele>346.20001220703</ele>
        <time>2024-06-09T08:21:12Z</time>
      </trkpt>
      <trkpt lat="49.43909" lon="5.79661">
        <ele>346.39999389648</ele>
        <time>2024-06-09T08:21:14Z</time>
      </trkpt>
      <trkpt lat="49.4391" lon="5.79668">
        <ele>346.60000610352</ele>
        <time>2024-06-09T08:21:16Z</time>
      </trkpt>
      <trkpt lat="49.43911" lon="5.79676">
        <ele>346.79998779297</ele>
        <time>2024-06-09T08:21:18Z</time>
      </trkpt>
      <trkpt lat="49.43912" lon="5.79679">
        <ele>347</ele>
        <time>2024-06-09T08:21:19Z</time>
      </trkpt>
      <trkpt lat="49.43913" lon="5.79683">
        <ele>347</ele>
        <time>2024-06-09T08:21:20Z</time>
      </trkpt>
      <trkpt lat="49.43914" lon="5.79692">
        <ele>347.20001220703</ele>
        <time>2024-06-09T08:21:22Z</time>
      </trkpt>
      <trkpt lat="49.43916" lon="5.797">
        <ele>347.20001220703</ele>
        <time>2024-06-09T08:21:24Z</time>
      </trkpt>
      <trkpt lat="49.43917" lon="5.79708">
        <ele>347.20001220703</ele>
        <time>2024-06-09T08:21:26Z</time>
      </trkpt>
      <trkpt lat="49.43919" lon="5.79717">
        <ele>347.20001220703</ele>
        <time>2024-06-09T08:21:28Z</time>
      </trkpt>
      <trkpt lat="49.43922" lon="5.79725">
        <ele>347.39999389648</ele>
        <time>2024-06-09T08:21:30Z</time>
      </trkpt>
      <trkpt lat="49.43923" lon="5.79729">
        <ele>347.20001220703</ele>
        <time>2024-06-09T08:21:31Z</time>
      </trkpt>
      <trkpt lat="49.43924" lon="5.79734">
        <ele>347.20001220703</ele>
        <time>2024-06-09T08:21:32Z</time>
      </trkpt>
      <trkpt lat="49.43927" lon="5.79742">
        <ele>347.20001220703</ele>
        <time>2024-06-09T08:21:34Z</time>
      </trkpt>
      <trkpt lat="49.4393" lon="5.79751">
        <ele>347.20001220703</ele>
        <time>2024-06-09T08:21:36Z</time>
      </trkpt>
      <trkpt lat="49.43931" lon="5.79755">
        <ele>347.20001220703</ele>
        <time>2024-06-09T08:21:37Z</time>
      </trkpt>
      <trkpt lat="49.43933" lon="5.79759">
        <ele>347.20001220703</ele>
        <time>2024-06-09T08:21:38Z</time>
      </trkpt>
      <trkpt lat="49.43936" lon="5.79766">
        <ele>347.20001220703</ele>
        <time>2024-06-09T08:21:40Z</time>
      </trkpt>
      <trkpt lat="49.43938" lon="5.79774">
        <ele>347.20001220703</ele>
        <time>2024-06-09T08:21:42Z</time>
      </trkpt>
      <trkpt lat="49.4394" lon="5.79781">
        <ele>347.20001220703</ele>
        <time>2024-06-09T08:21:44Z</time>
      </trkpt>
      <trkpt lat="49.43943" lon="5.79788">
        <ele>347.39999389648</ele>
        <time>2024-06-09T08:21:46Z</time>
      </trkpt>
      <trkpt lat="49.43944" lon="5.79792">
        <ele>347.39999389648</ele>
        <time>2024-06-09T08:21:47Z</time>
      </trkpt>
      <trkpt lat="49.43945" lon="5.79796">
        <ele>347.39999389648</ele>
        <time>2024-06-09T08:21:48Z</time>
      </trkpt>
      <trkpt lat="49.43947" lon="5.79803">
        <ele>347.60000610352</ele>
        <time>2024-06-09T08:21:50Z</time>
      </trkpt>
      <trkpt lat="49.43949" lon="5.7981">
        <ele>347.79998779297</ele>
        <time>2024-06-09T08:21:52Z</time>
      </trkpt>
      <trkpt lat="49.43951" lon="5.79817">
        <ele>348</ele>
        <time>2024-06-09T08:21:54Z</time>
      </trkpt>
      <trkpt lat="49.43953" lon="5.79823">
        <ele>348.39999389648</ele>
        <time>2024-06-09T08:21:56Z</time>
      </trkpt>
      <trkpt lat="49.43955" lon="5.7983">
        <ele>348.60000610352</ele>
        <time>2024-06-09T08:21:58Z</time>
      </trkpt>
      <trkpt lat="49.43957" lon="5.79836">
        <ele>349</ele>
        <time>2024-06-09T08:22:00Z</time>
      </trkpt>
      <trkpt lat="49.43957" lon="5.79839">
        <ele>349</ele>
        <time>2024-06-09T08:22:01Z</time>
      </trkpt>
      <trkpt lat="49.43958" lon="5.79842">
        <ele>349.39999389648</ele>
        <time>2024-06-09T08:22:02Z</time>
      </trkpt>
      <trkpt lat="49.43959" lon="5.79847">
        <ele>349.60000610352</ele>
        <time>2024-06-09T08:22:04Z</time>
      </trkpt>
      <trkpt lat="49.4396" lon="5.79849">
        <ele>349.79998779297</ele>
        <time>2024-06-09T08:22:05Z</time>
      </trkpt>
      <trkpt lat="49.43961" lon="5.7985">
        <ele>349.79998779297</ele>
        <time>2024-06-09T08:22:06Z</time>
      </trkpt>
      <trkpt lat="49.43965" lon="5.79847">
        <ele>350.20001220703</ele>
        <time>2024-06-09T08:22:08Z</time>
      </trkpt>
      <trkpt lat="49.43969" lon="5.79843">
        <ele>350.20001220703</ele>
        <time>2024-06-09T08:22:10Z</time>
      </trkpt>
      <trkpt lat="49.4397" lon="5.7984">
        <ele>350.20001220703</ele>
        <time>2024-06-09T08:22:11Z</time>
      </trkpt>
      <trkpt lat="49.43971" lon="5.79835">
        <ele>350.39999389648</ele>
        <time>2024-06-09T08:22:12Z</time>
      </trkpt>
      <trkpt lat="49.43973" lon="5.79825">
        <ele>350.39999389648</ele>
        <time>2024-06-09T08:22:14Z</time>
      </trkpt>
      <trkpt lat="49.43974" lon="5.79815">
        <ele>350.39999389648</ele>
        <time>2024-06-09T08:22:16Z</time>
      </trkpt>
      <trkpt lat="49.43975" lon="5.79811">
        <ele>350.39999389648</ele>
        <time>2024-06-09T08:22:17Z</time>
      </trkpt>
      <trkpt lat="49.43975" lon="5.79808">
        <ele>350.39999389648</ele>
        <time>2024-06-09T08:22:18Z</time>
      </trkpt>
      <trkpt lat="49.43975" lon="5.79805">
        <ele>350.39999389648</ele>
        <time>2024-06-09T08:22:19Z</time>
      </trkpt>
      <trkpt lat="49.43977" lon="5.79803">
        <ele>350.20001220703</ele>
        <time>2024-06-09T08:22:20Z</time>
      </trkpt>
      <trkpt lat="49.43978" lon="5.798">
        <ele>349.79998779297</ele>
        <time>2024-06-09T08:22:22Z</time>
      </trkpt>
      <trkpt lat="49.43979" lon="5.79798">
        <ele>348.79998779297</ele>
        <time>2024-06-09T08:22:23Z</time>
      </trkpt>
      <trkpt lat="49.4398" lon="5.79796">
        <ele>348.20001220703</ele>
        <time>2024-06-09T08:22:24Z</time>
      </trkpt>
      <trkpt lat="49.43981" lon="5.79793">
        <ele>347.79998779297</ele>
        <time>2024-06-09T08:22:25Z</time>
      </trkpt>
      <trkpt lat="49.43981" lon="5.7979">
        <ele>347.39999389648</ele>
        <time>2024-06-09T08:22:26Z</time>
      </trkpt>
      <trkpt lat="49.43982" lon="5.79787">
        <ele>347.20001220703</ele>
        <time>2024-06-09T08:22:27Z</time>
      </trkpt>
      <trkpt lat="49.43982" lon="5.79785">
        <ele>347.20001220703</ele>
        <time>2024-06-09T08:22:28Z</time>
      </trkpt>
      <trkpt lat="49.43981" lon="5.79782">
        <ele>347</ele>
        <time>2024-06-09T08:22:30Z</time>
      </trkpt>
      <trkpt lat="49.43981" lon="5.79777">
        <ele>346.39999389648</ele>
        <time>2024-06-09T08:22:32Z</time>
      </trkpt>
      <trkpt lat="49.43982" lon="5.79771">
        <ele>345.60000610352</ele>
        <time>2024-06-09T08:22:34Z</time>
      </trkpt>
      <trkpt lat="49.43982" lon="5.79768">
        <ele>345.39999389648</ele>
        <time>2024-06-09T08:22:35Z</time>
      </trkpt>
      <trkpt lat="49.43982" lon="5.79765">
        <ele>345.39999389648</ele>
        <time>2024-06-09T08:22:36Z</time>
      </trkpt>
      <trkpt lat="49.43983" lon="5.79761">
        <ele>345.20001220703</ele>
        <time>2024-06-09T08:22:38Z</time>
      </trkpt>
      <trkpt lat="49.43983" lon="5.79758">
        <ele>345</ele>
        <time>2024-06-09T08:22:39Z</time>
      </trkpt>
      <trkpt lat="49.43983" lon="5.79755">
        <ele>344.79998779297</ele>
        <time>2024-06-09T08:22:40Z</time>
      </trkpt>
      <trkpt lat="49.43983" lon="5.79747">
        <ele>344.20001220703</ele>
        <time>2024-06-09T08:22:42Z</time>
      </trkpt>
      <trkpt lat="49.43982" lon="5.7974">
        <ele>343.39999389648</ele>
        <time>2024-06-09T08:22:44Z</time>
      </trkpt>
      <trkpt lat="49.43982" lon="5.79734">
        <ele>343.20001220703</ele>
        <time>2024-06-09T08:22:45Z</time>
      </trkpt>
      <trkpt lat="49.43983" lon="5.79728">
        <ele>343</ele>
        <time>2024-06-09T08:22:46Z</time>
      </trkpt>
      <trkpt lat="49.43984" lon="5.79719">
        <ele>342.60000610352</ele>
        <time>2024-06-09T08:22:48Z</time>
      </trkpt>
      <trkpt lat="49.43984" lon="5.79714">
        <ele>342.20001220703</ele>
        <time>2024-06-09T08:22:49Z</time>
      </trkpt>
      <trkpt lat="49.43984" lon="5.79711">
        <ele>341.79998779297</ele>
        <time>2024-06-09T08:22:50Z</time>
      </trkpt>
      <trkpt lat="49.43985" lon="5.79704">
        <ele>341.39999389648</ele>
        <time>2024-06-09T08:22:52Z</time>
      </trkpt>
      <trkpt lat="49.43984" lon="5.79696">
        <ele>341.39999389648</ele>
        <time>2024-06-09T08:22:54Z</time>
      </trkpt>
      <trkpt lat="49.43984" lon="5.79693">
        <ele>341.39999389648</ele>
        <time>2024-06-09T08:22:55Z</time>
      </trkpt>
      <trkpt lat="49.43985" lon="5.79691">
        <ele>341.39999389648</ele>
        <time>2024-06-09T08:22:56Z</time>
      </trkpt>
      <trkpt lat="49.43985" lon="5.79684">
        <ele>341.39999389648</ele>
        <time>2024-06-09T08:22:58Z</time>
      </trkpt>
      <trkpt lat="49.43986" lon="5.79676">
        <ele>341.39999389648</ele>
        <time>2024-06-09T08:23:00Z</time>
      </trkpt>
      <trkpt lat="49.43988" lon="5.79668">
        <ele>341.39999389648</ele>
        <time>2024-06-09T08:23:02Z</time>
      </trkpt>
      <trkpt lat="49.4399" lon="5.79661">
        <ele>341.79998779297</ele>
        <time>2024-06-09T08:23:04Z</time>
      </trkpt>
      <trkpt lat="49.43992" lon="5.79654">
        <ele>342.20001220703</ele>
        <time>2024-06-09T08:23:06Z</time>
      </trkpt>
      <trkpt lat="49.43994" lon="5.79651">
        <ele>342.39999389648</ele>
        <time>2024-06-09T08:23:07Z</time>
      </trkpt>
      <trkpt lat="49.43995" lon="5.79649">
        <ele>342.39999389648</ele>
        <time>2024-06-09T08:23:08Z</time>
      </trkpt>
      <trkpt lat="49.43997" lon="5.79642">
        <ele>342.79998779297</ele>
        <time>2024-06-09T08:23:10Z</time>
      </trkpt>
      <trkpt lat="49.43998" lon="5.7964">
        <ele>342.79998779297</ele>
        <time>2024-06-09T08:23:11Z</time>
      </trkpt>
      <trkpt lat="49.43999" lon="5.79638">
        <ele>343.20001220703</ele>
        <time>2024-06-09T08:23:12Z</time>
      </trkpt>
      <trkpt lat="49.43998" lon="5.79636">
        <ele>343.39999389648</ele>
        <time>2024-06-09T08:23:13Z</time>
      </trkpt>
      <trkpt lat="49.43996" lon="5.79634">
        <ele>343.60000610352</ele>
        <time>2024-06-09T08:23:14Z</time>
      </trkpt>
      <trkpt lat="49.43996" lon="5.79631">
        <ele>344</ele>
        <time>2024-06-09T08:23:15Z</time>
      </trkpt>
      <trkpt lat="49.43996" lon="5.79628">
        <ele>344.39999389648</ele>
        <time>2024-06-09T08:23:16Z</time>
      </trkpt>
      <trkpt lat="49.43998" lon="5.79618">
        <ele>344.60000610352</ele>
        <time>2024-06-09T08:23:18Z</time>
      </trkpt>
      <trkpt lat="49.43998" lon="5.79613">
        <ele>344.60000610352</ele>
        <time>2024-06-09T08:23:19Z</time>
      </trkpt>
      <trkpt lat="49.43998" lon="5.79609">
        <ele>344.79998779297</ele>
        <time>2024-06-09T08:23:20Z</time>
      </trkpt>
      <trkpt lat="49.44" lon="5.79601">
        <ele>344.79998779297</ele>
        <time>2024-06-09T08:23:22Z</time>
      </trkpt>
      <trkpt lat="49.44002" lon="5.79594">
        <ele>344.79998779297</ele>
        <time>2024-06-09T08:23:24Z</time>
      </trkpt>
      <trkpt lat="49.44002" lon="5.7959">
        <ele>344.79998779297</ele>
        <time>2024-06-09T08:23:25Z</time>
      </trkpt>
      <trkpt lat="49.44002" lon="5.79587">
        <ele>344.79998779297</ele>
        <time>2024-06-09T08:23:26Z</time>
      </trkpt>
      <trkpt lat="49.44005" lon="5.79582">
        <ele>344.39999389648</ele>
        <time>2024-06-09T08:23:28Z</time>
      </trkpt>
      <trkpt lat="49.44006" lon="5.7958">
        <ele>344.60000610352</ele>
        <time>2024-06-09T08:23:29Z</time>
      </trkpt>
      <trkpt lat="49.44008" lon="5.79577">
        <ele>344.39999389648</ele>
        <time>2024-06-09T08:23:30Z</time>
      </trkpt>
      <trkpt lat="49.44009" lon="5.7957">
        <ele>344.20001220703</ele>
        <time>2024-06-09T08:23:32Z</time>
      </trkpt>
      <trkpt lat="49.44011" lon="5.79564">
        <ele>344.20001220703</ele>
        <time>2024-06-09T08:23:34Z</time>
      </trkpt>
      <trkpt lat="49.44012" lon="5.79558">
        <ele>344</ele>
        <time>2024-06-09T08:23:36Z</time>
      </trkpt>
      <trkpt lat="49.44014" lon="5.79551">
        <ele>344</ele>
        <time>2024-06-09T08:23:38Z</time>
      </trkpt>
      <trkpt lat="49.44016" lon="5.79546">
        <ele>343.79998779297</ele>
        <time>2024-06-09T08:23:39Z</time>
      </trkpt>
      <trkpt lat="49.44016" lon="5.79543">
        <ele>343.79998779297</ele>
        <time>2024-06-09T08:23:40Z</time>
      </trkpt>
      <trkpt lat="49.44019" lon="5.79536">
        <ele>343.79998779297</ele>
        <time>2024-06-09T08:23:42Z</time>
      </trkpt>
      <trkpt lat="49.44022" lon="5.79532">
        <ele>343.79998779297</ele>
        <time>2024-06-09T08:23:43Z</time>
      </trkpt>
      <trkpt lat="49.44024" lon="5.79527">
        <ele>343.60000610352</ele>
        <time>2024-06-09T08:23:44Z</time>
      </trkpt>
      <trkpt lat="49.44027" lon="5.79521">
        <ele>343.60000610352</ele>
        <time>2024-06-09T08:23:46Z</time>
      </trkpt>
      <trkpt lat="49.44029" lon="5.79514">
        <ele>343.60000610352</ele>
        <time>2024-06-09T08:23:48Z</time>
      </trkpt>
      <trkpt lat="49.44031" lon="5.79508">
        <ele>343.60000610352</ele>
        <time>2024-06-09T08:23:50Z</time>
      </trkpt>
      <trkpt lat="49.44032" lon="5.79505">
        <ele>343.39999389648</ele>
        <time>2024-06-09T08:23:51Z</time>
      </trkpt>
      <trkpt lat="49.44034" lon="5.795">
        <ele>343.39999389648</ele>
        <time>2024-06-09T08:23:52Z</time>
      </trkpt>
      <trkpt lat="49.44036" lon="5.79497">
        <ele>343.39999389648</ele>
        <time>2024-06-09T08:23:53Z</time>
      </trkpt>
      <trkpt lat="49.44039" lon="5.79494">
        <ele>343.39999389648</ele>
        <time>2024-06-09T08:23:54Z</time>
      </trkpt>
      <trkpt lat="49.44041" lon="5.79491">
        <ele>343.39999389648</ele>
        <time>2024-06-09T08:23:55Z</time>
      </trkpt>
      <trkpt lat="49.44044" lon="5.79488">
        <ele>343.39999389648</ele>
        <time>2024-06-09T08:23:56Z</time>
      </trkpt>
      <trkpt lat="49.44048" lon="5.79483">
        <ele>343.39999389648</ele>
        <time>2024-06-09T08:23:58Z</time>
      </trkpt>
      <trkpt lat="49.44053" lon="5.79478">
        <ele>343.39999389648</ele>
        <time>2024-06-09T08:24:00Z</time>
      </trkpt>
      <trkpt lat="49.44054" lon="5.79475">
        <ele>343.39999389648</ele>
        <time>2024-06-09T08:24:01Z</time>
      </trkpt>
      <trkpt lat="49.44056" lon="5.79471">
        <ele>343.39999389648</ele>
        <time>2024-06-09T08:24:02Z</time>
      </trkpt>
      <trkpt lat="49.4406" lon="5.79466">
        <ele>343.39999389648</ele>
        <time>2024-06-09T08:24:04Z</time>
      </trkpt>
      <trkpt lat="49.44063" lon="5.79461">
        <ele>343.39999389648</ele>
        <time>2024-06-09T08:24:06Z</time>
      </trkpt>
      <trkpt lat="49.44067" lon="5.79456">
        <ele>343.79998779297</ele>
        <time>2024-06-09T08:24:08Z</time>
      </trkpt>
      <trkpt lat="49.4407" lon="5.79452">
        <ele>343.79998779297</ele>
        <time>2024-06-09T08:24:10Z</time>
      </trkpt>
      <trkpt lat="49.44075" lon="5.79446">
        <ele>344</ele>
        <time>2024-06-09T08:24:12Z</time>
      </trkpt>
      <trkpt lat="49.44077" lon="5.79443">
        <ele>344</ele>
        <time>2024-06-09T08:24:13Z</time>
      </trkpt>
      <trkpt lat="49.44079" lon="5.79441">
        <ele>344</ele>
        <time>2024-06-09T08:24:14Z</time>
      </trkpt>
      <trkpt lat="49.44083" lon="5.79436">
        <ele>344</ele>
        <time>2024-06-09T08:24:16Z</time>
      </trkpt>
      <trkpt lat="49.44088" lon="5.79433">
        <ele>344</ele>
        <time>2024-06-09T08:24:18Z</time>
      </trkpt>
      <trkpt lat="49.4409" lon="5.79433">
        <ele>344</ele>
        <time>2024-06-09T08:24:19Z</time>
      </trkpt>
      <trkpt lat="49.44091" lon="5.79432">
        <ele>344</ele>
        <time>2024-06-09T08:24:20Z</time>
      </trkpt>
      <trkpt lat="49.44095" lon="5.79431">
        <ele>344</ele>
        <time>2024-06-09T08:24:22Z</time>
      </trkpt>
      <trkpt lat="49.44097" lon="5.7943">
        <ele>344</ele>
        <time>2024-06-09T08:24:24Z</time>
      </trkpt>
      <trkpt lat="49.44099" lon="5.79429">
        <ele>344</ele>
        <time>2024-06-09T08:24:25Z</time>
      </trkpt>
      <trkpt lat="49.44099" lon="5.79428">
        <ele>344</ele>
        <time>2024-06-09T08:24:26Z</time>
      </trkpt>
      <trkpt lat="49.44102" lon="5.79427">
        <ele>344.20001220703</ele>
        <time>2024-06-09T08:24:28Z</time>
      </trkpt>
      <trkpt lat="49.44106" lon="5.79427">
        <ele>344.39999389648</ele>
        <time>2024-06-09T08:24:30Z</time>
      </trkpt>
      <trkpt lat="49.44108" lon="5.79426">
        <ele>344.60000610352</ele>
        <time>2024-06-09T08:24:31Z</time>
      </trkpt>
      <trkpt lat="49.4411" lon="5.79426">
        <ele>344.60000610352</ele>
        <time>2024-06-09T08:24:32Z</time>
      </trkpt>
      <trkpt lat="49.44113" lon="5.79426">
        <ele>345</ele>
        <time>2024-06-09T08:24:34Z</time>
      </trkpt>
      <trkpt lat="49.44115" lon="5.79426">
        <ele>345.20001220703</ele>
        <time>2024-06-09T08:24:35Z</time>
      </trkpt>
      <trkpt lat="49.44116" lon="5.79426">
        <ele>345.60000610352</ele>
        <time>2024-06-09T08:24:36Z</time>
      </trkpt>
      <trkpt lat="49.44119" lon="5.79427">
        <ele>346.20001220703</ele>
        <time>2024-06-09T08:24:38Z</time>
      </trkpt>
      <trkpt lat="49.44121" lon="5.79427">
        <ele>346.39999389648</ele>
        <time>2024-06-09T08:24:39Z</time>
      </trkpt>
      <trkpt lat="49.44123" lon="5.79428">
        <ele>346.60000610352</ele>
        <time>2024-06-09T08:24:40Z</time>
      </trkpt>
      <trkpt lat="49.44127" lon="5.79429">
        <ele>346.79998779297</ele>
        <time>2024-06-09T08:24:42Z</time>
      </trkpt>
      <trkpt lat="49.44131" lon="5.79432">
        <ele>347.20001220703</ele>
        <time>2024-06-09T08:24:44Z</time>
      </trkpt>
      <trkpt lat="49.44133" lon="5.79433">
        <ele>347.60000610352</ele>
        <time>2024-06-09T08:24:45Z</time>
      </trkpt>
      <trkpt lat="49.44136" lon="5.79434">
        <ele>347.79998779297</ele>
        <time>2024-06-09T08:24:46Z</time>
      </trkpt>
      <trkpt lat="49.44141" lon="5.79433">
        <ele>348.20001220703</ele>
        <time>2024-06-09T08:24:48Z</time>
      </trkpt>
      <trkpt lat="49.44147" lon="5.79431">
        <ele>348.39999389648</ele>
        <time>2024-06-09T08:24:50Z</time>
      </trkpt>
      <trkpt lat="49.4415" lon="5.7943">
        <ele>348.60000610352</ele>
        <time>2024-06-09T08:24:51Z</time>
      </trkpt>
      <trkpt lat="49.44152" lon="5.79429">
        <ele>348.60000610352</ele>
        <time>2024-06-09T08:24:52Z</time>
      </trkpt>
      <trkpt lat="49.44157" lon="5.79427">
        <ele>348.79998779297</ele>
        <time>2024-06-09T08:24:54Z</time>
      </trkpt>
      <trkpt lat="49.44161" lon="5.79425">
        <ele>348.79998779297</ele>
        <time>2024-06-09T08:24:56Z</time>
      </trkpt>
      <trkpt lat="49.44166" lon="5.79424">
        <ele>348.79998779297</ele>
        <time>2024-06-09T08:24:58Z</time>
      </trkpt>
      <trkpt lat="49.44169" lon="5.79422">
        <ele>348.79998779297</ele>
        <time>2024-06-09T08:25:00Z</time>
      </trkpt>
      <trkpt lat="49.44171" lon="5.79421">
        <ele>348.79998779297</ele>
        <time>2024-06-09T08:25:01Z</time>
      </trkpt>
      <trkpt lat="49.44172" lon="5.7942">
        <ele>348.79998779297</ele>
        <time>2024-06-09T08:25:02Z</time>
      </trkpt>
      <trkpt lat="49.44176" lon="5.79414">
        <ele>348.79998779297</ele>
        <time>2024-06-09T08:25:04Z</time>
      </trkpt>
      <trkpt lat="49.44177" lon="5.7941">
        <ele>348.79998779297</ele>
        <time>2024-06-09T08:25:05Z</time>
      </trkpt>
      <trkpt lat="49.44179" lon="5.79405">
        <ele>348.79998779297</ele>
        <time>2024-06-09T08:25:06Z</time>
      </trkpt>
      <trkpt lat="49.44181" lon="5.79399">
        <ele>348.79998779297</ele>
        <time>2024-06-09T08:25:07Z</time>
      </trkpt>
      <trkpt lat="49.44183" lon="5.79392">
        <ele>348.79998779297</ele>
        <time>2024-06-09T08:25:08Z</time>
      </trkpt>
      <trkpt lat="49.44189" lon="5.79377">
        <ele>348.60000610352</ele>
        <time>2024-06-09T08:25:10Z</time>
      </trkpt>
      <trkpt lat="49.44192" lon="5.79369">
        <ele>348.60000610352</ele>
        <time>2024-06-09T08:25:11Z</time>
      </trkpt>
      <trkpt lat="49.44197" lon="5.79362">
        <ele>348.39999389648</ele>
        <time>2024-06-09T08:25:12Z</time>
      </trkpt>
      <trkpt lat="49.44209" lon="5.79349">
        <ele>347.39999389648</ele>
        <time>2024-06-09T08:25:14Z</time>
      </trkpt>
      <trkpt lat="49.44215" lon="5.79344">
        <ele>346.60000610352</ele>
        <time>2024-06-09T08:25:15Z</time>
      </trkpt>
      <trkpt lat="49.44219" lon="5.79338">
        <ele>345.79998779297</ele>
        <time>2024-06-09T08:25:16Z</time>
      </trkpt>
      <trkpt lat="49.44224" lon="5.79333">
        <ele>345</ele>
        <time>2024-06-09T08:25:17Z</time>
      </trkpt>
      <trkpt lat="49.44228" lon="5.79326">
        <ele>344</ele>
        <time>2024-06-09T08:25:18Z</time>
      </trkpt>
      <trkpt lat="49.44237" lon="5.79311">
        <ele>342.60000610352</ele>
        <time>2024-06-09T08:25:20Z</time>
      </trkpt>
      <trkpt lat="49.44241" lon="5.79303">
        <ele>341.39999389648</ele>
        <time>2024-06-09T08:25:21Z</time>
      </trkpt>
      <trkpt lat="49.44245" lon="5.79295">
        <ele>340.39999389648</ele>
        <time>2024-06-09T08:25:22Z</time>
      </trkpt>
      <trkpt lat="49.44249" lon="5.79289">
        <ele>339.60000610352</ele>
        <time>2024-06-09T08:25:23Z</time>
      </trkpt>
      <trkpt lat="49.44255" lon="5.79284">
        <ele>339.20001220703</ele>
        <time>2024-06-09T08:25:24Z</time>
      </trkpt>
      <trkpt lat="49.4426" lon="5.7928">
        <ele>339</ele>
        <time>2024-06-09T08:25:25Z</time>
      </trkpt>
      <trkpt lat="49.44265" lon="5.79278">
        <ele>338.79998779297</ele>
        <time>2024-06-09T08:25:26Z</time>
      </trkpt>
      <trkpt lat="49.44274" lon="5.79275">
        <ele>338.79998779297</ele>
        <time>2024-06-09T08:25:28Z</time>
      </trkpt>
      <trkpt lat="49.44283" lon="5.79273">
        <ele>338.79998779297</ele>
        <time>2024-06-09T08:25:30Z</time>
      </trkpt>
      <trkpt lat="49.44291" lon="5.79271">
        <ele>338.79998779297</ele>
        <time>2024-06-09T08:25:32Z</time>
      </trkpt>
      <trkpt lat="49.44297" lon="5.7927">
        <ele>339</ele>
        <time>2024-06-09T08:25:34Z</time>
      </trkpt>
      <trkpt lat="49.44301" lon="5.79269">
        <ele>339.39999389648</ele>
        <time>2024-06-09T08:25:35Z</time>
      </trkpt>
      <trkpt lat="49.44304" lon="5.79267">
        <ele>339.79998779297</ele>
        <time>2024-06-09T08:25:36Z</time>
      </trkpt>
      <trkpt lat="49.44308" lon="5.79267">
        <ele>340.20001220703</ele>
        <time>2024-06-09T08:25:37Z</time>
      </trkpt>
      <trkpt lat="49.44312" lon="5.79267">
        <ele>340.60000610352</ele>
        <time>2024-06-09T08:25:38Z</time>
      </trkpt>
      <trkpt lat="49.44318" lon="5.79267">
        <ele>341.39999389648</ele>
        <time>2024-06-09T08:25:40Z</time>
      </trkpt>
      <trkpt lat="49.44325" lon="5.79269">
        <ele>342.20001220703</ele>
        <time>2024-06-09T08:25:42Z</time>
      </trkpt>
      <trkpt lat="49.44328" lon="5.7927">
        <ele>342.39999389648</ele>
        <time>2024-06-09T08:25:43Z</time>
      </trkpt>
      <trkpt lat="49.44331" lon="5.79271">
        <ele>342.60000610352</ele>
        <time>2024-06-09T08:25:44Z</time>
      </trkpt>
      <trkpt lat="49.44337" lon="5.79275">
        <ele>343</ele>
        <time>2024-06-09T08:25:46Z</time>
      </trkpt>
      <trkpt lat="49.44341" lon="5.79277">
        <ele>343</ele>
        <time>2024-06-09T08:25:47Z</time>
      </trkpt>
      <trkpt lat="49.44344" lon="5.79279">
        <ele>343</ele>
        <time>2024-06-09T08:25:48Z</time>
      </trkpt>
      <trkpt lat="49.44351" lon="5.79282">
        <ele>343.20001220703</ele>
        <time>2024-06-09T08:25:50Z</time>
      </trkpt>
      <trkpt lat="49.44358" lon="5.7928">
        <ele>343.60000610352</ele>
        <time>2024-06-09T08:25:52Z</time>
      </trkpt>
      <trkpt lat="49.44367" lon="5.79277">
        <ele>343.79998779297</ele>
        <time>2024-06-09T08:25:54Z</time>
      </trkpt>
      <trkpt lat="49.44377" lon="5.79275">
        <ele>344</ele>
        <time>2024-06-09T08:25:56Z</time>
      </trkpt>
      <trkpt lat="49.44383" lon="5.79273">
        <ele>344</ele>
        <time>2024-06-09T08:25:57Z</time>
      </trkpt>
      <trkpt lat="49.44389" lon="5.79271">
        <ele>344</ele>
        <time>2024-06-09T08:25:58Z</time>
      </trkpt>
      <trkpt lat="49.44396" lon="5.7927">
        <ele>344</ele>
        <time>2024-06-09T08:25:59Z</time>
      </trkpt>
      <trkpt lat="49.44402" lon="5.7927">
        <ele>344</ele>
        <time>2024-06-09T08:26:00Z</time>
      </trkpt>
      <trkpt lat="49.44407" lon="5.79271">
        <ele>344</ele>
        <time>2024-06-09T08:26:01Z</time>
      </trkpt>
      <trkpt lat="49.44411" lon="5.79273">
        <ele>344</ele>
        <time>2024-06-09T08:26:02Z</time>
      </trkpt>
      <trkpt lat="49.44417" lon="5.7928">
        <ele>343.39999389648</ele>
        <time>2024-06-09T08:26:04Z</time>
      </trkpt>
      <trkpt lat="49.44419" lon="5.79288">
        <ele>343.20001220703</ele>
        <time>2024-06-09T08:26:06Z</time>
      </trkpt>
      <trkpt lat="49.44424" lon="5.79293">
        <ele>343.20001220703</ele>
        <time>2024-06-09T08:26:08Z</time>
      </trkpt>
      <trkpt lat="49.44427" lon="5.79295">
        <ele>343.20001220703</ele>
        <time>2024-06-09T08:26:09Z</time>
      </trkpt>
      <trkpt lat="49.44429" lon="5.79297">
        <ele>343.20001220703</ele>
        <time>2024-06-09T08:26:10Z</time>
      </trkpt>
      <trkpt lat="49.44434" lon="5.79304">
        <ele>343.20001220703</ele>
        <time>2024-06-09T08:26:12Z</time>
      </trkpt>
      <trkpt lat="49.44437" lon="5.79311">
        <ele>344</ele>
        <time>2024-06-09T08:26:14Z</time>
      </trkpt>
      <trkpt lat="49.44443" lon="5.79313">
        <ele>345</ele>
        <time>2024-06-09T08:26:16Z</time>
      </trkpt>
      <trkpt lat="49.44449" lon="5.79316">
        <ele>346</ele>
        <time>2024-06-09T08:26:18Z</time>
      </trkpt>
      <trkpt lat="49.4445" lon="5.79319">
        <ele>346.20001220703</ele>
        <time>2024-06-09T08:26:19Z</time>
      </trkpt>
      <trkpt lat="49.44452" lon="5.79321">
        <ele>346.60000610352</ele>
        <time>2024-06-09T08:26:20Z</time>
      </trkpt>
      <trkpt lat="49.44457" lon="5.79322">
        <ele>347</ele>
        <time>2024-06-09T08:26:22Z</time>
      </trkpt>
      <trkpt lat="49.44461" lon="5.79321">
        <ele>347.39999389648</ele>
        <time>2024-06-09T08:26:24Z</time>
      </trkpt>
      <trkpt lat="49.44467" lon="5.79323">
        <ele>347.60000610352</ele>
        <time>2024-06-09T08:26:26Z</time>
      </trkpt>
      <trkpt lat="49.44474" lon="5.79324">
        <ele>347.60000610352</ele>
        <time>2024-06-09T08:26:28Z</time>
      </trkpt>
      <trkpt lat="49.44478" lon="5.79325">
        <ele>347.60000610352</ele>
        <time>2024-06-09T08:26:29Z</time>
      </trkpt>
      <trkpt lat="49.44481" lon="5.79326">
        <ele>347.60000610352</ele>
        <time>2024-06-09T08:26:30Z</time>
      </trkpt>
      <trkpt lat="49.44487" lon="5.79328">
        <ele>347.60000610352</ele>
        <time>2024-06-09T08:26:32Z</time>
      </trkpt>
      <trkpt lat="49.44494" lon="5.79332">
        <ele>347.60000610352</ele>
        <time>2024-06-09T08:26:34Z</time>
      </trkpt>
      <trkpt lat="49.44498" lon="5.79333">
        <ele>347.60000610352</ele>
        <time>2024-06-09T08:26:35Z</time>
      </trkpt>
      <trkpt lat="49.445" lon="5.79335">
        <ele>347.39999389648</ele>
        <time>2024-06-09T08:26:36Z</time>
      </trkpt>
      <trkpt lat="49.44504" lon="5.79334">
        <ele>347.39999389648</ele>
        <time>2024-06-09T08:26:37Z</time>
      </trkpt>
      <trkpt lat="49.44507" lon="5.79333">
        <ele>347.39999389648</ele>
        <time>2024-06-09T08:26:38Z</time>
      </trkpt>
      <trkpt lat="49.4451" lon="5.79331">
        <ele>347.39999389648</ele>
        <time>2024-06-09T08:26:39Z</time>
      </trkpt>
      <trkpt lat="49.44513" lon="5.79328">
        <ele>347.39999389648</ele>
        <time>2024-06-09T08:26:40Z</time>
      </trkpt>
      <trkpt lat="49.44521" lon="5.79326">
        <ele>347.20001220703</ele>
        <time>2024-06-09T08:26:42Z</time>
      </trkpt>
      <trkpt lat="49.44526" lon="5.79327">
        <ele>347</ele>
        <time>2024-06-09T08:26:44Z</time>
      </trkpt>
      <trkpt lat="49.44529" lon="5.7933">
        <ele>346.79998779297</ele>
        <time>2024-06-09T08:26:46Z</time>
      </trkpt>
      <trkpt lat="49.44535" lon="5.79333">
        <ele>346.79998779297</ele>
        <time>2024-06-09T08:26:48Z</time>
      </trkpt>
      <trkpt lat="49.44537" lon="5.79334">
        <ele>346.79998779297</ele>
        <time>2024-06-09T08:26:49Z</time>
      </trkpt>
      <trkpt lat="49.44539" lon="5.79335">
        <ele>346.79998779297</ele>
        <time>2024-06-09T08:26:50Z</time>
      </trkpt>
      <trkpt lat="49.44542" lon="5.79337">
        <ele>346.79998779297</ele>
        <time>2024-06-09T08:26:51Z</time>
      </trkpt>
      <trkpt lat="49.44544" lon="5.79339">
        <ele>346.60000610352</ele>
        <time>2024-06-09T08:26:52Z</time>
      </trkpt>
      <trkpt lat="49.44548" lon="5.79342">
        <ele>346.60000610352</ele>
        <time>2024-06-09T08:26:54Z</time>
      </trkpt>
      <trkpt lat="49.44554" lon="5.79341">
        <ele>346.60000610352</ele>
        <time>2024-06-09T08:26:56Z</time>
      </trkpt>
      <trkpt lat="49.44563" lon="5.79339">
        <ele>346.60000610352</ele>
        <time>2024-06-09T08:26:58Z</time>
      </trkpt>
      <trkpt lat="49.44568" lon="5.79337">
        <ele>346.39999389648</ele>
        <time>2024-06-09T08:26:59Z</time>
      </trkpt>
      <trkpt lat="49.44573" lon="5.79335">
        <ele>346.39999389648</ele>
        <time>2024-06-09T08:27:00Z</time>
      </trkpt>
      <trkpt lat="49.44579" lon="5.79332">
        <ele>346.39999389648</ele>
        <time>2024-06-09T08:27:01Z</time>
      </trkpt>
      <trkpt lat="49.44583" lon="5.7933">
        <ele>346.39999389648</ele>
        <time>2024-06-09T08:27:02Z</time>
      </trkpt>
      <trkpt lat="49.44592" lon="5.79329">
        <ele>346.39999389648</ele>
        <time>2024-06-09T08:27:04Z</time>
      </trkpt>
      <trkpt lat="49.44595" lon="5.7933">
        <ele>346.20001220703</ele>
        <time>2024-06-09T08:27:05Z</time>
      </trkpt>
      <trkpt lat="49.44598" lon="5.79333">
        <ele>345.39999389648</ele>
        <time>2024-06-09T08:27:06Z</time>
      </trkpt>
      <trkpt lat="49.446" lon="5.79336">
        <ele>344.79998779297</ele>
        <time>2024-06-09T08:27:07Z</time>
      </trkpt>
      <trkpt lat="49.44601" lon="5.7934">
        <ele>344.60000610352</ele>
        <time>2024-06-09T08:27:08Z</time>
      </trkpt>
      <trkpt lat="49.44604" lon="5.79349">
        <ele>344.60000610352</ele>
        <time>2024-06-09T08:27:10Z</time>
      </trkpt>
      <trkpt lat="49.44605" lon="5.79357">
        <ele>344.60000610352</ele>
        <time>2024-06-09T08:27:12Z</time>
      </trkpt>
      <trkpt lat="49.44607" lon="5.79361">
        <ele>344.60000610352</ele>
        <time>2024-06-09T08:27:13Z</time>
      </trkpt>
      <trkpt lat="49.4461" lon="5.79365">
        <ele>344.60000610352</ele>
        <time>2024-06-09T08:27:14Z</time>
      </trkpt>
      <trkpt lat="49.44614" lon="5.79369">
        <ele>344.79998779297</ele>
        <time>2024-06-09T08:27:16Z</time>
      </trkpt>
      <trkpt lat="49.44618" lon="5.79374">
        <ele>345.60000610352</ele>
        <time>2024-06-09T08:27:18Z</time>
      </trkpt>
      <trkpt lat="49.4462" lon="5.79378">
        <ele>346.20001220703</ele>
        <time>2024-06-09T08:27:19Z</time>
      </trkpt>
      <trkpt lat="49.44621" lon="5.79381">
        <ele>346.79998779297</ele>
        <time>2024-06-09T08:27:20Z</time>
      </trkpt>
      <trkpt lat="49.44626" lon="5.79387">
        <ele>347.39999389648</ele>
        <time>2024-06-09T08:27:22Z</time>
      </trkpt>
      <trkpt lat="49.44628" lon="5.7939">
        <ele>347.79998779297</ele>
        <time>2024-06-09T08:27:23Z</time>
      </trkpt>
      <trkpt lat="49.44629" lon="5.79393">
        <ele>348.20001220703</ele>
        <time>2024-06-09T08:27:24Z</time>
      </trkpt>
      <trkpt lat="49.44634" lon="5.794">
        <ele>348.60000610352</ele>
        <time>2024-06-09T08:27:26Z</time>
      </trkpt>
      <trkpt lat="49.44636" lon="5.79402">
        <ele>348.79998779297</ele>
        <time>2024-06-09T08:27:27Z</time>
      </trkpt>
      <trkpt lat="49.44639" lon="5.79404">
        <ele>348.79998779297</ele>
        <time>2024-06-09T08:27:28Z</time>
      </trkpt>
      <trkpt lat="49.44642" lon="5.79407">
        <ele>349</ele>
        <time>2024-06-09T08:27:29Z</time>
      </trkpt>
      <trkpt lat="49.44645" lon="5.7941">
        <ele>349.20001220703</ele>
        <time>2024-06-09T08:27:30Z</time>
      </trkpt>
      <trkpt lat="49.44652" lon="5.79412">
        <ele>349.79998779297</ele>
        <time>2024-06-09T08:27:32Z</time>
      </trkpt>
      <trkpt lat="49.44655" lon="5.79412">
        <ele>350.20001220703</ele>
        <time>2024-06-09T08:27:33Z</time>
      </trkpt>
      <trkpt lat="49.44657" lon="5.79413">
        <ele>350.39999389648</ele>
        <time>2024-06-09T08:27:34Z</time>
      </trkpt>
      <trkpt lat="49.4466" lon="5.79414">
        <ele>350.79998779297</ele>
        <time>2024-06-09T08:27:35Z</time>
      </trkpt>
      <trkpt lat="49.44663" lon="5.79416">
        <ele>350.79998779297</ele>
        <time>2024-06-09T08:27:36Z</time>
      </trkpt>
      <trkpt lat="49.44671" lon="5.79421">
        <ele>351</ele>
        <time>2024-06-09T08:27:38Z</time>
      </trkpt>
      <trkpt lat="49.44677" lon="5.79422">
        <ele>351</ele>
        <time>2024-06-09T08:27:40Z</time>
      </trkpt>
      <trkpt lat="49.44679" lon="5.79423">
        <ele>351</ele>
        <time>2024-06-09T08:27:41Z</time>
      </trkpt>
      <trkpt lat="49.44682" lon="5.79422">
        <ele>351</ele>
        <time>2024-06-09T08:27:42Z</time>
      </trkpt>
      <trkpt lat="49.44688" lon="5.79417">
        <ele>351</ele>
        <time>2024-06-09T08:27:44Z</time>
      </trkpt>
      <trkpt lat="49.44691" lon="5.79414">
        <ele>350.79998779297</ele>
        <time>2024-06-09T08:27:45Z</time>
      </trkpt>
      <trkpt lat="49.44695" lon="5.7941">
        <ele>350.79998779297</ele>
        <time>2024-06-09T08:27:46Z</time>
      </trkpt>
      <trkpt lat="49.447" lon="5.79406">
        <ele>350.60000610352</ele>
        <time>2024-06-09T08:27:47Z</time>
      </trkpt>
      <trkpt lat="49.44704" lon="5.79401">
        <ele>350.60000610352</ele>
        <time>2024-06-09T08:27:48Z</time>
      </trkpt>
      <trkpt lat="49.44708" lon="5.79395">
        <ele>350.39999389648</ele>
        <time>2024-06-09T08:27:49Z</time>
      </trkpt>
      <trkpt lat="49.44713" lon="5.7939">
        <ele>350.39999389648</ele>
        <time>2024-06-09T08:27:50Z</time>
      </trkpt>
      <trkpt lat="49.44718" lon="5.79386">
        <ele>350.39999389648</ele>
        <time>2024-06-09T08:27:51Z</time>
      </trkpt>
      <trkpt lat="49.44722" lon="5.79383">
        <ele>350</ele>
        <time>2024-06-09T08:27:52Z</time>
      </trkpt>
      <trkpt lat="49.44726" lon="5.79383">
        <ele>349.79998779297</ele>
        <time>2024-06-09T08:27:53Z</time>
      </trkpt>
      <trkpt lat="49.44728" lon="5.79385">
        <ele>349.20001220703</ele>
        <time>2024-06-09T08:27:54Z</time>
      </trkpt>
      <trkpt lat="49.44729" lon="5.79388">
        <ele>347.60000610352</ele>
        <time>2024-06-09T08:27:55Z</time>
      </trkpt>
      <trkpt lat="49.44731" lon="5.79391">
        <ele>346.39999389648</ele>
        <time>2024-06-09T08:27:56Z</time>
      </trkpt>
      <trkpt lat="49.44735" lon="5.79397">
        <ele>345</ele>
        <time>2024-06-09T08:27:58Z</time>
      </trkpt>
      <trkpt lat="49.4474" lon="5.79402">
        <ele>344.60000610352</ele>
        <time>2024-06-09T08:28:00Z</time>
      </trkpt>
      <trkpt lat="49.44745" lon="5.79408">
        <ele>344.39999389648</ele>
        <time>2024-06-09T08:28:02Z</time>
      </trkpt>
      <trkpt lat="49.44751" lon="5.79413">
        <ele>344.20001220703</ele>
        <time>2024-06-09T08:28:04Z</time>
      </trkpt>
      <trkpt lat="49.44757" lon="5.79413">
        <ele>344.20001220703</ele>
        <time>2024-06-09T08:28:06Z</time>
      </trkpt>
      <trkpt lat="49.44762" lon="5.79413">
        <ele>344</ele>
        <time>2024-06-09T08:28:08Z</time>
      </trkpt>
      <trkpt lat="49.44766" lon="5.79412">
        <ele>344</ele>
        <time>2024-06-09T08:28:09Z</time>
      </trkpt>
      <trkpt lat="49.44769" lon="5.79411">
        <ele>344</ele>
        <time>2024-06-09T08:28:10Z</time>
      </trkpt>
      <trkpt lat="49.44771" lon="5.79409">
        <ele>344</ele>
        <time>2024-06-09T08:28:11Z</time>
      </trkpt>
      <trkpt lat="49.44774" lon="5.79407">
        <ele>344</ele>
        <time>2024-06-09T08:28:12Z</time>
      </trkpt>
      <trkpt lat="49.44778" lon="5.794">
        <ele>343.39999389648</ele>
        <time>2024-06-09T08:28:14Z</time>
      </trkpt>
      <trkpt lat="49.44783" lon="5.79394">
        <ele>342.79998779297</ele>
        <time>2024-06-09T08:28:16Z</time>
      </trkpt>
      <trkpt lat="49.44788" lon="5.79387">
        <ele>341.20001220703</ele>
        <time>2024-06-09T08:28:18Z</time>
      </trkpt>
      <trkpt lat="49.44795" lon="5.79379">
        <ele>339.39999389648</ele>
        <time>2024-06-09T08:28:20Z</time>
      </trkpt>
      <trkpt lat="49.44797" lon="5.79374">
        <ele>338.20001220703</ele>
        <time>2024-06-09T08:28:21Z</time>
      </trkpt>
      <trkpt lat="49.448" lon="5.79369">
        <ele>337.20001220703</ele>
        <time>2024-06-09T08:28:22Z</time>
      </trkpt>
      <trkpt lat="49.44802" lon="5.79363">
        <ele>336.20001220703</ele>
        <time>2024-06-09T08:28:23Z</time>
      </trkpt>
      <trkpt lat="49.44804" lon="5.79356">
        <ele>335.39999389648</ele>
        <time>2024-06-09T08:28:24Z</time>
      </trkpt>
      <trkpt lat="49.44805" lon="5.79351">
        <ele>334.20001220703</ele>
        <time>2024-06-09T08:28:25Z</time>
      </trkpt>
      <trkpt lat="49.44807" lon="5.79345">
        <ele>332.39999389648</ele>
        <time>2024-06-09T08:28:26Z</time>
      </trkpt>
      <trkpt lat="49.4481" lon="5.7934">
        <ele>330.60000610352</ele>
        <time>2024-06-09T08:28:27Z</time>
      </trkpt>
      <trkpt lat="49.44812" lon="5.79334">
        <ele>328.79998779297</ele>
        <time>2024-06-09T08:28:28Z</time>
      </trkpt>
      <trkpt lat="49.44815" lon="5.79328">
        <ele>327</ele>
        <time>2024-06-09T08:28:29Z</time>
      </trkpt>
      <trkpt lat="49.44817" lon="5.7932">
        <ele>325.20001220703</ele>
        <time>2024-06-09T08:28:30Z</time>
      </trkpt>
      <trkpt lat="49.44818" lon="5.79312">
        <ele>323.60000610352</ele>
        <time>2024-06-09T08:28:31Z</time>
      </trkpt>
      <trkpt lat="49.44819" lon="5.79305">
        <ele>320.60000610352</ele>
        <time>2024-06-09T08:28:32Z</time>
      </trkpt>
      <trkpt lat="49.44821" lon="5.79295">
        <ele>319.60000610352</ele>
        <time>2024-06-09T08:28:33Z</time>
      </trkpt>
      <trkpt lat="49.44825" lon="5.79287">
        <ele>318.60000610352</ele>
        <time>2024-06-09T08:28:34Z</time>
      </trkpt>
      <trkpt lat="49.44827" lon="5.79278">
        <ele>318</ele>
        <time>2024-06-09T08:28:35Z</time>
      </trkpt>
      <trkpt lat="49.44829" lon="5.79271">
        <ele>317.39999389648</ele>
        <time>2024-06-09T08:28:36Z</time>
      </trkpt>
      <trkpt lat="49.44831" lon="5.79263">
        <ele>316.60000610352</ele>
        <time>2024-06-09T08:28:37Z</time>
      </trkpt>
      <trkpt lat="49.4483" lon="5.7925">
        <ele>316</ele>
        <time>2024-06-09T08:28:38Z</time>
      </trkpt>
      <trkpt lat="49.4483" lon="5.79237">
        <ele>314</ele>
        <time>2024-06-09T08:28:40Z</time>
      </trkpt>
      <trkpt lat="49.4483" lon="5.79231">
        <ele>312.79998779297</ele>
        <time>2024-06-09T08:28:41Z</time>
      </trkpt>
      <trkpt lat="49.44828" lon="5.79225">
        <ele>311.39999389648</ele>
        <time>2024-06-09T08:28:42Z</time>
      </trkpt>
      <trkpt lat="49.44826" lon="5.79217">
        <ele>310</ele>
        <time>2024-06-09T08:28:43Z</time>
      </trkpt>
      <trkpt lat="49.4482" lon="5.79202">
        <ele>309</ele>
        <time>2024-06-09T08:28:44Z</time>
      </trkpt>
      <trkpt lat="49.44811" lon="5.79184">
        <ele>308.60000610352</ele>
        <time>2024-06-09T08:28:45Z</time>
      </trkpt>
      <trkpt lat="49.44804" lon="5.79173">
        <ele>308.20001220703</ele>
        <time>2024-06-09T08:28:46Z</time>
      </trkpt>
      <trkpt lat="49.44798" lon="5.79163">
        <ele>308</ele>
        <time>2024-06-09T08:28:47Z</time>
      </trkpt>
      <trkpt lat="49.4479" lon="5.79153">
        <ele>307.79998779297</ele>
        <time>2024-06-09T08:28:48Z</time>
      </trkpt>
      <trkpt lat="49.44783" lon="5.79146">
        <ele>307.39999389648</ele>
        <time>2024-06-09T08:28:49Z</time>
      </trkpt>
      <trkpt lat="49.44777" lon="5.79143">
        <ele>306.60000610352</ele>
        <time>2024-06-09T08:28:50Z</time>
      </trkpt>
      <trkpt lat="49.44772" lon="5.79138">
        <ele>305.60000610352</ele>
        <time>2024-06-09T08:28:51Z</time>
      </trkpt>
      <trkpt lat="49.44768" lon="5.79133">
        <ele>305</ele>
        <time>2024-06-09T08:28:52Z</time>
      </trkpt>
      <trkpt lat="49.44766" lon="5.79124">
        <ele>304.60000610352</ele>
        <time>2024-06-09T08:28:53Z</time>
      </trkpt>
      <trkpt lat="49.44763" lon="5.79116">
        <ele>304.39999389648</ele>
        <time>2024-06-09T08:28:54Z</time>
      </trkpt>
      <trkpt lat="49.44756" lon="5.79101">
        <ele>304</ele>
        <time>2024-06-09T08:28:56Z</time>
      </trkpt>
      <trkpt lat="49.44748" lon="5.79088">
        <ele>303.79998779297</ele>
        <time>2024-06-09T08:28:58Z</time>
      </trkpt>
      <trkpt lat="49.44743" lon="5.79082">
        <ele>303.79998779297</ele>
        <time>2024-06-09T08:28:59Z</time>
      </trkpt>
      <trkpt lat="49.44739" lon="5.79077">
        <ele>303.60000610352</ele>
        <time>2024-06-09T08:29:00Z</time>
      </trkpt>
      <trkpt lat="49.4473" lon="5.7907">
        <ele>303.60000610352</ele>
        <time>2024-06-09T08:29:02Z</time>
      </trkpt>
      <trkpt lat="49.44725" lon="5.79068">
        <ele>303.39999389648</ele>
        <time>2024-06-09T08:29:03Z</time>
      </trkpt>
      <trkpt lat="49.44719" lon="5.79066">
        <ele>303.39999389648</ele>
        <time>2024-06-09T08:29:04Z</time>
      </trkpt>
      <trkpt lat="49.44708" lon="5.79065">
        <ele>303.39999389648</ele>
        <time>2024-06-09T08:29:06Z</time>
      </trkpt>
      <trkpt lat="49.44702" lon="5.79065">
        <ele>303.20001220703</ele>
        <time>2024-06-09T08:29:08Z</time>
      </trkpt>
      <trkpt lat="49.447" lon="5.79059">
        <ele>303.20001220703</ele>
        <time>2024-06-09T08:29:10Z</time>
      </trkpt>
      <trkpt lat="49.447" lon="5.79056">
        <ele>303.20001220703</ele>
        <time>2024-06-09T08:29:11Z</time>
      </trkpt>
      <trkpt lat="49.44699" lon="5.79053">
        <ele>303.20001220703</ele>
        <time>2024-06-09T08:29:12Z</time>
      </trkpt>
      <trkpt lat="49.44694" lon="5.79049">
        <ele>303.20001220703</ele>
        <time>2024-06-09T08:29:14Z</time>
      </trkpt>
      <trkpt lat="49.44692" lon="5.79047">
        <ele>303.20001220703</ele>
        <time>2024-06-09T08:29:15Z</time>
      </trkpt>
      <trkpt lat="49.44691" lon="5.79045">
        <ele>303.20001220703</ele>
        <time>2024-06-09T08:29:16Z</time>
      </trkpt>
      <trkpt lat="49.44692" lon="5.7904">
        <ele>303.20001220703</ele>
        <time>2024-06-09T08:29:18Z</time>
      </trkpt>
      <trkpt lat="49.44692" lon="5.79037">
        <ele>303.20001220703</ele>
        <time>2024-06-09T08:29:19Z</time>
      </trkpt>
      <trkpt lat="49.44692" lon="5.79034">
        <ele>303.20001220703</ele>
        <time>2024-06-09T08:29:20Z</time>
      </trkpt>
      <trkpt lat="49.44691" lon="5.79029">
        <ele>303.39999389648</ele>
        <time>2024-06-09T08:29:22Z</time>
      </trkpt>
      <trkpt lat="49.4469" lon="5.79024">
        <ele>303.39999389648</ele>
        <time>2024-06-09T08:29:24Z</time>
      </trkpt>
      <trkpt lat="49.44688" lon="5.79022">
        <ele>303.39999389648</ele>
        <time>2024-06-09T08:29:25Z</time>
      </trkpt>
      <trkpt lat="49.44686" lon="5.79021">
        <ele>303.60000610352</ele>
        <time>2024-06-09T08:29:26Z</time>
      </trkpt>
      <trkpt lat="49.44686" lon="5.79016">
        <ele>303.60000610352</ele>
        <time>2024-06-09T08:29:28Z</time>
      </trkpt>
      <trkpt lat="49.44686" lon="5.79013">
        <ele>304</ele>
        <time>2024-06-09T08:29:30Z</time>
      </trkpt>
      <trkpt lat="49.44687" lon="5.79012">
        <ele>304.39999389648</ele>
        <time>2024-06-09T08:29:31Z</time>
      </trkpt>
      <trkpt lat="49.44687" lon="5.7901">
        <ele>304.60000610352</ele>
        <time>2024-06-09T08:29:32Z</time>
      </trkpt>
      <trkpt lat="49.44686" lon="5.79008">
        <ele>305.39999389648</ele>
        <time>2024-06-09T08:29:34Z</time>
      </trkpt>
      <trkpt lat="49.44686" lon="5.79005">
        <ele>306</ele>
        <time>2024-06-09T08:29:35Z</time>
      </trkpt>
      <trkpt lat="49.44685" lon="5.79004">
        <ele>306.39999389648</ele>
        <time>2024-06-09T08:29:36Z</time>
      </trkpt>
      <trkpt lat="49.44683" lon="5.79001">
        <ele>307.39999389648</ele>
        <time>2024-06-09T08:29:38Z</time>
      </trkpt>
      <trkpt lat="49.44681" lon="5.78999">
        <ele>308.39999389648</ele>
        <time>2024-06-09T08:29:40Z</time>
      </trkpt>
      <trkpt lat="49.44678" lon="5.78998">
        <ele>309</ele>
        <time>2024-06-09T08:29:41Z</time>
      </trkpt>
      <trkpt lat="49.44676" lon="5.78997">
        <ele>309.60000610352</ele>
        <time>2024-06-09T08:29:42Z</time>
      </trkpt>
      <trkpt lat="49.44673" lon="5.78996">
        <ele>310.39999389648</ele>
        <time>2024-06-09T08:29:44Z</time>
      </trkpt>
      <trkpt lat="49.44671" lon="5.78995">
        <ele>310.79998779297</ele>
        <time>2024-06-09T08:29:45Z</time>
      </trkpt>
      <trkpt lat="49.44669" lon="5.78995">
        <ele>310.79998779297</ele>
        <time>2024-06-09T08:29:46Z</time>
      </trkpt>
      <trkpt lat="49.44664" lon="5.78996">
        <ele>311</ele>
        <time>2024-06-09T08:29:48Z</time>
      </trkpt>
      <trkpt lat="49.44662" lon="5.78997">
        <ele>311</ele>
        <time>2024-06-09T08:29:49Z</time>
      </trkpt>
      <trkpt lat="49.4466" lon="5.78997">
        <ele>311</ele>
        <time>2024-06-09T08:29:50Z</time>
      </trkpt>
      <trkpt lat="49.44655" lon="5.79">
        <ele>311</ele>
        <time>2024-06-09T08:29:52Z</time>
      </trkpt>
      <trkpt lat="49.44649" lon="5.79003">
        <ele>311.20001220703</ele>
        <time>2024-06-09T08:29:54Z</time>
      </trkpt>
      <trkpt lat="49.44647" lon="5.79004">
        <ele>311.20001220703</ele>
        <time>2024-06-09T08:29:55Z</time>
      </trkpt>
      <trkpt lat="49.44645" lon="5.79005">
        <ele>311.20001220703</ele>
        <time>2024-06-09T08:29:56Z</time>
      </trkpt>
      <trkpt lat="49.44641" lon="5.79006">
        <ele>311.20001220703</ele>
        <time>2024-06-09T08:29:58Z</time>
      </trkpt>
      <trkpt lat="49.44637" lon="5.79008">
        <ele>311.20001220703</ele>
        <time>2024-06-09T08:30:00Z</time>
      </trkpt>
      <trkpt lat="49.44633" lon="5.7901">
        <ele>311.39999389648</ele>
        <time>2024-06-09T08:30:02Z</time>
      </trkpt>
      <trkpt lat="49.44628" lon="5.79011">
        <ele>311.60000610352</ele>
        <time>2024-06-09T08:30:04Z</time>
      </trkpt>
      <trkpt lat="49.44623" lon="5.79012">
        <ele>311.79998779297</ele>
        <time>2024-06-09T08:30:06Z</time>
      </trkpt>
      <trkpt lat="49.4462" lon="5.79012">
        <ele>311.79998779297</ele>
        <time>2024-06-09T08:30:07Z</time>
      </trkpt>
      <trkpt lat="49.44617" lon="5.79013">
        <ele>311.79998779297</ele>
        <time>2024-06-09T08:30:08Z</time>
      </trkpt>
      <trkpt lat="49.44607" lon="5.79012">
        <ele>311.79998779297</ele>
        <time>2024-06-09T08:30:10Z</time>
      </trkpt>
      <trkpt lat="49.44601" lon="5.79011">
        <ele>311.79998779297</ele>
        <time>2024-06-09T08:30:11Z</time>
      </trkpt>
      <trkpt lat="49.44595" lon="5.79007">
        <ele>311.79998779297</ele>
        <time>2024-06-09T08:30:12Z</time>
      </trkpt>
      <trkpt lat="49.44583" lon="5.79001">
        <ele>311.79998779297</ele>
        <time>2024-06-09T08:30:14Z</time>
      </trkpt>
      <trkpt lat="49.4457" lon="5.78995">
        <ele>311.20001220703</ele>
        <time>2024-06-09T08:30:16Z</time>
      </trkpt>
      <trkpt lat="49.44564" lon="5.78992">
        <ele>310.60000610352</ele>
        <time>2024-06-09T08:30:17Z</time>
      </trkpt>
      <trkpt lat="49.44559" lon="5.7899">
        <ele>309.79998779297</ele>
        <time>2024-06-09T08:30:18Z</time>
      </trkpt>
      <trkpt lat="49.44554" lon="5.78988">
        <ele>309</ele>
        <time>2024-06-09T08:30:19Z</time>
      </trkpt>
      <trkpt lat="49.4455" lon="5.78986">
        <ele>307.60000610352</ele>
        <time>2024-06-09T08:30:20Z</time>
      </trkpt>
      <trkpt lat="49.44546" lon="5.78985">
        <ele>306.79998779297</ele>
        <time>2024-06-09T08:30:21Z</time>
      </trkpt>
      <trkpt lat="49.44542" lon="5.78983">
        <ele>306.60000610352</ele>
        <time>2024-06-09T08:30:22Z</time>
      </trkpt>
      <trkpt lat="49.44534" lon="5.78979">
        <ele>306</ele>
        <time>2024-06-09T08:30:24Z</time>
      </trkpt>
      <trkpt lat="49.44523" lon="5.78977">
        <ele>305.60000610352</ele>
        <time>2024-06-09T08:30:26Z</time>
      </trkpt>
      <trkpt lat="49.44519" lon="5.78975">
        <ele>305.60000610352</ele>
        <time>2024-06-09T08:30:27Z</time>
      </trkpt>
      <trkpt lat="49.44514" lon="5.78973">
        <ele>305.60000610352</ele>
        <time>2024-06-09T08:30:28Z</time>
      </trkpt>
      <trkpt lat="49.44503" lon="5.78971">
        <ele>305.60000610352</ele>
        <time>2024-06-09T08:30:30Z</time>
      </trkpt>
      <trkpt lat="49.44492" lon="5.78973">
        <ele>305.60000610352</ele>
        <time>2024-06-09T08:30:32Z</time>
      </trkpt>
      <trkpt lat="49.44482" lon="5.78972">
        <ele>305.60000610352</ele>
        <time>2024-06-09T08:30:34Z</time>
      </trkpt>
      <trkpt lat="49.44477" lon="5.78972">
        <ele>305.60000610352</ele>
        <time>2024-06-09T08:30:35Z</time>
      </trkpt>
      <trkpt lat="49.44473" lon="5.78973">
        <ele>305.60000610352</ele>
        <time>2024-06-09T08:30:36Z</time>
      </trkpt>
      <trkpt lat="49.44469" lon="5.78972">
        <ele>305.60000610352</ele>
        <time>2024-06-09T08:30:37Z</time>
      </trkpt>
      <trkpt lat="49.44467" lon="5.78971">
        <ele>305.60000610352</ele>
        <time>2024-06-09T08:30:38Z</time>
      </trkpt>
      <trkpt lat="49.44464" lon="5.7897">
        <ele>305.60000610352</ele>
        <time>2024-06-09T08:30:39Z</time>
      </trkpt>
      <trkpt lat="49.4446" lon="5.7897">
        <ele>305.60000610352</ele>
        <time>2024-06-09T08:30:40Z</time>
      </trkpt>
      <trkpt lat="49.44456" lon="5.78972">
        <ele>305.60000610352</ele>
        <time>2024-06-09T08:30:41Z</time>
      </trkpt>
      <trkpt lat="49.44453" lon="5.78973">
        <ele>305.60000610352</ele>
        <time>2024-06-09T08:30:42Z</time>
      </trkpt>
      <trkpt lat="49.44445" lon="5.78972">
        <ele>305.60000610352</ele>
        <time>2024-06-09T08:30:44Z</time>
      </trkpt>
      <trkpt lat="49.44441" lon="5.78972">
        <ele>305.60000610352</ele>
        <time>2024-06-09T08:30:45Z</time>
      </trkpt>
      <trkpt lat="49.44437" lon="5.78971">
        <ele>305.60000610352</ele>
        <time>2024-06-09T08:30:46Z</time>
      </trkpt>
      <trkpt lat="49.4443" lon="5.7897">
        <ele>305.79998779297</ele>
        <time>2024-06-09T08:30:48Z</time>
      </trkpt>
      <trkpt lat="49.44423" lon="5.7897">
        <ele>305.79998779297</ele>
        <time>2024-06-09T08:30:50Z</time>
      </trkpt>
      <trkpt lat="49.44413" lon="5.78969">
        <ele>305.79998779297</ele>
        <time>2024-06-09T08:30:52Z</time>
      </trkpt>
      <trkpt lat="49.44403" lon="5.78967">
        <ele>305.79998779297</ele>
        <time>2024-06-09T08:30:54Z</time>
      </trkpt>
      <trkpt lat="49.44391" lon="5.7897">
        <ele>305.79998779297</ele>
        <time>2024-06-09T08:30:56Z</time>
      </trkpt>
      <trkpt lat="49.44385" lon="5.78972">
        <ele>305.79998779297</ele>
        <time>2024-06-09T08:30:57Z</time>
      </trkpt>
      <trkpt lat="49.4438" lon="5.78973">
        <ele>305.79998779297</ele>
        <time>2024-06-09T08:30:58Z</time>
      </trkpt>
      <trkpt lat="49.44368" lon="5.78973">
        <ele>305.60000610352</ele>
        <time>2024-06-09T08:31:00Z</time>
      </trkpt>
      <trkpt lat="49.44357" lon="5.78971">
        <ele>305</ele>
        <time>2024-06-09T08:31:02Z</time>
      </trkpt>
      <trkpt lat="49.4435" lon="5.78972">
        <ele>304.39999389648</ele>
        <time>2024-06-09T08:31:03Z</time>
      </trkpt>
      <trkpt lat="49.44344" lon="5.78972">
        <ele>304</ele>
        <time>2024-06-09T08:31:04Z</time>
      </trkpt>
      <trkpt lat="49.4434" lon="5.78971">
        <ele>303.79998779297</ele>
        <time>2024-06-09T08:31:05Z</time>
      </trkpt>
      <trkpt lat="49.44335" lon="5.78971">
        <ele>303.39999389648</ele>
        <time>2024-06-09T08:31:06Z</time>
      </trkpt>
      <trkpt lat="49.44323" lon="5.78975">
        <ele>303</ele>
        <time>2024-06-09T08:31:08Z</time>
      </trkpt>
      <trkpt lat="49.44318" lon="5.78976">
        <ele>302.79998779297</ele>
        <time>2024-06-09T08:31:09Z</time>
      </trkpt>
      <trkpt lat="49.44313" lon="5.78979">
        <ele>302.79998779297</ele>
        <time>2024-06-09T08:31:10Z</time>
      </trkpt>
      <trkpt lat="49.44308" lon="5.78981">
        <ele>302.60000610352</ele>
        <time>2024-06-09T08:31:11Z</time>
      </trkpt>
      <trkpt lat="49.44303" lon="5.78982">
        <ele>302.60000610352</ele>
        <time>2024-06-09T08:31:12Z</time>
      </trkpt>
      <trkpt lat="49.44298" lon="5.78983">
        <ele>302.20001220703</ele>
        <time>2024-06-09T08:31:13Z</time>
      </trkpt>
      <trkpt lat="49.44294" lon="5.78985">
        <ele>301.60000610352</ele>
        <time>2024-06-09T08:31:14Z</time>
      </trkpt>
      <trkpt lat="49.44287" lon="5.78987">
        <ele>301.20001220703</ele>
        <time>2024-06-09T08:31:15Z</time>
      </trkpt>
      <trkpt lat="49.44281" lon="5.78987">
        <ele>300.79998779297</ele>
        <time>2024-06-09T08:31:16Z</time>
      </trkpt>
      <trkpt lat="49.44275" lon="5.78988">
        <ele>300.60000610352</ele>
        <time>2024-06-09T08:31:17Z</time>
      </trkpt>
      <trkpt lat="49.44269" lon="5.7899">
        <ele>300.39999389648</ele>
        <time>2024-06-09T08:31:18Z</time>
      </trkpt>
      <trkpt lat="49.44261" lon="5.78993">
        <ele>300</ele>
        <time>2024-06-09T08:31:19Z</time>
      </trkpt>
      <trkpt lat="49.44255" lon="5.78994">
        <ele>299.60000610352</ele>
        <time>2024-06-09T08:31:20Z</time>
      </trkpt>
      <trkpt lat="49.4425" lon="5.78994">
        <ele>299.39999389648</ele>
        <time>2024-06-09T08:31:21Z</time>
      </trkpt>
      <trkpt lat="49.44246" lon="5.78994">
        <ele>299.20001220703</ele>
        <time>2024-06-09T08:31:22Z</time>
      </trkpt>
      <trkpt lat="49.44234" lon="5.78998">
        <ele>299.20001220703</ele>
        <time>2024-06-09T08:31:24Z</time>
      </trkpt>
      <trkpt lat="49.44223" lon="5.79002">
        <ele>299.20001220703</ele>
        <time>2024-06-09T08:31:26Z</time>
      </trkpt>
      <trkpt lat="49.44219" lon="5.79003">
        <ele>299</ele>
        <time>2024-06-09T08:31:27Z</time>
      </trkpt>
      <trkpt lat="49.44213" lon="5.79005">
        <ele>299</ele>
        <time>2024-06-09T08:31:28Z</time>
      </trkpt>
      <trkpt lat="49.44209" lon="5.79006">
        <ele>299</ele>
        <time>2024-06-09T08:31:29Z</time>
      </trkpt>
      <trkpt lat="49.44204" lon="5.79008">
        <ele>299</ele>
        <time>2024-06-09T08:31:30Z</time>
      </trkpt>
      <trkpt lat="49.44194" lon="5.79012">
        <ele>298.79998779297</ele>
        <time>2024-06-09T08:31:32Z</time>
      </trkpt>
      <trkpt lat="49.44189" lon="5.79013">
        <ele>298.79998779297</ele>
        <time>2024-06-09T08:31:33Z</time>
      </trkpt>
      <trkpt lat="49.44184" lon="5.79014">
        <ele>298.79998779297</ele>
        <time>2024-06-09T08:31:34Z</time>
      </trkpt>
      <trkpt lat="49.44175" lon="5.79015">
        <ele>298.79998779297</ele>
        <time>2024-06-09T08:31:36Z</time>
      </trkpt>
      <trkpt lat="49.44164" lon="5.79016">
        <ele>298.79998779297</ele>
        <time>2024-06-09T08:31:38Z</time>
      </trkpt>
      <trkpt lat="49.44159" lon="5.79017">
        <ele>298.79998779297</ele>
        <time>2024-06-09T08:31:39Z</time>
      </trkpt>
      <trkpt lat="49.44154" lon="5.79017">
        <ele>298.79998779297</ele>
        <time>2024-06-09T08:31:40Z</time>
      </trkpt>
      <trkpt lat="49.44148" lon="5.79017">
        <ele>298.79998779297</ele>
        <time>2024-06-09T08:31:42Z</time>
      </trkpt>
      <trkpt lat="49.44145" lon="5.79019">
        <ele>298.79998779297</ele>
        <time>2024-06-09T08:31:43Z</time>
      </trkpt>
      <trkpt lat="49.44141" lon="5.7902">
        <ele>298.79998779297</ele>
        <time>2024-06-09T08:31:44Z</time>
      </trkpt>
      <trkpt lat="49.44135" lon="5.79023">
        <ele>299</ele>
        <time>2024-06-09T08:31:46Z</time>
      </trkpt>
      <trkpt lat="49.4413" lon="5.79026">
        <ele>299.79998779297</ele>
        <time>2024-06-09T08:31:48Z</time>
      </trkpt>
      <trkpt lat="49.44124" lon="5.7903">
        <ele>301.60000610352</ele>
        <time>2024-06-09T08:31:50Z</time>
      </trkpt>
      <trkpt lat="49.44121" lon="5.79033">
        <ele>302</ele>
        <time>2024-06-09T08:31:51Z</time>
      </trkpt>
      <trkpt lat="49.44118" lon="5.79034">
        <ele>302.39999389648</ele>
        <time>2024-06-09T08:31:52Z</time>
      </trkpt>
      <trkpt lat="49.44115" lon="5.79034">
        <ele>302.79998779297</ele>
        <time>2024-06-09T08:31:53Z</time>
      </trkpt>
      <trkpt lat="49.44112" lon="5.79034">
        <ele>303.20001220703</ele>
        <time>2024-06-09T08:31:54Z</time>
      </trkpt>
      <trkpt lat="49.44108" lon="5.79032">
        <ele>303.79998779297</ele>
        <time>2024-06-09T08:31:56Z</time>
      </trkpt>
      <trkpt lat="49.44107" lon="5.79031">
        <ele>304.20001220703</ele>
        <time>2024-06-09T08:31:57Z</time>
      </trkpt>
      <trkpt lat="49.44106" lon="5.79031">
        <ele>304.60000610352</ele>
        <time>2024-06-09T08:31:58Z</time>
      </trkpt>
      <trkpt lat="49.44105" lon="5.79029">
        <ele>304.79998779297</ele>
        <time>2024-06-09T08:32:00Z</time>
      </trkpt>
      <trkpt lat="49.44105" lon="5.79028">
        <ele>305</ele>
        <time>2024-06-09T08:32:01Z</time>
      </trkpt>
      <trkpt lat="49.44105" lon="5.79027">
        <ele>305</ele>
        <time>2024-06-09T08:32:02Z</time>
      </trkpt>
      <trkpt lat="49.44104" lon="5.79025">
        <ele>305.20001220703</ele>
        <time>2024-06-09T08:32:04Z</time>
      </trkpt>
      <trkpt lat="49.44104" lon="5.79024">
        <ele>305.20001220703</ele>
        <time>2024-06-09T08:32:05Z</time>
      </trkpt>
      <trkpt lat="49.44104" lon="5.79022">
        <ele>305.39999389648</ele>
        <time>2024-06-09T08:32:06Z</time>
      </trkpt>
      <trkpt lat="49.44103" lon="5.7902">
        <ele>305.60000610352</ele>
        <time>2024-06-09T08:32:07Z</time>
      </trkpt>
      <trkpt lat="49.44102" lon="5.79017">
        <ele>305.79998779297</ele>
        <time>2024-06-09T08:32:08Z</time>
      </trkpt>
      <trkpt lat="49.441" lon="5.79014">
        <ele>306</ele>
        <time>2024-06-09T08:32:09Z</time>
      </trkpt>
      <trkpt lat="49.44099" lon="5.79012">
        <ele>306.39999389648</ele>
        <time>2024-06-09T08:32:10Z</time>
      </trkpt>
      <trkpt lat="49.44099" lon="5.7901">
        <ele>306.60000610352</ele>
        <time>2024-06-09T08:32:11Z</time>
      </trkpt>
      <trkpt lat="49.44099" lon="5.79009">
        <ele>306.79998779297</ele>
        <time>2024-06-09T08:32:12Z</time>
      </trkpt>
      <trkpt lat="49.44099" lon="5.79008">
        <ele>307.20001220703</ele>
        <time>2024-06-09T08:32:13Z</time>
      </trkpt>
      <trkpt lat="49.44098" lon="5.79006">
        <ele>307.39999389648</ele>
        <time>2024-06-09T08:32:14Z</time>
      </trkpt>
      <trkpt lat="49.44096" lon="5.79003">
        <ele>308</ele>
        <time>2024-06-09T08:32:16Z</time>
      </trkpt>
      <trkpt lat="49.44096" lon="5.79001">
        <ele>308.20001220703</ele>
        <time>2024-06-09T08:32:17Z</time>
      </trkpt>
      <trkpt lat="49.44095" lon="5.78999">
        <ele>308.39999389648</ele>
        <time>2024-06-09T08:32:18Z</time>
      </trkpt>
      <trkpt lat="49.44095" lon="5.78997">
        <ele>309</ele>
        <time>2024-06-09T08:32:19Z</time>
      </trkpt>
      <trkpt lat="49.44094" lon="5.78995">
        <ele>309.20001220703</ele>
        <time>2024-06-09T08:32:20Z</time>
      </trkpt>
      <trkpt lat="49.44094" lon="5.78992">
        <ele>309.79998779297</ele>
        <time>2024-06-09T08:32:22Z</time>
      </trkpt>
      <trkpt lat="49.44093" lon="5.78989">
        <ele>310.39999389648</ele>
        <time>2024-06-09T08:32:24Z</time>
      </trkpt>
      <trkpt lat="49.44092" lon="5.78986">
        <ele>311</ele>
        <time>2024-06-09T08:32:26Z</time>
      </trkpt>
      <trkpt lat="49.44091" lon="5.78982">
        <ele>311.79998779297</ele>
        <time>2024-06-09T08:32:28Z</time>
      </trkpt>
      <trkpt lat="49.44089" lon="5.78978">
        <ele>312.39999389648</ele>
        <time>2024-06-09T08:32:30Z</time>
      </trkpt>
      <trkpt lat="49.44087" lon="5.78976">
        <ele>312.79998779297</ele>
        <time>2024-06-09T08:32:32Z</time>
      </trkpt>
      <trkpt lat="49.44086" lon="5.78974">
        <ele>313.39999389648</ele>
        <time>2024-06-09T08:32:34Z</time>
      </trkpt>
      <trkpt lat="49.44084" lon="5.78972">
        <ele>314.20001220703</ele>
        <time>2024-06-09T08:32:36Z</time>
      </trkpt>
      <trkpt lat="49.44082" lon="5.78969">
        <ele>314.79998779297</ele>
        <time>2024-06-09T08:32:38Z</time>
      </trkpt>
      <trkpt lat="49.44082" lon="5.78968">
        <ele>315.20001220703</ele>
        <time>2024-06-09T08:32:39Z</time>
      </trkpt>
      <trkpt lat="49.44081" lon="5.78967">
        <ele>315.39999389648</ele>
        <time>2024-06-09T08:32:40Z</time>
      </trkpt>
      <trkpt lat="49.44081" lon="5.78964">
        <ele>315.79998779297</ele>
        <time>2024-06-09T08:32:42Z</time>
      </trkpt>
      <trkpt lat="49.4408" lon="5.78961">
        <ele>316.20001220703</ele>
        <time>2024-06-09T08:32:44Z</time>
      </trkpt>
      <trkpt lat="49.44079" lon="5.78958">
        <ele>316.79998779297</ele>
        <time>2024-06-09T08:32:46Z</time>
      </trkpt>
      <trkpt lat="49.44078" lon="5.78957">
        <ele>317.39999389648</ele>
        <time>2024-06-09T08:32:47Z</time>
      </trkpt>
      <trkpt lat="49.44077" lon="5.78955">
        <ele>317.60000610352</ele>
        <time>2024-06-09T08:32:48Z</time>
      </trkpt>
      <trkpt lat="49.44076" lon="5.78951">
        <ele>318.20001220703</ele>
        <time>2024-06-09T08:32:50Z</time>
      </trkpt>
      <trkpt lat="49.44076" lon="5.7895">
        <ele>318.39999389648</ele>
        <time>2024-06-09T08:32:51Z</time>
      </trkpt>
      <trkpt lat="49.44076" lon="5.78948">
        <ele>318.60000610352</ele>
        <time>2024-06-09T08:32:52Z</time>
      </trkpt>
      <trkpt lat="49.44075" lon="5.78945">
        <ele>319.20001220703</ele>
        <time>2024-06-09T08:32:54Z</time>
      </trkpt>
      <trkpt lat="49.44075" lon="5.78943">
        <ele>319.39999389648</ele>
        <time>2024-06-09T08:32:55Z</time>
      </trkpt>
      <trkpt lat="49.44075" lon="5.78942">
        <ele>319.60000610352</ele>
        <time>2024-06-09T08:32:56Z</time>
      </trkpt>
      <trkpt lat="49.44074" lon="5.78939">
        <ele>320</ele>
        <time>2024-06-09T08:32:58Z</time>
      </trkpt>
      <trkpt lat="49.44074" lon="5.78935">
        <ele>320.39999389648</ele>
        <time>2024-06-09T08:33:00Z</time>
      </trkpt>
      <trkpt lat="49.44074" lon="5.78932">
        <ele>321</ele>
        <time>2024-06-09T08:33:02Z</time>
      </trkpt>
      <trkpt lat="49.44074" lon="5.7893">
        <ele>321.20001220703</ele>
        <time>2024-06-09T08:33:03Z</time>
      </trkpt>
      <trkpt lat="49.44075" lon="5.78928">
        <ele>321.60000610352</ele>
        <time>2024-06-09T08:33:04Z</time>
      </trkpt>
      <trkpt lat="49.44076" lon="5.78925">
        <ele>322.20001220703</ele>
        <time>2024-06-09T08:33:06Z</time>
      </trkpt>
      <trkpt lat="49.44077" lon="5.78923">
        <ele>322.79998779297</ele>
        <time>2024-06-09T08:33:08Z</time>
      </trkpt>
      <trkpt lat="49.44078" lon="5.7892">
        <ele>323.20001220703</ele>
        <time>2024-06-09T08:33:10Z</time>
      </trkpt>
      <trkpt lat="49.44079" lon="5.78918">
        <ele>323.79998779297</ele>
        <time>2024-06-09T08:33:12Z</time>
      </trkpt>
      <trkpt lat="49.44079" lon="5.78916">
        <ele>324.20001220703</ele>
        <time>2024-06-09T08:33:13Z</time>
      </trkpt>
      <trkpt lat="49.4408" lon="5.78914">
        <ele>324.60000610352</ele>
        <time>2024-06-09T08:33:14Z</time>
      </trkpt>
      <trkpt lat="49.4408" lon="5.78912">
        <ele>325</ele>
        <time>2024-06-09T08:33:15Z</time>
      </trkpt>
      <trkpt lat="49.4408" lon="5.78911">
        <ele>325.39999389648</ele>
        <time>2024-06-09T08:33:16Z</time>
      </trkpt>
      <trkpt lat="49.4408" lon="5.7891">
        <ele>326</ele>
        <time>2024-06-09T08:33:17Z</time>
      </trkpt>
      <trkpt lat="49.4408" lon="5.78909">
        <ele>326.20001220703</ele>
        <time>2024-06-09T08:33:18Z</time>
      </trkpt>
      <trkpt lat="49.4408" lon="5.78906">
        <ele>326.60000610352</ele>
        <time>2024-06-09T08:33:20Z</time>
      </trkpt>
      <trkpt lat="49.4408" lon="5.78903">
        <ele>327.20001220703</ele>
        <time>2024-06-09T08:33:22Z</time>
      </trkpt>
      <trkpt lat="49.4408" lon="5.78901">
        <ele>327.60000610352</ele>
        <time>2024-06-09T08:33:23Z</time>
      </trkpt>
      <trkpt lat="49.4408" lon="5.789">
        <ele>327.79998779297</ele>
        <time>2024-06-09T08:33:24Z</time>
      </trkpt>
      <trkpt lat="49.44079" lon="5.78897">
        <ele>328.39999389648</ele>
        <time>2024-06-09T08:33:26Z</time>
      </trkpt>
      <trkpt lat="49.44079" lon="5.78895">
        <ele>328.79998779297</ele>
        <time>2024-06-09T08:33:28Z</time>
      </trkpt>
      <trkpt lat="49.44079" lon="5.78893">
        <ele>329.20001220703</ele>
        <time>2024-06-09T08:33:30Z</time>
      </trkpt>
      <trkpt lat="49.44079" lon="5.78892">
        <ele>329.39999389648</ele>
        <time>2024-06-09T08:33:31Z</time>
      </trkpt>
      <trkpt lat="49.44078" lon="5.78891">
        <ele>329.60000610352</ele>
        <time>2024-06-09T08:33:32Z</time>
      </trkpt>
      <trkpt lat="49.44078" lon="5.78888">
        <ele>330</ele>
        <time>2024-06-09T08:33:34Z</time>
      </trkpt>
      <trkpt lat="49.44078" lon="5.78885">
        <ele>330.39999389648</ele>
        <time>2024-06-09T08:33:36Z</time>
      </trkpt>
      <trkpt lat="49.44078" lon="5.78882">
        <ele>330.79998779297</ele>
        <time>2024-06-09T08:33:38Z</time>
      </trkpt>
      <trkpt lat="49.44077" lon="5.78879">
        <ele>331.20001220703</ele>
        <time>2024-06-09T08:33:40Z</time>
      </trkpt>
      <trkpt lat="49.44077" lon="5.78878">
        <ele>331.60000610352</ele>
        <time>2024-06-09T08:33:41Z</time>
      </trkpt>
      <trkpt lat="49.44076" lon="5.78877">
        <ele>331.79998779297</ele>
        <time>2024-06-09T08:33:42Z</time>
      </trkpt>
      <trkpt lat="49.44075" lon="5.78874">
        <ele>332.39999389648</ele>
        <time>2024-06-09T08:33:44Z</time>
      </trkpt>
      <trkpt lat="49.44074" lon="5.78873">
        <ele>332.79998779297</ele>
        <time>2024-06-09T08:33:45Z</time>
      </trkpt>
      <trkpt lat="49.44074" lon="5.78872">
        <ele>333.20001220703</ele>
        <time>2024-06-09T08:33:46Z</time>
      </trkpt>
      <trkpt lat="49.44072" lon="5.78867">
        <ele>333.60000610352</ele>
        <time>2024-06-09T08:33:48Z</time>
      </trkpt>
      <trkpt lat="49.44071" lon="5.78864">
        <ele>334</ele>
        <time>2024-06-09T08:33:50Z</time>
      </trkpt>
      <trkpt lat="49.4407" lon="5.78861">
        <ele>334.39999389648</ele>
        <time>2024-06-09T08:33:52Z</time>
      </trkpt>
      <trkpt lat="49.44068" lon="5.78857">
        <ele>334.79998779297</ele>
        <time>2024-06-09T08:33:54Z</time>
      </trkpt>
      <trkpt lat="49.44065" lon="5.78853">
        <ele>335.20001220703</ele>
        <time>2024-06-09T08:33:56Z</time>
      </trkpt>
      <trkpt lat="49.44063" lon="5.7885">
        <ele>335.79998779297</ele>
        <time>2024-06-09T08:33:58Z</time>
      </trkpt>
      <trkpt lat="49.44061" lon="5.78849">
        <ele>336</ele>
        <time>2024-06-09T08:33:59Z</time>
      </trkpt>
      <trkpt lat="49.4406" lon="5.78848">
        <ele>336.20001220703</ele>
        <time>2024-06-09T08:34:00Z</time>
      </trkpt>
      <trkpt lat="49.44059" lon="5.78847">
        <ele>336.39999389648</ele>
        <time>2024-06-09T08:34:01Z</time>
      </trkpt>
      <trkpt lat="49.44058" lon="5.78846">
        <ele>336.60000610352</ele>
        <time>2024-06-09T08:34:02Z</time>
      </trkpt>
      <trkpt lat="49.44056" lon="5.78845">
        <ele>337.20001220703</ele>
        <time>2024-06-09T08:34:04Z</time>
      </trkpt>
      <trkpt lat="49.44053" lon="5.78844">
        <ele>337.39999389648</ele>
        <time>2024-06-09T08:34:06Z</time>
      </trkpt>
      <trkpt lat="49.44051" lon="5.78843">
        <ele>337.60000610352</ele>
        <time>2024-06-09T08:34:07Z</time>
      </trkpt>
      <trkpt lat="49.4405" lon="5.78843">
        <ele>337.79998779297</ele>
        <time>2024-06-09T08:34:08Z</time>
      </trkpt>
      <trkpt lat="49.44047" lon="5.78842">
        <ele>337.79998779297</ele>
        <time>2024-06-09T08:34:10Z</time>
      </trkpt>
      <trkpt lat="49.44043" lon="5.78841">
        <ele>338</ele>
        <time>2024-06-09T08:34:12Z</time>
      </trkpt>
      <trkpt lat="49.4404" lon="5.78839">
        <ele>338.20001220703</ele>
        <time>2024-06-09T08:34:14Z</time>
      </trkpt>
      <trkpt lat="49.44039" lon="5.78837">
        <ele>338.39999389648</ele>
        <time>2024-06-09T08:34:15Z</time>
      </trkpt>
      <trkpt lat="49.44037" lon="5.78836">
        <ele>338.39999389648</ele>
        <time>2024-06-09T08:34:16Z</time>
      </trkpt>
      <trkpt lat="49.44033" lon="5.78833">
        <ele>338.60000610352</ele>
        <time>2024-06-09T08:34:18Z</time>
      </trkpt>
      <trkpt lat="49.44031" lon="5.78832">
        <ele>338.79998779297</ele>
        <time>2024-06-09T08:34:19Z</time>
      </trkpt>
      <trkpt lat="49.44029" lon="5.78831">
        <ele>338.79998779297</ele>
        <time>2024-06-09T08:34:20Z</time>
      </trkpt>
      <trkpt lat="49.44028" lon="5.78831">
        <ele>339</ele>
        <time>2024-06-09T08:34:21Z</time>
      </trkpt>
      <trkpt lat="49.44025" lon="5.78832">
        <ele>339.20001220703</ele>
        <time>2024-06-09T08:34:22Z</time>
      </trkpt>
      <trkpt lat="49.44022" lon="5.78833">
        <ele>339.20001220703</ele>
        <time>2024-06-09T08:34:24Z</time>
      </trkpt>
      <trkpt lat="49.44015" lon="5.78835">
        <ele>339.20001220703</ele>
        <time>2024-06-09T08:34:26Z</time>
      </trkpt>
      <trkpt lat="49.44011" lon="5.78837">
        <ele>339.39999389648</ele>
        <time>2024-06-09T08:34:27Z</time>
      </trkpt>
      <trkpt lat="49.44008" lon="5.78838">
        <ele>339.39999389648</ele>
        <time>2024-06-09T08:34:28Z</time>
      </trkpt>
      <trkpt lat="49.44" lon="5.7884">
        <ele>339.39999389648</ele>
        <time>2024-06-09T08:34:30Z</time>
      </trkpt>
      <trkpt lat="49.43996" lon="5.7884">
        <ele>339.39999389648</ele>
        <time>2024-06-09T08:34:31Z</time>
      </trkpt>
      <trkpt lat="49.43991" lon="5.78839">
        <ele>339.39999389648</ele>
        <time>2024-06-09T08:34:32Z</time>
      </trkpt>
      <trkpt lat="49.43984" lon="5.78837">
        <ele>338.60000610352</ele>
        <time>2024-06-09T08:34:34Z</time>
      </trkpt>
      <trkpt lat="49.43977" lon="5.78834">
        <ele>337.79998779297</ele>
        <time>2024-06-09T08:34:36Z</time>
      </trkpt>
      <trkpt lat="49.43974" lon="5.78833">
        <ele>337.39999389648</ele>
        <time>2024-06-09T08:34:37Z</time>
      </trkpt>
      <trkpt lat="49.43972" lon="5.78831">
        <ele>337</ele>
        <time>2024-06-09T08:34:38Z</time>
      </trkpt>
      <trkpt lat="49.43967" lon="5.78825">
        <ele>336.79998779297</ele>
        <time>2024-06-09T08:34:40Z</time>
      </trkpt>
      <trkpt lat="49.43964" lon="5.78823">
        <ele>336.79998779297</ele>
        <time>2024-06-09T08:34:41Z</time>
      </trkpt>
      <trkpt lat="49.43961" lon="5.78821">
        <ele>336.79998779297</ele>
        <time>2024-06-09T08:34:42Z</time>
      </trkpt>
      <trkpt lat="49.43955" lon="5.78816">
        <ele>336.79998779297</ele>
        <time>2024-06-09T08:34:44Z</time>
      </trkpt>
      <trkpt lat="49.43947" lon="5.78811">
        <ele>336.79998779297</ele>
        <time>2024-06-09T08:34:46Z</time>
      </trkpt>
      <trkpt lat="49.43944" lon="5.78809">
        <ele>337</ele>
        <time>2024-06-09T08:34:47Z</time>
      </trkpt>
      <trkpt lat="49.4394" lon="5.78808">
        <ele>337.20001220703</ele>
        <time>2024-06-09T08:34:48Z</time>
      </trkpt>
      <trkpt lat="49.43931" lon="5.78805">
        <ele>337.20001220703</ele>
        <time>2024-06-09T08:34:50Z</time>
      </trkpt>
      <trkpt lat="49.43922" lon="5.78799">
        <ele>337.20001220703</ele>
        <time>2024-06-09T08:34:52Z</time>
      </trkpt>
      <trkpt lat="49.43911" lon="5.78792">
        <ele>337.20001220703</ele>
        <time>2024-06-09T08:34:54Z</time>
      </trkpt>
      <trkpt lat="49.43903" lon="5.78784">
        <ele>337.20001220703</ele>
        <time>2024-06-09T08:34:56Z</time>
      </trkpt>
      <trkpt lat="49.439" lon="5.7878">
        <ele>337</ele>
        <time>2024-06-09T08:34:57Z</time>
      </trkpt>
      <trkpt lat="49.43896" lon="5.78776">
        <ele>336.60000610352</ele>
        <time>2024-06-09T08:34:58Z</time>
      </trkpt>
      <trkpt lat="49.43893" lon="5.78773">
        <ele>336.20001220703</ele>
        <time>2024-06-09T08:34:59Z</time>
      </trkpt>
      <trkpt lat="49.43889" lon="5.7877">
        <ele>336</ele>
        <time>2024-06-09T08:35:00Z</time>
      </trkpt>
      <trkpt lat="49.43881" lon="5.78763">
        <ele>335.60000610352</ele>
        <time>2024-06-09T08:35:02Z</time>
      </trkpt>
      <trkpt lat="49.43872" lon="5.78757">
        <ele>335.39999389648</ele>
        <time>2024-06-09T08:35:04Z</time>
      </trkpt>
      <trkpt lat="49.43862" lon="5.78749">
        <ele>335.39999389648</ele>
        <time>2024-06-09T08:35:06Z</time>
      </trkpt>
      <trkpt lat="49.43858" lon="5.78745">
        <ele>335.20001220703</ele>
        <time>2024-06-09T08:35:07Z</time>
      </trkpt>
      <trkpt lat="49.43853" lon="5.78741">
        <ele>335.20001220703</ele>
        <time>2024-06-09T08:35:08Z</time>
      </trkpt>
      <trkpt lat="49.43844" lon="5.78733">
        <ele>335.20001220703</ele>
        <time>2024-06-09T08:35:10Z</time>
      </trkpt>
      <trkpt lat="49.43835" lon="5.78724">
        <ele>335.20001220703</ele>
        <time>2024-06-09T08:35:12Z</time>
      </trkpt>
      <trkpt lat="49.43832" lon="5.7872">
        <ele>335.20001220703</ele>
        <time>2024-06-09T08:35:13Z</time>
      </trkpt>
      <trkpt lat="49.43827" lon="5.78716">
        <ele>335.39999389648</ele>
        <time>2024-06-09T08:35:14Z</time>
      </trkpt>
      <trkpt lat="49.43819" lon="5.78707">
        <ele>335.39999389648</ele>
        <time>2024-06-09T08:35:16Z</time>
      </trkpt>
      <trkpt lat="49.43812" lon="5.78698">
        <ele>335.39999389648</ele>
        <time>2024-06-09T08:35:18Z</time>
      </trkpt>
      <trkpt lat="49.43806" lon="5.78688">
        <ele>335.39999389648</ele>
        <time>2024-06-09T08:35:20Z</time>
      </trkpt>
      <trkpt lat="49.438" lon="5.78678">
        <ele>335.39999389648</ele>
        <time>2024-06-09T08:35:22Z</time>
      </trkpt>
      <trkpt lat="49.43798" lon="5.78674">
        <ele>335.39999389648</ele>
        <time>2024-06-09T08:35:23Z</time>
      </trkpt>
      <trkpt lat="49.43794" lon="5.7867">
        <ele>335.39999389648</ele>
        <time>2024-06-09T08:35:24Z</time>
      </trkpt>
      <trkpt lat="49.43788" lon="5.78662">
        <ele>335.39999389648</ele>
        <time>2024-06-09T08:35:26Z</time>
      </trkpt>
      <trkpt lat="49.43781" lon="5.78652">
        <ele>335.60000610352</ele>
        <time>2024-06-09T08:35:28Z</time>
      </trkpt>
      <trkpt lat="49.43778" lon="5.78647">
        <ele>335.60000610352</ele>
        <time>2024-06-09T08:35:29Z</time>
      </trkpt>
      <trkpt lat="49.43775" lon="5.78642">
        <ele>335.60000610352</ele>
        <time>2024-06-09T08:35:30Z</time>
      </trkpt>
      <trkpt lat="49.43769" lon="5.7863">
        <ele>335.60000610352</ele>
        <time>2024-06-09T08:35:32Z</time>
      </trkpt>
      <trkpt lat="49.43765" lon="5.78618">
        <ele>335.60000610352</ele>
        <time>2024-06-09T08:35:34Z</time>
      </trkpt>
      <trkpt lat="49.43762" lon="5.78608">
        <ele>335.79998779297</ele>
        <time>2024-06-09T08:35:36Z</time>
      </trkpt>
      <trkpt lat="49.4376" lon="5.78598">
        <ele>335.79998779297</ele>
        <time>2024-06-09T08:35:38Z</time>
      </trkpt>
      <trkpt lat="49.4376" lon="5.78594">
        <ele>335.79998779297</ele>
        <time>2024-06-09T08:35:39Z</time>
      </trkpt>
      <trkpt lat="49.43758" lon="5.78588">
        <ele>335.79998779297</ele>
        <time>2024-06-09T08:35:40Z</time>
      </trkpt>
      <trkpt lat="49.43754" lon="5.78579">
        <ele>335.79998779297</ele>
        <time>2024-06-09T08:35:42Z</time>
      </trkpt>
      <trkpt lat="49.43752" lon="5.78569">
        <ele>335.79998779297</ele>
        <time>2024-06-09T08:35:44Z</time>
      </trkpt>
      <trkpt lat="49.43749" lon="5.78555">
        <ele>335.60000610352</ele>
        <time>2024-06-09T08:35:46Z</time>
      </trkpt>
      <trkpt lat="49.43747" lon="5.78544">
        <ele>335.60000610352</ele>
        <time>2024-06-09T08:35:48Z</time>
      </trkpt>
      <trkpt lat="49.43744" lon="5.78533">
        <ele>335.60000610352</ele>
        <time>2024-06-09T08:35:50Z</time>
      </trkpt>
      <trkpt lat="49.43741" lon="5.7853">
        <ele>335.39999389648</ele>
        <time>2024-06-09T08:35:51Z</time>
      </trkpt>
      <trkpt lat="49.43738" lon="5.78531">
        <ele>335</ele>
        <time>2024-06-09T08:35:52Z</time>
      </trkpt>
      <trkpt lat="49.43734" lon="5.78535">
        <ele>334.79998779297</ele>
        <time>2024-06-09T08:35:54Z</time>
      </trkpt>
      <trkpt lat="49.43731" lon="5.78539">
        <ele>334.39999389648</ele>
        <time>2024-06-09T08:35:56Z</time>
      </trkpt>
      <trkpt lat="49.43727" lon="5.78539">
        <ele>334.20001220703</ele>
        <time>2024-06-09T08:35:57Z</time>
      </trkpt>
      <trkpt lat="49.43724" lon="5.78539">
        <ele>334.20001220703</ele>
        <time>2024-06-09T08:35:58Z</time>
      </trkpt>
      <trkpt lat="49.43718" lon="5.78539">
        <ele>334</ele>
        <time>2024-06-09T08:36:00Z</time>
      </trkpt>
      <trkpt lat="49.4371" lon="5.7854">
        <ele>333.79998779297</ele>
        <time>2024-06-09T08:36:02Z</time>
      </trkpt>
      <trkpt lat="49.43705" lon="5.7854">
        <ele>333.60000610352</ele>
        <time>2024-06-09T08:36:03Z</time>
      </trkpt>
      <trkpt lat="49.437" lon="5.7854">
        <ele>333.20001220703</ele>
        <time>2024-06-09T08:36:04Z</time>
      </trkpt>
      <trkpt lat="49.43694" lon="5.7854">
        <ele>333</ele>
        <time>2024-06-09T08:36:05Z</time>
      </trkpt>
      <trkpt lat="49.43688" lon="5.78542">
        <ele>332.60000610352</ele>
        <time>2024-06-09T08:36:06Z</time>
      </trkpt>
      <trkpt lat="49.43677" lon="5.78545">
        <ele>331.20001220703</ele>
        <time>2024-06-09T08:36:08Z</time>
      </trkpt>
      <trkpt lat="49.43668" lon="5.78545">
        <ele>329.60000610352</ele>
        <time>2024-06-09T08:36:10Z</time>
      </trkpt>
      <trkpt lat="49.43664" lon="5.78545">
        <ele>328.20001220703</ele>
        <time>2024-06-09T08:36:11Z</time>
      </trkpt>
      <trkpt lat="49.43659" lon="5.78545">
        <ele>326.60000610352</ele>
        <time>2024-06-09T08:36:12Z</time>
      </trkpt>
      <trkpt lat="49.43654" lon="5.78547">
        <ele>324.79998779297</ele>
        <time>2024-06-09T08:36:13Z</time>
      </trkpt>
      <trkpt lat="49.43649" lon="5.78549">
        <ele>322.79998779297</ele>
        <time>2024-06-09T08:36:14Z</time>
      </trkpt>
      <trkpt lat="49.43644" lon="5.78551">
        <ele>321.20001220703</ele>
        <time>2024-06-09T08:36:15Z</time>
      </trkpt>
      <trkpt lat="49.4364" lon="5.78552">
        <ele>319.20001220703</ele>
        <time>2024-06-09T08:36:16Z</time>
      </trkpt>
      <trkpt lat="49.43636" lon="5.78552">
        <ele>317.60000610352</ele>
        <time>2024-06-09T08:36:17Z</time>
      </trkpt>
      <trkpt lat="49.43632" lon="5.78553">
        <ele>316.20001220703</ele>
        <time>2024-06-09T08:36:18Z</time>
      </trkpt>
      <trkpt lat="49.43628" lon="5.78554">
        <ele>314.60000610352</ele>
        <time>2024-06-09T08:36:19Z</time>
      </trkpt>
      <trkpt lat="49.43624" lon="5.78554">
        <ele>312.60000610352</ele>
        <time>2024-06-09T08:36:20Z</time>
      </trkpt>
      <trkpt lat="49.4362" lon="5.78554">
        <ele>310.60000610352</ele>
        <time>2024-06-09T08:36:21Z</time>
      </trkpt>
      <trkpt lat="49.43615" lon="5.78554">
        <ele>308.39999389648</ele>
        <time>2024-06-09T08:36:22Z</time>
      </trkpt>
      <trkpt lat="49.4361" lon="5.78551">
        <ele>306.79998779297</ele>
        <time>2024-06-09T08:36:23Z</time>
      </trkpt>
      <trkpt lat="49.43606" lon="5.78547">
        <ele>305.20001220703</ele>
        <time>2024-06-09T08:36:24Z</time>
      </trkpt>
      <trkpt lat="49.43603" lon="5.78543">
        <ele>303.39999389648</ele>
        <time>2024-06-09T08:36:25Z</time>
      </trkpt>
      <trkpt lat="49.436" lon="5.7854">
        <ele>301.60000610352</ele>
        <time>2024-06-09T08:36:26Z</time>
      </trkpt>
      <trkpt lat="49.43596" lon="5.7854">
        <ele>300.20001220703</ele>
        <time>2024-06-09T08:36:27Z</time>
      </trkpt>
      <trkpt lat="49.43592" lon="5.78538">
        <ele>298.79998779297</ele>
        <time>2024-06-09T08:36:28Z</time>
      </trkpt>
      <trkpt lat="49.4359" lon="5.78536">
        <ele>297.39999389648</ele>
        <time>2024-06-09T08:36:29Z</time>
      </trkpt>
      <trkpt lat="49.43589" lon="5.78534">
        <ele>296.20001220703</ele>
        <time>2024-06-09T08:36:30Z</time>
      </trkpt>
      <trkpt lat="49.43588" lon="5.7853">
        <ele>295</ele>
        <time>2024-06-09T08:36:32Z</time>
      </trkpt>
      <trkpt lat="49.43586" lon="5.78527">
        <ele>294.60000610352</ele>
        <time>2024-06-09T08:36:34Z</time>
      </trkpt>
      <trkpt lat="49.43586" lon="5.78522">
        <ele>294.60000610352</ele>
        <time>2024-06-09T08:36:36Z</time>
      </trkpt>
      <trkpt lat="49.43584" lon="5.78517">
        <ele>294.60000610352</ele>
        <time>2024-06-09T08:36:38Z</time>
      </trkpt>
      <trkpt lat="49.43583" lon="5.78512">
        <ele>294.60000610352</ele>
        <time>2024-06-09T08:36:40Z</time>
      </trkpt>
      <trkpt lat="49.43581" lon="5.78507">
        <ele>295.60000610352</ele>
        <time>2024-06-09T08:36:42Z</time>
      </trkpt>
      <trkpt lat="49.43581" lon="5.78505">
        <ele>296.20001220703</ele>
        <time>2024-06-09T08:36:43Z</time>
      </trkpt>
      <trkpt lat="49.4358" lon="5.78503">
        <ele>296.60000610352</ele>
        <time>2024-06-09T08:36:44Z</time>
      </trkpt>
      <trkpt lat="49.43578" lon="5.78499">
        <ele>297.39999389648</ele>
        <time>2024-06-09T08:36:46Z</time>
      </trkpt>
      <trkpt lat="49.43577" lon="5.78495">
        <ele>298</ele>
        <time>2024-06-09T08:36:48Z</time>
      </trkpt>
      <trkpt lat="49.43575" lon="5.78492">
        <ele>298.60000610352</ele>
        <time>2024-06-09T08:36:50Z</time>
      </trkpt>
      <trkpt lat="49.43574" lon="5.78489">
        <ele>299</ele>
        <time>2024-06-09T08:36:52Z</time>
      </trkpt>
      <trkpt lat="49.43573" lon="5.78485">
        <ele>299.39999389648</ele>
        <time>2024-06-09T08:36:54Z</time>
      </trkpt>
      <trkpt lat="49.43573" lon="5.78484">
        <ele>299.79998779297</ele>
        <time>2024-06-09T08:36:55Z</time>
      </trkpt>
      <trkpt lat="49.43571" lon="5.78483">
        <ele>300</ele>
        <time>2024-06-09T08:36:56Z</time>
      </trkpt>
      <trkpt lat="49.4357" lon="5.78482">
        <ele>300.39999389648</ele>
        <time>2024-06-09T08:36:57Z</time>
      </trkpt>
      <trkpt lat="49.43568" lon="5.78482">
        <ele>300.60000610352</ele>
        <time>2024-06-09T08:36:58Z</time>
      </trkpt>
      <trkpt lat="49.43567" lon="5.78482">
        <ele>300.79998779297</ele>
        <time>2024-06-09T08:36:59Z</time>
      </trkpt>
      <trkpt lat="49.43566" lon="5.78482">
        <ele>301.20001220703</ele>
        <time>2024-06-09T08:37:00Z</time>
      </trkpt>
      <trkpt lat="49.43563" lon="5.78481">
        <ele>302</ele>
        <time>2024-06-09T08:37:02Z</time>
      </trkpt>
      <trkpt lat="49.4356" lon="5.78482">
        <ele>302.20001220703</ele>
        <time>2024-06-09T08:37:03Z</time>
      </trkpt>
      <trkpt lat="49.43558" lon="5.78481">
        <ele>302.39999389648</ele>
        <time>2024-06-09T08:37:04Z</time>
      </trkpt>
      <trkpt lat="49.4355" lon="5.78481">
        <ele>302.60000610352</ele>
        <time>2024-06-09T08:37:06Z</time>
      </trkpt>
      <trkpt lat="49.43539" lon="5.7848">
        <ele>302.60000610352</ele>
        <time>2024-06-09T08:37:08Z</time>
      </trkpt>
      <trkpt lat="49.43525" lon="5.78478">
        <ele>302.60000610352</ele>
        <time>2024-06-09T08:37:10Z</time>
      </trkpt>
      <trkpt lat="49.43509" lon="5.78472">
        <ele>302.20001220703</ele>
        <time>2024-06-09T08:37:12Z</time>
      </trkpt>
      <trkpt lat="49.43495" lon="5.78462">
        <ele>300.60000610352</ele>
        <time>2024-06-09T08:37:14Z</time>
      </trkpt>
      <trkpt lat="49.43488" lon="5.78456">
        <ele>299</ele>
        <time>2024-06-09T08:37:15Z</time>
      </trkpt>
      <trkpt lat="49.4348" lon="5.7845">
        <ele>297.60000610352</ele>
        <time>2024-06-09T08:37:16Z</time>
      </trkpt>
      <trkpt lat="49.43473" lon="5.78446">
        <ele>296.20001220703</ele>
        <time>2024-06-09T08:37:17Z</time>
      </trkpt>
      <trkpt lat="49.43466" lon="5.78443">
        <ele>294.79998779297</ele>
        <time>2024-06-09T08:37:18Z</time>
      </trkpt>
      <trkpt lat="49.43459" lon="5.78439">
        <ele>293.39999389648</ele>
        <time>2024-06-09T08:37:19Z</time>
      </trkpt>
      <trkpt lat="49.43451" lon="5.78433">
        <ele>292.60000610352</ele>
        <time>2024-06-09T08:37:20Z</time>
      </trkpt>
      <trkpt lat="49.43446" lon="5.78428">
        <ele>292</ele>
        <time>2024-06-09T08:37:21Z</time>
      </trkpt>
      <trkpt lat="49.4344" lon="5.78422">
        <ele>291.60000610352</ele>
        <time>2024-06-09T08:37:22Z</time>
      </trkpt>
      <trkpt lat="49.4343" lon="5.78412">
        <ele>290.39999389648</ele>
        <time>2024-06-09T08:37:24Z</time>
      </trkpt>
      <trkpt lat="49.43423" lon="5.78404">
        <ele>289.39999389648</ele>
        <time>2024-06-09T08:37:26Z</time>
      </trkpt>
      <trkpt lat="49.43416" lon="5.78397">
        <ele>288.20001220703</ele>
        <time>2024-06-09T08:37:28Z</time>
      </trkpt>
      <trkpt lat="49.4341" lon="5.7839">
        <ele>287.20001220703</ele>
        <time>2024-06-09T08:37:30Z</time>
      </trkpt>
      <trkpt lat="49.43403" lon="5.78385">
        <ele>287</ele>
        <time>2024-06-09T08:37:32Z</time>
      </trkpt>
      <trkpt lat="49.434" lon="5.78382">
        <ele>286.79998779297</ele>
        <time>2024-06-09T08:37:33Z</time>
      </trkpt>
      <trkpt lat="49.43395" lon="5.78378">
        <ele>286.79998779297</ele>
        <time>2024-06-09T08:37:34Z</time>
      </trkpt>
      <trkpt lat="49.43386" lon="5.78369">
        <ele>286.79998779297</ele>
        <time>2024-06-09T08:37:36Z</time>
      </trkpt>
      <trkpt lat="49.43377" lon="5.78364">
        <ele>286.60000610352</ele>
        <time>2024-06-09T08:37:38Z</time>
      </trkpt>
      <trkpt lat="49.43373" lon="5.7836">
        <ele>286.60000610352</ele>
        <time>2024-06-09T08:37:39Z</time>
      </trkpt>
      <trkpt lat="49.43368" lon="5.78357">
        <ele>286.60000610352</ele>
        <time>2024-06-09T08:37:40Z</time>
      </trkpt>
      <trkpt lat="49.4336" lon="5.78353">
        <ele>286.60000610352</ele>
        <time>2024-06-09T08:37:42Z</time>
      </trkpt>
      <trkpt lat="49.43352" lon="5.78348">
        <ele>286.60000610352</ele>
        <time>2024-06-09T08:37:44Z</time>
      </trkpt>
      <trkpt lat="49.43348" lon="5.78345">
        <ele>286.60000610352</ele>
        <time>2024-06-09T08:37:45Z</time>
      </trkpt>
      <trkpt lat="49.43343" lon="5.78343">
        <ele>286.60000610352</ele>
        <time>2024-06-09T08:37:46Z</time>
      </trkpt>
      <trkpt lat="49.43333" lon="5.78333">
        <ele>286.60000610352</ele>
        <time>2024-06-09T08:37:48Z</time>
      </trkpt>
      <trkpt lat="49.43323" lon="5.78325">
        <ele>286.60000610352</ele>
        <time>2024-06-09T08:37:50Z</time>
      </trkpt>
      <trkpt lat="49.43318" lon="5.78321">
        <ele>286.60000610352</ele>
        <time>2024-06-09T08:37:51Z</time>
      </trkpt>
      <trkpt lat="49.43312" lon="5.78318">
        <ele>286.60000610352</ele>
        <time>2024-06-09T08:37:52Z</time>
      </trkpt>
      <trkpt lat="49.43302" lon="5.78308">
        <ele>286.60000610352</ele>
        <time>2024-06-09T08:37:54Z</time>
      </trkpt>
      <trkpt lat="49.43293" lon="5.78301">
        <ele>286.60000610352</ele>
        <time>2024-06-09T08:37:56Z</time>
      </trkpt>
      <trkpt lat="49.43283" lon="5.78293">
        <ele>286.60000610352</ele>
        <time>2024-06-09T08:37:58Z</time>
      </trkpt>
      <trkpt lat="49.43275" lon="5.78288">
        <ele>286.39999389648</ele>
        <time>2024-06-09T08:38:00Z</time>
      </trkpt>
      <trkpt lat="49.43266" lon="5.78282">
        <ele>286.20001220703</ele>
        <time>2024-06-09T08:38:02Z</time>
      </trkpt>
      <trkpt lat="49.43262" lon="5.78279">
        <ele>286</ele>
        <time>2024-06-09T08:38:03Z</time>
      </trkpt>
      <trkpt lat="49.43256" lon="5.78275">
        <ele>286</ele>
        <time>2024-06-09T08:38:04Z</time>
      </trkpt>
      <trkpt lat="49.43252" lon="5.78274">
        <ele>286</ele>
        <time>2024-06-09T08:38:05Z</time>
      </trkpt>
      <trkpt lat="49.43247" lon="5.78273">
        <ele>285.79998779297</ele>
        <time>2024-06-09T08:38:06Z</time>
      </trkpt>
      <trkpt lat="49.43236" lon="5.78268">
        <ele>285.79998779297</ele>
        <time>2024-06-09T08:38:08Z</time>
      </trkpt>
      <trkpt lat="49.43228" lon="5.78266">
        <ele>285.79998779297</ele>
        <time>2024-06-09T08:38:10Z</time>
      </trkpt>
      <trkpt lat="49.43221" lon="5.78265">
        <ele>285.60000610352</ele>
        <time>2024-06-09T08:38:12Z</time>
      </trkpt>
      <trkpt lat="49.43217" lon="5.78265">
        <ele>285.60000610352</ele>
        <time>2024-06-09T08:38:13Z</time>
      </trkpt>
      <trkpt lat="49.43212" lon="5.78266">
        <ele>285.60000610352</ele>
        <time>2024-06-09T08:38:14Z</time>
      </trkpt>
      <trkpt lat="49.43203" lon="5.78266">
        <ele>285.60000610352</ele>
        <time>2024-06-09T08:38:16Z</time>
      </trkpt>
      <trkpt lat="49.43195" lon="5.78267">
        <ele>285.60000610352</ele>
        <time>2024-06-09T08:38:18Z</time>
      </trkpt>
      <trkpt lat="49.43186" lon="5.78269">
        <ele>285.60000610352</ele>
        <time>2024-06-09T08:38:20Z</time>
      </trkpt>
      <trkpt lat="49.43177" lon="5.78274">
        <ele>285.39999389648</ele>
        <time>2024-06-09T08:38:22Z</time>
      </trkpt>
      <trkpt lat="49.43173" lon="5.78278">
        <ele>285.39999389648</ele>
        <time>2024-06-09T08:38:23Z</time>
      </trkpt>
      <trkpt lat="49.43169" lon="5.78282">
        <ele>285.39999389648</ele>
        <time>2024-06-09T08:38:24Z</time>
      </trkpt>
      <trkpt lat="49.43164" lon="5.78285">
        <ele>285.39999389648</ele>
        <time>2024-06-09T08:38:26Z</time>
      </trkpt>
      <trkpt lat="49.4316" lon="5.78286">
        <ele>285.20001220703</ele>
        <time>2024-06-09T08:38:27Z</time>
      </trkpt>
      <trkpt lat="49.43158" lon="5.78286">
        <ele>285</ele>
        <time>2024-06-09T08:38:28Z</time>
      </trkpt>
      <trkpt lat="49.43155" lon="5.78285">
        <ele>284.79998779297</ele>
        <time>2024-06-09T08:38:29Z</time>
      </trkpt>
      <trkpt lat="49.43153" lon="5.78286">
        <ele>284.79998779297</ele>
        <time>2024-06-09T08:38:30Z</time>
      </trkpt>
      <trkpt lat="49.43148" lon="5.78287">
        <ele>284.60000610352</ele>
        <time>2024-06-09T08:38:32Z</time>
      </trkpt>
      <trkpt lat="49.43141" lon="5.78288">
        <ele>284.60000610352</ele>
        <time>2024-06-09T08:38:34Z</time>
      </trkpt>
      <trkpt lat="49.43135" lon="5.7829">
        <ele>284.60000610352</ele>
        <time>2024-06-09T08:38:36Z</time>
      </trkpt>
      <trkpt lat="49.43131" lon="5.78291">
        <ele>284.60000610352</ele>
        <time>2024-06-09T08:38:37Z</time>
      </trkpt>
      <trkpt lat="49.43128" lon="5.78292">
        <ele>284.79998779297</ele>
        <time>2024-06-09T08:38:38Z</time>
      </trkpt>
      <trkpt lat="49.43121" lon="5.78296">
        <ele>284.79998779297</ele>
        <time>2024-06-09T08:38:40Z</time>
      </trkpt>
      <trkpt lat="49.43112" lon="5.78303">
        <ele>284.79998779297</ele>
        <time>2024-06-09T08:38:42Z</time>
      </trkpt>
      <trkpt lat="49.43105" lon="5.7831">
        <ele>284.79998779297</ele>
        <time>2024-06-09T08:38:44Z</time>
      </trkpt>
      <trkpt lat="49.43096" lon="5.78317">
        <ele>284.79998779297</ele>
        <time>2024-06-09T08:38:46Z</time>
      </trkpt>
      <trkpt lat="49.43089" lon="5.78322">
        <ele>284.79998779297</ele>
        <time>2024-06-09T08:38:48Z</time>
      </trkpt>
      <trkpt lat="49.4308" lon="5.78329">
        <ele>284.79998779297</ele>
        <time>2024-06-09T08:38:50Z</time>
      </trkpt>
      <trkpt lat="49.4307" lon="5.78335">
        <ele>284.79998779297</ele>
        <time>2024-06-09T08:38:52Z</time>
      </trkpt>
      <trkpt lat="49.43061" lon="5.7834">
        <ele>284.79998779297</ele>
        <time>2024-06-09T08:38:54Z</time>
      </trkpt>
      <trkpt lat="49.43052" lon="5.78346">
        <ele>284.60000610352</ele>
        <time>2024-06-09T08:38:56Z</time>
      </trkpt>
      <trkpt lat="49.43043" lon="5.78351">
        <ele>284.39999389648</ele>
        <time>2024-06-09T08:38:58Z</time>
      </trkpt>
      <trkpt lat="49.43037" lon="5.78354">
        <ele>284.39999389648</ele>
        <time>2024-06-09T08:38:59Z</time>
      </trkpt>
      <trkpt lat="49.43031" lon="5.78357">
        <ele>284.39999389648</ele>
        <time>2024-06-09T08:39:00Z</time>
      </trkpt>
      <trkpt lat="49.4302" lon="5.78361">
        <ele>284.39999389648</ele>
        <time>2024-06-09T08:39:02Z</time>
      </trkpt>
      <trkpt lat="49.43008" lon="5.78362">
        <ele>284.39999389648</ele>
        <time>2024-06-09T08:39:04Z</time>
      </trkpt>
      <trkpt lat="49.42998" lon="5.78361">
        <ele>284.20001220703</ele>
        <time>2024-06-09T08:39:06Z</time>
      </trkpt>
      <trkpt lat="49.42989" lon="5.78359">
        <ele>284.20001220703</ele>
        <time>2024-06-09T08:39:08Z</time>
      </trkpt>
      <trkpt lat="49.42985" lon="5.78357">
        <ele>284.20001220703</ele>
        <time>2024-06-09T08:39:09Z</time>
      </trkpt>
      <trkpt lat="49.42982" lon="5.78356">
        <ele>284.20001220703</ele>
        <time>2024-06-09T08:39:10Z</time>
      </trkpt>
      <trkpt lat="49.42975" lon="5.78351">
        <ele>284</ele>
        <time>2024-06-09T08:39:12Z</time>
      </trkpt>
      <trkpt lat="49.42969" lon="5.78345">
        <ele>284</ele>
        <time>2024-06-09T08:39:14Z</time>
      </trkpt>
      <trkpt lat="49.42963" lon="5.78339">
        <ele>284</ele>
        <time>2024-06-09T08:39:16Z</time>
      </trkpt>
      <trkpt lat="49.42956" lon="5.78331">
        <ele>284</ele>
        <time>2024-06-09T08:39:18Z</time>
      </trkpt>
      <trkpt lat="49.42948" lon="5.7832">
        <ele>284</ele>
        <time>2024-06-09T08:39:20Z</time>
      </trkpt>
      <trkpt lat="49.42944" lon="5.78316">
        <ele>284</ele>
        <time>2024-06-09T08:39:21Z</time>
      </trkpt>
      <trkpt lat="49.42943" lon="5.78313">
        <ele>284</ele>
        <time>2024-06-09T08:39:22Z</time>
      </trkpt>
      <trkpt lat="49.42941" lon="5.78307">
        <ele>284</ele>
        <time>2024-06-09T08:39:24Z</time>
      </trkpt>
      <trkpt lat="49.42939" lon="5.78299">
        <ele>284</ele>
        <time>2024-06-09T08:39:26Z</time>
      </trkpt>
      <trkpt lat="49.42937" lon="5.78292">
        <ele>284.79998779297</ele>
        <time>2024-06-09T08:39:28Z</time>
      </trkpt>
      <trkpt lat="49.42935" lon="5.78286">
        <ele>285.60000610352</ele>
        <time>2024-06-09T08:39:30Z</time>
      </trkpt>
      <trkpt lat="49.42933" lon="5.78281">
        <ele>285.79998779297</ele>
        <time>2024-06-09T08:39:32Z</time>
      </trkpt>
      <trkpt lat="49.42933" lon="5.78278">
        <ele>286</ele>
        <time>2024-06-09T08:39:33Z</time>
      </trkpt>
      <trkpt lat="49.42931" lon="5.78276">
        <ele>286.20001220703</ele>
        <time>2024-06-09T08:39:34Z</time>
      </trkpt>
      <trkpt lat="49.4293" lon="5.78271">
        <ele>286.60000610352</ele>
        <time>2024-06-09T08:39:36Z</time>
      </trkpt>
      <trkpt lat="49.4293" lon="5.7827">
        <ele>287</ele>
        <time>2024-06-09T08:39:37Z</time>
      </trkpt>
      <trkpt lat="49.42929" lon="5.78266">
        <ele>287.39999389648</ele>
        <time>2024-06-09T08:39:38Z</time>
      </trkpt>
      <trkpt lat="49.42928" lon="5.78264">
        <ele>287.79998779297</ele>
        <time>2024-06-09T08:39:39Z</time>
      </trkpt>
      <trkpt lat="49.42927" lon="5.78261">
        <ele>288.20001220703</ele>
        <time>2024-06-09T08:39:40Z</time>
      </trkpt>
      <trkpt lat="49.42927" lon="5.78258">
        <ele>289.20001220703</ele>
        <time>2024-06-09T08:39:42Z</time>
      </trkpt>
      <trkpt lat="49.42926" lon="5.78255">
        <ele>289.60000610352</ele>
        <time>2024-06-09T08:39:43Z</time>
      </trkpt>
      <trkpt lat="49.42926" lon="5.78253">
        <ele>290</ele>
        <time>2024-06-09T08:39:44Z</time>
      </trkpt>
      <trkpt lat="49.42925" lon="5.78246">
        <ele>290.60000610352</ele>
        <time>2024-06-09T08:39:46Z</time>
      </trkpt>
      <trkpt lat="49.42925" lon="5.78242">
        <ele>291.20001220703</ele>
        <time>2024-06-09T08:39:48Z</time>
      </trkpt>
      <trkpt lat="49.42925" lon="5.78236">
        <ele>291.79998779297</ele>
        <time>2024-06-09T08:39:50Z</time>
      </trkpt>
      <trkpt lat="49.42925" lon="5.78232">
        <ele>292.20001220703</ele>
        <time>2024-06-09T08:39:52Z</time>
      </trkpt>
      <trkpt lat="49.42926" lon="5.78228">
        <ele>292.79998779297</ele>
        <time>2024-06-09T08:39:54Z</time>
      </trkpt>
      <trkpt lat="49.42926" lon="5.78227">
        <ele>293.20001220703</ele>
        <time>2024-06-09T08:39:55Z</time>
      </trkpt>
      <trkpt lat="49.42927" lon="5.78226">
        <ele>293.39999389648</ele>
        <time>2024-06-09T08:39:56Z</time>
      </trkpt>
      <trkpt lat="49.42928" lon="5.78224">
        <ele>294</ele>
        <time>2024-06-09T08:39:58Z</time>
      </trkpt>
      <trkpt lat="49.42929" lon="5.78222">
        <ele>294.39999389648</ele>
        <time>2024-06-09T08:40:00Z</time>
      </trkpt>
      <trkpt lat="49.42932" lon="5.78219">
        <ele>295</ele>
        <time>2024-06-09T08:40:02Z</time>
      </trkpt>
      <trkpt lat="49.42934" lon="5.78217">
        <ele>295.39999389648</ele>
        <time>2024-06-09T08:40:04Z</time>
      </trkpt>
      <trkpt lat="49.42936" lon="5.78215">
        <ele>296</ele>
        <time>2024-06-09T08:40:06Z</time>
      </trkpt>
      <trkpt lat="49.42937" lon="5.78214">
        <ele>296.39999389648</ele>
        <time>2024-06-09T08:40:07Z</time>
      </trkpt>
      <trkpt lat="49.42938" lon="5.78213">
        <ele>296.79998779297</ele>
        <time>2024-06-09T08:40:08Z</time>
      </trkpt>
      <trkpt lat="49.4294" lon="5.78211">
        <ele>297.39999389648</ele>
        <time>2024-06-09T08:40:10Z</time>
      </trkpt>
      <trkpt lat="49.42942" lon="5.78207">
        <ele>298.20001220703</ele>
        <time>2024-06-09T08:40:12Z</time>
      </trkpt>
      <trkpt lat="49.42943" lon="5.78206">
        <ele>298.60000610352</ele>
        <time>2024-06-09T08:40:13Z</time>
      </trkpt>
      <trkpt lat="49.42944" lon="5.78205">
        <ele>299</ele>
        <time>2024-06-09T08:40:14Z</time>
      </trkpt>
      <trkpt lat="49.42946" lon="5.78203">
        <ele>299.39999389648</ele>
        <time>2024-06-09T08:40:16Z</time>
      </trkpt>
      <trkpt lat="49.42947" lon="5.78203">
        <ele>299.79998779297</ele>
        <time>2024-06-09T08:40:17Z</time>
      </trkpt>
      <trkpt lat="49.42948" lon="5.78202">
        <ele>300</ele>
        <time>2024-06-09T08:40:18Z</time>
      </trkpt>
      <trkpt lat="49.4295" lon="5.78202">
        <ele>300.60000610352</ele>
        <time>2024-06-09T08:40:20Z</time>
      </trkpt>
      <trkpt lat="49.42952" lon="5.78202">
        <ele>300.79998779297</ele>
        <time>2024-06-09T08:40:22Z</time>
      </trkpt>
      <trkpt lat="49.42955" lon="5.78202">
        <ele>301.60000610352</ele>
        <time>2024-06-09T08:40:24Z</time>
      </trkpt>
      <trkpt lat="49.42957" lon="5.78202">
        <ele>302</ele>
        <time>2024-06-09T08:40:26Z</time>
      </trkpt>
      <trkpt lat="49.4296" lon="5.78202">
        <ele>302.39999389648</ele>
        <time>2024-06-09T08:40:28Z</time>
      </trkpt>
      <trkpt lat="49.42963" lon="5.78202">
        <ele>302.79998779297</ele>
        <time>2024-06-09T08:40:30Z</time>
      </trkpt>
      <trkpt lat="49.42965" lon="5.78203">
        <ele>303.39999389648</ele>
        <time>2024-06-09T08:40:32Z</time>
      </trkpt>
      <trkpt lat="49.42967" lon="5.78203">
        <ele>303.79998779297</ele>
        <time>2024-06-09T08:40:34Z</time>
      </trkpt>
      <trkpt lat="49.4297" lon="5.78203">
        <ele>304</ele>
        <time>2024-06-09T08:40:36Z</time>
      </trkpt>
      <trkpt lat="49.42972" lon="5.78203">
        <ele>304.39999389648</ele>
        <time>2024-06-09T08:40:38Z</time>
      </trkpt>
      <trkpt lat="49.42975" lon="5.78203">
        <ele>304.79998779297</ele>
        <time>2024-06-09T08:40:40Z</time>
      </trkpt>
      <trkpt lat="49.42977" lon="5.78204">
        <ele>305.20001220703</ele>
        <time>2024-06-09T08:40:42Z</time>
      </trkpt>
      <trkpt lat="49.4298" lon="5.78205">
        <ele>305.60000610352</ele>
        <time>2024-06-09T08:40:44Z</time>
      </trkpt>
      <trkpt lat="49.42982" lon="5.78205">
        <ele>306</ele>
        <time>2024-06-09T08:40:46Z</time>
      </trkpt>
      <trkpt lat="49.42984" lon="5.78206">
        <ele>306.39999389648</ele>
        <time>2024-06-09T08:40:48Z</time>
      </trkpt>
      <trkpt lat="49.42985" lon="5.78206">
        <ele>306.60000610352</ele>
        <time>2024-06-09T08:40:49Z</time>
      </trkpt>
      <trkpt lat="49.42985" lon="5.78206">
        <ele>306.79998779297</ele>
        <time>2024-06-09T08:40:50Z</time>
      </trkpt>
      <trkpt lat="49.42988" lon="5.78208">
        <ele>307.60000610352</ele>
        <time>2024-06-09T08:40:52Z</time>
      </trkpt>
      <trkpt lat="49.42989" lon="5.78208">
        <ele>307.79998779297</ele>
        <time>2024-06-09T08:40:53Z</time>
      </trkpt>
      <trkpt lat="49.4299" lon="5.78208">
        <ele>308</ele>
        <time>2024-06-09T08:40:54Z</time>
      </trkpt>
      <trkpt lat="49.42993" lon="5.78208">
        <ele>308.60000610352</ele>
        <time>2024-06-09T08:40:56Z</time>
      </trkpt>
      <trkpt lat="49.42995" lon="5.78208">
        <ele>309</ele>
        <time>2024-06-09T08:40:57Z</time>
      </trkpt>
      <trkpt lat="49.42996" lon="5.78209">
        <ele>309.39999389648</ele>
        <time>2024-06-09T08:40:58Z</time>
      </trkpt>
      <trkpt lat="49.42999" lon="5.7821">
        <ele>310</ele>
        <time>2024-06-09T08:41:00Z</time>
      </trkpt>
      <trkpt lat="49.43002" lon="5.7821">
        <ele>310.60000610352</ele>
        <time>2024-06-09T08:41:02Z</time>
      </trkpt>
      <trkpt lat="49.43004" lon="5.7821">
        <ele>311</ele>
        <time>2024-06-09T08:41:04Z</time>
      </trkpt>
      <trkpt lat="49.43005" lon="5.7821">
        <ele>311.39999389648</ele>
        <time>2024-06-09T08:41:05Z</time>
      </trkpt>
      <trkpt lat="49.43006" lon="5.78209">
        <ele>311.60000610352</ele>
        <time>2024-06-09T08:41:06Z</time>
      </trkpt>
      <trkpt lat="49.43008" lon="5.78209">
        <ele>312.20001220703</ele>
        <time>2024-06-09T08:41:08Z</time>
      </trkpt>
      <trkpt lat="49.43011" lon="5.78208">
        <ele>312.79998779297</ele>
        <time>2024-06-09T08:41:10Z</time>
      </trkpt>
      <trkpt lat="49.43014" lon="5.78208">
        <ele>313.39999389648</ele>
        <time>2024-06-09T08:41:12Z</time>
      </trkpt>
      <trkpt lat="49.43017" lon="5.78207">
        <ele>313.79998779297</ele>
        <time>2024-06-09T08:41:14Z</time>
      </trkpt>
      <trkpt lat="49.43019" lon="5.78206">
        <ele>314.20001220703</ele>
        <time>2024-06-09T08:41:16Z</time>
      </trkpt>
      <trkpt lat="49.43021" lon="5.78205">
        <ele>314.60000610352</ele>
        <time>2024-06-09T08:41:17Z</time>
      </trkpt>
      <trkpt lat="49.43022" lon="5.78204">
        <ele>314.79998779297</ele>
        <time>2024-06-09T08:41:18Z</time>
      </trkpt>
      <trkpt lat="49.43024" lon="5.78204">
        <ele>315.39999389648</ele>
        <time>2024-06-09T08:41:20Z</time>
      </trkpt>
      <trkpt lat="49.43025" lon="5.78203">
        <ele>315.60000610352</ele>
        <time>2024-06-09T08:41:21Z</time>
      </trkpt>
      <trkpt lat="49.43026" lon="5.78203">
        <ele>315.79998779297</ele>
        <time>2024-06-09T08:41:22Z</time>
      </trkpt>
      <trkpt lat="49.43029" lon="5.78201">
        <ele>316.20001220703</ele>
        <time>2024-06-09T08:41:24Z</time>
      </trkpt>
      <trkpt lat="49.43031" lon="5.782">
        <ele>316.79998779297</ele>
        <time>2024-06-09T08:41:26Z</time>
      </trkpt>
      <trkpt lat="49.43034" lon="5.78198">
        <ele>317.39999389648</ele>
        <time>2024-06-09T08:41:28Z</time>
      </trkpt>
      <trkpt lat="49.43036" lon="5.78196">
        <ele>317.79998779297</ele>
        <time>2024-06-09T08:41:30Z</time>
      </trkpt>
      <trkpt lat="49.43038" lon="5.78194">
        <ele>318.39999389648</ele>
        <time>2024-06-09T08:41:32Z</time>
      </trkpt>
      <trkpt lat="49.43041" lon="5.78192">
        <ele>318.79998779297</ele>
        <time>2024-06-09T08:41:34Z</time>
      </trkpt>
      <trkpt lat="49.43042" lon="5.7819">
        <ele>319</ele>
        <time>2024-06-09T08:41:35Z</time>
      </trkpt>
      <trkpt lat="49.43043" lon="5.78189">
        <ele>319.20001220703</ele>
        <time>2024-06-09T08:41:36Z</time>
      </trkpt>
      <trkpt lat="49.43045" lon="5.78187">
        <ele>319.39999389648</ele>
        <time>2024-06-09T08:41:38Z</time>
      </trkpt>
      <trkpt lat="49.43048" lon="5.78186">
        <ele>319.60000610352</ele>
        <time>2024-06-09T08:41:40Z</time>
      </trkpt>
      <trkpt lat="49.4305" lon="5.78183">
        <ele>320</ele>
        <time>2024-06-09T08:41:42Z</time>
      </trkpt>
      <trkpt lat="49.43051" lon="5.78182">
        <ele>320</ele>
        <time>2024-06-09T08:41:43Z</time>
      </trkpt>
      <trkpt lat="49.43052" lon="5.78181">
        <ele>320.20001220703</ele>
        <time>2024-06-09T08:41:44Z</time>
      </trkpt>
      <trkpt lat="49.43054" lon="5.78178">
        <ele>320.39999389648</ele>
        <time>2024-06-09T08:41:46Z</time>
      </trkpt>
      <trkpt lat="49.43055" lon="5.78176">
        <ele>321</ele>
        <time>2024-06-09T08:41:48Z</time>
      </trkpt>
      <trkpt lat="49.43056" lon="5.78174">
        <ele>321.20001220703</ele>
        <time>2024-06-09T08:41:49Z</time>
      </trkpt>
      <trkpt lat="49.43057" lon="5.78173">
        <ele>321.39999389648</ele>
        <time>2024-06-09T08:41:50Z</time>
      </trkpt>
      <trkpt lat="49.43058" lon="5.78171">
        <ele>321.60000610352</ele>
        <time>2024-06-09T08:41:51Z</time>
      </trkpt>
      <trkpt lat="49.43059" lon="5.7817">
        <ele>321.79998779297</ele>
        <time>2024-06-09T08:41:52Z</time>
      </trkpt>
      <trkpt lat="49.43061" lon="5.78167">
        <ele>322.20001220703</ele>
        <time>2024-06-09T08:41:54Z</time>
      </trkpt>
      <trkpt lat="49.43062" lon="5.78165">
        <ele>322.39999389648</ele>
        <time>2024-06-09T08:41:56Z</time>
      </trkpt>
      <trkpt lat="49.43063" lon="5.78164">
        <ele>323</ele>
        <time>2024-06-09T08:41:58Z</time>
      </trkpt>
      <trkpt lat="49.43065" lon="5.78163">
        <ele>323.39999389648</ele>
        <time>2024-06-09T08:42:00Z</time>
      </trkpt>
      <trkpt lat="49.43066" lon="5.78162">
        <ele>323.79998779297</ele>
        <time>2024-06-09T08:42:02Z</time>
      </trkpt>
      <trkpt lat="49.43066" lon="5.7816">
        <ele>324</ele>
        <time>2024-06-09T08:42:03Z</time>
      </trkpt>
      <trkpt lat="49.43067" lon="5.78158">
        <ele>324.39999389648</ele>
        <time>2024-06-09T08:42:04Z</time>
      </trkpt>
      <trkpt lat="49.43068" lon="5.78157">
        <ele>324.60000610352</ele>
        <time>2024-06-09T08:42:05Z</time>
      </trkpt>
      <trkpt lat="49.43069" lon="5.78156">
        <ele>324.60000610352</ele>
        <time>2024-06-09T08:42:06Z</time>
      </trkpt>
      <trkpt lat="49.43071" lon="5.78154">
        <ele>325</ele>
        <time>2024-06-09T08:42:08Z</time>
      </trkpt>
      <trkpt lat="49.43073" lon="5.78151">
        <ele>325.20001220703</ele>
        <time>2024-06-09T08:42:10Z</time>
      </trkpt>
      <trkpt lat="49.43076" lon="5.78148">
        <ele>325.60000610352</ele>
        <time>2024-06-09T08:42:12Z</time>
      </trkpt>
      <trkpt lat="49.43076" lon="5.78147">
        <ele>325.79998779297</ele>
        <time>2024-06-09T08:42:13Z</time>
      </trkpt>
      <trkpt lat="49.43078" lon="5.78146">
        <ele>326</ele>
        <time>2024-06-09T08:42:14Z</time>
      </trkpt>
      <trkpt lat="49.4308" lon="5.78144">
        <ele>326.39999389648</ele>
        <time>2024-06-09T08:42:16Z</time>
      </trkpt>
      <trkpt lat="49.43082" lon="5.78141">
        <ele>326.79998779297</ele>
        <time>2024-06-09T08:42:18Z</time>
      </trkpt>
      <trkpt lat="49.43084" lon="5.78138">
        <ele>327.20001220703</ele>
        <time>2024-06-09T08:42:20Z</time>
      </trkpt>
      <trkpt lat="49.43086" lon="5.78135">
        <ele>327.39999389648</ele>
        <time>2024-06-09T08:42:22Z</time>
      </trkpt>
      <trkpt lat="49.43088" lon="5.7813">
        <ele>327.60000610352</ele>
        <time>2024-06-09T08:42:24Z</time>
      </trkpt>
      <trkpt lat="49.4309" lon="5.78126">
        <ele>327.79998779297</ele>
        <time>2024-06-09T08:42:26Z</time>
      </trkpt>
      <trkpt lat="49.4309" lon="5.78125">
        <ele>328</ele>
        <time>2024-06-09T08:42:27Z</time>
      </trkpt>
      <trkpt lat="49.4309" lon="5.78123">
        <ele>328</ele>
        <time>2024-06-09T08:42:28Z</time>
      </trkpt>
      <trkpt lat="49.4309" lon="5.7812">
        <ele>328.20001220703</ele>
        <time>2024-06-09T08:42:30Z</time>
      </trkpt>
      <trkpt lat="49.4309" lon="5.78117">
        <ele>328.60000610352</ele>
        <time>2024-06-09T08:42:32Z</time>
      </trkpt>
      <trkpt lat="49.4309" lon="5.78114">
        <ele>329</ele>
        <time>2024-06-09T08:42:34Z</time>
      </trkpt>
      <trkpt lat="49.4309" lon="5.78113">
        <ele>329.20001220703</ele>
        <time>2024-06-09T08:42:35Z</time>
      </trkpt>
      <trkpt lat="49.43089" lon="5.78111">
        <ele>329.39999389648</ele>
        <time>2024-06-09T08:42:36Z</time>
      </trkpt>
      <trkpt lat="49.43089" lon="5.78108">
        <ele>330</ele>
        <time>2024-06-09T08:42:38Z</time>
      </trkpt>
      <trkpt lat="49.43089" lon="5.78107">
        <ele>330.39999389648</ele>
        <time>2024-06-09T08:42:39Z</time>
      </trkpt>
      <trkpt lat="49.43089" lon="5.78105">
        <ele>330.60000610352</ele>
        <time>2024-06-09T08:42:40Z</time>
      </trkpt>
      <trkpt lat="49.43089" lon="5.78102">
        <ele>331.39999389648</ele>
        <time>2024-06-09T08:42:42Z</time>
      </trkpt>
      <trkpt lat="49.43088" lon="5.78098">
        <ele>331.79998779297</ele>
        <time>2024-06-09T08:42:44Z</time>
      </trkpt>
      <trkpt lat="49.43089" lon="5.78095">
        <ele>332.20001220703</ele>
        <time>2024-06-09T08:42:46Z</time>
      </trkpt>
      <trkpt lat="49.43088" lon="5.78092">
        <ele>332.39999389648</ele>
        <time>2024-06-09T08:42:48Z</time>
      </trkpt>
      <trkpt lat="49.43086" lon="5.78088">
        <ele>332.60000610352</ele>
        <time>2024-06-09T08:42:50Z</time>
      </trkpt>
      <trkpt lat="49.43085" lon="5.78085">
        <ele>333</ele>
        <time>2024-06-09T08:42:52Z</time>
      </trkpt>
      <trkpt lat="49.43084" lon="5.78081">
        <ele>333.39999389648</ele>
        <time>2024-06-09T08:42:54Z</time>
      </trkpt>
      <trkpt lat="49.43084" lon="5.78079">
        <ele>333.60000610352</ele>
        <time>2024-06-09T08:42:55Z</time>
      </trkpt>
      <trkpt lat="49.43084" lon="5.78077">
        <ele>333.60000610352</ele>
        <time>2024-06-09T08:42:56Z</time>
      </trkpt>
      <trkpt lat="49.43084" lon="5.78073">
        <ele>333.79998779297</ele>
        <time>2024-06-09T08:42:58Z</time>
      </trkpt>
      <trkpt lat="49.43083" lon="5.7807">
        <ele>334</ele>
        <time>2024-06-09T08:43:00Z</time>
      </trkpt>
      <trkpt lat="49.43083" lon="5.78068">
        <ele>334</ele>
        <time>2024-06-09T08:43:01Z</time>
      </trkpt>
      <trkpt lat="49.43083" lon="5.78067">
        <ele>334</ele>
        <time>2024-06-09T08:43:02Z</time>
      </trkpt>
      <trkpt lat="49.43083" lon="5.78063">
        <ele>334.39999389648</ele>
        <time>2024-06-09T08:43:04Z</time>
      </trkpt>
      <trkpt lat="49.43083" lon="5.7806">
        <ele>334.60000610352</ele>
        <time>2024-06-09T08:43:06Z</time>
      </trkpt>
      <trkpt lat="49.43081" lon="5.78056">
        <ele>335</ele>
        <time>2024-06-09T08:43:08Z</time>
      </trkpt>
      <trkpt lat="49.43078" lon="5.78054">
        <ele>335.20001220703</ele>
        <time>2024-06-09T08:43:10Z</time>
      </trkpt>
      <trkpt lat="49.43076" lon="5.78054">
        <ele>335.20001220703</ele>
        <time>2024-06-09T08:43:11Z</time>
      </trkpt>
      <trkpt lat="49.43074" lon="5.78053">
        <ele>335.20001220703</ele>
        <time>2024-06-09T08:43:12Z</time>
      </trkpt>
      <trkpt lat="49.43069" lon="5.78053">
        <ele>335.20001220703</ele>
        <time>2024-06-09T08:43:14Z</time>
      </trkpt>
      <trkpt lat="49.43062" lon="5.78054">
        <ele>335.20001220703</ele>
        <time>2024-06-09T08:43:16Z</time>
      </trkpt>
      <trkpt lat="49.43059" lon="5.78055">
        <ele>335.20001220703</ele>
        <time>2024-06-09T08:43:17Z</time>
      </trkpt>
      <trkpt lat="49.43055" lon="5.78056">
        <ele>335.20001220703</ele>
        <time>2024-06-09T08:43:18Z</time>
      </trkpt>
      <trkpt lat="49.43045" lon="5.7806">
        <ele>335.20001220703</ele>
        <time>2024-06-09T08:43:20Z</time>
      </trkpt>
      <trkpt lat="49.4304" lon="5.78063">
        <ele>335</ele>
        <time>2024-06-09T08:43:21Z</time>
      </trkpt>
      <trkpt lat="49.43035" lon="5.78065">
        <ele>334.79998779297</ele>
        <time>2024-06-09T08:43:22Z</time>
      </trkpt>
      <trkpt lat="49.43024" lon="5.78069">
        <ele>334.20001220703</ele>
        <time>2024-06-09T08:43:24Z</time>
      </trkpt>
      <trkpt lat="49.43019" lon="5.78071">
        <ele>333.60000610352</ele>
        <time>2024-06-09T08:43:25Z</time>
      </trkpt>
      <trkpt lat="49.43013" lon="5.78074">
        <ele>333.20001220703</ele>
        <time>2024-06-09T08:43:26Z</time>
      </trkpt>
      <trkpt lat="49.43007" lon="5.78077">
        <ele>332.60000610352</ele>
        <time>2024-06-09T08:43:27Z</time>
      </trkpt>
      <trkpt lat="49.43002" lon="5.78079">
        <ele>332.20001220703</ele>
        <time>2024-06-09T08:43:28Z</time>
      </trkpt>
      <trkpt lat="49.42995" lon="5.78083">
        <ele>331.60000610352</ele>
        <time>2024-06-09T08:43:29Z</time>
      </trkpt>
      <trkpt lat="49.42988" lon="5.78087">
        <ele>330.79998779297</ele>
        <time>2024-06-09T08:43:30Z</time>
      </trkpt>
      <trkpt lat="49.42981" lon="5.7809">
        <ele>330.20001220703</ele>
        <time>2024-06-09T08:43:31Z</time>
      </trkpt>
      <trkpt lat="49.42976" lon="5.78092">
        <ele>329.60000610352</ele>
        <time>2024-06-09T08:43:32Z</time>
      </trkpt>
      <trkpt lat="49.42971" lon="5.78095">
        <ele>328.79998779297</ele>
        <time>2024-06-09T08:43:33Z</time>
      </trkpt>
      <trkpt lat="49.42966" lon="5.78098">
        <ele>328</ele>
        <time>2024-06-09T08:43:34Z</time>
      </trkpt>
      <trkpt lat="49.4296" lon="5.78102">
        <ele>327.20001220703</ele>
        <time>2024-06-09T08:43:35Z</time>
      </trkpt>
      <trkpt lat="49.42953" lon="5.78105">
        <ele>326.39999389648</ele>
        <time>2024-06-09T08:43:36Z</time>
      </trkpt>
      <trkpt lat="49.42947" lon="5.7811">
        <ele>325.39999389648</ele>
        <time>2024-06-09T08:43:37Z</time>
      </trkpt>
      <trkpt lat="49.42939" lon="5.78115">
        <ele>324.39999389648</ele>
        <time>2024-06-09T08:43:38Z</time>
      </trkpt>
      <trkpt lat="49.42933" lon="5.78118">
        <ele>323.79998779297</ele>
        <time>2024-06-09T08:43:39Z</time>
      </trkpt>
      <trkpt lat="49.42928" lon="5.78121">
        <ele>323.39999389648</ele>
        <time>2024-06-09T08:43:40Z</time>
      </trkpt>
      <trkpt lat="49.42922" lon="5.78124">
        <ele>323</ele>
        <time>2024-06-09T08:43:41Z</time>
      </trkpt>
      <trkpt lat="49.42917" lon="5.78128">
        <ele>322.79998779297</ele>
        <time>2024-06-09T08:43:42Z</time>
      </trkpt>
      <trkpt lat="49.42909" lon="5.78132">
        <ele>319.60000610352</ele>
        <time>2024-06-09T08:43:43Z</time>
      </trkpt>
      <trkpt lat="49.42902" lon="5.78136">
        <ele>317.20001220703</ele>
        <time>2024-06-09T08:43:44Z</time>
      </trkpt>
      <trkpt lat="49.42895" lon="5.78141">
        <ele>314.20001220703</ele>
        <time>2024-06-09T08:43:45Z</time>
      </trkpt>
      <trkpt lat="49.42889" lon="5.78144">
        <ele>311.20001220703</ele>
        <time>2024-06-09T08:43:46Z</time>
      </trkpt>
      <trkpt lat="49.42883" lon="5.78148">
        <ele>308.60000610352</ele>
        <time>2024-06-09T08:43:47Z</time>
      </trkpt>
      <trkpt lat="49.42877" lon="5.78151">
        <ele>307</ele>
        <time>2024-06-09T08:43:48Z</time>
      </trkpt>
      <trkpt lat="49.42871" lon="5.78154">
        <ele>305.20001220703</ele>
        <time>2024-06-09T08:43:49Z</time>
      </trkpt>
      <trkpt lat="49.42865" lon="5.78158">
        <ele>303</ele>
        <time>2024-06-09T08:43:50Z</time>
      </trkpt>
      <trkpt lat="49.42856" lon="5.78161">
        <ele>300.60000610352</ele>
        <time>2024-06-09T08:43:51Z</time>
      </trkpt>
      <trkpt lat="49.42846" lon="5.78166">
        <ele>298</ele>
        <time>2024-06-09T08:43:52Z</time>
      </trkpt>
      <trkpt lat="49.42836" lon="5.78174">
        <ele>295.39999389648</ele>
        <time>2024-06-09T08:43:53Z</time>
      </trkpt>
      <trkpt lat="49.42826" lon="5.78181">
        <ele>293.79998779297</ele>
        <time>2024-06-09T08:43:54Z</time>
      </trkpt>
      <trkpt lat="49.42817" lon="5.78188">
        <ele>292</ele>
        <time>2024-06-09T08:43:55Z</time>
      </trkpt>
      <trkpt lat="49.4281" lon="5.78196">
        <ele>290</ele>
        <time>2024-06-09T08:43:56Z</time>
      </trkpt>
      <trkpt lat="49.42804" lon="5.78204">
        <ele>287.20001220703</ele>
        <time>2024-06-09T08:43:57Z</time>
      </trkpt>
      <trkpt lat="49.42797" lon="5.78212">
        <ele>284.39999389648</ele>
        <time>2024-06-09T08:43:58Z</time>
      </trkpt>
      <trkpt lat="49.42792" lon="5.78215">
        <ele>281.39999389648</ele>
        <time>2024-06-09T08:43:59Z</time>
      </trkpt>
      <trkpt lat="49.42786" lon="5.78218">
        <ele>280</ele>
        <time>2024-06-09T08:44:00Z</time>
      </trkpt>
      <trkpt lat="49.42779" lon="5.78216">
        <ele>278.79998779297</ele>
        <time>2024-06-09T08:44:02Z</time>
      </trkpt>
      <trkpt lat="49.42774" lon="5.78212">
        <ele>278.39999389648</ele>
        <time>2024-06-09T08:44:04Z</time>
      </trkpt>
      <trkpt lat="49.42766" lon="5.78207">
        <ele>278.39999389648</ele>
        <time>2024-06-09T08:44:06Z</time>
      </trkpt>
      <trkpt lat="49.42758" lon="5.78203">
        <ele>278.39999389648</ele>
        <time>2024-06-09T08:44:08Z</time>
      </trkpt>
      <trkpt lat="49.4275" lon="5.78197">
        <ele>278.39999389648</ele>
        <time>2024-06-09T08:44:10Z</time>
      </trkpt>
      <trkpt lat="49.42742" lon="5.7819">
        <ele>278.39999389648</ele>
        <time>2024-06-09T08:44:12Z</time>
      </trkpt>
      <trkpt lat="49.42734" lon="5.78184">
        <ele>278.60000610352</ele>
        <time>2024-06-09T08:44:14Z</time>
      </trkpt>
      <trkpt lat="49.42728" lon="5.78176">
        <ele>278.60000610352</ele>
        <time>2024-06-09T08:44:16Z</time>
      </trkpt>
      <trkpt lat="49.42724" lon="5.78168">
        <ele>278.60000610352</ele>
        <time>2024-06-09T08:44:18Z</time>
      </trkpt>
      <trkpt lat="49.4272" lon="5.78162">
        <ele>278.60000610352</ele>
        <time>2024-06-09T08:44:20Z</time>
      </trkpt>
      <trkpt lat="49.42719" lon="5.7816">
        <ele>278.60000610352</ele>
        <time>2024-06-09T08:44:21Z</time>
      </trkpt>
      <trkpt lat="49.42717" lon="5.78159">
        <ele>278.60000610352</ele>
        <time>2024-06-09T08:44:22Z</time>
      </trkpt>
      <trkpt lat="49.42716" lon="5.78156">
        <ele>278.60000610352</ele>
        <time>2024-06-09T08:44:24Z</time>
      </trkpt>
      <trkpt lat="49.42714" lon="5.78152">
        <ele>278.60000610352</ele>
        <time>2024-06-09T08:44:26Z</time>
      </trkpt>
      <trkpt lat="49.42714" lon="5.7815">
        <ele>278.60000610352</ele>
        <time>2024-06-09T08:44:27Z</time>
      </trkpt>
      <trkpt lat="49.42714" lon="5.78147">
        <ele>278.79998779297</ele>
        <time>2024-06-09T08:44:28Z</time>
      </trkpt>
      <trkpt lat="49.42715" lon="5.78143">
        <ele>279.60000610352</ele>
        <time>2024-06-09T08:44:30Z</time>
      </trkpt>
      <trkpt lat="49.42715" lon="5.7814">
        <ele>280</ele>
        <time>2024-06-09T08:44:31Z</time>
      </trkpt>
      <trkpt lat="49.42716" lon="5.78138">
        <ele>280.20001220703</ele>
        <time>2024-06-09T08:44:32Z</time>
      </trkpt>
      <trkpt lat="49.42718" lon="5.78135">
        <ele>280.60000610352</ele>
        <time>2024-06-09T08:44:34Z</time>
      </trkpt>
      <trkpt lat="49.42719" lon="5.78133">
        <ele>281</ele>
        <time>2024-06-09T08:44:35Z</time>
      </trkpt>
      <trkpt lat="49.4272" lon="5.78131">
        <ele>281.20001220703</ele>
        <time>2024-06-09T08:44:36Z</time>
      </trkpt>
      <trkpt lat="49.42721" lon="5.78127">
        <ele>281.79998779297</ele>
        <time>2024-06-09T08:44:38Z</time>
      </trkpt>
      <trkpt lat="49.42722" lon="5.78124">
        <ele>282.20001220703</ele>
        <time>2024-06-09T08:44:39Z</time>
      </trkpt>
      <trkpt lat="49.42723" lon="5.78123">
        <ele>282.60000610352</ele>
        <time>2024-06-09T08:44:40Z</time>
      </trkpt>
      <trkpt lat="49.42725" lon="5.7812">
        <ele>283.20001220703</ele>
        <time>2024-06-09T08:44:42Z</time>
      </trkpt>
      <trkpt lat="49.42726" lon="5.78118">
        <ele>283.39999389648</ele>
        <time>2024-06-09T08:44:43Z</time>
      </trkpt>
      <trkpt lat="49.42727" lon="5.78117">
        <ele>283.60000610352</ele>
        <time>2024-06-09T08:44:44Z</time>
      </trkpt>
      <trkpt lat="49.42728" lon="5.78112">
        <ele>284.20001220703</ele>
        <time>2024-06-09T08:44:46Z</time>
      </trkpt>
      <trkpt lat="49.4273" lon="5.78108">
        <ele>284.60000610352</ele>
        <time>2024-06-09T08:44:48Z</time>
      </trkpt>
      <trkpt lat="49.42731" lon="5.78106">
        <ele>284.79998779297</ele>
        <time>2024-06-09T08:44:49Z</time>
      </trkpt>
      <trkpt lat="49.42732" lon="5.78105">
        <ele>285</ele>
        <time>2024-06-09T08:44:50Z</time>
      </trkpt>
      <trkpt lat="49.42733" lon="5.78104">
        <ele>285.39999389648</ele>
        <time>2024-06-09T08:44:51Z</time>
      </trkpt>
      <trkpt lat="49.42734" lon="5.78101">
        <ele>285.60000610352</ele>
        <time>2024-06-09T08:44:52Z</time>
      </trkpt>
      <trkpt lat="49.42734" lon="5.78097">
        <ele>286</ele>
        <time>2024-06-09T08:44:54Z</time>
      </trkpt>
      <trkpt lat="49.42736" lon="5.78093">
        <ele>286.39999389648</ele>
        <time>2024-06-09T08:44:56Z</time>
      </trkpt>
      <trkpt lat="49.42738" lon="5.7809">
        <ele>286.79998779297</ele>
        <time>2024-06-09T08:44:58Z</time>
      </trkpt>
      <trkpt lat="49.4274" lon="5.78087">
        <ele>287.39999389648</ele>
        <time>2024-06-09T08:45:00Z</time>
      </trkpt>
      <trkpt lat="49.42742" lon="5.78085">
        <ele>287.79998779297</ele>
        <time>2024-06-09T08:45:02Z</time>
      </trkpt>
      <trkpt lat="49.42743" lon="5.78085">
        <ele>288</ele>
        <time>2024-06-09T08:45:03Z</time>
      </trkpt>
      <trkpt lat="49.42744" lon="5.78084">
        <ele>288.20001220703</ele>
        <time>2024-06-09T08:45:04Z</time>
      </trkpt>
      <trkpt lat="49.42746" lon="5.78082">
        <ele>288.60000610352</ele>
        <time>2024-06-09T08:45:06Z</time>
      </trkpt>
      <trkpt lat="49.42747" lon="5.78082">
        <ele>289</ele>
        <time>2024-06-09T08:45:07Z</time>
      </trkpt>
      <trkpt lat="49.42748" lon="5.78082">
        <ele>289.39999389648</ele>
        <time>2024-06-09T08:45:08Z</time>
      </trkpt>
      <trkpt lat="49.42751" lon="5.78081">
        <ele>289.79998779297</ele>
        <time>2024-06-09T08:45:10Z</time>
      </trkpt>
      <trkpt lat="49.42753" lon="5.7808">
        <ele>290.39999389648</ele>
        <time>2024-06-09T08:45:12Z</time>
      </trkpt>
      <trkpt lat="49.42755" lon="5.7808">
        <ele>290.60000610352</ele>
        <time>2024-06-09T08:45:13Z</time>
      </trkpt>
      <trkpt lat="49.42757" lon="5.78079">
        <ele>290.79998779297</ele>
        <time>2024-06-09T08:45:14Z</time>
      </trkpt>
      <trkpt lat="49.42758" lon="5.78078">
        <ele>291.20001220703</ele>
        <time>2024-06-09T08:45:15Z</time>
      </trkpt>
      <trkpt lat="49.4276" lon="5.78078">
        <ele>291.39999389648</ele>
        <time>2024-06-09T08:45:16Z</time>
      </trkpt>
      <trkpt lat="49.42763" lon="5.78077">
        <ele>291.79998779297</ele>
        <time>2024-06-09T08:45:18Z</time>
      </trkpt>
      <trkpt lat="49.42766" lon="5.78076">
        <ele>292.20001220703</ele>
        <time>2024-06-09T08:45:20Z</time>
      </trkpt>
      <trkpt lat="49.42767" lon="5.78075">
        <ele>292.60000610352</ele>
        <time>2024-06-09T08:45:22Z</time>
      </trkpt>
      <trkpt lat="49.42768" lon="5.78074">
        <ele>293</ele>
        <time>2024-06-09T08:45:23Z</time>
      </trkpt>
      <trkpt lat="49.4277" lon="5.78074">
        <ele>293</ele>
        <time>2024-06-09T08:45:24Z</time>
      </trkpt>
      <trkpt lat="49.42772" lon="5.78073">
        <ele>293.20001220703</ele>
        <time>2024-06-09T08:45:26Z</time>
      </trkpt>
      <trkpt lat="49.42774" lon="5.78072">
        <ele>293.60000610352</ele>
        <time>2024-06-09T08:45:28Z</time>
      </trkpt>
      <trkpt lat="49.42776" lon="5.78071">
        <ele>294</ele>
        <time>2024-06-09T08:45:30Z</time>
      </trkpt>
      <trkpt lat="49.42778" lon="5.7807">
        <ele>294.39999389648</ele>
        <time>2024-06-09T08:45:32Z</time>
      </trkpt>
      <trkpt lat="49.42779" lon="5.78069">
        <ele>294.60000610352</ele>
        <time>2024-06-09T08:45:33Z</time>
      </trkpt>
      <trkpt lat="49.4278" lon="5.78069">
        <ele>294.79998779297</ele>
        <time>2024-06-09T08:45:34Z</time>
      </trkpt>
      <trkpt lat="49.42782" lon="5.78068">
        <ele>295.39999389648</ele>
        <time>2024-06-09T08:45:36Z</time>
      </trkpt>
      <trkpt lat="49.42783" lon="5.78067">
        <ele>295.79998779297</ele>
        <time>2024-06-09T08:45:38Z</time>
      </trkpt>
      <trkpt lat="49.42785" lon="5.78066">
        <ele>296.20001220703</ele>
        <time>2024-06-09T08:45:40Z</time>
      </trkpt>
      <trkpt lat="49.42787" lon="5.78066">
        <ele>296.60000610352</ele>
        <time>2024-06-09T08:45:42Z</time>
      </trkpt>
      <trkpt lat="49.4279" lon="5.78066">
        <ele>297</ele>
        <time>2024-06-09T08:45:44Z</time>
      </trkpt>
      <trkpt lat="49.42791" lon="5.78066">
        <ele>297.39999389648</ele>
        <time>2024-06-09T08:45:46Z</time>
      </trkpt>
      <trkpt lat="49.42792" lon="5.78065">
        <ele>297.60000610352</ele>
        <time>2024-06-09T08:45:47Z</time>
      </trkpt>
      <trkpt lat="49.42793" lon="5.78065">
        <ele>297.79998779297</ele>
        <time>2024-06-09T08:45:48Z</time>
      </trkpt>
      <trkpt lat="49.42795" lon="5.78063">
        <ele>298.20001220703</ele>
        <time>2024-06-09T08:45:50Z</time>
      </trkpt>
      <trkpt lat="49.42797" lon="5.78061">
        <ele>298.39999389648</ele>
        <time>2024-06-09T08:45:52Z</time>
      </trkpt>
      <trkpt lat="49.42799" lon="5.78059">
        <ele>298.79998779297</ele>
        <time>2024-06-09T08:45:54Z</time>
      </trkpt>
      <trkpt lat="49.42802" lon="5.78057">
        <ele>299</ele>
        <time>2024-06-09T08:45:56Z</time>
      </trkpt>
      <trkpt lat="49.42804" lon="5.78055">
        <ele>299.39999389648</ele>
        <time>2024-06-09T08:45:58Z</time>
      </trkpt>
      <trkpt lat="49.42806" lon="5.78053">
        <ele>299.79998779297</ele>
        <time>2024-06-09T08:46:00Z</time>
      </trkpt>
      <trkpt lat="49.42809" lon="5.78052">
        <ele>300.20001220703</ele>
        <time>2024-06-09T08:46:02Z</time>
      </trkpt>
      <trkpt lat="49.42812" lon="5.7805">
        <ele>300.79998779297</ele>
        <time>2024-06-09T08:46:04Z</time>
      </trkpt>
      <trkpt lat="49.42814" lon="5.78049">
        <ele>301.20001220703</ele>
        <time>2024-06-09T08:46:06Z</time>
      </trkpt>
      <trkpt lat="49.42816" lon="5.78048">
        <ele>301.60000610352</ele>
        <time>2024-06-09T08:46:08Z</time>
      </trkpt>
      <trkpt lat="49.42818" lon="5.78046">
        <ele>301.79998779297</ele>
        <time>2024-06-09T08:46:09Z</time>
      </trkpt>
      <trkpt lat="49.42818" lon="5.78045">
        <ele>302</ele>
        <time>2024-06-09T08:46:10Z</time>
      </trkpt>
      <trkpt lat="49.4282" lon="5.78042">
        <ele>302.60000610352</ele>
        <time>2024-06-09T08:46:12Z</time>
      </trkpt>
      <trkpt lat="49.42822" lon="5.7804">
        <ele>303</ele>
        <time>2024-06-09T08:46:14Z</time>
      </trkpt>
      <trkpt lat="49.42823" lon="5.78037">
        <ele>303.39999389648</ele>
        <time>2024-06-09T08:46:16Z</time>
      </trkpt>
      <trkpt lat="49.42825" lon="5.78035">
        <ele>303.79998779297</ele>
        <time>2024-06-09T08:46:18Z</time>
      </trkpt>
      <trkpt lat="49.42826" lon="5.78034">
        <ele>304</ele>
        <time>2024-06-09T08:46:19Z</time>
      </trkpt>
      <trkpt lat="49.42826" lon="5.78033">
        <ele>304.20001220703</ele>
        <time>2024-06-09T08:46:20Z</time>
      </trkpt>
      <trkpt lat="49.42827" lon="5.78031">
        <ele>304.39999389648</ele>
        <time>2024-06-09T08:46:22Z</time>
      </trkpt>
      <trkpt lat="49.42828" lon="5.78029">
        <ele>304.79998779297</ele>
        <time>2024-06-09T08:46:24Z</time>
      </trkpt>
      <trkpt lat="49.42828" lon="5.78029">
        <ele>305</ele>
        <time>2024-06-09T08:46:25Z</time>
      </trkpt>
      <trkpt lat="49.42829" lon="5.78028">
        <ele>305.20001220703</ele>
        <time>2024-06-09T08:46:26Z</time>
      </trkpt>
      <trkpt lat="49.42831" lon="5.78025">
        <ele>305.60000610352</ele>
        <time>2024-06-09T08:46:28Z</time>
      </trkpt>
      <trkpt lat="49.42832" lon="5.78024">
        <ele>306</ele>
        <time>2024-06-09T08:46:30Z</time>
      </trkpt>
      <trkpt lat="49.42832" lon="5.78022">
        <ele>306.20001220703</ele>
        <time>2024-06-09T08:46:31Z</time>
      </trkpt>
      <trkpt lat="49.42833" lon="5.78021">
        <ele>306.60000610352</ele>
        <time>2024-06-09T08:46:32Z</time>
      </trkpt>
      <trkpt lat="49.42835" lon="5.7802">
        <ele>307</ele>
        <time>2024-06-09T08:46:34Z</time>
      </trkpt>
      <trkpt lat="49.42835" lon="5.78018">
        <ele>307.39999389648</ele>
        <time>2024-06-09T08:46:35Z</time>
      </trkpt>
      <trkpt lat="49.42836" lon="5.78017">
        <ele>307.60000610352</ele>
        <time>2024-06-09T08:46:36Z</time>
      </trkpt>
      <trkpt lat="49.42838" lon="5.78016">
        <ele>308</ele>
        <time>2024-06-09T08:46:38Z</time>
      </trkpt>
      <trkpt lat="49.42839" lon="5.78014">
        <ele>308.39999389648</ele>
        <time>2024-06-09T08:46:40Z</time>
      </trkpt>
      <trkpt lat="49.42841" lon="5.78012">
        <ele>308.79998779297</ele>
        <time>2024-06-09T08:46:42Z</time>
      </trkpt>
      <trkpt lat="49.42843" lon="5.78009">
        <ele>309.20001220703</ele>
        <time>2024-06-09T08:46:44Z</time>
      </trkpt>
      <trkpt lat="49.42845" lon="5.78006">
        <ele>309.60000610352</ele>
        <time>2024-06-09T08:46:46Z</time>
      </trkpt>
      <trkpt lat="49.42847" lon="5.78004">
        <ele>310</ele>
        <time>2024-06-09T08:46:48Z</time>
      </trkpt>
      <trkpt lat="49.42849" lon="5.78001">
        <ele>310.39999389648</ele>
        <time>2024-06-09T08:46:50Z</time>
      </trkpt>
      <trkpt lat="49.4285" lon="5.77998">
        <ele>310.79998779297</ele>
        <time>2024-06-09T08:46:52Z</time>
      </trkpt>
      <trkpt lat="49.42851" lon="5.77996">
        <ele>311.20001220703</ele>
        <time>2024-06-09T08:46:54Z</time>
      </trkpt>
      <trkpt lat="49.42853" lon="5.77994">
        <ele>311.60000610352</ele>
        <time>2024-06-09T08:46:56Z</time>
      </trkpt>
      <trkpt lat="49.42854" lon="5.77992">
        <ele>311.79998779297</ele>
        <time>2024-06-09T08:46:57Z</time>
      </trkpt>
      <trkpt lat="49.42854" lon="5.77991">
        <ele>312</ele>
        <time>2024-06-09T08:46:58Z</time>
      </trkpt>
      <trkpt lat="49.42856" lon="5.77989">
        <ele>312.39999389648</ele>
        <time>2024-06-09T08:47:00Z</time>
      </trkpt>
      <trkpt lat="49.42857" lon="5.77988">
        <ele>312.79998779297</ele>
        <time>2024-06-09T08:47:02Z</time>
      </trkpt>
      <trkpt lat="49.42858" lon="5.77987">
        <ele>312.79998779297</ele>
        <time>2024-06-09T08:47:03Z</time>
      </trkpt>
      <trkpt lat="49.42859" lon="5.77986">
        <ele>313</ele>
        <time>2024-06-09T08:47:04Z</time>
      </trkpt>
      <trkpt lat="49.4286" lon="5.77983">
        <ele>313.39999389648</ele>
        <time>2024-06-09T08:47:06Z</time>
      </trkpt>
      <trkpt lat="49.42861" lon="5.77981">
        <ele>313.60000610352</ele>
        <time>2024-06-09T08:47:07Z</time>
      </trkpt>
      <trkpt lat="49.42862" lon="5.77979">
        <ele>313.60000610352</ele>
        <time>2024-06-09T08:47:08Z</time>
      </trkpt>
      <trkpt lat="49.42865" lon="5.77975">
        <ele>313.79998779297</ele>
        <time>2024-06-09T08:47:10Z</time>
      </trkpt>
      <trkpt lat="49.42866" lon="5.77973">
        <ele>314.20001220703</ele>
        <time>2024-06-09T08:47:12Z</time>
      </trkpt>
      <trkpt lat="49.42868" lon="5.7797">
        <ele>314.39999389648</ele>
        <time>2024-06-09T08:47:14Z</time>
      </trkpt>
      <trkpt lat="49.42869" lon="5.77968">
        <ele>314.79998779297</ele>
        <time>2024-06-09T08:47:16Z</time>
      </trkpt>
      <trkpt lat="49.4287" lon="5.77967">
        <ele>314.79998779297</ele>
        <time>2024-06-09T08:47:17Z</time>
      </trkpt>
      <trkpt lat="49.42871" lon="5.77966">
        <ele>315</ele>
        <time>2024-06-09T08:47:18Z</time>
      </trkpt>
      <trkpt lat="49.42873" lon="5.77963">
        <ele>315.60000610352</ele>
        <time>2024-06-09T08:47:20Z</time>
      </trkpt>
      <trkpt lat="49.42874" lon="5.77961">
        <ele>316</ele>
        <time>2024-06-09T08:47:22Z</time>
      </trkpt>
      <trkpt lat="49.42876" lon="5.77959">
        <ele>316.39999389648</ele>
        <time>2024-06-09T08:47:24Z</time>
      </trkpt>
      <trkpt lat="49.42878" lon="5.77956">
        <ele>316.60000610352</ele>
        <time>2024-06-09T08:47:26Z</time>
      </trkpt>
      <trkpt lat="49.42881" lon="5.77954">
        <ele>317.20001220703</ele>
        <time>2024-06-09T08:47:28Z</time>
      </trkpt>
      <trkpt lat="49.42883" lon="5.77951">
        <ele>317.60000610352</ele>
        <time>2024-06-09T08:47:30Z</time>
      </trkpt>
      <trkpt lat="49.42885" lon="5.77948">
        <ele>318</ele>
        <time>2024-06-09T08:47:32Z</time>
      </trkpt>
      <trkpt lat="49.42886" lon="5.77947">
        <ele>318.20001220703</ele>
        <time>2024-06-09T08:47:33Z</time>
      </trkpt>
      <trkpt lat="49.42887" lon="5.77946">
        <ele>318.39999389648</ele>
        <time>2024-06-09T08:47:34Z</time>
      </trkpt>
      <trkpt lat="49.42889" lon="5.77943">
        <ele>319</ele>
        <time>2024-06-09T08:47:36Z</time>
      </trkpt>
      <trkpt lat="49.42889" lon="5.77942">
        <ele>319.20001220703</ele>
        <time>2024-06-09T08:47:37Z</time>
      </trkpt>
      <trkpt lat="49.42889" lon="5.7794">
        <ele>319.60000610352</ele>
        <time>2024-06-09T08:47:38Z</time>
      </trkpt>
      <trkpt lat="49.4289" lon="5.77936">
        <ele>320</ele>
        <time>2024-06-09T08:47:40Z</time>
      </trkpt>
      <trkpt lat="49.42891" lon="5.77933">
        <ele>320.60000610352</ele>
        <time>2024-06-09T08:47:42Z</time>
      </trkpt>
      <trkpt lat="49.42893" lon="5.7793">
        <ele>320.79998779297</ele>
        <time>2024-06-09T08:47:44Z</time>
      </trkpt>
      <trkpt lat="49.42893" lon="5.77928">
        <ele>321</ele>
        <time>2024-06-09T08:47:45Z</time>
      </trkpt>
      <trkpt lat="49.42894" lon="5.77928">
        <ele>321.39999389648</ele>
        <time>2024-06-09T08:47:46Z</time>
      </trkpt>
      <trkpt lat="49.42895" lon="5.77925">
        <ele>321.60000610352</ele>
        <time>2024-06-09T08:47:48Z</time>
      </trkpt>
      <trkpt lat="49.42896" lon="5.77923">
        <ele>322</ele>
        <time>2024-06-09T08:47:50Z</time>
      </trkpt>
      <trkpt lat="49.42898" lon="5.7792">
        <ele>322.39999389648</ele>
        <time>2024-06-09T08:47:52Z</time>
      </trkpt>
      <trkpt lat="49.429" lon="5.77917">
        <ele>322.60000610352</ele>
        <time>2024-06-09T08:47:54Z</time>
      </trkpt>
      <trkpt lat="49.42901" lon="5.77916">
        <ele>322.60000610352</ele>
        <time>2024-06-09T08:47:55Z</time>
      </trkpt>
      <trkpt lat="49.42902" lon="5.77914">
        <ele>322.79998779297</ele>
        <time>2024-06-09T08:47:56Z</time>
      </trkpt>
      <trkpt lat="49.42903" lon="5.77911">
        <ele>323.20001220703</ele>
        <time>2024-06-09T08:47:58Z</time>
      </trkpt>
      <trkpt lat="49.42904" lon="5.77907">
        <ele>323.60000610352</ele>
        <time>2024-06-09T08:48:00Z</time>
      </trkpt>
      <trkpt lat="49.42905" lon="5.77905">
        <ele>323.60000610352</ele>
        <time>2024-06-09T08:48:01Z</time>
      </trkpt>
      <trkpt lat="49.42906" lon="5.77904">
        <ele>323.79998779297</ele>
        <time>2024-06-09T08:48:02Z</time>
      </trkpt>
      <trkpt lat="49.42907" lon="5.779">
        <ele>324</ele>
        <time>2024-06-09T08:48:04Z</time>
      </trkpt>
      <trkpt lat="49.42907" lon="5.77897">
        <ele>324.20001220703</ele>
        <time>2024-06-09T08:48:06Z</time>
      </trkpt>
      <trkpt lat="49.42906" lon="5.77893">
        <ele>324.39999389648</ele>
        <time>2024-06-09T08:48:08Z</time>
      </trkpt>
      <trkpt lat="49.42905" lon="5.77891">
        <ele>324.60000610352</ele>
        <time>2024-06-09T08:48:09Z</time>
      </trkpt>
      <trkpt lat="49.42904" lon="5.77888">
        <ele>324.60000610352</ele>
        <time>2024-06-09T08:48:10Z</time>
      </trkpt>
      <trkpt lat="49.42902" lon="5.77883">
        <ele>324.79998779297</ele>
        <time>2024-06-09T08:48:12Z</time>
      </trkpt>
      <trkpt lat="49.42901" lon="5.77881">
        <ele>324.79998779297</ele>
        <time>2024-06-09T08:48:13Z</time>
      </trkpt>
      <trkpt lat="49.429" lon="5.77878">
        <ele>324.79998779297</ele>
        <time>2024-06-09T08:48:14Z</time>
      </trkpt>
      <trkpt lat="49.42898" lon="5.77873">
        <ele>324.79998779297</ele>
        <time>2024-06-09T08:48:16Z</time>
      </trkpt>
      <trkpt lat="49.42897" lon="5.77868">
        <ele>324.79998779297</ele>
        <time>2024-06-09T08:48:18Z</time>
      </trkpt>
      <trkpt lat="49.42897" lon="5.77865">
        <ele>324.79998779297</ele>
        <time>2024-06-09T08:48:19Z</time>
      </trkpt>
      <trkpt lat="49.42897" lon="5.77863">
        <ele>324.60000610352</ele>
        <time>2024-06-09T08:48:20Z</time>
      </trkpt>
      <trkpt lat="49.42896" lon="5.77861">
        <ele>324.39999389648</ele>
        <time>2024-06-09T08:48:21Z</time>
      </trkpt>
      <trkpt lat="49.42896" lon="5.77858">
        <ele>324.20001220703</ele>
        <time>2024-06-09T08:48:22Z</time>
      </trkpt>
      <trkpt lat="49.42896" lon="5.77851">
        <ele>324</ele>
        <time>2024-06-09T08:48:24Z</time>
      </trkpt>
      <trkpt lat="49.42895" lon="5.77844">
        <ele>323.79998779297</ele>
        <time>2024-06-09T08:48:26Z</time>
      </trkpt>
      <trkpt lat="49.42896" lon="5.7784">
        <ele>323.79998779297</ele>
        <time>2024-06-09T08:48:27Z</time>
      </trkpt>
      <trkpt lat="49.42896" lon="5.77837">
        <ele>323.79998779297</ele>
        <time>2024-06-09T08:48:28Z</time>
      </trkpt>
      <trkpt lat="49.42896" lon="5.7783">
        <ele>323.79998779297</ele>
        <time>2024-06-09T08:48:30Z</time>
      </trkpt>
      <trkpt lat="49.42896" lon="5.77823">
        <ele>323.79998779297</ele>
        <time>2024-06-09T08:48:32Z</time>
      </trkpt>
      <trkpt lat="49.42895" lon="5.77819">
        <ele>323.79998779297</ele>
        <time>2024-06-09T08:48:33Z</time>
      </trkpt>
      <trkpt lat="49.42894" lon="5.77815">
        <ele>323.79998779297</ele>
        <time>2024-06-09T08:48:34Z</time>
      </trkpt>
      <trkpt lat="49.42892" lon="5.77807">
        <ele>323.79998779297</ele>
        <time>2024-06-09T08:48:36Z</time>
      </trkpt>
      <trkpt lat="49.42889" lon="5.77798">
        <ele>323.79998779297</ele>
        <time>2024-06-09T08:48:38Z</time>
      </trkpt>
      <trkpt lat="49.42888" lon="5.77792">
        <ele>323.79998779297</ele>
        <time>2024-06-09T08:48:39Z</time>
      </trkpt>
      <trkpt lat="49.42886" lon="5.77786">
        <ele>323.79998779297</ele>
        <time>2024-06-09T08:48:40Z</time>
      </trkpt>
      <trkpt lat="49.42883" lon="5.77774">
        <ele>323.60000610352</ele>
        <time>2024-06-09T08:48:42Z</time>
      </trkpt>
      <trkpt lat="49.4288" lon="5.77763">
        <ele>323.60000610352</ele>
        <time>2024-06-09T08:48:44Z</time>
      </trkpt>
      <trkpt lat="49.42876" lon="5.77751">
        <ele>323.60000610352</ele>
        <time>2024-06-09T08:48:46Z</time>
      </trkpt>
      <trkpt lat="49.42872" lon="5.77741">
        <ele>323.60000610352</ele>
        <time>2024-06-09T08:48:48Z</time>
      </trkpt>
      <trkpt lat="49.42868" lon="5.7773">
        <ele>323.39999389648</ele>
        <time>2024-06-09T08:48:50Z</time>
      </trkpt>
      <trkpt lat="49.42865" lon="5.77724">
        <ele>323.39999389648</ele>
        <time>2024-06-09T08:48:51Z</time>
      </trkpt>
      <trkpt lat="49.42863" lon="5.77719">
        <ele>323.39999389648</ele>
        <time>2024-06-09T08:48:52Z</time>
      </trkpt>
      <trkpt lat="49.42858" lon="5.77709">
        <ele>323.39999389648</ele>
        <time>2024-06-09T08:48:54Z</time>
      </trkpt>
      <trkpt lat="49.42854" lon="5.77696">
        <ele>323</ele>
        <time>2024-06-09T08:48:56Z</time>
      </trkpt>
      <trkpt lat="49.42848" lon="5.77683">
        <ele>322.60000610352</ele>
        <time>2024-06-09T08:48:58Z</time>
      </trkpt>
      <trkpt lat="49.42845" lon="5.77677">
        <ele>322.39999389648</ele>
        <time>2024-06-09T08:48:59Z</time>
      </trkpt>
      <trkpt lat="49.4284" lon="5.7767">
        <ele>322</ele>
        <time>2024-06-09T08:49:00Z</time>
      </trkpt>
      <trkpt lat="49.42837" lon="5.77663">
        <ele>321.60000610352</ele>
        <time>2024-06-09T08:49:01Z</time>
      </trkpt>
      <trkpt lat="49.42833" lon="5.77656">
        <ele>321.20001220703</ele>
        <time>2024-06-09T08:49:02Z</time>
      </trkpt>
      <trkpt lat="49.42828" lon="5.77648">
        <ele>321</ele>
        <time>2024-06-09T08:49:03Z</time>
      </trkpt>
      <trkpt lat="49.42824" lon="5.7764">
        <ele>320.79998779297</ele>
        <time>2024-06-09T08:49:04Z</time>
      </trkpt>
      <trkpt lat="49.4282" lon="5.77632">
        <ele>320.60000610352</ele>
        <time>2024-06-09T08:49:05Z</time>
      </trkpt>
      <trkpt lat="49.42817" lon="5.77625">
        <ele>320.39999389648</ele>
        <time>2024-06-09T08:49:06Z</time>
      </trkpt>
      <trkpt lat="49.42813" lon="5.77612">
        <ele>320</ele>
        <time>2024-06-09T08:49:08Z</time>
      </trkpt>
      <trkpt lat="49.4281" lon="5.77602">
        <ele>319.60000610352</ele>
        <time>2024-06-09T08:49:10Z</time>
      </trkpt>
      <trkpt lat="49.42809" lon="5.77596">
        <ele>319.20001220703</ele>
        <time>2024-06-09T08:49:11Z</time>
      </trkpt>
      <trkpt lat="49.42809" lon="5.77591">
        <ele>318.79998779297</ele>
        <time>2024-06-09T08:49:12Z</time>
      </trkpt>
      <trkpt lat="49.42808" lon="5.77579">
        <ele>318.39999389648</ele>
        <time>2024-06-09T08:49:14Z</time>
      </trkpt>
      <trkpt lat="49.42807" lon="5.77565">
        <ele>318.39999389648</ele>
        <time>2024-06-09T08:49:16Z</time>
      </trkpt>
      <trkpt lat="49.42806" lon="5.77558">
        <ele>318.39999389648</ele>
        <time>2024-06-09T08:49:17Z</time>
      </trkpt>
      <trkpt lat="49.42806" lon="5.77551">
        <ele>318.39999389648</ele>
        <time>2024-06-09T08:49:18Z</time>
      </trkpt>
      <trkpt lat="49.42806" lon="5.7754">
        <ele>318.39999389648</ele>
        <time>2024-06-09T08:49:20Z</time>
      </trkpt>
      <trkpt lat="49.42804" lon="5.77535">
        <ele>318.39999389648</ele>
        <time>2024-06-09T08:49:21Z</time>
      </trkpt>
      <trkpt lat="49.42801" lon="5.77533">
        <ele>318.39999389648</ele>
        <time>2024-06-09T08:49:22Z</time>
      </trkpt>
      <trkpt lat="49.42796" lon="5.77533">
        <ele>318.79998779297</ele>
        <time>2024-06-09T08:49:24Z</time>
      </trkpt>
      <trkpt lat="49.42789" lon="5.77531">
        <ele>319</ele>
        <time>2024-06-09T08:49:26Z</time>
      </trkpt>
      <trkpt lat="49.4278" lon="5.77523">
        <ele>319</ele>
        <time>2024-06-09T08:49:28Z</time>
      </trkpt>
      <trkpt lat="49.4277" lon="5.7751">
        <ele>319</ele>
        <time>2024-06-09T08:49:30Z</time>
      </trkpt>
      <trkpt lat="49.42759" lon="5.77492">
        <ele>319</ele>
        <time>2024-06-09T08:49:32Z</time>
      </trkpt>
      <trkpt lat="49.42745" lon="5.7747">
        <ele>318.60000610352</ele>
        <time>2024-06-09T08:49:34Z</time>
      </trkpt>
      <trkpt lat="49.4274" lon="5.77458">
        <ele>317.60000610352</ele>
        <time>2024-06-09T08:49:35Z</time>
      </trkpt>
      <trkpt lat="49.42734" lon="5.77445">
        <ele>316.39999389648</ele>
        <time>2024-06-09T08:49:36Z</time>
      </trkpt>
      <trkpt lat="49.4273" lon="5.7743">
        <ele>315</ele>
        <time>2024-06-09T08:49:37Z</time>
      </trkpt>
      <trkpt lat="49.42727" lon="5.77417">
        <ele>313.79998779297</ele>
        <time>2024-06-09T08:49:38Z</time>
      </trkpt>
      <trkpt lat="49.4272" lon="5.77397">
        <ele>312</ele>
        <time>2024-06-09T08:49:40Z</time>
      </trkpt>
      <trkpt lat="49.42716" lon="5.7738">
        <ele>310.39999389648</ele>
        <time>2024-06-09T08:49:42Z</time>
      </trkpt>
      <trkpt lat="49.42712" lon="5.77363">
        <ele>309.79998779297</ele>
        <time>2024-06-09T08:49:44Z</time>
      </trkpt>
      <trkpt lat="49.42707" lon="5.77345">
        <ele>309.60000610352</ele>
        <time>2024-06-09T08:49:46Z</time>
      </trkpt>
      <trkpt lat="49.42703" lon="5.77328">
        <ele>309.39999389648</ele>
        <time>2024-06-09T08:49:48Z</time>
      </trkpt>
      <trkpt lat="49.42701" lon="5.77318">
        <ele>309.20001220703</ele>
        <time>2024-06-09T08:49:49Z</time>
      </trkpt>
      <trkpt lat="49.427" lon="5.77309">
        <ele>309.20001220703</ele>
        <time>2024-06-09T08:49:50Z</time>
      </trkpt>
      <trkpt lat="49.42698" lon="5.77287">
        <ele>308.79998779297</ele>
        <time>2024-06-09T08:49:52Z</time>
      </trkpt>
      <trkpt lat="49.42696" lon="5.77275">
        <ele>308.60000610352</ele>
        <time>2024-06-09T08:49:53Z</time>
      </trkpt>
      <trkpt lat="49.42695" lon="5.77265">
        <ele>308.60000610352</ele>
        <time>2024-06-09T08:49:54Z</time>
      </trkpt>
      <trkpt lat="49.42695" lon="5.77246">
        <ele>308.60000610352</ele>
        <time>2024-06-09T08:49:56Z</time>
      </trkpt>
      <trkpt lat="49.42694" lon="5.77236">
        <ele>308.39999389648</ele>
        <time>2024-06-09T08:49:57Z</time>
      </trkpt>
      <trkpt lat="49.42694" lon="5.77226">
        <ele>308</ele>
        <time>2024-06-09T08:49:58Z</time>
      </trkpt>
      <trkpt lat="49.4269" lon="5.77205">
        <ele>307.79998779297</ele>
        <time>2024-06-09T08:50:00Z</time>
      </trkpt>
      <trkpt lat="49.42689" lon="5.77194">
        <ele>307.79998779297</ele>
        <time>2024-06-09T08:50:01Z</time>
      </trkpt>
      <trkpt lat="49.42689" lon="5.77181">
        <ele>307.60000610352</ele>
        <time>2024-06-09T08:50:02Z</time>
      </trkpt>
      <trkpt lat="49.4269" lon="5.7715">
        <ele>307.20001220703</ele>
        <time>2024-06-09T08:50:04Z</time>
      </trkpt>
      <trkpt lat="49.42689" lon="5.77135">
        <ele>306.39999389648</ele>
        <time>2024-06-09T08:50:05Z</time>
      </trkpt>
      <trkpt lat="49.42688" lon="5.77118">
        <ele>305.39999389648</ele>
        <time>2024-06-09T08:50:06Z</time>
      </trkpt>
      <trkpt lat="49.42686" lon="5.77103">
        <ele>304.39999389648</ele>
        <time>2024-06-09T08:50:07Z</time>
      </trkpt>
      <trkpt lat="49.42685" lon="5.77087">
        <ele>303.20001220703</ele>
        <time>2024-06-09T08:50:08Z</time>
      </trkpt>
      <trkpt lat="49.42683" lon="5.77071">
        <ele>301.79998779297</ele>
        <time>2024-06-09T08:50:09Z</time>
      </trkpt>
      <trkpt lat="49.42682" lon="5.77054">
        <ele>300.79998779297</ele>
        <time>2024-06-09T08:50:10Z</time>
      </trkpt>
      <trkpt lat="49.42682" lon="5.77037">
        <ele>300.20001220703</ele>
        <time>2024-06-09T08:50:11Z</time>
      </trkpt>
      <trkpt lat="49.42681" lon="5.77021">
        <ele>299.79998779297</ele>
        <time>2024-06-09T08:50:12Z</time>
      </trkpt>
      <trkpt lat="49.4268" lon="5.76991">
        <ele>299</ele>
        <time>2024-06-09T08:50:14Z</time>
      </trkpt>
      <trkpt lat="49.42681" lon="5.76979">
        <ele>298.39999389648</ele>
        <time>2024-06-09T08:50:15Z</time>
      </trkpt>
      <trkpt lat="49.4268" lon="5.76966">
        <ele>297.60000610352</ele>
        <time>2024-06-09T08:50:16Z</time>
      </trkpt>
      <trkpt lat="49.42678" lon="5.76942">
        <ele>296.39999389648</ele>
        <time>2024-06-09T08:50:18Z</time>
      </trkpt>
      <trkpt lat="49.42677" lon="5.76933">
        <ele>296</ele>
        <time>2024-06-09T08:50:19Z</time>
      </trkpt>
      <trkpt lat="49.42676" lon="5.76924">
        <ele>295.79998779297</ele>
        <time>2024-06-09T08:50:20Z</time>
      </trkpt>
      <trkpt lat="49.42675" lon="5.76905">
        <ele>295.79998779297</ele>
        <time>2024-06-09T08:50:22Z</time>
      </trkpt>
      <trkpt lat="49.42674" lon="5.76891">
        <ele>295.79998779297</ele>
        <time>2024-06-09T08:50:24Z</time>
      </trkpt>
      <trkpt lat="49.42669" lon="5.76876">
        <ele>296.20001220703</ele>
        <time>2024-06-09T08:50:26Z</time>
      </trkpt>
      <trkpt lat="49.42661" lon="5.7686">
        <ele>297</ele>
        <time>2024-06-09T08:50:28Z</time>
      </trkpt>
      <trkpt lat="49.42657" lon="5.76849">
        <ele>297.39999389648</ele>
        <time>2024-06-09T08:50:29Z</time>
      </trkpt>
      <trkpt lat="49.42653" lon="5.76841">
        <ele>297.60000610352</ele>
        <time>2024-06-09T08:50:30Z</time>
      </trkpt>
      <trkpt lat="49.42645" lon="5.76827">
        <ele>297.79998779297</ele>
        <time>2024-06-09T08:50:32Z</time>
      </trkpt>
      <trkpt lat="49.4264" lon="5.7682">
        <ele>297.79998779297</ele>
        <time>2024-06-09T08:50:33Z</time>
      </trkpt>
      <trkpt lat="49.42634" lon="5.76813">
        <ele>297.79998779297</ele>
        <time>2024-06-09T08:50:34Z</time>
      </trkpt>
      <trkpt lat="49.42622" lon="5.76799">
        <ele>297.79998779297</ele>
        <time>2024-06-09T08:50:36Z</time>
      </trkpt>
      <trkpt lat="49.42611" lon="5.76784">
        <ele>297.60000610352</ele>
        <time>2024-06-09T08:50:38Z</time>
      </trkpt>
      <trkpt lat="49.42598" lon="5.76766">
        <ele>297.60000610352</ele>
        <time>2024-06-09T08:50:40Z</time>
      </trkpt>
      <trkpt lat="49.42594" lon="5.76757">
        <ele>296.20001220703</ele>
        <time>2024-06-09T08:50:41Z</time>
      </trkpt>
      <trkpt lat="49.42588" lon="5.76748">
        <ele>294.20001220703</ele>
        <time>2024-06-09T08:50:42Z</time>
      </trkpt>
      <trkpt lat="49.42584" lon="5.76739">
        <ele>292.60000610352</ele>
        <time>2024-06-09T08:50:43Z</time>
      </trkpt>
      <trkpt lat="49.42581" lon="5.76731">
        <ele>290.79998779297</ele>
        <time>2024-06-09T08:50:44Z</time>
      </trkpt>
      <trkpt lat="49.42579" lon="5.76722">
        <ele>288.79998779297</ele>
        <time>2024-06-09T08:50:45Z</time>
      </trkpt>
      <trkpt lat="49.42578" lon="5.76713">
        <ele>287</ele>
        <time>2024-06-09T08:50:46Z</time>
      </trkpt>
      <trkpt lat="49.42576" lon="5.76701">
        <ele>283.39999389648</ele>
        <time>2024-06-09T08:50:47Z</time>
      </trkpt>
      <trkpt lat="49.42574" lon="5.76691">
        <ele>282</ele>
        <time>2024-06-09T08:50:48Z</time>
      </trkpt>
      <trkpt lat="49.42574" lon="5.76679">
        <ele>281.20001220703</ele>
        <time>2024-06-09T08:50:49Z</time>
      </trkpt>
      <trkpt lat="49.42574" lon="5.76667">
        <ele>280.79998779297</ele>
        <time>2024-06-09T08:50:50Z</time>
      </trkpt>
      <trkpt lat="49.42574" lon="5.76653">
        <ele>280.60000610352</ele>
        <time>2024-06-09T08:50:51Z</time>
      </trkpt>
      <trkpt lat="49.42575" lon="5.76641">
        <ele>280.39999389648</ele>
        <time>2024-06-09T08:50:52Z</time>
      </trkpt>
      <trkpt lat="49.42584" lon="5.76621">
        <ele>280</ele>
        <time>2024-06-09T08:50:54Z</time>
      </trkpt>
      <trkpt lat="49.42589" lon="5.7661">
        <ele>279.60000610352</ele>
        <time>2024-06-09T08:50:55Z</time>
      </trkpt>
      <trkpt lat="49.42592" lon="5.76601">
        <ele>279.39999389648</ele>
        <time>2024-06-09T08:50:56Z</time>
      </trkpt>
      <trkpt lat="49.42597" lon="5.7658">
        <ele>279</ele>
        <time>2024-06-09T08:50:58Z</time>
      </trkpt>
      <trkpt lat="49.42604" lon="5.7656">
        <ele>278.20001220703</ele>
        <time>2024-06-09T08:51:00Z</time>
      </trkpt>
      <trkpt lat="49.42613" lon="5.76542">
        <ele>277.39999389648</ele>
        <time>2024-06-09T08:51:02Z</time>
      </trkpt>
      <trkpt lat="49.42617" lon="5.76531">
        <ele>277.20001220703</ele>
        <time>2024-06-09T08:51:03Z</time>
      </trkpt>
      <trkpt lat="49.42619" lon="5.76519">
        <ele>277.20001220703</ele>
        <time>2024-06-09T08:51:04Z</time>
      </trkpt>
      <trkpt lat="49.42622" lon="5.76509">
        <ele>277</ele>
        <time>2024-06-09T08:51:05Z</time>
      </trkpt>
      <trkpt lat="49.42625" lon="5.76501">
        <ele>277</ele>
        <time>2024-06-09T08:51:06Z</time>
      </trkpt>
      <trkpt lat="49.42629" lon="5.76494">
        <ele>276.79998779297</ele>
        <time>2024-06-09T08:51:07Z</time>
      </trkpt>
      <trkpt lat="49.42634" lon="5.76488">
        <ele>276.60000610352</ele>
        <time>2024-06-09T08:51:08Z</time>
      </trkpt>
      <trkpt lat="49.4264" lon="5.7648">
        <ele>276.39999389648</ele>
        <time>2024-06-09T08:51:09Z</time>
      </trkpt>
      <trkpt lat="49.42655" lon="5.76468">
        <ele>276.20001220703</ele>
        <time>2024-06-09T08:51:11Z</time>
      </trkpt>
      <trkpt lat="49.42678" lon="5.76449">
        <ele>276</ele>
        <time>2024-06-09T08:51:14Z</time>
      </trkpt>
      <trkpt lat="49.42686" lon="5.76443">
        <ele>275.79998779297</ele>
        <time>2024-06-09T08:51:15Z</time>
      </trkpt>
      <trkpt lat="49.42689" lon="5.76438">
        <ele>275.60000610352</ele>
        <time>2024-06-09T08:51:16Z</time>
      </trkpt>
      <trkpt lat="49.42696" lon="5.76424">
        <ele>275.39999389648</ele>
        <time>2024-06-09T08:51:18Z</time>
      </trkpt>
      <trkpt lat="49.42703" lon="5.76406">
        <ele>275</ele>
        <time>2024-06-09T08:51:20Z</time>
      </trkpt>
      <trkpt lat="49.4271" lon="5.76396">
        <ele>274.39999389648</ele>
        <time>2024-06-09T08:51:21Z</time>
      </trkpt>
      <trkpt lat="49.42718" lon="5.76388">
        <ele>273.79998779297</ele>
        <time>2024-06-09T08:51:22Z</time>
      </trkpt>
      <trkpt lat="49.42737" lon="5.7637">
        <ele>272.79998779297</ele>
        <time>2024-06-09T08:51:24Z</time>
      </trkpt>
      <trkpt lat="49.42744" lon="5.76362">
        <ele>272.20001220703</ele>
        <time>2024-06-09T08:51:25Z</time>
      </trkpt>
      <trkpt lat="49.42751" lon="5.76354">
        <ele>270.39999389648</ele>
        <time>2024-06-09T08:51:26Z</time>
      </trkpt>
      <trkpt lat="49.42757" lon="5.76342">
        <ele>268.60000610352</ele>
        <time>2024-06-09T08:51:27Z</time>
      </trkpt>
      <trkpt lat="49.42759" lon="5.76328">
        <ele>266.60000610352</ele>
        <time>2024-06-09T08:51:28Z</time>
      </trkpt>
      <trkpt lat="49.42762" lon="5.76315">
        <ele>265.20001220703</ele>
        <time>2024-06-09T08:51:29Z</time>
      </trkpt>
      <trkpt lat="49.42764" lon="5.76301">
        <ele>264.20001220703</ele>
        <time>2024-06-09T08:51:30Z</time>
      </trkpt>
      <trkpt lat="49.42764" lon="5.76289">
        <ele>263.79998779297</ele>
        <time>2024-06-09T08:51:31Z</time>
      </trkpt>
      <trkpt lat="49.42759" lon="5.76272">
        <ele>263.60000610352</ele>
        <time>2024-06-09T08:51:32Z</time>
      </trkpt>
      <trkpt lat="49.42756" lon="5.76253">
        <ele>263</ele>
        <time>2024-06-09T08:51:34Z</time>
      </trkpt>
      <trkpt lat="49.42752" lon="5.76243">
        <ele>262.60000610352</ele>
        <time>2024-06-09T08:51:35Z</time>
      </trkpt>
      <trkpt lat="49.42748" lon="5.76232">
        <ele>262.20001220703</ele>
        <time>2024-06-09T08:51:36Z</time>
      </trkpt>
      <trkpt lat="49.42733" lon="5.76204">
        <ele>261.60000610352</ele>
        <time>2024-06-09T08:51:38Z</time>
      </trkpt>
      <trkpt lat="49.42728" lon="5.76194">
        <ele>261.39999389648</ele>
        <time>2024-06-09T08:51:39Z</time>
      </trkpt>
      <trkpt lat="49.42722" lon="5.76182">
        <ele>261.20001220703</ele>
        <time>2024-06-09T08:51:40Z</time>
      </trkpt>
      <trkpt lat="49.42717" lon="5.76173">
        <ele>261.20001220703</ele>
        <time>2024-06-09T08:51:41Z</time>
      </trkpt>
      <trkpt lat="49.42711" lon="5.76163">
        <ele>261.20001220703</ele>
        <time>2024-06-09T08:51:42Z</time>
      </trkpt>
      <trkpt lat="49.42697" lon="5.76143">
        <ele>260.79998779297</ele>
        <time>2024-06-09T08:51:44Z</time>
      </trkpt>
      <trkpt lat="49.42688" lon="5.76131">
        <ele>260.79998779297</ele>
        <time>2024-06-09T08:51:46Z</time>
      </trkpt>
      <trkpt lat="49.42683" lon="5.76125">
        <ele>260.79998779297</ele>
        <time>2024-06-09T08:51:47Z</time>
      </trkpt>
      <trkpt lat="49.42678" lon="5.76118">
        <ele>260.60000610352</ele>
        <time>2024-06-09T08:51:48Z</time>
      </trkpt>
      <trkpt lat="49.42669" lon="5.76107">
        <ele>260.39999389648</ele>
        <time>2024-06-09T08:51:50Z</time>
      </trkpt>
      <trkpt lat="49.4266" lon="5.76095">
        <ele>260.60000610352</ele>
        <time>2024-06-09T08:51:52Z</time>
      </trkpt>
      <trkpt lat="49.42652" lon="5.76087">
        <ele>260.60000610352</ele>
        <time>2024-06-09T08:51:54Z</time>
      </trkpt>
      <trkpt lat="49.42649" lon="5.76082">
        <ele>260.39999389648</ele>
        <time>2024-06-09T08:51:55Z</time>
      </trkpt>
      <trkpt lat="49.42646" lon="5.76077">
        <ele>260.60000610352</ele>
        <time>2024-06-09T08:51:56Z</time>
      </trkpt>
      <trkpt lat="49.42642" lon="5.76073">
        <ele>260.79998779297</ele>
        <time>2024-06-09T08:51:57Z</time>
      </trkpt>
      <trkpt lat="49.42639" lon="5.76068">
        <ele>260.60000610352</ele>
        <time>2024-06-09T08:51:58Z</time>
      </trkpt>
      <trkpt lat="49.42632" lon="5.76059">
        <ele>260.79998779297</ele>
        <time>2024-06-09T08:52:00Z</time>
      </trkpt>
      <trkpt lat="49.42626" lon="5.76052">
        <ele>261.20001220703</ele>
        <time>2024-06-09T08:52:02Z</time>
      </trkpt>
      <trkpt lat="49.42625" lon="5.76052">
        <ele>261.60000610352</ele>
        <time>2024-06-09T08:52:03Z</time>
      </trkpt>
      <trkpt lat="49.42624" lon="5.76053">
        <ele>261.79998779297</ele>
        <time>2024-06-09T08:52:04Z</time>
      </trkpt>
      <trkpt lat="49.42624" lon="5.76059">
        <ele>262.20001220703</ele>
        <time>2024-06-09T08:52:06Z</time>
      </trkpt>
      <trkpt lat="49.42625" lon="5.76063">
        <ele>262.20001220703</ele>
        <time>2024-06-09T08:52:07Z</time>
      </trkpt>
      <trkpt lat="49.42625" lon="5.76066">
        <ele>262.20001220703</ele>
        <time>2024-06-09T08:52:08Z</time>
      </trkpt>
      <trkpt lat="49.42624" lon="5.76076">
        <ele>262.20001220703</ele>
        <time>2024-06-09T08:52:10Z</time>
      </trkpt>
      <trkpt lat="49.42623" lon="5.76083">
        <ele>262.20001220703</ele>
        <time>2024-06-09T08:52:12Z</time>
      </trkpt>
      <trkpt lat="49.42622" lon="5.76091">
        <ele>261.79998779297</ele>
        <time>2024-06-09T08:52:14Z</time>
      </trkpt>
      <trkpt lat="49.42622" lon="5.76095">
        <ele>261.39999389648</ele>
        <time>2024-06-09T08:52:15Z</time>
      </trkpt>
      <trkpt lat="49.42623" lon="5.761">
        <ele>261.20001220703</ele>
        <time>2024-06-09T08:52:16Z</time>
      </trkpt>
      <trkpt lat="49.42624" lon="5.76104">
        <ele>261.20001220703</ele>
        <time>2024-06-09T08:52:17Z</time>
      </trkpt>
      <trkpt lat="49.42624" lon="5.76108">
        <ele>261.20001220703</ele>
        <time>2024-06-09T08:52:18Z</time>
      </trkpt>
      <trkpt lat="49.42626" lon="5.76115">
        <ele>261.20001220703</ele>
        <time>2024-06-09T08:52:20Z</time>
      </trkpt>
      <trkpt lat="49.42626" lon="5.76119">
        <ele>261.20001220703</ele>
        <time>2024-06-09T08:52:21Z</time>
      </trkpt>
      <trkpt lat="49.42627" lon="5.76122">
        <ele>261.20001220703</ele>
        <time>2024-06-09T08:52:22Z</time>
      </trkpt>
      <trkpt lat="49.4263" lon="5.76128">
        <ele>261.20001220703</ele>
        <time>2024-06-09T08:52:24Z</time>
      </trkpt>
      <trkpt lat="49.42633" lon="5.76134">
        <ele>261.20001220703</ele>
        <time>2024-06-09T08:52:26Z</time>
      </trkpt>
      <trkpt lat="49.42635" lon="5.76137">
        <ele>261.20001220703</ele>
        <time>2024-06-09T08:52:27Z</time>
      </trkpt>
      <trkpt lat="49.42637" lon="5.7614">
        <ele>261.20001220703</ele>
        <time>2024-06-09T08:52:28Z</time>
      </trkpt>
      <trkpt lat="49.42642" lon="5.7615">
        <ele>261.60000610352</ele>
        <time>2024-06-09T08:52:31Z</time>
      </trkpt>
      <trkpt lat="49.42643" lon="5.76157">
        <ele>262</ele>
        <time>2024-06-09T08:52:33Z</time>
      </trkpt>
      <trkpt lat="49.42644" lon="5.76161">
        <ele>262.20001220703</ele>
        <time>2024-06-09T08:52:34Z</time>
      </trkpt>
      <trkpt lat="49.42645" lon="5.76165">
        <ele>262.39999389648</ele>
        <time>2024-06-09T08:52:35Z</time>
      </trkpt>
      <trkpt lat="49.42647" lon="5.76172">
        <ele>262.79998779297</ele>
        <time>2024-06-09T08:52:37Z</time>
      </trkpt>
      <trkpt lat="49.42649" lon="5.7618">
        <ele>263.20001220703</ele>
        <time>2024-06-09T08:52:39Z</time>
      </trkpt>
      <trkpt lat="49.4265" lon="5.76186">
        <ele>264.20001220703</ele>
        <time>2024-06-09T08:52:41Z</time>
      </trkpt>
      <trkpt lat="49.42651" lon="5.76188">
        <ele>264.60000610352</ele>
        <time>2024-06-09T08:52:42Z</time>
      </trkpt>
      <trkpt lat="49.42651" lon="5.76191">
        <ele>265</ele>
        <time>2024-06-09T08:52:43Z</time>
      </trkpt>
      <trkpt lat="49.42651" lon="5.76194">
        <ele>265.39999389648</ele>
        <time>2024-06-09T08:52:44Z</time>
      </trkpt>
      <trkpt lat="49.42651" lon="5.76197">
        <ele>265.60000610352</ele>
        <time>2024-06-09T08:52:45Z</time>
      </trkpt>
      <trkpt lat="49.4265" lon="5.76202">
        <ele>266</ele>
        <time>2024-06-09T08:52:47Z</time>
      </trkpt>
      <trkpt lat="49.42649" lon="5.76205">
        <ele>266.60000610352</ele>
        <time>2024-06-09T08:52:49Z</time>
      </trkpt>
      <trkpt lat="49.42649" lon="5.76207">
        <ele>266.79998779297</ele>
        <time>2024-06-09T08:52:50Z</time>
      </trkpt>
      <trkpt lat="49.42648" lon="5.76209">
        <ele>267</ele>
        <time>2024-06-09T08:52:51Z</time>
      </trkpt>
      <trkpt lat="49.42647" lon="5.7621">
        <ele>267.20001220703</ele>
        <time>2024-06-09T08:52:52Z</time>
      </trkpt>
      <trkpt lat="49.42647" lon="5.76211">
        <ele>267.60000610352</ele>
        <time>2024-06-09T08:52:53Z</time>
      </trkpt>
      <trkpt lat="49.42646" lon="5.76212">
        <ele>268</ele>
        <time>2024-06-09T08:52:54Z</time>
      </trkpt>
      <trkpt lat="49.42645" lon="5.76212">
        <ele>268.20001220703</ele>
        <time>2024-06-09T08:52:55Z</time>
      </trkpt>
      <trkpt lat="49.42642" lon="5.76213">
        <ele>268.60000610352</ele>
        <time>2024-06-09T08:52:57Z</time>
      </trkpt>
      <trkpt lat="49.42642" lon="5.76215">
        <ele>269</ele>
        <time>2024-06-09T08:52:58Z</time>
      </trkpt>
      <trkpt lat="49.42641" lon="5.76215">
        <ele>269.20001220703</ele>
        <time>2024-06-09T08:52:59Z</time>
      </trkpt>
      <trkpt lat="49.42638" lon="5.76216">
        <ele>269.60000610352</ele>
        <time>2024-06-09T08:53:01Z</time>
      </trkpt>
      <trkpt lat="49.42635" lon="5.76218">
        <ele>270</ele>
        <time>2024-06-09T08:53:03Z</time>
      </trkpt>
      <trkpt lat="49.42633" lon="5.76219">
        <ele>270.39999389648</ele>
        <time>2024-06-09T08:53:05Z</time>
      </trkpt>
      <trkpt lat="49.4263" lon="5.76218">
        <ele>271</ele>
        <time>2024-06-09T08:53:07Z</time>
      </trkpt>
      <trkpt lat="49.42629" lon="5.76218">
        <ele>271.39999389648</ele>
        <time>2024-06-09T08:53:08Z</time>
      </trkpt>
      <trkpt lat="49.42628" lon="5.76217">
        <ele>271.79998779297</ele>
        <time>2024-06-09T08:53:09Z</time>
      </trkpt>
      <trkpt lat="49.42627" lon="5.76216">
        <ele>272</ele>
        <time>2024-06-09T08:53:10Z</time>
      </trkpt>
      <trkpt lat="49.42625" lon="5.76216">
        <ele>272.20001220703</ele>
        <time>2024-06-09T08:53:11Z</time>
      </trkpt>
      <trkpt lat="49.42625" lon="5.76216">
        <ele>272.39999389648</ele>
        <time>2024-06-09T08:53:12Z</time>
      </trkpt>
      <trkpt lat="49.42624" lon="5.76215">
        <ele>272.60000610352</ele>
        <time>2024-06-09T08:53:13Z</time>
      </trkpt>
      <trkpt lat="49.42622" lon="5.76215">
        <ele>273</ele>
        <time>2024-06-09T08:53:15Z</time>
      </trkpt>
      <trkpt lat="49.4262" lon="5.76214">
        <ele>273.20001220703</ele>
        <time>2024-06-09T08:53:16Z</time>
      </trkpt>
      <trkpt lat="49.42619" lon="5.76213">
        <ele>273.39999389648</ele>
        <time>2024-06-09T08:53:17Z</time>
      </trkpt>
      <trkpt lat="49.42617" lon="5.76212">
        <ele>273.79998779297</ele>
        <time>2024-06-09T08:53:19Z</time>
      </trkpt>
      <trkpt lat="49.42614" lon="5.76211">
        <ele>274.39999389648</ele>
        <time>2024-06-09T08:53:21Z</time>
      </trkpt>
      <trkpt lat="49.42613" lon="5.7621">
        <ele>274.60000610352</ele>
        <time>2024-06-09T08:53:22Z</time>
      </trkpt>
      <trkpt lat="49.42612" lon="5.7621">
        <ele>275</ele>
        <time>2024-06-09T08:53:23Z</time>
      </trkpt>
      <trkpt lat="49.42609" lon="5.76208">
        <ele>275.60000610352</ele>
        <time>2024-06-09T08:53:25Z</time>
      </trkpt>
      <trkpt lat="49.42608" lon="5.76208">
        <ele>275.79998779297</ele>
        <time>2024-06-09T08:53:26Z</time>
      </trkpt>
      <trkpt lat="49.42607" lon="5.76207">
        <ele>276</ele>
        <time>2024-06-09T08:53:27Z</time>
      </trkpt>
      <trkpt lat="49.42605" lon="5.76206">
        <ele>276.39999389648</ele>
        <time>2024-06-09T08:53:29Z</time>
      </trkpt>
      <trkpt lat="49.42603" lon="5.76205">
        <ele>276.79998779297</ele>
        <time>2024-06-09T08:53:31Z</time>
      </trkpt>
      <trkpt lat="49.42601" lon="5.76203">
        <ele>277</ele>
        <time>2024-06-09T08:53:33Z</time>
      </trkpt>
      <trkpt lat="49.42599" lon="5.76201">
        <ele>277.39999389648</ele>
        <time>2024-06-09T08:53:35Z</time>
      </trkpt>
      <trkpt lat="49.42595" lon="5.76198">
        <ele>278</ele>
        <time>2024-06-09T08:53:37Z</time>
      </trkpt>
      <trkpt lat="49.42594" lon="5.76197">
        <ele>278.20001220703</ele>
        <time>2024-06-09T08:53:38Z</time>
      </trkpt>
      <trkpt lat="49.42592" lon="5.76196">
        <ele>278.39999389648</ele>
        <time>2024-06-09T08:53:39Z</time>
      </trkpt>
      <trkpt lat="49.4259" lon="5.76194">
        <ele>278.79998779297</ele>
        <time>2024-06-09T08:53:41Z</time>
      </trkpt>
      <trkpt lat="49.42588" lon="5.76192">
        <ele>279.20001220703</ele>
        <time>2024-06-09T08:53:43Z</time>
      </trkpt>
      <trkpt lat="49.42586" lon="5.7619">
        <ele>279.39999389648</ele>
        <time>2024-06-09T08:53:45Z</time>
      </trkpt>
      <trkpt lat="49.42584" lon="5.76188">
        <ele>280</ele>
        <time>2024-06-09T08:53:47Z</time>
      </trkpt>
      <trkpt lat="49.42583" lon="5.76187">
        <ele>280.20001220703</ele>
        <time>2024-06-09T08:53:48Z</time>
      </trkpt>
      <trkpt lat="49.42582" lon="5.76186">
        <ele>280.39999389648</ele>
        <time>2024-06-09T08:53:49Z</time>
      </trkpt>
      <trkpt lat="49.4258" lon="5.76185">
        <ele>280.60000610352</ele>
        <time>2024-06-09T08:53:51Z</time>
      </trkpt>
      <trkpt lat="49.42578" lon="5.76183">
        <ele>281</ele>
        <time>2024-06-09T08:53:53Z</time>
      </trkpt>
      <trkpt lat="49.42577" lon="5.76182">
        <ele>281.20001220703</ele>
        <time>2024-06-09T08:53:54Z</time>
      </trkpt>
      <trkpt lat="49.42576" lon="5.76182">
        <ele>281.60000610352</ele>
        <time>2024-06-09T08:53:55Z</time>
      </trkpt>
      <trkpt lat="49.42573" lon="5.7618">
        <ele>282</ele>
        <time>2024-06-09T08:53:57Z</time>
      </trkpt>
      <trkpt lat="49.42572" lon="5.76178">
        <ele>282.20001220703</ele>
        <time>2024-06-09T08:53:58Z</time>
      </trkpt>
      <trkpt lat="49.4257" lon="5.76177">
        <ele>282.60000610352</ele>
        <time>2024-06-09T08:53:59Z</time>
      </trkpt>
      <trkpt lat="49.42569" lon="5.76176">
        <ele>282.60000610352</ele>
        <time>2024-06-09T08:54:00Z</time>
      </trkpt>
      <trkpt lat="49.42568" lon="5.76174">
        <ele>282.79998779297</ele>
        <time>2024-06-09T08:54:01Z</time>
      </trkpt>
      <trkpt lat="49.42565" lon="5.76172">
        <ele>283.39999389648</ele>
        <time>2024-06-09T08:54:03Z</time>
      </trkpt>
      <trkpt lat="49.42564" lon="5.76171">
        <ele>283.79998779297</ele>
        <time>2024-06-09T08:54:05Z</time>
      </trkpt>
      <trkpt lat="49.42563" lon="5.7617">
        <ele>284.20001220703</ele>
        <time>2024-06-09T08:54:06Z</time>
      </trkpt>
      <trkpt lat="49.42562" lon="5.76169">
        <ele>284.60000610352</ele>
        <time>2024-06-09T08:54:07Z</time>
      </trkpt>
      <trkpt lat="49.42559" lon="5.76165">
        <ele>285.20001220703</ele>
        <time>2024-06-09T08:54:10Z</time>
      </trkpt>
      <trkpt lat="49.42556" lon="5.76164">
        <ele>286</ele>
        <time>2024-06-09T08:54:12Z</time>
      </trkpt>
      <trkpt lat="49.42554" lon="5.76163">
        <ele>286.39999389648</ele>
        <time>2024-06-09T08:54:14Z</time>
      </trkpt>
      <trkpt lat="49.42551" lon="5.76162">
        <ele>287</ele>
        <time>2024-06-09T08:54:16Z</time>
      </trkpt>
      <trkpt lat="49.42549" lon="5.76161">
        <ele>287.60000610352</ele>
        <time>2024-06-09T08:54:18Z</time>
      </trkpt>
      <trkpt lat="49.42546" lon="5.7616">
        <ele>288</ele>
        <time>2024-06-09T08:54:20Z</time>
      </trkpt>
      <trkpt lat="49.42542" lon="5.76161">
        <ele>288.60000610352</ele>
        <time>2024-06-09T08:54:22Z</time>
      </trkpt>
      <trkpt lat="49.4254" lon="5.76162">
        <ele>289</ele>
        <time>2024-06-09T08:54:24Z</time>
      </trkpt>
      <trkpt lat="49.42539" lon="5.76162">
        <ele>289.20001220703</ele>
        <time>2024-06-09T08:54:25Z</time>
      </trkpt>
      <trkpt lat="49.42537" lon="5.76162">
        <ele>289.39999389648</ele>
        <time>2024-06-09T08:54:26Z</time>
      </trkpt>
      <trkpt lat="49.42535" lon="5.76161">
        <ele>289.79998779297</ele>
        <time>2024-06-09T08:54:28Z</time>
      </trkpt>
      <trkpt lat="49.42532" lon="5.7616">
        <ele>290.39999389648</ele>
        <time>2024-06-09T08:54:30Z</time>
      </trkpt>
      <trkpt lat="49.42529" lon="5.7616">
        <ele>291.20001220703</ele>
        <time>2024-06-09T08:54:32Z</time>
      </trkpt>
      <trkpt lat="49.42526" lon="5.76159">
        <ele>292</ele>
        <time>2024-06-09T08:54:34Z</time>
      </trkpt>
      <trkpt lat="49.42524" lon="5.76158">
        <ele>292.39999389648</ele>
        <time>2024-06-09T08:54:36Z</time>
      </trkpt>
      <trkpt lat="49.42521" lon="5.76159">
        <ele>293</ele>
        <time>2024-06-09T08:54:38Z</time>
      </trkpt>
      <trkpt lat="49.4252" lon="5.76159">
        <ele>293.20001220703</ele>
        <time>2024-06-09T08:54:39Z</time>
      </trkpt>
      <trkpt lat="49.42519" lon="5.76159">
        <ele>293.60000610352</ele>
        <time>2024-06-09T08:54:40Z</time>
      </trkpt>
      <trkpt lat="49.42518" lon="5.7616">
        <ele>294</ele>
        <time>2024-06-09T08:54:42Z</time>
      </trkpt>
      <trkpt lat="49.42517" lon="5.76161">
        <ele>294.39999389648</ele>
        <time>2024-06-09T08:54:44Z</time>
      </trkpt>
      <trkpt lat="49.42516" lon="5.76162">
        <ele>294.79998779297</ele>
        <time>2024-06-09T08:54:45Z</time>
      </trkpt>
      <trkpt lat="49.42515" lon="5.76163">
        <ele>295</ele>
        <time>2024-06-09T08:54:46Z</time>
      </trkpt>
      <trkpt lat="49.42513" lon="5.76164">
        <ele>295.60000610352</ele>
        <time>2024-06-09T08:54:48Z</time>
      </trkpt>
      <trkpt lat="49.42513" lon="5.76165">
        <ele>295.79998779297</ele>
        <time>2024-06-09T08:54:49Z</time>
      </trkpt>
      <trkpt lat="49.42513" lon="5.76166">
        <ele>296</ele>
        <time>2024-06-09T08:54:50Z</time>
      </trkpt>
      <trkpt lat="49.42512" lon="5.76168">
        <ele>296.39999389648</ele>
        <time>2024-06-09T08:54:52Z</time>
      </trkpt>
      <trkpt lat="49.42512" lon="5.76169">
        <ele>296.79998779297</ele>
        <time>2024-06-09T08:54:53Z</time>
      </trkpt>
      <trkpt lat="49.42511" lon="5.7617">
        <ele>297.20001220703</ele>
        <time>2024-06-09T08:54:54Z</time>
      </trkpt>
      <trkpt lat="49.4251" lon="5.76173">
        <ele>297.79998779297</ele>
        <time>2024-06-09T08:54:56Z</time>
      </trkpt>
      <trkpt lat="49.42508" lon="5.76173">
        <ele>298</ele>
        <time>2024-06-09T08:54:57Z</time>
      </trkpt>
      <trkpt lat="49.42507" lon="5.76175">
        <ele>298.20001220703</ele>
        <time>2024-06-09T08:54:58Z</time>
      </trkpt>
      <trkpt lat="49.42506" lon="5.76178">
        <ele>298.79998779297</ele>
        <time>2024-06-09T08:55:00Z</time>
      </trkpt>
      <trkpt lat="49.42504" lon="5.76181">
        <ele>299.20001220703</ele>
        <time>2024-06-09T08:55:02Z</time>
      </trkpt>
      <trkpt lat="49.42504" lon="5.76182">
        <ele>299.60000610352</ele>
        <time>2024-06-09T08:55:03Z</time>
      </trkpt>
      <trkpt lat="49.42504" lon="5.76184">
        <ele>299.79998779297</ele>
        <time>2024-06-09T08:55:04Z</time>
      </trkpt>
      <trkpt lat="49.42503" lon="5.76187">
        <ele>300.39999389648</ele>
        <time>2024-06-09T08:55:06Z</time>
      </trkpt>
      <trkpt lat="49.42502" lon="5.7619">
        <ele>300.79998779297</ele>
        <time>2024-06-09T08:55:08Z</time>
      </trkpt>
      <trkpt lat="49.42501" lon="5.76193">
        <ele>301.20001220703</ele>
        <time>2024-06-09T08:55:10Z</time>
      </trkpt>
      <trkpt lat="49.42501" lon="5.76195">
        <ele>301.39999389648</ele>
        <time>2024-06-09T08:55:11Z</time>
      </trkpt>
      <trkpt lat="49.42501" lon="5.76196">
        <ele>301.79998779297</ele>
        <time>2024-06-09T08:55:12Z</time>
      </trkpt>
      <trkpt lat="49.42502" lon="5.76199">
        <ele>302.20001220703</ele>
        <time>2024-06-09T08:55:14Z</time>
      </trkpt>
      <trkpt lat="49.42503" lon="5.76202">
        <ele>302.60000610352</ele>
        <time>2024-06-09T08:55:16Z</time>
      </trkpt>
      <trkpt lat="49.42503" lon="5.76204">
        <ele>303</ele>
        <time>2024-06-09T08:55:17Z</time>
      </trkpt>
      <trkpt lat="49.42503" lon="5.76205">
        <ele>303.20001220703</ele>
        <time>2024-06-09T08:55:18Z</time>
      </trkpt>
      <trkpt lat="49.42501" lon="5.76208">
        <ele>303.39999389648</ele>
        <time>2024-06-09T08:55:20Z</time>
      </trkpt>
      <trkpt lat="49.42498" lon="5.76211">
        <ele>304</ele>
        <time>2024-06-09T08:55:22Z</time>
      </trkpt>
      <trkpt lat="49.42497" lon="5.76213">
        <ele>304.20001220703</ele>
        <time>2024-06-09T08:55:23Z</time>
      </trkpt>
      <trkpt lat="49.42497" lon="5.76214">
        <ele>304.39999389648</ele>
        <time>2024-06-09T08:55:24Z</time>
      </trkpt>
      <trkpt lat="49.42496" lon="5.76218">
        <ele>304.79998779297</ele>
        <time>2024-06-09T08:55:26Z</time>
      </trkpt>
      <trkpt lat="49.42496" lon="5.76219">
        <ele>305.20001220703</ele>
        <time>2024-06-09T08:55:27Z</time>
      </trkpt>
      <trkpt lat="49.42495" lon="5.76221">
        <ele>305.39999389648</ele>
        <time>2024-06-09T08:55:28Z</time>
      </trkpt>
      <trkpt lat="49.42495" lon="5.76222">
        <ele>305.60000610352</ele>
        <time>2024-06-09T08:55:29Z</time>
      </trkpt>
      <trkpt lat="49.42494" lon="5.76224">
        <ele>306</ele>
        <time>2024-06-09T08:55:30Z</time>
      </trkpt>
      <trkpt lat="49.42494" lon="5.76227">
        <ele>306.39999389648</ele>
        <time>2024-06-09T08:55:32Z</time>
      </trkpt>
      <trkpt lat="49.42493" lon="5.7623">
        <ele>306.79998779297</ele>
        <time>2024-06-09T08:55:34Z</time>
      </trkpt>
      <trkpt lat="49.42491" lon="5.76234">
        <ele>306.79998779297</ele>
        <time>2024-06-09T08:55:36Z</time>
      </trkpt>
      <trkpt lat="49.4249" lon="5.76236">
        <ele>307.20001220703</ele>
        <time>2024-06-09T08:55:38Z</time>
      </trkpt>
      <trkpt lat="49.42488" lon="5.76238">
        <ele>307.39999389648</ele>
        <time>2024-06-09T08:55:40Z</time>
      </trkpt>
      <trkpt lat="49.42487" lon="5.76239">
        <ele>307.60000610352</ele>
        <time>2024-06-09T08:55:41Z</time>
      </trkpt>
      <trkpt lat="49.42486" lon="5.76241">
        <ele>307.60000610352</ele>
        <time>2024-06-09T08:55:42Z</time>
      </trkpt>
      <trkpt lat="49.42485" lon="5.76243">
        <ele>308</ele>
        <time>2024-06-09T08:55:44Z</time>
      </trkpt>
      <trkpt lat="49.42483" lon="5.76245">
        <ele>308.20001220703</ele>
        <time>2024-06-09T08:55:46Z</time>
      </trkpt>
      <trkpt lat="49.42481" lon="5.76247">
        <ele>308.60000610352</ele>
        <time>2024-06-09T08:55:48Z</time>
      </trkpt>
      <trkpt lat="49.42479" lon="5.76249">
        <ele>308.79998779297</ele>
        <time>2024-06-09T08:55:50Z</time>
      </trkpt>
      <trkpt lat="49.42477" lon="5.76252">
        <ele>309</ele>
        <time>2024-06-09T08:55:52Z</time>
      </trkpt>
      <trkpt lat="49.42476" lon="5.76255">
        <ele>309.20001220703</ele>
        <time>2024-06-09T08:55:54Z</time>
      </trkpt>
      <trkpt lat="49.42473" lon="5.76257">
        <ele>309.39999389648</ele>
        <time>2024-06-09T08:55:56Z</time>
      </trkpt>
      <trkpt lat="49.42473" lon="5.76258">
        <ele>309.60000610352</ele>
        <time>2024-06-09T08:55:57Z</time>
      </trkpt>
      <trkpt lat="49.42472" lon="5.76259">
        <ele>309.79998779297</ele>
        <time>2024-06-09T08:55:58Z</time>
      </trkpt>
      <trkpt lat="49.42471" lon="5.76262">
        <ele>310.20001220703</ele>
        <time>2024-06-09T08:56:00Z</time>
      </trkpt>
      <trkpt lat="49.4247" lon="5.76264">
        <ele>310.60000610352</ele>
        <time>2024-06-09T08:56:02Z</time>
      </trkpt>
      <trkpt lat="49.42469" lon="5.76265">
        <ele>310.79998779297</ele>
        <time>2024-06-09T08:56:03Z</time>
      </trkpt>
      <trkpt lat="49.42468" lon="5.76266">
        <ele>311</ele>
        <time>2024-06-09T08:56:04Z</time>
      </trkpt>
      <trkpt lat="49.42466" lon="5.76267">
        <ele>311.20001220703</ele>
        <time>2024-06-09T08:56:06Z</time>
      </trkpt>
      <trkpt lat="49.42465" lon="5.76268">
        <ele>311.20001220703</ele>
        <time>2024-06-09T08:56:07Z</time>
      </trkpt>
      <trkpt lat="49.42464" lon="5.76269">
        <ele>311.39999389648</ele>
        <time>2024-06-09T08:56:08Z</time>
      </trkpt>
      <trkpt lat="49.42463" lon="5.76271">
        <ele>311.79998779297</ele>
        <time>2024-06-09T08:56:10Z</time>
      </trkpt>
      <trkpt lat="49.4246" lon="5.76272">
        <ele>312</ele>
        <time>2024-06-09T08:56:12Z</time>
      </trkpt>
      <trkpt lat="49.42458" lon="5.76274">
        <ele>312.39999389648</ele>
        <time>2024-06-09T08:56:14Z</time>
      </trkpt>
      <trkpt lat="49.42457" lon="5.76275">
        <ele>312.39999389648</ele>
        <time>2024-06-09T08:56:15Z</time>
      </trkpt>
      <trkpt lat="49.42456" lon="5.76275">
        <ele>312.60000610352</ele>
        <time>2024-06-09T08:56:16Z</time>
      </trkpt>
      <trkpt lat="49.42454" lon="5.76277">
        <ele>313</ele>
        <time>2024-06-09T08:56:18Z</time>
      </trkpt>
      <trkpt lat="49.42452" lon="5.76278">
        <ele>313.39999389648</ele>
        <time>2024-06-09T08:56:20Z</time>
      </trkpt>
      <trkpt lat="49.4245" lon="5.7628">
        <ele>313.79998779297</ele>
        <time>2024-06-09T08:56:22Z</time>
      </trkpt>
      <trkpt lat="49.42448" lon="5.76281">
        <ele>314</ele>
        <time>2024-06-09T08:56:23Z</time>
      </trkpt>
      <trkpt lat="49.42447" lon="5.76282">
        <ele>314.20001220703</ele>
        <time>2024-06-09T08:56:24Z</time>
      </trkpt>
      <trkpt lat="49.42446" lon="5.76282">
        <ele>314.20001220703</ele>
        <time>2024-06-09T08:56:25Z</time>
      </trkpt>
      <trkpt lat="49.42446" lon="5.76282">
        <ele>314.39999389648</ele>
        <time>2024-06-09T08:56:26Z</time>
      </trkpt>
      <trkpt lat="49.42444" lon="5.76284">
        <ele>314.79998779297</ele>
        <time>2024-06-09T08:56:28Z</time>
      </trkpt>
      <trkpt lat="49.42442" lon="5.76286">
        <ele>315</ele>
        <time>2024-06-09T08:56:30Z</time>
      </trkpt>
      <trkpt lat="49.4244" lon="5.76288">
        <ele>315.39999389648</ele>
        <time>2024-06-09T08:56:32Z</time>
      </trkpt>
      <trkpt lat="49.42437" lon="5.7629">
        <ele>315.79998779297</ele>
        <time>2024-06-09T08:56:34Z</time>
      </trkpt>
      <trkpt lat="49.42435" lon="5.7629">
        <ele>316.20001220703</ele>
        <time>2024-06-09T08:56:36Z</time>
      </trkpt>
      <trkpt lat="49.42434" lon="5.7629">
        <ele>316.39999389648</ele>
        <time>2024-06-09T08:56:37Z</time>
      </trkpt>
      <trkpt lat="49.42432" lon="5.76291">
        <ele>316.60000610352</ele>
        <time>2024-06-09T08:56:38Z</time>
      </trkpt>
      <trkpt lat="49.4243" lon="5.76293">
        <ele>316.79998779297</ele>
        <time>2024-06-09T08:56:40Z</time>
      </trkpt>
      <trkpt lat="49.42427" lon="5.76294">
        <ele>317</ele>
        <time>2024-06-09T08:56:42Z</time>
      </trkpt>
      <trkpt lat="49.42425" lon="5.76295">
        <ele>317.20001220703</ele>
        <time>2024-06-09T08:56:44Z</time>
      </trkpt>
      <trkpt lat="49.42424" lon="5.76296">
        <ele>317.39999389648</ele>
        <time>2024-06-09T08:56:45Z</time>
      </trkpt>
      <trkpt lat="49.42423" lon="5.76297">
        <ele>317.39999389648</ele>
        <time>2024-06-09T08:56:46Z</time>
      </trkpt>
      <trkpt lat="49.42421" lon="5.76298">
        <ele>317.79998779297</ele>
        <time>2024-06-09T08:56:48Z</time>
      </trkpt>
      <trkpt lat="49.42419" lon="5.76299">
        <ele>318</ele>
        <time>2024-06-09T08:56:50Z</time>
      </trkpt>
      <trkpt lat="49.42417" lon="5.76301">
        <ele>318.39999389648</ele>
        <time>2024-06-09T08:56:52Z</time>
      </trkpt>
      <trkpt lat="49.42414" lon="5.76304">
        <ele>318.79998779297</ele>
        <time>2024-06-09T08:56:54Z</time>
      </trkpt>
      <trkpt lat="49.42411" lon="5.76306">
        <ele>319.20001220703</ele>
        <time>2024-06-09T08:56:56Z</time>
      </trkpt>
      <trkpt lat="49.42408" lon="5.76308">
        <ele>319.60000610352</ele>
        <time>2024-06-09T08:56:58Z</time>
      </trkpt>
      <trkpt lat="49.42405" lon="5.76311">
        <ele>319.79998779297</ele>
        <time>2024-06-09T08:57:00Z</time>
      </trkpt>
      <trkpt lat="49.42402" lon="5.76314">
        <ele>320</ele>
        <time>2024-06-09T08:57:02Z</time>
      </trkpt>
      <trkpt lat="49.42399" lon="5.76317">
        <ele>320.20001220703</ele>
        <time>2024-06-09T08:57:04Z</time>
      </trkpt>
      <trkpt lat="49.42397" lon="5.76318">
        <ele>320.39999389648</ele>
        <time>2024-06-09T08:57:05Z</time>
      </trkpt>
      <trkpt lat="49.42395" lon="5.76319">
        <ele>320.39999389648</ele>
        <time>2024-06-09T08:57:06Z</time>
      </trkpt>
      <trkpt lat="49.42394" lon="5.76321">
        <ele>320.60000610352</ele>
        <time>2024-06-09T08:57:07Z</time>
      </trkpt>
      <trkpt lat="49.42393" lon="5.76322">
        <ele>320.79998779297</ele>
        <time>2024-06-09T08:57:08Z</time>
      </trkpt>
      <trkpt lat="49.4239" lon="5.76325">
        <ele>321</ele>
        <time>2024-06-09T08:57:10Z</time>
      </trkpt>
      <trkpt lat="49.42387" lon="5.76327">
        <ele>321.20001220703</ele>
        <time>2024-06-09T08:57:12Z</time>
      </trkpt>
      <trkpt lat="49.42385" lon="5.76329">
        <ele>321.20001220703</ele>
        <time>2024-06-09T08:57:14Z</time>
      </trkpt>
      <trkpt lat="49.42382" lon="5.76329">
        <ele>321.39999389648</ele>
        <time>2024-06-09T08:57:16Z</time>
      </trkpt>
      <trkpt lat="49.42381" lon="5.76329">
        <ele>321.60000610352</ele>
        <time>2024-06-09T08:57:17Z</time>
      </trkpt>
      <trkpt lat="49.42379" lon="5.76329">
        <ele>321.79998779297</ele>
        <time>2024-06-09T08:57:18Z</time>
      </trkpt>
      <trkpt lat="49.42376" lon="5.7633">
        <ele>322.20001220703</ele>
        <time>2024-06-09T08:57:20Z</time>
      </trkpt>
      <trkpt lat="49.42374" lon="5.7633">
        <ele>322.20001220703</ele>
        <time>2024-06-09T08:57:21Z</time>
      </trkpt>
      <trkpt lat="49.42372" lon="5.76329">
        <ele>322.39999389648</ele>
        <time>2024-06-09T08:57:22Z</time>
      </trkpt>
      <trkpt lat="49.42368" lon="5.76326">
        <ele>323</ele>
        <time>2024-06-09T08:57:24Z</time>
      </trkpt>
      <trkpt lat="49.42366" lon="5.76324">
        <ele>323.20001220703</ele>
        <time>2024-06-09T08:57:26Z</time>
      </trkpt>
      <trkpt lat="49.42364" lon="5.76323">
        <ele>323.39999389648</ele>
        <time>2024-06-09T08:57:27Z</time>
      </trkpt>
      <trkpt lat="49.42363" lon="5.76323">
        <ele>323.60000610352</ele>
        <time>2024-06-09T08:57:28Z</time>
      </trkpt>
      <trkpt lat="49.42359" lon="5.76322">
        <ele>323.79998779297</ele>
        <time>2024-06-09T08:57:30Z</time>
      </trkpt>
      <trkpt lat="49.42355" lon="5.76324">
        <ele>324.20001220703</ele>
        <time>2024-06-09T08:57:32Z</time>
      </trkpt>
      <trkpt lat="49.42353" lon="5.76325">
        <ele>324.39999389648</ele>
        <time>2024-06-09T08:57:33Z</time>
      </trkpt>
      <trkpt lat="49.42352" lon="5.76326">
        <ele>324.60000610352</ele>
        <time>2024-06-09T08:57:34Z</time>
      </trkpt>
      <trkpt lat="49.42349" lon="5.76327">
        <ele>325</ele>
        <time>2024-06-09T08:57:36Z</time>
      </trkpt>
      <trkpt lat="49.42347" lon="5.76327">
        <ele>325.20001220703</ele>
        <time>2024-06-09T08:57:37Z</time>
      </trkpt>
      <trkpt lat="49.42346" lon="5.76327">
        <ele>325.39999389648</ele>
        <time>2024-06-09T08:57:38Z</time>
      </trkpt>
      <trkpt lat="49.42344" lon="5.76327">
        <ele>325.60000610352</ele>
        <time>2024-06-09T08:57:39Z</time>
      </trkpt>
      <trkpt lat="49.42343" lon="5.76326">
        <ele>325.79998779297</ele>
        <time>2024-06-09T08:57:40Z</time>
      </trkpt>
      <trkpt lat="49.42339" lon="5.76324">
        <ele>326</ele>
        <time>2024-06-09T08:57:42Z</time>
      </trkpt>
      <trkpt lat="49.42336" lon="5.76321">
        <ele>326</ele>
        <time>2024-06-09T08:57:44Z</time>
      </trkpt>
      <trkpt lat="49.42332" lon="5.76318">
        <ele>326.20001220703</ele>
        <time>2024-06-09T08:57:46Z</time>
      </trkpt>
      <trkpt lat="49.42331" lon="5.76317">
        <ele>326.39999389648</ele>
        <time>2024-06-09T08:57:47Z</time>
      </trkpt>
      <trkpt lat="49.42329" lon="5.76315">
        <ele>326.60000610352</ele>
        <time>2024-06-09T08:57:48Z</time>
      </trkpt>
      <trkpt lat="49.42326" lon="5.76314">
        <ele>327</ele>
        <time>2024-06-09T08:57:50Z</time>
      </trkpt>
      <trkpt lat="49.42322" lon="5.76311">
        <ele>327.79998779297</ele>
        <time>2024-06-09T08:57:52Z</time>
      </trkpt>
      <trkpt lat="49.4232" lon="5.7631">
        <ele>328</ele>
        <time>2024-06-09T08:57:53Z</time>
      </trkpt>
      <trkpt lat="49.42319" lon="5.7631">
        <ele>328.20001220703</ele>
        <time>2024-06-09T08:57:54Z</time>
      </trkpt>
      <trkpt lat="49.42316" lon="5.76308">
        <ele>328.60000610352</ele>
        <time>2024-06-09T08:57:56Z</time>
      </trkpt>
      <trkpt lat="49.42314" lon="5.76308">
        <ele>328.79998779297</ele>
        <time>2024-06-09T08:57:57Z</time>
      </trkpt>
      <trkpt lat="49.42312" lon="5.76308">
        <ele>329</ele>
        <time>2024-06-09T08:57:58Z</time>
      </trkpt>
      <trkpt lat="49.42309" lon="5.76307">
        <ele>329.39999389648</ele>
        <time>2024-06-09T08:58:00Z</time>
      </trkpt>
      <trkpt lat="49.42306" lon="5.76307">
        <ele>329.60000610352</ele>
        <time>2024-06-09T08:58:02Z</time>
      </trkpt>
      <trkpt lat="49.42304" lon="5.76306">
        <ele>330</ele>
        <time>2024-06-09T08:58:04Z</time>
      </trkpt>
      <trkpt lat="49.42302" lon="5.76307">
        <ele>330.20001220703</ele>
        <time>2024-06-09T08:58:06Z</time>
      </trkpt>
      <trkpt lat="49.42299" lon="5.76305">
        <ele>330.60000610352</ele>
        <time>2024-06-09T08:58:08Z</time>
      </trkpt>
      <trkpt lat="49.42295" lon="5.76304">
        <ele>331</ele>
        <time>2024-06-09T08:58:10Z</time>
      </trkpt>
      <trkpt lat="49.42292" lon="5.76302">
        <ele>331.39999389648</ele>
        <time>2024-06-09T08:58:12Z</time>
      </trkpt>
      <trkpt lat="49.42288" lon="5.76301">
        <ele>331.60000610352</ele>
        <time>2024-06-09T08:58:14Z</time>
      </trkpt>
      <trkpt lat="49.42287" lon="5.76301">
        <ele>331.60000610352</ele>
        <time>2024-06-09T08:58:15Z</time>
      </trkpt>
      <trkpt lat="49.42285" lon="5.763">
        <ele>331.79998779297</ele>
        <time>2024-06-09T08:58:16Z</time>
      </trkpt>
      <trkpt lat="49.42281" lon="5.76299">
        <ele>332</ele>
        <time>2024-06-09T08:58:18Z</time>
      </trkpt>
      <trkpt lat="49.42279" lon="5.76297">
        <ele>332</ele>
        <time>2024-06-09T08:58:19Z</time>
      </trkpt>
      <trkpt lat="49.42278" lon="5.76296">
        <ele>332.39999389648</ele>
        <time>2024-06-09T08:58:20Z</time>
      </trkpt>
      <trkpt lat="49.42276" lon="5.76296">
        <ele>332.39999389648</ele>
        <time>2024-06-09T08:58:21Z</time>
      </trkpt>
      <trkpt lat="49.42273" lon="5.76295">
        <ele>332.60000610352</ele>
        <time>2024-06-09T08:58:22Z</time>
      </trkpt>
      <trkpt lat="49.42269" lon="5.76294">
        <ele>332.79998779297</ele>
        <time>2024-06-09T08:58:24Z</time>
      </trkpt>
      <trkpt lat="49.42265" lon="5.76292">
        <ele>333.20001220703</ele>
        <time>2024-06-09T08:58:26Z</time>
      </trkpt>
      <trkpt lat="49.42259" lon="5.7629">
        <ele>333.60000610352</ele>
        <time>2024-06-09T08:58:28Z</time>
      </trkpt>
      <trkpt lat="49.42257" lon="5.76289">
        <ele>333.79998779297</ele>
        <time>2024-06-09T08:58:29Z</time>
      </trkpt>
      <trkpt lat="49.42255" lon="5.76288">
        <ele>334</ele>
        <time>2024-06-09T08:58:30Z</time>
      </trkpt>
      <trkpt lat="49.42252" lon="5.76286">
        <ele>334.39999389648</ele>
        <time>2024-06-09T08:58:31Z</time>
      </trkpt>
      <trkpt lat="49.4225" lon="5.76286">
        <ele>334.39999389648</ele>
        <time>2024-06-09T08:58:32Z</time>
      </trkpt>
      <trkpt lat="49.42246" lon="5.76284">
        <ele>335</ele>
        <time>2024-06-09T08:58:34Z</time>
      </trkpt>
      <trkpt lat="49.42242" lon="5.76283">
        <ele>335.20001220703</ele>
        <time>2024-06-09T08:58:36Z</time>
      </trkpt>
      <trkpt lat="49.4224" lon="5.76282">
        <ele>335.20001220703</ele>
        <time>2024-06-09T08:58:37Z</time>
      </trkpt>
      <trkpt lat="49.42238" lon="5.76281">
        <ele>335.39999389648</ele>
        <time>2024-06-09T08:58:38Z</time>
      </trkpt>
      <trkpt lat="49.42235" lon="5.7628">
        <ele>335.39999389648</ele>
        <time>2024-06-09T08:58:40Z</time>
      </trkpt>
      <trkpt lat="49.42233" lon="5.76278">
        <ele>335.60000610352</ele>
        <time>2024-06-09T08:58:42Z</time>
      </trkpt>
      <trkpt lat="49.42233" lon="5.76277">
        <ele>335.79998779297</ele>
        <time>2024-06-09T08:58:43Z</time>
      </trkpt>
      <trkpt lat="49.42233" lon="5.76277">
        <ele>335.79998779297</ele>
        <time>2024-06-09T08:58:44Z</time>
      </trkpt>
      <trkpt lat="49.42233" lon="5.76277">
        <ele>336</ele>
        <time>2024-06-09T08:58:46Z</time>
      </trkpt>
      <trkpt lat="49.42232" lon="5.76276">
        <ele>336</ele>
        <time>2024-06-09T08:58:48Z</time>
      </trkpt>
      <trkpt lat="49.42232" lon="5.76275">
        <ele>336</ele>
        <time>2024-06-09T08:58:50Z</time>
      </trkpt>
      <trkpt lat="49.42232" lon="5.76275">
        <ele>336</ele>
        <time>2024-06-09T08:58:52Z</time>
      </trkpt>
      <trkpt lat="49.42232" lon="5.76275">
        <ele>336</ele>
        <time>2024-06-09T08:58:54Z</time>
      </trkpt>
      <trkpt lat="49.42232" lon="5.76276">
        <ele>336</ele>
        <time>2024-06-09T08:58:56Z</time>
      </trkpt>
      <trkpt lat="49.42233" lon="5.76276">
        <ele>336</ele>
        <time>2024-06-09T08:58:58Z</time>
      </trkpt>
      <trkpt lat="49.42233" lon="5.76276">
        <ele>336</ele>
        <time>2024-06-09T08:59:00Z</time>
      </trkpt>
      <trkpt lat="49.42233" lon="5.76276">
        <ele>336</ele>
        <time>2024-06-09T08:59:02Z</time>
      </trkpt>
      <trkpt lat="49.42233" lon="5.76276">
        <ele>336</ele>
        <time>2024-06-09T08:59:04Z</time>
      </trkpt>
      <trkpt lat="49.42233" lon="5.76276">
        <ele>336</ele>
        <time>2024-06-09T08:59:06Z</time>
      </trkpt>
      <trkpt lat="49.42233" lon="5.76276">
        <ele>336</ele>
        <time>2024-06-09T08:59:08Z</time>
      </trkpt>
      <trkpt lat="49.42233" lon="5.76276">
        <ele>335.79998779297</ele>
        <time>2024-06-09T08:59:10Z</time>
      </trkpt>
      <trkpt lat="49.42233" lon="5.76276">
        <ele>335.79998779297</ele>
        <time>2024-06-09T08:59:12Z</time>
      </trkpt>
      <trkpt lat="49.42233" lon="5.76276">
        <ele>335.79998779297</ele>
        <time>2024-06-09T08:59:14Z</time>
      </trkpt>
      <trkpt lat="49.42233" lon="5.76276">
        <ele>335.79998779297</ele>
        <time>2024-06-09T08:59:16Z</time>
      </trkpt>
      <trkpt lat="49.42233" lon="5.76276">
        <ele>335.79998779297</ele>
        <time>2024-06-09T08:59:18Z</time>
      </trkpt>
      <trkpt lat="49.42233" lon="5.76276">
        <ele>335.79998779297</ele>
        <time>2024-06-09T08:59:20Z</time>
      </trkpt>
      <trkpt lat="49.42233" lon="5.76276">
        <ele>335.79998779297</ele>
        <time>2024-06-09T08:59:22Z</time>
      </trkpt>
      <trkpt lat="49.42233" lon="5.76276">
        <ele>335.60000610352</ele>
        <time>2024-06-09T08:59:24Z</time>
      </trkpt>
      <trkpt lat="49.42233" lon="5.76276">
        <ele>335.60000610352</ele>
        <time>2024-06-09T08:59:26Z</time>
      </trkpt>
      <trkpt lat="49.42233" lon="5.76276">
        <ele>335.60000610352</ele>
        <time>2024-06-09T08:59:28Z</time>
      </trkpt>
      <trkpt lat="49.42233" lon="5.76276">
        <ele>335.60000610352</ele>
        <time>2024-06-09T08:59:30Z</time>
      </trkpt>
      <trkpt lat="49.42233" lon="5.76276">
        <ele>335.60000610352</ele>
        <time>2024-06-09T08:59:32Z</time>
      </trkpt>
      <trkpt lat="49.42233" lon="5.76276">
        <ele>335.60000610352</ele>
        <time>2024-06-09T08:59:34Z</time>
      </trkpt>
      <trkpt lat="49.42233" lon="5.76275">
        <ele>335.39999389648</ele>
        <time>2024-06-09T08:59:36Z</time>
      </trkpt>
      <trkpt lat="49.42233" lon="5.76275">
        <ele>335.39999389648</ele>
        <time>2024-06-09T08:59:38Z</time>
      </trkpt>
      <trkpt lat="49.42233" lon="5.76275">
        <ele>335.39999389648</ele>
        <time>2024-06-09T08:59:40Z</time>
      </trkpt>
      <trkpt lat="49.42233" lon="5.76275">
        <ele>335.39999389648</ele>
        <time>2024-06-09T08:59:42Z</time>
      </trkpt>
      <trkpt lat="49.42233" lon="5.76275">
        <ele>335.39999389648</ele>
        <time>2024-06-09T08:59:44Z</time>
      </trkpt>
      <trkpt lat="49.42233" lon="5.76275">
        <ele>335.39999389648</ele>
        <time>2024-06-09T08:59:46Z</time>
      </trkpt>
      <trkpt lat="49.42233" lon="5.76275">
        <ele>335.39999389648</ele>
        <time>2024-06-09T08:59:48Z</time>
      </trkpt>
      <trkpt lat="49.42233" lon="5.76275">
        <ele>335.39999389648</ele>
        <time>2024-06-09T08:59:50Z</time>
      </trkpt>
      <trkpt lat="49.42233" lon="5.76275">
        <ele>335.39999389648</ele>
        <time>2024-06-09T08:59:52Z</time>
      </trkpt>
      <trkpt lat="49.42233" lon="5.76275">
        <ele>335.39999389648</ele>
        <time>2024-06-09T08:59:54Z</time>
      </trkpt>
      <trkpt lat="49.42233" lon="5.76275">
        <ele>335.39999389648</ele>
        <time>2024-06-09T08:59:56Z</time>
      </trkpt>
      <trkpt lat="49.42233" lon="5.76275">
        <ele>335.60000610352</ele>
        <time>2024-06-09T08:59:58Z</time>
      </trkpt>
      <trkpt lat="49.42233" lon="5.76275">
        <ele>335.60000610352</ele>
        <time>2024-06-09T09:00:00Z</time>
      </trkpt>
      <trkpt lat="49.42233" lon="5.76275">
        <ele>335.60000610352</ele>
        <time>2024-06-09T09:00:02Z</time>
      </trkpt>
      <trkpt lat="49.42233" lon="5.76275">
        <ele>335.60000610352</ele>
        <time>2024-06-09T09:00:03Z</time>
      </trkpt>
      <trkpt lat="49.42233" lon="5.76275">
        <ele>335.60000610352</ele>
        <time>2024-06-09T09:00:04Z</time>
      </trkpt>
      <trkpt lat="49.42233" lon="5.76275">
        <ele>335.60000610352</ele>
        <time>2024-06-09T09:00:06Z</time>
      </trkpt>
      <trkpt lat="49.42233" lon="5.76275">
        <ele>335.60000610352</ele>
        <time>2024-06-09T09:00:08Z</time>
      </trkpt>
      <trkpt lat="49.42233" lon="5.76275">
        <ele>335.60000610352</ele>
        <time>2024-06-09T09:00:10Z</time>
      </trkpt>
      <trkpt lat="49.42233" lon="5.76275">
        <ele>335.60000610352</ele>
        <time>2024-06-09T09:00:12Z</time>
      </trkpt>
      <trkpt lat="49.42233" lon="5.76275">
        <ele>335.60000610352</ele>
        <time>2024-06-09T09:00:14Z</time>
      </trkpt>
      <trkpt lat="49.42233" lon="5.76275">
        <ele>335.60000610352</ele>
        <time>2024-06-09T09:00:16Z</time>
      </trkpt>
      <trkpt lat="49.42233" lon="5.76275">
        <ele>335.60000610352</ele>
        <time>2024-06-09T09:00:18Z</time>
      </trkpt>
      <trkpt lat="49.42233" lon="5.76275">
        <ele>335.60000610352</ele>
        <time>2024-06-09T09:00:20Z</time>
      </trkpt>
      <trkpt lat="49.42233" lon="5.76274">
        <ele>335.60000610352</ele>
        <time>2024-06-09T09:00:22Z</time>
      </trkpt>
      <trkpt lat="49.42233" lon="5.76274">
        <ele>335.60000610352</ele>
        <time>2024-06-09T09:00:24Z</time>
      </trkpt>
      <trkpt lat="49.42232" lon="5.76274">
        <ele>335.79998779297</ele>
        <time>2024-06-09T09:00:26Z</time>
      </trkpt>
      <trkpt lat="49.42232" lon="5.76274">
        <ele>335.79998779297</ele>
        <time>2024-06-09T09:00:28Z</time>
      </trkpt>
      <trkpt lat="49.42232" lon="5.76273">
        <ele>335.79998779297</ele>
        <time>2024-06-09T09:00:30Z</time>
      </trkpt>
      <trkpt lat="49.42232" lon="5.76273">
        <ele>335.79998779297</ele>
        <time>2024-06-09T09:00:32Z</time>
      </trkpt>
      <trkpt lat="49.42232" lon="5.76273">
        <ele>335.79998779297</ele>
        <time>2024-06-09T09:00:34Z</time>
      </trkpt>
      <trkpt lat="49.42231" lon="5.76273">
        <ele>335.79998779297</ele>
        <time>2024-06-09T09:00:36Z</time>
      </trkpt>
      <trkpt lat="49.42231" lon="5.76273">
        <ele>335.79998779297</ele>
        <time>2024-06-09T09:00:38Z</time>
      </trkpt>
      <trkpt lat="49.42231" lon="5.76273">
        <ele>335.79998779297</ele>
        <time>2024-06-09T09:00:40Z</time>
      </trkpt>
      <trkpt lat="49.42231" lon="5.76272">
        <ele>335.79998779297</ele>
        <time>2024-06-09T09:00:42Z</time>
      </trkpt>
      <trkpt lat="49.42231" lon="5.76272">
        <ele>335.79998779297</ele>
        <time>2024-06-09T09:00:43Z</time>
      </trkpt>
      <trkpt lat="49.42231" lon="5.76273">
        <ele>335.60000610352</ele>
        <time>2024-06-09T09:00:44Z</time>
      </trkpt>
      <trkpt lat="49.42231" lon="5.76273">
        <ele>335.60000610352</ele>
        <time>2024-06-09T09:00:46Z</time>
      </trkpt>
      <trkpt lat="49.42231" lon="5.76273">
        <ele>335.60000610352</ele>
        <time>2024-06-09T09:00:48Z</time>
      </trkpt>
      <trkpt lat="49.42231" lon="5.76272">
        <ele>335.60000610352</ele>
        <time>2024-06-09T09:00:50Z</time>
      </trkpt>
      <trkpt lat="49.42231" lon="5.76272">
        <ele>335.60000610352</ele>
        <time>2024-06-09T09:00:52Z</time>
      </trkpt>
      <trkpt lat="49.4223" lon="5.76272">
        <ele>335.60000610352</ele>
        <time>2024-06-09T09:00:54Z</time>
      </trkpt>
      <trkpt lat="49.4223" lon="5.76272">
        <ele>335.60000610352</ele>
        <time>2024-06-09T09:00:56Z</time>
      </trkpt>
      <trkpt lat="49.4223" lon="5.76271">
        <ele>335.60000610352</ele>
        <time>2024-06-09T09:00:58Z</time>
      </trkpt>
      <trkpt lat="49.4223" lon="5.76271">
        <ele>335.60000610352</ele>
        <time>2024-06-09T09:01:00Z</time>
      </trkpt>
      <trkpt lat="49.4223" lon="5.76271">
        <ele>335.60000610352</ele>
        <time>2024-06-09T09:01:02Z</time>
      </trkpt>
      <trkpt lat="49.4223" lon="5.76271">
        <ele>335.60000610352</ele>
        <time>2024-06-09T09:01:04Z</time>
      </trkpt>
      <trkpt lat="49.4223" lon="5.76271">
        <ele>335.60000610352</ele>
        <time>2024-06-09T09:01:06Z</time>
      </trkpt>
      <trkpt lat="49.4223" lon="5.76271">
        <ele>335.79998779297</ele>
        <time>2024-06-09T09:01:08Z</time>
      </trkpt>
      <trkpt lat="49.4223" lon="5.76271">
        <ele>335.79998779297</ele>
        <time>2024-06-09T09:01:09Z</time>
      </trkpt>
      <trkpt lat="49.4223" lon="5.76271">
        <ele>335.79998779297</ele>
        <time>2024-06-09T09:01:10Z</time>
      </trkpt>
      <trkpt lat="49.42229" lon="5.76271">
        <ele>335.79998779297</ele>
        <time>2024-06-09T09:01:12Z</time>
      </trkpt>
      <trkpt lat="49.42229" lon="5.76271">
        <ele>335.79998779297</ele>
        <time>2024-06-09T09:01:14Z</time>
      </trkpt>
      <trkpt lat="49.42229" lon="5.76271">
        <ele>335.79998779297</ele>
        <time>2024-06-09T09:01:16Z</time>
      </trkpt>
      <trkpt lat="49.42229" lon="5.76271">
        <ele>335.79998779297</ele>
        <time>2024-06-09T09:01:18Z</time>
      </trkpt>
      <trkpt lat="49.4223" lon="5.76271">
        <ele>335.79998779297</ele>
        <time>2024-06-09T09:01:20Z</time>
      </trkpt>
      <trkpt lat="49.4223" lon="5.76271">
        <ele>335.79998779297</ele>
        <time>2024-06-09T09:01:22Z</time>
      </trkpt>
      <trkpt lat="49.4223" lon="5.76271">
        <ele>335.79998779297</ele>
        <time>2024-06-09T09:01:24Z</time>
      </trkpt>
      <trkpt lat="49.4223" lon="5.76271">
        <ele>335.79998779297</ele>
        <time>2024-06-09T09:01:25Z</time>
      </trkpt>
      <trkpt lat="49.4223" lon="5.76271">
        <ele>335.79998779297</ele>
        <time>2024-06-09T09:01:26Z</time>
      </trkpt>
      <trkpt lat="49.4223" lon="5.76271">
        <ele>335.79998779297</ele>
        <time>2024-06-09T09:01:28Z</time>
      </trkpt>
      <trkpt lat="49.4223" lon="5.76271">
        <ele>335.79998779297</ele>
        <time>2024-06-09T09:01:30Z</time>
      </trkpt>
      <trkpt lat="49.4223" lon="5.76271">
        <ele>335.79998779297</ele>
        <time>2024-06-09T09:01:32Z</time>
      </trkpt>
      <trkpt lat="49.4223" lon="5.76271">
        <ele>335.79998779297</ele>
        <time>2024-06-09T09:01:33Z</time>
      </trkpt>
      <trkpt lat="49.4223" lon="5.76271">
        <ele>335.79998779297</ele>
        <time>2024-06-09T09:01:34Z</time>
      </trkpt>
      <trkpt lat="49.4223" lon="5.76271">
        <ele>336</ele>
        <time>2024-06-09T09:01:36Z</time>
      </trkpt>
      <trkpt lat="49.4223" lon="5.76271">
        <ele>336</ele>
        <time>2024-06-09T09:01:38Z</time>
      </trkpt>
      <trkpt lat="49.4223" lon="5.76271">
        <ele>336</ele>
        <time>2024-06-09T09:01:40Z</time>
      </trkpt>
      <trkpt lat="49.4223" lon="5.76271">
        <ele>336</ele>
        <time>2024-06-09T09:01:41Z</time>
      </trkpt>
      <trkpt lat="49.4223" lon="5.76271">
        <ele>336.20001220703</ele>
        <time>2024-06-09T09:01:42Z</time>
      </trkpt>
      <trkpt lat="49.42229" lon="5.7627">
        <ele>336.20001220703</ele>
        <time>2024-06-09T09:01:44Z</time>
      </trkpt>
      <trkpt lat="49.42229" lon="5.7627">
        <ele>336.20001220703</ele>
        <time>2024-06-09T09:01:46Z</time>
      </trkpt>
      <trkpt lat="49.42229" lon="5.7627">
        <ele>336.20001220703</ele>
        <time>2024-06-09T09:01:48Z</time>
      </trkpt>
      <trkpt lat="49.42229" lon="5.76269">
        <ele>336.20001220703</ele>
        <time>2024-06-09T09:01:50Z</time>
      </trkpt>
      <trkpt lat="49.42229" lon="5.76269">
        <ele>336.20001220703</ele>
        <time>2024-06-09T09:01:52Z</time>
      </trkpt>
      <trkpt lat="49.42229" lon="5.76269">
        <ele>336.20001220703</ele>
        <time>2024-06-09T09:01:54Z</time>
      </trkpt>
      <trkpt lat="49.42229" lon="5.76269">
        <ele>336.20001220703</ele>
        <time>2024-06-09T09:01:56Z</time>
      </trkpt>
      <trkpt lat="49.42229" lon="5.76269">
        <ele>336</ele>
        <time>2024-06-09T09:01:58Z</time>
      </trkpt>
      <trkpt lat="49.42229" lon="5.76269">
        <ele>336</ele>
        <time>2024-06-09T09:02:00Z</time>
      </trkpt>
      <trkpt lat="49.42229" lon="5.76269">
        <ele>336</ele>
        <time>2024-06-09T09:02:02Z</time>
      </trkpt>
      <trkpt lat="49.42229" lon="5.76269">
        <ele>336</ele>
        <time>2024-06-09T09:02:04Z</time>
      </trkpt>
      <trkpt lat="49.42229" lon="5.76268">
        <ele>336</ele>
        <time>2024-06-09T09:02:06Z</time>
      </trkpt>
      <trkpt lat="49.42229" lon="5.76268">
        <ele>336</ele>
        <time>2024-06-09T09:02:08Z</time>
      </trkpt>
      <trkpt lat="49.42229" lon="5.76268">
        <ele>336</ele>
        <time>2024-06-09T09:02:09Z</time>
      </trkpt>
      <trkpt lat="49.42229" lon="5.76268">
        <ele>336</ele>
        <time>2024-06-09T09:02:10Z</time>
      </trkpt>
      <trkpt lat="49.42229" lon="5.76268">
        <ele>336</ele>
        <time>2024-06-09T09:02:12Z</time>
      </trkpt>
      <trkpt lat="49.42229" lon="5.76268">
        <ele>336</ele>
        <time>2024-06-09T09:02:14Z</time>
      </trkpt>
      <trkpt lat="49.42229" lon="5.76268">
        <ele>335.79998779297</ele>
        <time>2024-06-09T09:02:16Z</time>
      </trkpt>
      <trkpt lat="49.42229" lon="5.76268">
        <ele>335.79998779297</ele>
        <time>2024-06-09T09:02:17Z</time>
      </trkpt>
      <trkpt lat="49.42229" lon="5.76268">
        <ele>335.79998779297</ele>
        <time>2024-06-09T09:02:18Z</time>
      </trkpt>
      <trkpt lat="49.42229" lon="5.76268">
        <ele>335.79998779297</ele>
        <time>2024-06-09T09:02:20Z</time>
      </trkpt>
      <trkpt lat="49.42229" lon="5.76268">
        <ele>336</ele>
        <time>2024-06-09T09:02:22Z</time>
      </trkpt>
      <trkpt lat="49.42228" lon="5.76268">
        <ele>336</ele>
        <time>2024-06-09T09:02:24Z</time>
      </trkpt>
      <trkpt lat="49.42228" lon="5.76268">
        <ele>336</ele>
        <time>2024-06-09T09:02:26Z</time>
      </trkpt>
      <trkpt lat="49.42228" lon="5.76268">
        <ele>336</ele>
        <time>2024-06-09T09:02:27Z</time>
      </trkpt>
      <trkpt lat="49.42228" lon="5.76268">
        <ele>335.79998779297</ele>
        <time>2024-06-09T09:02:28Z</time>
      </trkpt>
      <trkpt lat="49.42228" lon="5.76268">
        <ele>335.79998779297</ele>
        <time>2024-06-09T09:02:30Z</time>
      </trkpt>
      <trkpt lat="49.42228" lon="5.76268">
        <ele>335.79998779297</ele>
        <time>2024-06-09T09:02:32Z</time>
      </trkpt>
      <trkpt lat="49.42228" lon="5.76268">
        <ele>336</ele>
        <time>2024-06-09T09:02:34Z</time>
      </trkpt>
      <trkpt lat="49.42228" lon="5.76268">
        <ele>336</ele>
        <time>2024-06-09T09:02:36Z</time>
      </trkpt>
      <trkpt lat="49.42228" lon="5.76268">
        <ele>336</ele>
        <time>2024-06-09T09:02:38Z</time>
      </trkpt>
      <trkpt lat="49.42228" lon="5.76267">
        <ele>336</ele>
        <time>2024-06-09T09:02:40Z</time>
      </trkpt>
      <trkpt lat="49.42228" lon="5.76268">
        <ele>335.79998779297</ele>
        <time>2024-06-09T09:02:42Z</time>
      </trkpt>
      <trkpt lat="49.42228" lon="5.76268">
        <ele>335.79998779297</ele>
        <time>2024-06-09T09:02:44Z</time>
      </trkpt>
      <trkpt lat="49.42228" lon="5.76268">
        <ele>335.79998779297</ele>
        <time>2024-06-09T09:02:46Z</time>
      </trkpt>
      <trkpt lat="49.42228" lon="5.76268">
        <ele>335.79998779297</ele>
        <time>2024-06-09T09:02:48Z</time>
      </trkpt>
      <trkpt lat="49.42228" lon="5.76268">
        <ele>335.79998779297</ele>
        <time>2024-06-09T09:02:50Z</time>
      </trkpt>
      <trkpt lat="49.42228" lon="5.76268">
        <ele>335.79998779297</ele>
        <time>2024-06-09T09:02:52Z</time>
      </trkpt>
      <trkpt lat="49.42228" lon="5.76268">
        <ele>335.79998779297</ele>
        <time>2024-06-09T09:02:54Z</time>
      </trkpt>
      <trkpt lat="49.42228" lon="5.76268">
        <ele>335.79998779297</ele>
        <time>2024-06-09T09:02:56Z</time>
      </trkpt>
      <trkpt lat="49.42228" lon="5.76268">
        <ele>335.79998779297</ele>
        <time>2024-06-09T09:02:58Z</time>
      </trkpt>
      <trkpt lat="49.42228" lon="5.76268">
        <ele>335.79998779297</ele>
        <time>2024-06-09T09:03:00Z</time>
      </trkpt>
      <trkpt lat="49.42228" lon="5.76268">
        <ele>335.79998779297</ele>
        <time>2024-06-09T09:03:02Z</time>
      </trkpt>
      <trkpt lat="49.42228" lon="5.76268">
        <ele>335.79998779297</ele>
        <time>2024-06-09T09:03:04Z</time>
      </trkpt>
      <trkpt lat="49.42228" lon="5.76268">
        <ele>336</ele>
        <time>2024-06-09T09:03:06Z</time>
      </trkpt>
      <trkpt lat="49.42228" lon="5.76268">
        <ele>336</ele>
        <time>2024-06-09T09:03:08Z</time>
      </trkpt>
      <trkpt lat="49.42228" lon="5.76268">
        <ele>336</ele>
        <time>2024-06-09T09:03:10Z</time>
      </trkpt>
      <trkpt lat="49.42228" lon="5.76268">
        <ele>336</ele>
        <time>2024-06-09T09:03:12Z</time>
      </trkpt>
      <trkpt lat="49.42228" lon="5.76268">
        <ele>336</ele>
        <time>2024-06-09T09:03:14Z</time>
      </trkpt>
      <trkpt lat="49.42228" lon="5.76268">
        <ele>336</ele>
        <time>2024-06-09T09:03:15Z</time>
      </trkpt>
      <trkpt lat="49.42228" lon="5.76268">
        <ele>336.20001220703</ele>
        <time>2024-06-09T09:03:16Z</time>
      </trkpt>
      <trkpt lat="49.42228" lon="5.76268">
        <ele>336.20001220703</ele>
        <time>2024-06-09T09:03:18Z</time>
      </trkpt>
      <trkpt lat="49.42228" lon="5.76268">
        <ele>336.20001220703</ele>
        <time>2024-06-09T09:03:20Z</time>
      </trkpt>
      <trkpt lat="49.42228" lon="5.76268">
        <ele>336.20001220703</ele>
        <time>2024-06-09T09:03:22Z</time>
      </trkpt>
      <trkpt lat="49.42228" lon="5.76268">
        <ele>336.20001220703</ele>
        <time>2024-06-09T09:03:24Z</time>
      </trkpt>
      <trkpt lat="49.42228" lon="5.76268">
        <ele>336.20001220703</ele>
        <time>2024-06-09T09:03:26Z</time>
      </trkpt>
      <trkpt lat="49.42228" lon="5.76268">
        <ele>336.20001220703</ele>
        <time>2024-06-09T09:03:28Z</time>
      </trkpt>
      <trkpt lat="49.42228" lon="5.76268">
        <ele>336.20001220703</ele>
        <time>2024-06-09T09:03:30Z</time>
      </trkpt>
      <trkpt lat="49.42228" lon="5.76267">
        <ele>336.20001220703</ele>
        <time>2024-06-09T09:03:32Z</time>
      </trkpt>
      <trkpt lat="49.42228" lon="5.76267">
        <ele>336.20001220703</ele>
        <time>2024-06-09T09:03:34Z</time>
      </trkpt>
      <trkpt lat="49.42228" lon="5.76267">
        <ele>336.20001220703</ele>
        <time>2024-06-09T09:03:36Z</time>
      </trkpt>
      <trkpt lat="49.42228" lon="5.76267">
        <ele>336.20001220703</ele>
        <time>2024-06-09T09:03:38Z</time>
      </trkpt>
      <trkpt lat="49.42228" lon="5.76267">
        <ele>336.20001220703</ele>
        <time>2024-06-09T09:03:40Z</time>
      </trkpt>
      <trkpt lat="49.42228" lon="5.76267">
        <ele>336.20001220703</ele>
        <time>2024-06-09T09:03:42Z</time>
      </trkpt>
      <trkpt lat="49.42228" lon="5.76267">
        <ele>336.20001220703</ele>
        <time>2024-06-09T09:03:44Z</time>
      </trkpt>
      <trkpt lat="49.42228" lon="5.76267">
        <ele>336.39999389648</ele>
        <time>2024-06-09T09:03:46Z</time>
      </trkpt>
      <trkpt lat="49.42228" lon="5.76267">
        <ele>336.39999389648</ele>
        <time>2024-06-09T09:03:48Z</time>
      </trkpt>
      <trkpt lat="49.42228" lon="5.76267">
        <ele>336.60000610352</ele>
        <time>2024-06-09T09:03:50Z</time>
      </trkpt>
      <trkpt lat="49.42228" lon="5.76267">
        <ele>336.60000610352</ele>
        <time>2024-06-09T09:03:52Z</time>
      </trkpt>
      <trkpt lat="49.42228" lon="5.76267">
        <ele>336.60000610352</ele>
        <time>2024-06-09T09:03:53Z</time>
      </trkpt>
      <trkpt lat="49.42228" lon="5.76267">
        <ele>336.60000610352</ele>
        <time>2024-06-09T09:03:54Z</time>
      </trkpt>
      <trkpt lat="49.42228" lon="5.76267">
        <ele>336.60000610352</ele>
        <time>2024-06-09T09:03:56Z</time>
      </trkpt>
      <trkpt lat="49.42228" lon="5.76267">
        <ele>336.60000610352</ele>
        <time>2024-06-09T09:03:58Z</time>
      </trkpt>
      <trkpt lat="49.42228" lon="5.76267">
        <ele>336.39999389648</ele>
        <time>2024-06-09T09:04:00Z</time>
      </trkpt>
      <trkpt lat="49.42228" lon="5.76267">
        <ele>336.39999389648</ele>
        <time>2024-06-09T09:04:02Z</time>
      </trkpt>
      <trkpt lat="49.42228" lon="5.76267">
        <ele>336.39999389648</ele>
        <time>2024-06-09T09:04:04Z</time>
      </trkpt>
      <trkpt lat="49.42228" lon="5.76267">
        <ele>336.39999389648</ele>
        <time>2024-06-09T09:04:06Z</time>
      </trkpt>
      <trkpt lat="49.42228" lon="5.76267">
        <ele>336.39999389648</ele>
        <time>2024-06-09T09:04:07Z</time>
      </trkpt>
      <trkpt lat="49.42228" lon="5.76267">
        <ele>336.39999389648</ele>
        <time>2024-06-09T09:04:08Z</time>
      </trkpt>
      <trkpt lat="49.42228" lon="5.76267">
        <ele>336.39999389648</ele>
        <time>2024-06-09T09:04:10Z</time>
      </trkpt>
      <trkpt lat="49.42228" lon="5.76267">
        <ele>336.39999389648</ele>
        <time>2024-06-09T09:04:12Z</time>
      </trkpt>
      <trkpt lat="49.42228" lon="5.76267">
        <ele>336.39999389648</ele>
        <time>2024-06-09T09:04:14Z</time>
      </trkpt>
      <trkpt lat="49.42228" lon="5.76267">
        <ele>336.39999389648</ele>
        <time>2024-06-09T09:04:16Z</time>
      </trkpt>
      <trkpt lat="49.42228" lon="5.76267">
        <ele>336.39999389648</ele>
        <time>2024-06-09T09:04:18Z</time>
      </trkpt>
      <trkpt lat="49.42228" lon="5.76266">
        <ele>336.39999389648</ele>
        <time>2024-06-09T09:04:20Z</time>
      </trkpt>
      <trkpt lat="49.42229" lon="5.76266">
        <ele>336.60000610352</ele>
        <time>2024-06-09T09:04:22Z</time>
      </trkpt>
      <trkpt lat="49.42229" lon="5.76266">
        <ele>336.60000610352</ele>
        <time>2024-06-09T09:04:24Z</time>
      </trkpt>
      <trkpt lat="49.42229" lon="5.76266">
        <ele>336.60000610352</ele>
        <time>2024-06-09T09:04:26Z</time>
      </trkpt>
      <trkpt lat="49.42229" lon="5.76266">
        <ele>336.60000610352</ele>
        <time>2024-06-09T09:04:28Z</time>
      </trkpt>
      <trkpt lat="49.42229" lon="5.76266">
        <ele>336.60000610352</ele>
        <time>2024-06-09T09:04:30Z</time>
      </trkpt>
      <trkpt lat="49.42229" lon="5.76266">
        <ele>336.60000610352</ele>
        <time>2024-06-09T09:04:32Z</time>
      </trkpt>
      <trkpt lat="49.42229" lon="5.76266">
        <ele>336.60000610352</ele>
        <time>2024-06-09T09:04:34Z</time>
      </trkpt>
      <trkpt lat="49.42229" lon="5.76266">
        <ele>336.60000610352</ele>
        <time>2024-06-09T09:04:35Z</time>
      </trkpt>
      <trkpt lat="49.42229" lon="5.76266">
        <ele>336.60000610352</ele>
        <time>2024-06-09T09:04:36Z</time>
      </trkpt>
      <trkpt lat="49.42229" lon="5.76266">
        <ele>336.60000610352</ele>
        <time>2024-06-09T09:04:38Z</time>
      </trkpt>
      <trkpt lat="49.42229" lon="5.76266">
        <ele>336.60000610352</ele>
        <time>2024-06-09T09:04:40Z</time>
      </trkpt>
      <trkpt lat="49.42229" lon="5.76266">
        <ele>336.79998779297</ele>
        <time>2024-06-09T09:04:42Z</time>
      </trkpt>
      <trkpt lat="49.42229" lon="5.76266">
        <ele>336.79998779297</ele>
        <time>2024-06-09T09:04:43Z</time>
      </trkpt>
      <trkpt lat="49.42229" lon="5.76266">
        <ele>336.79998779297</ele>
        <time>2024-06-09T09:04:44Z</time>
      </trkpt>
      <trkpt lat="49.42229" lon="5.76265">
        <ele>336.79998779297</ele>
        <time>2024-06-09T09:04:46Z</time>
      </trkpt>
      <trkpt lat="49.42228" lon="5.76264">
        <ele>336.79998779297</ele>
        <time>2024-06-09T09:04:48Z</time>
      </trkpt>
      <trkpt lat="49.42228" lon="5.76263">
        <ele>336.79998779297</ele>
        <time>2024-06-09T09:04:50Z</time>
      </trkpt>
      <trkpt lat="49.42228" lon="5.76262">
        <ele>336.79998779297</ele>
        <time>2024-06-09T09:04:52Z</time>
      </trkpt>
      <trkpt lat="49.42228" lon="5.76262">
        <ele>337</ele>
        <time>2024-06-09T09:04:54Z</time>
      </trkpt>
      <trkpt lat="49.42228" lon="5.76262">
        <ele>337</ele>
        <time>2024-06-09T09:04:56Z</time>
      </trkpt>
      <trkpt lat="49.42228" lon="5.76262">
        <ele>337.20001220703</ele>
        <time>2024-06-09T09:04:57Z</time>
      </trkpt>
      <trkpt lat="49.42228" lon="5.76263">
        <ele>337.20001220703</ele>
        <time>2024-06-09T09:04:58Z</time>
      </trkpt>
      <trkpt lat="49.42228" lon="5.76263">
        <ele>337.39999389648</ele>
        <time>2024-06-09T09:05:00Z</time>
      </trkpt>
      <trkpt lat="49.42228" lon="5.76263">
        <ele>337.39999389648</ele>
        <time>2024-06-09T09:05:02Z</time>
      </trkpt>
      <trkpt lat="49.42228" lon="5.76263">
        <ele>337.39999389648</ele>
        <time>2024-06-09T09:05:04Z</time>
      </trkpt>
      <trkpt lat="49.42228" lon="5.76263">
        <ele>337.39999389648</ele>
        <time>2024-06-09T09:05:06Z</time>
      </trkpt>
      <trkpt lat="49.42228" lon="5.76264">
        <ele>337.39999389648</ele>
        <time>2024-06-09T09:05:08Z</time>
      </trkpt>
      <trkpt lat="49.42228" lon="5.76264">
        <ele>337.39999389648</ele>
        <time>2024-06-09T09:05:10Z</time>
      </trkpt>
      <trkpt lat="49.42228" lon="5.76264">
        <ele>337.39999389648</ele>
        <time>2024-06-09T09:05:12Z</time>
      </trkpt>
      <trkpt lat="49.42228" lon="5.76264">
        <ele>337.39999389648</ele>
        <time>2024-06-09T09:05:14Z</time>
      </trkpt>
      <trkpt lat="49.42228" lon="5.76263">
        <ele>337.39999389648</ele>
        <time>2024-06-09T09:05:16Z</time>
      </trkpt>
      <trkpt lat="49.42228" lon="5.76263">
        <ele>337.39999389648</ele>
        <time>2024-06-09T09:05:18Z</time>
      </trkpt>
      <trkpt lat="49.42228" lon="5.76263">
        <ele>337.60000610352</ele>
        <time>2024-06-09T09:05:20Z</time>
      </trkpt>
      <trkpt lat="49.42228" lon="5.76263">
        <ele>337.60000610352</ele>
        <time>2024-06-09T09:05:22Z</time>
      </trkpt>
      <trkpt lat="49.42228" lon="5.76263">
        <ele>337.60000610352</ele>
        <time>2024-06-09T09:05:23Z</time>
      </trkpt>
      <trkpt lat="49.42228" lon="5.76263">
        <ele>337.60000610352</ele>
        <time>2024-06-09T09:05:24Z</time>
      </trkpt>
      <trkpt lat="49.42228" lon="5.76263">
        <ele>337.60000610352</ele>
        <time>2024-06-09T09:05:26Z</time>
      </trkpt>
      <trkpt lat="49.42228" lon="5.76263">
        <ele>337.60000610352</ele>
        <time>2024-06-09T09:05:28Z</time>
      </trkpt>
      <trkpt lat="49.42228" lon="5.76263">
        <ele>337.60000610352</ele>
        <time>2024-06-09T09:05:30Z</time>
      </trkpt>
      <trkpt lat="49.42228" lon="5.76263">
        <ele>337.60000610352</ele>
        <time>2024-06-09T09:05:31Z</time>
      </trkpt>
      <trkpt lat="49.42228" lon="5.76263">
        <ele>337.60000610352</ele>
        <time>2024-06-09T09:05:32Z</time>
      </trkpt>
      <trkpt lat="49.42228" lon="5.76263">
        <ele>337.60000610352</ele>
        <time>2024-06-09T09:05:34Z</time>
      </trkpt>
      <trkpt lat="49.42228" lon="5.76264">
        <ele>337.60000610352</ele>
        <time>2024-06-09T09:05:35Z</time>
      </trkpt>
      <trkpt lat="49.42228" lon="5.76264">
        <ele>337.60000610352</ele>
        <time>2024-06-09T09:05:36Z</time>
      </trkpt>
      <trkpt lat="49.42228" lon="5.76264">
        <ele>337.79998779297</ele>
        <time>2024-06-09T09:05:38Z</time>
      </trkpt>
      <trkpt lat="49.42228" lon="5.76263">
        <ele>338</ele>
        <time>2024-06-09T09:05:40Z</time>
      </trkpt>
      <trkpt lat="49.42228" lon="5.76263">
        <ele>338</ele>
        <time>2024-06-09T09:05:42Z</time>
      </trkpt>
      <trkpt lat="49.42228" lon="5.76263">
        <ele>338</ele>
        <time>2024-06-09T09:05:43Z</time>
      </trkpt>
      <trkpt lat="49.42228" lon="5.76263">
        <ele>338</ele>
        <time>2024-06-09T09:05:44Z</time>
      </trkpt>
      <trkpt lat="49.42228" lon="5.76263">
        <ele>338</ele>
        <time>2024-06-09T09:05:46Z</time>
      </trkpt>
      <trkpt lat="49.42228" lon="5.76263">
        <ele>338</ele>
        <time>2024-06-09T09:05:48Z</time>
      </trkpt>
      <trkpt lat="49.42228" lon="5.76263">
        <ele>338</ele>
        <time>2024-06-09T09:05:50Z</time>
      </trkpt>
      <trkpt lat="49.42228" lon="5.76263">
        <ele>338</ele>
        <time>2024-06-09T09:05:51Z</time>
      </trkpt>
      <trkpt lat="49.42228" lon="5.76263">
        <ele>338</ele>
        <time>2024-06-09T09:05:52Z</time>
      </trkpt>
      <trkpt lat="49.42228" lon="5.76263">
        <ele>338</ele>
        <time>2024-06-09T09:05:54Z</time>
      </trkpt>
      <trkpt lat="49.42228" lon="5.76263">
        <ele>338</ele>
        <time>2024-06-09T09:05:56Z</time>
      </trkpt>
      <trkpt lat="49.42228" lon="5.76263">
        <ele>338.20001220703</ele>
        <time>2024-06-09T09:05:58Z</time>
      </trkpt>
      <trkpt lat="49.42228" lon="5.76263">
        <ele>338.20001220703</ele>
        <time>2024-06-09T09:06:00Z</time>
      </trkpt>
      <trkpt lat="49.42228" lon="5.76263">
        <ele>338.20001220703</ele>
        <time>2024-06-09T09:06:02Z</time>
      </trkpt>
      <trkpt lat="49.42229" lon="5.76263">
        <ele>338.20001220703</ele>
        <time>2024-06-09T09:06:04Z</time>
      </trkpt>
      <trkpt lat="49.42229" lon="5.76263">
        <ele>338.20001220703</ele>
        <time>2024-06-09T09:06:06Z</time>
      </trkpt>
      <trkpt lat="49.42229" lon="5.76262">
        <ele>338.20001220703</ele>
        <time>2024-06-09T09:06:08Z</time>
      </trkpt>
      <trkpt lat="49.42229" lon="5.76262">
        <ele>338.20001220703</ele>
        <time>2024-06-09T09:06:09Z</time>
      </trkpt>
      <trkpt lat="49.42229" lon="5.76262">
        <ele>338.20001220703</ele>
        <time>2024-06-09T09:06:10Z</time>
      </trkpt>
      <trkpt lat="49.42229" lon="5.76262">
        <ele>338.20001220703</ele>
        <time>2024-06-09T09:06:12Z</time>
      </trkpt>
      <trkpt lat="49.42228" lon="5.76262">
        <ele>338.20001220703</ele>
        <time>2024-06-09T09:06:14Z</time>
      </trkpt>
      <trkpt lat="49.42229" lon="5.76262">
        <ele>338.20001220703</ele>
        <time>2024-06-09T09:06:16Z</time>
      </trkpt>
      <trkpt lat="49.42229" lon="5.76262">
        <ele>338.20001220703</ele>
        <time>2024-06-09T09:06:18Z</time>
      </trkpt>
      <trkpt lat="49.42229" lon="5.76263">
        <ele>338.20001220703</ele>
        <time>2024-06-09T09:06:19Z</time>
      </trkpt>
      <trkpt lat="49.42229" lon="5.76263">
        <ele>338.20001220703</ele>
        <time>2024-06-09T09:06:20Z</time>
      </trkpt>
      <trkpt lat="49.42229" lon="5.76263">
        <ele>338.20001220703</ele>
        <time>2024-06-09T09:06:22Z</time>
      </trkpt>
      <trkpt lat="49.42228" lon="5.76263">
        <ele>338.20001220703</ele>
        <time>2024-06-09T09:06:24Z</time>
      </trkpt>
      <trkpt lat="49.42228" lon="5.76263">
        <ele>338.20001220703</ele>
        <time>2024-06-09T09:06:26Z</time>
      </trkpt>
      <trkpt lat="49.42228" lon="5.76263">
        <ele>338.20001220703</ele>
        <time>2024-06-09T09:06:28Z</time>
      </trkpt>
      <trkpt lat="49.42228" lon="5.76263">
        <ele>338.20001220703</ele>
        <time>2024-06-09T09:06:29Z</time>
      </trkpt>
      <trkpt lat="49.42228" lon="5.76263">
        <ele>338.20001220703</ele>
        <time>2024-06-09T09:06:30Z</time>
      </trkpt>
      <trkpt lat="49.42229" lon="5.76263">
        <ele>338.20001220703</ele>
        <time>2024-06-09T09:06:32Z</time>
      </trkpt>
      <trkpt lat="49.42229" lon="5.76263">
        <ele>338.20001220703</ele>
        <time>2024-06-09T09:06:34Z</time>
      </trkpt>
      <trkpt lat="49.42228" lon="5.76263">
        <ele>338.20001220703</ele>
        <time>2024-06-09T09:06:36Z</time>
      </trkpt>
      <trkpt lat="49.42228" lon="5.76263">
        <ele>338.20001220703</ele>
        <time>2024-06-09T09:06:38Z</time>
      </trkpt>
      <trkpt lat="49.42228" lon="5.76263">
        <ele>338</ele>
        <time>2024-06-09T09:06:40Z</time>
      </trkpt>
      <trkpt lat="49.42228" lon="5.76263">
        <ele>338</ele>
        <time>2024-06-09T09:06:41Z</time>
      </trkpt>
      <trkpt lat="49.42228" lon="5.76263">
        <ele>338</ele>
        <time>2024-06-09T09:06:42Z</time>
      </trkpt>
      <trkpt lat="49.42228" lon="5.76263">
        <ele>338</ele>
        <time>2024-06-09T09:06:44Z</time>
      </trkpt>
      <trkpt lat="49.42229" lon="5.76263">
        <ele>338</ele>
        <time>2024-06-09T09:06:46Z</time>
      </trkpt>
      <trkpt lat="49.42229" lon="5.76263">
        <ele>338</ele>
        <time>2024-06-09T09:06:48Z</time>
      </trkpt>
      <trkpt lat="49.42229" lon="5.76262">
        <ele>337.79998779297</ele>
        <time>2024-06-09T09:06:50Z</time>
      </trkpt>
      <trkpt lat="49.42229" lon="5.76262">
        <ele>337.79998779297</ele>
        <time>2024-06-09T09:06:52Z</time>
      </trkpt>
      <trkpt lat="49.42229" lon="5.76263">
        <ele>337.79998779297</ele>
        <time>2024-06-09T09:06:54Z</time>
      </trkpt>
      <trkpt lat="49.42229" lon="5.76263">
        <ele>337.79998779297</ele>
        <time>2024-06-09T09:06:56Z</time>
      </trkpt>
      <trkpt lat="49.42229" lon="5.76263">
        <ele>337.79998779297</ele>
        <time>2024-06-09T09:06:58Z</time>
      </trkpt>
      <trkpt lat="49.42229" lon="5.76263">
        <ele>337.60000610352</ele>
        <time>2024-06-09T09:07:00Z</time>
      </trkpt>
      <trkpt lat="49.42229" lon="5.76263">
        <ele>337.60000610352</ele>
        <time>2024-06-09T09:07:02Z</time>
      </trkpt>
      <trkpt lat="49.42229" lon="5.76263">
        <ele>337.60000610352</ele>
        <time>2024-06-09T09:07:04Z</time>
      </trkpt>
      <trkpt lat="49.42229" lon="5.76263">
        <ele>337.60000610352</ele>
        <time>2024-06-09T09:07:05Z</time>
      </trkpt>
      <trkpt lat="49.42229" lon="5.76263">
        <ele>337.60000610352</ele>
        <time>2024-06-09T09:07:06Z</time>
      </trkpt>
      <trkpt lat="49.42229" lon="5.76263">
        <ele>337.60000610352</ele>
        <time>2024-06-09T09:07:08Z</time>
      </trkpt>
      <trkpt lat="49.42228" lon="5.76262">
        <ele>337.60000610352</ele>
        <time>2024-06-09T09:07:10Z</time>
      </trkpt>
      <trkpt lat="49.42228" lon="5.76262">
        <ele>337.79998779297</ele>
        <time>2024-06-09T09:07:12Z</time>
      </trkpt>
      <trkpt lat="49.42226" lon="5.76261">
        <ele>337.79998779297</ele>
        <time>2024-06-09T09:07:14Z</time>
      </trkpt>
      <trkpt lat="49.42223" lon="5.76261">
        <ele>337.79998779297</ele>
        <time>2024-06-09T09:07:16Z</time>
      </trkpt>
      <trkpt lat="49.4222" lon="5.7626">
        <ele>337.79998779297</ele>
        <time>2024-06-09T09:07:18Z</time>
      </trkpt>
      <trkpt lat="49.42216" lon="5.76258">
        <ele>337.79998779297</ele>
        <time>2024-06-09T09:07:20Z</time>
      </trkpt>
      <trkpt lat="49.42211" lon="5.76256">
        <ele>337.79998779297</ele>
        <time>2024-06-09T09:07:22Z</time>
      </trkpt>
      <trkpt lat="49.42205" lon="5.76254">
        <ele>337.79998779297</ele>
        <time>2024-06-09T09:07:24Z</time>
      </trkpt>
      <trkpt lat="49.42199" lon="5.76252">
        <ele>337.79998779297</ele>
        <time>2024-06-09T09:07:26Z</time>
      </trkpt>
      <trkpt lat="49.42192" lon="5.7625">
        <ele>337.79998779297</ele>
        <time>2024-06-09T09:07:28Z</time>
      </trkpt>
      <trkpt lat="49.42185" lon="5.76248">
        <ele>337.79998779297</ele>
        <time>2024-06-09T09:07:30Z</time>
      </trkpt>
      <trkpt lat="49.42178" lon="5.76247">
        <ele>337.79998779297</ele>
        <time>2024-06-09T09:07:32Z</time>
      </trkpt>
      <trkpt lat="49.42171" lon="5.76245">
        <ele>338</ele>
        <time>2024-06-09T09:07:34Z</time>
      </trkpt>
      <trkpt lat="49.42164" lon="5.76242">
        <ele>338</ele>
        <time>2024-06-09T09:07:36Z</time>
      </trkpt>
      <trkpt lat="49.42157" lon="5.7624">
        <ele>338</ele>
        <time>2024-06-09T09:07:38Z</time>
      </trkpt>
      <trkpt lat="49.42153" lon="5.76239">
        <ele>338.20001220703</ele>
        <time>2024-06-09T09:07:39Z</time>
      </trkpt>
      <trkpt lat="49.4215" lon="5.76238">
        <ele>338.20001220703</ele>
        <time>2024-06-09T09:07:40Z</time>
      </trkpt>
      <trkpt lat="49.42143" lon="5.76237">
        <ele>338.39999389648</ele>
        <time>2024-06-09T09:07:42Z</time>
      </trkpt>
      <trkpt lat="49.42136" lon="5.76236">
        <ele>338.60000610352</ele>
        <time>2024-06-09T09:07:44Z</time>
      </trkpt>
      <trkpt lat="49.42129" lon="5.76234">
        <ele>338.79998779297</ele>
        <time>2024-06-09T09:07:46Z</time>
      </trkpt>
      <trkpt lat="49.42122" lon="5.76233">
        <ele>339</ele>
        <time>2024-06-09T09:07:48Z</time>
      </trkpt>
      <trkpt lat="49.42115" lon="5.76232">
        <ele>339.20001220703</ele>
        <time>2024-06-09T09:07:50Z</time>
      </trkpt>
      <trkpt lat="49.42108" lon="5.76231">
        <ele>339.39999389648</ele>
        <time>2024-06-09T09:07:52Z</time>
      </trkpt>
      <trkpt lat="49.421" lon="5.76231">
        <ele>339.39999389648</ele>
        <time>2024-06-09T09:07:54Z</time>
      </trkpt>
      <trkpt lat="49.42093" lon="5.76231">
        <ele>339.60000610352</ele>
        <time>2024-06-09T09:07:56Z</time>
      </trkpt>
      <trkpt lat="49.42085" lon="5.76231">
        <ele>339.60000610352</ele>
        <time>2024-06-09T09:07:58Z</time>
      </trkpt>
      <trkpt lat="49.42077" lon="5.76231">
        <ele>339.60000610352</ele>
        <time>2024-06-09T09:08:00Z</time>
      </trkpt>
      <trkpt lat="49.4207" lon="5.76232">
        <ele>339.60000610352</ele>
        <time>2024-06-09T09:08:02Z</time>
      </trkpt>
      <trkpt lat="49.42062" lon="5.76233">
        <ele>339.79998779297</ele>
        <time>2024-06-09T09:08:04Z</time>
      </trkpt>
      <trkpt lat="49.42055" lon="5.76233">
        <ele>339.79998779297</ele>
        <time>2024-06-09T09:08:06Z</time>
      </trkpt>
      <trkpt lat="49.42051" lon="5.76234">
        <ele>339.79998779297</ele>
        <time>2024-06-09T09:08:07Z</time>
      </trkpt>
      <trkpt lat="49.42047" lon="5.76235">
        <ele>340</ele>
        <time>2024-06-09T09:08:08Z</time>
      </trkpt>
      <trkpt lat="49.42039" lon="5.76237">
        <ele>340</ele>
        <time>2024-06-09T09:08:10Z</time>
      </trkpt>
      <trkpt lat="49.42032" lon="5.76238">
        <ele>340.20001220703</ele>
        <time>2024-06-09T09:08:12Z</time>
      </trkpt>
      <trkpt lat="49.42024" lon="5.7624">
        <ele>340.39999389648</ele>
        <time>2024-06-09T09:08:14Z</time>
      </trkpt>
      <trkpt lat="49.4202" lon="5.76241">
        <ele>340.39999389648</ele>
        <time>2024-06-09T09:08:15Z</time>
      </trkpt>
      <trkpt lat="49.42016" lon="5.76242">
        <ele>340.39999389648</ele>
        <time>2024-06-09T09:08:16Z</time>
      </trkpt>
      <trkpt lat="49.42008" lon="5.76244">
        <ele>340.60000610352</ele>
        <time>2024-06-09T09:08:18Z</time>
      </trkpt>
      <trkpt lat="49.42" lon="5.76247">
        <ele>340.60000610352</ele>
        <time>2024-06-09T09:08:20Z</time>
      </trkpt>
      <trkpt lat="49.41992" lon="5.7625">
        <ele>340.60000610352</ele>
        <time>2024-06-09T09:08:22Z</time>
      </trkpt>
      <trkpt lat="49.41985" lon="5.76253">
        <ele>340.60000610352</ele>
        <time>2024-06-09T09:08:24Z</time>
      </trkpt>
      <trkpt lat="49.41977" lon="5.76256">
        <ele>340.79998779297</ele>
        <time>2024-06-09T09:08:26Z</time>
      </trkpt>
      <trkpt lat="49.41969" lon="5.76259">
        <ele>340.60000610352</ele>
        <time>2024-06-09T09:08:28Z</time>
      </trkpt>
      <trkpt lat="49.41961" lon="5.76262">
        <ele>340.60000610352</ele>
        <time>2024-06-09T09:08:30Z</time>
      </trkpt>
      <trkpt lat="49.41953" lon="5.76266">
        <ele>340.60000610352</ele>
        <time>2024-06-09T09:08:32Z</time>
      </trkpt>
      <trkpt lat="49.41945" lon="5.7627">
        <ele>340.60000610352</ele>
        <time>2024-06-09T09:08:34Z</time>
      </trkpt>
      <trkpt lat="49.41937" lon="5.76273">
        <ele>340.79998779297</ele>
        <time>2024-06-09T09:08:36Z</time>
      </trkpt>
      <trkpt lat="49.41929" lon="5.76277">
        <ele>341</ele>
        <time>2024-06-09T09:08:38Z</time>
      </trkpt>
      <trkpt lat="49.41921" lon="5.7628">
        <ele>341</ele>
        <time>2024-06-09T09:08:40Z</time>
      </trkpt>
      <trkpt lat="49.41913" lon="5.76284">
        <ele>341.20001220703</ele>
        <time>2024-06-09T09:08:42Z</time>
      </trkpt>
      <trkpt lat="49.41906" lon="5.76287">
        <ele>341.20001220703</ele>
        <time>2024-06-09T09:08:44Z</time>
      </trkpt>
      <trkpt lat="49.41898" lon="5.76291">
        <ele>341.39999389648</ele>
        <time>2024-06-09T09:08:46Z</time>
      </trkpt>
      <trkpt lat="49.4189" lon="5.76294">
        <ele>341.39999389648</ele>
        <time>2024-06-09T09:08:48Z</time>
      </trkpt>
      <trkpt lat="49.41883" lon="5.76297">
        <ele>341.60000610352</ele>
        <time>2024-06-09T09:08:50Z</time>
      </trkpt>
      <trkpt lat="49.41875" lon="5.763">
        <ele>341.60000610352</ele>
        <time>2024-06-09T09:08:52Z</time>
      </trkpt>
      <trkpt lat="49.41867" lon="5.76302">
        <ele>341.60000610352</ele>
        <time>2024-06-09T09:08:54Z</time>
      </trkpt>
      <trkpt lat="49.4186" lon="5.76306">
        <ele>341.79998779297</ele>
        <time>2024-06-09T09:08:56Z</time>
      </trkpt>
      <trkpt lat="49.41853" lon="5.76309">
        <ele>342</ele>
        <time>2024-06-09T09:08:58Z</time>
      </trkpt>
      <trkpt lat="49.41845" lon="5.76312">
        <ele>342</ele>
        <time>2024-06-09T09:09:00Z</time>
      </trkpt>
      <trkpt lat="49.4184" lon="5.76314">
        <ele>342</ele>
        <time>2024-06-09T09:09:01Z</time>
      </trkpt>
      <trkpt lat="49.41836" lon="5.76316">
        <ele>342</ele>
        <time>2024-06-09T09:09:02Z</time>
      </trkpt>
      <trkpt lat="49.41827" lon="5.76321">
        <ele>342</ele>
        <time>2024-06-09T09:09:04Z</time>
      </trkpt>
      <trkpt lat="49.41817" lon="5.76325">
        <ele>342</ele>
        <time>2024-06-09T09:09:06Z</time>
      </trkpt>
      <trkpt lat="49.41812" lon="5.76328">
        <ele>342</ele>
        <time>2024-06-09T09:09:07Z</time>
      </trkpt>
      <trkpt lat="49.41807" lon="5.76331">
        <ele>342</ele>
        <time>2024-06-09T09:09:08Z</time>
      </trkpt>
      <trkpt lat="49.41797" lon="5.76335">
        <ele>342</ele>
        <time>2024-06-09T09:09:10Z</time>
      </trkpt>
      <trkpt lat="49.41787" lon="5.7634">
        <ele>342</ele>
        <time>2024-06-09T09:09:12Z</time>
      </trkpt>
      <trkpt lat="49.41776" lon="5.76344">
        <ele>341.60000610352</ele>
        <time>2024-06-09T09:09:14Z</time>
      </trkpt>
      <trkpt lat="49.41766" lon="5.76348">
        <ele>340.79998779297</ele>
        <time>2024-06-09T09:09:16Z</time>
      </trkpt>
      <trkpt lat="49.41755" lon="5.76352">
        <ele>340.60000610352</ele>
        <time>2024-06-09T09:09:18Z</time>
      </trkpt>
      <trkpt lat="49.41743" lon="5.76355">
        <ele>340.39999389648</ele>
        <time>2024-06-09T09:09:20Z</time>
      </trkpt>
      <trkpt lat="49.41738" lon="5.76356">
        <ele>340.20001220703</ele>
        <time>2024-06-09T09:09:21Z</time>
      </trkpt>
      <trkpt lat="49.41732" lon="5.76358">
        <ele>340.20001220703</ele>
        <time>2024-06-09T09:09:22Z</time>
      </trkpt>
      <trkpt lat="49.4172" lon="5.7636">
        <ele>340</ele>
        <time>2024-06-09T09:09:24Z</time>
      </trkpt>
      <trkpt lat="49.41708" lon="5.76363">
        <ele>339.79998779297</ele>
        <time>2024-06-09T09:09:26Z</time>
      </trkpt>
      <trkpt lat="49.41696" lon="5.76366">
        <ele>339.60000610352</ele>
        <time>2024-06-09T09:09:28Z</time>
      </trkpt>
      <trkpt lat="49.41683" lon="5.76369">
        <ele>339.60000610352</ele>
        <time>2024-06-09T09:09:30Z</time>
      </trkpt>
      <trkpt lat="49.41677" lon="5.76371">
        <ele>339.39999389648</ele>
        <time>2024-06-09T09:09:31Z</time>
      </trkpt>
      <trkpt lat="49.4167" lon="5.76372">
        <ele>339.20001220703</ele>
        <time>2024-06-09T09:09:32Z</time>
      </trkpt>
      <trkpt lat="49.41657" lon="5.76375">
        <ele>339</ele>
        <time>2024-06-09T09:09:34Z</time>
      </trkpt>
      <trkpt lat="49.41644" lon="5.76377">
        <ele>339</ele>
        <time>2024-06-09T09:09:36Z</time>
      </trkpt>
      <trkpt lat="49.41631" lon="5.76378">
        <ele>338.79998779297</ele>
        <time>2024-06-09T09:09:38Z</time>
      </trkpt>
      <trkpt lat="49.41618" lon="5.76379">
        <ele>338.39999389648</ele>
        <time>2024-06-09T09:09:40Z</time>
      </trkpt>
      <trkpt lat="49.41605" lon="5.76379">
        <ele>337.79998779297</ele>
        <time>2024-06-09T09:09:42Z</time>
      </trkpt>
      <trkpt lat="49.41592" lon="5.76378">
        <ele>337.39999389648</ele>
        <time>2024-06-09T09:09:44Z</time>
      </trkpt>
      <trkpt lat="49.41579" lon="5.76377">
        <ele>337.39999389648</ele>
        <time>2024-06-09T09:09:46Z</time>
      </trkpt>
      <trkpt lat="49.41566" lon="5.76375">
        <ele>337.39999389648</ele>
        <time>2024-06-09T09:09:48Z</time>
      </trkpt>
      <trkpt lat="49.4156" lon="5.76374">
        <ele>337.20001220703</ele>
        <time>2024-06-09T09:09:49Z</time>
      </trkpt>
      <trkpt lat="49.41553" lon="5.76373">
        <ele>337.20001220703</ele>
        <time>2024-06-09T09:09:50Z</time>
      </trkpt>
      <trkpt lat="49.4154" lon="5.76371">
        <ele>337.20001220703</ele>
        <time>2024-06-09T09:09:52Z</time>
      </trkpt>
      <trkpt lat="49.41526" lon="5.76369">
        <ele>337</ele>
        <time>2024-06-09T09:09:54Z</time>
      </trkpt>
      <trkpt lat="49.41513" lon="5.76367">
        <ele>337</ele>
        <time>2024-06-09T09:09:56Z</time>
      </trkpt>
      <trkpt lat="49.41499" lon="5.76365">
        <ele>336.79998779297</ele>
        <time>2024-06-09T09:09:58Z</time>
      </trkpt>
      <trkpt lat="49.41485" lon="5.76363">
        <ele>336.79998779297</ele>
        <time>2024-06-09T09:10:00Z</time>
      </trkpt>
      <trkpt lat="49.4147" lon="5.76361">
        <ele>336.60000610352</ele>
        <time>2024-06-09T09:10:02Z</time>
      </trkpt>
      <trkpt lat="49.41456" lon="5.7636">
        <ele>336.20001220703</ele>
        <time>2024-06-09T09:10:04Z</time>
      </trkpt>
      <trkpt lat="49.41442" lon="5.76357">
        <ele>336</ele>
        <time>2024-06-09T09:10:06Z</time>
      </trkpt>
      <trkpt lat="49.41436" lon="5.76356">
        <ele>335.60000610352</ele>
        <time>2024-06-09T09:10:07Z</time>
      </trkpt>
      <trkpt lat="49.41429" lon="5.76354">
        <ele>335.39999389648</ele>
        <time>2024-06-09T09:10:08Z</time>
      </trkpt>
      <trkpt lat="49.41416" lon="5.76348">
        <ele>335</ele>
        <time>2024-06-09T09:10:10Z</time>
      </trkpt>
      <trkpt lat="49.41403" lon="5.76342">
        <ele>334.79998779297</ele>
        <time>2024-06-09T09:10:12Z</time>
      </trkpt>
      <trkpt lat="49.41391" lon="5.76334">
        <ele>334.60000610352</ele>
        <time>2024-06-09T09:10:14Z</time>
      </trkpt>
      <trkpt lat="49.41385" lon="5.76331">
        <ele>334.39999389648</ele>
        <time>2024-06-09T09:10:15Z</time>
      </trkpt>
      <trkpt lat="49.41379" lon="5.76328">
        <ele>334.39999389648</ele>
        <time>2024-06-09T09:10:16Z</time>
      </trkpt>
      <trkpt lat="49.41366" lon="5.76321">
        <ele>334.20001220703</ele>
        <time>2024-06-09T09:10:18Z</time>
      </trkpt>
      <trkpt lat="49.41354" lon="5.76316">
        <ele>334</ele>
        <time>2024-06-09T09:10:20Z</time>
      </trkpt>
      <trkpt lat="49.41348" lon="5.76314">
        <ele>334</ele>
        <time>2024-06-09T09:10:21Z</time>
      </trkpt>
      <trkpt lat="49.41342" lon="5.76312">
        <ele>334</ele>
        <time>2024-06-09T09:10:22Z</time>
      </trkpt>
      <trkpt lat="49.41329" lon="5.76309">
        <ele>334</ele>
        <time>2024-06-09T09:10:24Z</time>
      </trkpt>
      <trkpt lat="49.41316" lon="5.76308">
        <ele>334</ele>
        <time>2024-06-09T09:10:26Z</time>
      </trkpt>
      <trkpt lat="49.41303" lon="5.76307">
        <ele>334</ele>
        <time>2024-06-09T09:10:28Z</time>
      </trkpt>
      <trkpt lat="49.41296" lon="5.76307">
        <ele>334</ele>
        <time>2024-06-09T09:10:29Z</time>
      </trkpt>
      <trkpt lat="49.4129" lon="5.76306">
        <ele>334</ele>
        <time>2024-06-09T09:10:30Z</time>
      </trkpt>
      <trkpt lat="49.41277" lon="5.76306">
        <ele>334</ele>
        <time>2024-06-09T09:10:32Z</time>
      </trkpt>
      <trkpt lat="49.41264" lon="5.76306">
        <ele>334.20001220703</ele>
        <time>2024-06-09T09:10:34Z</time>
      </trkpt>
      <trkpt lat="49.41251" lon="5.76307">
        <ele>334.20001220703</ele>
        <time>2024-06-09T09:10:36Z</time>
      </trkpt>
      <trkpt lat="49.41238" lon="5.76306">
        <ele>334.20001220703</ele>
        <time>2024-06-09T09:10:38Z</time>
      </trkpt>
      <trkpt lat="49.41232" lon="5.76306">
        <ele>334.20001220703</ele>
        <time>2024-06-09T09:10:39Z</time>
      </trkpt>
      <trkpt lat="49.41225" lon="5.76306">
        <ele>334.20001220703</ele>
        <time>2024-06-09T09:10:40Z</time>
      </trkpt>
      <trkpt lat="49.41212" lon="5.76305">
        <ele>334.20001220703</ele>
        <time>2024-06-09T09:10:42Z</time>
      </trkpt>
      <trkpt lat="49.41199" lon="5.76305">
        <ele>334.20001220703</ele>
        <time>2024-06-09T09:10:44Z</time>
      </trkpt>
      <trkpt lat="49.41185" lon="5.76307">
        <ele>334</ele>
        <time>2024-06-09T09:10:46Z</time>
      </trkpt>
      <trkpt lat="49.41179" lon="5.76308">
        <ele>333.79998779297</ele>
        <time>2024-06-09T09:10:47Z</time>
      </trkpt>
      <trkpt lat="49.41172" lon="5.76309">
        <ele>333.60000610352</ele>
        <time>2024-06-09T09:10:48Z</time>
      </trkpt>
      <trkpt lat="49.41159" lon="5.76312">
        <ele>333.39999389648</ele>
        <time>2024-06-09T09:10:50Z</time>
      </trkpt>
      <trkpt lat="49.41145" lon="5.76314">
        <ele>333</ele>
        <time>2024-06-09T09:10:52Z</time>
      </trkpt>
      <trkpt lat="49.41132" lon="5.76315">
        <ele>332.60000610352</ele>
        <time>2024-06-09T09:10:54Z</time>
      </trkpt>
      <trkpt lat="49.41125" lon="5.76315">
        <ele>332.39999389648</ele>
        <time>2024-06-09T09:10:55Z</time>
      </trkpt>
      <trkpt lat="49.41119" lon="5.76315">
        <ele>332.20001220703</ele>
        <time>2024-06-09T09:10:56Z</time>
      </trkpt>
      <trkpt lat="49.41106" lon="5.76314">
        <ele>332</ele>
        <time>2024-06-09T09:10:58Z</time>
      </trkpt>
      <trkpt lat="49.41092" lon="5.76312">
        <ele>331.79998779297</ele>
        <time>2024-06-09T09:11:00Z</time>
      </trkpt>
      <trkpt lat="49.41079" lon="5.7631">
        <ele>331.79998779297</ele>
        <time>2024-06-09T09:11:02Z</time>
      </trkpt>
      <trkpt lat="49.41067" lon="5.76309">
        <ele>331.60000610352</ele>
        <time>2024-06-09T09:11:04Z</time>
      </trkpt>
      <trkpt lat="49.41054" lon="5.76308">
        <ele>331.39999389648</ele>
        <time>2024-06-09T09:11:06Z</time>
      </trkpt>
      <trkpt lat="49.41041" lon="5.76307">
        <ele>331.39999389648</ele>
        <time>2024-06-09T09:11:08Z</time>
      </trkpt>
      <trkpt lat="49.41028" lon="5.76307">
        <ele>331.20001220703</ele>
        <time>2024-06-09T09:11:10Z</time>
      </trkpt>
      <trkpt lat="49.41022" lon="5.76308">
        <ele>331.20001220703</ele>
        <time>2024-06-09T09:11:11Z</time>
      </trkpt>
      <trkpt lat="49.41016" lon="5.76308">
        <ele>331</ele>
        <time>2024-06-09T09:11:12Z</time>
      </trkpt>
      <trkpt lat="49.4101" lon="5.76309">
        <ele>330.79998779297</ele>
        <time>2024-06-09T09:11:13Z</time>
      </trkpt>
      <trkpt lat="49.41004" lon="5.7631">
        <ele>330.79998779297</ele>
        <time>2024-06-09T09:11:14Z</time>
      </trkpt>
      <trkpt lat="49.40993" lon="5.76312">
        <ele>330.79998779297</ele>
        <time>2024-06-09T09:11:16Z</time>
      </trkpt>
      <trkpt lat="49.40988" lon="5.76313">
        <ele>330.79998779297</ele>
        <time>2024-06-09T09:11:17Z</time>
      </trkpt>
      <trkpt lat="49.40983" lon="5.76315">
        <ele>330.79998779297</ele>
        <time>2024-06-09T09:11:18Z</time>
      </trkpt>
      <trkpt lat="49.40979" lon="5.76317">
        <ele>330.79998779297</ele>
        <time>2024-06-09T09:11:19Z</time>
      </trkpt>
      <trkpt lat="49.40976" lon="5.7632">
        <ele>330.79998779297</ele>
        <time>2024-06-09T09:11:20Z</time>
      </trkpt>
      <trkpt lat="49.40974" lon="5.76324">
        <ele>330.79998779297</ele>
        <time>2024-06-09T09:11:21Z</time>
      </trkpt>
      <trkpt lat="49.40973" lon="5.76328">
        <ele>330.79998779297</ele>
        <time>2024-06-09T09:11:22Z</time>
      </trkpt>
      <trkpt lat="49.40976" lon="5.76338">
        <ele>330.79998779297</ele>
        <time>2024-06-09T09:11:24Z</time>
      </trkpt>
      <trkpt lat="49.40979" lon="5.76343">
        <ele>330.79998779297</ele>
        <time>2024-06-09T09:11:25Z</time>
      </trkpt>
      <trkpt lat="49.40982" lon="5.76349">
        <ele>330.79998779297</ele>
        <time>2024-06-09T09:11:26Z</time>
      </trkpt>
      <trkpt lat="49.40988" lon="5.76361">
        <ele>330.79998779297</ele>
        <time>2024-06-09T09:11:28Z</time>
      </trkpt>
      <trkpt lat="49.40994" lon="5.76372">
        <ele>330.60000610352</ele>
        <time>2024-06-09T09:11:30Z</time>
      </trkpt>
      <trkpt lat="49.41" lon="5.76384">
        <ele>330.60000610352</ele>
        <time>2024-06-09T09:11:32Z</time>
      </trkpt>
      <trkpt lat="49.41005" lon="5.76397">
        <ele>330.60000610352</ele>
        <time>2024-06-09T09:11:34Z</time>
      </trkpt>
      <trkpt lat="49.41011" lon="5.76409">
        <ele>330.20001220703</ele>
        <time>2024-06-09T09:11:36Z</time>
      </trkpt>
      <trkpt lat="49.41014" lon="5.76415">
        <ele>330</ele>
        <time>2024-06-09T09:11:37Z</time>
      </trkpt>
      <trkpt lat="49.41016" lon="5.76421">
        <ele>329.79998779297</ele>
        <time>2024-06-09T09:11:38Z</time>
      </trkpt>
      <trkpt lat="49.41022" lon="5.76434">
        <ele>329.60000610352</ele>
        <time>2024-06-09T09:11:40Z</time>
      </trkpt>
      <trkpt lat="49.41028" lon="5.76448">
        <ele>329.39999389648</ele>
        <time>2024-06-09T09:11:42Z</time>
      </trkpt>
      <trkpt lat="49.41034" lon="5.7646">
        <ele>329.39999389648</ele>
        <time>2024-06-09T09:11:44Z</time>
      </trkpt>
      <trkpt lat="49.41039" lon="5.76473">
        <ele>329.39999389648</ele>
        <time>2024-06-09T09:11:46Z</time>
      </trkpt>
      <trkpt lat="49.41044" lon="5.76486">
        <ele>329.39999389648</ele>
        <time>2024-06-09T09:11:48Z</time>
      </trkpt>
      <trkpt lat="49.41046" lon="5.76492">
        <ele>329.39999389648</ele>
        <time>2024-06-09T09:11:49Z</time>
      </trkpt>
      <trkpt lat="49.41048" lon="5.76498">
        <ele>329.39999389648</ele>
        <time>2024-06-09T09:11:50Z</time>
      </trkpt>
      <trkpt lat="49.41052" lon="5.76511">
        <ele>329.39999389648</ele>
        <time>2024-06-09T09:11:52Z</time>
      </trkpt>
      <trkpt lat="49.41054" lon="5.76518">
        <ele>329.39999389648</ele>
        <time>2024-06-09T09:11:53Z</time>
      </trkpt>
      <trkpt lat="49.41056" lon="5.76525">
        <ele>329.39999389648</ele>
        <time>2024-06-09T09:11:54Z</time>
      </trkpt>
      <trkpt lat="49.4106" lon="5.76538">
        <ele>329.39999389648</ele>
        <time>2024-06-09T09:11:56Z</time>
      </trkpt>
      <trkpt lat="49.41063" lon="5.76551">
        <ele>329.39999389648</ele>
        <time>2024-06-09T09:11:58Z</time>
      </trkpt>
      <trkpt lat="49.41065" lon="5.76564">
        <ele>329.39999389648</ele>
        <time>2024-06-09T09:12:00Z</time>
      </trkpt>
      <trkpt lat="49.41067" lon="5.76577">
        <ele>329.39999389648</ele>
        <time>2024-06-09T09:12:02Z</time>
      </trkpt>
      <trkpt lat="49.41069" lon="5.76589">
        <ele>329.60000610352</ele>
        <time>2024-06-09T09:12:04Z</time>
      </trkpt>
      <trkpt lat="49.41071" lon="5.76601">
        <ele>329.60000610352</ele>
        <time>2024-06-09T09:12:06Z</time>
      </trkpt>
      <trkpt lat="49.41072" lon="5.76612">
        <ele>329.79998779297</ele>
        <time>2024-06-09T09:12:08Z</time>
      </trkpt>
      <trkpt lat="49.41073" lon="5.76617">
        <ele>329.79998779297</ele>
        <time>2024-06-09T09:12:09Z</time>
      </trkpt>
      <trkpt lat="49.41074" lon="5.76622">
        <ele>330</ele>
        <time>2024-06-09T09:12:10Z</time>
      </trkpt>
      <trkpt lat="49.41075" lon="5.76632">
        <ele>330.39999389648</ele>
        <time>2024-06-09T09:12:12Z</time>
      </trkpt>
      <trkpt lat="49.41077" lon="5.76643">
        <ele>330.60000610352</ele>
        <time>2024-06-09T09:12:14Z</time>
      </trkpt>
      <trkpt lat="49.41079" lon="5.76653">
        <ele>330.79998779297</ele>
        <time>2024-06-09T09:12:16Z</time>
      </trkpt>
      <trkpt lat="49.4108" lon="5.76662">
        <ele>331</ele>
        <time>2024-06-09T09:12:18Z</time>
      </trkpt>
      <trkpt lat="49.4108" lon="5.76666">
        <ele>331.20001220703</ele>
        <time>2024-06-09T09:12:19Z</time>
      </trkpt>
      <trkpt lat="49.41079" lon="5.76669">
        <ele>331.20001220703</ele>
        <time>2024-06-09T09:12:20Z</time>
      </trkpt>
      <trkpt lat="49.41076" lon="5.7667">
        <ele>331.39999389648</ele>
        <time>2024-06-09T09:12:21Z</time>
      </trkpt>
      <trkpt lat="49.41074" lon="5.7667">
        <ele>331.60000610352</ele>
        <time>2024-06-09T09:12:22Z</time>
      </trkpt>
      <trkpt lat="49.41067" lon="5.76669">
        <ele>331.79998779297</ele>
        <time>2024-06-09T09:12:24Z</time>
      </trkpt>
      <trkpt lat="49.41063" lon="5.76669">
        <ele>332</ele>
        <time>2024-06-09T09:12:25Z</time>
      </trkpt>
      <trkpt lat="49.41059" lon="5.76668">
        <ele>332</ele>
        <time>2024-06-09T09:12:26Z</time>
      </trkpt>
      <trkpt lat="49.4105" lon="5.76667">
        <ele>332</ele>
        <time>2024-06-09T09:12:28Z</time>
      </trkpt>
      <trkpt lat="49.4104" lon="5.76666">
        <ele>332</ele>
        <time>2024-06-09T09:12:30Z</time>
      </trkpt>
      <trkpt lat="49.41031" lon="5.76665">
        <ele>332</ele>
        <time>2024-06-09T09:12:32Z</time>
      </trkpt>
      <trkpt lat="49.41026" lon="5.76664">
        <ele>332</ele>
        <time>2024-06-09T09:12:33Z</time>
      </trkpt>
      <trkpt lat="49.41021" lon="5.76664">
        <ele>332.20001220703</ele>
        <time>2024-06-09T09:12:34Z</time>
      </trkpt>
      <trkpt lat="49.4101" lon="5.76663">
        <ele>331.60000610352</ele>
        <time>2024-06-09T09:12:36Z</time>
      </trkpt>
      <trkpt lat="49.41005" lon="5.76663">
        <ele>331.39999389648</ele>
        <time>2024-06-09T09:12:37Z</time>
      </trkpt>
      <trkpt lat="49.40999" lon="5.76663">
        <ele>331.20001220703</ele>
        <time>2024-06-09T09:12:38Z</time>
      </trkpt>
      <trkpt lat="49.40987" lon="5.76662">
        <ele>330.79998779297</ele>
        <time>2024-06-09T09:12:40Z</time>
      </trkpt>
      <trkpt lat="49.40975" lon="5.76662">
        <ele>330.60000610352</ele>
        <time>2024-06-09T09:12:42Z</time>
      </trkpt>
      <trkpt lat="49.40963" lon="5.76661">
        <ele>330.39999389648</ele>
        <time>2024-06-09T09:12:44Z</time>
      </trkpt>
      <trkpt lat="49.40957" lon="5.76661">
        <ele>330.20001220703</ele>
        <time>2024-06-09T09:12:45Z</time>
      </trkpt>
      <trkpt lat="49.40951" lon="5.76661">
        <ele>330</ele>
        <time>2024-06-09T09:12:46Z</time>
      </trkpt>
      <trkpt lat="49.40939" lon="5.76662">
        <ele>329.20001220703</ele>
        <time>2024-06-09T09:12:48Z</time>
      </trkpt>
      <trkpt lat="49.40933" lon="5.76662">
        <ele>328.79998779297</ele>
        <time>2024-06-09T09:12:49Z</time>
      </trkpt>
      <trkpt lat="49.40927" lon="5.76662">
        <ele>328.39999389648</ele>
        <time>2024-06-09T09:12:50Z</time>
      </trkpt>
      <trkpt lat="49.40915" lon="5.76663">
        <ele>327.79998779297</ele>
        <time>2024-06-09T09:12:52Z</time>
      </trkpt>
      <trkpt lat="49.40908" lon="5.76663">
        <ele>327.60000610352</ele>
        <time>2024-06-09T09:12:53Z</time>
      </trkpt>
      <trkpt lat="49.40902" lon="5.76662">
        <ele>327.39999389648</ele>
        <time>2024-06-09T09:12:54Z</time>
      </trkpt>
      <trkpt lat="49.4089" lon="5.76661">
        <ele>327.20001220703</ele>
        <time>2024-06-09T09:12:56Z</time>
      </trkpt>
      <trkpt lat="49.40882" lon="5.76661">
        <ele>327</ele>
        <time>2024-06-09T09:12:58Z</time>
      </trkpt>
      <trkpt lat="49.40878" lon="5.76662">
        <ele>326.79998779297</ele>
        <time>2024-06-09T09:13:00Z</time>
      </trkpt>
      <trkpt lat="49.40874" lon="5.76664">
        <ele>326.39999389648</ele>
        <time>2024-06-09T09:13:02Z</time>
      </trkpt>
      <trkpt lat="49.4087" lon="5.76666">
        <ele>325.60000610352</ele>
        <time>2024-06-09T09:13:04Z</time>
      </trkpt>
      <trkpt lat="49.40866" lon="5.76666">
        <ele>325.39999389648</ele>
        <time>2024-06-09T09:13:06Z</time>
      </trkpt>
      <trkpt lat="49.40862" lon="5.76666">
        <ele>325.20001220703</ele>
        <time>2024-06-09T09:13:07Z</time>
      </trkpt>
      <trkpt lat="49.40858" lon="5.76666">
        <ele>325.20001220703</ele>
        <time>2024-06-09T09:13:08Z</time>
      </trkpt>
      <trkpt lat="49.40853" lon="5.76667">
        <ele>325</ele>
        <time>2024-06-09T09:13:09Z</time>
      </trkpt>
      <trkpt lat="49.40849" lon="5.76667">
        <ele>325</ele>
        <time>2024-06-09T09:13:10Z</time>
      </trkpt>
      <trkpt lat="49.40841" lon="5.7667">
        <ele>324.79998779297</ele>
        <time>2024-06-09T09:13:12Z</time>
      </trkpt>
      <trkpt lat="49.40837" lon="5.76673">
        <ele>324.79998779297</ele>
        <time>2024-06-09T09:13:13Z</time>
      </trkpt>
      <trkpt lat="49.40834" lon="5.76677">
        <ele>324.79998779297</ele>
        <time>2024-06-09T09:13:14Z</time>
      </trkpt>
      <trkpt lat="49.40829" lon="5.76688">
        <ele>324.20001220703</ele>
        <time>2024-06-09T09:13:16Z</time>
      </trkpt>
      <trkpt lat="49.40826" lon="5.76699">
        <ele>323.20001220703</ele>
        <time>2024-06-09T09:13:18Z</time>
      </trkpt>
      <trkpt lat="49.40823" lon="5.76708">
        <ele>322.60000610352</ele>
        <time>2024-06-09T09:13:20Z</time>
      </trkpt>
      <trkpt lat="49.40821" lon="5.76712">
        <ele>322.39999389648</ele>
        <time>2024-06-09T09:13:21Z</time>
      </trkpt>
      <trkpt lat="49.4082" lon="5.76716">
        <ele>322.39999389648</ele>
        <time>2024-06-09T09:13:22Z</time>
      </trkpt>
      <trkpt lat="49.40818" lon="5.76727">
        <ele>322.20001220703</ele>
        <time>2024-06-09T09:13:24Z</time>
      </trkpt>
      <trkpt lat="49.40818" lon="5.76733">
        <ele>322.20001220703</ele>
        <time>2024-06-09T09:13:25Z</time>
      </trkpt>
      <trkpt lat="49.40818" lon="5.76739">
        <ele>322</ele>
        <time>2024-06-09T09:13:26Z</time>
      </trkpt>
      <trkpt lat="49.4082" lon="5.76753">
        <ele>321.79998779297</ele>
        <time>2024-06-09T09:13:28Z</time>
      </trkpt>
      <trkpt lat="49.40823" lon="5.76766">
        <ele>321.79998779297</ele>
        <time>2024-06-09T09:13:30Z</time>
      </trkpt>
      <trkpt lat="49.40824" lon="5.76772">
        <ele>321.60000610352</ele>
        <time>2024-06-09T09:13:31Z</time>
      </trkpt>
      <trkpt lat="49.40825" lon="5.76778">
        <ele>321.60000610352</ele>
        <time>2024-06-09T09:13:32Z</time>
      </trkpt>
      <trkpt lat="49.40828" lon="5.76789">
        <ele>321.60000610352</ele>
        <time>2024-06-09T09:13:34Z</time>
      </trkpt>
      <trkpt lat="49.40831" lon="5.768">
        <ele>321.79998779297</ele>
        <time>2024-06-09T09:13:36Z</time>
      </trkpt>
      <trkpt lat="49.40834" lon="5.7681">
        <ele>321.79998779297</ele>
        <time>2024-06-09T09:13:38Z</time>
      </trkpt>
      <trkpt lat="49.40836" lon="5.7682">
        <ele>321.79998779297</ele>
        <time>2024-06-09T09:13:40Z</time>
      </trkpt>
      <trkpt lat="49.40838" lon="5.76829">
        <ele>322</ele>
        <time>2024-06-09T09:13:42Z</time>
      </trkpt>
      <trkpt lat="49.4084" lon="5.76838">
        <ele>322.39999389648</ele>
        <time>2024-06-09T09:13:44Z</time>
      </trkpt>
      <trkpt lat="49.4084" lon="5.76846">
        <ele>323</ele>
        <time>2024-06-09T09:13:46Z</time>
      </trkpt>
      <trkpt lat="49.40838" lon="5.7685">
        <ele>323.20001220703</ele>
        <time>2024-06-09T09:13:47Z</time>
      </trkpt>
      <trkpt lat="49.40836" lon="5.76853">
        <ele>323.60000610352</ele>
        <time>2024-06-09T09:13:48Z</time>
      </trkpt>
      <trkpt lat="49.40832" lon="5.7686">
        <ele>324</ele>
        <time>2024-06-09T09:13:50Z</time>
      </trkpt>
      <trkpt lat="49.40827" lon="5.76867">
        <ele>324.20001220703</ele>
        <time>2024-06-09T09:13:52Z</time>
      </trkpt>
      <trkpt lat="49.40824" lon="5.7687">
        <ele>324.60000610352</ele>
        <time>2024-06-09T09:13:53Z</time>
      </trkpt>
      <trkpt lat="49.40821" lon="5.76873">
        <ele>324.79998779297</ele>
        <time>2024-06-09T09:13:54Z</time>
      </trkpt>
      <trkpt lat="49.40815" lon="5.7688">
        <ele>325.20001220703</ele>
        <time>2024-06-09T09:13:56Z</time>
      </trkpt>
      <trkpt lat="49.40808" lon="5.76887">
        <ele>325.39999389648</ele>
        <time>2024-06-09T09:13:58Z</time>
      </trkpt>
      <trkpt lat="49.40805" lon="5.76891">
        <ele>325.60000610352</ele>
        <time>2024-06-09T09:13:59Z</time>
      </trkpt>
      <trkpt lat="49.40802" lon="5.76894">
        <ele>325.60000610352</ele>
        <time>2024-06-09T09:14:00Z</time>
      </trkpt>
      <trkpt lat="49.40798" lon="5.76898">
        <ele>325.60000610352</ele>
        <time>2024-06-09T09:14:01Z</time>
      </trkpt>
      <trkpt lat="49.40795" lon="5.76902">
        <ele>325.79998779297</ele>
        <time>2024-06-09T09:14:02Z</time>
      </trkpt>
      <trkpt lat="49.40791" lon="5.76905">
        <ele>325.79998779297</ele>
        <time>2024-06-09T09:14:03Z</time>
      </trkpt>
      <trkpt lat="49.40787" lon="5.76908">
        <ele>325.79998779297</ele>
        <time>2024-06-09T09:14:04Z</time>
      </trkpt>
      <trkpt lat="49.40779" lon="5.76915">
        <ele>325.60000610352</ele>
        <time>2024-06-09T09:14:06Z</time>
      </trkpt>
      <trkpt lat="49.40771" lon="5.76922">
        <ele>325.60000610352</ele>
        <time>2024-06-09T09:14:08Z</time>
      </trkpt>
      <trkpt lat="49.40766" lon="5.76926">
        <ele>325.60000610352</ele>
        <time>2024-06-09T09:14:09Z</time>
      </trkpt>
      <trkpt lat="49.40762" lon="5.7693">
        <ele>325.60000610352</ele>
        <time>2024-06-09T09:14:10Z</time>
      </trkpt>
      <trkpt lat="49.40759" lon="5.76935">
        <ele>325.60000610352</ele>
        <time>2024-06-09T09:14:11Z</time>
      </trkpt>
      <trkpt lat="49.40755" lon="5.76941">
        <ele>325.39999389648</ele>
        <time>2024-06-09T09:14:12Z</time>
      </trkpt>
      <trkpt lat="49.40752" lon="5.76952">
        <ele>325.20001220703</ele>
        <time>2024-06-09T09:14:14Z</time>
      </trkpt>
      <trkpt lat="49.40751" lon="5.76964">
        <ele>325.20001220703</ele>
        <time>2024-06-09T09:14:16Z</time>
      </trkpt>
      <trkpt lat="49.40755" lon="5.76973">
        <ele>325.20001220703</ele>
        <time>2024-06-09T09:14:18Z</time>
      </trkpt>
      <trkpt lat="49.40757" lon="5.76976">
        <ele>325.20001220703</ele>
        <time>2024-06-09T09:14:19Z</time>
      </trkpt>
      <trkpt lat="49.40759" lon="5.7698">
        <ele>325.20001220703</ele>
        <time>2024-06-09T09:14:20Z</time>
      </trkpt>
      <trkpt lat="49.40763" lon="5.76986">
        <ele>325.20001220703</ele>
        <time>2024-06-09T09:14:22Z</time>
      </trkpt>
      <trkpt lat="49.40767" lon="5.76991">
        <ele>325.39999389648</ele>
        <time>2024-06-09T09:14:24Z</time>
      </trkpt>
      <trkpt lat="49.40771" lon="5.76997">
        <ele>325.79998779297</ele>
        <time>2024-06-09T09:14:26Z</time>
      </trkpt>
      <trkpt lat="49.40774" lon="5.77004">
        <ele>327</ele>
        <time>2024-06-09T09:14:28Z</time>
      </trkpt>
      <trkpt lat="49.40776" lon="5.77012">
        <ele>327.60000610352</ele>
        <time>2024-06-09T09:14:30Z</time>
      </trkpt>
      <trkpt lat="49.40777" lon="5.77021">
        <ele>328.20001220703</ele>
        <time>2024-06-09T09:14:32Z</time>
      </trkpt>
      <trkpt lat="49.40777" lon="5.7703">
        <ele>328.39999389648</ele>
        <time>2024-06-09T09:14:34Z</time>
      </trkpt>
      <trkpt lat="49.40777" lon="5.7704">
        <ele>328.60000610352</ele>
        <time>2024-06-09T09:14:36Z</time>
      </trkpt>
      <trkpt lat="49.40777" lon="5.77045">
        <ele>328.60000610352</ele>
        <time>2024-06-09T09:14:37Z</time>
      </trkpt>
      <trkpt lat="49.40776" lon="5.7705">
        <ele>328.60000610352</ele>
        <time>2024-06-09T09:14:38Z</time>
      </trkpt>
      <trkpt lat="49.40776" lon="5.7706">
        <ele>328.79998779297</ele>
        <time>2024-06-09T09:14:40Z</time>
      </trkpt>
      <trkpt lat="49.40775" lon="5.77069">
        <ele>329.20001220703</ele>
        <time>2024-06-09T09:14:42Z</time>
      </trkpt>
      <trkpt lat="49.40775" lon="5.7708">
        <ele>329.39999389648</ele>
        <time>2024-06-09T09:14:44Z</time>
      </trkpt>
      <trkpt lat="49.40775" lon="5.77085">
        <ele>329.39999389648</ele>
        <time>2024-06-09T09:14:45Z</time>
      </trkpt>
      <trkpt lat="49.40774" lon="5.77091">
        <ele>329.39999389648</ele>
        <time>2024-06-09T09:14:46Z</time>
      </trkpt>
      <trkpt lat="49.40774" lon="5.77102">
        <ele>329.60000610352</ele>
        <time>2024-06-09T09:14:48Z</time>
      </trkpt>
      <trkpt lat="49.40774" lon="5.77112">
        <ele>329.60000610352</ele>
        <time>2024-06-09T09:14:50Z</time>
      </trkpt>
      <trkpt lat="49.40773" lon="5.77123">
        <ele>329.60000610352</ele>
        <time>2024-06-09T09:14:52Z</time>
      </trkpt>
      <trkpt lat="49.40773" lon="5.77134">
        <ele>329.60000610352</ele>
        <time>2024-06-09T09:14:54Z</time>
      </trkpt>
      <trkpt lat="49.40773" lon="5.77145">
        <ele>329.60000610352</ele>
        <time>2024-06-09T09:14:56Z</time>
      </trkpt>
      <trkpt lat="49.40773" lon="5.77151">
        <ele>329.79998779297</ele>
        <time>2024-06-09T09:14:57Z</time>
      </trkpt>
      <trkpt lat="49.40772" lon="5.77157">
        <ele>329.79998779297</ele>
        <time>2024-06-09T09:14:58Z</time>
      </trkpt>
      <trkpt lat="49.40772" lon="5.77169">
        <ele>329.79998779297</ele>
        <time>2024-06-09T09:15:00Z</time>
      </trkpt>
      <trkpt lat="49.40772" lon="5.77182">
        <ele>329.79998779297</ele>
        <time>2024-06-09T09:15:02Z</time>
      </trkpt>
      <trkpt lat="49.40771" lon="5.77194">
        <ele>329.79998779297</ele>
        <time>2024-06-09T09:15:04Z</time>
      </trkpt>
      <trkpt lat="49.40771" lon="5.772">
        <ele>329.79998779297</ele>
        <time>2024-06-09T09:15:05Z</time>
      </trkpt>
      <trkpt lat="49.40771" lon="5.77207">
        <ele>330</ele>
        <time>2024-06-09T09:15:06Z</time>
      </trkpt>
      <trkpt lat="49.40771" lon="5.7722">
        <ele>330</ele>
        <time>2024-06-09T09:15:08Z</time>
      </trkpt>
      <trkpt lat="49.40769" lon="5.77233">
        <ele>330</ele>
        <time>2024-06-09T09:15:10Z</time>
      </trkpt>
      <trkpt lat="49.40768" lon="5.77239">
        <ele>330</ele>
        <time>2024-06-09T09:15:11Z</time>
      </trkpt>
      <trkpt lat="49.40766" lon="5.77246">
        <ele>330</ele>
        <time>2024-06-09T09:15:12Z</time>
      </trkpt>
      <trkpt lat="49.40761" lon="5.77257">
        <ele>330</ele>
        <time>2024-06-09T09:15:14Z</time>
      </trkpt>
      <trkpt lat="49.40753" lon="5.77268">
        <ele>330</ele>
        <time>2024-06-09T09:15:16Z</time>
      </trkpt>
      <trkpt lat="49.40745" lon="5.77277">
        <ele>329.79998779297</ele>
        <time>2024-06-09T09:15:18Z</time>
      </trkpt>
      <trkpt lat="49.40736" lon="5.77287">
        <ele>329.60000610352</ele>
        <time>2024-06-09T09:15:20Z</time>
      </trkpt>
      <trkpt lat="49.40726" lon="5.77296">
        <ele>329.39999389648</ele>
        <time>2024-06-09T09:15:22Z</time>
      </trkpt>
      <trkpt lat="49.40717" lon="5.77306">
        <ele>329.20001220703</ele>
        <time>2024-06-09T09:15:24Z</time>
      </trkpt>
      <trkpt lat="49.40707" lon="5.77315">
        <ele>329</ele>
        <time>2024-06-09T09:15:26Z</time>
      </trkpt>
      <trkpt lat="49.40698" lon="5.77326">
        <ele>328.79998779297</ele>
        <time>2024-06-09T09:15:28Z</time>
      </trkpt>
      <trkpt lat="49.40689" lon="5.77337">
        <ele>328.60000610352</ele>
        <time>2024-06-09T09:15:30Z</time>
      </trkpt>
      <trkpt lat="49.40684" lon="5.77342">
        <ele>328.60000610352</ele>
        <time>2024-06-09T09:15:31Z</time>
      </trkpt>
      <trkpt lat="49.40679" lon="5.77347">
        <ele>328.60000610352</ele>
        <time>2024-06-09T09:15:32Z</time>
      </trkpt>
      <trkpt lat="49.40669" lon="5.77357">
        <ele>328.39999389648</ele>
        <time>2024-06-09T09:15:34Z</time>
      </trkpt>
      <trkpt lat="49.40659" lon="5.77367">
        <ele>328.39999389648</ele>
        <time>2024-06-09T09:15:36Z</time>
      </trkpt>
      <trkpt lat="49.40649" lon="5.77377">
        <ele>328.20001220703</ele>
        <time>2024-06-09T09:15:38Z</time>
      </trkpt>
      <trkpt lat="49.40644" lon="5.77382">
        <ele>328</ele>
        <time>2024-06-09T09:15:39Z</time>
      </trkpt>
      <trkpt lat="49.40639" lon="5.77387">
        <ele>328</ele>
        <time>2024-06-09T09:15:40Z</time>
      </trkpt>
      <trkpt lat="49.40629" lon="5.77398">
        <ele>327.79998779297</ele>
        <time>2024-06-09T09:15:42Z</time>
      </trkpt>
      <trkpt lat="49.40619" lon="5.77408">
        <ele>327.60000610352</ele>
        <time>2024-06-09T09:15:44Z</time>
      </trkpt>
      <trkpt lat="49.40609" lon="5.77418">
        <ele>327.39999389648</ele>
        <time>2024-06-09T09:15:46Z</time>
      </trkpt>
      <trkpt lat="49.40599" lon="5.77428">
        <ele>327.20001220703</ele>
        <time>2024-06-09T09:15:48Z</time>
      </trkpt>
      <trkpt lat="49.4059" lon="5.77438">
        <ele>327.20001220703</ele>
        <time>2024-06-09T09:15:50Z</time>
      </trkpt>
      <trkpt lat="49.4058" lon="5.77447">
        <ele>327.20001220703</ele>
        <time>2024-06-09T09:15:52Z</time>
      </trkpt>
      <trkpt lat="49.40571" lon="5.77457">
        <ele>327.20001220703</ele>
        <time>2024-06-09T09:15:54Z</time>
      </trkpt>
      <trkpt lat="49.40561" lon="5.77467">
        <ele>327.20001220703</ele>
        <time>2024-06-09T09:15:56Z</time>
      </trkpt>
      <trkpt lat="49.40551" lon="5.77477">
        <ele>327.20001220703</ele>
        <time>2024-06-09T09:15:58Z</time>
      </trkpt>
      <trkpt lat="49.40546" lon="5.77483">
        <ele>327.20001220703</ele>
        <time>2024-06-09T09:15:59Z</time>
      </trkpt>
      <trkpt lat="49.4054" lon="5.77488">
        <ele>327.20001220703</ele>
        <time>2024-06-09T09:16:00Z</time>
      </trkpt>
      <trkpt lat="49.40529" lon="5.775">
        <ele>327.20001220703</ele>
        <time>2024-06-09T09:16:02Z</time>
      </trkpt>
      <trkpt lat="49.40517" lon="5.77511">
        <ele>327</ele>
        <time>2024-06-09T09:16:04Z</time>
      </trkpt>
      <trkpt lat="49.40505" lon="5.77524">
        <ele>327</ele>
        <time>2024-06-09T09:16:06Z</time>
      </trkpt>
      <trkpt lat="49.40492" lon="5.77537">
        <ele>326.79998779297</ele>
        <time>2024-06-09T09:16:08Z</time>
      </trkpt>
      <trkpt lat="49.40478" lon="5.7755">
        <ele>326.39999389648</ele>
        <time>2024-06-09T09:16:10Z</time>
      </trkpt>
      <trkpt lat="49.40472" lon="5.77557">
        <ele>326.20001220703</ele>
        <time>2024-06-09T09:16:11Z</time>
      </trkpt>
      <trkpt lat="49.40465" lon="5.77564">
        <ele>325.60000610352</ele>
        <time>2024-06-09T09:16:12Z</time>
      </trkpt>
      <trkpt lat="49.40452" lon="5.77577">
        <ele>325.20001220703</ele>
        <time>2024-06-09T09:16:14Z</time>
      </trkpt>
      <trkpt lat="49.40446" lon="5.77584">
        <ele>324.60000610352</ele>
        <time>2024-06-09T09:16:15Z</time>
      </trkpt>
      <trkpt lat="49.4044" lon="5.7759">
        <ele>324</ele>
        <time>2024-06-09T09:16:16Z</time>
      </trkpt>
      <trkpt lat="49.40434" lon="5.77597">
        <ele>323.39999389648</ele>
        <time>2024-06-09T09:16:17Z</time>
      </trkpt>
      <trkpt lat="49.40427" lon="5.77603">
        <ele>322.79998779297</ele>
        <time>2024-06-09T09:16:18Z</time>
      </trkpt>
      <trkpt lat="49.40416" lon="5.77616">
        <ele>322</ele>
        <time>2024-06-09T09:16:20Z</time>
      </trkpt>
      <trkpt lat="49.40404" lon="5.77627">
        <ele>321.60000610352</ele>
        <time>2024-06-09T09:16:22Z</time>
      </trkpt>
      <trkpt lat="49.40393" lon="5.77638">
        <ele>321</ele>
        <time>2024-06-09T09:16:24Z</time>
      </trkpt>
      <trkpt lat="49.40388" lon="5.77643">
        <ele>321</ele>
        <time>2024-06-09T09:16:25Z</time>
      </trkpt>
      <trkpt lat="49.40382" lon="5.77648">
        <ele>320.79998779297</ele>
        <time>2024-06-09T09:16:26Z</time>
      </trkpt>
      <trkpt lat="49.40368" lon="5.77649">
        <ele>320.60000610352</ele>
        <time>2024-06-09T09:16:28Z</time>
      </trkpt>
      <trkpt lat="49.40354" lon="5.77641">
        <ele>320.60000610352</ele>
        <time>2024-06-09T09:16:30Z</time>
      </trkpt>
      <trkpt lat="49.40347" lon="5.77636">
        <ele>320.60000610352</ele>
        <time>2024-06-09T09:16:31Z</time>
      </trkpt>
      <trkpt lat="49.40339" lon="5.77632">
        <ele>320.39999389648</ele>
        <time>2024-06-09T09:16:32Z</time>
      </trkpt>
      <trkpt lat="49.40324" lon="5.77622">
        <ele>320.39999389648</ele>
        <time>2024-06-09T09:16:34Z</time>
      </trkpt>
      <trkpt lat="49.40308" lon="5.77614">
        <ele>320</ele>
        <time>2024-06-09T09:16:36Z</time>
      </trkpt>
      <trkpt lat="49.403" lon="5.77609">
        <ele>319.79998779297</ele>
        <time>2024-06-09T09:16:37Z</time>
      </trkpt>
      <trkpt lat="49.40292" lon="5.77605">
        <ele>319.20001220703</ele>
        <time>2024-06-09T09:16:38Z</time>
      </trkpt>
      <trkpt lat="49.40284" lon="5.776">
        <ele>318.60000610352</ele>
        <time>2024-06-09T09:16:39Z</time>
      </trkpt>
      <trkpt lat="49.40276" lon="5.77596">
        <ele>317.79998779297</ele>
        <time>2024-06-09T09:16:40Z</time>
      </trkpt>
      <trkpt lat="49.40269" lon="5.77591">
        <ele>316.79998779297</ele>
        <time>2024-06-09T09:16:41Z</time>
      </trkpt>
      <trkpt lat="49.40261" lon="5.77587">
        <ele>315.79998779297</ele>
        <time>2024-06-09T09:16:42Z</time>
      </trkpt>
      <trkpt lat="49.40253" lon="5.77583">
        <ele>315.20001220703</ele>
        <time>2024-06-09T09:16:43Z</time>
      </trkpt>
      <trkpt lat="49.40245" lon="5.77578">
        <ele>314.60000610352</ele>
        <time>2024-06-09T09:16:44Z</time>
      </trkpt>
      <trkpt lat="49.4023" lon="5.77568">
        <ele>313.79998779297</ele>
        <time>2024-06-09T09:16:46Z</time>
      </trkpt>
      <trkpt lat="49.40223" lon="5.77564">
        <ele>313.39999389648</ele>
        <time>2024-06-09T09:16:47Z</time>
      </trkpt>
      <trkpt lat="49.40215" lon="5.7756">
        <ele>312.79998779297</ele>
        <time>2024-06-09T09:16:48Z</time>
      </trkpt>
      <trkpt lat="49.402" lon="5.77557">
        <ele>312.20001220703</ele>
        <time>2024-06-09T09:16:50Z</time>
      </trkpt>
      <trkpt lat="49.40192" lon="5.77557">
        <ele>311.60000610352</ele>
        <time>2024-06-09T09:16:51Z</time>
      </trkpt>
      <trkpt lat="49.40185" lon="5.77558">
        <ele>311.39999389648</ele>
        <time>2024-06-09T09:16:52Z</time>
      </trkpt>
      <trkpt lat="49.4017" lon="5.77559">
        <ele>311</ele>
        <time>2024-06-09T09:16:54Z</time>
      </trkpt>
      <trkpt lat="49.40156" lon="5.77561">
        <ele>310.60000610352</ele>
        <time>2024-06-09T09:16:56Z</time>
      </trkpt>
      <trkpt lat="49.40149" lon="5.77562">
        <ele>310.39999389648</ele>
        <time>2024-06-09T09:16:57Z</time>
      </trkpt>
      <trkpt lat="49.40142" lon="5.77563">
        <ele>310.20001220703</ele>
        <time>2024-06-09T09:16:58Z</time>
      </trkpt>
      <trkpt lat="49.40128" lon="5.77563">
        <ele>309.79998779297</ele>
        <time>2024-06-09T09:17:00Z</time>
      </trkpt>
      <trkpt lat="49.40114" lon="5.77564">
        <ele>309.20001220703</ele>
        <time>2024-06-09T09:17:02Z</time>
      </trkpt>
      <trkpt lat="49.40101" lon="5.77565">
        <ele>308.79998779297</ele>
        <time>2024-06-09T09:17:04Z</time>
      </trkpt>
      <trkpt lat="49.40088" lon="5.77567">
        <ele>308.20001220703</ele>
        <time>2024-06-09T09:17:06Z</time>
      </trkpt>
      <trkpt lat="49.40082" lon="5.77569">
        <ele>308.20001220703</ele>
        <time>2024-06-09T09:17:07Z</time>
      </trkpt>
      <trkpt lat="49.40077" lon="5.77571">
        <ele>308</ele>
        <time>2024-06-09T09:17:08Z</time>
      </trkpt>
      <trkpt lat="49.40065" lon="5.77576">
        <ele>307.79998779297</ele>
        <time>2024-06-09T09:17:10Z</time>
      </trkpt>
      <trkpt lat="49.40053" lon="5.77576">
        <ele>307.60000610352</ele>
        <time>2024-06-09T09:17:12Z</time>
      </trkpt>
      <trkpt lat="49.40047" lon="5.77575">
        <ele>307.39999389648</ele>
        <time>2024-06-09T09:17:13Z</time>
      </trkpt>
      <trkpt lat="49.4004" lon="5.77575">
        <ele>307.20001220703</ele>
        <time>2024-06-09T09:17:14Z</time>
      </trkpt>
      <trkpt lat="49.40034" lon="5.77576">
        <ele>307</ele>
        <time>2024-06-09T09:17:15Z</time>
      </trkpt>
      <trkpt lat="49.40027" lon="5.77577">
        <ele>307</ele>
        <time>2024-06-09T09:17:16Z</time>
      </trkpt>
      <trkpt lat="49.40013" lon="5.77577">
        <ele>306.39999389648</ele>
        <time>2024-06-09T09:17:18Z</time>
      </trkpt>
      <trkpt lat="49.40006" lon="5.77577">
        <ele>305.79998779297</ele>
        <time>2024-06-09T09:17:19Z</time>
      </trkpt>
      <trkpt lat="49.39999" lon="5.77577">
        <ele>305.60000610352</ele>
        <time>2024-06-09T09:17:20Z</time>
      </trkpt>
      <trkpt lat="49.39988" lon="5.77585">
        <ele>305</ele>
        <time>2024-06-09T09:17:22Z</time>
      </trkpt>
      <trkpt lat="49.39984" lon="5.7759">
        <ele>304.20001220703</ele>
        <time>2024-06-09T09:17:23Z</time>
      </trkpt>
      <trkpt lat="49.39984" lon="5.77598">
        <ele>303.39999389648</ele>
        <time>2024-06-09T09:17:24Z</time>
      </trkpt>
      <trkpt lat="49.39984" lon="5.77606">
        <ele>302.79998779297</ele>
        <time>2024-06-09T09:17:25Z</time>
      </trkpt>
      <trkpt lat="49.39984" lon="5.77614">
        <ele>302.20001220703</ele>
        <time>2024-06-09T09:17:26Z</time>
      </trkpt>
      <trkpt lat="49.39985" lon="5.77623">
        <ele>301.20001220703</ele>
        <time>2024-06-09T09:17:27Z</time>
      </trkpt>
      <trkpt lat="49.39984" lon="5.77633">
        <ele>300</ele>
        <time>2024-06-09T09:17:28Z</time>
      </trkpt>
      <trkpt lat="49.39984" lon="5.77652">
        <ele>299</ele>
        <time>2024-06-09T09:17:30Z</time>
      </trkpt>
      <trkpt lat="49.39983" lon="5.77661">
        <ele>298.79998779297</ele>
        <time>2024-06-09T09:17:31Z</time>
      </trkpt>
      <trkpt lat="49.39982" lon="5.77671">
        <ele>298.39999389648</ele>
        <time>2024-06-09T09:17:32Z</time>
      </trkpt>
      <trkpt lat="49.39981" lon="5.77691">
        <ele>297.39999389648</ele>
        <time>2024-06-09T09:17:34Z</time>
      </trkpt>
      <trkpt lat="49.39981" lon="5.77713">
        <ele>296.39999389648</ele>
        <time>2024-06-09T09:17:36Z</time>
      </trkpt>
      <trkpt lat="49.3998" lon="5.77736">
        <ele>295.39999389648</ele>
        <time>2024-06-09T09:17:38Z</time>
      </trkpt>
      <trkpt lat="49.3998" lon="5.77761">
        <ele>294.79998779297</ele>
        <time>2024-06-09T09:17:40Z</time>
      </trkpt>
      <trkpt lat="49.39978" lon="5.77787">
        <ele>294.39999389648</ele>
        <time>2024-06-09T09:17:42Z</time>
      </trkpt>
      <trkpt lat="49.39978" lon="5.778">
        <ele>294.39999389648</ele>
        <time>2024-06-09T09:17:43Z</time>
      </trkpt>
      <trkpt lat="49.39977" lon="5.77813">
        <ele>294.20001220703</ele>
        <time>2024-06-09T09:17:44Z</time>
      </trkpt>
      <trkpt lat="49.39976" lon="5.77826">
        <ele>294.20001220703</ele>
        <time>2024-06-09T09:17:45Z</time>
      </trkpt>
      <trkpt lat="49.39974" lon="5.77838">
        <ele>294</ele>
        <time>2024-06-09T09:17:46Z</time>
      </trkpt>
      <trkpt lat="49.39973" lon="5.77862">
        <ele>293.20001220703</ele>
        <time>2024-06-09T09:17:48Z</time>
      </trkpt>
      <trkpt lat="49.39971" lon="5.77885">
        <ele>292.20001220703</ele>
        <time>2024-06-09T09:17:50Z</time>
      </trkpt>
      <trkpt lat="49.39971" lon="5.77896">
        <ele>291.60000610352</ele>
        <time>2024-06-09T09:17:51Z</time>
      </trkpt>
      <trkpt lat="49.3997" lon="5.77907">
        <ele>291</ele>
        <time>2024-06-09T09:17:52Z</time>
      </trkpt>
      <trkpt lat="49.3997" lon="5.77928">
        <ele>290.60000610352</ele>
        <time>2024-06-09T09:17:54Z</time>
      </trkpt>
      <trkpt lat="49.39969" lon="5.77938">
        <ele>290.60000610352</ele>
        <time>2024-06-09T09:17:55Z</time>
      </trkpt>
      <trkpt lat="49.39968" lon="5.77948">
        <ele>290.60000610352</ele>
        <time>2024-06-09T09:17:56Z</time>
      </trkpt>
      <trkpt lat="49.39965" lon="5.77968">
        <ele>290.39999389648</ele>
        <time>2024-06-09T09:17:58Z</time>
      </trkpt>
      <trkpt lat="49.39963" lon="5.77989">
        <ele>290.39999389648</ele>
        <time>2024-06-09T09:18:00Z</time>
      </trkpt>
      <trkpt lat="49.39962" lon="5.77999">
        <ele>290.39999389648</ele>
        <time>2024-06-09T09:18:01Z</time>
      </trkpt>
      <trkpt lat="49.39961" lon="5.78008">
        <ele>290.20001220703</ele>
        <time>2024-06-09T09:18:02Z</time>
      </trkpt>
      <trkpt lat="49.39964" lon="5.78023">
        <ele>290.39999389648</ele>
        <time>2024-06-09T09:18:04Z</time>
      </trkpt>
      <trkpt lat="49.39967" lon="5.78035">
        <ele>290.39999389648</ele>
        <time>2024-06-09T09:18:06Z</time>
      </trkpt>
      <trkpt lat="49.39972" lon="5.78046">
        <ele>290.39999389648</ele>
        <time>2024-06-09T09:18:08Z</time>
      </trkpt>
      <trkpt lat="49.39975" lon="5.78051">
        <ele>290.39999389648</ele>
        <time>2024-06-09T09:18:09Z</time>
      </trkpt>
      <trkpt lat="49.39977" lon="5.78054">
        <ele>290.60000610352</ele>
        <time>2024-06-09T09:18:10Z</time>
      </trkpt>
      <trkpt lat="49.39983" lon="5.7806">
        <ele>290.60000610352</ele>
        <time>2024-06-09T09:18:12Z</time>
      </trkpt>
      <trkpt lat="49.39992" lon="5.78066">
        <ele>290.39999389648</ele>
        <time>2024-06-09T09:18:14Z</time>
      </trkpt>
      <trkpt lat="49.40004" lon="5.78074">
        <ele>290.39999389648</ele>
        <time>2024-06-09T09:18:16Z</time>
      </trkpt>
      <trkpt lat="49.40019" lon="5.78082">
        <ele>290.20001220703</ele>
        <time>2024-06-09T09:18:18Z</time>
      </trkpt>
      <trkpt lat="49.40027" lon="5.78085">
        <ele>290.20001220703</ele>
        <time>2024-06-09T09:18:19Z</time>
      </trkpt>
      <trkpt lat="49.40035" lon="5.78086">
        <ele>290</ele>
        <time>2024-06-09T09:18:20Z</time>
      </trkpt>
      <trkpt lat="49.40041" lon="5.78087">
        <ele>289.39999389648</ele>
        <time>2024-06-09T09:18:21Z</time>
      </trkpt>
      <trkpt lat="49.40047" lon="5.78088">
        <ele>288.39999389648</ele>
        <time>2024-06-09T09:18:22Z</time>
      </trkpt>
      <trkpt lat="49.40052" lon="5.78088">
        <ele>288</ele>
        <time>2024-06-09T09:18:23Z</time>
      </trkpt>
      <trkpt lat="49.40056" lon="5.78089">
        <ele>287.79998779297</ele>
        <time>2024-06-09T09:18:24Z</time>
      </trkpt>
      <trkpt lat="49.40065" lon="5.78091">
        <ele>287.60000610352</ele>
        <time>2024-06-09T09:18:26Z</time>
      </trkpt>
      <trkpt lat="49.40069" lon="5.78094">
        <ele>287.39999389648</ele>
        <time>2024-06-09T09:18:27Z</time>
      </trkpt>
      <trkpt lat="49.40073" lon="5.78096">
        <ele>287.39999389648</ele>
        <time>2024-06-09T09:18:28Z</time>
      </trkpt>
      <trkpt lat="49.40081" lon="5.78101">
        <ele>287.39999389648</ele>
        <time>2024-06-09T09:18:30Z</time>
      </trkpt>
      <trkpt lat="49.40089" lon="5.78107">
        <ele>288</ele>
        <time>2024-06-09T09:18:32Z</time>
      </trkpt>
      <trkpt lat="49.40094" lon="5.7811">
        <ele>288.39999389648</ele>
        <time>2024-06-09T09:18:33Z</time>
      </trkpt>
      <trkpt lat="49.40099" lon="5.78113">
        <ele>288.79998779297</ele>
        <time>2024-06-09T09:18:34Z</time>
      </trkpt>
      <trkpt lat="49.40104" lon="5.78116">
        <ele>289</ele>
        <time>2024-06-09T09:18:35Z</time>
      </trkpt>
      <trkpt lat="49.40109" lon="5.78118">
        <ele>289</ele>
        <time>2024-06-09T09:18:36Z</time>
      </trkpt>
      <trkpt lat="49.40117" lon="5.7812">
        <ele>289.20001220703</ele>
        <time>2024-06-09T09:18:38Z</time>
      </trkpt>
      <trkpt lat="49.40121" lon="5.7812">
        <ele>289.20001220703</ele>
        <time>2024-06-09T09:18:39Z</time>
      </trkpt>
      <trkpt lat="49.40124" lon="5.78121">
        <ele>289.39999389648</ele>
        <time>2024-06-09T09:18:40Z</time>
      </trkpt>
      <trkpt lat="49.40131" lon="5.78123">
        <ele>289.60000610352</ele>
        <time>2024-06-09T09:18:42Z</time>
      </trkpt>
      <trkpt lat="49.40137" lon="5.78125">
        <ele>290</ele>
        <time>2024-06-09T09:18:44Z</time>
      </trkpt>
      <trkpt lat="49.40141" lon="5.78128">
        <ele>290</ele>
        <time>2024-06-09T09:18:46Z</time>
      </trkpt>
      <trkpt lat="49.40146" lon="5.78131">
        <ele>290.39999389648</ele>
        <time>2024-06-09T09:18:48Z</time>
      </trkpt>
      <trkpt lat="49.4015" lon="5.78134">
        <ele>291</ele>
        <time>2024-06-09T09:18:50Z</time>
      </trkpt>
      <trkpt lat="49.40153" lon="5.78135">
        <ele>291.39999389648</ele>
        <time>2024-06-09T09:18:51Z</time>
      </trkpt>
      <trkpt lat="49.40155" lon="5.78137">
        <ele>291.79998779297</ele>
        <time>2024-06-09T09:18:52Z</time>
      </trkpt>
      <trkpt lat="49.40159" lon="5.78141">
        <ele>292.39999389648</ele>
        <time>2024-06-09T09:18:54Z</time>
      </trkpt>
      <trkpt lat="49.40163" lon="5.78145">
        <ele>292.79998779297</ele>
        <time>2024-06-09T09:18:56Z</time>
      </trkpt>
      <trkpt lat="49.40167" lon="5.78148">
        <ele>292.79998779297</ele>
        <time>2024-06-09T09:18:58Z</time>
      </trkpt>
      <trkpt lat="49.40173" lon="5.78152">
        <ele>292.79998779297</ele>
        <time>2024-06-09T09:19:00Z</time>
      </trkpt>
      <trkpt lat="49.40178" lon="5.78156">
        <ele>292.79998779297</ele>
        <time>2024-06-09T09:19:02Z</time>
      </trkpt>
      <trkpt lat="49.40185" lon="5.78162">
        <ele>292.79998779297</ele>
        <time>2024-06-09T09:19:04Z</time>
      </trkpt>
      <trkpt lat="49.40191" lon="5.78167">
        <ele>292.79998779297</ele>
        <time>2024-06-09T09:19:06Z</time>
      </trkpt>
      <trkpt lat="49.40195" lon="5.78169">
        <ele>292.79998779297</ele>
        <time>2024-06-09T09:19:07Z</time>
      </trkpt>
      <trkpt lat="49.40198" lon="5.78171">
        <ele>292.60000610352</ele>
        <time>2024-06-09T09:19:08Z</time>
      </trkpt>
      <trkpt lat="49.40204" lon="5.78175">
        <ele>292.60000610352</ele>
        <time>2024-06-09T09:19:10Z</time>
      </trkpt>
      <trkpt lat="49.40211" lon="5.78178">
        <ele>292.60000610352</ele>
        <time>2024-06-09T09:19:12Z</time>
      </trkpt>
      <trkpt lat="49.40219" lon="5.78182">
        <ele>292.60000610352</ele>
        <time>2024-06-09T09:19:14Z</time>
      </trkpt>
      <trkpt lat="49.40225" lon="5.78185">
        <ele>292.60000610352</ele>
        <time>2024-06-09T09:19:16Z</time>
      </trkpt>
      <trkpt lat="49.40232" lon="5.78187">
        <ele>292.60000610352</ele>
        <time>2024-06-09T09:19:18Z</time>
      </trkpt>
      <trkpt lat="49.40237" lon="5.78189">
        <ele>292.60000610352</ele>
        <time>2024-06-09T09:19:20Z</time>
      </trkpt>
      <trkpt lat="49.40242" lon="5.78192">
        <ele>292.79998779297</ele>
        <time>2024-06-09T09:19:22Z</time>
      </trkpt>
      <trkpt lat="49.40247" lon="5.78195">
        <ele>293</ele>
        <time>2024-06-09T09:19:24Z</time>
      </trkpt>
      <trkpt lat="49.40254" lon="5.78195">
        <ele>293.39999389648</ele>
        <time>2024-06-09T09:19:26Z</time>
      </trkpt>
      <trkpt lat="49.40259" lon="5.78197">
        <ele>293.79998779297</ele>
        <time>2024-06-09T09:19:28Z</time>
      </trkpt>
      <trkpt lat="49.4026" lon="5.78198">
        <ele>294</ele>
        <time>2024-06-09T09:19:29Z</time>
      </trkpt>
      <trkpt lat="49.40262" lon="5.78199">
        <ele>294</ele>
        <time>2024-06-09T09:19:30Z</time>
      </trkpt>
      <trkpt lat="49.40266" lon="5.78202">
        <ele>294.20001220703</ele>
        <time>2024-06-09T09:19:32Z</time>
      </trkpt>
      <trkpt lat="49.40268" lon="5.78204">
        <ele>294.20001220703</ele>
        <time>2024-06-09T09:19:33Z</time>
      </trkpt>
      <trkpt lat="49.4027" lon="5.78205">
        <ele>294.39999389648</ele>
        <time>2024-06-09T09:19:34Z</time>
      </trkpt>
      <trkpt lat="49.40272" lon="5.78206">
        <ele>294.39999389648</ele>
        <time>2024-06-09T09:19:35Z</time>
      </trkpt>
      <trkpt lat="49.40275" lon="5.78208">
        <ele>294.60000610352</ele>
        <time>2024-06-09T09:19:36Z</time>
      </trkpt>
      <trkpt lat="49.40281" lon="5.78213">
        <ele>294.60000610352</ele>
        <time>2024-06-09T09:19:38Z</time>
      </trkpt>
      <trkpt lat="49.40289" lon="5.78219">
        <ele>294.60000610352</ele>
        <time>2024-06-09T09:19:40Z</time>
      </trkpt>
      <trkpt lat="49.40294" lon="5.78222">
        <ele>294.60000610352</ele>
        <time>2024-06-09T09:19:41Z</time>
      </trkpt>
      <trkpt lat="49.403" lon="5.78224">
        <ele>294.60000610352</ele>
        <time>2024-06-09T09:19:42Z</time>
      </trkpt>
      <trkpt lat="49.40312" lon="5.78225">
        <ele>294.60000610352</ele>
        <time>2024-06-09T09:19:44Z</time>
      </trkpt>
      <trkpt lat="49.40322" lon="5.78226">
        <ele>294.20001220703</ele>
        <time>2024-06-09T09:19:46Z</time>
      </trkpt>
      <trkpt lat="49.4033" lon="5.78226">
        <ele>293.20001220703</ele>
        <time>2024-06-09T09:19:48Z</time>
      </trkpt>
      <trkpt lat="49.40339" lon="5.78227">
        <ele>293</ele>
        <time>2024-06-09T09:19:50Z</time>
      </trkpt>
      <trkpt lat="49.40342" lon="5.78227">
        <ele>292.79998779297</ele>
        <time>2024-06-09T09:19:51Z</time>
      </trkpt>
      <trkpt lat="49.40345" lon="5.78227">
        <ele>292.79998779297</ele>
        <time>2024-06-09T09:19:52Z</time>
      </trkpt>
      <trkpt lat="49.40351" lon="5.78225">
        <ele>292.79998779297</ele>
        <time>2024-06-09T09:19:54Z</time>
      </trkpt>
      <trkpt lat="49.40358" lon="5.78224">
        <ele>292.79998779297</ele>
        <time>2024-06-09T09:19:56Z</time>
      </trkpt>
      <trkpt lat="49.40365" lon="5.78223">
        <ele>293</ele>
        <time>2024-06-09T09:19:58Z</time>
      </trkpt>
      <trkpt lat="49.40372" lon="5.78221">
        <ele>293.39999389648</ele>
        <time>2024-06-09T09:20:00Z</time>
      </trkpt>
      <trkpt lat="49.40379" lon="5.78219">
        <ele>293.60000610352</ele>
        <time>2024-06-09T09:20:02Z</time>
      </trkpt>
      <trkpt lat="49.40387" lon="5.78216">
        <ele>293.60000610352</ele>
        <time>2024-06-09T09:20:04Z</time>
      </trkpt>
      <trkpt lat="49.40395" lon="5.78212">
        <ele>293.60000610352</ele>
        <time>2024-06-09T09:20:06Z</time>
      </trkpt>
      <trkpt lat="49.40403" lon="5.78208">
        <ele>293.60000610352</ele>
        <time>2024-06-09T09:20:08Z</time>
      </trkpt>
      <trkpt lat="49.40411" lon="5.78205">
        <ele>293.39999389648</ele>
        <time>2024-06-09T09:20:10Z</time>
      </trkpt>
      <trkpt lat="49.40415" lon="5.78205">
        <ele>293.39999389648</ele>
        <time>2024-06-09T09:20:11Z</time>
      </trkpt>
      <trkpt lat="49.4042" lon="5.78206">
        <ele>293.20001220703</ele>
        <time>2024-06-09T09:20:12Z</time>
      </trkpt>
      <trkpt lat="49.40429" lon="5.7821">
        <ele>293.20001220703</ele>
        <time>2024-06-09T09:20:14Z</time>
      </trkpt>
      <trkpt lat="49.40437" lon="5.78208">
        <ele>293</ele>
        <time>2024-06-09T09:20:16Z</time>
      </trkpt>
      <trkpt lat="49.40445" lon="5.78205">
        <ele>293</ele>
        <time>2024-06-09T09:20:18Z</time>
      </trkpt>
      <trkpt lat="49.40449" lon="5.78204">
        <ele>293</ele>
        <time>2024-06-09T09:20:19Z</time>
      </trkpt>
      <trkpt lat="49.40452" lon="5.78203">
        <ele>293</ele>
        <time>2024-06-09T09:20:20Z</time>
      </trkpt>
      <trkpt lat="49.40459" lon="5.78201">
        <ele>293</ele>
        <time>2024-06-09T09:20:22Z</time>
      </trkpt>
      <trkpt lat="49.40465" lon="5.782">
        <ele>293</ele>
        <time>2024-06-09T09:20:24Z</time>
      </trkpt>
      <trkpt lat="49.4047" lon="5.78198">
        <ele>293.20001220703</ele>
        <time>2024-06-09T09:20:26Z</time>
      </trkpt>
      <trkpt lat="49.40473" lon="5.78198">
        <ele>293.20001220703</ele>
        <time>2024-06-09T09:20:27Z</time>
      </trkpt>
      <trkpt lat="49.40476" lon="5.78197">
        <ele>293.20001220703</ele>
        <time>2024-06-09T09:20:28Z</time>
      </trkpt>
      <trkpt lat="49.40481" lon="5.78196">
        <ele>293.60000610352</ele>
        <time>2024-06-09T09:20:30Z</time>
      </trkpt>
      <trkpt lat="49.40486" lon="5.78194">
        <ele>294</ele>
        <time>2024-06-09T09:20:32Z</time>
      </trkpt>
      <trkpt lat="49.40491" lon="5.78192">
        <ele>294.39999389648</ele>
        <time>2024-06-09T09:20:34Z</time>
      </trkpt>
      <trkpt lat="49.40494" lon="5.78192">
        <ele>294.60000610352</ele>
        <time>2024-06-09T09:20:35Z</time>
      </trkpt>
      <trkpt lat="49.40496" lon="5.78191">
        <ele>295</ele>
        <time>2024-06-09T09:20:36Z</time>
      </trkpt>
      <trkpt lat="49.40499" lon="5.7819">
        <ele>295.39999389648</ele>
        <time>2024-06-09T09:20:37Z</time>
      </trkpt>
      <trkpt lat="49.40501" lon="5.7819">
        <ele>295.79998779297</ele>
        <time>2024-06-09T09:20:38Z</time>
      </trkpt>
      <trkpt lat="49.40507" lon="5.78189">
        <ele>296.20001220703</ele>
        <time>2024-06-09T09:20:40Z</time>
      </trkpt>
      <trkpt lat="49.40509" lon="5.78188">
        <ele>296.39999389648</ele>
        <time>2024-06-09T09:20:41Z</time>
      </trkpt>
      <trkpt lat="49.40512" lon="5.78187">
        <ele>296.60000610352</ele>
        <time>2024-06-09T09:20:42Z</time>
      </trkpt>
      <trkpt lat="49.40517" lon="5.78186">
        <ele>297</ele>
        <time>2024-06-09T09:20:44Z</time>
      </trkpt>
      <trkpt lat="49.40522" lon="5.78184">
        <ele>297.20001220703</ele>
        <time>2024-06-09T09:20:46Z</time>
      </trkpt>
      <trkpt lat="49.40527" lon="5.78182">
        <ele>297.60000610352</ele>
        <time>2024-06-09T09:20:48Z</time>
      </trkpt>
      <trkpt lat="49.40531" lon="5.78181">
        <ele>298</ele>
        <time>2024-06-09T09:20:50Z</time>
      </trkpt>
      <trkpt lat="49.40536" lon="5.78179">
        <ele>298.39999389648</ele>
        <time>2024-06-09T09:20:52Z</time>
      </trkpt>
      <trkpt lat="49.40541" lon="5.78177">
        <ele>298.39999389648</ele>
        <time>2024-06-09T09:20:54Z</time>
      </trkpt>
      <trkpt lat="49.40547" lon="5.78175">
        <ele>298.79998779297</ele>
        <time>2024-06-09T09:20:56Z</time>
      </trkpt>
      <trkpt lat="49.40551" lon="5.78174">
        <ele>299</ele>
        <time>2024-06-09T09:20:58Z</time>
      </trkpt>
      <trkpt lat="49.40554" lon="5.78173">
        <ele>299.20001220703</ele>
        <time>2024-06-09T09:20:59Z</time>
      </trkpt>
      <trkpt lat="49.40557" lon="5.78172">
        <ele>299.20001220703</ele>
        <time>2024-06-09T09:21:00Z</time>
      </trkpt>
      <trkpt lat="49.40562" lon="5.78171">
        <ele>299.60000610352</ele>
        <time>2024-06-09T09:21:02Z</time>
      </trkpt>
      <trkpt lat="49.40565" lon="5.7817">
        <ele>300</ele>
        <time>2024-06-09T09:21:03Z</time>
      </trkpt>
      <trkpt lat="49.40568" lon="5.7817">
        <ele>300.20001220703</ele>
        <time>2024-06-09T09:21:04Z</time>
      </trkpt>
      <trkpt lat="49.40573" lon="5.78169">
        <ele>300.60000610352</ele>
        <time>2024-06-09T09:21:06Z</time>
      </trkpt>
      <trkpt lat="49.40578" lon="5.7817">
        <ele>300.79998779297</ele>
        <time>2024-06-09T09:21:08Z</time>
      </trkpt>
      <trkpt lat="49.40582" lon="5.78172">
        <ele>301</ele>
        <time>2024-06-09T09:21:10Z</time>
      </trkpt>
      <trkpt lat="49.40582" lon="5.78175">
        <ele>301.20001220703</ele>
        <time>2024-06-09T09:21:11Z</time>
      </trkpt>
      <trkpt lat="49.40581" lon="5.78177">
        <ele>301.39999389648</ele>
        <time>2024-06-09T09:21:12Z</time>
      </trkpt>
      <trkpt lat="49.40579" lon="5.78182">
        <ele>301.39999389648</ele>
        <time>2024-06-09T09:21:14Z</time>
      </trkpt>
      <trkpt lat="49.40577" lon="5.78187">
        <ele>301.60000610352</ele>
        <time>2024-06-09T09:21:16Z</time>
      </trkpt>
      <trkpt lat="49.40575" lon="5.78192">
        <ele>302</ele>
        <time>2024-06-09T09:21:18Z</time>
      </trkpt>
      <trkpt lat="49.40575" lon="5.78196">
        <ele>302.20001220703</ele>
        <time>2024-06-09T09:21:20Z</time>
      </trkpt>
      <trkpt lat="49.40575" lon="5.78197">
        <ele>302.20001220703</ele>
        <time>2024-06-09T09:21:21Z</time>
      </trkpt>
      <trkpt lat="49.40574" lon="5.78199">
        <ele>302.39999389648</ele>
        <time>2024-06-09T09:21:22Z</time>
      </trkpt>
      <trkpt lat="49.40574" lon="5.78203">
        <ele>302.60000610352</ele>
        <time>2024-06-09T09:21:24Z</time>
      </trkpt>
      <trkpt lat="49.40573" lon="5.78207">
        <ele>303</ele>
        <time>2024-06-09T09:21:26Z</time>
      </trkpt>
      <trkpt lat="49.40573" lon="5.78209">
        <ele>303.20001220703</ele>
        <time>2024-06-09T09:21:27Z</time>
      </trkpt>
      <trkpt lat="49.40573" lon="5.7821">
        <ele>303.39999389648</ele>
        <time>2024-06-09T09:21:28Z</time>
      </trkpt>
      <trkpt lat="49.40571" lon="5.78213">
        <ele>304</ele>
        <time>2024-06-09T09:21:30Z</time>
      </trkpt>
      <trkpt lat="49.4057" lon="5.78215">
        <ele>304.39999389648</ele>
        <time>2024-06-09T09:21:32Z</time>
      </trkpt>
      <trkpt lat="49.40569" lon="5.78217">
        <ele>305</ele>
        <time>2024-06-09T09:21:34Z</time>
      </trkpt>
      <trkpt lat="49.40568" lon="5.78218">
        <ele>305.60000610352</ele>
        <time>2024-06-09T09:21:35Z</time>
      </trkpt>
      <trkpt lat="49.40568" lon="5.78219">
        <ele>306</ele>
        <time>2024-06-09T09:21:36Z</time>
      </trkpt>
      <trkpt lat="49.40567" lon="5.78222">
        <ele>306.60000610352</ele>
        <time>2024-06-09T09:21:38Z</time>
      </trkpt>
      <trkpt lat="49.40566" lon="5.78225">
        <ele>307.20001220703</ele>
        <time>2024-06-09T09:21:40Z</time>
      </trkpt>
      <trkpt lat="49.40564" lon="5.78228">
        <ele>308</ele>
        <time>2024-06-09T09:21:42Z</time>
      </trkpt>
      <trkpt lat="49.40562" lon="5.7823">
        <ele>308.60000610352</ele>
        <time>2024-06-09T09:21:44Z</time>
      </trkpt>
      <trkpt lat="49.4056" lon="5.78231">
        <ele>309</ele>
        <time>2024-06-09T09:21:45Z</time>
      </trkpt>
      <trkpt lat="49.40558" lon="5.78233">
        <ele>309</ele>
        <time>2024-06-09T09:21:46Z</time>
      </trkpt>
      <trkpt lat="49.40554" lon="5.78238">
        <ele>309.20001220703</ele>
        <time>2024-06-09T09:21:48Z</time>
      </trkpt>
      <trkpt lat="49.40548" lon="5.78243">
        <ele>309.20001220703</ele>
        <time>2024-06-09T09:21:50Z</time>
      </trkpt>
      <trkpt lat="49.40543" lon="5.78247">
        <ele>309.20001220703</ele>
        <time>2024-06-09T09:21:52Z</time>
      </trkpt>
      <trkpt lat="49.4054" lon="5.78249">
        <ele>309.20001220703</ele>
        <time>2024-06-09T09:21:53Z</time>
      </trkpt>
      <trkpt lat="49.40538" lon="5.78251">
        <ele>309.39999389648</ele>
        <time>2024-06-09T09:21:54Z</time>
      </trkpt>
      <trkpt lat="49.40533" lon="5.78253">
        <ele>309.39999389648</ele>
        <time>2024-06-09T09:21:56Z</time>
      </trkpt>
      <trkpt lat="49.4053" lon="5.78255">
        <ele>309.60000610352</ele>
        <time>2024-06-09T09:21:58Z</time>
      </trkpt>
      <trkpt lat="49.40529" lon="5.78256">
        <ele>309.60000610352</ele>
        <time>2024-06-09T09:21:59Z</time>
      </trkpt>
      <trkpt lat="49.40527" lon="5.78258">
        <ele>309.60000610352</ele>
        <time>2024-06-09T09:22:00Z</time>
      </trkpt>
      <trkpt lat="49.40523" lon="5.78261">
        <ele>309.60000610352</ele>
        <time>2024-06-09T09:22:02Z</time>
      </trkpt>
      <trkpt lat="49.40518" lon="5.78265">
        <ele>310</ele>
        <time>2024-06-09T09:22:04Z</time>
      </trkpt>
      <trkpt lat="49.40511" lon="5.7827">
        <ele>310.39999389648</ele>
        <time>2024-06-09T09:22:06Z</time>
      </trkpt>
      <trkpt lat="49.40505" lon="5.78273">
        <ele>310.60000610352</ele>
        <time>2024-06-09T09:22:08Z</time>
      </trkpt>
      <trkpt lat="49.40499" lon="5.78278">
        <ele>310.79998779297</ele>
        <time>2024-06-09T09:22:10Z</time>
      </trkpt>
      <trkpt lat="49.40496" lon="5.78281">
        <ele>310.79998779297</ele>
        <time>2024-06-09T09:22:11Z</time>
      </trkpt>
      <trkpt lat="49.40492" lon="5.78284">
        <ele>310.79998779297</ele>
        <time>2024-06-09T09:22:12Z</time>
      </trkpt>
      <trkpt lat="49.40486" lon="5.7829">
        <ele>310.79998779297</ele>
        <time>2024-06-09T09:22:14Z</time>
      </trkpt>
      <trkpt lat="49.40482" lon="5.78298">
        <ele>310.79998779297</ele>
        <time>2024-06-09T09:22:16Z</time>
      </trkpt>
      <trkpt lat="49.40478" lon="5.78304">
        <ele>310.79998779297</ele>
        <time>2024-06-09T09:22:18Z</time>
      </trkpt>
      <trkpt lat="49.40475" lon="5.78309">
        <ele>310.79998779297</ele>
        <time>2024-06-09T09:22:20Z</time>
      </trkpt>
      <trkpt lat="49.40471" lon="5.78314">
        <ele>310.79998779297</ele>
        <time>2024-06-09T09:22:22Z</time>
      </trkpt>
      <trkpt lat="49.40468" lon="5.78317">
        <ele>310.79998779297</ele>
        <time>2024-06-09T09:22:24Z</time>
      </trkpt>
      <trkpt lat="49.40463" lon="5.78321">
        <ele>311.39999389648</ele>
        <time>2024-06-09T09:22:26Z</time>
      </trkpt>
      <trkpt lat="49.4046" lon="5.78325">
        <ele>311.79998779297</ele>
        <time>2024-06-09T09:22:28Z</time>
      </trkpt>
      <trkpt lat="49.40458" lon="5.78327">
        <ele>312.20001220703</ele>
        <time>2024-06-09T09:22:29Z</time>
      </trkpt>
      <trkpt lat="49.40455" lon="5.78329">
        <ele>312.39999389648</ele>
        <time>2024-06-09T09:22:30Z</time>
      </trkpt>
      <trkpt lat="49.4045" lon="5.78333">
        <ele>313</ele>
        <time>2024-06-09T09:22:32Z</time>
      </trkpt>
      <trkpt lat="49.40445" lon="5.78338">
        <ele>313</ele>
        <time>2024-06-09T09:22:34Z</time>
      </trkpt>
      <trkpt lat="49.40443" lon="5.7834">
        <ele>313</ele>
        <time>2024-06-09T09:22:35Z</time>
      </trkpt>
      <trkpt lat="49.4044" lon="5.78343">
        <ele>313</ele>
        <time>2024-06-09T09:22:36Z</time>
      </trkpt>
      <trkpt lat="49.40435" lon="5.78347">
        <ele>313</ele>
        <time>2024-06-09T09:22:38Z</time>
      </trkpt>
      <trkpt lat="49.40429" lon="5.78351">
        <ele>313.20001220703</ele>
        <time>2024-06-09T09:22:40Z</time>
      </trkpt>
      <trkpt lat="49.40423" lon="5.78355">
        <ele>313.20001220703</ele>
        <time>2024-06-09T09:22:42Z</time>
      </trkpt>
      <trkpt lat="49.40417" lon="5.78359">
        <ele>313.20001220703</ele>
        <time>2024-06-09T09:22:44Z</time>
      </trkpt>
      <trkpt lat="49.4041" lon="5.78362">
        <ele>313.20001220703</ele>
        <time>2024-06-09T09:22:46Z</time>
      </trkpt>
      <trkpt lat="49.40401" lon="5.78366">
        <ele>313</ele>
        <time>2024-06-09T09:22:48Z</time>
      </trkpt>
      <trkpt lat="49.40392" lon="5.78368">
        <ele>313</ele>
        <time>2024-06-09T09:22:50Z</time>
      </trkpt>
      <trkpt lat="49.40386" lon="5.7837">
        <ele>313</ele>
        <time>2024-06-09T09:22:51Z</time>
      </trkpt>
      <trkpt lat="49.4038" lon="5.78373">
        <ele>313</ele>
        <time>2024-06-09T09:22:52Z</time>
      </trkpt>
      <trkpt lat="49.40374" lon="5.78374">
        <ele>313</ele>
        <time>2024-06-09T09:22:53Z</time>
      </trkpt>
      <trkpt lat="49.40369" lon="5.78376">
        <ele>313</ele>
        <time>2024-06-09T09:22:54Z</time>
      </trkpt>
      <trkpt lat="49.4036" lon="5.78378">
        <ele>313</ele>
        <time>2024-06-09T09:22:56Z</time>
      </trkpt>
      <trkpt lat="49.40351" lon="5.7838">
        <ele>312.60000610352</ele>
        <time>2024-06-09T09:22:58Z</time>
      </trkpt>
      <trkpt lat="49.40341" lon="5.7838">
        <ele>311.79998779297</ele>
        <time>2024-06-09T09:23:00Z</time>
      </trkpt>
      <trkpt lat="49.40336" lon="5.78381">
        <ele>311.20001220703</ele>
        <time>2024-06-09T09:23:01Z</time>
      </trkpt>
      <trkpt lat="49.4033" lon="5.78382">
        <ele>311</ele>
        <time>2024-06-09T09:23:02Z</time>
      </trkpt>
      <trkpt lat="49.40321" lon="5.78388">
        <ele>310.79998779297</ele>
        <time>2024-06-09T09:23:04Z</time>
      </trkpt>
      <trkpt lat="49.40312" lon="5.78395">
        <ele>310.79998779297</ele>
        <time>2024-06-09T09:23:06Z</time>
      </trkpt>
      <trkpt lat="49.40302" lon="5.78403">
        <ele>310.79998779297</ele>
        <time>2024-06-09T09:23:08Z</time>
      </trkpt>
      <trkpt lat="49.40299" lon="5.78407">
        <ele>310.79998779297</ele>
        <time>2024-06-09T09:23:09Z</time>
      </trkpt>
      <trkpt lat="49.40296" lon="5.78411">
        <ele>310.79998779297</ele>
        <time>2024-06-09T09:23:10Z</time>
      </trkpt>
      <trkpt lat="49.40292" lon="5.78422">
        <ele>310.79998779297</ele>
        <time>2024-06-09T09:23:12Z</time>
      </trkpt>
      <trkpt lat="49.40291" lon="5.78428">
        <ele>311</ele>
        <time>2024-06-09T09:23:13Z</time>
      </trkpt>
      <trkpt lat="49.4029" lon="5.78434">
        <ele>311.20001220703</ele>
        <time>2024-06-09T09:23:14Z</time>
      </trkpt>
      <trkpt lat="49.4029" lon="5.78446">
        <ele>311.60000610352</ele>
        <time>2024-06-09T09:23:16Z</time>
      </trkpt>
      <trkpt lat="49.40289" lon="5.78456">
        <ele>312</ele>
        <time>2024-06-09T09:23:18Z</time>
      </trkpt>
      <trkpt lat="49.40289" lon="5.7846">
        <ele>312.39999389648</ele>
        <time>2024-06-09T09:23:19Z</time>
      </trkpt>
      <trkpt lat="49.40288" lon="5.78463">
        <ele>312.79998779297</ele>
        <time>2024-06-09T09:23:20Z</time>
      </trkpt>
      <trkpt lat="49.40286" lon="5.7847">
        <ele>313.20001220703</ele>
        <time>2024-06-09T09:23:22Z</time>
      </trkpt>
      <trkpt lat="49.40284" lon="5.78478">
        <ele>313.39999389648</ele>
        <time>2024-06-09T09:23:24Z</time>
      </trkpt>
      <trkpt lat="49.40283" lon="5.78483">
        <ele>313.60000610352</ele>
        <time>2024-06-09T09:23:25Z</time>
      </trkpt>
      <trkpt lat="49.40283" lon="5.78489">
        <ele>313.60000610352</ele>
        <time>2024-06-09T09:23:26Z</time>
      </trkpt>
      <trkpt lat="49.40283" lon="5.78501">
        <ele>313.60000610352</ele>
        <time>2024-06-09T09:23:28Z</time>
      </trkpt>
      <trkpt lat="49.40284" lon="5.78507">
        <ele>313.60000610352</ele>
        <time>2024-06-09T09:23:29Z</time>
      </trkpt>
      <trkpt lat="49.40284" lon="5.78512">
        <ele>313.60000610352</ele>
        <time>2024-06-09T09:23:30Z</time>
      </trkpt>
      <trkpt lat="49.40283" lon="5.78524">
        <ele>313.60000610352</ele>
        <time>2024-06-09T09:23:32Z</time>
      </trkpt>
      <trkpt lat="49.40281" lon="5.78532">
        <ele>313.60000610352</ele>
        <time>2024-06-09T09:23:33Z</time>
      </trkpt>
      <trkpt lat="49.40279" lon="5.78539">
        <ele>313.60000610352</ele>
        <time>2024-06-09T09:23:34Z</time>
      </trkpt>
      <trkpt lat="49.40275" lon="5.78554">
        <ele>313.39999389648</ele>
        <time>2024-06-09T09:23:36Z</time>
      </trkpt>
      <trkpt lat="49.4027" lon="5.7857">
        <ele>313.20001220703</ele>
        <time>2024-06-09T09:23:38Z</time>
      </trkpt>
      <trkpt lat="49.40268" lon="5.78578">
        <ele>313</ele>
        <time>2024-06-09T09:23:39Z</time>
      </trkpt>
      <trkpt lat="49.40268" lon="5.78586">
        <ele>313</ele>
        <time>2024-06-09T09:23:40Z</time>
      </trkpt>
      <trkpt lat="49.40266" lon="5.78606">
        <ele>312.60000610352</ele>
        <time>2024-06-09T09:23:42Z</time>
      </trkpt>
      <trkpt lat="49.40266" lon="5.78615">
        <ele>312.60000610352</ele>
        <time>2024-06-09T09:23:43Z</time>
      </trkpt>
      <trkpt lat="49.40268" lon="5.78618">
        <ele>312</ele>
        <time>2024-06-09T09:23:44Z</time>
      </trkpt>
      <trkpt lat="49.40271" lon="5.7862">
        <ele>311.79998779297</ele>
        <time>2024-06-09T09:23:45Z</time>
      </trkpt>
      <trkpt lat="49.40273" lon="5.78621">
        <ele>311.60000610352</ele>
        <time>2024-06-09T09:23:46Z</time>
      </trkpt>
      <trkpt lat="49.40278" lon="5.78625">
        <ele>311.20001220703</ele>
        <time>2024-06-09T09:23:48Z</time>
      </trkpt>
      <trkpt lat="49.40283" lon="5.7863">
        <ele>310.79998779297</ele>
        <time>2024-06-09T09:23:50Z</time>
      </trkpt>
      <trkpt lat="49.40288" lon="5.78636">
        <ele>310.79998779297</ele>
        <time>2024-06-09T09:23:52Z</time>
      </trkpt>
      <trkpt lat="49.40294" lon="5.78643">
        <ele>310.60000610352</ele>
        <time>2024-06-09T09:23:54Z</time>
      </trkpt>
      <trkpt lat="49.40298" lon="5.78646">
        <ele>310.60000610352</ele>
        <time>2024-06-09T09:23:55Z</time>
      </trkpt>
      <trkpt lat="49.40301" lon="5.7865">
        <ele>310.60000610352</ele>
        <time>2024-06-09T09:23:56Z</time>
      </trkpt>
      <trkpt lat="49.40308" lon="5.78656">
        <ele>310.60000610352</ele>
        <time>2024-06-09T09:23:58Z</time>
      </trkpt>
      <trkpt lat="49.40315" lon="5.78661">
        <ele>310.60000610352</ele>
        <time>2024-06-09T09:24:00Z</time>
      </trkpt>
      <trkpt lat="49.40322" lon="5.78668">
        <ele>310.60000610352</ele>
        <time>2024-06-09T09:24:02Z</time>
      </trkpt>
      <trkpt lat="49.4033" lon="5.78676">
        <ele>310.60000610352</ele>
        <time>2024-06-09T09:24:04Z</time>
      </trkpt>
      <trkpt lat="49.40337" lon="5.78684">
        <ele>310.60000610352</ele>
        <time>2024-06-09T09:24:06Z</time>
      </trkpt>
      <trkpt lat="49.40341" lon="5.78687">
        <ele>310.60000610352</ele>
        <time>2024-06-09T09:24:07Z</time>
      </trkpt>
      <trkpt lat="49.40344" lon="5.7869">
        <ele>310.60000610352</ele>
        <time>2024-06-09T09:24:08Z</time>
      </trkpt>
      <trkpt lat="49.40352" lon="5.78696">
        <ele>310.60000610352</ele>
        <time>2024-06-09T09:24:10Z</time>
      </trkpt>
      <trkpt lat="49.40357" lon="5.78699">
        <ele>310.60000610352</ele>
        <time>2024-06-09T09:24:12Z</time>
      </trkpt>
      <trkpt lat="49.40363" lon="5.78702">
        <ele>310.79998779297</ele>
        <time>2024-06-09T09:24:14Z</time>
      </trkpt>
      <trkpt lat="49.40369" lon="5.78706">
        <ele>310.79998779297</ele>
        <time>2024-06-09T09:24:16Z</time>
      </trkpt>
      <trkpt lat="49.40371" lon="5.78708">
        <ele>311</ele>
        <time>2024-06-09T09:24:17Z</time>
      </trkpt>
      <trkpt lat="49.40374" lon="5.7871">
        <ele>311</ele>
        <time>2024-06-09T09:24:18Z</time>
      </trkpt>
      <trkpt lat="49.40379" lon="5.78713">
        <ele>311.20001220703</ele>
        <time>2024-06-09T09:24:20Z</time>
      </trkpt>
      <trkpt lat="49.40385" lon="5.78715">
        <ele>311.60000610352</ele>
        <time>2024-06-09T09:24:22Z</time>
      </trkpt>
      <trkpt lat="49.40387" lon="5.78716">
        <ele>311.79998779297</ele>
        <time>2024-06-09T09:24:23Z</time>
      </trkpt>
      <trkpt lat="49.40389" lon="5.78717">
        <ele>312.20001220703</ele>
        <time>2024-06-09T09:24:24Z</time>
      </trkpt>
      <trkpt lat="49.40392" lon="5.78718">
        <ele>312.60000610352</ele>
        <time>2024-06-09T09:24:25Z</time>
      </trkpt>
      <trkpt lat="49.40394" lon="5.7872">
        <ele>313.20001220703</ele>
        <time>2024-06-09T09:24:26Z</time>
      </trkpt>
      <trkpt lat="49.40397" lon="5.78723">
        <ele>313.79998779297</ele>
        <time>2024-06-09T09:24:28Z</time>
      </trkpt>
      <trkpt lat="49.40399" lon="5.78725">
        <ele>314.20001220703</ele>
        <time>2024-06-09T09:24:29Z</time>
      </trkpt>
      <trkpt lat="49.404" lon="5.78727">
        <ele>314.39999389648</ele>
        <time>2024-06-09T09:24:30Z</time>
      </trkpt>
      <trkpt lat="49.40401" lon="5.7873">
        <ele>314.79998779297</ele>
        <time>2024-06-09T09:24:31Z</time>
      </trkpt>
      <trkpt lat="49.40401" lon="5.78733">
        <ele>314.79998779297</ele>
        <time>2024-06-09T09:24:32Z</time>
      </trkpt>
      <trkpt lat="49.40401" lon="5.78736">
        <ele>315</ele>
        <time>2024-06-09T09:24:33Z</time>
      </trkpt>
      <trkpt lat="49.404" lon="5.78738">
        <ele>315</ele>
        <time>2024-06-09T09:24:34Z</time>
      </trkpt>
      <trkpt lat="49.40397" lon="5.78746">
        <ele>315</ele>
        <time>2024-06-09T09:24:36Z</time>
      </trkpt>
      <trkpt lat="49.40396" lon="5.78751">
        <ele>315</ele>
        <time>2024-06-09T09:24:37Z</time>
      </trkpt>
      <trkpt lat="49.40395" lon="5.78756">
        <ele>315</ele>
        <time>2024-06-09T09:24:38Z</time>
      </trkpt>
      <trkpt lat="49.40394" lon="5.78766">
        <ele>315</ele>
        <time>2024-06-09T09:24:40Z</time>
      </trkpt>
      <trkpt lat="49.40391" lon="5.78777">
        <ele>315</ele>
        <time>2024-06-09T09:24:42Z</time>
      </trkpt>
      <trkpt lat="49.40389" lon="5.78788">
        <ele>314.20001220703</ele>
        <time>2024-06-09T09:24:44Z</time>
      </trkpt>
      <trkpt lat="49.40388" lon="5.78793">
        <ele>313.20001220703</ele>
        <time>2024-06-09T09:24:45Z</time>
      </trkpt>
      <trkpt lat="49.40388" lon="5.78797">
        <ele>311.79998779297</ele>
        <time>2024-06-09T09:24:46Z</time>
      </trkpt>
      <trkpt lat="49.40388" lon="5.78802">
        <ele>310.39999389648</ele>
        <time>2024-06-09T09:24:47Z</time>
      </trkpt>
      <trkpt lat="49.40388" lon="5.78806">
        <ele>309.60000610352</ele>
        <time>2024-06-09T09:24:48Z</time>
      </trkpt>
      <trkpt lat="49.40389" lon="5.7881">
        <ele>309</ele>
        <time>2024-06-09T09:24:49Z</time>
      </trkpt>
      <trkpt lat="49.40389" lon="5.78814">
        <ele>308.79998779297</ele>
        <time>2024-06-09T09:24:50Z</time>
      </trkpt>
      <trkpt lat="49.40389" lon="5.78817">
        <ele>308.60000610352</ele>
        <time>2024-06-09T09:24:51Z</time>
      </trkpt>
      <trkpt lat="49.40389" lon="5.7882">
        <ele>308.60000610352</ele>
        <time>2024-06-09T09:24:52Z</time>
      </trkpt>
      <trkpt lat="49.40389" lon="5.78822">
        <ele>308.60000610352</ele>
        <time>2024-06-09T09:24:53Z</time>
      </trkpt>
      <trkpt lat="49.4039" lon="5.78825">
        <ele>308.60000610352</ele>
        <time>2024-06-09T09:24:54Z</time>
      </trkpt>
      <trkpt lat="49.40392" lon="5.78829">
        <ele>308.60000610352</ele>
        <time>2024-06-09T09:24:56Z</time>
      </trkpt>
      <trkpt lat="49.40395" lon="5.78832">
        <ele>309.60000610352</ele>
        <time>2024-06-09T09:24:58Z</time>
      </trkpt>
      <trkpt lat="49.40396" lon="5.78835">
        <ele>310.20001220703</ele>
        <time>2024-06-09T09:24:59Z</time>
      </trkpt>
      <trkpt lat="49.40397" lon="5.78836">
        <ele>310.79998779297</ele>
        <time>2024-06-09T09:25:00Z</time>
      </trkpt>
      <trkpt lat="49.40398" lon="5.78838">
        <ele>311.20001220703</ele>
        <time>2024-06-09T09:25:01Z</time>
      </trkpt>
      <trkpt lat="49.404" lon="5.78839">
        <ele>311.60000610352</ele>
        <time>2024-06-09T09:25:02Z</time>
      </trkpt>
      <trkpt lat="49.40403" lon="5.78841">
        <ele>312.20001220703</ele>
        <time>2024-06-09T09:25:04Z</time>
      </trkpt>
      <trkpt lat="49.40405" lon="5.78842">
        <ele>312.60000610352</ele>
        <time>2024-06-09T09:25:05Z</time>
      </trkpt>
      <trkpt lat="49.40406" lon="5.78843">
        <ele>312.79998779297</ele>
        <time>2024-06-09T09:25:06Z</time>
      </trkpt>
      <trkpt lat="49.40409" lon="5.78845">
        <ele>313.20001220703</ele>
        <time>2024-06-09T09:25:08Z</time>
      </trkpt>
      <trkpt lat="49.40413" lon="5.78848">
        <ele>313.60000610352</ele>
        <time>2024-06-09T09:25:10Z</time>
      </trkpt>
      <trkpt lat="49.40414" lon="5.78849">
        <ele>313.60000610352</ele>
        <time>2024-06-09T09:25:11Z</time>
      </trkpt>
      <trkpt lat="49.40416" lon="5.78849">
        <ele>313.60000610352</ele>
        <time>2024-06-09T09:25:12Z</time>
      </trkpt>
      <trkpt lat="49.40419" lon="5.78851">
        <ele>314</ele>
        <time>2024-06-09T09:25:14Z</time>
      </trkpt>
      <trkpt lat="49.40423" lon="5.78853">
        <ele>314.20001220703</ele>
        <time>2024-06-09T09:25:16Z</time>
      </trkpt>
      <trkpt lat="49.40425" lon="5.78854">
        <ele>314.39999389648</ele>
        <time>2024-06-09T09:25:17Z</time>
      </trkpt>
      <trkpt lat="49.40426" lon="5.78855">
        <ele>314.60000610352</ele>
        <time>2024-06-09T09:25:18Z</time>
      </trkpt>
      <trkpt lat="49.40429" lon="5.78858">
        <ele>314.79998779297</ele>
        <time>2024-06-09T09:25:20Z</time>
      </trkpt>
      <trkpt lat="49.40431" lon="5.7886">
        <ele>315</ele>
        <time>2024-06-09T09:25:21Z</time>
      </trkpt>
      <trkpt lat="49.40431" lon="5.78861">
        <ele>315.20001220703</ele>
        <time>2024-06-09T09:25:22Z</time>
      </trkpt>
      <trkpt lat="49.40431" lon="5.78863">
        <ele>315.60000610352</ele>
        <time>2024-06-09T09:25:23Z</time>
      </trkpt>
      <trkpt lat="49.4043" lon="5.78864">
        <ele>315.79998779297</ele>
        <time>2024-06-09T09:25:24Z</time>
      </trkpt>
      <trkpt lat="49.40428" lon="5.78866">
        <ele>316.20001220703</ele>
        <time>2024-06-09T09:25:26Z</time>
      </trkpt>
      <trkpt lat="49.40426" lon="5.78867">
        <ele>316.39999389648</ele>
        <time>2024-06-09T09:25:27Z</time>
      </trkpt>
      <trkpt lat="49.40425" lon="5.78867">
        <ele>316.60000610352</ele>
        <time>2024-06-09T09:25:28Z</time>
      </trkpt>
      <trkpt lat="49.40422" lon="5.7887">
        <ele>316.79998779297</ele>
        <time>2024-06-09T09:25:30Z</time>
      </trkpt>
      <trkpt lat="49.40418" lon="5.78872">
        <ele>317</ele>
        <time>2024-06-09T09:25:32Z</time>
      </trkpt>
      <trkpt lat="49.40414" lon="5.78874">
        <ele>317</ele>
        <time>2024-06-09T09:25:34Z</time>
      </trkpt>
      <trkpt lat="49.4041" lon="5.78877">
        <ele>317</ele>
        <time>2024-06-09T09:25:36Z</time>
      </trkpt>
      <trkpt lat="49.40405" lon="5.78882">
        <ele>317</ele>
        <time>2024-06-09T09:25:38Z</time>
      </trkpt>
      <trkpt lat="49.40399" lon="5.78886">
        <ele>317</ele>
        <time>2024-06-09T09:25:40Z</time>
      </trkpt>
      <trkpt lat="49.4039" lon="5.78892">
        <ele>316.79998779297</ele>
        <time>2024-06-09T09:25:42Z</time>
      </trkpt>
      <trkpt lat="49.40385" lon="5.78896">
        <ele>316.60000610352</ele>
        <time>2024-06-09T09:25:43Z</time>
      </trkpt>
      <trkpt lat="49.4038" lon="5.789">
        <ele>316.60000610352</ele>
        <time>2024-06-09T09:25:44Z</time>
      </trkpt>
      <trkpt lat="49.40368" lon="5.78908">
        <ele>316.20001220703</ele>
        <time>2024-06-09T09:25:46Z</time>
      </trkpt>
      <trkpt lat="49.4036" lon="5.78913">
        <ele>315.79998779297</ele>
        <time>2024-06-09T09:25:47Z</time>
      </trkpt>
      <trkpt lat="49.40354" lon="5.78918">
        <ele>315.20001220703</ele>
        <time>2024-06-09T09:25:48Z</time>
      </trkpt>
      <trkpt lat="49.40346" lon="5.78925">
        <ele>314.60000610352</ele>
        <time>2024-06-09T09:25:49Z</time>
      </trkpt>
      <trkpt lat="49.40339" lon="5.78933">
        <ele>313.79998779297</ele>
        <time>2024-06-09T09:25:50Z</time>
      </trkpt>
      <trkpt lat="49.40333" lon="5.78942">
        <ele>312.20001220703</ele>
        <time>2024-06-09T09:25:51Z</time>
      </trkpt>
      <trkpt lat="49.40327" lon="5.78951">
        <ele>311.39999389648</ele>
        <time>2024-06-09T09:25:52Z</time>
      </trkpt>
      <trkpt lat="49.40321" lon="5.78962">
        <ele>310.60000610352</ele>
        <time>2024-06-09T09:25:53Z</time>
      </trkpt>
      <trkpt lat="49.40315" lon="5.78973">
        <ele>309.39999389648</ele>
        <time>2024-06-09T09:25:54Z</time>
      </trkpt>
      <trkpt lat="49.40307" lon="5.78986">
        <ele>308.20001220703</ele>
        <time>2024-06-09T09:25:55Z</time>
      </trkpt>
      <trkpt lat="49.40299" lon="5.78997">
        <ele>306.79998779297</ele>
        <time>2024-06-09T09:25:56Z</time>
      </trkpt>
      <trkpt lat="49.40291" lon="5.79011">
        <ele>305.20001220703</ele>
        <time>2024-06-09T09:25:57Z</time>
      </trkpt>
      <trkpt lat="49.40284" lon="5.79024">
        <ele>304</ele>
        <time>2024-06-09T09:25:58Z</time>
      </trkpt>
      <trkpt lat="49.40275" lon="5.79037">
        <ele>302.60000610352</ele>
        <time>2024-06-09T09:25:59Z</time>
      </trkpt>
      <trkpt lat="49.40268" lon="5.79048">
        <ele>301</ele>
        <time>2024-06-09T09:26:00Z</time>
      </trkpt>
      <trkpt lat="49.40262" lon="5.79055">
        <ele>299.60000610352</ele>
        <time>2024-06-09T09:26:01Z</time>
      </trkpt>
      <trkpt lat="49.40254" lon="5.79064">
        <ele>297.60000610352</ele>
        <time>2024-06-09T09:26:02Z</time>
      </trkpt>
      <trkpt lat="49.40249" lon="5.79068">
        <ele>295.60000610352</ele>
        <time>2024-06-09T09:26:03Z</time>
      </trkpt>
      <trkpt lat="49.40247" lon="5.7907">
        <ele>293.60000610352</ele>
        <time>2024-06-09T09:26:04Z</time>
      </trkpt>
      <trkpt lat="49.40245" lon="5.79073">
        <ele>291.60000610352</ele>
        <time>2024-06-09T09:26:05Z</time>
      </trkpt>
      <trkpt lat="49.40243" lon="5.79078">
        <ele>290.20001220703</ele>
        <time>2024-06-09T09:26:06Z</time>
      </trkpt>
      <trkpt lat="49.40242" lon="5.79086">
        <ele>289.20001220703</ele>
        <time>2024-06-09T09:26:08Z</time>
      </trkpt>
      <trkpt lat="49.40241" lon="5.79094">
        <ele>288.79998779297</ele>
        <time>2024-06-09T09:26:10Z</time>
      </trkpt>
      <trkpt lat="49.4024" lon="5.79097">
        <ele>288.79998779297</ele>
        <time>2024-06-09T09:26:11Z</time>
      </trkpt>
      <trkpt lat="49.4024" lon="5.79101">
        <ele>288.79998779297</ele>
        <time>2024-06-09T09:26:12Z</time>
      </trkpt>
      <trkpt lat="49.40239" lon="5.79107">
        <ele>288.79998779297</ele>
        <time>2024-06-09T09:26:14Z</time>
      </trkpt>
      <trkpt lat="49.40239" lon="5.79113">
        <ele>288.79998779297</ele>
        <time>2024-06-09T09:26:16Z</time>
      </trkpt>
      <trkpt lat="49.40239" lon="5.79115">
        <ele>288.79998779297</ele>
        <time>2024-06-09T09:26:17Z</time>
      </trkpt>
      <trkpt lat="49.40238" lon="5.79118">
        <ele>288.79998779297</ele>
        <time>2024-06-09T09:26:18Z</time>
      </trkpt>
      <trkpt lat="49.40237" lon="5.79123">
        <ele>289.20001220703</ele>
        <time>2024-06-09T09:26:20Z</time>
      </trkpt>
      <trkpt lat="49.40234" lon="5.79128">
        <ele>289.79998779297</ele>
        <time>2024-06-09T09:26:22Z</time>
      </trkpt>
      <trkpt lat="49.40233" lon="5.7913">
        <ele>290</ele>
        <time>2024-06-09T09:26:23Z</time>
      </trkpt>
      <trkpt lat="49.4023" lon="5.79132">
        <ele>290.20001220703</ele>
        <time>2024-06-09T09:26:24Z</time>
      </trkpt>
      <trkpt lat="49.40225" lon="5.79135">
        <ele>290.20001220703</ele>
        <time>2024-06-09T09:26:26Z</time>
      </trkpt>
      <trkpt lat="49.40219" lon="5.7914">
        <ele>290.20001220703</ele>
        <time>2024-06-09T09:26:28Z</time>
      </trkpt>
      <trkpt lat="49.40213" lon="5.79143">
        <ele>290.20001220703</ele>
        <time>2024-06-09T09:26:30Z</time>
      </trkpt>
      <trkpt lat="49.40206" lon="5.79147">
        <ele>290.39999389648</ele>
        <time>2024-06-09T09:26:32Z</time>
      </trkpt>
      <trkpt lat="49.40201" lon="5.79149">
        <ele>290.39999389648</ele>
        <time>2024-06-09T09:26:34Z</time>
      </trkpt>
      <trkpt lat="49.40194" lon="5.79154">
        <ele>290.39999389648</ele>
        <time>2024-06-09T09:26:36Z</time>
      </trkpt>
      <trkpt lat="49.40187" lon="5.79156">
        <ele>290.39999389648</ele>
        <time>2024-06-09T09:26:38Z</time>
      </trkpt>
      <trkpt lat="49.4018" lon="5.79157">
        <ele>290.39999389648</ele>
        <time>2024-06-09T09:26:40Z</time>
      </trkpt>
      <trkpt lat="49.40172" lon="5.79158">
        <ele>291</ele>
        <time>2024-06-09T09:26:42Z</time>
      </trkpt>
      <trkpt lat="49.40169" lon="5.79158">
        <ele>291.20001220703</ele>
        <time>2024-06-09T09:26:43Z</time>
      </trkpt>
      <trkpt lat="49.40165" lon="5.79158">
        <ele>291.39999389648</ele>
        <time>2024-06-09T09:26:44Z</time>
      </trkpt>
      <trkpt lat="49.40158" lon="5.79159">
        <ele>292</ele>
        <time>2024-06-09T09:26:46Z</time>
      </trkpt>
      <trkpt lat="49.40154" lon="5.7916">
        <ele>292.20001220703</ele>
        <time>2024-06-09T09:26:47Z</time>
      </trkpt>
      <trkpt lat="49.4015" lon="5.79161">
        <ele>292.20001220703</ele>
        <time>2024-06-09T09:26:48Z</time>
      </trkpt>
      <trkpt lat="49.40143" lon="5.79163">
        <ele>292.39999389648</ele>
        <time>2024-06-09T09:26:50Z</time>
      </trkpt>
      <trkpt lat="49.40135" lon="5.79165">
        <ele>292.39999389648</ele>
        <time>2024-06-09T09:26:52Z</time>
      </trkpt>
      <trkpt lat="49.40127" lon="5.79167">
        <ele>292.39999389648</ele>
        <time>2024-06-09T09:26:54Z</time>
      </trkpt>
      <trkpt lat="49.40119" lon="5.79168">
        <ele>292.20001220703</ele>
        <time>2024-06-09T09:26:56Z</time>
      </trkpt>
      <trkpt lat="49.40115" lon="5.79169">
        <ele>292.20001220703</ele>
        <time>2024-06-09T09:26:57Z</time>
      </trkpt>
      <trkpt lat="49.40111" lon="5.7917">
        <ele>292.20001220703</ele>
        <time>2024-06-09T09:26:58Z</time>
      </trkpt>
      <trkpt lat="49.40102" lon="5.79172">
        <ele>291.79998779297</ele>
        <time>2024-06-09T09:27:00Z</time>
      </trkpt>
      <trkpt lat="49.40093" lon="5.79173">
        <ele>291.60000610352</ele>
        <time>2024-06-09T09:27:02Z</time>
      </trkpt>
      <trkpt lat="49.40088" lon="5.79174">
        <ele>291.60000610352</ele>
        <time>2024-06-09T09:27:03Z</time>
      </trkpt>
      <trkpt lat="49.40082" lon="5.79175">
        <ele>291.60000610352</ele>
        <time>2024-06-09T09:27:04Z</time>
      </trkpt>
      <trkpt lat="49.4007" lon="5.79176">
        <ele>291.60000610352</ele>
        <time>2024-06-09T09:27:06Z</time>
      </trkpt>
      <trkpt lat="49.40057" lon="5.79178">
        <ele>291.20001220703</ele>
        <time>2024-06-09T09:27:08Z</time>
      </trkpt>
      <trkpt lat="49.40045" lon="5.7918">
        <ele>290.60000610352</ele>
        <time>2024-06-09T09:27:10Z</time>
      </trkpt>
      <trkpt lat="49.40039" lon="5.79181">
        <ele>290.20001220703</ele>
        <time>2024-06-09T09:27:11Z</time>
      </trkpt>
      <trkpt lat="49.40033" lon="5.79182">
        <ele>289.79998779297</ele>
        <time>2024-06-09T09:27:12Z</time>
      </trkpt>
      <trkpt lat="49.40028" lon="5.79181">
        <ele>289.20001220703</ele>
        <time>2024-06-09T09:27:13Z</time>
      </trkpt>
      <trkpt lat="49.40022" lon="5.79182">
        <ele>288.79998779297</ele>
        <time>2024-06-09T09:27:14Z</time>
      </trkpt>
      <trkpt lat="49.40011" lon="5.79185">
        <ele>288.20001220703</ele>
        <time>2024-06-09T09:27:16Z</time>
      </trkpt>
      <trkpt lat="49.4" lon="5.79186">
        <ele>288</ele>
        <time>2024-06-09T09:27:18Z</time>
      </trkpt>
      <trkpt lat="49.39996" lon="5.79186">
        <ele>288</ele>
        <time>2024-06-09T09:27:19Z</time>
      </trkpt>
      <trkpt lat="49.39991" lon="5.79187">
        <ele>288</ele>
        <time>2024-06-09T09:27:20Z</time>
      </trkpt>
      <trkpt lat="49.39982" lon="5.7919">
        <ele>288</ele>
        <time>2024-06-09T09:27:22Z</time>
      </trkpt>
      <trkpt lat="49.39974" lon="5.79195">
        <ele>288</ele>
        <time>2024-06-09T09:27:24Z</time>
      </trkpt>
      <trkpt lat="49.39971" lon="5.79195">
        <ele>288</ele>
        <time>2024-06-09T09:27:25Z</time>
      </trkpt>
      <trkpt lat="49.39967" lon="5.79195">
        <ele>288</ele>
        <time>2024-06-09T09:27:26Z</time>
      </trkpt>
      <trkpt lat="49.3996" lon="5.79196">
        <ele>288</ele>
        <time>2024-06-09T09:27:28Z</time>
      </trkpt>
      <trkpt lat="49.39956" lon="5.79197">
        <ele>288</ele>
        <time>2024-06-09T09:27:29Z</time>
      </trkpt>
      <trkpt lat="49.39953" lon="5.79197">
        <ele>288.20001220703</ele>
        <time>2024-06-09T09:27:30Z</time>
      </trkpt>
      <trkpt lat="49.39947" lon="5.79198">
        <ele>288.60000610352</ele>
        <time>2024-06-09T09:27:32Z</time>
      </trkpt>
      <trkpt lat="49.39941" lon="5.792">
        <ele>289.39999389648</ele>
        <time>2024-06-09T09:27:34Z</time>
      </trkpt>
      <trkpt lat="49.39939" lon="5.792">
        <ele>289.79998779297</ele>
        <time>2024-06-09T09:27:35Z</time>
      </trkpt>
      <trkpt lat="49.39936" lon="5.79201">
        <ele>290.39999389648</ele>
        <time>2024-06-09T09:27:36Z</time>
      </trkpt>
      <trkpt lat="49.39932" lon="5.79201">
        <ele>291</ele>
        <time>2024-06-09T09:27:37Z</time>
      </trkpt>
      <trkpt lat="49.39929" lon="5.792">
        <ele>291.39999389648</ele>
        <time>2024-06-09T09:27:38Z</time>
      </trkpt>
      <trkpt lat="49.39922" lon="5.79199">
        <ele>292.20001220703</ele>
        <time>2024-06-09T09:27:40Z</time>
      </trkpt>
      <trkpt lat="49.3992" lon="5.79199">
        <ele>292.79998779297</ele>
        <time>2024-06-09T09:27:41Z</time>
      </trkpt>
      <trkpt lat="49.39917" lon="5.79199">
        <ele>293.20001220703</ele>
        <time>2024-06-09T09:27:42Z</time>
      </trkpt>
      <trkpt lat="49.39913" lon="5.79198">
        <ele>293.60000610352</ele>
        <time>2024-06-09T09:27:43Z</time>
      </trkpt>
      <trkpt lat="49.3991" lon="5.79199">
        <ele>294.39999389648</ele>
        <time>2024-06-09T09:27:44Z</time>
      </trkpt>
      <trkpt lat="49.39907" lon="5.79199">
        <ele>294.79998779297</ele>
        <time>2024-06-09T09:27:45Z</time>
      </trkpt>
      <trkpt lat="49.39905" lon="5.79199">
        <ele>295</ele>
        <time>2024-06-09T09:27:46Z</time>
      </trkpt>
      <trkpt lat="49.39899" lon="5.79199">
        <ele>295.60000610352</ele>
        <time>2024-06-09T09:27:48Z</time>
      </trkpt>
      <trkpt lat="49.39892" lon="5.792">
        <ele>295.79998779297</ele>
        <time>2024-06-09T09:27:50Z</time>
      </trkpt>
      <trkpt lat="49.39886" lon="5.79201">
        <ele>295.79998779297</ele>
        <time>2024-06-09T09:27:52Z</time>
      </trkpt>
      <trkpt lat="49.39876" lon="5.792">
        <ele>295.79998779297</ele>
        <time>2024-06-09T09:27:54Z</time>
      </trkpt>
      <trkpt lat="49.39864" lon="5.79199">
        <ele>295.79998779297</ele>
        <time>2024-06-09T09:27:56Z</time>
      </trkpt>
      <trkpt lat="49.39853" lon="5.79198">
        <ele>295.79998779297</ele>
        <time>2024-06-09T09:27:58Z</time>
      </trkpt>
      <trkpt lat="49.39847" lon="5.79198">
        <ele>295.79998779297</ele>
        <time>2024-06-09T09:27:59Z</time>
      </trkpt>
      <trkpt lat="49.39841" lon="5.79199">
        <ele>295.79998779297</ele>
        <time>2024-06-09T09:28:00Z</time>
      </trkpt>
      <trkpt lat="49.39825" lon="5.79199">
        <ele>295.20001220703</ele>
        <time>2024-06-09T09:28:02Z</time>
      </trkpt>
      <trkpt lat="49.39816" lon="5.79199">
        <ele>294.79998779297</ele>
        <time>2024-06-09T09:28:03Z</time>
      </trkpt>
      <trkpt lat="49.39806" lon="5.79199">
        <ele>294.20001220703</ele>
        <time>2024-06-09T09:28:04Z</time>
      </trkpt>
      <trkpt lat="49.39796" lon="5.79199">
        <ele>293.60000610352</ele>
        <time>2024-06-09T09:28:05Z</time>
      </trkpt>
      <trkpt lat="49.39788" lon="5.79199">
        <ele>293</ele>
        <time>2024-06-09T09:28:06Z</time>
      </trkpt>
      <trkpt lat="49.39781" lon="5.79199">
        <ele>292.39999389648</ele>
        <time>2024-06-09T09:28:07Z</time>
      </trkpt>
      <trkpt lat="49.39773" lon="5.79201">
        <ele>291.79998779297</ele>
        <time>2024-06-09T09:28:08Z</time>
      </trkpt>
      <trkpt lat="49.39766" lon="5.79205">
        <ele>290.60000610352</ele>
        <time>2024-06-09T09:28:09Z</time>
      </trkpt>
      <trkpt lat="49.3976" lon="5.7921">
        <ele>289</ele>
        <time>2024-06-09T09:28:10Z</time>
      </trkpt>
      <trkpt lat="49.39754" lon="5.79218">
        <ele>287</ele>
        <time>2024-06-09T09:28:11Z</time>
      </trkpt>
      <trkpt lat="49.39748" lon="5.79228">
        <ele>284.60000610352</ele>
        <time>2024-06-09T09:28:12Z</time>
      </trkpt>
      <trkpt lat="49.39742" lon="5.79237">
        <ele>279.79998779297</ele>
        <time>2024-06-09T09:28:13Z</time>
      </trkpt>
      <trkpt lat="49.39738" lon="5.79246">
        <ele>277.60000610352</ele>
        <time>2024-06-09T09:28:14Z</time>
      </trkpt>
      <trkpt lat="49.39733" lon="5.79255">
        <ele>275.79998779297</ele>
        <time>2024-06-09T09:28:15Z</time>
      </trkpt>
      <trkpt lat="49.39729" lon="5.79265">
        <ele>273.20001220703</ele>
        <time>2024-06-09T09:28:16Z</time>
      </trkpt>
      <trkpt lat="49.39725" lon="5.79273">
        <ele>271.60000610352</ele>
        <time>2024-06-09T09:28:17Z</time>
      </trkpt>
      <trkpt lat="49.39721" lon="5.7928">
        <ele>270.79998779297</ele>
        <time>2024-06-09T09:28:18Z</time>
      </trkpt>
      <trkpt lat="49.39718" lon="5.79289">
        <ele>270.20001220703</ele>
        <time>2024-06-09T09:28:19Z</time>
      </trkpt>
      <trkpt lat="49.39716" lon="5.79297">
        <ele>269.79998779297</ele>
        <time>2024-06-09T09:28:20Z</time>
      </trkpt>
      <trkpt lat="49.39714" lon="5.79315">
        <ele>269.60000610352</ele>
        <time>2024-06-09T09:28:22Z</time>
      </trkpt>
      <trkpt lat="49.39712" lon="5.79337">
        <ele>269.39999389648</ele>
        <time>2024-06-09T09:28:24Z</time>
      </trkpt>
      <trkpt lat="49.39711" lon="5.79347">
        <ele>269.39999389648</ele>
        <time>2024-06-09T09:28:25Z</time>
      </trkpt>
      <trkpt lat="49.39711" lon="5.79357">
        <ele>269.39999389648</ele>
        <time>2024-06-09T09:28:26Z</time>
      </trkpt>
      <trkpt lat="49.3971" lon="5.79377">
        <ele>269.39999389648</ele>
        <time>2024-06-09T09:28:28Z</time>
      </trkpt>
      <trkpt lat="49.39711" lon="5.79393">
        <ele>269.39999389648</ele>
        <time>2024-06-09T09:28:30Z</time>
      </trkpt>
      <trkpt lat="49.39711" lon="5.79401">
        <ele>269.39999389648</ele>
        <time>2024-06-09T09:28:31Z</time>
      </trkpt>
      <trkpt lat="49.39713" lon="5.79407">
        <ele>269.60000610352</ele>
        <time>2024-06-09T09:28:32Z</time>
      </trkpt>
      <trkpt lat="49.39716" lon="5.79419">
        <ele>269.60000610352</ele>
        <time>2024-06-09T09:28:34Z</time>
      </trkpt>
      <trkpt lat="49.39718" lon="5.79425">
        <ele>269.60000610352</ele>
        <time>2024-06-09T09:28:35Z</time>
      </trkpt>
      <trkpt lat="49.39721" lon="5.79432">
        <ele>269.60000610352</ele>
        <time>2024-06-09T09:28:36Z</time>
      </trkpt>
      <trkpt lat="49.39725" lon="5.79446">
        <ele>269.79998779297</ele>
        <time>2024-06-09T09:28:38Z</time>
      </trkpt>
      <trkpt lat="49.39732" lon="5.79459">
        <ele>269.79998779297</ele>
        <time>2024-06-09T09:28:40Z</time>
      </trkpt>
      <trkpt lat="49.39735" lon="5.79465">
        <ele>269.79998779297</ele>
        <time>2024-06-09T09:28:41Z</time>
      </trkpt>
      <trkpt lat="49.39739" lon="5.79471">
        <ele>269.79998779297</ele>
        <time>2024-06-09T09:28:42Z</time>
      </trkpt>
      <trkpt lat="49.39746" lon="5.79482">
        <ele>270</ele>
        <time>2024-06-09T09:28:44Z</time>
      </trkpt>
      <trkpt lat="49.39753" lon="5.79491">
        <ele>270.20001220703</ele>
        <time>2024-06-09T09:28:46Z</time>
      </trkpt>
      <trkpt lat="49.3976" lon="5.79501">
        <ele>270.39999389648</ele>
        <time>2024-06-09T09:28:48Z</time>
      </trkpt>
      <trkpt lat="49.39767" lon="5.7951">
        <ele>270.39999389648</ele>
        <time>2024-06-09T09:28:50Z</time>
      </trkpt>
      <trkpt lat="49.39775" lon="5.79518">
        <ele>270.39999389648</ele>
        <time>2024-06-09T09:28:52Z</time>
      </trkpt>
      <trkpt lat="49.39783" lon="5.79526">
        <ele>270.39999389648</ele>
        <time>2024-06-09T09:28:54Z</time>
      </trkpt>
      <trkpt lat="49.39787" lon="5.79532">
        <ele>270.60000610352</ele>
        <time>2024-06-09T09:28:55Z</time>
      </trkpt>
      <trkpt lat="49.3979" lon="5.79536">
        <ele>270.60000610352</ele>
        <time>2024-06-09T09:28:56Z</time>
      </trkpt>
      <trkpt lat="49.39799" lon="5.79544">
        <ele>270.79998779297</ele>
        <time>2024-06-09T09:28:58Z</time>
      </trkpt>
      <trkpt lat="49.39803" lon="5.79548">
        <ele>270.79998779297</ele>
        <time>2024-06-09T09:28:59Z</time>
      </trkpt>
      <trkpt lat="49.39806" lon="5.7955">
        <ele>270.79998779297</ele>
        <time>2024-06-09T09:29:00Z</time>
      </trkpt>
      <trkpt lat="49.39813" lon="5.79558">
        <ele>270.79998779297</ele>
        <time>2024-06-09T09:29:02Z</time>
      </trkpt>
      <trkpt lat="49.3982" lon="5.79564">
        <ele>271</ele>
        <time>2024-06-09T09:29:04Z</time>
      </trkpt>
      <trkpt lat="49.39822" lon="5.79566">
        <ele>271</ele>
        <time>2024-06-09T09:29:05Z</time>
      </trkpt>
      <trkpt lat="49.39825" lon="5.79569">
        <ele>271</ele>
        <time>2024-06-09T09:29:06Z</time>
      </trkpt>
      <trkpt lat="49.3983" lon="5.79576">
        <ele>271</ele>
        <time>2024-06-09T09:29:08Z</time>
      </trkpt>
      <trkpt lat="49.39833" lon="5.79579">
        <ele>271.20001220703</ele>
        <time>2024-06-09T09:29:09Z</time>
      </trkpt>
      <trkpt lat="49.39835" lon="5.79583">
        <ele>272</ele>
        <time>2024-06-09T09:29:10Z</time>
      </trkpt>
      <trkpt lat="49.39837" lon="5.79586">
        <ele>272.39999389648</ele>
        <time>2024-06-09T09:29:11Z</time>
      </trkpt>
      <trkpt lat="49.39839" lon="5.79589">
        <ele>273</ele>
        <time>2024-06-09T09:29:12Z</time>
      </trkpt>
      <trkpt lat="49.39843" lon="5.79596">
        <ele>273.39999389648</ele>
        <time>2024-06-09T09:29:14Z</time>
      </trkpt>
      <trkpt lat="49.39846" lon="5.79601">
        <ele>273.60000610352</ele>
        <time>2024-06-09T09:29:15Z</time>
      </trkpt>
      <trkpt lat="49.39848" lon="5.79605">
        <ele>274</ele>
        <time>2024-06-09T09:29:16Z</time>
      </trkpt>
      <trkpt lat="49.3985" lon="5.7961">
        <ele>274.20001220703</ele>
        <time>2024-06-09T09:29:17Z</time>
      </trkpt>
      <trkpt lat="49.39853" lon="5.79615">
        <ele>274.20001220703</ele>
        <time>2024-06-09T09:29:18Z</time>
      </trkpt>
      <trkpt lat="49.39858" lon="5.79625">
        <ele>274.39999389648</ele>
        <time>2024-06-09T09:29:20Z</time>
      </trkpt>
      <trkpt lat="49.39861" lon="5.79633">
        <ele>274.60000610352</ele>
        <time>2024-06-09T09:29:22Z</time>
      </trkpt>
      <trkpt lat="49.39864" lon="5.79636">
        <ele>274.60000610352</ele>
        <time>2024-06-09T09:29:23Z</time>
      </trkpt>
      <trkpt lat="49.39866" lon="5.7964">
        <ele>274.60000610352</ele>
        <time>2024-06-09T09:29:24Z</time>
      </trkpt>
      <trkpt lat="49.39871" lon="5.7965">
        <ele>274.60000610352</ele>
        <time>2024-06-09T09:29:26Z</time>
      </trkpt>
      <trkpt lat="49.39875" lon="5.79663">
        <ele>274.39999389648</ele>
        <time>2024-06-09T09:29:28Z</time>
      </trkpt>
      <trkpt lat="49.39879" lon="5.79679">
        <ele>274.20001220703</ele>
        <time>2024-06-09T09:29:30Z</time>
      </trkpt>
      <trkpt lat="49.39883" lon="5.79689">
        <ele>274.20001220703</ele>
        <time>2024-06-09T09:29:31Z</time>
      </trkpt>
      <trkpt lat="49.39886" lon="5.79697">
        <ele>274</ele>
        <time>2024-06-09T09:29:32Z</time>
      </trkpt>
      <trkpt lat="49.39892" lon="5.79717">
        <ele>273.39999389648</ele>
        <time>2024-06-09T09:29:34Z</time>
      </trkpt>
      <trkpt lat="49.39897" lon="5.79734">
        <ele>272.39999389648</ele>
        <time>2024-06-09T09:29:36Z</time>
      </trkpt>
      <trkpt lat="49.39902" lon="5.79751">
        <ele>271.20001220703</ele>
        <time>2024-06-09T09:29:38Z</time>
      </trkpt>
      <trkpt lat="49.39907" lon="5.79768">
        <ele>271</ele>
        <time>2024-06-09T09:29:40Z</time>
      </trkpt>
      <trkpt lat="49.39911" lon="5.7978">
        <ele>270.79998779297</ele>
        <time>2024-06-09T09:29:42Z</time>
      </trkpt>
      <trkpt lat="49.39913" lon="5.79796">
        <ele>270.79998779297</ele>
        <time>2024-06-09T09:29:44Z</time>
      </trkpt>
      <trkpt lat="49.39916" lon="5.79809">
        <ele>270.79998779297</ele>
        <time>2024-06-09T09:29:46Z</time>
      </trkpt>
      <trkpt lat="49.39917" lon="5.7982">
        <ele>270.79998779297</ele>
        <time>2024-06-09T09:29:48Z</time>
      </trkpt>
      <trkpt lat="49.39921" lon="5.79836">
        <ele>270.79998779297</ele>
        <time>2024-06-09T09:29:50Z</time>
      </trkpt>
      <trkpt lat="49.39921" lon="5.79845">
        <ele>271</ele>
        <time>2024-06-09T09:29:51Z</time>
      </trkpt>
      <trkpt lat="49.39922" lon="5.79854">
        <ele>271</ele>
        <time>2024-06-09T09:29:52Z</time>
      </trkpt>
      <trkpt lat="49.3992" lon="5.79867">
        <ele>271</ele>
        <time>2024-06-09T09:29:54Z</time>
      </trkpt>
      <trkpt lat="49.39919" lon="5.79881">
        <ele>271.20001220703</ele>
        <time>2024-06-09T09:29:56Z</time>
      </trkpt>
      <trkpt lat="49.3992" lon="5.79892">
        <ele>271.39999389648</ele>
        <time>2024-06-09T09:29:58Z</time>
      </trkpt>
      <trkpt lat="49.39918" lon="5.79901">
        <ele>271.60000610352</ele>
        <time>2024-06-09T09:30:00Z</time>
      </trkpt>
      <trkpt lat="49.39918" lon="5.79909">
        <ele>271.79998779297</ele>
        <time>2024-06-09T09:30:02Z</time>
      </trkpt>
      <trkpt lat="49.39918" lon="5.79914">
        <ele>272.39999389648</ele>
        <time>2024-06-09T09:30:04Z</time>
      </trkpt>
      <trkpt lat="49.39918" lon="5.79923">
        <ele>273.39999389648</ele>
        <time>2024-06-09T09:30:06Z</time>
      </trkpt>
      <trkpt lat="49.39918" lon="5.79927">
        <ele>274.20001220703</ele>
        <time>2024-06-09T09:30:07Z</time>
      </trkpt>
      <trkpt lat="49.39918" lon="5.79931">
        <ele>274.60000610352</ele>
        <time>2024-06-09T09:30:08Z</time>
      </trkpt>
      <trkpt lat="49.39918" lon="5.79941">
        <ele>275.60000610352</ele>
        <time>2024-06-09T09:30:10Z</time>
      </trkpt>
      <trkpt lat="49.39917" lon="5.79948">
        <ele>276.20001220703</ele>
        <time>2024-06-09T09:30:12Z</time>
      </trkpt>
      <trkpt lat="49.39916" lon="5.79954">
        <ele>276.79998779297</ele>
        <time>2024-06-09T09:30:14Z</time>
      </trkpt>
      <trkpt lat="49.39913" lon="5.79958">
        <ele>277.39999389648</ele>
        <time>2024-06-09T09:30:16Z</time>
      </trkpt>
      <trkpt lat="49.39911" lon="5.79961">
        <ele>277.60000610352</ele>
        <time>2024-06-09T09:30:17Z</time>
      </trkpt>
      <trkpt lat="49.39908" lon="5.79965">
        <ele>277.79998779297</ele>
        <time>2024-06-09T09:30:18Z</time>
      </trkpt>
      <trkpt lat="49.39901" lon="5.79971">
        <ele>277.79998779297</ele>
        <time>2024-06-09T09:30:20Z</time>
      </trkpt>
      <trkpt lat="49.39893" lon="5.79982">
        <ele>277.79998779297</ele>
        <time>2024-06-09T09:30:22Z</time>
      </trkpt>
      <trkpt lat="49.39888" lon="5.79988">
        <ele>277.79998779297</ele>
        <time>2024-06-09T09:30:23Z</time>
      </trkpt>
      <trkpt lat="49.39884" lon="5.79993">
        <ele>277.79998779297</ele>
        <time>2024-06-09T09:30:24Z</time>
      </trkpt>
      <trkpt lat="49.39876" lon="5.80001">
        <ele>277.79998779297</ele>
        <time>2024-06-09T09:30:26Z</time>
      </trkpt>
      <trkpt lat="49.39868" lon="5.80011">
        <ele>277.60000610352</ele>
        <time>2024-06-09T09:30:28Z</time>
      </trkpt>
      <trkpt lat="49.39863" lon="5.80016">
        <ele>277.20001220703</ele>
        <time>2024-06-09T09:30:29Z</time>
      </trkpt>
      <trkpt lat="49.39857" lon="5.80021">
        <ele>277</ele>
        <time>2024-06-09T09:30:30Z</time>
      </trkpt>
      <trkpt lat="49.39851" lon="5.80027">
        <ele>276.79998779297</ele>
        <time>2024-06-09T09:30:31Z</time>
      </trkpt>
      <trkpt lat="49.39845" lon="5.80034">
        <ele>276.39999389648</ele>
        <time>2024-06-09T09:30:32Z</time>
      </trkpt>
      <trkpt lat="49.39832" lon="5.80051">
        <ele>275.20001220703</ele>
        <time>2024-06-09T09:30:34Z</time>
      </trkpt>
      <trkpt lat="49.39826" lon="5.80058">
        <ele>274.20001220703</ele>
        <time>2024-06-09T09:30:35Z</time>
      </trkpt>
      <trkpt lat="49.3982" lon="5.80066">
        <ele>273.60000610352</ele>
        <time>2024-06-09T09:30:36Z</time>
      </trkpt>
      <trkpt lat="49.39812" lon="5.80078">
        <ele>272.79998779297</ele>
        <time>2024-06-09T09:30:38Z</time>
      </trkpt>
      <trkpt lat="49.39808" lon="5.80081">
        <ele>272.60000610352</ele>
        <time>2024-06-09T09:30:39Z</time>
      </trkpt>
      <trkpt lat="49.39804" lon="5.80084">
        <ele>272.39999389648</ele>
        <time>2024-06-09T09:30:40Z</time>
      </trkpt>
      <trkpt lat="49.39798" lon="5.80088">
        <ele>272.39999389648</ele>
        <time>2024-06-09T09:30:42Z</time>
      </trkpt>
      <trkpt lat="49.39793" lon="5.80093">
        <ele>272.20001220703</ele>
        <time>2024-06-09T09:30:44Z</time>
      </trkpt>
      <trkpt lat="49.39789" lon="5.80098">
        <ele>272.20001220703</ele>
        <time>2024-06-09T09:30:46Z</time>
      </trkpt>
      <trkpt lat="49.39786" lon="5.80103">
        <ele>272.20001220703</ele>
        <time>2024-06-09T09:30:48Z</time>
      </trkpt>
      <trkpt lat="49.39783" lon="5.80108">
        <ele>272.79998779297</ele>
        <time>2024-06-09T09:30:50Z</time>
      </trkpt>
      <trkpt lat="49.39779" lon="5.80113">
        <ele>273.60000610352</ele>
        <time>2024-06-09T09:30:52Z</time>
      </trkpt>
      <trkpt lat="49.39776" lon="5.80118">
        <ele>274.20001220703</ele>
        <time>2024-06-09T09:30:54Z</time>
      </trkpt>
      <trkpt lat="49.39773" lon="5.80122">
        <ele>275</ele>
        <time>2024-06-09T09:30:56Z</time>
      </trkpt>
      <trkpt lat="49.39771" lon="5.80123">
        <ele>275.39999389648</ele>
        <time>2024-06-09T09:30:57Z</time>
      </trkpt>
      <trkpt lat="49.39769" lon="5.80125">
        <ele>275.79998779297</ele>
        <time>2024-06-09T09:30:58Z</time>
      </trkpt>
      <trkpt lat="49.39766" lon="5.80129">
        <ele>276.39999389648</ele>
        <time>2024-06-09T09:31:00Z</time>
      </trkpt>
      <trkpt lat="49.39765" lon="5.80131">
        <ele>276.60000610352</ele>
        <time>2024-06-09T09:31:01Z</time>
      </trkpt>
      <trkpt lat="49.39764" lon="5.80133">
        <ele>277</ele>
        <time>2024-06-09T09:31:02Z</time>
      </trkpt>
      <trkpt lat="49.39761" lon="5.80137">
        <ele>277.79998779297</ele>
        <time>2024-06-09T09:31:04Z</time>
      </trkpt>
      <trkpt lat="49.39759" lon="5.80139">
        <ele>278.39999389648</ele>
        <time>2024-06-09T09:31:06Z</time>
      </trkpt>
      <trkpt lat="49.39759" lon="5.80141">
        <ele>279</ele>
        <time>2024-06-09T09:31:07Z</time>
      </trkpt>
      <trkpt lat="49.39757" lon="5.80142">
        <ele>279.20001220703</ele>
        <time>2024-06-09T09:31:08Z</time>
      </trkpt>
      <trkpt lat="49.39755" lon="5.80145">
        <ele>280</ele>
        <time>2024-06-09T09:31:10Z</time>
      </trkpt>
      <trkpt lat="49.39754" lon="5.80146">
        <ele>280.39999389648</ele>
        <time>2024-06-09T09:31:11Z</time>
      </trkpt>
      <trkpt lat="49.39753" lon="5.80147">
        <ele>280.60000610352</ele>
        <time>2024-06-09T09:31:12Z</time>
      </trkpt>
      <trkpt lat="49.3975" lon="5.80151">
        <ele>281.20001220703</ele>
        <time>2024-06-09T09:31:14Z</time>
      </trkpt>
      <trkpt lat="49.39748" lon="5.80153">
        <ele>281.79998779297</ele>
        <time>2024-06-09T09:31:16Z</time>
      </trkpt>
      <trkpt lat="49.39746" lon="5.80156">
        <ele>282.39999389648</ele>
        <time>2024-06-09T09:31:18Z</time>
      </trkpt>
      <trkpt lat="49.39744" lon="5.80161">
        <ele>283</ele>
        <time>2024-06-09T09:31:20Z</time>
      </trkpt>
      <trkpt lat="49.39742" lon="5.80164">
        <ele>283.60000610352</ele>
        <time>2024-06-09T09:31:22Z</time>
      </trkpt>
      <trkpt lat="49.3974" lon="5.80167">
        <ele>284.20001220703</ele>
        <time>2024-06-09T09:31:24Z</time>
      </trkpt>
      <trkpt lat="49.39738" lon="5.8017">
        <ele>284.79998779297</ele>
        <time>2024-06-09T09:31:26Z</time>
      </trkpt>
      <trkpt lat="49.39737" lon="5.80172">
        <ele>285.20001220703</ele>
        <time>2024-06-09T09:31:27Z</time>
      </trkpt>
      <trkpt lat="49.39736" lon="5.80174">
        <ele>285.39999389648</ele>
        <time>2024-06-09T09:31:28Z</time>
      </trkpt>
      <trkpt lat="49.39734" lon="5.80176">
        <ele>285.60000610352</ele>
        <time>2024-06-09T09:31:30Z</time>
      </trkpt>
      <trkpt lat="49.39732" lon="5.8018">
        <ele>286</ele>
        <time>2024-06-09T09:31:32Z</time>
      </trkpt>
      <trkpt lat="49.3973" lon="5.80184">
        <ele>286.60000610352</ele>
        <time>2024-06-09T09:31:34Z</time>
      </trkpt>
      <trkpt lat="49.39728" lon="5.80187">
        <ele>287</ele>
        <time>2024-06-09T09:31:36Z</time>
      </trkpt>
      <trkpt lat="49.39728" lon="5.80189">
        <ele>287.20001220703</ele>
        <time>2024-06-09T09:31:37Z</time>
      </trkpt>
      <trkpt lat="49.39727" lon="5.8019">
        <ele>287.60000610352</ele>
        <time>2024-06-09T09:31:38Z</time>
      </trkpt>
      <trkpt lat="49.39725" lon="5.80193">
        <ele>287.79998779297</ele>
        <time>2024-06-09T09:31:40Z</time>
      </trkpt>
      <trkpt lat="49.39723" lon="5.80198">
        <ele>288.20001220703</ele>
        <time>2024-06-09T09:31:42Z</time>
      </trkpt>
      <trkpt lat="49.39721" lon="5.80203">
        <ele>288.60000610352</ele>
        <time>2024-06-09T09:31:44Z</time>
      </trkpt>
      <trkpt lat="49.3972" lon="5.80205">
        <ele>288.79998779297</ele>
        <time>2024-06-09T09:31:45Z</time>
      </trkpt>
      <trkpt lat="49.3972" lon="5.80207">
        <ele>289</ele>
        <time>2024-06-09T09:31:46Z</time>
      </trkpt>
      <trkpt lat="49.39718" lon="5.8021">
        <ele>289.39999389648</ele>
        <time>2024-06-09T09:31:48Z</time>
      </trkpt>
      <trkpt lat="49.39718" lon="5.80212">
        <ele>289.60000610352</ele>
        <time>2024-06-09T09:31:49Z</time>
      </trkpt>
      <trkpt lat="49.39717" lon="5.80213">
        <ele>289.79998779297</ele>
        <time>2024-06-09T09:31:50Z</time>
      </trkpt>
      <trkpt lat="49.39716" lon="5.80216">
        <ele>290.39999389648</ele>
        <time>2024-06-09T09:31:52Z</time>
      </trkpt>
      <trkpt lat="49.39715" lon="5.80219">
        <ele>290.79998779297</ele>
        <time>2024-06-09T09:31:54Z</time>
      </trkpt>
      <trkpt lat="49.39713" lon="5.80223">
        <ele>291.39999389648</ele>
        <time>2024-06-09T09:31:56Z</time>
      </trkpt>
      <trkpt lat="49.39712" lon="5.80227">
        <ele>292</ele>
        <time>2024-06-09T09:31:58Z</time>
      </trkpt>
      <trkpt lat="49.3971" lon="5.80231">
        <ele>292.39999389648</ele>
        <time>2024-06-09T09:32:00Z</time>
      </trkpt>
      <trkpt lat="49.39709" lon="5.80235">
        <ele>293</ele>
        <time>2024-06-09T09:32:02Z</time>
      </trkpt>
      <trkpt lat="49.39708" lon="5.80237">
        <ele>293.20001220703</ele>
        <time>2024-06-09T09:32:03Z</time>
      </trkpt>
      <trkpt lat="49.39708" lon="5.80239">
        <ele>293.39999389648</ele>
        <time>2024-06-09T09:32:04Z</time>
      </trkpt>
      <trkpt lat="49.39707" lon="5.80243">
        <ele>293.79998779297</ele>
        <time>2024-06-09T09:32:06Z</time>
      </trkpt>
      <trkpt lat="49.39707" lon="5.80245">
        <ele>294</ele>
        <time>2024-06-09T09:32:07Z</time>
      </trkpt>
      <trkpt lat="49.39706" lon="5.80246">
        <ele>294.39999389648</ele>
        <time>2024-06-09T09:32:08Z</time>
      </trkpt>
      <trkpt lat="49.39706" lon="5.80249">
        <ele>294.60000610352</ele>
        <time>2024-06-09T09:32:10Z</time>
      </trkpt>
      <trkpt lat="49.39705" lon="5.80252">
        <ele>295</ele>
        <time>2024-06-09T09:32:12Z</time>
      </trkpt>
      <trkpt lat="49.39705" lon="5.80254">
        <ele>295.39999389648</ele>
        <time>2024-06-09T09:32:13Z</time>
      </trkpt>
      <trkpt lat="49.39705" lon="5.80255">
        <ele>295.39999389648</ele>
        <time>2024-06-09T09:32:14Z</time>
      </trkpt>
      <trkpt lat="49.39704" lon="5.80259">
        <ele>295.79998779297</ele>
        <time>2024-06-09T09:32:16Z</time>
      </trkpt>
      <trkpt lat="49.39703" lon="5.80262">
        <ele>296.39999389648</ele>
        <time>2024-06-09T09:32:18Z</time>
      </trkpt>
      <trkpt lat="49.39703" lon="5.80264">
        <ele>296.79998779297</ele>
        <time>2024-06-09T09:32:20Z</time>
      </trkpt>
      <trkpt lat="49.39702" lon="5.80268">
        <ele>297.20001220703</ele>
        <time>2024-06-09T09:32:22Z</time>
      </trkpt>
      <trkpt lat="49.39702" lon="5.8027">
        <ele>297.39999389648</ele>
        <time>2024-06-09T09:32:24Z</time>
      </trkpt>
      <trkpt lat="49.39702" lon="5.80274">
        <ele>297.79998779297</ele>
        <time>2024-06-09T09:32:26Z</time>
      </trkpt>
      <trkpt lat="49.39701" lon="5.80276">
        <ele>298</ele>
        <time>2024-06-09T09:32:27Z</time>
      </trkpt>
      <trkpt lat="49.39701" lon="5.80279">
        <ele>298.20001220703</ele>
        <time>2024-06-09T09:32:28Z</time>
      </trkpt>
      <trkpt lat="49.39701" lon="5.80283">
        <ele>298.79998779297</ele>
        <time>2024-06-09T09:32:30Z</time>
      </trkpt>
      <trkpt lat="49.39701" lon="5.80287">
        <ele>299</ele>
        <time>2024-06-09T09:32:32Z</time>
      </trkpt>
      <trkpt lat="49.39702" lon="5.80291">
        <ele>299.60000610352</ele>
        <time>2024-06-09T09:32:34Z</time>
      </trkpt>
      <trkpt lat="49.39702" lon="5.80294">
        <ele>299.79998779297</ele>
        <time>2024-06-09T09:32:35Z</time>
      </trkpt>
      <trkpt lat="49.39702" lon="5.80297">
        <ele>300</ele>
        <time>2024-06-09T09:32:36Z</time>
      </trkpt>
      <trkpt lat="49.39702" lon="5.80299">
        <ele>300.20001220703</ele>
        <time>2024-06-09T09:32:37Z</time>
      </trkpt>
      <trkpt lat="49.39702" lon="5.80301">
        <ele>300.39999389648</ele>
        <time>2024-06-09T09:32:38Z</time>
      </trkpt>
      <trkpt lat="49.39703" lon="5.80303">
        <ele>300.79998779297</ele>
        <time>2024-06-09T09:32:39Z</time>
      </trkpt>
      <trkpt lat="49.39703" lon="5.80306">
        <ele>301</ele>
        <time>2024-06-09T09:32:40Z</time>
      </trkpt>
      <trkpt lat="49.39704" lon="5.8031">
        <ele>301.39999389648</ele>
        <time>2024-06-09T09:32:42Z</time>
      </trkpt>
      <trkpt lat="49.39704" lon="5.80314">
        <ele>301.60000610352</ele>
        <time>2024-06-09T09:32:44Z</time>
      </trkpt>
      <trkpt lat="49.39705" lon="5.80316">
        <ele>302</ele>
        <time>2024-06-09T09:32:45Z</time>
      </trkpt>
      <trkpt lat="49.39705" lon="5.80318">
        <ele>302.20001220703</ele>
        <time>2024-06-09T09:32:46Z</time>
      </trkpt>
      <trkpt lat="49.39706" lon="5.80322">
        <ele>302.39999389648</ele>
        <time>2024-06-09T09:32:48Z</time>
      </trkpt>
      <trkpt lat="49.39706" lon="5.80324">
        <ele>302.39999389648</ele>
        <time>2024-06-09T09:32:49Z</time>
      </trkpt>
      <trkpt lat="49.39707" lon="5.80326">
        <ele>302.60000610352</ele>
        <time>2024-06-09T09:32:50Z</time>
      </trkpt>
      <trkpt lat="49.39707" lon="5.80328">
        <ele>302.79998779297</ele>
        <time>2024-06-09T09:32:51Z</time>
      </trkpt>
      <trkpt lat="49.39708" lon="5.80329">
        <ele>303</ele>
        <time>2024-06-09T09:32:52Z</time>
      </trkpt>
      <trkpt lat="49.39708" lon="5.80331">
        <ele>303.20001220703</ele>
        <time>2024-06-09T09:32:53Z</time>
      </trkpt>
      <trkpt lat="49.39708" lon="5.80332">
        <ele>303.20001220703</ele>
        <time>2024-06-09T09:32:54Z</time>
      </trkpt>
      <trkpt lat="49.39708" lon="5.80335">
        <ele>303.39999389648</ele>
        <time>2024-06-09T09:32:55Z</time>
      </trkpt>
      <trkpt lat="49.39709" lon="5.80337">
        <ele>303.60000610352</ele>
        <time>2024-06-09T09:32:56Z</time>
      </trkpt>
      <trkpt lat="49.3971" lon="5.80342">
        <ele>304</ele>
        <time>2024-06-09T09:32:58Z</time>
      </trkpt>
      <trkpt lat="49.39711" lon="5.80344">
        <ele>304.39999389648</ele>
        <time>2024-06-09T09:32:59Z</time>
      </trkpt>
      <trkpt lat="49.39712" lon="5.80347">
        <ele>304.60000610352</ele>
        <time>2024-06-09T09:33:00Z</time>
      </trkpt>
      <trkpt lat="49.39712" lon="5.80349">
        <ele>304.60000610352</ele>
        <time>2024-06-09T09:33:01Z</time>
      </trkpt>
      <trkpt lat="49.39713" lon="5.80351">
        <ele>304.79998779297</ele>
        <time>2024-06-09T09:33:02Z</time>
      </trkpt>
      <trkpt lat="49.39715" lon="5.80355">
        <ele>305</ele>
        <time>2024-06-09T09:33:04Z</time>
      </trkpt>
      <trkpt lat="49.39716" lon="5.80359">
        <ele>305.39999389648</ele>
        <time>2024-06-09T09:33:06Z</time>
      </trkpt>
      <trkpt lat="49.39716" lon="5.80361">
        <ele>305.60000610352</ele>
        <time>2024-06-09T09:33:07Z</time>
      </trkpt>
      <trkpt lat="49.39717" lon="5.80363">
        <ele>305.79998779297</ele>
        <time>2024-06-09T09:33:08Z</time>
      </trkpt>
      <trkpt lat="49.39718" lon="5.80367">
        <ele>306.20001220703</ele>
        <time>2024-06-09T09:33:10Z</time>
      </trkpt>
      <trkpt lat="49.39719" lon="5.80371">
        <ele>306.60000610352</ele>
        <time>2024-06-09T09:33:12Z</time>
      </trkpt>
      <trkpt lat="49.39719" lon="5.80372">
        <ele>306.79998779297</ele>
        <time>2024-06-09T09:33:13Z</time>
      </trkpt>
      <trkpt lat="49.3972" lon="5.80374">
        <ele>307</ele>
        <time>2024-06-09T09:33:14Z</time>
      </trkpt>
      <trkpt lat="49.3972" lon="5.80376">
        <ele>307</ele>
        <time>2024-06-09T09:33:15Z</time>
      </trkpt>
      <trkpt lat="49.3972" lon="5.80377">
        <ele>307.20001220703</ele>
        <time>2024-06-09T09:33:16Z</time>
      </trkpt>
      <trkpt lat="49.39721" lon="5.80382">
        <ele>307.60000610352</ele>
        <time>2024-06-09T09:33:18Z</time>
      </trkpt>
      <trkpt lat="49.39721" lon="5.80384">
        <ele>307.60000610352</ele>
        <time>2024-06-09T09:33:19Z</time>
      </trkpt>
      <trkpt lat="49.39722" lon="5.80386">
        <ele>307.79998779297</ele>
        <time>2024-06-09T09:33:20Z</time>
      </trkpt>
      <trkpt lat="49.39722" lon="5.80391">
        <ele>308</ele>
        <time>2024-06-09T09:33:22Z</time>
      </trkpt>
      <trkpt lat="49.39723" lon="5.80395">
        <ele>308.20001220703</ele>
        <time>2024-06-09T09:33:24Z</time>
      </trkpt>
      <trkpt lat="49.39725" lon="5.80399">
        <ele>308.60000610352</ele>
        <time>2024-06-09T09:33:26Z</time>
      </trkpt>
      <trkpt lat="49.39725" lon="5.80402">
        <ele>309</ele>
        <time>2024-06-09T09:33:27Z</time>
      </trkpt>
      <trkpt lat="49.39725" lon="5.80404">
        <ele>309</ele>
        <time>2024-06-09T09:33:28Z</time>
      </trkpt>
      <trkpt lat="49.39726" lon="5.8041">
        <ele>309.20001220703</ele>
        <time>2024-06-09T09:33:30Z</time>
      </trkpt>
      <trkpt lat="49.39727" lon="5.80416">
        <ele>309.39999389648</ele>
        <time>2024-06-09T09:33:32Z</time>
      </trkpt>
      <trkpt lat="49.39728" lon="5.80422">
        <ele>309.60000610352</ele>
        <time>2024-06-09T09:33:34Z</time>
      </trkpt>
      <trkpt lat="49.3973" lon="5.8043">
        <ele>310</ele>
        <time>2024-06-09T09:33:36Z</time>
      </trkpt>
      <trkpt lat="49.39732" lon="5.80437">
        <ele>310.20001220703</ele>
        <time>2024-06-09T09:33:38Z</time>
      </trkpt>
      <trkpt lat="49.39733" lon="5.80443">
        <ele>310.39999389648</ele>
        <time>2024-06-09T09:33:40Z</time>
      </trkpt>
      <trkpt lat="49.39734" lon="5.80449">
        <ele>310.79998779297</ele>
        <time>2024-06-09T09:33:42Z</time>
      </trkpt>
      <trkpt lat="49.39735" lon="5.80456">
        <ele>311</ele>
        <time>2024-06-09T09:33:44Z</time>
      </trkpt>
      <trkpt lat="49.39735" lon="5.80459">
        <ele>311.20001220703</ele>
        <time>2024-06-09T09:33:45Z</time>
      </trkpt>
      <trkpt lat="49.39735" lon="5.80462">
        <ele>311.20001220703</ele>
        <time>2024-06-09T09:33:46Z</time>
      </trkpt>
      <trkpt lat="49.39736" lon="5.80469">
        <ele>311.60000610352</ele>
        <time>2024-06-09T09:33:48Z</time>
      </trkpt>
      <trkpt lat="49.39737" lon="5.80472">
        <ele>311.60000610352</ele>
        <time>2024-06-09T09:33:49Z</time>
      </trkpt>
      <trkpt lat="49.39737" lon="5.80476">
        <ele>311.79998779297</ele>
        <time>2024-06-09T09:33:50Z</time>
      </trkpt>
      <trkpt lat="49.39738" lon="5.80483">
        <ele>312</ele>
        <time>2024-06-09T09:33:52Z</time>
      </trkpt>
      <trkpt lat="49.39739" lon="5.80489">
        <ele>312.20001220703</ele>
        <time>2024-06-09T09:33:54Z</time>
      </trkpt>
      <trkpt lat="49.39741" lon="5.80494">
        <ele>312.79998779297</ele>
        <time>2024-06-09T09:33:56Z</time>
      </trkpt>
      <trkpt lat="49.39743" lon="5.80499">
        <ele>313</ele>
        <time>2024-06-09T09:33:58Z</time>
      </trkpt>
      <trkpt lat="49.39744" lon="5.80501">
        <ele>313.20001220703</ele>
        <time>2024-06-09T09:33:59Z</time>
      </trkpt>
      <trkpt lat="49.39745" lon="5.80503">
        <ele>313.20001220703</ele>
        <time>2024-06-09T09:34:00Z</time>
      </trkpt>
      <trkpt lat="49.39747" lon="5.80508">
        <ele>313.60000610352</ele>
        <time>2024-06-09T09:34:02Z</time>
      </trkpt>
      <trkpt lat="49.39748" lon="5.80509">
        <ele>313.79998779297</ele>
        <time>2024-06-09T09:34:03Z</time>
      </trkpt>
      <trkpt lat="49.39749" lon="5.80512">
        <ele>314</ele>
        <time>2024-06-09T09:34:04Z</time>
      </trkpt>
      <trkpt lat="49.3975" lon="5.80515">
        <ele>314.20001220703</ele>
        <time>2024-06-09T09:34:05Z</time>
      </trkpt>
      <trkpt lat="49.39752" lon="5.80518">
        <ele>314.39999389648</ele>
        <time>2024-06-09T09:34:06Z</time>
      </trkpt>
      <trkpt lat="49.39753" lon="5.80524">
        <ele>314.79998779297</ele>
        <time>2024-06-09T09:34:08Z</time>
      </trkpt>
      <trkpt lat="49.39755" lon="5.80529">
        <ele>315.20001220703</ele>
        <time>2024-06-09T09:34:10Z</time>
      </trkpt>
      <trkpt lat="49.39756" lon="5.80532">
        <ele>315.39999389648</ele>
        <time>2024-06-09T09:34:11Z</time>
      </trkpt>
      <trkpt lat="49.39756" lon="5.80534">
        <ele>315.39999389648</ele>
        <time>2024-06-09T09:34:12Z</time>
      </trkpt>
      <trkpt lat="49.39758" lon="5.80541">
        <ele>316</ele>
        <time>2024-06-09T09:34:14Z</time>
      </trkpt>
      <trkpt lat="49.39759" lon="5.80548">
        <ele>316.39999389648</ele>
        <time>2024-06-09T09:34:16Z</time>
      </trkpt>
      <trkpt lat="49.3976" lon="5.8055">
        <ele>316.60000610352</ele>
        <time>2024-06-09T09:34:17Z</time>
      </trkpt>
      <trkpt lat="49.3976" lon="5.80553">
        <ele>316.79998779297</ele>
        <time>2024-06-09T09:34:18Z</time>
      </trkpt>
      <trkpt lat="49.39761" lon="5.80558">
        <ele>317</ele>
        <time>2024-06-09T09:34:20Z</time>
      </trkpt>
      <trkpt lat="49.39761" lon="5.80564">
        <ele>317.20001220703</ele>
        <time>2024-06-09T09:34:22Z</time>
      </trkpt>
      <trkpt lat="49.39762" lon="5.80571">
        <ele>317.60000610352</ele>
        <time>2024-06-09T09:34:24Z</time>
      </trkpt>
      <trkpt lat="49.39761" lon="5.80579">
        <ele>318</ele>
        <time>2024-06-09T09:34:26Z</time>
      </trkpt>
      <trkpt lat="49.3976" lon="5.80582">
        <ele>318.20001220703</ele>
        <time>2024-06-09T09:34:27Z</time>
      </trkpt>
      <trkpt lat="49.39759" lon="5.80586">
        <ele>318.39999389648</ele>
        <time>2024-06-09T09:34:28Z</time>
      </trkpt>
      <trkpt lat="49.39758" lon="5.80595">
        <ele>318.39999389648</ele>
        <time>2024-06-09T09:34:30Z</time>
      </trkpt>
      <trkpt lat="49.39757" lon="5.80599">
        <ele>318.60000610352</ele>
        <time>2024-06-09T09:34:31Z</time>
      </trkpt>
      <trkpt lat="49.39756" lon="5.80602">
        <ele>318.79998779297</ele>
        <time>2024-06-09T09:34:32Z</time>
      </trkpt>
      <trkpt lat="49.39755" lon="5.80607">
        <ele>319</ele>
        <time>2024-06-09T09:34:33Z</time>
      </trkpt>
      <trkpt lat="49.39754" lon="5.80611">
        <ele>319</ele>
        <time>2024-06-09T09:34:34Z</time>
      </trkpt>
      <trkpt lat="49.39752" lon="5.80619">
        <ele>319</ele>
        <time>2024-06-09T09:34:36Z</time>
      </trkpt>
      <trkpt lat="49.39751" lon="5.80627">
        <ele>319.20001220703</ele>
        <time>2024-06-09T09:34:38Z</time>
      </trkpt>
      <trkpt lat="49.39751" lon="5.8063">
        <ele>319.20001220703</ele>
        <time>2024-06-09T09:34:39Z</time>
      </trkpt>
      <trkpt lat="49.39751" lon="5.80634">
        <ele>319.20001220703</ele>
        <time>2024-06-09T09:34:40Z</time>
      </trkpt>
      <trkpt lat="49.3975" lon="5.8064">
        <ele>319.20001220703</ele>
        <time>2024-06-09T09:34:42Z</time>
      </trkpt>
      <trkpt lat="49.39749" lon="5.80646">
        <ele>319.39999389648</ele>
        <time>2024-06-09T09:34:44Z</time>
      </trkpt>
      <trkpt lat="49.39747" lon="5.80654">
        <ele>319.39999389648</ele>
        <time>2024-06-09T09:34:46Z</time>
      </trkpt>
      <trkpt lat="49.39743" lon="5.80663">
        <ele>319.39999389648</ele>
        <time>2024-06-09T09:34:48Z</time>
      </trkpt>
      <trkpt lat="49.39741" lon="5.80667">
        <ele>319.39999389648</ele>
        <time>2024-06-09T09:34:49Z</time>
      </trkpt>
      <trkpt lat="49.39739" lon="5.80672">
        <ele>319.39999389648</ele>
        <time>2024-06-09T09:34:50Z</time>
      </trkpt>
      <trkpt lat="49.39736" lon="5.80683">
        <ele>319.39999389648</ele>
        <time>2024-06-09T09:34:52Z</time>
      </trkpt>
      <trkpt lat="49.39734" lon="5.80688">
        <ele>319.39999389648</ele>
        <time>2024-06-09T09:34:53Z</time>
      </trkpt>
      <trkpt lat="49.39732" lon="5.80693">
        <ele>319.39999389648</ele>
        <time>2024-06-09T09:34:54Z</time>
      </trkpt>
      <trkpt lat="49.39728" lon="5.80704">
        <ele>319.39999389648</ele>
        <time>2024-06-09T09:34:56Z</time>
      </trkpt>
      <trkpt lat="49.39724" lon="5.80716">
        <ele>319</ele>
        <time>2024-06-09T09:34:58Z</time>
      </trkpt>
      <trkpt lat="49.39721" lon="5.80727">
        <ele>318.79998779297</ele>
        <time>2024-06-09T09:35:00Z</time>
      </trkpt>
      <trkpt lat="49.39716" lon="5.80741">
        <ele>318.20001220703</ele>
        <time>2024-06-09T09:35:02Z</time>
      </trkpt>
      <trkpt lat="49.39711" lon="5.80758">
        <ele>317.79998779297</ele>
        <time>2024-06-09T09:35:04Z</time>
      </trkpt>
      <trkpt lat="49.39708" lon="5.80766">
        <ele>317.60000610352</ele>
        <time>2024-06-09T09:35:05Z</time>
      </trkpt>
      <trkpt lat="49.39705" lon="5.80773">
        <ele>317.39999389648</ele>
        <time>2024-06-09T09:35:06Z</time>
      </trkpt>
      <trkpt lat="49.39703" lon="5.8078">
        <ele>317</ele>
        <time>2024-06-09T09:35:07Z</time>
      </trkpt>
      <trkpt lat="49.39701" lon="5.80787">
        <ele>316.79998779297</ele>
        <time>2024-06-09T09:35:08Z</time>
      </trkpt>
      <trkpt lat="49.39696" lon="5.80803">
        <ele>316.39999389648</ele>
        <time>2024-06-09T09:35:10Z</time>
      </trkpt>
      <trkpt lat="49.39694" lon="5.8081">
        <ele>316.20001220703</ele>
        <time>2024-06-09T09:35:11Z</time>
      </trkpt>
      <trkpt lat="49.39691" lon="5.80818">
        <ele>316</ele>
        <time>2024-06-09T09:35:12Z</time>
      </trkpt>
      <trkpt lat="49.39687" lon="5.80833">
        <ele>315.79998779297</ele>
        <time>2024-06-09T09:35:14Z</time>
      </trkpt>
      <trkpt lat="49.39681" lon="5.80852">
        <ele>315.60000610352</ele>
        <time>2024-06-09T09:35:16Z</time>
      </trkpt>
      <trkpt lat="49.39676" lon="5.80869">
        <ele>315.39999389648</ele>
        <time>2024-06-09T09:35:18Z</time>
      </trkpt>
      <trkpt lat="49.39672" lon="5.80883">
        <ele>315.39999389648</ele>
        <time>2024-06-09T09:35:20Z</time>
      </trkpt>
      <trkpt lat="49.39669" lon="5.80894">
        <ele>315.39999389648</ele>
        <time>2024-06-09T09:35:22Z</time>
      </trkpt>
      <trkpt lat="49.39667" lon="5.80904">
        <ele>315.39999389648</ele>
        <time>2024-06-09T09:35:24Z</time>
      </trkpt>
      <trkpt lat="49.39665" lon="5.80909">
        <ele>315.79998779297</ele>
        <time>2024-06-09T09:35:26Z</time>
      </trkpt>
      <trkpt lat="49.39664" lon="5.80912">
        <ele>316</ele>
        <time>2024-06-09T09:35:27Z</time>
      </trkpt>
      <trkpt lat="49.39662" lon="5.80916">
        <ele>316.39999389648</ele>
        <time>2024-06-09T09:35:28Z</time>
      </trkpt>
      <trkpt lat="49.3966" lon="5.80925">
        <ele>317.20001220703</ele>
        <time>2024-06-09T09:35:30Z</time>
      </trkpt>
      <trkpt lat="49.39655" lon="5.80935">
        <ele>317.79998779297</ele>
        <time>2024-06-09T09:35:32Z</time>
      </trkpt>
      <trkpt lat="49.39652" lon="5.8094">
        <ele>318</ele>
        <time>2024-06-09T09:35:33Z</time>
      </trkpt>
      <trkpt lat="49.39649" lon="5.80943">
        <ele>318</ele>
        <time>2024-06-09T09:35:34Z</time>
      </trkpt>
      <trkpt lat="49.39647" lon="5.80947">
        <ele>318</ele>
        <time>2024-06-09T09:35:35Z</time>
      </trkpt>
      <trkpt lat="49.39646" lon="5.80951">
        <ele>318.20001220703</ele>
        <time>2024-06-09T09:35:36Z</time>
      </trkpt>
      <trkpt lat="49.39646" lon="5.80956">
        <ele>318.20001220703</ele>
        <time>2024-06-09T09:35:37Z</time>
      </trkpt>
      <trkpt lat="49.39646" lon="5.80959">
        <ele>318.20001220703</ele>
        <time>2024-06-09T09:35:38Z</time>
      </trkpt>
      <trkpt lat="49.39645" lon="5.80967">
        <ele>318.20001220703</ele>
        <time>2024-06-09T09:35:40Z</time>
      </trkpt>
      <trkpt lat="49.39643" lon="5.80974">
        <ele>318.39999389648</ele>
        <time>2024-06-09T09:35:42Z</time>
      </trkpt>
      <trkpt lat="49.39641" lon="5.80984">
        <ele>318.39999389648</ele>
        <time>2024-06-09T09:35:44Z</time>
      </trkpt>
      <trkpt lat="49.39638" lon="5.80995">
        <ele>318.79998779297</ele>
        <time>2024-06-09T09:35:46Z</time>
      </trkpt>
      <trkpt lat="49.39633" lon="5.81006">
        <ele>318.79998779297</ele>
        <time>2024-06-09T09:35:48Z</time>
      </trkpt>
      <trkpt lat="49.39629" lon="5.81016">
        <ele>318.39999389648</ele>
        <time>2024-06-09T09:35:50Z</time>
      </trkpt>
      <trkpt lat="49.39629" lon="5.81021">
        <ele>318.39999389648</ele>
        <time>2024-06-09T09:35:51Z</time>
      </trkpt>
      <trkpt lat="49.39629" lon="5.81027">
        <ele>318.39999389648</ele>
        <time>2024-06-09T09:35:52Z</time>
      </trkpt>
      <trkpt lat="49.39628" lon="5.81037">
        <ele>318.39999389648</ele>
        <time>2024-06-09T09:35:54Z</time>
      </trkpt>
      <trkpt lat="49.39625" lon="5.81047">
        <ele>318</ele>
        <time>2024-06-09T09:35:56Z</time>
      </trkpt>
      <trkpt lat="49.39623" lon="5.81057">
        <ele>317.60000610352</ele>
        <time>2024-06-09T09:35:58Z</time>
      </trkpt>
      <trkpt lat="49.39621" lon="5.81066">
        <ele>317.39999389648</ele>
        <time>2024-06-09T09:36:00Z</time>
      </trkpt>
      <trkpt lat="49.39618" lon="5.81074">
        <ele>317.20001220703</ele>
        <time>2024-06-09T09:36:01Z</time>
      </trkpt>
      <trkpt lat="49.39617" lon="5.81081">
        <ele>317.20001220703</ele>
        <time>2024-06-09T09:36:02Z</time>
      </trkpt>
      <trkpt lat="49.39614" lon="5.81094">
        <ele>317</ele>
        <time>2024-06-09T09:36:04Z</time>
      </trkpt>
      <trkpt lat="49.39613" lon="5.81099">
        <ele>316.79998779297</ele>
        <time>2024-06-09T09:36:05Z</time>
      </trkpt>
      <trkpt lat="49.39611" lon="5.81106">
        <ele>316.60000610352</ele>
        <time>2024-06-09T09:36:06Z</time>
      </trkpt>
      <trkpt lat="49.3961" lon="5.81112">
        <ele>316.39999389648</ele>
        <time>2024-06-09T09:36:07Z</time>
      </trkpt>
      <trkpt lat="49.39608" lon="5.81119">
        <ele>316</ele>
        <time>2024-06-09T09:36:08Z</time>
      </trkpt>
      <trkpt lat="49.39606" lon="5.81126">
        <ele>315.39999389648</ele>
        <time>2024-06-09T09:36:09Z</time>
      </trkpt>
      <trkpt lat="49.39604" lon="5.81134">
        <ele>313.79998779297</ele>
        <time>2024-06-09T09:36:10Z</time>
      </trkpt>
      <trkpt lat="49.39602" lon="5.81143">
        <ele>312.20001220703</ele>
        <time>2024-06-09T09:36:11Z</time>
      </trkpt>
      <trkpt lat="49.396" lon="5.81152">
        <ele>310.39999389648</ele>
        <time>2024-06-09T09:36:12Z</time>
      </trkpt>
      <trkpt lat="49.39596" lon="5.81162">
        <ele>308.39999389648</ele>
        <time>2024-06-09T09:36:13Z</time>
      </trkpt>
      <trkpt lat="49.39592" lon="5.8117">
        <ele>305.79998779297</ele>
        <time>2024-06-09T09:36:14Z</time>
      </trkpt>
      <trkpt lat="49.39587" lon="5.81181">
        <ele>302.79998779297</ele>
        <time>2024-06-09T09:36:15Z</time>
      </trkpt>
      <trkpt lat="49.39581" lon="5.81192">
        <ele>300.20001220703</ele>
        <time>2024-06-09T09:36:16Z</time>
      </trkpt>
      <trkpt lat="49.39576" lon="5.81201">
        <ele>297.20001220703</ele>
        <time>2024-06-09T09:36:17Z</time>
      </trkpt>
      <trkpt lat="49.39571" lon="5.81207">
        <ele>290.60000610352</ele>
        <time>2024-06-09T09:36:18Z</time>
      </trkpt>
      <trkpt lat="49.39565" lon="5.8121">
        <ele>287.60000610352</ele>
        <time>2024-06-09T09:36:19Z</time>
      </trkpt>
      <trkpt lat="49.39558" lon="5.81215">
        <ele>284.60000610352</ele>
        <time>2024-06-09T09:36:20Z</time>
      </trkpt>
      <trkpt lat="49.39553" lon="5.81216">
        <ele>281.60000610352</ele>
        <time>2024-06-09T09:36:21Z</time>
      </trkpt>
      <trkpt lat="49.39548" lon="5.81215">
        <ele>279.20001220703</ele>
        <time>2024-06-09T09:36:22Z</time>
      </trkpt>
      <trkpt lat="49.39544" lon="5.81213">
        <ele>277.79998779297</ele>
        <time>2024-06-09T09:36:23Z</time>
      </trkpt>
      <trkpt lat="49.3954" lon="5.81211">
        <ele>277</ele>
        <time>2024-06-09T09:36:24Z</time>
      </trkpt>
      <trkpt lat="49.39537" lon="5.81208">
        <ele>276.60000610352</ele>
        <time>2024-06-09T09:36:25Z</time>
      </trkpt>
      <trkpt lat="49.39533" lon="5.81204">
        <ele>276.39999389648</ele>
        <time>2024-06-09T09:36:26Z</time>
      </trkpt>
      <trkpt lat="49.39525" lon="5.81199">
        <ele>276.20001220703</ele>
        <time>2024-06-09T09:36:28Z</time>
      </trkpt>
      <trkpt lat="49.39516" lon="5.81194">
        <ele>276</ele>
        <time>2024-06-09T09:36:30Z</time>
      </trkpt>
      <trkpt lat="49.39508" lon="5.8119">
        <ele>276</ele>
        <time>2024-06-09T09:36:32Z</time>
      </trkpt>
      <trkpt lat="49.39503" lon="5.81188">
        <ele>276</ele>
        <time>2024-06-09T09:36:33Z</time>
      </trkpt>
      <trkpt lat="49.39499" lon="5.81187">
        <ele>275.79998779297</ele>
        <time>2024-06-09T09:36:34Z</time>
      </trkpt>
      <trkpt lat="49.39489" lon="5.81184">
        <ele>275.60000610352</ele>
        <time>2024-06-09T09:36:36Z</time>
      </trkpt>
      <trkpt lat="49.3948" lon="5.81184">
        <ele>275.60000610352</ele>
        <time>2024-06-09T09:36:38Z</time>
      </trkpt>
      <trkpt lat="49.39475" lon="5.81184">
        <ele>275.60000610352</ele>
        <time>2024-06-09T09:36:39Z</time>
      </trkpt>
      <trkpt lat="49.3947" lon="5.81185">
        <ele>275.60000610352</ele>
        <time>2024-06-09T09:36:40Z</time>
      </trkpt>
      <trkpt lat="49.39461" lon="5.81188">
        <ele>275.39999389648</ele>
        <time>2024-06-09T09:36:42Z</time>
      </trkpt>
      <trkpt lat="49.39452" lon="5.81192">
        <ele>275.39999389648</ele>
        <time>2024-06-09T09:36:44Z</time>
      </trkpt>
      <trkpt lat="49.39448" lon="5.81195">
        <ele>275.39999389648</ele>
        <time>2024-06-09T09:36:45Z</time>
      </trkpt>
      <trkpt lat="49.39444" lon="5.81199">
        <ele>275.39999389648</ele>
        <time>2024-06-09T09:36:46Z</time>
      </trkpt>
      <trkpt lat="49.39436" lon="5.81205">
        <ele>275.20001220703</ele>
        <time>2024-06-09T09:36:48Z</time>
      </trkpt>
      <trkpt lat="49.39427" lon="5.81211">
        <ele>274.79998779297</ele>
        <time>2024-06-09T09:36:50Z</time>
      </trkpt>
      <trkpt lat="49.39423" lon="5.81214">
        <ele>274.79998779297</ele>
        <time>2024-06-09T09:36:51Z</time>
      </trkpt>
      <trkpt lat="49.39419" lon="5.81218">
        <ele>274.79998779297</ele>
        <time>2024-06-09T09:36:52Z</time>
      </trkpt>
      <trkpt lat="49.3941" lon="5.81224">
        <ele>274.60000610352</ele>
        <time>2024-06-09T09:36:54Z</time>
      </trkpt>
      <trkpt lat="49.39406" lon="5.81228">
        <ele>274.60000610352</ele>
        <time>2024-06-09T09:36:55Z</time>
      </trkpt>
      <trkpt lat="49.39403" lon="5.81231">
        <ele>274.39999389648</ele>
        <time>2024-06-09T09:36:56Z</time>
      </trkpt>
      <trkpt lat="49.39402" lon="5.81235">
        <ele>274.39999389648</ele>
        <time>2024-06-09T09:36:57Z</time>
      </trkpt>
      <trkpt lat="49.39401" lon="5.8124">
        <ele>274.39999389648</ele>
        <time>2024-06-09T09:36:58Z</time>
      </trkpt>
      <trkpt lat="49.394" lon="5.81251">
        <ele>274.20001220703</ele>
        <time>2024-06-09T09:37:00Z</time>
      </trkpt>
      <trkpt lat="49.394" lon="5.81257">
        <ele>274</ele>
        <time>2024-06-09T09:37:01Z</time>
      </trkpt>
      <trkpt lat="49.394" lon="5.81263">
        <ele>273.79998779297</ele>
        <time>2024-06-09T09:37:02Z</time>
      </trkpt>
      <trkpt lat="49.39401" lon="5.81275">
        <ele>273.79998779297</ele>
        <time>2024-06-09T09:37:04Z</time>
      </trkpt>
      <trkpt lat="49.39404" lon="5.81285">
        <ele>273.79998779297</ele>
        <time>2024-06-09T09:37:06Z</time>
      </trkpt>
      <trkpt lat="49.39405" lon="5.81294">
        <ele>273.79998779297</ele>
        <time>2024-06-09T09:37:08Z</time>
      </trkpt>
      <trkpt lat="49.39405" lon="5.81303">
        <ele>273.79998779297</ele>
        <time>2024-06-09T09:37:10Z</time>
      </trkpt>
      <trkpt lat="49.39403" lon="5.81314">
        <ele>273.79998779297</ele>
        <time>2024-06-09T09:37:12Z</time>
      </trkpt>
      <trkpt lat="49.39403" lon="5.81327">
        <ele>273.79998779297</ele>
        <time>2024-06-09T09:37:14Z</time>
      </trkpt>
      <trkpt lat="49.39402" lon="5.81333">
        <ele>273.79998779297</ele>
        <time>2024-06-09T09:37:15Z</time>
      </trkpt>
      <trkpt lat="49.39402" lon="5.81338">
        <ele>273.79998779297</ele>
        <time>2024-06-09T09:37:16Z</time>
      </trkpt>
      <trkpt lat="49.39403" lon="5.8135">
        <ele>273.79998779297</ele>
        <time>2024-06-09T09:37:18Z</time>
      </trkpt>
      <trkpt lat="49.39405" lon="5.81362">
        <ele>273.79998779297</ele>
        <time>2024-06-09T09:37:20Z</time>
      </trkpt>
      <trkpt lat="49.39407" lon="5.81374">
        <ele>273.79998779297</ele>
        <time>2024-06-09T09:37:22Z</time>
      </trkpt>
      <trkpt lat="49.39409" lon="5.81385">
        <ele>273.79998779297</ele>
        <time>2024-06-09T09:37:24Z</time>
      </trkpt>
      <trkpt lat="49.3941" lon="5.81396">
        <ele>273.79998779297</ele>
        <time>2024-06-09T09:37:26Z</time>
      </trkpt>
      <trkpt lat="49.3941" lon="5.81402">
        <ele>273.79998779297</ele>
        <time>2024-06-09T09:37:27Z</time>
      </trkpt>
      <trkpt lat="49.3941" lon="5.81407">
        <ele>273.79998779297</ele>
        <time>2024-06-09T09:37:28Z</time>
      </trkpt>
      <trkpt lat="49.3941" lon="5.81417">
        <ele>273.79998779297</ele>
        <time>2024-06-09T09:37:30Z</time>
      </trkpt>
      <trkpt lat="49.39411" lon="5.81427">
        <ele>274</ele>
        <time>2024-06-09T09:37:32Z</time>
      </trkpt>
      <trkpt lat="49.39411" lon="5.81437">
        <ele>274.20001220703</ele>
        <time>2024-06-09T09:37:34Z</time>
      </trkpt>
      <trkpt lat="49.39412" lon="5.81444">
        <ele>274.79998779297</ele>
        <time>2024-06-09T09:37:36Z</time>
      </trkpt>
      <trkpt lat="49.39412" lon="5.81452">
        <ele>275.20001220703</ele>
        <time>2024-06-09T09:37:38Z</time>
      </trkpt>
      <trkpt lat="49.39413" lon="5.8146">
        <ele>275.60000610352</ele>
        <time>2024-06-09T09:37:40Z</time>
      </trkpt>
      <trkpt lat="49.39413" lon="5.81464">
        <ele>275.79998779297</ele>
        <time>2024-06-09T09:37:41Z</time>
      </trkpt>
      <trkpt lat="49.39413" lon="5.81468">
        <ele>276</ele>
        <time>2024-06-09T09:37:42Z</time>
      </trkpt>
      <trkpt lat="49.39414" lon="5.81476">
        <ele>276.39999389648</ele>
        <time>2024-06-09T09:37:44Z</time>
      </trkpt>
      <trkpt lat="49.39414" lon="5.81482">
        <ele>277</ele>
        <time>2024-06-09T09:37:46Z</time>
      </trkpt>
      <trkpt lat="49.39415" lon="5.8149">
        <ele>277.20001220703</ele>
        <time>2024-06-09T09:37:48Z</time>
      </trkpt>
      <trkpt lat="49.39415" lon="5.81493">
        <ele>277.20001220703</ele>
        <time>2024-06-09T09:37:49Z</time>
      </trkpt>
      <trkpt lat="49.39415" lon="5.81497">
        <ele>277.60000610352</ele>
        <time>2024-06-09T09:37:50Z</time>
      </trkpt>
      <trkpt lat="49.39415" lon="5.81504">
        <ele>277.79998779297</ele>
        <time>2024-06-09T09:37:52Z</time>
      </trkpt>
      <trkpt lat="49.39415" lon="5.81511">
        <ele>278.39999389648</ele>
        <time>2024-06-09T09:37:54Z</time>
      </trkpt>
      <trkpt lat="49.39416" lon="5.81518">
        <ele>279</ele>
        <time>2024-06-09T09:37:56Z</time>
      </trkpt>
      <trkpt lat="49.39416" lon="5.81522">
        <ele>279.20001220703</ele>
        <time>2024-06-09T09:37:57Z</time>
      </trkpt>
      <trkpt lat="49.39416" lon="5.81526">
        <ele>279.39999389648</ele>
        <time>2024-06-09T09:37:58Z</time>
      </trkpt>
      <trkpt lat="49.39417" lon="5.81534">
        <ele>279.79998779297</ele>
        <time>2024-06-09T09:38:00Z</time>
      </trkpt>
      <trkpt lat="49.39418" lon="5.81542">
        <ele>279.79998779297</ele>
        <time>2024-06-09T09:38:02Z</time>
      </trkpt>
      <trkpt lat="49.39419" lon="5.81545">
        <ele>279.79998779297</ele>
        <time>2024-06-09T09:38:03Z</time>
      </trkpt>
      <trkpt lat="49.39419" lon="5.81549">
        <ele>280.20001220703</ele>
        <time>2024-06-09T09:38:04Z</time>
      </trkpt>
      <trkpt lat="49.39421" lon="5.81556">
        <ele>280.39999389648</ele>
        <time>2024-06-09T09:38:06Z</time>
      </trkpt>
      <trkpt lat="49.39422" lon="5.81563">
        <ele>280.79998779297</ele>
        <time>2024-06-09T09:38:08Z</time>
      </trkpt>
      <trkpt lat="49.39424" lon="5.8157">
        <ele>281</ele>
        <time>2024-06-09T09:38:10Z</time>
      </trkpt>
      <trkpt lat="49.39425" lon="5.81573">
        <ele>281</ele>
        <time>2024-06-09T09:38:11Z</time>
      </trkpt>
      <trkpt lat="49.39425" lon="5.81577">
        <ele>281.39999389648</ele>
        <time>2024-06-09T09:38:12Z</time>
      </trkpt>
      <trkpt lat="49.39427" lon="5.81584">
        <ele>281.79998779297</ele>
        <time>2024-06-09T09:38:14Z</time>
      </trkpt>
      <trkpt lat="49.39428" lon="5.8159">
        <ele>282</ele>
        <time>2024-06-09T09:38:16Z</time>
      </trkpt>
      <trkpt lat="49.39429" lon="5.81594">
        <ele>282.39999389648</ele>
        <time>2024-06-09T09:38:17Z</time>
      </trkpt>
      <trkpt lat="49.3943" lon="5.81597">
        <ele>282.39999389648</ele>
        <time>2024-06-09T09:38:18Z</time>
      </trkpt>
      <trkpt lat="49.39431" lon="5.81604">
        <ele>283</ele>
        <time>2024-06-09T09:38:20Z</time>
      </trkpt>
      <trkpt lat="49.39432" lon="5.81608">
        <ele>283.39999389648</ele>
        <time>2024-06-09T09:38:21Z</time>
      </trkpt>
      <trkpt lat="49.39433" lon="5.81611">
        <ele>283.60000610352</ele>
        <time>2024-06-09T09:38:22Z</time>
      </trkpt>
      <trkpt lat="49.39434" lon="5.81618">
        <ele>284</ele>
        <time>2024-06-09T09:38:24Z</time>
      </trkpt>
      <trkpt lat="49.39436" lon="5.81625">
        <ele>284.39999389648</ele>
        <time>2024-06-09T09:38:26Z</time>
      </trkpt>
      <trkpt lat="49.39437" lon="5.81628">
        <ele>284.39999389648</ele>
        <time>2024-06-09T09:38:27Z</time>
      </trkpt>
      <trkpt lat="49.39437" lon="5.81631">
        <ele>284.60000610352</ele>
        <time>2024-06-09T09:38:28Z</time>
      </trkpt>
      <trkpt lat="49.39439" lon="5.81638">
        <ele>285.20001220703</ele>
        <time>2024-06-09T09:38:30Z</time>
      </trkpt>
      <trkpt lat="49.3944" lon="5.81645">
        <ele>285.60000610352</ele>
        <time>2024-06-09T09:38:32Z</time>
      </trkpt>
      <trkpt lat="49.39442" lon="5.81652">
        <ele>285.60000610352</ele>
        <time>2024-06-09T09:38:34Z</time>
      </trkpt>
      <trkpt lat="49.39443" lon="5.81659">
        <ele>286</ele>
        <time>2024-06-09T09:38:36Z</time>
      </trkpt>
      <trkpt lat="49.39445" lon="5.81665">
        <ele>286.20001220703</ele>
        <time>2024-06-09T09:38:38Z</time>
      </trkpt>
      <trkpt lat="49.39447" lon="5.81672">
        <ele>286.79998779297</ele>
        <time>2024-06-09T09:38:40Z</time>
      </trkpt>
      <trkpt lat="49.39448" lon="5.81679">
        <ele>287.20001220703</ele>
        <time>2024-06-09T09:38:42Z</time>
      </trkpt>
      <trkpt lat="49.3945" lon="5.81686">
        <ele>287.39999389648</ele>
        <time>2024-06-09T09:38:44Z</time>
      </trkpt>
      <trkpt lat="49.39452" lon="5.81692">
        <ele>287.79998779297</ele>
        <time>2024-06-09T09:38:46Z</time>
      </trkpt>
      <trkpt lat="49.39453" lon="5.81696">
        <ele>287.79998779297</ele>
        <time>2024-06-09T09:38:47Z</time>
      </trkpt>
      <trkpt lat="49.39455" lon="5.81699">
        <ele>288</ele>
        <time>2024-06-09T09:38:48Z</time>
      </trkpt>
      <trkpt lat="49.39457" lon="5.81705">
        <ele>288.20001220703</ele>
        <time>2024-06-09T09:38:50Z</time>
      </trkpt>
      <trkpt lat="49.39458" lon="5.81708">
        <ele>288.20001220703</ele>
        <time>2024-06-09T09:38:51Z</time>
      </trkpt>
      <trkpt lat="49.3946" lon="5.81711">
        <ele>288.39999389648</ele>
        <time>2024-06-09T09:38:52Z</time>
      </trkpt>
      <trkpt lat="49.39461" lon="5.81714">
        <ele>288.60000610352</ele>
        <time>2024-06-09T09:38:53Z</time>
      </trkpt>
      <trkpt lat="49.39462" lon="5.81717">
        <ele>288.79998779297</ele>
        <time>2024-06-09T09:38:54Z</time>
      </trkpt>
      <trkpt lat="49.39464" lon="5.81719">
        <ele>289</ele>
        <time>2024-06-09T09:38:55Z</time>
      </trkpt>
      <trkpt lat="49.39466" lon="5.81722">
        <ele>289.39999389648</ele>
        <time>2024-06-09T09:38:56Z</time>
      </trkpt>
      <trkpt lat="49.39468" lon="5.81727">
        <ele>290</ele>
        <time>2024-06-09T09:38:58Z</time>
      </trkpt>
      <trkpt lat="49.39471" lon="5.81731">
        <ele>290.39999389648</ele>
        <time>2024-06-09T09:39:00Z</time>
      </trkpt>
      <trkpt lat="49.39472" lon="5.81733">
        <ele>290.60000610352</ele>
        <time>2024-06-09T09:39:01Z</time>
      </trkpt>
      <trkpt lat="49.39473" lon="5.81734">
        <ele>290.79998779297</ele>
        <time>2024-06-09T09:39:02Z</time>
      </trkpt>
      <trkpt lat="49.39476" lon="5.81738">
        <ele>290.79998779297</ele>
        <time>2024-06-09T09:39:04Z</time>
      </trkpt>
      <trkpt lat="49.39477" lon="5.8174">
        <ele>291</ele>
        <time>2024-06-09T09:39:05Z</time>
      </trkpt>
      <trkpt lat="49.39479" lon="5.81741">
        <ele>291.20001220703</ele>
        <time>2024-06-09T09:39:06Z</time>
      </trkpt>
      <trkpt lat="49.39482" lon="5.81744">
        <ele>292</ele>
        <time>2024-06-09T09:39:08Z</time>
      </trkpt>
      <trkpt lat="49.39485" lon="5.81747">
        <ele>292.20001220703</ele>
        <time>2024-06-09T09:39:10Z</time>
      </trkpt>
      <trkpt lat="49.39487" lon="5.8175">
        <ele>292.60000610352</ele>
        <time>2024-06-09T09:39:12Z</time>
      </trkpt>
      <trkpt lat="49.3949" lon="5.81753">
        <ele>293.20001220703</ele>
        <time>2024-06-09T09:39:14Z</time>
      </trkpt>
      <trkpt lat="49.39492" lon="5.81756">
        <ele>293.79998779297</ele>
        <time>2024-06-09T09:39:16Z</time>
      </trkpt>
      <trkpt lat="49.39495" lon="5.81758">
        <ele>294.20001220703</ele>
        <time>2024-06-09T09:39:18Z</time>
      </trkpt>
      <trkpt lat="49.39496" lon="5.8176">
        <ele>294.39999389648</ele>
        <time>2024-06-09T09:39:19Z</time>
      </trkpt>
      <trkpt lat="49.39497" lon="5.81762">
        <ele>294.60000610352</ele>
        <time>2024-06-09T09:39:20Z</time>
      </trkpt>
      <trkpt lat="49.395" lon="5.81765">
        <ele>294.79998779297</ele>
        <time>2024-06-09T09:39:22Z</time>
      </trkpt>
      <trkpt lat="49.39503" lon="5.81767">
        <ele>295.20001220703</ele>
        <time>2024-06-09T09:39:24Z</time>
      </trkpt>
      <trkpt lat="49.39505" lon="5.81769">
        <ele>295.39999389648</ele>
        <time>2024-06-09T09:39:25Z</time>
      </trkpt>
      <trkpt lat="49.39506" lon="5.8177">
        <ele>295.60000610352</ele>
        <time>2024-06-09T09:39:26Z</time>
      </trkpt>
      <trkpt lat="49.39508" lon="5.81772">
        <ele>296</ele>
        <time>2024-06-09T09:39:28Z</time>
      </trkpt>
      <trkpt lat="49.39509" lon="5.81775">
        <ele>296.20001220703</ele>
        <time>2024-06-09T09:39:30Z</time>
      </trkpt>
      <trkpt lat="49.39509" lon="5.81776">
        <ele>296.20001220703</ele>
        <time>2024-06-09T09:39:31Z</time>
      </trkpt>
      <trkpt lat="49.39508" lon="5.81779">
        <ele>296.39999389648</ele>
        <time>2024-06-09T09:39:32Z</time>
      </trkpt>
      <trkpt lat="49.39508" lon="5.81786">
        <ele>296.39999389648</ele>
        <time>2024-06-09T09:39:34Z</time>
      </trkpt>
      <trkpt lat="49.39508" lon="5.81793">
        <ele>296.39999389648</ele>
        <time>2024-06-09T09:39:35Z</time>
      </trkpt>
      <trkpt lat="49.3951" lon="5.81799">
        <ele>296.39999389648</ele>
        <time>2024-06-09T09:39:36Z</time>
      </trkpt>
      <trkpt lat="49.39515" lon="5.81814">
        <ele>296.39999389648</ele>
        <time>2024-06-09T09:39:38Z</time>
      </trkpt>
      <trkpt lat="49.39519" lon="5.81822">
        <ele>296.39999389648</ele>
        <time>2024-06-09T09:39:39Z</time>
      </trkpt>
      <trkpt lat="49.39522" lon="5.81832">
        <ele>296.20001220703</ele>
        <time>2024-06-09T09:39:40Z</time>
      </trkpt>
      <trkpt lat="49.39526" lon="5.8184">
        <ele>295.79998779297</ele>
        <time>2024-06-09T09:39:41Z</time>
      </trkpt>
      <trkpt lat="49.39531" lon="5.81847">
        <ele>295</ele>
        <time>2024-06-09T09:39:42Z</time>
      </trkpt>
      <trkpt lat="49.39539" lon="5.81863">
        <ele>293.20001220703</ele>
        <time>2024-06-09T09:39:44Z</time>
      </trkpt>
      <trkpt lat="49.39543" lon="5.81869">
        <ele>292.39999389648</ele>
        <time>2024-06-09T09:39:45Z</time>
      </trkpt>
      <trkpt lat="49.39547" lon="5.81875">
        <ele>291.79998779297</ele>
        <time>2024-06-09T09:39:46Z</time>
      </trkpt>
      <trkpt lat="49.39553" lon="5.81883">
        <ele>291.39999389648</ele>
        <time>2024-06-09T09:39:48Z</time>
      </trkpt>
      <trkpt lat="49.39557" lon="5.8189">
        <ele>291.20001220703</ele>
        <time>2024-06-09T09:39:50Z</time>
      </trkpt>
      <trkpt lat="49.39561" lon="5.81895">
        <ele>291.20001220703</ele>
        <time>2024-06-09T09:39:52Z</time>
      </trkpt>
      <trkpt lat="49.39563" lon="5.81899">
        <ele>291.20001220703</ele>
        <time>2024-06-09T09:39:53Z</time>
      </trkpt>
      <trkpt lat="49.39566" lon="5.81902">
        <ele>291.20001220703</ele>
        <time>2024-06-09T09:39:54Z</time>
      </trkpt>
      <trkpt lat="49.3957" lon="5.81908">
        <ele>291.60000610352</ele>
        <time>2024-06-09T09:39:56Z</time>
      </trkpt>
      <trkpt lat="49.39575" lon="5.81914">
        <ele>292.60000610352</ele>
        <time>2024-06-09T09:39:58Z</time>
      </trkpt>
      <trkpt lat="49.39576" lon="5.81916">
        <ele>293</ele>
        <time>2024-06-09T09:39:59Z</time>
      </trkpt>
      <trkpt lat="49.39578" lon="5.81918">
        <ele>293.39999389648</ele>
        <time>2024-06-09T09:40:00Z</time>
      </trkpt>
      <trkpt lat="49.39581" lon="5.81922">
        <ele>294</ele>
        <time>2024-06-09T09:40:02Z</time>
      </trkpt>
      <trkpt lat="49.39584" lon="5.81925">
        <ele>294.39999389648</ele>
        <time>2024-06-09T09:40:04Z</time>
      </trkpt>
      <trkpt lat="49.39586" lon="5.81929">
        <ele>295</ele>
        <time>2024-06-09T09:40:06Z</time>
      </trkpt>
      <trkpt lat="49.39588" lon="5.81931">
        <ele>295.20001220703</ele>
        <time>2024-06-09T09:40:07Z</time>
      </trkpt>
      <trkpt lat="49.39589" lon="5.81933">
        <ele>295.39999389648</ele>
        <time>2024-06-09T09:40:08Z</time>
      </trkpt>
      <trkpt lat="49.39593" lon="5.81938">
        <ele>295.79998779297</ele>
        <time>2024-06-09T09:40:10Z</time>
      </trkpt>
      <trkpt lat="49.39597" lon="5.81943">
        <ele>296.39999389648</ele>
        <time>2024-06-09T09:40:12Z</time>
      </trkpt>
      <trkpt lat="49.39601" lon="5.81948">
        <ele>296.79998779297</ele>
        <time>2024-06-09T09:40:14Z</time>
      </trkpt>
      <trkpt lat="49.39604" lon="5.81952">
        <ele>297</ele>
        <time>2024-06-09T09:40:16Z</time>
      </trkpt>
      <trkpt lat="49.39608" lon="5.81959">
        <ele>297.39999389648</ele>
        <time>2024-06-09T09:40:18Z</time>
      </trkpt>
      <trkpt lat="49.3961" lon="5.81962">
        <ele>297.39999389648</ele>
        <time>2024-06-09T09:40:19Z</time>
      </trkpt>
      <trkpt lat="49.39613" lon="5.81965">
        <ele>297.60000610352</ele>
        <time>2024-06-09T09:40:20Z</time>
      </trkpt>
      <trkpt lat="49.39617" lon="5.81972">
        <ele>298</ele>
        <time>2024-06-09T09:40:22Z</time>
      </trkpt>
      <trkpt lat="49.39621" lon="5.81979">
        <ele>298.20001220703</ele>
        <time>2024-06-09T09:40:24Z</time>
      </trkpt>
      <trkpt lat="49.39624" lon="5.81984">
        <ele>298.60000610352</ele>
        <time>2024-06-09T09:40:26Z</time>
      </trkpt>
      <trkpt lat="49.39627" lon="5.8199">
        <ele>298.60000610352</ele>
        <time>2024-06-09T09:40:28Z</time>
      </trkpt>
      <trkpt lat="49.3963" lon="5.81996">
        <ele>298.60000610352</ele>
        <time>2024-06-09T09:40:30Z</time>
      </trkpt>
      <trkpt lat="49.39634" lon="5.82002">
        <ele>298.79998779297</ele>
        <time>2024-06-09T09:40:32Z</time>
      </trkpt>
      <trkpt lat="49.39638" lon="5.82008">
        <ele>298.79998779297</ele>
        <time>2024-06-09T09:40:34Z</time>
      </trkpt>
      <trkpt lat="49.39642" lon="5.82014">
        <ele>299</ele>
        <time>2024-06-09T09:40:36Z</time>
      </trkpt>
      <trkpt lat="49.39645" lon="5.8202">
        <ele>299.20001220703</ele>
        <time>2024-06-09T09:40:38Z</time>
      </trkpt>
      <trkpt lat="49.3965" lon="5.82027">
        <ele>299.60000610352</ele>
        <time>2024-06-09T09:40:40Z</time>
      </trkpt>
      <trkpt lat="49.39652" lon="5.8203">
        <ele>299.60000610352</ele>
        <time>2024-06-09T09:40:41Z</time>
      </trkpt>
      <trkpt lat="49.39654" lon="5.82033">
        <ele>299.60000610352</ele>
        <time>2024-06-09T09:40:42Z</time>
      </trkpt>
      <trkpt lat="49.39658" lon="5.82037">
        <ele>299.79998779297</ele>
        <time>2024-06-09T09:40:43Z</time>
      </trkpt>
      <trkpt lat="49.3966" lon="5.82041">
        <ele>299.79998779297</ele>
        <time>2024-06-09T09:40:44Z</time>
      </trkpt>
      <trkpt lat="49.39665" lon="5.82049">
        <ele>300</ele>
        <time>2024-06-09T09:40:46Z</time>
      </trkpt>
      <trkpt lat="49.3967" lon="5.82056">
        <ele>300.20001220703</ele>
        <time>2024-06-09T09:40:48Z</time>
      </trkpt>
      <trkpt lat="49.39672" lon="5.8206">
        <ele>300.20001220703</ele>
        <time>2024-06-09T09:40:49Z</time>
      </trkpt>
      <trkpt lat="49.39674" lon="5.82064">
        <ele>300.20001220703</ele>
        <time>2024-06-09T09:40:50Z</time>
      </trkpt>
      <trkpt lat="49.39679" lon="5.82072">
        <ele>300.20001220703</ele>
        <time>2024-06-09T09:40:52Z</time>
      </trkpt>
      <trkpt lat="49.39684" lon="5.82079">
        <ele>300.20001220703</ele>
        <time>2024-06-09T09:40:54Z</time>
      </trkpt>
      <trkpt lat="49.39688" lon="5.82088">
        <ele>300.20001220703</ele>
        <time>2024-06-09T09:40:56Z</time>
      </trkpt>
      <trkpt lat="49.39693" lon="5.82098">
        <ele>300.20001220703</ele>
        <time>2024-06-09T09:40:58Z</time>
      </trkpt>
      <trkpt lat="49.39697" lon="5.82107">
        <ele>300.20001220703</ele>
        <time>2024-06-09T09:41:00Z</time>
      </trkpt>
      <trkpt lat="49.397" lon="5.82112">
        <ele>300.20001220703</ele>
        <time>2024-06-09T09:41:01Z</time>
      </trkpt>
      <trkpt lat="49.39703" lon="5.82117">
        <ele>300</ele>
        <time>2024-06-09T09:41:02Z</time>
      </trkpt>
      <trkpt lat="49.39707" lon="5.82128">
        <ele>300</ele>
        <time>2024-06-09T09:41:04Z</time>
      </trkpt>
      <trkpt lat="49.39712" lon="5.82138">
        <ele>299.79998779297</ele>
        <time>2024-06-09T09:41:06Z</time>
      </trkpt>
      <trkpt lat="49.39715" lon="5.82149">
        <ele>299.79998779297</ele>
        <time>2024-06-09T09:41:08Z</time>
      </trkpt>
      <trkpt lat="49.39718" lon="5.82159">
        <ele>299.79998779297</ele>
        <time>2024-06-09T09:41:10Z</time>
      </trkpt>
      <trkpt lat="49.3972" lon="5.8217">
        <ele>299.79998779297</ele>
        <time>2024-06-09T09:41:12Z</time>
      </trkpt>
      <trkpt lat="49.39722" lon="5.82179">
        <ele>299.79998779297</ele>
        <time>2024-06-09T09:41:14Z</time>
      </trkpt>
      <trkpt lat="49.39725" lon="5.82189">
        <ele>299.79998779297</ele>
        <time>2024-06-09T09:41:16Z</time>
      </trkpt>
      <trkpt lat="49.39726" lon="5.82198">
        <ele>299.79998779297</ele>
        <time>2024-06-09T09:41:18Z</time>
      </trkpt>
      <trkpt lat="49.39727" lon="5.82211">
        <ele>299.79998779297</ele>
        <time>2024-06-09T09:41:20Z</time>
      </trkpt>
      <trkpt lat="49.39728" lon="5.82226">
        <ele>299.79998779297</ele>
        <time>2024-06-09T09:41:22Z</time>
      </trkpt>
      <trkpt lat="49.39729" lon="5.82241">
        <ele>299.79998779297</ele>
        <time>2024-06-09T09:41:24Z</time>
      </trkpt>
      <trkpt lat="49.39729" lon="5.8225">
        <ele>299.79998779297</ele>
        <time>2024-06-09T09:41:25Z</time>
      </trkpt>
      <trkpt lat="49.39729" lon="5.82257">
        <ele>299.60000610352</ele>
        <time>2024-06-09T09:41:26Z</time>
      </trkpt>
      <trkpt lat="49.39729" lon="5.82274">
        <ele>299</ele>
        <time>2024-06-09T09:41:28Z</time>
      </trkpt>
      <trkpt lat="49.39729" lon="5.82289">
        <ele>298.39999389648</ele>
        <time>2024-06-09T09:41:30Z</time>
      </trkpt>
      <trkpt lat="49.39727" lon="5.82302">
        <ele>298</ele>
        <time>2024-06-09T09:41:32Z</time>
      </trkpt>
      <trkpt lat="49.39724" lon="5.82315">
        <ele>298</ele>
        <time>2024-06-09T09:41:34Z</time>
      </trkpt>
      <trkpt lat="49.3972" lon="5.82329">
        <ele>297.79998779297</ele>
        <time>2024-06-09T09:41:36Z</time>
      </trkpt>
      <trkpt lat="49.39713" lon="5.82343">
        <ele>297.79998779297</ele>
        <time>2024-06-09T09:41:38Z</time>
      </trkpt>
      <trkpt lat="49.39704" lon="5.82359">
        <ele>297.60000610352</ele>
        <time>2024-06-09T09:41:40Z</time>
      </trkpt>
      <trkpt lat="49.39692" lon="5.82375">
        <ele>297.20001220703</ele>
        <time>2024-06-09T09:41:42Z</time>
      </trkpt>
      <trkpt lat="49.39685" lon="5.82385">
        <ele>296.79998779297</ele>
        <time>2024-06-09T09:41:43Z</time>
      </trkpt>
      <trkpt lat="49.39678" lon="5.82394">
        <ele>296.39999389648</ele>
        <time>2024-06-09T09:41:44Z</time>
      </trkpt>
      <trkpt lat="49.39669" lon="5.82406">
        <ele>295.60000610352</ele>
        <time>2024-06-09T09:41:45Z</time>
      </trkpt>
      <trkpt lat="49.39662" lon="5.82416">
        <ele>294.39999389648</ele>
        <time>2024-06-09T09:41:46Z</time>
      </trkpt>
      <trkpt lat="49.39653" lon="5.82427">
        <ele>292.20001220703</ele>
        <time>2024-06-09T09:41:47Z</time>
      </trkpt>
      <trkpt lat="49.39643" lon="5.82439">
        <ele>290.20001220703</ele>
        <time>2024-06-09T09:41:48Z</time>
      </trkpt>
      <trkpt lat="49.39633" lon="5.82451">
        <ele>288</ele>
        <time>2024-06-09T09:41:49Z</time>
      </trkpt>
      <trkpt lat="49.39625" lon="5.82461">
        <ele>285.79998779297</ele>
        <time>2024-06-09T09:41:50Z</time>
      </trkpt>
      <trkpt lat="49.39617" lon="5.82469">
        <ele>283.79998779297</ele>
        <time>2024-06-09T09:41:51Z</time>
      </trkpt>
      <trkpt lat="49.3961" lon="5.82477">
        <ele>282</ele>
        <time>2024-06-09T09:41:52Z</time>
      </trkpt>
      <trkpt lat="49.39599" lon="5.82491">
        <ele>280.60000610352</ele>
        <time>2024-06-09T09:41:54Z</time>
      </trkpt>
      <trkpt lat="49.3959" lon="5.82505">
        <ele>280.20001220703</ele>
        <time>2024-06-09T09:41:56Z</time>
      </trkpt>
      <trkpt lat="49.39583" lon="5.82516">
        <ele>280</ele>
        <time>2024-06-09T09:41:58Z</time>
      </trkpt>
      <trkpt lat="49.39578" lon="5.82524">
        <ele>280</ele>
        <time>2024-06-09T09:42:00Z</time>
      </trkpt>
      <trkpt lat="49.39575" lon="5.82528">
        <ele>280.20001220703</ele>
        <time>2024-06-09T09:42:01Z</time>
      </trkpt>
      <trkpt lat="49.39573" lon="5.82531">
        <ele>280.60000610352</ele>
        <time>2024-06-09T09:42:02Z</time>
      </trkpt>
      <trkpt lat="49.3957" lon="5.82535">
        <ele>281.60000610352</ele>
        <time>2024-06-09T09:42:04Z</time>
      </trkpt>
      <trkpt lat="49.39567" lon="5.82539">
        <ele>282.79998779297</ele>
        <time>2024-06-09T09:42:06Z</time>
      </trkpt>
      <trkpt lat="49.39563" lon="5.82544">
        <ele>283.60000610352</ele>
        <time>2024-06-09T09:42:08Z</time>
      </trkpt>
      <trkpt lat="49.39561" lon="5.82546">
        <ele>284.20001220703</ele>
        <time>2024-06-09T09:42:09Z</time>
      </trkpt>
      <trkpt lat="49.39559" lon="5.82547">
        <ele>284.39999389648</ele>
        <time>2024-06-09T09:42:10Z</time>
      </trkpt>
      <trkpt lat="49.39554" lon="5.8255">
        <ele>285</ele>
        <time>2024-06-09T09:42:12Z</time>
      </trkpt>
      <trkpt lat="49.39551" lon="5.82551">
        <ele>285.39999389648</ele>
        <time>2024-06-09T09:42:13Z</time>
      </trkpt>
      <trkpt lat="49.39549" lon="5.82553">
        <ele>285.79998779297</ele>
        <time>2024-06-09T09:42:14Z</time>
      </trkpt>
      <trkpt lat="49.39544" lon="5.82556">
        <ele>286.20001220703</ele>
        <time>2024-06-09T09:42:16Z</time>
      </trkpt>
      <trkpt lat="49.39539" lon="5.82559">
        <ele>286.60000610352</ele>
        <time>2024-06-09T09:42:18Z</time>
      </trkpt>
      <trkpt lat="49.39534" lon="5.82563">
        <ele>286.79998779297</ele>
        <time>2024-06-09T09:42:20Z</time>
      </trkpt>
      <trkpt lat="49.39529" lon="5.82566">
        <ele>287</ele>
        <time>2024-06-09T09:42:22Z</time>
      </trkpt>
      <trkpt lat="49.39525" lon="5.82569">
        <ele>287</ele>
        <time>2024-06-09T09:42:24Z</time>
      </trkpt>
      <trkpt lat="49.3952" lon="5.82574">
        <ele>287</ele>
        <time>2024-06-09T09:42:26Z</time>
      </trkpt>
      <trkpt lat="49.39517" lon="5.82576">
        <ele>287</ele>
        <time>2024-06-09T09:42:27Z</time>
      </trkpt>
      <trkpt lat="49.39514" lon="5.82578">
        <ele>287.20001220703</ele>
        <time>2024-06-09T09:42:28Z</time>
      </trkpt>
      <trkpt lat="49.3951" lon="5.82581">
        <ele>287.20001220703</ele>
        <time>2024-06-09T09:42:30Z</time>
      </trkpt>
      <trkpt lat="49.39507" lon="5.82582">
        <ele>287.20001220703</ele>
        <time>2024-06-09T09:42:32Z</time>
      </trkpt>
      <trkpt lat="49.39502" lon="5.82584">
        <ele>287.39999389648</ele>
        <time>2024-06-09T09:42:34Z</time>
      </trkpt>
      <trkpt lat="49.39501" lon="5.82586">
        <ele>287.60000610352</ele>
        <time>2024-06-09T09:42:35Z</time>
      </trkpt>
      <trkpt lat="49.39498" lon="5.82586">
        <ele>287.79998779297</ele>
        <time>2024-06-09T09:42:36Z</time>
      </trkpt>
      <trkpt lat="49.39495" lon="5.82587">
        <ele>288.39999389648</ele>
        <time>2024-06-09T09:42:38Z</time>
      </trkpt>
      <trkpt lat="49.39491" lon="5.82589">
        <ele>288.79998779297</ele>
        <time>2024-06-09T09:42:40Z</time>
      </trkpt>
      <trkpt lat="49.39487" lon="5.82589">
        <ele>289</ele>
        <time>2024-06-09T09:42:42Z</time>
      </trkpt>
      <trkpt lat="49.39485" lon="5.8259">
        <ele>289.20001220703</ele>
        <time>2024-06-09T09:42:43Z</time>
      </trkpt>
      <trkpt lat="49.39483" lon="5.8259">
        <ele>289.39999389648</ele>
        <time>2024-06-09T09:42:44Z</time>
      </trkpt>
      <trkpt lat="49.39479" lon="5.82592">
        <ele>289.79998779297</ele>
        <time>2024-06-09T09:42:46Z</time>
      </trkpt>
      <trkpt lat="49.39477" lon="5.82592">
        <ele>289.79998779297</ele>
        <time>2024-06-09T09:42:47Z</time>
      </trkpt>
      <trkpt lat="49.39474" lon="5.82593">
        <ele>290</ele>
        <time>2024-06-09T09:42:48Z</time>
      </trkpt>
      <trkpt lat="49.39471" lon="5.82594">
        <ele>290.20001220703</ele>
        <time>2024-06-09T09:42:49Z</time>
      </trkpt>
      <trkpt lat="49.39468" lon="5.82594">
        <ele>290.39999389648</ele>
        <time>2024-06-09T09:42:50Z</time>
      </trkpt>
      <trkpt lat="49.39463" lon="5.82596">
        <ele>290.60000610352</ele>
        <time>2024-06-09T09:42:52Z</time>
      </trkpt>
      <trkpt lat="49.39461" lon="5.82597">
        <ele>290.79998779297</ele>
        <time>2024-06-09T09:42:53Z</time>
      </trkpt>
      <trkpt lat="49.39459" lon="5.82597">
        <ele>291</ele>
        <time>2024-06-09T09:42:54Z</time>
      </trkpt>
      <trkpt lat="49.39454" lon="5.82599">
        <ele>291.39999389648</ele>
        <time>2024-06-09T09:42:56Z</time>
      </trkpt>
      <trkpt lat="49.3945" lon="5.826">
        <ele>291.39999389648</ele>
        <time>2024-06-09T09:42:58Z</time>
      </trkpt>
      <trkpt lat="49.39444" lon="5.82601">
        <ele>291.60000610352</ele>
        <time>2024-06-09T09:43:00Z</time>
      </trkpt>
      <trkpt lat="49.39438" lon="5.82603">
        <ele>291.79998779297</ele>
        <time>2024-06-09T09:43:02Z</time>
      </trkpt>
      <trkpt lat="49.39434" lon="5.82604">
        <ele>291.79998779297</ele>
        <time>2024-06-09T09:43:03Z</time>
      </trkpt>
      <trkpt lat="49.39431" lon="5.82605">
        <ele>292</ele>
        <time>2024-06-09T09:43:04Z</time>
      </trkpt>
      <trkpt lat="49.39425" lon="5.82607">
        <ele>292.20001220703</ele>
        <time>2024-06-09T09:43:06Z</time>
      </trkpt>
      <trkpt lat="49.39418" lon="5.82609">
        <ele>292.60000610352</ele>
        <time>2024-06-09T09:43:08Z</time>
      </trkpt>
      <trkpt lat="49.3941" lon="5.82613">
        <ele>292.60000610352</ele>
        <time>2024-06-09T09:43:10Z</time>
      </trkpt>
      <trkpt lat="49.39403" lon="5.82616">
        <ele>292.79998779297</ele>
        <time>2024-06-09T09:43:12Z</time>
      </trkpt>
      <trkpt lat="49.394" lon="5.82617">
        <ele>293</ele>
        <time>2024-06-09T09:43:13Z</time>
      </trkpt>
      <trkpt lat="49.39398" lon="5.82619">
        <ele>293.20001220703</ele>
        <time>2024-06-09T09:43:14Z</time>
      </trkpt>
      <trkpt lat="49.39393" lon="5.82623">
        <ele>293.60000610352</ele>
        <time>2024-06-09T09:43:16Z</time>
      </trkpt>
      <trkpt lat="49.39388" lon="5.82626">
        <ele>294</ele>
        <time>2024-06-09T09:43:18Z</time>
      </trkpt>
      <trkpt lat="49.39383" lon="5.82629">
        <ele>294.60000610352</ele>
        <time>2024-06-09T09:43:20Z</time>
      </trkpt>
      <trkpt lat="49.39379" lon="5.82632">
        <ele>295</ele>
        <time>2024-06-09T09:43:22Z</time>
      </trkpt>
      <trkpt lat="49.39377" lon="5.82634">
        <ele>295.20001220703</ele>
        <time>2024-06-09T09:43:23Z</time>
      </trkpt>
      <trkpt lat="49.39375" lon="5.82635">
        <ele>295.79998779297</ele>
        <time>2024-06-09T09:43:24Z</time>
      </trkpt>
      <trkpt lat="49.39372" lon="5.82639">
        <ele>296</ele>
        <time>2024-06-09T09:43:26Z</time>
      </trkpt>
      <trkpt lat="49.39371" lon="5.82641">
        <ele>296.20001220703</ele>
        <time>2024-06-09T09:43:27Z</time>
      </trkpt>
      <trkpt lat="49.39369" lon="5.82643">
        <ele>296.39999389648</ele>
        <time>2024-06-09T09:43:28Z</time>
      </trkpt>
      <trkpt lat="49.39366" lon="5.82648">
        <ele>296.79998779297</ele>
        <time>2024-06-09T09:43:30Z</time>
      </trkpt>
      <trkpt lat="49.39365" lon="5.8265">
        <ele>297</ele>
        <time>2024-06-09T09:43:31Z</time>
      </trkpt>
      <trkpt lat="49.39364" lon="5.82653">
        <ele>297.20001220703</ele>
        <time>2024-06-09T09:43:32Z</time>
      </trkpt>
      <trkpt lat="49.39363" lon="5.82655">
        <ele>297.39999389648</ele>
        <time>2024-06-09T09:43:33Z</time>
      </trkpt>
      <trkpt lat="49.39362" lon="5.82657">
        <ele>297.60000610352</ele>
        <time>2024-06-09T09:43:34Z</time>
      </trkpt>
      <trkpt lat="49.3936" lon="5.82662">
        <ele>298.20001220703</ele>
        <time>2024-06-09T09:43:36Z</time>
      </trkpt>
      <trkpt lat="49.39359" lon="5.82664">
        <ele>298.39999389648</ele>
        <time>2024-06-09T09:43:37Z</time>
      </trkpt>
      <trkpt lat="49.39358" lon="5.82665">
        <ele>298.79998779297</ele>
        <time>2024-06-09T09:43:38Z</time>
      </trkpt>
      <trkpt lat="49.39356" lon="5.82668">
        <ele>299.20001220703</ele>
        <time>2024-06-09T09:43:40Z</time>
      </trkpt>
      <trkpt lat="49.39354" lon="5.82672">
        <ele>299.79998779297</ele>
        <time>2024-06-09T09:43:42Z</time>
      </trkpt>
      <trkpt lat="49.39353" lon="5.82675">
        <ele>299.79998779297</ele>
        <time>2024-06-09T09:43:43Z</time>
      </trkpt>
      <trkpt lat="49.39351" lon="5.82677">
        <ele>300</ele>
        <time>2024-06-09T09:43:44Z</time>
      </trkpt>
      <trkpt lat="49.39347" lon="5.82682">
        <ele>300.20001220703</ele>
        <time>2024-06-09T09:43:46Z</time>
      </trkpt>
      <trkpt lat="49.39341" lon="5.82688">
        <ele>300.20001220703</ele>
        <time>2024-06-09T09:43:48Z</time>
      </trkpt>
      <trkpt lat="49.39338" lon="5.82692">
        <ele>300.20001220703</ele>
        <time>2024-06-09T09:43:49Z</time>
      </trkpt>
      <trkpt lat="49.39334" lon="5.82696">
        <ele>300.20001220703</ele>
        <time>2024-06-09T09:43:50Z</time>
      </trkpt>
      <trkpt lat="49.39323" lon="5.82705">
        <ele>300.20001220703</ele>
        <time>2024-06-09T09:43:52Z</time>
      </trkpt>
      <trkpt lat="49.39318" lon="5.82712">
        <ele>300.20001220703</ele>
        <time>2024-06-09T09:43:53Z</time>
      </trkpt>
      <trkpt lat="49.39312" lon="5.82719">
        <ele>300.20001220703</ele>
        <time>2024-06-09T09:43:54Z</time>
      </trkpt>
      <trkpt lat="49.39298" lon="5.82734">
        <ele>299.39999389648</ele>
        <time>2024-06-09T09:43:56Z</time>
      </trkpt>
      <trkpt lat="49.39285" lon="5.82752">
        <ele>298.20001220703</ele>
        <time>2024-06-09T09:43:58Z</time>
      </trkpt>
      <trkpt lat="49.39276" lon="5.82767">
        <ele>296.79998779297</ele>
        <time>2024-06-09T09:44:00Z</time>
      </trkpt>
      <trkpt lat="49.3927" lon="5.82779">
        <ele>295</ele>
        <time>2024-06-09T09:44:02Z</time>
      </trkpt>
      <trkpt lat="49.39267" lon="5.82785">
        <ele>293.20001220703</ele>
        <time>2024-06-09T09:44:03Z</time>
      </trkpt>
      <trkpt lat="49.39264" lon="5.82791">
        <ele>291.60000610352</ele>
        <time>2024-06-09T09:44:04Z</time>
      </trkpt>
      <trkpt lat="49.39262" lon="5.82796">
        <ele>289.79998779297</ele>
        <time>2024-06-09T09:44:05Z</time>
      </trkpt>
      <trkpt lat="49.39261" lon="5.82802">
        <ele>288.20001220703</ele>
        <time>2024-06-09T09:44:06Z</time>
      </trkpt>
      <trkpt lat="49.39262" lon="5.82807">
        <ele>287.20001220703</ele>
        <time>2024-06-09T09:44:07Z</time>
      </trkpt>
      <trkpt lat="49.39264" lon="5.8281">
        <ele>286.60000610352</ele>
        <time>2024-06-09T09:44:08Z</time>
      </trkpt>
      <trkpt lat="49.39269" lon="5.82816">
        <ele>286</ele>
        <time>2024-06-09T09:44:10Z</time>
      </trkpt>
      <trkpt lat="49.39271" lon="5.82821">
        <ele>285.60000610352</ele>
        <time>2024-06-09T09:44:11Z</time>
      </trkpt>
      <trkpt lat="49.39272" lon="5.82825">
        <ele>284.79998779297</ele>
        <time>2024-06-09T09:44:12Z</time>
      </trkpt>
      <trkpt lat="49.39273" lon="5.82831">
        <ele>284.20001220703</ele>
        <time>2024-06-09T09:44:13Z</time>
      </trkpt>
      <trkpt lat="49.39274" lon="5.82835">
        <ele>283.60000610352</ele>
        <time>2024-06-09T09:44:14Z</time>
      </trkpt>
      <trkpt lat="49.39276" lon="5.8284">
        <ele>283.20001220703</ele>
        <time>2024-06-09T09:44:16Z</time>
      </trkpt>
      <trkpt lat="49.39277" lon="5.82842">
        <ele>283.20001220703</ele>
        <time>2024-06-09T09:44:17Z</time>
      </trkpt>
      <trkpt lat="49.39278" lon="5.82844">
        <ele>283.20001220703</ele>
        <time>2024-06-09T09:44:18Z</time>
      </trkpt>
      <trkpt lat="49.3928" lon="5.82846">
        <ele>283.20001220703</ele>
        <time>2024-06-09T09:44:20Z</time>
      </trkpt>
      <trkpt lat="49.39283" lon="5.82849">
        <ele>283.20001220703</ele>
        <time>2024-06-09T09:44:22Z</time>
      </trkpt>
      <trkpt lat="49.39285" lon="5.82851">
        <ele>283.20001220703</ele>
        <time>2024-06-09T09:44:24Z</time>
      </trkpt>
      <trkpt lat="49.39286" lon="5.82853">
        <ele>283.60000610352</ele>
        <time>2024-06-09T09:44:26Z</time>
      </trkpt>
      <trkpt lat="49.39288" lon="5.82856">
        <ele>284.20001220703</ele>
        <time>2024-06-09T09:44:28Z</time>
      </trkpt>
      <trkpt lat="49.3929" lon="5.82859">
        <ele>284.79998779297</ele>
        <time>2024-06-09T09:44:30Z</time>
      </trkpt>
      <trkpt lat="49.39292" lon="5.82861">
        <ele>285.20001220703</ele>
        <time>2024-06-09T09:44:31Z</time>
      </trkpt>
      <trkpt lat="49.39293" lon="5.82862">
        <ele>285.60000610352</ele>
        <time>2024-06-09T09:44:32Z</time>
      </trkpt>
      <trkpt lat="49.39294" lon="5.82864">
        <ele>285.79998779297</ele>
        <time>2024-06-09T09:44:33Z</time>
      </trkpt>
      <trkpt lat="49.39295" lon="5.82865">
        <ele>286.20001220703</ele>
        <time>2024-06-09T09:44:34Z</time>
      </trkpt>
      <trkpt lat="49.39297" lon="5.82868">
        <ele>286.79998779297</ele>
        <time>2024-06-09T09:44:36Z</time>
      </trkpt>
      <trkpt lat="49.39298" lon="5.82869">
        <ele>287</ele>
        <time>2024-06-09T09:44:37Z</time>
      </trkpt>
      <trkpt lat="49.39299" lon="5.8287">
        <ele>287.39999389648</ele>
        <time>2024-06-09T09:44:38Z</time>
      </trkpt>
      <trkpt lat="49.39301" lon="5.82872">
        <ele>287.79998779297</ele>
        <time>2024-06-09T09:44:40Z</time>
      </trkpt>
      <trkpt lat="49.39302" lon="5.82872">
        <ele>288.20001220703</ele>
        <time>2024-06-09T09:44:41Z</time>
      </trkpt>
      <trkpt lat="49.39303" lon="5.82873">
        <ele>288.20001220703</ele>
        <time>2024-06-09T09:44:42Z</time>
      </trkpt>
      <trkpt lat="49.39305" lon="5.82875">
        <ele>288.79998779297</ele>
        <time>2024-06-09T09:44:44Z</time>
      </trkpt>
      <trkpt lat="49.39306" lon="5.82876">
        <ele>289.20001220703</ele>
        <time>2024-06-09T09:44:45Z</time>
      </trkpt>
      <trkpt lat="49.39307" lon="5.82877">
        <ele>289.39999389648</ele>
        <time>2024-06-09T09:44:46Z</time>
      </trkpt>
      <trkpt lat="49.39309" lon="5.82878">
        <ele>290</ele>
        <time>2024-06-09T09:44:48Z</time>
      </trkpt>
      <trkpt lat="49.3931" lon="5.8288">
        <ele>290.60000610352</ele>
        <time>2024-06-09T09:44:50Z</time>
      </trkpt>
      <trkpt lat="49.39312" lon="5.82881">
        <ele>291</ele>
        <time>2024-06-09T09:44:52Z</time>
      </trkpt>
      <trkpt lat="49.39313" lon="5.82883">
        <ele>291.39999389648</ele>
        <time>2024-06-09T09:44:54Z</time>
      </trkpt>
      <trkpt lat="49.39314" lon="5.82884">
        <ele>291.60000610352</ele>
        <time>2024-06-09T09:44:55Z</time>
      </trkpt>
      <trkpt lat="49.39314" lon="5.82885">
        <ele>292</ele>
        <time>2024-06-09T09:44:56Z</time>
      </trkpt>
      <trkpt lat="49.39316" lon="5.82888">
        <ele>292.39999389648</ele>
        <time>2024-06-09T09:44:58Z</time>
      </trkpt>
      <trkpt lat="49.39316" lon="5.82889">
        <ele>292.79998779297</ele>
        <time>2024-06-09T09:44:59Z</time>
      </trkpt>
      <trkpt lat="49.39317" lon="5.8289">
        <ele>293</ele>
        <time>2024-06-09T09:45:00Z</time>
      </trkpt>
      <trkpt lat="49.39319" lon="5.82893">
        <ele>293.39999389648</ele>
        <time>2024-06-09T09:45:02Z</time>
      </trkpt>
      <trkpt lat="49.3932" lon="5.82896">
        <ele>293.60000610352</ele>
        <time>2024-06-09T09:45:04Z</time>
      </trkpt>
      <trkpt lat="49.39321" lon="5.82897">
        <ele>293.79998779297</ele>
        <time>2024-06-09T09:45:05Z</time>
      </trkpt>
      <trkpt lat="49.39322" lon="5.82899">
        <ele>294</ele>
        <time>2024-06-09T09:45:06Z</time>
      </trkpt>
      <trkpt lat="49.39324" lon="5.82901">
        <ele>294.39999389648</ele>
        <time>2024-06-09T09:45:08Z</time>
      </trkpt>
      <trkpt lat="49.39326" lon="5.82905">
        <ele>294.79998779297</ele>
        <time>2024-06-09T09:45:10Z</time>
      </trkpt>
      <trkpt lat="49.39328" lon="5.82907">
        <ele>295.39999389648</ele>
        <time>2024-06-09T09:45:12Z</time>
      </trkpt>
      <trkpt lat="49.39329" lon="5.82911">
        <ele>295.79998779297</ele>
        <time>2024-06-09T09:45:14Z</time>
      </trkpt>
      <trkpt lat="49.3933" lon="5.82912">
        <ele>296</ele>
        <time>2024-06-09T09:45:15Z</time>
      </trkpt>
      <trkpt lat="49.3933" lon="5.82914">
        <ele>296.20001220703</ele>
        <time>2024-06-09T09:45:16Z</time>
      </trkpt>
      <trkpt lat="49.39332" lon="5.82917">
        <ele>296.60000610352</ele>
        <time>2024-06-09T09:45:18Z</time>
      </trkpt>
      <trkpt lat="49.39334" lon="5.8292">
        <ele>297</ele>
        <time>2024-06-09T09:45:20Z</time>
      </trkpt>
      <trkpt lat="49.39335" lon="5.82921">
        <ele>297.20001220703</ele>
        <time>2024-06-09T09:45:21Z</time>
      </trkpt>
      <trkpt lat="49.39336" lon="5.82923">
        <ele>297.39999389648</ele>
        <time>2024-06-09T09:45:22Z</time>
      </trkpt>
      <trkpt lat="49.39338" lon="5.82924">
        <ele>298</ele>
        <time>2024-06-09T09:45:24Z</time>
      </trkpt>
      <trkpt lat="49.39339" lon="5.82925">
        <ele>298.39999389648</ele>
        <time>2024-06-09T09:45:26Z</time>
      </trkpt>
      <trkpt lat="49.39341" lon="5.82928">
        <ele>298.79998779297</ele>
        <time>2024-06-09T09:45:28Z</time>
      </trkpt>
      <trkpt lat="49.39343" lon="5.82929">
        <ele>299.20001220703</ele>
        <time>2024-06-09T09:45:30Z</time>
      </trkpt>
      <trkpt lat="49.39343" lon="5.8293">
        <ele>299.39999389648</ele>
        <time>2024-06-09T09:45:31Z</time>
      </trkpt>
      <trkpt lat="49.39344" lon="5.82932">
        <ele>299.60000610352</ele>
        <time>2024-06-09T09:45:32Z</time>
      </trkpt>
      <trkpt lat="49.39345" lon="5.82932">
        <ele>299.79998779297</ele>
        <time>2024-06-09T09:45:33Z</time>
      </trkpt>
      <trkpt lat="49.39346" lon="5.82933">
        <ele>300</ele>
        <time>2024-06-09T09:45:34Z</time>
      </trkpt>
      <trkpt lat="49.39348" lon="5.82936">
        <ele>300.39999389648</ele>
        <time>2024-06-09T09:45:36Z</time>
      </trkpt>
      <trkpt lat="49.39349" lon="5.82936">
        <ele>300.39999389648</ele>
        <time>2024-06-09T09:45:37Z</time>
      </trkpt>
      <trkpt lat="49.39349" lon="5.82937">
        <ele>300.60000610352</ele>
        <time>2024-06-09T09:45:38Z</time>
      </trkpt>
      <trkpt lat="49.39351" lon="5.8294">
        <ele>300.79998779297</ele>
        <time>2024-06-09T09:45:40Z</time>
      </trkpt>
      <trkpt lat="49.39352" lon="5.82944">
        <ele>301.20001220703</ele>
        <time>2024-06-09T09:45:42Z</time>
      </trkpt>
      <trkpt lat="49.39354" lon="5.82948">
        <ele>301.39999389648</ele>
        <time>2024-06-09T09:45:44Z</time>
      </trkpt>
      <trkpt lat="49.39356" lon="5.82951">
        <ele>301.60000610352</ele>
        <time>2024-06-09T09:45:46Z</time>
      </trkpt>
      <trkpt lat="49.39357" lon="5.82952">
        <ele>301.79998779297</ele>
        <time>2024-06-09T09:45:47Z</time>
      </trkpt>
      <trkpt lat="49.39358" lon="5.82953">
        <ele>302</ele>
        <time>2024-06-09T09:45:48Z</time>
      </trkpt>
      <trkpt lat="49.3936" lon="5.82956">
        <ele>302.20001220703</ele>
        <time>2024-06-09T09:45:50Z</time>
      </trkpt>
      <trkpt lat="49.39361" lon="5.82959">
        <ele>302.60000610352</ele>
        <time>2024-06-09T09:45:52Z</time>
      </trkpt>
      <trkpt lat="49.39362" lon="5.82963">
        <ele>302.79998779297</ele>
        <time>2024-06-09T09:45:54Z</time>
      </trkpt>
      <trkpt lat="49.39362" lon="5.82966">
        <ele>303</ele>
        <time>2024-06-09T09:45:55Z</time>
      </trkpt>
      <trkpt lat="49.39362" lon="5.82968">
        <ele>303</ele>
        <time>2024-06-09T09:45:56Z</time>
      </trkpt>
      <trkpt lat="49.39362" lon="5.82971">
        <ele>303.39999389648</ele>
        <time>2024-06-09T09:45:58Z</time>
      </trkpt>
      <trkpt lat="49.39361" lon="5.82973">
        <ele>303.79998779297</ele>
        <time>2024-06-09T09:46:00Z</time>
      </trkpt>
      <trkpt lat="49.3936" lon="5.82976">
        <ele>303.79998779297</ele>
        <time>2024-06-09T09:46:01Z</time>
      </trkpt>
      <trkpt lat="49.3936" lon="5.82977">
        <ele>304</ele>
        <time>2024-06-09T09:46:02Z</time>
      </trkpt>
      <trkpt lat="49.39358" lon="5.82982">
        <ele>304.39999389648</ele>
        <time>2024-06-09T09:46:04Z</time>
      </trkpt>
      <trkpt lat="49.39356" lon="5.82986">
        <ele>304.60000610352</ele>
        <time>2024-06-09T09:46:06Z</time>
      </trkpt>
      <trkpt lat="49.39354" lon="5.8299">
        <ele>304.79998779297</ele>
        <time>2024-06-09T09:46:08Z</time>
      </trkpt>
      <trkpt lat="49.39353" lon="5.82995">
        <ele>304.79998779297</ele>
        <time>2024-06-09T09:46:10Z</time>
      </trkpt>
      <trkpt lat="49.39352" lon="5.82998">
        <ele>305</ele>
        <time>2024-06-09T09:46:11Z</time>
      </trkpt>
      <trkpt lat="49.39352" lon="5.83001">
        <ele>305.20001220703</ele>
        <time>2024-06-09T09:46:12Z</time>
      </trkpt>
      <trkpt lat="49.3935" lon="5.83007">
        <ele>305.39999389648</ele>
        <time>2024-06-09T09:46:14Z</time>
      </trkpt>
      <trkpt lat="49.39349" lon="5.83011">
        <ele>305.39999389648</ele>
        <time>2024-06-09T09:46:16Z</time>
      </trkpt>
      <trkpt lat="49.39348" lon="5.83015">
        <ele>305.39999389648</ele>
        <time>2024-06-09T09:46:18Z</time>
      </trkpt>
      <trkpt lat="49.39347" lon="5.8302">
        <ele>305.60000610352</ele>
        <time>2024-06-09T09:46:20Z</time>
      </trkpt>
      <trkpt lat="49.39345" lon="5.83026">
        <ele>305.79998779297</ele>
        <time>2024-06-09T09:46:22Z</time>
      </trkpt>
      <trkpt lat="49.39344" lon="5.83033">
        <ele>306</ele>
        <time>2024-06-09T09:46:24Z</time>
      </trkpt>
      <trkpt lat="49.39342" lon="5.83037">
        <ele>306</ele>
        <time>2024-06-09T09:46:25Z</time>
      </trkpt>
      <trkpt lat="49.3934" lon="5.83041">
        <ele>306</ele>
        <time>2024-06-09T09:46:26Z</time>
      </trkpt>
      <trkpt lat="49.39338" lon="5.8305">
        <ele>306</ele>
        <time>2024-06-09T09:46:28Z</time>
      </trkpt>
      <trkpt lat="49.39336" lon="5.83061">
        <ele>306</ele>
        <time>2024-06-09T09:46:30Z</time>
      </trkpt>
      <trkpt lat="49.39333" lon="5.83072">
        <ele>306</ele>
        <time>2024-06-09T09:46:32Z</time>
      </trkpt>
      <trkpt lat="49.39329" lon="5.83084">
        <ele>305.39999389648</ele>
        <time>2024-06-09T09:46:34Z</time>
      </trkpt>
      <trkpt lat="49.39326" lon="5.83093">
        <ele>305</ele>
        <time>2024-06-09T09:46:36Z</time>
      </trkpt>
      <trkpt lat="49.39326" lon="5.83097">
        <ele>305</ele>
        <time>2024-06-09T09:46:37Z</time>
      </trkpt>
      <trkpt lat="49.39325" lon="5.83101">
        <ele>305</ele>
        <time>2024-06-09T09:46:38Z</time>
      </trkpt>
      <trkpt lat="49.39323" lon="5.83108">
        <ele>305</ele>
        <time>2024-06-09T09:46:40Z</time>
      </trkpt>
      <trkpt lat="49.39319" lon="5.83119">
        <ele>304.79998779297</ele>
        <time>2024-06-09T09:46:42Z</time>
      </trkpt>
      <trkpt lat="49.39313" lon="5.83128">
        <ele>304.79998779297</ele>
        <time>2024-06-09T09:46:44Z</time>
      </trkpt>
      <trkpt lat="49.39308" lon="5.83142">
        <ele>304.60000610352</ele>
        <time>2024-06-09T09:46:46Z</time>
      </trkpt>
      <trkpt lat="49.39305" lon="5.8315">
        <ele>304.60000610352</ele>
        <time>2024-06-09T09:46:47Z</time>
      </trkpt>
      <trkpt lat="49.39301" lon="5.83157">
        <ele>304.60000610352</ele>
        <time>2024-06-09T09:46:48Z</time>
      </trkpt>
      <trkpt lat="49.39297" lon="5.83164">
        <ele>304.39999389648</ele>
        <time>2024-06-09T09:46:49Z</time>
      </trkpt>
      <trkpt lat="49.39293" lon="5.83171">
        <ele>304.20001220703</ele>
        <time>2024-06-09T09:46:50Z</time>
      </trkpt>
      <trkpt lat="49.39289" lon="5.83178">
        <ele>303.39999389648</ele>
        <time>2024-06-09T09:46:51Z</time>
      </trkpt>
      <trkpt lat="49.39284" lon="5.83184">
        <ele>303</ele>
        <time>2024-06-09T09:46:52Z</time>
      </trkpt>
      <trkpt lat="49.3928" lon="5.83192">
        <ele>302.39999389648</ele>
        <time>2024-06-09T09:46:53Z</time>
      </trkpt>
      <trkpt lat="49.39275" lon="5.83198">
        <ele>302</ele>
        <time>2024-06-09T09:46:54Z</time>
      </trkpt>
      <trkpt lat="49.3927" lon="5.83203">
        <ele>301.39999389648</ele>
        <time>2024-06-09T09:46:55Z</time>
      </trkpt>
      <trkpt lat="49.39265" lon="5.83209">
        <ele>301</ele>
        <time>2024-06-09T09:46:56Z</time>
      </trkpt>
      <trkpt lat="49.39261" lon="5.83214">
        <ele>300.60000610352</ele>
        <time>2024-06-09T09:46:57Z</time>
      </trkpt>
      <trkpt lat="49.39256" lon="5.83219">
        <ele>300.39999389648</ele>
        <time>2024-06-09T09:46:58Z</time>
      </trkpt>
      <trkpt lat="49.39246" lon="5.83227">
        <ele>299.60000610352</ele>
        <time>2024-06-09T09:47:00Z</time>
      </trkpt>
      <trkpt lat="49.39241" lon="5.8323">
        <ele>299.20001220703</ele>
        <time>2024-06-09T09:47:01Z</time>
      </trkpt>
      <trkpt lat="49.39237" lon="5.83234">
        <ele>299</ele>
        <time>2024-06-09T09:47:02Z</time>
      </trkpt>
      <trkpt lat="49.39233" lon="5.83238">
        <ele>299</ele>
        <time>2024-06-09T09:47:03Z</time>
      </trkpt>
      <trkpt lat="49.39229" lon="5.83242">
        <ele>298.79998779297</ele>
        <time>2024-06-09T09:47:04Z</time>
      </trkpt>
      <trkpt lat="49.39221" lon="5.83249">
        <ele>298.79998779297</ele>
        <time>2024-06-09T09:47:06Z</time>
      </trkpt>
      <trkpt lat="49.39213" lon="5.83255">
        <ele>298.79998779297</ele>
        <time>2024-06-09T09:47:08Z</time>
      </trkpt>
      <trkpt lat="49.39204" lon="5.8326">
        <ele>298.79998779297</ele>
        <time>2024-06-09T09:47:10Z</time>
      </trkpt>
      <trkpt lat="49.39194" lon="5.83267">
        <ele>298.79998779297</ele>
        <time>2024-06-09T09:47:12Z</time>
      </trkpt>
      <trkpt lat="49.39184" lon="5.83272">
        <ele>299</ele>
        <time>2024-06-09T09:47:14Z</time>
      </trkpt>
      <trkpt lat="49.39177" lon="5.83275">
        <ele>299.20001220703</ele>
        <time>2024-06-09T09:47:16Z</time>
      </trkpt>
      <trkpt lat="49.39171" lon="5.83278">
        <ele>299.20001220703</ele>
        <time>2024-06-09T09:47:18Z</time>
      </trkpt>
      <trkpt lat="49.39169" lon="5.8328">
        <ele>299.39999389648</ele>
        <time>2024-06-09T09:47:19Z</time>
      </trkpt>
      <trkpt lat="49.39167" lon="5.83281">
        <ele>299.39999389648</ele>
        <time>2024-06-09T09:47:20Z</time>
      </trkpt>
      <trkpt lat="49.39162" lon="5.83285">
        <ele>299.60000610352</ele>
        <time>2024-06-09T09:47:22Z</time>
      </trkpt>
      <trkpt lat="49.39155" lon="5.8329">
        <ele>300.20001220703</ele>
        <time>2024-06-09T09:47:24Z</time>
      </trkpt>
      <trkpt lat="49.39152" lon="5.83292">
        <ele>300.39999389648</ele>
        <time>2024-06-09T09:47:25Z</time>
      </trkpt>
      <trkpt lat="49.39149" lon="5.83295">
        <ele>301</ele>
        <time>2024-06-09T09:47:26Z</time>
      </trkpt>
      <trkpt lat="49.39141" lon="5.83299">
        <ele>301.79998779297</ele>
        <time>2024-06-09T09:47:28Z</time>
      </trkpt>
      <trkpt lat="49.39135" lon="5.83303">
        <ele>302.20001220703</ele>
        <time>2024-06-09T09:47:30Z</time>
      </trkpt>
      <trkpt lat="49.39129" lon="5.83307">
        <ele>302.39999389648</ele>
        <time>2024-06-09T09:47:32Z</time>
      </trkpt>
      <trkpt lat="49.39126" lon="5.83309">
        <ele>302.60000610352</ele>
        <time>2024-06-09T09:47:33Z</time>
      </trkpt>
      <trkpt lat="49.39123" lon="5.83309">
        <ele>302.79998779297</ele>
        <time>2024-06-09T09:47:34Z</time>
      </trkpt>
      <trkpt lat="49.39117" lon="5.83311">
        <ele>303.20001220703</ele>
        <time>2024-06-09T09:47:36Z</time>
      </trkpt>
      <trkpt lat="49.39111" lon="5.83312">
        <ele>303.79998779297</ele>
        <time>2024-06-09T09:47:38Z</time>
      </trkpt>
      <trkpt lat="49.39108" lon="5.83312">
        <ele>304</ele>
        <time>2024-06-09T09:47:39Z</time>
      </trkpt>
      <trkpt lat="49.39106" lon="5.83313">
        <ele>304.20001220703</ele>
        <time>2024-06-09T09:47:40Z</time>
      </trkpt>
      <trkpt lat="49.391" lon="5.83315">
        <ele>304.60000610352</ele>
        <time>2024-06-09T09:47:42Z</time>
      </trkpt>
      <trkpt lat="49.39096" lon="5.83316">
        <ele>305</ele>
        <time>2024-06-09T09:47:44Z</time>
      </trkpt>
      <trkpt lat="49.39094" lon="5.83315">
        <ele>305.20001220703</ele>
        <time>2024-06-09T09:47:45Z</time>
      </trkpt>
      <trkpt lat="49.39092" lon="5.83315">
        <ele>305.39999389648</ele>
        <time>2024-06-09T09:47:46Z</time>
      </trkpt>
      <trkpt lat="49.39085" lon="5.83316">
        <ele>305.79998779297</ele>
        <time>2024-06-09T09:47:48Z</time>
      </trkpt>
      <trkpt lat="49.39081" lon="5.83316">
        <ele>306.20001220703</ele>
        <time>2024-06-09T09:47:50Z</time>
      </trkpt>
      <trkpt lat="49.39076" lon="5.83319">
        <ele>306.79998779297</ele>
        <time>2024-06-09T09:47:52Z</time>
      </trkpt>
      <trkpt lat="49.39072" lon="5.83322">
        <ele>307.20001220703</ele>
        <time>2024-06-09T09:47:54Z</time>
      </trkpt>
      <trkpt lat="49.3907" lon="5.83322">
        <ele>307.39999389648</ele>
        <time>2024-06-09T09:47:55Z</time>
      </trkpt>
      <trkpt lat="49.39068" lon="5.83323">
        <ele>307.60000610352</ele>
        <time>2024-06-09T09:47:56Z</time>
      </trkpt>
      <trkpt lat="49.39064" lon="5.83324">
        <ele>308</ele>
        <time>2024-06-09T09:47:58Z</time>
      </trkpt>
      <trkpt lat="49.3906" lon="5.83326">
        <ele>308.39999389648</ele>
        <time>2024-06-09T09:48:00Z</time>
      </trkpt>
      <trkpt lat="49.39057" lon="5.83328">
        <ele>308.79998779297</ele>
        <time>2024-06-09T09:48:02Z</time>
      </trkpt>
      <trkpt lat="49.39055" lon="5.83328">
        <ele>309</ele>
        <time>2024-06-09T09:48:03Z</time>
      </trkpt>
      <trkpt lat="49.39053" lon="5.83329">
        <ele>309.20001220703</ele>
        <time>2024-06-09T09:48:04Z</time>
      </trkpt>
      <trkpt lat="49.3905" lon="5.83331">
        <ele>309.60000610352</ele>
        <time>2024-06-09T09:48:06Z</time>
      </trkpt>
      <trkpt lat="49.39046" lon="5.83333">
        <ele>309.79998779297</ele>
        <time>2024-06-09T09:48:08Z</time>
      </trkpt>
      <trkpt lat="49.39043" lon="5.83334">
        <ele>310</ele>
        <time>2024-06-09T09:48:10Z</time>
      </trkpt>
      <trkpt lat="49.39041" lon="5.83335">
        <ele>310.20001220703</ele>
        <time>2024-06-09T09:48:11Z</time>
      </trkpt>
      <trkpt lat="49.39039" lon="5.83336">
        <ele>310.39999389648</ele>
        <time>2024-06-09T09:48:12Z</time>
      </trkpt>
      <trkpt lat="49.39036" lon="5.83337">
        <ele>310.39999389648</ele>
        <time>2024-06-09T09:48:14Z</time>
      </trkpt>
      <trkpt lat="49.39032" lon="5.8334">
        <ele>310.79998779297</ele>
        <time>2024-06-09T09:48:16Z</time>
      </trkpt>
      <trkpt lat="49.39031" lon="5.83341">
        <ele>310.79998779297</ele>
        <time>2024-06-09T09:48:17Z</time>
      </trkpt>
      <trkpt lat="49.39029" lon="5.83343">
        <ele>311</ele>
        <time>2024-06-09T09:48:18Z</time>
      </trkpt>
      <trkpt lat="49.39026" lon="5.83348">
        <ele>311.39999389648</ele>
        <time>2024-06-09T09:48:20Z</time>
      </trkpt>
      <trkpt lat="49.39023" lon="5.83351">
        <ele>311.60000610352</ele>
        <time>2024-06-09T09:48:22Z</time>
      </trkpt>
      <trkpt lat="49.39023" lon="5.83353">
        <ele>311.79998779297</ele>
        <time>2024-06-09T09:48:23Z</time>
      </trkpt>
      <trkpt lat="49.39022" lon="5.83355">
        <ele>311.79998779297</ele>
        <time>2024-06-09T09:48:24Z</time>
      </trkpt>
      <trkpt lat="49.3902" lon="5.83358">
        <ele>312</ele>
        <time>2024-06-09T09:48:26Z</time>
      </trkpt>
      <trkpt lat="49.39019" lon="5.83362">
        <ele>312.60000610352</ele>
        <time>2024-06-09T09:48:28Z</time>
      </trkpt>
      <trkpt lat="49.39018" lon="5.83363">
        <ele>312.79998779297</ele>
        <time>2024-06-09T09:48:29Z</time>
      </trkpt>
      <trkpt lat="49.39017" lon="5.83365">
        <ele>313</ele>
        <time>2024-06-09T09:48:30Z</time>
      </trkpt>
      <trkpt lat="49.39016" lon="5.83367">
        <ele>313.20001220703</ele>
        <time>2024-06-09T09:48:31Z</time>
      </trkpt>
      <trkpt lat="49.39015" lon="5.83368">
        <ele>313.60000610352</ele>
        <time>2024-06-09T09:48:32Z</time>
      </trkpt>
      <trkpt lat="49.39013" lon="5.83372">
        <ele>314</ele>
        <time>2024-06-09T09:48:34Z</time>
      </trkpt>
      <trkpt lat="49.39011" lon="5.83376">
        <ele>314.60000610352</ele>
        <time>2024-06-09T09:48:36Z</time>
      </trkpt>
      <trkpt lat="49.3901" lon="5.83378">
        <ele>314.60000610352</ele>
        <time>2024-06-09T09:48:37Z</time>
      </trkpt>
      <trkpt lat="49.39009" lon="5.8338">
        <ele>314.79998779297</ele>
        <time>2024-06-09T09:48:38Z</time>
      </trkpt>
      <trkpt lat="49.39008" lon="5.83382">
        <ele>315</ele>
        <time>2024-06-09T09:48:39Z</time>
      </trkpt>
      <trkpt lat="49.39007" lon="5.83384">
        <ele>315.20001220703</ele>
        <time>2024-06-09T09:48:40Z</time>
      </trkpt>
      <trkpt lat="49.39007" lon="5.83387">
        <ele>315.60000610352</ele>
        <time>2024-06-09T09:48:42Z</time>
      </trkpt>
      <trkpt lat="49.39006" lon="5.8339">
        <ele>316</ele>
        <time>2024-06-09T09:48:44Z</time>
      </trkpt>
      <trkpt lat="49.39005" lon="5.83392">
        <ele>316</ele>
        <time>2024-06-09T09:48:45Z</time>
      </trkpt>
      <trkpt lat="49.39005" lon="5.83394">
        <ele>316.20001220703</ele>
        <time>2024-06-09T09:48:46Z</time>
      </trkpt>
      <trkpt lat="49.39003" lon="5.83398">
        <ele>316.60000610352</ele>
        <time>2024-06-09T09:48:48Z</time>
      </trkpt>
      <trkpt lat="49.39002" lon="5.83402">
        <ele>317</ele>
        <time>2024-06-09T09:48:50Z</time>
      </trkpt>
      <trkpt lat="49.39002" lon="5.83404">
        <ele>317.20001220703</ele>
        <time>2024-06-09T09:48:51Z</time>
      </trkpt>
      <trkpt lat="49.39002" lon="5.83405">
        <ele>317.39999389648</ele>
        <time>2024-06-09T09:48:52Z</time>
      </trkpt>
      <trkpt lat="49.39001" lon="5.83408">
        <ele>318</ele>
        <time>2024-06-09T09:48:54Z</time>
      </trkpt>
      <trkpt lat="49.39001" lon="5.83411">
        <ele>318.39999389648</ele>
        <time>2024-06-09T09:48:56Z</time>
      </trkpt>
      <trkpt lat="49.39001" lon="5.83415">
        <ele>318.79998779297</ele>
        <time>2024-06-09T09:48:58Z</time>
      </trkpt>
      <trkpt lat="49.39001" lon="5.83418">
        <ele>319.20001220703</ele>
        <time>2024-06-09T09:49:00Z</time>
      </trkpt>
      <trkpt lat="49.39001" lon="5.8342">
        <ele>319.39999389648</ele>
        <time>2024-06-09T09:49:01Z</time>
      </trkpt>
      <trkpt lat="49.39001" lon="5.83422">
        <ele>319.60000610352</ele>
        <time>2024-06-09T09:49:02Z</time>
      </trkpt>
      <trkpt lat="49.39" lon="5.83426">
        <ele>320.20001220703</ele>
        <time>2024-06-09T09:49:04Z</time>
      </trkpt>
      <trkpt lat="49.39" lon="5.83428">
        <ele>320.39999389648</ele>
        <time>2024-06-09T09:49:05Z</time>
      </trkpt>
      <trkpt lat="49.39" lon="5.8343">
        <ele>320.39999389648</ele>
        <time>2024-06-09T09:49:06Z</time>
      </trkpt>
      <trkpt lat="49.39" lon="5.83432">
        <ele>320.60000610352</ele>
        <time>2024-06-09T09:49:07Z</time>
      </trkpt>
      <trkpt lat="49.39" lon="5.83434">
        <ele>320.79998779297</ele>
        <time>2024-06-09T09:49:08Z</time>
      </trkpt>
      <trkpt lat="49.39" lon="5.83438">
        <ele>321.20001220703</ele>
        <time>2024-06-09T09:49:10Z</time>
      </trkpt>
      <trkpt lat="49.38999" lon="5.83441">
        <ele>321.60000610352</ele>
        <time>2024-06-09T09:49:12Z</time>
      </trkpt>
      <trkpt lat="49.38999" lon="5.83444">
        <ele>321.79998779297</ele>
        <time>2024-06-09T09:49:14Z</time>
      </trkpt>
      <trkpt lat="49.38998" lon="5.83448">
        <ele>322</ele>
        <time>2024-06-09T09:49:16Z</time>
      </trkpt>
      <trkpt lat="49.38998" lon="5.83454">
        <ele>322</ele>
        <time>2024-06-09T09:49:18Z</time>
      </trkpt>
      <trkpt lat="49.38997" lon="5.83457">
        <ele>322.20001220703</ele>
        <time>2024-06-09T09:49:19Z</time>
      </trkpt>
      <trkpt lat="49.38995" lon="5.83459">
        <ele>322.20001220703</ele>
        <time>2024-06-09T09:49:20Z</time>
      </trkpt>
      <trkpt lat="49.38993" lon="5.8346">
        <ele>322.20001220703</ele>
        <time>2024-06-09T09:49:21Z</time>
      </trkpt>
      <trkpt lat="49.3899" lon="5.83459">
        <ele>322.20001220703</ele>
        <time>2024-06-09T09:49:22Z</time>
      </trkpt>
      <trkpt lat="49.38981" lon="5.83456">
        <ele>322.20001220703</ele>
        <time>2024-06-09T09:49:24Z</time>
      </trkpt>
      <trkpt lat="49.38975" lon="5.83454">
        <ele>322.20001220703</ele>
        <time>2024-06-09T09:49:25Z</time>
      </trkpt>
      <trkpt lat="49.38968" lon="5.83451">
        <ele>322.20001220703</ele>
        <time>2024-06-09T09:49:26Z</time>
      </trkpt>
      <trkpt lat="49.38954" lon="5.83444">
        <ele>322</ele>
        <time>2024-06-09T09:49:28Z</time>
      </trkpt>
      <trkpt lat="49.38948" lon="5.83442">
        <ele>321.39999389648</ele>
        <time>2024-06-09T09:49:29Z</time>
      </trkpt>
      <trkpt lat="49.38944" lon="5.8344">
        <ele>320.60000610352</ele>
        <time>2024-06-09T09:49:30Z</time>
      </trkpt>
      <trkpt lat="49.38938" lon="5.83439">
        <ele>318.60000610352</ele>
        <time>2024-06-09T09:49:32Z</time>
      </trkpt>
      <trkpt lat="49.38935" lon="5.83439">
        <ele>316.39999389648</ele>
        <time>2024-06-09T09:49:33Z</time>
      </trkpt>
      <trkpt lat="49.38931" lon="5.83441">
        <ele>314.79998779297</ele>
        <time>2024-06-09T09:49:34Z</time>
      </trkpt>
      <trkpt lat="49.38927" lon="5.83448">
        <ele>313.39999389648</ele>
        <time>2024-06-09T09:49:36Z</time>
      </trkpt>
      <trkpt lat="49.38925" lon="5.83461">
        <ele>312.79998779297</ele>
        <time>2024-06-09T09:49:38Z</time>
      </trkpt>
      <trkpt lat="49.38925" lon="5.83478">
        <ele>312.20001220703</ele>
        <time>2024-06-09T09:49:40Z</time>
      </trkpt>
      <trkpt lat="49.38925" lon="5.83489">
        <ele>312</ele>
        <time>2024-06-09T09:49:41Z</time>
      </trkpt>
      <trkpt lat="49.38926" lon="5.83501">
        <ele>311.60000610352</ele>
        <time>2024-06-09T09:49:42Z</time>
      </trkpt>
      <trkpt lat="49.38928" lon="5.83513">
        <ele>311</ele>
        <time>2024-06-09T09:49:43Z</time>
      </trkpt>
      <trkpt lat="49.3893" lon="5.83525">
        <ele>310.39999389648</ele>
        <time>2024-06-09T09:49:44Z</time>
      </trkpt>
      <trkpt lat="49.38935" lon="5.83539">
        <ele>309.60000610352</ele>
        <time>2024-06-09T09:49:45Z</time>
      </trkpt>
      <trkpt lat="49.38942" lon="5.83552">
        <ele>308.39999389648</ele>
        <time>2024-06-09T09:49:46Z</time>
      </trkpt>
      <trkpt lat="49.38948" lon="5.83565">
        <ele>307.20001220703</ele>
        <time>2024-06-09T09:49:47Z</time>
      </trkpt>
      <trkpt lat="49.38954" lon="5.83578">
        <ele>306</ele>
        <time>2024-06-09T09:49:48Z</time>
      </trkpt>
      <trkpt lat="49.38961" lon="5.8359">
        <ele>304.39999389648</ele>
        <time>2024-06-09T09:49:49Z</time>
      </trkpt>
      <trkpt lat="49.38967" lon="5.83601">
        <ele>302.60000610352</ele>
        <time>2024-06-09T09:49:50Z</time>
      </trkpt>
      <trkpt lat="49.38973" lon="5.83611">
        <ele>300.79998779297</ele>
        <time>2024-06-09T09:49:51Z</time>
      </trkpt>
      <trkpt lat="49.38978" lon="5.8362">
        <ele>299</ele>
        <time>2024-06-09T09:49:52Z</time>
      </trkpt>
      <trkpt lat="49.38983" lon="5.83628">
        <ele>297.60000610352</ele>
        <time>2024-06-09T09:49:53Z</time>
      </trkpt>
      <trkpt lat="49.38986" lon="5.83635">
        <ele>296.79998779297</ele>
        <time>2024-06-09T09:49:54Z</time>
      </trkpt>
      <trkpt lat="49.38989" lon="5.83641">
        <ele>296.60000610352</ele>
        <time>2024-06-09T09:49:55Z</time>
      </trkpt>
      <trkpt lat="49.38991" lon="5.83645">
        <ele>296.39999389648</ele>
        <time>2024-06-09T09:49:56Z</time>
      </trkpt>
      <trkpt lat="49.38995" lon="5.83653">
        <ele>296.20001220703</ele>
        <time>2024-06-09T09:49:58Z</time>
      </trkpt>
      <trkpt lat="49.38998" lon="5.8366">
        <ele>296.20001220703</ele>
        <time>2024-06-09T09:50:00Z</time>
      </trkpt>
      <trkpt lat="49.39001" lon="5.83666">
        <ele>296.79998779297</ele>
        <time>2024-06-09T09:50:02Z</time>
      </trkpt>
      <trkpt lat="49.39003" lon="5.83669">
        <ele>297.79998779297</ele>
        <time>2024-06-09T09:50:03Z</time>
      </trkpt>
      <trkpt lat="49.39004" lon="5.83672">
        <ele>298.60000610352</ele>
        <time>2024-06-09T09:50:04Z</time>
      </trkpt>
      <trkpt lat="49.39006" lon="5.83675">
        <ele>299.20001220703</ele>
        <time>2024-06-09T09:50:05Z</time>
      </trkpt>
      <trkpt lat="49.39008" lon="5.83679">
        <ele>299.60000610352</ele>
        <time>2024-06-09T09:50:06Z</time>
      </trkpt>
      <trkpt lat="49.39011" lon="5.83686">
        <ele>300.20001220703</ele>
        <time>2024-06-09T09:50:08Z</time>
      </trkpt>
      <trkpt lat="49.39012" lon="5.83689">
        <ele>300.60000610352</ele>
        <time>2024-06-09T09:50:09Z</time>
      </trkpt>
      <trkpt lat="49.39012" lon="5.83693">
        <ele>301</ele>
        <time>2024-06-09T09:50:10Z</time>
      </trkpt>
      <trkpt lat="49.39014" lon="5.83702">
        <ele>301.20001220703</ele>
        <time>2024-06-09T09:50:12Z</time>
      </trkpt>
      <trkpt lat="49.39014" lon="5.83718">
        <ele>301.20001220703</ele>
        <time>2024-06-09T09:50:14Z</time>
      </trkpt>
      <trkpt lat="49.3901" lon="5.83737">
        <ele>301.20001220703</ele>
        <time>2024-06-09T09:50:16Z</time>
      </trkpt>
      <trkpt lat="49.39006" lon="5.83748">
        <ele>301.20001220703</ele>
        <time>2024-06-09T09:50:17Z</time>
      </trkpt>
      <trkpt lat="49.39003" lon="5.83758">
        <ele>301.20001220703</ele>
        <time>2024-06-09T09:50:18Z</time>
      </trkpt>
      <trkpt lat="49.38996" lon="5.83779">
        <ele>300.79998779297</ele>
        <time>2024-06-09T09:50:20Z</time>
      </trkpt>
      <trkpt lat="49.38993" lon="5.83787">
        <ele>300</ele>
        <time>2024-06-09T09:50:21Z</time>
      </trkpt>
      <trkpt lat="49.38991" lon="5.83793">
        <ele>299</ele>
        <time>2024-06-09T09:50:22Z</time>
      </trkpt>
      <trkpt lat="49.38988" lon="5.83796">
        <ele>297.60000610352</ele>
        <time>2024-06-09T09:50:23Z</time>
      </trkpt>
      <trkpt lat="49.38985" lon="5.83798">
        <ele>296.20001220703</ele>
        <time>2024-06-09T09:50:24Z</time>
      </trkpt>
      <trkpt lat="49.38982" lon="5.838">
        <ele>294.60000610352</ele>
        <time>2024-06-09T09:50:25Z</time>
      </trkpt>
      <trkpt lat="49.38979" lon="5.83803">
        <ele>292.79998779297</ele>
        <time>2024-06-09T09:50:26Z</time>
      </trkpt>
      <trkpt lat="49.38976" lon="5.83806">
        <ele>291.39999389648</ele>
        <time>2024-06-09T09:50:27Z</time>
      </trkpt>
      <trkpt lat="49.38972" lon="5.83809">
        <ele>290</ele>
        <time>2024-06-09T09:50:28Z</time>
      </trkpt>
      <trkpt lat="49.38968" lon="5.83811">
        <ele>288</ele>
        <time>2024-06-09T09:50:29Z</time>
      </trkpt>
      <trkpt lat="49.38963" lon="5.83813">
        <ele>287.60000610352</ele>
        <time>2024-06-09T09:50:30Z</time>
      </trkpt>
      <trkpt lat="49.38958" lon="5.83814">
        <ele>287.39999389648</ele>
        <time>2024-06-09T09:50:31Z</time>
      </trkpt>
      <trkpt lat="49.38954" lon="5.83813">
        <ele>287.20001220703</ele>
        <time>2024-06-09T09:50:32Z</time>
      </trkpt>
      <trkpt lat="49.38951" lon="5.83812">
        <ele>286.79998779297</ele>
        <time>2024-06-09T09:50:33Z</time>
      </trkpt>
      <trkpt lat="49.38949" lon="5.83812">
        <ele>286.39999389648</ele>
        <time>2024-06-09T09:50:34Z</time>
      </trkpt>
      <trkpt lat="49.38945" lon="5.83814">
        <ele>285.39999389648</ele>
        <time>2024-06-09T09:50:36Z</time>
      </trkpt>
      <trkpt lat="49.38944" lon="5.83814">
        <ele>285.20001220703</ele>
        <time>2024-06-09T09:50:38Z</time>
      </trkpt>
      <trkpt lat="49.38941" lon="5.83816">
        <ele>285.20001220703</ele>
        <time>2024-06-09T09:50:40Z</time>
      </trkpt>
      <trkpt lat="49.38938" lon="5.83817">
        <ele>285.20001220703</ele>
        <time>2024-06-09T09:50:42Z</time>
      </trkpt>
      <trkpt lat="49.38935" lon="5.83817">
        <ele>285.20001220703</ele>
        <time>2024-06-09T09:50:44Z</time>
      </trkpt>
      <trkpt lat="49.38933" lon="5.83817">
        <ele>285.20001220703</ele>
        <time>2024-06-09T09:50:46Z</time>
      </trkpt>
      <trkpt lat="49.3893" lon="5.83816">
        <ele>285.20001220703</ele>
        <time>2024-06-09T09:50:48Z</time>
      </trkpt>
      <trkpt lat="49.38929" lon="5.83816">
        <ele>285.20001220703</ele>
        <time>2024-06-09T09:50:49Z</time>
      </trkpt>
      <trkpt lat="49.38928" lon="5.83814">
        <ele>285.20001220703</ele>
        <time>2024-06-09T09:50:50Z</time>
      </trkpt>
      <trkpt lat="49.38926" lon="5.83812">
        <ele>285.20001220703</ele>
        <time>2024-06-09T09:50:52Z</time>
      </trkpt>
      <trkpt lat="49.38923" lon="5.83812">
        <ele>285.20001220703</ele>
        <time>2024-06-09T09:50:54Z</time>
      </trkpt>
      <trkpt lat="49.38921" lon="5.83812">
        <ele>285.39999389648</ele>
        <time>2024-06-09T09:50:56Z</time>
      </trkpt>
      <trkpt lat="49.3892" lon="5.83809">
        <ele>285.60000610352</ele>
        <time>2024-06-09T09:50:58Z</time>
      </trkpt>
      <trkpt lat="49.38919" lon="5.83808">
        <ele>285.60000610352</ele>
        <time>2024-06-09T09:50:59Z</time>
      </trkpt>
      <trkpt lat="49.38918" lon="5.83806">
        <ele>285.60000610352</ele>
        <time>2024-06-09T09:51:00Z</time>
      </trkpt>
      <trkpt lat="49.38916" lon="5.83802">
        <ele>285.79998779297</ele>
        <time>2024-06-09T09:51:02Z</time>
      </trkpt>
      <trkpt lat="49.38914" lon="5.83797">
        <ele>286.20001220703</ele>
        <time>2024-06-09T09:51:04Z</time>
      </trkpt>
      <trkpt lat="49.38911" lon="5.83792">
        <ele>286.39999389648</ele>
        <time>2024-06-09T09:51:06Z</time>
      </trkpt>
      <trkpt lat="49.38907" lon="5.83787">
        <ele>286.60000610352</ele>
        <time>2024-06-09T09:51:08Z</time>
      </trkpt>
      <trkpt lat="49.38904" lon="5.83782">
        <ele>286.60000610352</ele>
        <time>2024-06-09T09:51:10Z</time>
      </trkpt>
      <trkpt lat="49.38901" lon="5.83777">
        <ele>287</ele>
        <time>2024-06-09T09:51:12Z</time>
      </trkpt>
      <trkpt lat="49.38897" lon="5.83772">
        <ele>287.39999389648</ele>
        <time>2024-06-09T09:51:14Z</time>
      </trkpt>
      <trkpt lat="49.38895" lon="5.83768">
        <ele>287.60000610352</ele>
        <time>2024-06-09T09:51:16Z</time>
      </trkpt>
      <trkpt lat="49.38892" lon="5.83764">
        <ele>288</ele>
        <time>2024-06-09T09:51:18Z</time>
      </trkpt>
      <trkpt lat="49.38891" lon="5.8376">
        <ele>288.20001220703</ele>
        <time>2024-06-09T09:51:20Z</time>
      </trkpt>
      <trkpt lat="49.38889" lon="5.83758">
        <ele>288.39999389648</ele>
        <time>2024-06-09T09:51:21Z</time>
      </trkpt>
      <trkpt lat="49.38888" lon="5.83755">
        <ele>288.60000610352</ele>
        <time>2024-06-09T09:51:22Z</time>
      </trkpt>
      <trkpt lat="49.38886" lon="5.83752">
        <ele>288.79998779297</ele>
        <time>2024-06-09T09:51:23Z</time>
      </trkpt>
      <trkpt lat="49.38885" lon="5.8375">
        <ele>288.79998779297</ele>
        <time>2024-06-09T09:51:24Z</time>
      </trkpt>
      <trkpt lat="49.38881" lon="5.83745">
        <ele>289</ele>
        <time>2024-06-09T09:51:26Z</time>
      </trkpt>
      <trkpt lat="49.38878" lon="5.83742">
        <ele>289.20001220703</ele>
        <time>2024-06-09T09:51:28Z</time>
      </trkpt>
      <trkpt lat="49.38875" lon="5.83738">
        <ele>289.20001220703</ele>
        <time>2024-06-09T09:51:30Z</time>
      </trkpt>
      <trkpt lat="49.38871" lon="5.83735">
        <ele>289.20001220703</ele>
        <time>2024-06-09T09:51:32Z</time>
      </trkpt>
      <trkpt lat="49.38866" lon="5.83731">
        <ele>289.20001220703</ele>
        <time>2024-06-09T09:51:34Z</time>
      </trkpt>
      <trkpt lat="49.3886" lon="5.83727">
        <ele>289.20001220703</ele>
        <time>2024-06-09T09:51:36Z</time>
      </trkpt>
      <trkpt lat="49.38854" lon="5.83726">
        <ele>289.20001220703</ele>
        <time>2024-06-09T09:51:38Z</time>
      </trkpt>
      <trkpt lat="49.38847" lon="5.83726">
        <ele>289</ele>
        <time>2024-06-09T09:51:40Z</time>
      </trkpt>
      <trkpt lat="49.38841" lon="5.83729">
        <ele>289</ele>
        <time>2024-06-09T09:51:42Z</time>
      </trkpt>
      <trkpt lat="49.38833" lon="5.83731">
        <ele>288.39999389648</ele>
        <time>2024-06-09T09:51:44Z</time>
      </trkpt>
      <trkpt lat="49.38825" lon="5.83735">
        <ele>288</ele>
        <time>2024-06-09T09:51:46Z</time>
      </trkpt>
      <trkpt lat="49.38817" lon="5.83738">
        <ele>287.60000610352</ele>
        <time>2024-06-09T09:51:48Z</time>
      </trkpt>
      <trkpt lat="49.38809" lon="5.83742">
        <ele>287.20001220703</ele>
        <time>2024-06-09T09:51:50Z</time>
      </trkpt>
      <trkpt lat="49.388" lon="5.83748">
        <ele>287</ele>
        <time>2024-06-09T09:51:52Z</time>
      </trkpt>
      <trkpt lat="49.38791" lon="5.83752">
        <ele>286.79998779297</ele>
        <time>2024-06-09T09:51:54Z</time>
      </trkpt>
      <trkpt lat="49.38787" lon="5.83753">
        <ele>286.79998779297</ele>
        <time>2024-06-09T09:51:55Z</time>
      </trkpt>
      <trkpt lat="49.38783" lon="5.83754">
        <ele>286.79998779297</ele>
        <time>2024-06-09T09:51:56Z</time>
      </trkpt>
      <trkpt lat="49.38775" lon="5.83758">
        <ele>286.79998779297</ele>
        <time>2024-06-09T09:51:58Z</time>
      </trkpt>
      <trkpt lat="49.38767" lon="5.83764">
        <ele>286.79998779297</ele>
        <time>2024-06-09T09:52:00Z</time>
      </trkpt>
      <trkpt lat="49.38757" lon="5.83769">
        <ele>286.79998779297</ele>
        <time>2024-06-09T09:52:02Z</time>
      </trkpt>
      <trkpt lat="49.3875" lon="5.83774">
        <ele>286.79998779297</ele>
        <time>2024-06-09T09:52:04Z</time>
      </trkpt>
      <trkpt lat="49.38746" lon="5.83777">
        <ele>286.79998779297</ele>
        <time>2024-06-09T09:52:05Z</time>
      </trkpt>
      <trkpt lat="49.38743" lon="5.8378">
        <ele>286.79998779297</ele>
        <time>2024-06-09T09:52:06Z</time>
      </trkpt>
      <trkpt lat="49.38736" lon="5.83784">
        <ele>286.79998779297</ele>
        <time>2024-06-09T09:52:08Z</time>
      </trkpt>
      <trkpt lat="49.3873" lon="5.83788">
        <ele>286.79998779297</ele>
        <time>2024-06-09T09:52:10Z</time>
      </trkpt>
      <trkpt lat="49.38727" lon="5.8379">
        <ele>287</ele>
        <time>2024-06-09T09:52:11Z</time>
      </trkpt>
      <trkpt lat="49.38724" lon="5.83791">
        <ele>287</ele>
        <time>2024-06-09T09:52:12Z</time>
      </trkpt>
      <trkpt lat="49.38719" lon="5.8379">
        <ele>287</ele>
        <time>2024-06-09T09:52:14Z</time>
      </trkpt>
      <trkpt lat="49.38716" lon="5.83787">
        <ele>287</ele>
        <time>2024-06-09T09:52:15Z</time>
      </trkpt>
      <trkpt lat="49.38713" lon="5.83784">
        <ele>287.20001220703</ele>
        <time>2024-06-09T09:52:16Z</time>
      </trkpt>
      <trkpt lat="49.38707" lon="5.83778">
        <ele>287.39999389648</ele>
        <time>2024-06-09T09:52:18Z</time>
      </trkpt>
      <trkpt lat="49.387" lon="5.83772">
        <ele>287.39999389648</ele>
        <time>2024-06-09T09:52:20Z</time>
      </trkpt>
      <trkpt lat="49.38696" lon="5.83769">
        <ele>287.60000610352</ele>
        <time>2024-06-09T09:52:21Z</time>
      </trkpt>
      <trkpt lat="49.38693" lon="5.83766">
        <ele>287.60000610352</ele>
        <time>2024-06-09T09:52:22Z</time>
      </trkpt>
      <trkpt lat="49.38685" lon="5.83759">
        <ele>287.79998779297</ele>
        <time>2024-06-09T09:52:24Z</time>
      </trkpt>
      <trkpt lat="49.38677" lon="5.83753">
        <ele>288</ele>
        <time>2024-06-09T09:52:26Z</time>
      </trkpt>
      <trkpt lat="49.38675" lon="5.8375">
        <ele>288</ele>
        <time>2024-06-09T09:52:27Z</time>
      </trkpt>
      <trkpt lat="49.38673" lon="5.83746">
        <ele>288</ele>
        <time>2024-06-09T09:52:28Z</time>
      </trkpt>
      <trkpt lat="49.3867" lon="5.83741">
        <ele>288</ele>
        <time>2024-06-09T09:52:30Z</time>
      </trkpt>
      <trkpt lat="49.38669" lon="5.83739">
        <ele>288</ele>
        <time>2024-06-09T09:52:31Z</time>
      </trkpt>
      <trkpt lat="49.3867" lon="5.83736">
        <ele>288</ele>
        <time>2024-06-09T09:52:32Z</time>
      </trkpt>
      <trkpt lat="49.3867" lon="5.83734">
        <ele>288</ele>
        <time>2024-06-09T09:52:33Z</time>
      </trkpt>
      <trkpt lat="49.38671" lon="5.83732">
        <ele>288.20001220703</ele>
        <time>2024-06-09T09:52:34Z</time>
      </trkpt>
      <trkpt lat="49.38672" lon="5.83728">
        <ele>288.60000610352</ele>
        <time>2024-06-09T09:52:36Z</time>
      </trkpt>
      <trkpt lat="49.38673" lon="5.83726">
        <ele>288.79998779297</ele>
        <time>2024-06-09T09:52:37Z</time>
      </trkpt>
      <trkpt lat="49.38674" lon="5.83724">
        <ele>289.39999389648</ele>
        <time>2024-06-09T09:52:38Z</time>
      </trkpt>
      <trkpt lat="49.38676" lon="5.83721">
        <ele>289.79998779297</ele>
        <time>2024-06-09T09:52:39Z</time>
      </trkpt>
      <trkpt lat="49.38677" lon="5.83718">
        <ele>290</ele>
        <time>2024-06-09T09:52:40Z</time>
      </trkpt>
      <trkpt lat="49.38679" lon="5.83713">
        <ele>290.39999389648</ele>
        <time>2024-06-09T09:52:42Z</time>
      </trkpt>
      <trkpt lat="49.3868" lon="5.83707">
        <ele>290.60000610352</ele>
        <time>2024-06-09T09:52:44Z</time>
      </trkpt>
      <trkpt lat="49.38681" lon="5.83704">
        <ele>290.79998779297</ele>
        <time>2024-06-09T09:52:45Z</time>
      </trkpt>
      <trkpt lat="49.38682" lon="5.837">
        <ele>291</ele>
        <time>2024-06-09T09:52:46Z</time>
      </trkpt>
      <trkpt lat="49.38682" lon="5.83697">
        <ele>291</ele>
        <time>2024-06-09T09:52:47Z</time>
      </trkpt>
      <trkpt lat="49.38683" lon="5.83694">
        <ele>291</ele>
        <time>2024-06-09T09:52:48Z</time>
      </trkpt>
      <trkpt lat="49.38685" lon="5.83689">
        <ele>291.39999389648</ele>
        <time>2024-06-09T09:52:50Z</time>
      </trkpt>
      <trkpt lat="49.38687" lon="5.83684">
        <ele>291.60000610352</ele>
        <time>2024-06-09T09:52:52Z</time>
      </trkpt>
      <trkpt lat="49.38689" lon="5.83679">
        <ele>291.60000610352</ele>
        <time>2024-06-09T09:52:54Z</time>
      </trkpt>
      <trkpt lat="49.38691" lon="5.83673">
        <ele>291.79998779297</ele>
        <time>2024-06-09T09:52:56Z</time>
      </trkpt>
      <trkpt lat="49.38693" lon="5.83668">
        <ele>292</ele>
        <time>2024-06-09T09:52:58Z</time>
      </trkpt>
      <trkpt lat="49.38693" lon="5.83665">
        <ele>292.20001220703</ele>
        <time>2024-06-09T09:52:59Z</time>
      </trkpt>
      <trkpt lat="49.38694" lon="5.83663">
        <ele>292.20001220703</ele>
        <time>2024-06-09T09:53:00Z</time>
      </trkpt>
      <trkpt lat="49.38696" lon="5.83657">
        <ele>292.60000610352</ele>
        <time>2024-06-09T09:53:02Z</time>
      </trkpt>
      <trkpt lat="49.38698" lon="5.83653">
        <ele>293</ele>
        <time>2024-06-09T09:53:04Z</time>
      </trkpt>
      <trkpt lat="49.387" lon="5.83651">
        <ele>293.20001220703</ele>
        <time>2024-06-09T09:53:05Z</time>
      </trkpt>
      <trkpt lat="49.38701" lon="5.8365">
        <ele>293.39999389648</ele>
        <time>2024-06-09T09:53:06Z</time>
      </trkpt>
      <trkpt lat="49.38703" lon="5.83646">
        <ele>294</ele>
        <time>2024-06-09T09:53:08Z</time>
      </trkpt>
      <trkpt lat="49.38704" lon="5.83644">
        <ele>294.20001220703</ele>
        <time>2024-06-09T09:53:09Z</time>
      </trkpt>
      <trkpt lat="49.38705" lon="5.83642">
        <ele>294.39999389648</ele>
        <time>2024-06-09T09:53:10Z</time>
      </trkpt>
      <trkpt lat="49.38708" lon="5.83636">
        <ele>295</ele>
        <time>2024-06-09T09:53:12Z</time>
      </trkpt>
      <trkpt lat="49.38711" lon="5.83632">
        <ele>295.39999389648</ele>
        <time>2024-06-09T09:53:14Z</time>
      </trkpt>
      <trkpt lat="49.38714" lon="5.83629">
        <ele>295.79998779297</ele>
        <time>2024-06-09T09:53:16Z</time>
      </trkpt>
      <trkpt lat="49.38716" lon="5.83626">
        <ele>296.39999389648</ele>
        <time>2024-06-09T09:53:18Z</time>
      </trkpt>
      <trkpt lat="49.38718" lon="5.83622">
        <ele>297</ele>
        <time>2024-06-09T09:53:20Z</time>
      </trkpt>
      <trkpt lat="49.38719" lon="5.83617">
        <ele>297.39999389648</ele>
        <time>2024-06-09T09:53:22Z</time>
      </trkpt>
      <trkpt lat="49.3872" lon="5.83616">
        <ele>297.39999389648</ele>
        <time>2024-06-09T09:53:23Z</time>
      </trkpt>
      <trkpt lat="49.38721" lon="5.83614">
        <ele>297.60000610352</ele>
        <time>2024-06-09T09:53:24Z</time>
      </trkpt>
      <trkpt lat="49.38722" lon="5.83611">
        <ele>298</ele>
        <time>2024-06-09T09:53:26Z</time>
      </trkpt>
      <trkpt lat="49.38723" lon="5.83606">
        <ele>298.39999389648</ele>
        <time>2024-06-09T09:53:28Z</time>
      </trkpt>
      <trkpt lat="49.38722" lon="5.83602">
        <ele>298.60000610352</ele>
        <time>2024-06-09T09:53:29Z</time>
      </trkpt>
      <trkpt lat="49.38723" lon="5.83599">
        <ele>298.79998779297</ele>
        <time>2024-06-09T09:53:30Z</time>
      </trkpt>
      <trkpt lat="49.38722" lon="5.83594">
        <ele>299.20001220703</ele>
        <time>2024-06-09T09:53:32Z</time>
      </trkpt>
      <trkpt lat="49.38721" lon="5.83589">
        <ele>299.60000610352</ele>
        <time>2024-06-09T09:53:34Z</time>
      </trkpt>
      <trkpt lat="49.3872" lon="5.83587">
        <ele>299.79998779297</ele>
        <time>2024-06-09T09:53:35Z</time>
      </trkpt>
      <trkpt lat="49.3872" lon="5.83585">
        <ele>300.20001220703</ele>
        <time>2024-06-09T09:53:36Z</time>
      </trkpt>
      <trkpt lat="49.38719" lon="5.83583">
        <ele>300.39999389648</ele>
        <time>2024-06-09T09:53:37Z</time>
      </trkpt>
      <trkpt lat="49.38718" lon="5.83581">
        <ele>300.60000610352</ele>
        <time>2024-06-09T09:53:38Z</time>
      </trkpt>
      <trkpt lat="49.38716" lon="5.83576">
        <ele>301</ele>
        <time>2024-06-09T09:53:40Z</time>
      </trkpt>
      <trkpt lat="49.38714" lon="5.83571">
        <ele>301.20001220703</ele>
        <time>2024-06-09T09:53:42Z</time>
      </trkpt>
      <trkpt lat="49.38711" lon="5.83567">
        <ele>301.39999389648</ele>
        <time>2024-06-09T09:53:44Z</time>
      </trkpt>
      <trkpt lat="49.3871" lon="5.83566">
        <ele>301.60000610352</ele>
        <time>2024-06-09T09:53:45Z</time>
      </trkpt>
      <trkpt lat="49.38709" lon="5.83564">
        <ele>301.60000610352</ele>
        <time>2024-06-09T09:53:46Z</time>
      </trkpt>
      <trkpt lat="49.38706" lon="5.83559">
        <ele>301.79998779297</ele>
        <time>2024-06-09T09:53:48Z</time>
      </trkpt>
      <trkpt lat="49.38703" lon="5.83556">
        <ele>302</ele>
        <time>2024-06-09T09:53:50Z</time>
      </trkpt>
      <trkpt lat="49.38701" lon="5.83554">
        <ele>302</ele>
        <time>2024-06-09T09:53:51Z</time>
      </trkpt>
      <trkpt lat="49.387" lon="5.83553">
        <ele>302</ele>
        <time>2024-06-09T09:53:52Z</time>
      </trkpt>
      <trkpt lat="49.38696" lon="5.83552">
        <ele>302</ele>
        <time>2024-06-09T09:53:54Z</time>
      </trkpt>
      <trkpt lat="49.38695" lon="5.83554">
        <ele>302.20001220703</ele>
        <time>2024-06-09T09:53:55Z</time>
      </trkpt>
      <trkpt lat="49.38694" lon="5.83555">
        <ele>302.20001220703</ele>
        <time>2024-06-09T09:53:56Z</time>
      </trkpt>
      <trkpt lat="49.38691" lon="5.83557">
        <ele>302.39999389648</ele>
        <time>2024-06-09T09:53:58Z</time>
      </trkpt>
      <trkpt lat="49.38689" lon="5.8356">
        <ele>302.60000610352</ele>
        <time>2024-06-09T09:54:00Z</time>
      </trkpt>
      <trkpt lat="49.38687" lon="5.83563">
        <ele>302.60000610352</ele>
        <time>2024-06-09T09:54:02Z</time>
      </trkpt>
      <trkpt lat="49.38684" lon="5.83567">
        <ele>302.79998779297</ele>
        <time>2024-06-09T09:54:04Z</time>
      </trkpt>
      <trkpt lat="49.38681" lon="5.83571">
        <ele>302.79998779297</ele>
        <time>2024-06-09T09:54:06Z</time>
      </trkpt>
      <trkpt lat="49.38679" lon="5.83576">
        <ele>302.79998779297</ele>
        <time>2024-06-09T09:54:08Z</time>
      </trkpt>
      <trkpt lat="49.38678" lon="5.83578">
        <ele>303</ele>
        <time>2024-06-09T09:54:09Z</time>
      </trkpt>
      <trkpt lat="49.38676" lon="5.8358">
        <ele>303</ele>
        <time>2024-06-09T09:54:10Z</time>
      </trkpt>
      <trkpt lat="49.38673" lon="5.83583">
        <ele>303.20001220703</ele>
        <time>2024-06-09T09:54:12Z</time>
      </trkpt>
      <trkpt lat="49.3867" lon="5.83587">
        <ele>303.20001220703</ele>
        <time>2024-06-09T09:54:14Z</time>
      </trkpt>
      <trkpt lat="49.38668" lon="5.83588">
        <ele>303.20001220703</ele>
        <time>2024-06-09T09:54:15Z</time>
      </trkpt>
      <trkpt lat="49.38667" lon="5.8359">
        <ele>303.20001220703</ele>
        <time>2024-06-09T09:54:16Z</time>
      </trkpt>
      <trkpt lat="49.38663" lon="5.83592">
        <ele>303.20001220703</ele>
        <time>2024-06-09T09:54:18Z</time>
      </trkpt>
      <trkpt lat="49.3866" lon="5.83594">
        <ele>303.39999389648</ele>
        <time>2024-06-09T09:54:20Z</time>
      </trkpt>
      <trkpt lat="49.38657" lon="5.83598">
        <ele>303.79998779297</ele>
        <time>2024-06-09T09:54:22Z</time>
      </trkpt>
      <trkpt lat="49.38656" lon="5.83599">
        <ele>304</ele>
        <time>2024-06-09T09:54:23Z</time>
      </trkpt>
      <trkpt lat="49.38654" lon="5.83601">
        <ele>304.20001220703</ele>
        <time>2024-06-09T09:54:24Z</time>
      </trkpt>
      <trkpt lat="49.38652" lon="5.83601">
        <ele>304.39999389648</ele>
        <time>2024-06-09T09:54:25Z</time>
      </trkpt>
      <trkpt lat="49.38651" lon="5.83602">
        <ele>304.60000610352</ele>
        <time>2024-06-09T09:54:26Z</time>
      </trkpt>
      <trkpt lat="49.3865" lon="5.83603">
        <ele>304.79998779297</ele>
        <time>2024-06-09T09:54:27Z</time>
      </trkpt>
      <trkpt lat="49.38649" lon="5.83604">
        <ele>305</ele>
        <time>2024-06-09T09:54:28Z</time>
      </trkpt>
      <trkpt lat="49.38648" lon="5.83605">
        <ele>305.20001220703</ele>
        <time>2024-06-09T09:54:29Z</time>
      </trkpt>
      <trkpt lat="49.38646" lon="5.83607">
        <ele>305.39999389648</ele>
        <time>2024-06-09T09:54:30Z</time>
      </trkpt>
      <trkpt lat="49.38644" lon="5.83608">
        <ele>305.60000610352</ele>
        <time>2024-06-09T09:54:32Z</time>
      </trkpt>
      <trkpt lat="49.38642" lon="5.83609">
        <ele>305.79998779297</ele>
        <time>2024-06-09T09:54:33Z</time>
      </trkpt>
      <trkpt lat="49.38641" lon="5.8361">
        <ele>306</ele>
        <time>2024-06-09T09:54:34Z</time>
      </trkpt>
      <trkpt lat="49.3864" lon="5.8361">
        <ele>306.60000610352</ele>
        <time>2024-06-09T09:54:36Z</time>
      </trkpt>
      <trkpt lat="49.38637" lon="5.83612">
        <ele>307</ele>
        <time>2024-06-09T09:54:38Z</time>
      </trkpt>
      <trkpt lat="49.38635" lon="5.83615">
        <ele>307.39999389648</ele>
        <time>2024-06-09T09:54:40Z</time>
      </trkpt>
      <trkpt lat="49.38634" lon="5.83616">
        <ele>307.60000610352</ele>
        <time>2024-06-09T09:54:41Z</time>
      </trkpt>
      <trkpt lat="49.38632" lon="5.83616">
        <ele>307.79998779297</ele>
        <time>2024-06-09T09:54:42Z</time>
      </trkpt>
      <trkpt lat="49.3863" lon="5.83619">
        <ele>308.20001220703</ele>
        <time>2024-06-09T09:54:44Z</time>
      </trkpt>
      <trkpt lat="49.38627" lon="5.8362">
        <ele>308.60000610352</ele>
        <time>2024-06-09T09:54:46Z</time>
      </trkpt>
      <trkpt lat="49.38625" lon="5.83622">
        <ele>309</ele>
        <time>2024-06-09T09:54:48Z</time>
      </trkpt>
      <trkpt lat="49.38621" lon="5.83621">
        <ele>309.39999389648</ele>
        <time>2024-06-09T09:54:50Z</time>
      </trkpt>
      <trkpt lat="49.38618" lon="5.83623">
        <ele>309.60000610352</ele>
        <time>2024-06-09T09:54:52Z</time>
      </trkpt>
      <trkpt lat="49.38615" lon="5.83625">
        <ele>310.20001220703</ele>
        <time>2024-06-09T09:54:54Z</time>
      </trkpt>
      <trkpt lat="49.38613" lon="5.83626">
        <ele>310.60000610352</ele>
        <time>2024-06-09T09:54:56Z</time>
      </trkpt>
      <trkpt lat="49.3861" lon="5.83628">
        <ele>311.20001220703</ele>
        <time>2024-06-09T09:54:58Z</time>
      </trkpt>
      <trkpt lat="49.38609" lon="5.83629">
        <ele>311.39999389648</ele>
        <time>2024-06-09T09:54:59Z</time>
      </trkpt>
      <trkpt lat="49.38606" lon="5.83631">
        <ele>311.60000610352</ele>
        <time>2024-06-09T09:55:00Z</time>
      </trkpt>
      <trkpt lat="49.38604" lon="5.83631">
        <ele>312</ele>
        <time>2024-06-09T09:55:02Z</time>
      </trkpt>
      <trkpt lat="49.386" lon="5.83633">
        <ele>312.39999389648</ele>
        <time>2024-06-09T09:55:04Z</time>
      </trkpt>
      <trkpt lat="49.38598" lon="5.83634">
        <ele>312.60000610352</ele>
        <time>2024-06-09T09:55:05Z</time>
      </trkpt>
      <trkpt lat="49.38597" lon="5.83634">
        <ele>312.60000610352</ele>
        <time>2024-06-09T09:55:06Z</time>
      </trkpt>
      <trkpt lat="49.38594" lon="5.83636">
        <ele>313</ele>
        <time>2024-06-09T09:55:08Z</time>
      </trkpt>
      <trkpt lat="49.38591" lon="5.83637">
        <ele>313.20001220703</ele>
        <time>2024-06-09T09:55:10Z</time>
      </trkpt>
      <trkpt lat="49.38589" lon="5.83638">
        <ele>313.60000610352</ele>
        <time>2024-06-09T09:55:12Z</time>
      </trkpt>
      <trkpt lat="49.38586" lon="5.83641">
        <ele>313.79998779297</ele>
        <time>2024-06-09T09:55:14Z</time>
      </trkpt>
      <trkpt lat="49.38583" lon="5.83642">
        <ele>314.39999389648</ele>
        <time>2024-06-09T09:55:16Z</time>
      </trkpt>
      <trkpt lat="49.38582" lon="5.83642">
        <ele>314.60000610352</ele>
        <time>2024-06-09T09:55:17Z</time>
      </trkpt>
      <trkpt lat="49.38581" lon="5.83642">
        <ele>314.79998779297</ele>
        <time>2024-06-09T09:55:18Z</time>
      </trkpt>
      <trkpt lat="49.38577" lon="5.83642">
        <ele>315.20001220703</ele>
        <time>2024-06-09T09:55:20Z</time>
      </trkpt>
      <trkpt lat="49.38574" lon="5.83642">
        <ele>315.60000610352</ele>
        <time>2024-06-09T09:55:22Z</time>
      </trkpt>
      <trkpt lat="49.38571" lon="5.83644">
        <ele>316</ele>
        <time>2024-06-09T09:55:24Z</time>
      </trkpt>
      <trkpt lat="49.38568" lon="5.83644">
        <ele>316.39999389648</ele>
        <time>2024-06-09T09:55:26Z</time>
      </trkpt>
      <trkpt lat="49.38566" lon="5.83645">
        <ele>316.60000610352</ele>
        <time>2024-06-09T09:55:27Z</time>
      </trkpt>
      <trkpt lat="49.38565" lon="5.83645">
        <ele>316.79998779297</ele>
        <time>2024-06-09T09:55:28Z</time>
      </trkpt>
      <trkpt lat="49.38562" lon="5.83645">
        <ele>317.39999389648</ele>
        <time>2024-06-09T09:55:30Z</time>
      </trkpt>
      <trkpt lat="49.38559" lon="5.83644">
        <ele>317.60000610352</ele>
        <time>2024-06-09T09:55:32Z</time>
      </trkpt>
      <trkpt lat="49.38558" lon="5.83645">
        <ele>317.79998779297</ele>
        <time>2024-06-09T09:55:33Z</time>
      </trkpt>
      <trkpt lat="49.38556" lon="5.83645">
        <ele>318</ele>
        <time>2024-06-09T09:55:34Z</time>
      </trkpt>
      <trkpt lat="49.38553" lon="5.83645">
        <ele>318.20001220703</ele>
        <time>2024-06-09T09:55:36Z</time>
      </trkpt>
      <trkpt lat="49.3855" lon="5.83645">
        <ele>318.39999389648</ele>
        <time>2024-06-09T09:55:38Z</time>
      </trkpt>
      <trkpt lat="49.38549" lon="5.83645">
        <ele>318.39999389648</ele>
        <time>2024-06-09T09:55:39Z</time>
      </trkpt>
      <trkpt lat="49.38547" lon="5.83644">
        <ele>318.60000610352</ele>
        <time>2024-06-09T09:55:40Z</time>
      </trkpt>
      <trkpt lat="49.38546" lon="5.83644">
        <ele>318.79998779297</ele>
        <time>2024-06-09T09:55:41Z</time>
      </trkpt>
      <trkpt lat="49.38544" lon="5.83643">
        <ele>319</ele>
        <time>2024-06-09T09:55:42Z</time>
      </trkpt>
      <trkpt lat="49.38541" lon="5.83643">
        <ele>319.20001220703</ele>
        <time>2024-06-09T09:55:44Z</time>
      </trkpt>
      <trkpt lat="49.38538" lon="5.83643">
        <ele>319.60000610352</ele>
        <time>2024-06-09T09:55:46Z</time>
      </trkpt>
      <trkpt lat="49.38537" lon="5.83642">
        <ele>320</ele>
        <time>2024-06-09T09:55:47Z</time>
      </trkpt>
      <trkpt lat="49.38536" lon="5.83642">
        <ele>320.39999389648</ele>
        <time>2024-06-09T09:55:48Z</time>
      </trkpt>
      <trkpt lat="49.38533" lon="5.83641">
        <ele>320.60000610352</ele>
        <time>2024-06-09T09:55:50Z</time>
      </trkpt>
      <trkpt lat="49.38531" lon="5.8364">
        <ele>321</ele>
        <time>2024-06-09T09:55:52Z</time>
      </trkpt>
      <trkpt lat="49.38528" lon="5.8364">
        <ele>321.39999389648</ele>
        <time>2024-06-09T09:55:54Z</time>
      </trkpt>
      <trkpt lat="49.38525" lon="5.8364">
        <ele>321.60000610352</ele>
        <time>2024-06-09T09:55:56Z</time>
      </trkpt>
      <trkpt lat="49.38523" lon="5.83639">
        <ele>322</ele>
        <time>2024-06-09T09:55:58Z</time>
      </trkpt>
      <trkpt lat="49.38521" lon="5.83638">
        <ele>322</ele>
        <time>2024-06-09T09:55:59Z</time>
      </trkpt>
      <trkpt lat="49.3852" lon="5.83637">
        <ele>322.20001220703</ele>
        <time>2024-06-09T09:56:00Z</time>
      </trkpt>
      <trkpt lat="49.38517" lon="5.83636">
        <ele>322.39999389648</ele>
        <time>2024-06-09T09:56:02Z</time>
      </trkpt>
      <trkpt lat="49.38516" lon="5.83635">
        <ele>322.60000610352</ele>
        <time>2024-06-09T09:56:03Z</time>
      </trkpt>
      <trkpt lat="49.38515" lon="5.83635">
        <ele>322.79998779297</ele>
        <time>2024-06-09T09:56:04Z</time>
      </trkpt>
      <trkpt lat="49.38513" lon="5.83633">
        <ele>323</ele>
        <time>2024-06-09T09:56:06Z</time>
      </trkpt>
      <trkpt lat="49.38513" lon="5.83633">
        <ele>323.20001220703</ele>
        <time>2024-06-09T09:56:07Z</time>
      </trkpt>
      <trkpt lat="49.38512" lon="5.83632">
        <ele>323.39999389648</ele>
        <time>2024-06-09T09:56:08Z</time>
      </trkpt>
      <trkpt lat="49.38509" lon="5.83631">
        <ele>323.60000610352</ele>
        <time>2024-06-09T09:56:10Z</time>
      </trkpt>
      <trkpt lat="49.38507" lon="5.8363">
        <ele>323.79998779297</ele>
        <time>2024-06-09T09:56:12Z</time>
      </trkpt>
      <trkpt lat="49.38504" lon="5.83627">
        <ele>324.39999389648</ele>
        <time>2024-06-09T09:56:14Z</time>
      </trkpt>
      <trkpt lat="49.38501" lon="5.83625">
        <ele>324.60000610352</ele>
        <time>2024-06-09T09:56:16Z</time>
      </trkpt>
      <trkpt lat="49.38499" lon="5.83623">
        <ele>324.79998779297</ele>
        <time>2024-06-09T09:56:18Z</time>
      </trkpt>
      <trkpt lat="49.38496" lon="5.83621">
        <ele>325.20001220703</ele>
        <time>2024-06-09T09:56:20Z</time>
      </trkpt>
      <trkpt lat="49.38493" lon="5.83619">
        <ele>325.60000610352</ele>
        <time>2024-06-09T09:56:22Z</time>
      </trkpt>
      <trkpt lat="49.38492" lon="5.83618">
        <ele>325.60000610352</ele>
        <time>2024-06-09T09:56:23Z</time>
      </trkpt>
      <trkpt lat="49.38491" lon="5.83617">
        <ele>325.79998779297</ele>
        <time>2024-06-09T09:56:24Z</time>
      </trkpt>
      <trkpt lat="49.38489" lon="5.83615">
        <ele>326</ele>
        <time>2024-06-09T09:56:26Z</time>
      </trkpt>
      <trkpt lat="49.38486" lon="5.83611">
        <ele>326.20001220703</ele>
        <time>2024-06-09T09:56:28Z</time>
      </trkpt>
      <trkpt lat="49.38484" lon="5.83609">
        <ele>326.39999389648</ele>
        <time>2024-06-09T09:56:29Z</time>
      </trkpt>
      <trkpt lat="49.38483" lon="5.83608">
        <ele>326.60000610352</ele>
        <time>2024-06-09T09:56:30Z</time>
      </trkpt>
      <trkpt lat="49.3848" lon="5.83606">
        <ele>326.79998779297</ele>
        <time>2024-06-09T09:56:32Z</time>
      </trkpt>
      <trkpt lat="49.38477" lon="5.83604">
        <ele>327</ele>
        <time>2024-06-09T09:56:34Z</time>
      </trkpt>
      <trkpt lat="49.38475" lon="5.83602">
        <ele>327.20001220703</ele>
        <time>2024-06-09T09:56:36Z</time>
      </trkpt>
      <trkpt lat="49.38473" lon="5.836">
        <ele>327.39999389648</ele>
        <time>2024-06-09T09:56:38Z</time>
      </trkpt>
      <trkpt lat="49.38471" lon="5.83598">
        <ele>327.60000610352</ele>
        <time>2024-06-09T09:56:40Z</time>
      </trkpt>
      <trkpt lat="49.38469" lon="5.83597">
        <ele>327.79998779297</ele>
        <time>2024-06-09T09:56:41Z</time>
      </trkpt>
      <trkpt lat="49.38468" lon="5.83595">
        <ele>328.20001220703</ele>
        <time>2024-06-09T09:56:42Z</time>
      </trkpt>
      <trkpt lat="49.38466" lon="5.83593">
        <ele>328.60000610352</ele>
        <time>2024-06-09T09:56:44Z</time>
      </trkpt>
      <trkpt lat="49.38463" lon="5.8359">
        <ele>329</ele>
        <time>2024-06-09T09:56:46Z</time>
      </trkpt>
      <trkpt lat="49.3846" lon="5.83587">
        <ele>329.39999389648</ele>
        <time>2024-06-09T09:56:48Z</time>
      </trkpt>
      <trkpt lat="49.38457" lon="5.83584">
        <ele>329.79998779297</ele>
        <time>2024-06-09T09:56:50Z</time>
      </trkpt>
      <trkpt lat="49.38456" lon="5.83584">
        <ele>330</ele>
        <time>2024-06-09T09:56:51Z</time>
      </trkpt>
      <trkpt lat="49.38455" lon="5.83583">
        <ele>330.20001220703</ele>
        <time>2024-06-09T09:56:52Z</time>
      </trkpt>
      <trkpt lat="49.38452" lon="5.8358">
        <ele>330.60000610352</ele>
        <time>2024-06-09T09:56:54Z</time>
      </trkpt>
      <trkpt lat="49.3845" lon="5.83578">
        <ele>330.79998779297</ele>
        <time>2024-06-09T09:56:56Z</time>
      </trkpt>
      <trkpt lat="49.38449" lon="5.83576">
        <ele>331</ele>
        <time>2024-06-09T09:56:58Z</time>
      </trkpt>
      <trkpt lat="49.38448" lon="5.83575">
        <ele>331</ele>
        <time>2024-06-09T09:56:59Z</time>
      </trkpt>
      <trkpt lat="49.38448" lon="5.83574">
        <ele>331.20001220703</ele>
        <time>2024-06-09T09:57:00Z</time>
      </trkpt>
      <trkpt lat="49.38447" lon="5.83572">
        <ele>331.39999389648</ele>
        <time>2024-06-09T09:57:01Z</time>
      </trkpt>
      <trkpt lat="49.38447" lon="5.83571">
        <ele>331.79998779297</ele>
        <time>2024-06-09T09:57:02Z</time>
      </trkpt>
      <trkpt lat="49.38447" lon="5.83568">
        <ele>332.20001220703</ele>
        <time>2024-06-09T09:57:04Z</time>
      </trkpt>
      <trkpt lat="49.38447" lon="5.83565">
        <ele>332.60000610352</ele>
        <time>2024-06-09T09:57:06Z</time>
      </trkpt>
      <trkpt lat="49.38448" lon="5.83563">
        <ele>332.79998779297</ele>
        <time>2024-06-09T09:57:08Z</time>
      </trkpt>
      <trkpt lat="49.38448" lon="5.83563">
        <ele>333</ele>
        <time>2024-06-09T09:57:09Z</time>
      </trkpt>
      <trkpt lat="49.38449" lon="5.83562">
        <ele>333.20001220703</ele>
        <time>2024-06-09T09:57:10Z</time>
      </trkpt>
      <trkpt lat="49.38449" lon="5.83561">
        <ele>333.60000610352</ele>
        <time>2024-06-09T09:57:11Z</time>
      </trkpt>
      <trkpt lat="49.3845" lon="5.83559">
        <ele>333.79998779297</ele>
        <time>2024-06-09T09:57:12Z</time>
      </trkpt>
      <trkpt lat="49.3845" lon="5.83558">
        <ele>334</ele>
        <time>2024-06-09T09:57:13Z</time>
      </trkpt>
      <trkpt lat="49.38451" lon="5.83557">
        <ele>334.20001220703</ele>
        <time>2024-06-09T09:57:14Z</time>
      </trkpt>
      <trkpt lat="49.38453" lon="5.83554">
        <ele>334.60000610352</ele>
        <time>2024-06-09T09:57:16Z</time>
      </trkpt>
      <trkpt lat="49.38454" lon="5.83553">
        <ele>334.79998779297</ele>
        <time>2024-06-09T09:57:17Z</time>
      </trkpt>
      <trkpt lat="49.38455" lon="5.83551">
        <ele>335</ele>
        <time>2024-06-09T09:57:18Z</time>
      </trkpt>
      <trkpt lat="49.38457" lon="5.8355">
        <ele>335</ele>
        <time>2024-06-09T09:57:19Z</time>
      </trkpt>
      <trkpt lat="49.38458" lon="5.83549">
        <ele>335</ele>
        <time>2024-06-09T09:57:20Z</time>
      </trkpt>
      <trkpt lat="49.3846" lon="5.83547">
        <ele>335.20001220703</ele>
        <time>2024-06-09T09:57:22Z</time>
      </trkpt>
      <trkpt lat="49.38463" lon="5.83544">
        <ele>335.20001220703</ele>
        <time>2024-06-09T09:57:24Z</time>
      </trkpt>
      <trkpt lat="49.38466" lon="5.83541">
        <ele>335.39999389648</ele>
        <time>2024-06-09T09:57:26Z</time>
      </trkpt>
      <trkpt lat="49.38467" lon="5.83539">
        <ele>335.60000610352</ele>
        <time>2024-06-09T09:57:27Z</time>
      </trkpt>
      <trkpt lat="49.38468" lon="5.83538">
        <ele>335.60000610352</ele>
        <time>2024-06-09T09:57:28Z</time>
      </trkpt>
      <trkpt lat="49.3847" lon="5.83534">
        <ele>335.79998779297</ele>
        <time>2024-06-09T09:57:30Z</time>
      </trkpt>
      <trkpt lat="49.38473" lon="5.83529">
        <ele>335.79998779297</ele>
        <time>2024-06-09T09:57:32Z</time>
      </trkpt>
      <trkpt lat="49.38477" lon="5.83525">
        <ele>336</ele>
        <time>2024-06-09T09:57:34Z</time>
      </trkpt>
      <trkpt lat="49.38479" lon="5.83522">
        <ele>336</ele>
        <time>2024-06-09T09:57:35Z</time>
      </trkpt>
      <trkpt lat="49.38481" lon="5.83519">
        <ele>336.20001220703</ele>
        <time>2024-06-09T09:57:36Z</time>
      </trkpt>
      <trkpt lat="49.38484" lon="5.83514">
        <ele>336.20001220703</ele>
        <time>2024-06-09T09:57:38Z</time>
      </trkpt>
      <trkpt lat="49.38488" lon="5.83509">
        <ele>336.20001220703</ele>
        <time>2024-06-09T09:57:40Z</time>
      </trkpt>
      <trkpt lat="49.38491" lon="5.83504">
        <ele>336.39999389648</ele>
        <time>2024-06-09T09:57:42Z</time>
      </trkpt>
      <trkpt lat="49.38496" lon="5.83497">
        <ele>336.39999389648</ele>
        <time>2024-06-09T09:57:44Z</time>
      </trkpt>
      <trkpt lat="49.38502" lon="5.83489">
        <ele>336.39999389648</ele>
        <time>2024-06-09T09:57:46Z</time>
      </trkpt>
      <trkpt lat="49.38507" lon="5.83481">
        <ele>336.39999389648</ele>
        <time>2024-06-09T09:57:48Z</time>
      </trkpt>
      <trkpt lat="49.38511" lon="5.83474">
        <ele>336.39999389648</ele>
        <time>2024-06-09T09:57:50Z</time>
      </trkpt>
      <trkpt lat="49.38516" lon="5.83467">
        <ele>336.39999389648</ele>
        <time>2024-06-09T09:57:52Z</time>
      </trkpt>
      <trkpt lat="49.38518" lon="5.83462">
        <ele>336.39999389648</ele>
        <time>2024-06-09T09:57:53Z</time>
      </trkpt>
      <trkpt lat="49.38521" lon="5.83457">
        <ele>336.39999389648</ele>
        <time>2024-06-09T09:57:54Z</time>
      </trkpt>
      <trkpt lat="49.38525" lon="5.83446">
        <ele>336.39999389648</ele>
        <time>2024-06-09T09:57:56Z</time>
      </trkpt>
      <trkpt lat="49.3853" lon="5.83437">
        <ele>336.20001220703</ele>
        <time>2024-06-09T09:57:58Z</time>
      </trkpt>
      <trkpt lat="49.38532" lon="5.83432">
        <ele>336.20001220703</ele>
        <time>2024-06-09T09:57:59Z</time>
      </trkpt>
      <trkpt lat="49.38534" lon="5.83427">
        <ele>336.20001220703</ele>
        <time>2024-06-09T09:58:00Z</time>
      </trkpt>
      <trkpt lat="49.38539" lon="5.83415">
        <ele>336.20001220703</ele>
        <time>2024-06-09T09:58:02Z</time>
      </trkpt>
      <trkpt lat="49.38543" lon="5.83402">
        <ele>336</ele>
        <time>2024-06-09T09:58:04Z</time>
      </trkpt>
      <trkpt lat="49.38547" lon="5.8339">
        <ele>336</ele>
        <time>2024-06-09T09:58:06Z</time>
      </trkpt>
      <trkpt lat="49.38551" lon="5.83381">
        <ele>335.60000610352</ele>
        <time>2024-06-09T09:58:08Z</time>
      </trkpt>
      <trkpt lat="49.38554" lon="5.83369">
        <ele>335.60000610352</ele>
        <time>2024-06-09T09:58:10Z</time>
      </trkpt>
      <trkpt lat="49.38555" lon="5.83358">
        <ele>335.39999389648</ele>
        <time>2024-06-09T09:58:12Z</time>
      </trkpt>
      <trkpt lat="49.3856" lon="5.83344">
        <ele>335.39999389648</ele>
        <time>2024-06-09T09:58:14Z</time>
      </trkpt>
      <trkpt lat="49.38566" lon="5.83329">
        <ele>335.20001220703</ele>
        <time>2024-06-09T09:58:16Z</time>
      </trkpt>
      <trkpt lat="49.38574" lon="5.83313">
        <ele>335.20001220703</ele>
        <time>2024-06-09T09:58:18Z</time>
      </trkpt>
      <trkpt lat="49.38582" lon="5.83296">
        <ele>335</ele>
        <time>2024-06-09T09:58:20Z</time>
      </trkpt>
      <trkpt lat="49.38586" lon="5.83286">
        <ele>334.79998779297</ele>
        <time>2024-06-09T09:58:21Z</time>
      </trkpt>
      <trkpt lat="49.3859" lon="5.83277">
        <ele>334.79998779297</ele>
        <time>2024-06-09T09:58:22Z</time>
      </trkpt>
      <trkpt lat="49.38597" lon="5.8326">
        <ele>334.60000610352</ele>
        <time>2024-06-09T09:58:24Z</time>
      </trkpt>
      <trkpt lat="49.38604" lon="5.83244">
        <ele>334.39999389648</ele>
        <time>2024-06-09T09:58:26Z</time>
      </trkpt>
      <trkpt lat="49.38611" lon="5.83228">
        <ele>334</ele>
        <time>2024-06-09T09:58:28Z</time>
      </trkpt>
      <trkpt lat="49.38617" lon="5.83212">
        <ele>333.39999389648</ele>
        <time>2024-06-09T09:58:30Z</time>
      </trkpt>
      <trkpt lat="49.38623" lon="5.83197">
        <ele>333.20001220703</ele>
        <time>2024-06-09T09:58:32Z</time>
      </trkpt>
      <trkpt lat="49.38629" lon="5.83184">
        <ele>333</ele>
        <time>2024-06-09T09:58:34Z</time>
      </trkpt>
      <trkpt lat="49.38632" lon="5.83177">
        <ele>333</ele>
        <time>2024-06-09T09:58:35Z</time>
      </trkpt>
      <trkpt lat="49.38634" lon="5.8317">
        <ele>333</ele>
        <time>2024-06-09T09:58:36Z</time>
      </trkpt>
      <trkpt lat="49.38639" lon="5.83158">
        <ele>333</ele>
        <time>2024-06-09T09:58:38Z</time>
      </trkpt>
      <trkpt lat="49.38643" lon="5.83147">
        <ele>333</ele>
        <time>2024-06-09T09:58:40Z</time>
      </trkpt>
      <trkpt lat="49.38647" lon="5.83136">
        <ele>333</ele>
        <time>2024-06-09T09:58:42Z</time>
      </trkpt>
      <trkpt lat="49.38648" lon="5.83131">
        <ele>333</ele>
        <time>2024-06-09T09:58:43Z</time>
      </trkpt>
      <trkpt lat="49.3865" lon="5.83126">
        <ele>333.20001220703</ele>
        <time>2024-06-09T09:58:44Z</time>
      </trkpt>
      <trkpt lat="49.38654" lon="5.83117">
        <ele>333.60000610352</ele>
        <time>2024-06-09T09:58:46Z</time>
      </trkpt>
      <trkpt lat="49.38659" lon="5.83107">
        <ele>333.79998779297</ele>
        <time>2024-06-09T09:58:48Z</time>
      </trkpt>
      <trkpt lat="49.38664" lon="5.83096">
        <ele>334</ele>
        <time>2024-06-09T09:58:50Z</time>
      </trkpt>
      <trkpt lat="49.38669" lon="5.83085">
        <ele>334.20001220703</ele>
        <time>2024-06-09T09:58:52Z</time>
      </trkpt>
      <trkpt lat="49.38673" lon="5.83073">
        <ele>334.20001220703</ele>
        <time>2024-06-09T09:58:54Z</time>
      </trkpt>
      <trkpt lat="49.38678" lon="5.83062">
        <ele>334.20001220703</ele>
        <time>2024-06-09T09:58:56Z</time>
      </trkpt>
      <trkpt lat="49.38683" lon="5.83051">
        <ele>334.20001220703</ele>
        <time>2024-06-09T09:58:58Z</time>
      </trkpt>
      <trkpt lat="49.38685" lon="5.83046">
        <ele>334.20001220703</ele>
        <time>2024-06-09T09:58:59Z</time>
      </trkpt>
      <trkpt lat="49.38688" lon="5.8304">
        <ele>334.20001220703</ele>
        <time>2024-06-09T09:59:00Z</time>
      </trkpt>
      <trkpt lat="49.38693" lon="5.83028">
        <ele>334.20001220703</ele>
        <time>2024-06-09T09:59:02Z</time>
      </trkpt>
      <trkpt lat="49.38697" lon="5.83016">
        <ele>334.20001220703</ele>
        <time>2024-06-09T09:59:04Z</time>
      </trkpt>
      <trkpt lat="49.38702" lon="5.83004">
        <ele>334.20001220703</ele>
        <time>2024-06-09T09:59:06Z</time>
      </trkpt>
      <trkpt lat="49.38705" lon="5.82993">
        <ele>334.20001220703</ele>
        <time>2024-06-09T09:59:08Z</time>
      </trkpt>
      <trkpt lat="49.3871" lon="5.82986">
        <ele>334.39999389648</ele>
        <time>2024-06-09T09:59:10Z</time>
      </trkpt>
      <trkpt lat="49.38714" lon="5.82983">
        <ele>334.60000610352</ele>
        <time>2024-06-09T09:59:12Z</time>
      </trkpt>
      <trkpt lat="49.38719" lon="5.82982">
        <ele>334.79998779297</ele>
        <time>2024-06-09T09:59:14Z</time>
      </trkpt>
      <trkpt lat="49.38722" lon="5.82981">
        <ele>334.79998779297</ele>
        <time>2024-06-09T09:59:16Z</time>
      </trkpt>
      <trkpt lat="49.38727" lon="5.82979">
        <ele>334.79998779297</ele>
        <time>2024-06-09T09:59:18Z</time>
      </trkpt>
      <trkpt lat="49.38733" lon="5.82978">
        <ele>334.79998779297</ele>
        <time>2024-06-09T09:59:20Z</time>
      </trkpt>
      <trkpt lat="49.38739" lon="5.82977">
        <ele>334.79998779297</ele>
        <time>2024-06-09T09:59:22Z</time>
      </trkpt>
      <trkpt lat="49.38747" lon="5.82974">
        <ele>334.79998779297</ele>
        <time>2024-06-09T09:59:24Z</time>
      </trkpt>
      <trkpt lat="49.38755" lon="5.8297">
        <ele>334.20001220703</ele>
        <time>2024-06-09T09:59:26Z</time>
      </trkpt>
      <trkpt lat="49.38763" lon="5.82966">
        <ele>333</ele>
        <time>2024-06-09T09:59:28Z</time>
      </trkpt>
      <trkpt lat="49.38768" lon="5.82964">
        <ele>332.79998779297</ele>
        <time>2024-06-09T09:59:29Z</time>
      </trkpt>
      <trkpt lat="49.38772" lon="5.82964">
        <ele>332.60000610352</ele>
        <time>2024-06-09T09:59:30Z</time>
      </trkpt>
      <trkpt lat="49.38782" lon="5.8296">
        <ele>332.20001220703</ele>
        <time>2024-06-09T09:59:32Z</time>
      </trkpt>
      <trkpt lat="49.38792" lon="5.82958">
        <ele>332</ele>
        <time>2024-06-09T09:59:34Z</time>
      </trkpt>
      <trkpt lat="49.38797" lon="5.82955">
        <ele>331.79998779297</ele>
        <time>2024-06-09T09:59:35Z</time>
      </trkpt>
      <trkpt lat="49.38802" lon="5.82953">
        <ele>331.79998779297</ele>
        <time>2024-06-09T09:59:36Z</time>
      </trkpt>
      <trkpt lat="49.38808" lon="5.82951">
        <ele>331.60000610352</ele>
        <time>2024-06-09T09:59:37Z</time>
      </trkpt>
      <trkpt lat="49.38814" lon="5.82948">
        <ele>331.39999389648</ele>
        <time>2024-06-09T09:59:38Z</time>
      </trkpt>
      <trkpt lat="49.38819" lon="5.82945">
        <ele>331.20001220703</ele>
        <time>2024-06-09T09:59:39Z</time>
      </trkpt>
      <trkpt lat="49.38825" lon="5.82943">
        <ele>330.79998779297</ele>
        <time>2024-06-09T09:59:40Z</time>
      </trkpt>
      <trkpt lat="49.3883" lon="5.82941">
        <ele>330.60000610352</ele>
        <time>2024-06-09T09:59:41Z</time>
      </trkpt>
      <trkpt lat="49.38837" lon="5.82938">
        <ele>330.20001220703</ele>
        <time>2024-06-09T09:59:42Z</time>
      </trkpt>
      <trkpt lat="49.38843" lon="5.82935">
        <ele>329.79998779297</ele>
        <time>2024-06-09T09:59:43Z</time>
      </trkpt>
      <trkpt lat="49.3885" lon="5.82932">
        <ele>329.60000610352</ele>
        <time>2024-06-09T09:59:44Z</time>
      </trkpt>
      <trkpt lat="49.38858" lon="5.82928">
        <ele>329.20001220703</ele>
        <time>2024-06-09T09:59:45Z</time>
      </trkpt>
      <trkpt lat="49.38866" lon="5.82924">
        <ele>328.39999389648</ele>
        <time>2024-06-09T09:59:46Z</time>
      </trkpt>
      <trkpt lat="49.38872" lon="5.82922">
        <ele>327.60000610352</ele>
        <time>2024-06-09T09:59:47Z</time>
      </trkpt>
      <trkpt lat="49.38878" lon="5.82919">
        <ele>326.79998779297</ele>
        <time>2024-06-09T09:59:48Z</time>
      </trkpt>
      <trkpt lat="49.38884" lon="5.82917">
        <ele>326.20001220703</ele>
        <time>2024-06-09T09:59:49Z</time>
      </trkpt>
      <trkpt lat="49.38893" lon="5.82915">
        <ele>325.39999389648</ele>
        <time>2024-06-09T09:59:50Z</time>
      </trkpt>
      <trkpt lat="49.38902" lon="5.82912">
        <ele>324.20001220703</ele>
        <time>2024-06-09T09:59:51Z</time>
      </trkpt>
      <trkpt lat="49.38908" lon="5.82911">
        <ele>323</ele>
        <time>2024-06-09T09:59:52Z</time>
      </trkpt>
      <trkpt lat="49.38913" lon="5.82909">
        <ele>321.79998779297</ele>
        <time>2024-06-09T09:59:53Z</time>
      </trkpt>
      <trkpt lat="49.38919" lon="5.82908">
        <ele>321</ele>
        <time>2024-06-09T09:59:54Z</time>
      </trkpt>
      <trkpt lat="49.38924" lon="5.82905">
        <ele>320.20001220703</ele>
        <time>2024-06-09T09:59:55Z</time>
      </trkpt>
      <trkpt lat="49.38929" lon="5.82903">
        <ele>319.20001220703</ele>
        <time>2024-06-09T09:59:56Z</time>
      </trkpt>
      <trkpt lat="49.38934" lon="5.82901">
        <ele>318.79998779297</ele>
        <time>2024-06-09T09:59:57Z</time>
      </trkpt>
      <trkpt lat="49.38939" lon="5.82899">
        <ele>318.39999389648</ele>
        <time>2024-06-09T09:59:58Z</time>
      </trkpt>
      <trkpt lat="49.38948" lon="5.82896">
        <ele>318.20001220703</ele>
        <time>2024-06-09T10:00:00Z</time>
      </trkpt>
      <trkpt lat="49.38952" lon="5.82895">
        <ele>318.20001220703</ele>
        <time>2024-06-09T10:00:01Z</time>
      </trkpt>
      <trkpt lat="49.38955" lon="5.82894">
        <ele>318.20001220703</ele>
        <time>2024-06-09T10:00:02Z</time>
      </trkpt>
      <trkpt lat="49.38965" lon="5.82892">
        <ele>317.60000610352</ele>
        <time>2024-06-09T10:00:04Z</time>
      </trkpt>
      <trkpt lat="49.38974" lon="5.82887">
        <ele>317.39999389648</ele>
        <time>2024-06-09T10:00:06Z</time>
      </trkpt>
      <trkpt lat="49.38983" lon="5.82882">
        <ele>317.39999389648</ele>
        <time>2024-06-09T10:00:08Z</time>
      </trkpt>
      <trkpt lat="49.3899" lon="5.82876">
        <ele>317.39999389648</ele>
        <time>2024-06-09T10:00:10Z</time>
      </trkpt>
      <trkpt lat="49.38995" lon="5.82871">
        <ele>317.39999389648</ele>
        <time>2024-06-09T10:00:11Z</time>
      </trkpt>
      <trkpt lat="49.38997" lon="5.82868">
        <ele>317.39999389648</ele>
        <time>2024-06-09T10:00:12Z</time>
      </trkpt>
      <trkpt lat="49.38999" lon="5.82865">
        <ele>316.39999389648</ele>
        <time>2024-06-09T10:00:13Z</time>
      </trkpt>
      <trkpt lat="49.39" lon="5.82862">
        <ele>315.20001220703</ele>
        <time>2024-06-09T10:00:14Z</time>
      </trkpt>
      <trkpt lat="49.39001" lon="5.82859">
        <ele>314.60000610352</ele>
        <time>2024-06-09T10:00:15Z</time>
      </trkpt>
      <trkpt lat="49.39002" lon="5.82855">
        <ele>314.20001220703</ele>
        <time>2024-06-09T10:00:16Z</time>
      </trkpt>
      <trkpt lat="49.39005" lon="5.8285">
        <ele>314</ele>
        <time>2024-06-09T10:00:18Z</time>
      </trkpt>
      <trkpt lat="49.39007" lon="5.82844">
        <ele>313.79998779297</ele>
        <time>2024-06-09T10:00:20Z</time>
      </trkpt>
      <trkpt lat="49.39007" lon="5.82842">
        <ele>313.79998779297</ele>
        <time>2024-06-09T10:00:21Z</time>
      </trkpt>
      <trkpt lat="49.39008" lon="5.82839">
        <ele>313.79998779297</ele>
        <time>2024-06-09T10:00:22Z</time>
      </trkpt>
      <trkpt lat="49.3901" lon="5.82833">
        <ele>313.79998779297</ele>
        <time>2024-06-09T10:00:24Z</time>
      </trkpt>
      <trkpt lat="49.39012" lon="5.82827">
        <ele>314.20001220703</ele>
        <time>2024-06-09T10:00:26Z</time>
      </trkpt>
      <trkpt lat="49.39012" lon="5.82824">
        <ele>314.60000610352</ele>
        <time>2024-06-09T10:00:27Z</time>
      </trkpt>
      <trkpt lat="49.39012" lon="5.82822">
        <ele>315</ele>
        <time>2024-06-09T10:00:28Z</time>
      </trkpt>
      <trkpt lat="49.39012" lon="5.82819">
        <ele>315.20001220703</ele>
        <time>2024-06-09T10:00:29Z</time>
      </trkpt>
      <trkpt lat="49.39012" lon="5.82817">
        <ele>315.60000610352</ele>
        <time>2024-06-09T10:00:30Z</time>
      </trkpt>
      <trkpt lat="49.39012" lon="5.82812">
        <ele>316.39999389648</ele>
        <time>2024-06-09T10:00:32Z</time>
      </trkpt>
      <trkpt lat="49.39012" lon="5.82809">
        <ele>316.60000610352</ele>
        <time>2024-06-09T10:00:33Z</time>
      </trkpt>
      <trkpt lat="49.39012" lon="5.82806">
        <ele>317</ele>
        <time>2024-06-09T10:00:34Z</time>
      </trkpt>
      <trkpt lat="49.39011" lon="5.828">
        <ele>317.39999389648</ele>
        <time>2024-06-09T10:00:36Z</time>
      </trkpt>
      <trkpt lat="49.3901" lon="5.82795">
        <ele>318</ele>
        <time>2024-06-09T10:00:38Z</time>
      </trkpt>
      <trkpt lat="49.39009" lon="5.82789">
        <ele>318.39999389648</ele>
        <time>2024-06-09T10:00:40Z</time>
      </trkpt>
      <trkpt lat="49.39007" lon="5.82784">
        <ele>318.60000610352</ele>
        <time>2024-06-09T10:00:42Z</time>
      </trkpt>
      <trkpt lat="49.39005" lon="5.82779">
        <ele>318.79998779297</ele>
        <time>2024-06-09T10:00:44Z</time>
      </trkpt>
      <trkpt lat="49.39004" lon="5.82774">
        <ele>319</ele>
        <time>2024-06-09T10:00:46Z</time>
      </trkpt>
      <trkpt lat="49.39003" lon="5.82771">
        <ele>319.20001220703</ele>
        <time>2024-06-09T10:00:47Z</time>
      </trkpt>
      <trkpt lat="49.39003" lon="5.82768">
        <ele>319.39999389648</ele>
        <time>2024-06-09T10:00:48Z</time>
      </trkpt>
      <trkpt lat="49.39002" lon="5.82766">
        <ele>319.60000610352</ele>
        <time>2024-06-09T10:00:49Z</time>
      </trkpt>
      <trkpt lat="49.39002" lon="5.82763">
        <ele>319.79998779297</ele>
        <time>2024-06-09T10:00:50Z</time>
      </trkpt>
      <trkpt lat="49.39001" lon="5.82757">
        <ele>320</ele>
        <time>2024-06-09T10:00:52Z</time>
      </trkpt>
      <trkpt lat="49.39" lon="5.82754">
        <ele>320.20001220703</ele>
        <time>2024-06-09T10:00:53Z</time>
      </trkpt>
      <trkpt lat="49.38999" lon="5.8275">
        <ele>320.39999389648</ele>
        <time>2024-06-09T10:00:54Z</time>
      </trkpt>
      <trkpt lat="49.38999" lon="5.82742">
        <ele>320.39999389648</ele>
        <time>2024-06-09T10:00:56Z</time>
      </trkpt>
      <trkpt lat="49.38999" lon="5.82733">
        <ele>320.39999389648</ele>
        <time>2024-06-09T10:00:58Z</time>
      </trkpt>
      <trkpt lat="49.38998" lon="5.82723">
        <ele>320.39999389648</ele>
        <time>2024-06-09T10:01:00Z</time>
      </trkpt>
      <trkpt lat="49.38997" lon="5.82713">
        <ele>320.39999389648</ele>
        <time>2024-06-09T10:01:02Z</time>
      </trkpt>
      <trkpt lat="49.38996" lon="5.82702">
        <ele>320.20001220703</ele>
        <time>2024-06-09T10:01:04Z</time>
      </trkpt>
      <trkpt lat="49.38994" lon="5.82691">
        <ele>319.79998779297</ele>
        <time>2024-06-09T10:01:06Z</time>
      </trkpt>
      <trkpt lat="49.38993" lon="5.82682">
        <ele>319.60000610352</ele>
        <time>2024-06-09T10:01:08Z</time>
      </trkpt>
      <trkpt lat="49.38992" lon="5.8267">
        <ele>319.60000610352</ele>
        <time>2024-06-09T10:01:10Z</time>
      </trkpt>
      <trkpt lat="49.38991" lon="5.82657">
        <ele>319.39999389648</ele>
        <time>2024-06-09T10:01:12Z</time>
      </trkpt>
      <trkpt lat="49.38989" lon="5.82644">
        <ele>319</ele>
        <time>2024-06-09T10:01:14Z</time>
      </trkpt>
      <trkpt lat="49.38988" lon="5.82636">
        <ele>318.79998779297</ele>
        <time>2024-06-09T10:01:15Z</time>
      </trkpt>
      <trkpt lat="49.38987" lon="5.82628">
        <ele>318.60000610352</ele>
        <time>2024-06-09T10:01:16Z</time>
      </trkpt>
      <trkpt lat="49.38984" lon="5.82606">
        <ele>318.20001220703</ele>
        <time>2024-06-09T10:01:18Z</time>
      </trkpt>
      <trkpt lat="49.38982" lon="5.82591">
        <ele>317.79998779297</ele>
        <time>2024-06-09T10:01:20Z</time>
      </trkpt>
      <trkpt lat="49.38979" lon="5.82582">
        <ele>317</ele>
        <time>2024-06-09T10:01:21Z</time>
      </trkpt>
      <trkpt lat="49.38978" lon="5.82576">
        <ele>316.39999389648</ele>
        <time>2024-06-09T10:01:22Z</time>
      </trkpt>
      <trkpt lat="49.38977" lon="5.82562">
        <ele>316</ele>
        <time>2024-06-09T10:01:24Z</time>
      </trkpt>
      <trkpt lat="49.38974" lon="5.82546">
        <ele>315.79998779297</ele>
        <time>2024-06-09T10:01:26Z</time>
      </trkpt>
      <trkpt lat="49.38971" lon="5.82536">
        <ele>315.79998779297</ele>
        <time>2024-06-09T10:01:28Z</time>
      </trkpt>
      <trkpt lat="49.38972" lon="5.82527">
        <ele>315.79998779297</ele>
        <time>2024-06-09T10:01:30Z</time>
      </trkpt>
      <trkpt lat="49.38975" lon="5.82519">
        <ele>315.79998779297</ele>
        <time>2024-06-09T10:01:32Z</time>
      </trkpt>
      <trkpt lat="49.38978" lon="5.82512">
        <ele>316.39999389648</ele>
        <time>2024-06-09T10:01:34Z</time>
      </trkpt>
      <trkpt lat="49.3898" lon="5.82507">
        <ele>317.39999389648</ele>
        <time>2024-06-09T10:01:35Z</time>
      </trkpt>
      <trkpt lat="49.38982" lon="5.82503">
        <ele>318.20001220703</ele>
        <time>2024-06-09T10:01:36Z</time>
      </trkpt>
      <trkpt lat="49.38984" lon="5.82499">
        <ele>318.79998779297</ele>
        <time>2024-06-09T10:01:37Z</time>
      </trkpt>
      <trkpt lat="49.38986" lon="5.82494">
        <ele>319</ele>
        <time>2024-06-09T10:01:38Z</time>
      </trkpt>
      <trkpt lat="49.38987" lon="5.8249">
        <ele>319.20001220703</ele>
        <time>2024-06-09T10:01:39Z</time>
      </trkpt>
      <trkpt lat="49.38989" lon="5.82486">
        <ele>319.20001220703</ele>
        <time>2024-06-09T10:01:40Z</time>
      </trkpt>
      <trkpt lat="49.38991" lon="5.82481">
        <ele>319.39999389648</ele>
        <time>2024-06-09T10:01:42Z</time>
      </trkpt>
      <trkpt lat="49.38992" lon="5.82476">
        <ele>319.39999389648</ele>
        <time>2024-06-09T10:01:44Z</time>
      </trkpt>
      <trkpt lat="49.38993" lon="5.82471">
        <ele>319.60000610352</ele>
        <time>2024-06-09T10:01:46Z</time>
      </trkpt>
      <trkpt lat="49.38994" lon="5.82467">
        <ele>319.60000610352</ele>
        <time>2024-06-09T10:01:48Z</time>
      </trkpt>
      <trkpt lat="49.38994" lon="5.82465">
        <ele>320</ele>
        <time>2024-06-09T10:01:49Z</time>
      </trkpt>
      <trkpt lat="49.38995" lon="5.82463">
        <ele>320.60000610352</ele>
        <time>2024-06-09T10:01:50Z</time>
      </trkpt>
      <trkpt lat="49.38995" lon="5.82459">
        <ele>321.60000610352</ele>
        <time>2024-06-09T10:01:52Z</time>
      </trkpt>
      <trkpt lat="49.38995" lon="5.82456">
        <ele>322.60000610352</ele>
        <time>2024-06-09T10:01:54Z</time>
      </trkpt>
      <trkpt lat="49.38995" lon="5.82452">
        <ele>323.60000610352</ele>
        <time>2024-06-09T10:01:56Z</time>
      </trkpt>
      <trkpt lat="49.38995" lon="5.82451">
        <ele>324</ele>
        <time>2024-06-09T10:01:57Z</time>
      </trkpt>
      <trkpt lat="49.38996" lon="5.82448">
        <ele>324</ele>
        <time>2024-06-09T10:01:58Z</time>
      </trkpt>
      <trkpt lat="49.38996" lon="5.82445">
        <ele>324.20001220703</ele>
        <time>2024-06-09T10:01:59Z</time>
      </trkpt>
      <trkpt lat="49.38997" lon="5.82443">
        <ele>324.39999389648</ele>
        <time>2024-06-09T10:02:00Z</time>
      </trkpt>
      <trkpt lat="49.38998" lon="5.82439">
        <ele>324.60000610352</ele>
        <time>2024-06-09T10:02:02Z</time>
      </trkpt>
      <trkpt lat="49.38999" lon="5.82434">
        <ele>324.60000610352</ele>
        <time>2024-06-09T10:02:04Z</time>
      </trkpt>
      <trkpt lat="49.39" lon="5.8243">
        <ele>325</ele>
        <time>2024-06-09T10:02:06Z</time>
      </trkpt>
      <trkpt lat="49.39001" lon="5.82426">
        <ele>325.20001220703</ele>
        <time>2024-06-09T10:02:08Z</time>
      </trkpt>
      <trkpt lat="49.39001" lon="5.82423">
        <ele>325.39999389648</ele>
        <time>2024-06-09T10:02:10Z</time>
      </trkpt>
      <trkpt lat="49.39001" lon="5.82421">
        <ele>325.79998779297</ele>
        <time>2024-06-09T10:02:12Z</time>
      </trkpt>
      <trkpt lat="49.39002" lon="5.82418">
        <ele>326</ele>
        <time>2024-06-09T10:02:14Z</time>
      </trkpt>
      <trkpt lat="49.39002" lon="5.82414">
        <ele>326.39999389648</ele>
        <time>2024-06-09T10:02:16Z</time>
      </trkpt>
      <trkpt lat="49.39003" lon="5.82412">
        <ele>326.39999389648</ele>
        <time>2024-06-09T10:02:18Z</time>
      </trkpt>
      <trkpt lat="49.39004" lon="5.82408">
        <ele>326.79998779297</ele>
        <time>2024-06-09T10:02:20Z</time>
      </trkpt>
      <trkpt lat="49.39005" lon="5.82404">
        <ele>327</ele>
        <time>2024-06-09T10:02:22Z</time>
      </trkpt>
      <trkpt lat="49.39007" lon="5.824">
        <ele>327</ele>
        <time>2024-06-09T10:02:24Z</time>
      </trkpt>
      <trkpt lat="49.39008" lon="5.82396">
        <ele>327.20001220703</ele>
        <time>2024-06-09T10:02:26Z</time>
      </trkpt>
      <trkpt lat="49.3901" lon="5.8239">
        <ele>327.39999389648</ele>
        <time>2024-06-09T10:02:28Z</time>
      </trkpt>
      <trkpt lat="49.39011" lon="5.82385">
        <ele>327.60000610352</ele>
        <time>2024-06-09T10:02:30Z</time>
      </trkpt>
      <trkpt lat="49.39012" lon="5.82382">
        <ele>327.79998779297</ele>
        <time>2024-06-09T10:02:31Z</time>
      </trkpt>
      <trkpt lat="49.39012" lon="5.82379">
        <ele>328</ele>
        <time>2024-06-09T10:02:32Z</time>
      </trkpt>
      <trkpt lat="49.39014" lon="5.82374">
        <ele>328.20001220703</ele>
        <time>2024-06-09T10:02:34Z</time>
      </trkpt>
      <trkpt lat="49.39017" lon="5.82369">
        <ele>328.60000610352</ele>
        <time>2024-06-09T10:02:36Z</time>
      </trkpt>
      <trkpt lat="49.39017" lon="5.82364">
        <ele>328.79998779297</ele>
        <time>2024-06-09T10:02:38Z</time>
      </trkpt>
      <trkpt lat="49.39017" lon="5.82361">
        <ele>329</ele>
        <time>2024-06-09T10:02:39Z</time>
      </trkpt>
      <trkpt lat="49.39017" lon="5.82358">
        <ele>329.20001220703</ele>
        <time>2024-06-09T10:02:40Z</time>
      </trkpt>
      <trkpt lat="49.39017" lon="5.82355">
        <ele>329.39999389648</ele>
        <time>2024-06-09T10:02:41Z</time>
      </trkpt>
      <trkpt lat="49.39017" lon="5.82354">
        <ele>329.60000610352</ele>
        <time>2024-06-09T10:02:42Z</time>
      </trkpt>
      <trkpt lat="49.39016" lon="5.82349">
        <ele>329.79998779297</ele>
        <time>2024-06-09T10:02:44Z</time>
      </trkpt>
      <trkpt lat="49.39016" lon="5.82344">
        <ele>330</ele>
        <time>2024-06-09T10:02:46Z</time>
      </trkpt>
      <trkpt lat="49.39018" lon="5.82339">
        <ele>330.39999389648</ele>
        <time>2024-06-09T10:02:48Z</time>
      </trkpt>
      <trkpt lat="49.39018" lon="5.82337">
        <ele>330.39999389648</ele>
        <time>2024-06-09T10:02:49Z</time>
      </trkpt>
      <trkpt lat="49.39019" lon="5.82335">
        <ele>330.60000610352</ele>
        <time>2024-06-09T10:02:50Z</time>
      </trkpt>
      <trkpt lat="49.39019" lon="5.82333">
        <ele>330.79998779297</ele>
        <time>2024-06-09T10:02:51Z</time>
      </trkpt>
      <trkpt lat="49.3902" lon="5.8233">
        <ele>331</ele>
        <time>2024-06-09T10:02:52Z</time>
      </trkpt>
      <trkpt lat="49.39021" lon="5.82324">
        <ele>331.39999389648</ele>
        <time>2024-06-09T10:02:54Z</time>
      </trkpt>
      <trkpt lat="49.39023" lon="5.82318">
        <ele>331.60000610352</ele>
        <time>2024-06-09T10:02:56Z</time>
      </trkpt>
      <trkpt lat="49.39026" lon="5.82313">
        <ele>331.79998779297</ele>
        <time>2024-06-09T10:02:58Z</time>
      </trkpt>
      <trkpt lat="49.39029" lon="5.82308">
        <ele>332</ele>
        <time>2024-06-09T10:03:00Z</time>
      </trkpt>
      <trkpt lat="49.39032" lon="5.82303">
        <ele>332.20001220703</ele>
        <time>2024-06-09T10:03:02Z</time>
      </trkpt>
      <trkpt lat="49.39035" lon="5.82298">
        <ele>332.39999389648</ele>
        <time>2024-06-09T10:03:04Z</time>
      </trkpt>
      <trkpt lat="49.39036" lon="5.82295">
        <ele>332.39999389648</ele>
        <time>2024-06-09T10:03:05Z</time>
      </trkpt>
      <trkpt lat="49.39038" lon="5.82294">
        <ele>332.39999389648</ele>
        <time>2024-06-09T10:03:06Z</time>
      </trkpt>
      <trkpt lat="49.39041" lon="5.8229">
        <ele>332.60000610352</ele>
        <time>2024-06-09T10:03:08Z</time>
      </trkpt>
      <trkpt lat="49.39044" lon="5.82286">
        <ele>332.60000610352</ele>
        <time>2024-06-09T10:03:10Z</time>
      </trkpt>
      <trkpt lat="49.39047" lon="5.82282">
        <ele>332.60000610352</ele>
        <time>2024-06-09T10:03:12Z</time>
      </trkpt>
      <trkpt lat="49.39051" lon="5.82275">
        <ele>332.60000610352</ele>
        <time>2024-06-09T10:03:14Z</time>
      </trkpt>
      <trkpt lat="49.39054" lon="5.8227">
        <ele>332.79998779297</ele>
        <time>2024-06-09T10:03:16Z</time>
      </trkpt>
      <trkpt lat="49.39058" lon="5.82264">
        <ele>333</ele>
        <time>2024-06-09T10:03:18Z</time>
      </trkpt>
      <trkpt lat="49.39063" lon="5.82257">
        <ele>333.20001220703</ele>
        <time>2024-06-09T10:03:20Z</time>
      </trkpt>
      <trkpt lat="49.39065" lon="5.82253">
        <ele>333.20001220703</ele>
        <time>2024-06-09T10:03:21Z</time>
      </trkpt>
      <trkpt lat="49.39067" lon="5.8225">
        <ele>333.20001220703</ele>
        <time>2024-06-09T10:03:22Z</time>
      </trkpt>
      <trkpt lat="49.3907" lon="5.82244">
        <ele>333.39999389648</ele>
        <time>2024-06-09T10:03:24Z</time>
      </trkpt>
      <trkpt lat="49.39075" lon="5.82236">
        <ele>333.39999389648</ele>
        <time>2024-06-09T10:03:26Z</time>
      </trkpt>
      <trkpt lat="49.3908" lon="5.82228">
        <ele>333.39999389648</ele>
        <time>2024-06-09T10:03:28Z</time>
      </trkpt>
      <trkpt lat="49.39085" lon="5.82222">
        <ele>333.39999389648</ele>
        <time>2024-06-09T10:03:30Z</time>
      </trkpt>
      <trkpt lat="49.39091" lon="5.82215">
        <ele>333.39999389648</ele>
        <time>2024-06-09T10:03:32Z</time>
      </trkpt>
      <trkpt lat="49.39099" lon="5.82207">
        <ele>333.39999389648</ele>
        <time>2024-06-09T10:03:34Z</time>
      </trkpt>
      <trkpt lat="49.39106" lon="5.82201">
        <ele>333.20001220703</ele>
        <time>2024-06-09T10:03:36Z</time>
      </trkpt>
      <trkpt lat="49.3911" lon="5.82199">
        <ele>333.20001220703</ele>
        <time>2024-06-09T10:03:37Z</time>
      </trkpt>
      <trkpt lat="49.39113" lon="5.82198">
        <ele>333.20001220703</ele>
        <time>2024-06-09T10:03:38Z</time>
      </trkpt>
      <trkpt lat="49.39121" lon="5.82196">
        <ele>333</ele>
        <time>2024-06-09T10:03:40Z</time>
      </trkpt>
      <trkpt lat="49.39126" lon="5.82196">
        <ele>332.79998779297</ele>
        <time>2024-06-09T10:03:41Z</time>
      </trkpt>
      <trkpt lat="49.3913" lon="5.82197">
        <ele>332.79998779297</ele>
        <time>2024-06-09T10:03:42Z</time>
      </trkpt>
      <trkpt lat="49.39141" lon="5.82196">
        <ele>332.39999389648</ele>
        <time>2024-06-09T10:03:44Z</time>
      </trkpt>
      <trkpt lat="49.39148" lon="5.82195">
        <ele>332.20001220703</ele>
        <time>2024-06-09T10:03:45Z</time>
      </trkpt>
      <trkpt lat="49.39155" lon="5.82196">
        <ele>332</ele>
        <time>2024-06-09T10:03:46Z</time>
      </trkpt>
      <trkpt lat="49.3917" lon="5.82194">
        <ele>331.20001220703</ele>
        <time>2024-06-09T10:03:48Z</time>
      </trkpt>
      <trkpt lat="49.39184" lon="5.82193">
        <ele>330</ele>
        <time>2024-06-09T10:03:50Z</time>
      </trkpt>
      <trkpt lat="49.39191" lon="5.82193">
        <ele>328.79998779297</ele>
        <time>2024-06-09T10:03:51Z</time>
      </trkpt>
      <trkpt lat="49.39198" lon="5.82193">
        <ele>328.39999389648</ele>
        <time>2024-06-09T10:03:52Z</time>
      </trkpt>
      <trkpt lat="49.39205" lon="5.82196">
        <ele>327.79998779297</ele>
        <time>2024-06-09T10:03:53Z</time>
      </trkpt>
      <trkpt lat="49.39211" lon="5.822">
        <ele>327.20001220703</ele>
        <time>2024-06-09T10:03:54Z</time>
      </trkpt>
      <trkpt lat="49.39218" lon="5.82202">
        <ele>326.39999389648</ele>
        <time>2024-06-09T10:03:55Z</time>
      </trkpt>
      <trkpt lat="49.39225" lon="5.82205">
        <ele>325.60000610352</ele>
        <time>2024-06-09T10:03:56Z</time>
      </trkpt>
      <trkpt lat="49.39233" lon="5.82207">
        <ele>325.20001220703</ele>
        <time>2024-06-09T10:03:57Z</time>
      </trkpt>
      <trkpt lat="49.39241" lon="5.82209">
        <ele>324.39999389648</ele>
        <time>2024-06-09T10:03:58Z</time>
      </trkpt>
      <trkpt lat="49.3925" lon="5.82209">
        <ele>323.79998779297</ele>
        <time>2024-06-09T10:03:59Z</time>
      </trkpt>
      <trkpt lat="49.39259" lon="5.8221">
        <ele>322.79998779297</ele>
        <time>2024-06-09T10:04:00Z</time>
      </trkpt>
      <trkpt lat="49.39268" lon="5.82211">
        <ele>322.20001220703</ele>
        <time>2024-06-09T10:04:01Z</time>
      </trkpt>
      <trkpt lat="49.39277" lon="5.82214">
        <ele>321.39999389648</ele>
        <time>2024-06-09T10:04:02Z</time>
      </trkpt>
      <trkpt lat="49.39285" lon="5.82217">
        <ele>320.60000610352</ele>
        <time>2024-06-09T10:04:03Z</time>
      </trkpt>
      <trkpt lat="49.39296" lon="5.8222">
        <ele>320</ele>
        <time>2024-06-09T10:04:04Z</time>
      </trkpt>
      <trkpt lat="49.39306" lon="5.82223">
        <ele>319.60000610352</ele>
        <time>2024-06-09T10:04:05Z</time>
      </trkpt>
      <trkpt lat="49.39316" lon="5.82224">
        <ele>318.79998779297</ele>
        <time>2024-06-09T10:04:06Z</time>
      </trkpt>
      <trkpt lat="49.39325" lon="5.82225">
        <ele>318.20001220703</ele>
        <time>2024-06-09T10:04:07Z</time>
      </trkpt>
      <trkpt lat="49.39332" lon="5.82226">
        <ele>317.20001220703</ele>
        <time>2024-06-09T10:04:08Z</time>
      </trkpt>
      <trkpt lat="49.39338" lon="5.82224">
        <ele>316.20001220703</ele>
        <time>2024-06-09T10:04:09Z</time>
      </trkpt>
      <trkpt lat="49.39343" lon="5.82222">
        <ele>314.60000610352</ele>
        <time>2024-06-09T10:04:10Z</time>
      </trkpt>
      <trkpt lat="49.39346" lon="5.8222">
        <ele>313.39999389648</ele>
        <time>2024-06-09T10:04:11Z</time>
      </trkpt>
      <trkpt lat="49.39348" lon="5.82216">
        <ele>312.20001220703</ele>
        <time>2024-06-09T10:04:12Z</time>
      </trkpt>
      <trkpt lat="49.39342" lon="5.82207">
        <ele>311.39999389648</ele>
        <time>2024-06-09T10:04:14Z</time>
      </trkpt>
      <trkpt lat="49.39341" lon="5.82203">
        <ele>311</ele>
        <time>2024-06-09T10:04:15Z</time>
      </trkpt>
      <trkpt lat="49.39339" lon="5.822">
        <ele>311.20001220703</ele>
        <time>2024-06-09T10:04:16Z</time>
      </trkpt>
      <trkpt lat="49.39336" lon="5.82193">
        <ele>310.79998779297</ele>
        <time>2024-06-09T10:04:18Z</time>
      </trkpt>
      <trkpt lat="49.39335" lon="5.82189">
        <ele>310.79998779297</ele>
        <time>2024-06-09T10:04:19Z</time>
      </trkpt>
      <trkpt lat="49.39333" lon="5.82186">
        <ele>310.79998779297</ele>
        <time>2024-06-09T10:04:20Z</time>
      </trkpt>
      <trkpt lat="49.3933" lon="5.82179">
        <ele>311</ele>
        <time>2024-06-09T10:04:22Z</time>
      </trkpt>
      <trkpt lat="49.39328" lon="5.82173">
        <ele>311.20001220703</ele>
        <time>2024-06-09T10:04:24Z</time>
      </trkpt>
      <trkpt lat="49.39326" lon="5.82166">
        <ele>311.60000610352</ele>
        <time>2024-06-09T10:04:26Z</time>
      </trkpt>
      <trkpt lat="49.39322" lon="5.82159">
        <ele>311.79998779297</ele>
        <time>2024-06-09T10:04:28Z</time>
      </trkpt>
      <trkpt lat="49.39319" lon="5.82155">
        <ele>312</ele>
        <time>2024-06-09T10:04:29Z</time>
      </trkpt>
      <trkpt lat="49.39316" lon="5.8215">
        <ele>312</ele>
        <time>2024-06-09T10:04:30Z</time>
      </trkpt>
      <trkpt lat="49.39315" lon="5.82147">
        <ele>312.20001220703</ele>
        <time>2024-06-09T10:04:31Z</time>
      </trkpt>
      <trkpt lat="49.39313" lon="5.82143">
        <ele>312.39999389648</ele>
        <time>2024-06-09T10:04:32Z</time>
      </trkpt>
      <trkpt lat="49.3931" lon="5.82135">
        <ele>312.60000610352</ele>
        <time>2024-06-09T10:04:34Z</time>
      </trkpt>
      <trkpt lat="49.39306" lon="5.82125">
        <ele>312.79998779297</ele>
        <time>2024-06-09T10:04:36Z</time>
      </trkpt>
      <trkpt lat="49.39302" lon="5.82116">
        <ele>312.79998779297</ele>
        <time>2024-06-09T10:04:38Z</time>
      </trkpt>
      <trkpt lat="49.393" lon="5.82109">
        <ele>313</ele>
        <time>2024-06-09T10:04:40Z</time>
      </trkpt>
      <trkpt lat="49.39298" lon="5.82105">
        <ele>313.20001220703</ele>
        <time>2024-06-09T10:04:41Z</time>
      </trkpt>
      <trkpt lat="49.39297" lon="5.82101">
        <ele>313.39999389648</ele>
        <time>2024-06-09T10:04:42Z</time>
      </trkpt>
      <trkpt lat="49.39294" lon="5.82094">
        <ele>313.79998779297</ele>
        <time>2024-06-09T10:04:44Z</time>
      </trkpt>
      <trkpt lat="49.39291" lon="5.82088">
        <ele>314.20001220703</ele>
        <time>2024-06-09T10:04:46Z</time>
      </trkpt>
      <trkpt lat="49.3929" lon="5.82085">
        <ele>314.79998779297</ele>
        <time>2024-06-09T10:04:47Z</time>
      </trkpt>
      <trkpt lat="49.39288" lon="5.82082">
        <ele>315</ele>
        <time>2024-06-09T10:04:48Z</time>
      </trkpt>
      <trkpt lat="49.39284" lon="5.82074">
        <ele>315.60000610352</ele>
        <time>2024-06-09T10:04:50Z</time>
      </trkpt>
      <trkpt lat="49.39282" lon="5.82071">
        <ele>315.79998779297</ele>
        <time>2024-06-09T10:04:51Z</time>
      </trkpt>
      <trkpt lat="49.39281" lon="5.82068">
        <ele>316</ele>
        <time>2024-06-09T10:04:52Z</time>
      </trkpt>
      <trkpt lat="49.3928" lon="5.82065">
        <ele>316.20001220703</ele>
        <time>2024-06-09T10:04:53Z</time>
      </trkpt>
      <trkpt lat="49.39278" lon="5.82062">
        <ele>316.39999389648</ele>
        <time>2024-06-09T10:04:54Z</time>
      </trkpt>
      <trkpt lat="49.39275" lon="5.82056">
        <ele>317</ele>
        <time>2024-06-09T10:04:56Z</time>
      </trkpt>
      <trkpt lat="49.39273" lon="5.82052">
        <ele>317.60000610352</ele>
        <time>2024-06-09T10:04:58Z</time>
      </trkpt>
      <trkpt lat="49.39272" lon="5.82049">
        <ele>317.79998779297</ele>
        <time>2024-06-09T10:04:59Z</time>
      </trkpt>
      <trkpt lat="49.39271" lon="5.82047">
        <ele>318</ele>
        <time>2024-06-09T10:05:00Z</time>
      </trkpt>
      <trkpt lat="49.39268" lon="5.82041">
        <ele>318.39999389648</ele>
        <time>2024-06-09T10:05:02Z</time>
      </trkpt>
      <trkpt lat="49.39264" lon="5.82035">
        <ele>318.79998779297</ele>
        <time>2024-06-09T10:05:04Z</time>
      </trkpt>
      <trkpt lat="49.39262" lon="5.82032">
        <ele>318.79998779297</ele>
        <time>2024-06-09T10:05:05Z</time>
      </trkpt>
      <trkpt lat="49.39261" lon="5.82028">
        <ele>319</ele>
        <time>2024-06-09T10:05:06Z</time>
      </trkpt>
      <trkpt lat="49.39258" lon="5.8202">
        <ele>319.20001220703</ele>
        <time>2024-06-09T10:05:08Z</time>
      </trkpt>
      <trkpt lat="49.39257" lon="5.82016">
        <ele>319.39999389648</ele>
        <time>2024-06-09T10:05:09Z</time>
      </trkpt>
      <trkpt lat="49.39256" lon="5.82013">
        <ele>319.39999389648</ele>
        <time>2024-06-09T10:05:10Z</time>
      </trkpt>
      <trkpt lat="49.39254" lon="5.82011">
        <ele>319.60000610352</ele>
        <time>2024-06-09T10:05:11Z</time>
      </trkpt>
      <trkpt lat="49.39253" lon="5.82009">
        <ele>319.60000610352</ele>
        <time>2024-06-09T10:05:12Z</time>
      </trkpt>
      <trkpt lat="49.3925" lon="5.82001">
        <ele>320</ele>
        <time>2024-06-09T10:05:14Z</time>
      </trkpt>
      <trkpt lat="49.39248" lon="5.81995">
        <ele>320.20001220703</ele>
        <time>2024-06-09T10:05:16Z</time>
      </trkpt>
      <trkpt lat="49.39247" lon="5.81992">
        <ele>320.20001220703</ele>
        <time>2024-06-09T10:05:17Z</time>
      </trkpt>
      <trkpt lat="49.39246" lon="5.81989">
        <ele>320.20001220703</ele>
        <time>2024-06-09T10:05:18Z</time>
      </trkpt>
      <trkpt lat="49.39244" lon="5.81981">
        <ele>320.39999389648</ele>
        <time>2024-06-09T10:05:20Z</time>
      </trkpt>
      <trkpt lat="49.39242" lon="5.81973">
        <ele>320.39999389648</ele>
        <time>2024-06-09T10:05:22Z</time>
      </trkpt>
      <trkpt lat="49.39241" lon="5.81967">
        <ele>320.39999389648</ele>
        <time>2024-06-09T10:05:24Z</time>
      </trkpt>
      <trkpt lat="49.39238" lon="5.81959">
        <ele>320.39999389648</ele>
        <time>2024-06-09T10:05:26Z</time>
      </trkpt>
      <trkpt lat="49.39236" lon="5.81951">
        <ele>320.20001220703</ele>
        <time>2024-06-09T10:05:28Z</time>
      </trkpt>
      <trkpt lat="49.39234" lon="5.81947">
        <ele>320.20001220703</ele>
        <time>2024-06-09T10:05:30Z</time>
      </trkpt>
      <trkpt lat="49.39233" lon="5.81944">
        <ele>320.20001220703</ele>
        <time>2024-06-09T10:05:31Z</time>
      </trkpt>
      <trkpt lat="49.39231" lon="5.81941">
        <ele>320.20001220703</ele>
        <time>2024-06-09T10:05:32Z</time>
      </trkpt>
      <trkpt lat="49.39227" lon="5.81937">
        <ele>320.20001220703</ele>
        <time>2024-06-09T10:05:34Z</time>
      </trkpt>
      <trkpt lat="49.39224" lon="5.81933">
        <ele>320.20001220703</ele>
        <time>2024-06-09T10:05:36Z</time>
      </trkpt>
      <trkpt lat="49.39221" lon="5.81929">
        <ele>320.20001220703</ele>
        <time>2024-06-09T10:05:38Z</time>
      </trkpt>
      <trkpt lat="49.39219" lon="5.81928">
        <ele>320.39999389648</ele>
        <time>2024-06-09T10:05:40Z</time>
      </trkpt>
      <trkpt lat="49.39217" lon="5.81926">
        <ele>320.79998779297</ele>
        <time>2024-06-09T10:05:42Z</time>
      </trkpt>
      <trkpt lat="49.39214" lon="5.81924">
        <ele>321.39999389648</ele>
        <time>2024-06-09T10:05:44Z</time>
      </trkpt>
      <trkpt lat="49.39212" lon="5.81924">
        <ele>321.60000610352</ele>
        <time>2024-06-09T10:05:45Z</time>
      </trkpt>
      <trkpt lat="49.39211" lon="5.81924">
        <ele>321.79998779297</ele>
        <time>2024-06-09T10:05:46Z</time>
      </trkpt>
      <trkpt lat="49.39209" lon="5.81924">
        <ele>322.20001220703</ele>
        <time>2024-06-09T10:05:47Z</time>
      </trkpt>
      <trkpt lat="49.39208" lon="5.81924">
        <ele>322.39999389648</ele>
        <time>2024-06-09T10:05:48Z</time>
      </trkpt>
      <trkpt lat="49.39206" lon="5.81923">
        <ele>322.79998779297</ele>
        <time>2024-06-09T10:05:49Z</time>
      </trkpt>
      <trkpt lat="49.39204" lon="5.81923">
        <ele>322.79998779297</ele>
        <time>2024-06-09T10:05:50Z</time>
      </trkpt>
      <trkpt lat="49.39201" lon="5.81924">
        <ele>323.20001220703</ele>
        <time>2024-06-09T10:05:52Z</time>
      </trkpt>
      <trkpt lat="49.392" lon="5.81924">
        <ele>323.39999389648</ele>
        <time>2024-06-09T10:05:53Z</time>
      </trkpt>
      <trkpt lat="49.39199" lon="5.81924">
        <ele>323.39999389648</ele>
        <time>2024-06-09T10:05:54Z</time>
      </trkpt>
      <trkpt lat="49.39198" lon="5.81924">
        <ele>323.60000610352</ele>
        <time>2024-06-09T10:05:55Z</time>
      </trkpt>
      <trkpt lat="49.39196" lon="5.81924">
        <ele>323.60000610352</ele>
        <time>2024-06-09T10:05:56Z</time>
      </trkpt>
      <trkpt lat="49.39195" lon="5.81924">
        <ele>323.79998779297</ele>
        <time>2024-06-09T10:05:57Z</time>
      </trkpt>
      <trkpt lat="49.39193" lon="5.81924">
        <ele>323.79998779297</ele>
        <time>2024-06-09T10:05:58Z</time>
      </trkpt>
      <trkpt lat="49.39189" lon="5.81924">
        <ele>324.20001220703</ele>
        <time>2024-06-09T10:06:00Z</time>
      </trkpt>
      <trkpt lat="49.39187" lon="5.81924">
        <ele>324.60000610352</ele>
        <time>2024-06-09T10:06:02Z</time>
      </trkpt>
      <trkpt lat="49.39186" lon="5.81924">
        <ele>324.79998779297</ele>
        <time>2024-06-09T10:06:03Z</time>
      </trkpt>
      <trkpt lat="49.39185" lon="5.81925">
        <ele>325</ele>
        <time>2024-06-09T10:06:04Z</time>
      </trkpt>
      <trkpt lat="49.39182" lon="5.81925">
        <ele>325.39999389648</ele>
        <time>2024-06-09T10:06:06Z</time>
      </trkpt>
      <trkpt lat="49.39179" lon="5.81925">
        <ele>325.60000610352</ele>
        <time>2024-06-09T10:06:08Z</time>
      </trkpt>
      <trkpt lat="49.39178" lon="5.81926">
        <ele>325.79998779297</ele>
        <time>2024-06-09T10:06:09Z</time>
      </trkpt>
      <trkpt lat="49.39177" lon="5.81927">
        <ele>326</ele>
        <time>2024-06-09T10:06:10Z</time>
      </trkpt>
      <trkpt lat="49.39173" lon="5.81928">
        <ele>326.20001220703</ele>
        <time>2024-06-09T10:06:12Z</time>
      </trkpt>
      <trkpt lat="49.3917" lon="5.81929">
        <ele>326.60000610352</ele>
        <time>2024-06-09T10:06:14Z</time>
      </trkpt>
      <trkpt lat="49.39167" lon="5.81929">
        <ele>326.79998779297</ele>
        <time>2024-06-09T10:06:16Z</time>
      </trkpt>
      <trkpt lat="49.39166" lon="5.81929">
        <ele>327</ele>
        <time>2024-06-09T10:06:17Z</time>
      </trkpt>
      <trkpt lat="49.39165" lon="5.81929">
        <ele>327</ele>
        <time>2024-06-09T10:06:18Z</time>
      </trkpt>
      <trkpt lat="49.39162" lon="5.81929">
        <ele>327.20001220703</ele>
        <time>2024-06-09T10:06:20Z</time>
      </trkpt>
      <trkpt lat="49.39159" lon="5.81929">
        <ele>327.79998779297</ele>
        <time>2024-06-09T10:06:22Z</time>
      </trkpt>
      <trkpt lat="49.39157" lon="5.81928">
        <ele>327.79998779297</ele>
        <time>2024-06-09T10:06:24Z</time>
      </trkpt>
      <trkpt lat="49.39155" lon="5.81928">
        <ele>328</ele>
        <time>2024-06-09T10:06:25Z</time>
      </trkpt>
      <trkpt lat="49.39154" lon="5.81927">
        <ele>328</ele>
        <time>2024-06-09T10:06:26Z</time>
      </trkpt>
      <trkpt lat="49.39153" lon="5.81927">
        <ele>328.20001220703</ele>
        <time>2024-06-09T10:06:27Z</time>
      </trkpt>
      <trkpt lat="49.39152" lon="5.81927">
        <ele>328.20001220703</ele>
        <time>2024-06-09T10:06:28Z</time>
      </trkpt>
      <trkpt lat="49.39149" lon="5.81925">
        <ele>328.60000610352</ele>
        <time>2024-06-09T10:06:30Z</time>
      </trkpt>
      <trkpt lat="49.39148" lon="5.81924">
        <ele>328.79998779297</ele>
        <time>2024-06-09T10:06:31Z</time>
      </trkpt>
      <trkpt lat="49.39147" lon="5.81923">
        <ele>329</ele>
        <time>2024-06-09T10:06:32Z</time>
      </trkpt>
      <trkpt lat="49.39146" lon="5.81922">
        <ele>329</ele>
        <time>2024-06-09T10:06:33Z</time>
      </trkpt>
      <trkpt lat="49.39145" lon="5.81921">
        <ele>329.39999389648</ele>
        <time>2024-06-09T10:06:34Z</time>
      </trkpt>
      <trkpt lat="49.39143" lon="5.81918">
        <ele>329.79998779297</ele>
        <time>2024-06-09T10:06:36Z</time>
      </trkpt>
      <trkpt lat="49.39142" lon="5.81917">
        <ele>330</ele>
        <time>2024-06-09T10:06:37Z</time>
      </trkpt>
      <trkpt lat="49.3914" lon="5.81915">
        <ele>330</ele>
        <time>2024-06-09T10:06:38Z</time>
      </trkpt>
      <trkpt lat="49.39138" lon="5.81912">
        <ele>330.20001220703</ele>
        <time>2024-06-09T10:06:40Z</time>
      </trkpt>
      <trkpt lat="49.39134" lon="5.81908">
        <ele>330.20001220703</ele>
        <time>2024-06-09T10:06:42Z</time>
      </trkpt>
      <trkpt lat="49.39132" lon="5.81905">
        <ele>330.39999389648</ele>
        <time>2024-06-09T10:06:43Z</time>
      </trkpt>
      <trkpt lat="49.3913" lon="5.81903">
        <ele>330.60000610352</ele>
        <time>2024-06-09T10:06:44Z</time>
      </trkpt>
      <trkpt lat="49.39128" lon="5.81897">
        <ele>330.79998779297</ele>
        <time>2024-06-09T10:06:46Z</time>
      </trkpt>
      <trkpt lat="49.39128" lon="5.81895">
        <ele>331</ele>
        <time>2024-06-09T10:06:47Z</time>
      </trkpt>
      <trkpt lat="49.39128" lon="5.81892">
        <ele>331</ele>
        <time>2024-06-09T10:06:48Z</time>
      </trkpt>
      <trkpt lat="49.39127" lon="5.81885">
        <ele>331</ele>
        <time>2024-06-09T10:06:50Z</time>
      </trkpt>
      <trkpt lat="49.39126" lon="5.81877">
        <ele>331.20001220703</ele>
        <time>2024-06-09T10:06:52Z</time>
      </trkpt>
      <trkpt lat="49.39125" lon="5.81869">
        <ele>331.20001220703</ele>
        <time>2024-06-09T10:06:54Z</time>
      </trkpt>
      <trkpt lat="49.39125" lon="5.81861">
        <ele>331.20001220703</ele>
        <time>2024-06-09T10:06:56Z</time>
      </trkpt>
      <trkpt lat="49.39125" lon="5.81857">
        <ele>331.20001220703</ele>
        <time>2024-06-09T10:06:57Z</time>
      </trkpt>
      <trkpt lat="49.39124" lon="5.81852">
        <ele>331.20001220703</ele>
        <time>2024-06-09T10:06:58Z</time>
      </trkpt>
      <trkpt lat="49.39124" lon="5.81843">
        <ele>331</ele>
        <time>2024-06-09T10:07:00Z</time>
      </trkpt>
      <trkpt lat="49.39123" lon="5.81831">
        <ele>331</ele>
        <time>2024-06-09T10:07:02Z</time>
      </trkpt>
      <trkpt lat="49.39122" lon="5.81818">
        <ele>330.60000610352</ele>
        <time>2024-06-09T10:07:04Z</time>
      </trkpt>
      <trkpt lat="49.39121" lon="5.81803">
        <ele>330.20001220703</ele>
        <time>2024-06-09T10:07:06Z</time>
      </trkpt>
      <trkpt lat="49.39119" lon="5.81789">
        <ele>330</ele>
        <time>2024-06-09T10:07:08Z</time>
      </trkpt>
      <trkpt lat="49.39118" lon="5.81774">
        <ele>329.39999389648</ele>
        <time>2024-06-09T10:07:10Z</time>
      </trkpt>
      <trkpt lat="49.39118" lon="5.81765">
        <ele>329.20001220703</ele>
        <time>2024-06-09T10:07:11Z</time>
      </trkpt>
      <trkpt lat="49.39117" lon="5.81759">
        <ele>328.79998779297</ele>
        <time>2024-06-09T10:07:12Z</time>
      </trkpt>
      <trkpt lat="49.39116" lon="5.81745">
        <ele>328.39999389648</ele>
        <time>2024-06-09T10:07:14Z</time>
      </trkpt>
      <trkpt lat="49.39114" lon="5.81729">
        <ele>328.20001220703</ele>
        <time>2024-06-09T10:07:16Z</time>
      </trkpt>
      <trkpt lat="49.39113" lon="5.81722">
        <ele>328.20001220703</ele>
        <time>2024-06-09T10:07:17Z</time>
      </trkpt>
      <trkpt lat="49.39111" lon="5.81714">
        <ele>328.20001220703</ele>
        <time>2024-06-09T10:07:18Z</time>
      </trkpt>
      <trkpt lat="49.39109" lon="5.817">
        <ele>328.20001220703</ele>
        <time>2024-06-09T10:07:20Z</time>
      </trkpt>
      <trkpt lat="49.39107" lon="5.81681">
        <ele>328</ele>
        <time>2024-06-09T10:07:22Z</time>
      </trkpt>
      <trkpt lat="49.39104" lon="5.81669">
        <ele>328</ele>
        <time>2024-06-09T10:07:23Z</time>
      </trkpt>
      <trkpt lat="49.39103" lon="5.8166">
        <ele>327.79998779297</ele>
        <time>2024-06-09T10:07:24Z</time>
      </trkpt>
      <trkpt lat="49.39102" lon="5.81648">
        <ele>327.39999389648</ele>
        <time>2024-06-09T10:07:26Z</time>
      </trkpt>
      <trkpt lat="49.391" lon="5.81637">
        <ele>327</ele>
        <time>2024-06-09T10:07:28Z</time>
      </trkpt>
      <trkpt lat="49.391" lon="5.81626">
        <ele>326.79998779297</ele>
        <time>2024-06-09T10:07:30Z</time>
      </trkpt>
      <trkpt lat="49.39102" lon="5.81622">
        <ele>326.60000610352</ele>
        <time>2024-06-09T10:07:31Z</time>
      </trkpt>
      <trkpt lat="49.39103" lon="5.81619">
        <ele>326.39999389648</ele>
        <time>2024-06-09T10:07:32Z</time>
      </trkpt>
      <trkpt lat="49.39107" lon="5.81614">
        <ele>325.79998779297</ele>
        <time>2024-06-09T10:07:34Z</time>
      </trkpt>
      <trkpt lat="49.39108" lon="5.81611">
        <ele>325.60000610352</ele>
        <time>2024-06-09T10:07:35Z</time>
      </trkpt>
      <trkpt lat="49.39109" lon="5.81608">
        <ele>325.20001220703</ele>
        <time>2024-06-09T10:07:36Z</time>
      </trkpt>
      <trkpt lat="49.39111" lon="5.816">
        <ele>324.20001220703</ele>
        <time>2024-06-09T10:07:38Z</time>
      </trkpt>
      <trkpt lat="49.39112" lon="5.81594">
        <ele>324</ele>
        <time>2024-06-09T10:07:39Z</time>
      </trkpt>
      <trkpt lat="49.39114" lon="5.81591">
        <ele>323.79998779297</ele>
        <time>2024-06-09T10:07:40Z</time>
      </trkpt>
      <trkpt lat="49.39118" lon="5.81586">
        <ele>322.79998779297</ele>
        <time>2024-06-09T10:07:42Z</time>
      </trkpt>
      <trkpt lat="49.3912" lon="5.81585">
        <ele>322</ele>
        <time>2024-06-09T10:07:43Z</time>
      </trkpt>
      <trkpt lat="49.39122" lon="5.81584">
        <ele>321.39999389648</ele>
        <time>2024-06-09T10:07:44Z</time>
      </trkpt>
      <trkpt lat="49.39129" lon="5.81578">
        <ele>320.39999389648</ele>
        <time>2024-06-09T10:07:46Z</time>
      </trkpt>
      <trkpt lat="49.39131" lon="5.81574">
        <ele>319.79998779297</ele>
        <time>2024-06-09T10:07:47Z</time>
      </trkpt>
      <trkpt lat="49.39132" lon="5.81569">
        <ele>319.39999389648</ele>
        <time>2024-06-09T10:07:48Z</time>
      </trkpt>
      <trkpt lat="49.39133" lon="5.81565">
        <ele>319</ele>
        <time>2024-06-09T10:07:49Z</time>
      </trkpt>
      <trkpt lat="49.39135" lon="5.81559">
        <ele>318.79998779297</ele>
        <time>2024-06-09T10:07:50Z</time>
      </trkpt>
      <trkpt lat="49.39138" lon="5.81554">
        <ele>318.39999389648</ele>
        <time>2024-06-09T10:07:52Z</time>
      </trkpt>
      <trkpt lat="49.39139" lon="5.8155">
        <ele>317.39999389648</ele>
        <time>2024-06-09T10:07:53Z</time>
      </trkpt>
      <trkpt lat="49.39139" lon="5.81547">
        <ele>316.20001220703</ele>
        <time>2024-06-09T10:07:54Z</time>
      </trkpt>
      <trkpt lat="49.3914" lon="5.81544">
        <ele>315.20001220703</ele>
        <time>2024-06-09T10:07:55Z</time>
      </trkpt>
      <trkpt lat="49.39141" lon="5.8154">
        <ele>314.39999389648</ele>
        <time>2024-06-09T10:07:56Z</time>
      </trkpt>
      <trkpt lat="49.39143" lon="5.81537">
        <ele>314</ele>
        <time>2024-06-09T10:07:57Z</time>
      </trkpt>
      <trkpt lat="49.39144" lon="5.81533">
        <ele>313.60000610352</ele>
        <time>2024-06-09T10:07:58Z</time>
      </trkpt>
      <trkpt lat="49.39147" lon="5.81527">
        <ele>312.60000610352</ele>
        <time>2024-06-09T10:08:00Z</time>
      </trkpt>
      <trkpt lat="49.3915" lon="5.81522">
        <ele>311.79998779297</ele>
        <time>2024-06-09T10:08:02Z</time>
      </trkpt>
      <trkpt lat="49.39151" lon="5.81517">
        <ele>311.60000610352</ele>
        <time>2024-06-09T10:08:03Z</time>
      </trkpt>
      <trkpt lat="49.39153" lon="5.81512">
        <ele>311.39999389648</ele>
        <time>2024-06-09T10:08:04Z</time>
      </trkpt>
      <trkpt lat="49.39157" lon="5.81501">
        <ele>310.60000610352</ele>
        <time>2024-06-09T10:08:06Z</time>
      </trkpt>
      <trkpt lat="49.39158" lon="5.81494">
        <ele>310.39999389648</ele>
        <time>2024-06-09T10:08:07Z</time>
      </trkpt>
      <trkpt lat="49.39159" lon="5.81489">
        <ele>310.39999389648</ele>
        <time>2024-06-09T10:08:08Z</time>
      </trkpt>
      <trkpt lat="49.39163" lon="5.81478">
        <ele>309.60000610352</ele>
        <time>2024-06-09T10:08:10Z</time>
      </trkpt>
      <trkpt lat="49.39165" lon="5.81472">
        <ele>309.20001220703</ele>
        <time>2024-06-09T10:08:11Z</time>
      </trkpt>
      <trkpt lat="49.39168" lon="5.81466">
        <ele>309</ele>
        <time>2024-06-09T10:08:12Z</time>
      </trkpt>
      <trkpt lat="49.3917" lon="5.8146">
        <ele>308.60000610352</ele>
        <time>2024-06-09T10:08:13Z</time>
      </trkpt>
      <trkpt lat="49.39172" lon="5.81455">
        <ele>308.39999389648</ele>
        <time>2024-06-09T10:08:14Z</time>
      </trkpt>
      <trkpt lat="49.39172" lon="5.81448">
        <ele>308</ele>
        <time>2024-06-09T10:08:15Z</time>
      </trkpt>
      <trkpt lat="49.39172" lon="5.81441">
        <ele>307.60000610352</ele>
        <time>2024-06-09T10:08:16Z</time>
      </trkpt>
      <trkpt lat="49.39174" lon="5.8143">
        <ele>307</ele>
        <time>2024-06-09T10:08:18Z</time>
      </trkpt>
      <trkpt lat="49.39174" lon="5.81423">
        <ele>306.79998779297</ele>
        <time>2024-06-09T10:08:19Z</time>
      </trkpt>
      <trkpt lat="49.39175" lon="5.81416">
        <ele>306.60000610352</ele>
        <time>2024-06-09T10:08:20Z</time>
      </trkpt>
      <trkpt lat="49.39175" lon="5.81403">
        <ele>306.20001220703</ele>
        <time>2024-06-09T10:08:22Z</time>
      </trkpt>
      <trkpt lat="49.39177" lon="5.8139">
        <ele>305.60000610352</ele>
        <time>2024-06-09T10:08:24Z</time>
      </trkpt>
      <trkpt lat="49.39179" lon="5.81379">
        <ele>305.20001220703</ele>
        <time>2024-06-09T10:08:26Z</time>
      </trkpt>
      <trkpt lat="49.3918" lon="5.81372">
        <ele>305</ele>
        <time>2024-06-09T10:08:27Z</time>
      </trkpt>
      <trkpt lat="49.39181" lon="5.81365">
        <ele>304.79998779297</ele>
        <time>2024-06-09T10:08:28Z</time>
      </trkpt>
      <trkpt lat="49.39181" lon="5.81355">
        <ele>304.60000610352</ele>
        <time>2024-06-09T10:08:30Z</time>
      </trkpt>
      <trkpt lat="49.39182" lon="5.81344">
        <ele>304</ele>
        <time>2024-06-09T10:08:32Z</time>
      </trkpt>
      <trkpt lat="49.39184" lon="5.81339">
        <ele>303.60000610352</ele>
        <time>2024-06-09T10:08:33Z</time>
      </trkpt>
      <trkpt lat="49.39185" lon="5.81335">
        <ele>302.79998779297</ele>
        <time>2024-06-09T10:08:34Z</time>
      </trkpt>
      <trkpt lat="49.39188" lon="5.81326">
        <ele>302.20001220703</ele>
        <time>2024-06-09T10:08:35Z</time>
      </trkpt>
      <trkpt lat="49.39187" lon="5.81323">
        <ele>301.60000610352</ele>
        <time>2024-06-09T10:08:36Z</time>
      </trkpt>
      <trkpt lat="49.39184" lon="5.81312">
        <ele>301.20001220703</ele>
        <time>2024-06-09T10:08:38Z</time>
      </trkpt>
      <trkpt lat="49.39181" lon="5.813">
        <ele>301.20001220703</ele>
        <time>2024-06-09T10:08:40Z</time>
      </trkpt>
      <trkpt lat="49.39179" lon="5.81295">
        <ele>301.20001220703</ele>
        <time>2024-06-09T10:08:41Z</time>
      </trkpt>
      <trkpt lat="49.39177" lon="5.81292">
        <ele>301.20001220703</ele>
        <time>2024-06-09T10:08:42Z</time>
      </trkpt>
      <trkpt lat="49.39173" lon="5.8128">
        <ele>301.20001220703</ele>
        <time>2024-06-09T10:08:44Z</time>
      </trkpt>
      <trkpt lat="49.39171" lon="5.81272">
        <ele>301.20001220703</ele>
        <time>2024-06-09T10:08:46Z</time>
      </trkpt>
      <trkpt lat="49.3917" lon="5.81265">
        <ele>301.39999389648</ele>
        <time>2024-06-09T10:08:48Z</time>
      </trkpt>
      <trkpt lat="49.39168" lon="5.81256">
        <ele>301.79998779297</ele>
        <time>2024-06-09T10:08:50Z</time>
      </trkpt>
      <trkpt lat="49.39166" lon="5.81248">
        <ele>302.20001220703</ele>
        <time>2024-06-09T10:08:52Z</time>
      </trkpt>
      <trkpt lat="49.39165" lon="5.81239">
        <ele>302.79998779297</ele>
        <time>2024-06-09T10:08:54Z</time>
      </trkpt>
      <trkpt lat="49.39164" lon="5.81228">
        <ele>302.60000610352</ele>
        <time>2024-06-09T10:08:56Z</time>
      </trkpt>
      <trkpt lat="49.39163" lon="5.81217">
        <ele>303</ele>
        <time>2024-06-09T10:08:58Z</time>
      </trkpt>
      <trkpt lat="49.39164" lon="5.81213">
        <ele>303.20001220703</ele>
        <time>2024-06-09T10:08:59Z</time>
      </trkpt>
      <trkpt lat="49.39163" lon="5.81208">
        <ele>303.20001220703</ele>
        <time>2024-06-09T10:09:00Z</time>
      </trkpt>
      <trkpt lat="49.39162" lon="5.81204">
        <ele>303.20001220703</ele>
        <time>2024-06-09T10:09:01Z</time>
      </trkpt>
      <trkpt lat="49.39161" lon="5.812">
        <ele>303.39999389648</ele>
        <time>2024-06-09T10:09:02Z</time>
      </trkpt>
      <trkpt lat="49.3916" lon="5.81192">
        <ele>303.39999389648</ele>
        <time>2024-06-09T10:09:04Z</time>
      </trkpt>
      <trkpt lat="49.39158" lon="5.81183">
        <ele>303.79998779297</ele>
        <time>2024-06-09T10:09:06Z</time>
      </trkpt>
      <trkpt lat="49.39156" lon="5.81175">
        <ele>304</ele>
        <time>2024-06-09T10:09:08Z</time>
      </trkpt>
      <trkpt lat="49.39155" lon="5.81167">
        <ele>304.20001220703</ele>
        <time>2024-06-09T10:09:10Z</time>
      </trkpt>
      <trkpt lat="49.39154" lon="5.81164">
        <ele>304.20001220703</ele>
        <time>2024-06-09T10:09:11Z</time>
      </trkpt>
      <trkpt lat="49.39154" lon="5.81161">
        <ele>304.39999389648</ele>
        <time>2024-06-09T10:09:12Z</time>
      </trkpt>
      <trkpt lat="49.39153" lon="5.81154">
        <ele>304.60000610352</ele>
        <time>2024-06-09T10:09:14Z</time>
      </trkpt>
      <trkpt lat="49.39151" lon="5.81143">
        <ele>304.79998779297</ele>
        <time>2024-06-09T10:09:16Z</time>
      </trkpt>
      <trkpt lat="49.3915" lon="5.8114">
        <ele>305.20001220703</ele>
        <time>2024-06-09T10:09:17Z</time>
      </trkpt>
      <trkpt lat="49.39149" lon="5.81136">
        <ele>305.39999389648</ele>
        <time>2024-06-09T10:09:18Z</time>
      </trkpt>
      <trkpt lat="49.39148" lon="5.81127">
        <ele>305.79998779297</ele>
        <time>2024-06-09T10:09:20Z</time>
      </trkpt>
      <trkpt lat="49.39147" lon="5.81119">
        <ele>306.20001220703</ele>
        <time>2024-06-09T10:09:22Z</time>
      </trkpt>
      <trkpt lat="49.39147" lon="5.81112">
        <ele>306.60000610352</ele>
        <time>2024-06-09T10:09:24Z</time>
      </trkpt>
      <trkpt lat="49.39144" lon="5.81104">
        <ele>307</ele>
        <time>2024-06-09T10:09:26Z</time>
      </trkpt>
      <trkpt lat="49.39142" lon="5.81094">
        <ele>307.39999389648</ele>
        <time>2024-06-09T10:09:28Z</time>
      </trkpt>
      <trkpt lat="49.39142" lon="5.8109">
        <ele>307.79998779297</ele>
        <time>2024-06-09T10:09:29Z</time>
      </trkpt>
      <trkpt lat="49.39141" lon="5.81085">
        <ele>308</ele>
        <time>2024-06-09T10:09:30Z</time>
      </trkpt>
      <trkpt lat="49.39141" lon="5.81081">
        <ele>308</ele>
        <time>2024-06-09T10:09:31Z</time>
      </trkpt>
      <trkpt lat="49.39139" lon="5.81077">
        <ele>308.39999389648</ele>
        <time>2024-06-09T10:09:32Z</time>
      </trkpt>
      <trkpt lat="49.39137" lon="5.8107">
        <ele>308.79998779297</ele>
        <time>2024-06-09T10:09:34Z</time>
      </trkpt>
      <trkpt lat="49.39137" lon="5.81064">
        <ele>309.20001220703</ele>
        <time>2024-06-09T10:09:36Z</time>
      </trkpt>
      <trkpt lat="49.39137" lon="5.81057">
        <ele>309.39999389648</ele>
        <time>2024-06-09T10:09:38Z</time>
      </trkpt>
      <trkpt lat="49.39136" lon="5.81051">
        <ele>309.79998779297</ele>
        <time>2024-06-09T10:09:40Z</time>
      </trkpt>
      <trkpt lat="49.39134" lon="5.81045">
        <ele>310</ele>
        <time>2024-06-09T10:09:42Z</time>
      </trkpt>
      <trkpt lat="49.39132" lon="5.81039">
        <ele>310.39999389648</ele>
        <time>2024-06-09T10:09:44Z</time>
      </trkpt>
      <trkpt lat="49.39131" lon="5.81036">
        <ele>310.60000610352</ele>
        <time>2024-06-09T10:09:45Z</time>
      </trkpt>
      <trkpt lat="49.39131" lon="5.81034">
        <ele>310.79998779297</ele>
        <time>2024-06-09T10:09:46Z</time>
      </trkpt>
      <trkpt lat="49.3913" lon="5.8103">
        <ele>310.79998779297</ele>
        <time>2024-06-09T10:09:47Z</time>
      </trkpt>
      <trkpt lat="49.3913" lon="5.81026">
        <ele>311</ele>
        <time>2024-06-09T10:09:48Z</time>
      </trkpt>
      <trkpt lat="49.39129" lon="5.8102">
        <ele>311.39999389648</ele>
        <time>2024-06-09T10:09:50Z</time>
      </trkpt>
      <trkpt lat="49.39128" lon="5.81018">
        <ele>311.60000610352</ele>
        <time>2024-06-09T10:09:51Z</time>
      </trkpt>
      <trkpt lat="49.39128" lon="5.81016">
        <ele>311.60000610352</ele>
        <time>2024-06-09T10:09:52Z</time>
      </trkpt>
      <trkpt lat="49.39128" lon="5.81014">
        <ele>311.79998779297</ele>
        <time>2024-06-09T10:09:53Z</time>
      </trkpt>
      <trkpt lat="49.39128" lon="5.81012">
        <ele>312</ele>
        <time>2024-06-09T10:09:54Z</time>
      </trkpt>
      <trkpt lat="49.39127" lon="5.81008">
        <ele>312.39999389648</ele>
        <time>2024-06-09T10:09:56Z</time>
      </trkpt>
      <trkpt lat="49.39127" lon="5.81003">
        <ele>312.79998779297</ele>
        <time>2024-06-09T10:09:58Z</time>
      </trkpt>
      <trkpt lat="49.39127" lon="5.81001">
        <ele>312.79998779297</ele>
        <time>2024-06-09T10:09:59Z</time>
      </trkpt>
      <trkpt lat="49.39126" lon="5.80998">
        <ele>313.20001220703</ele>
        <time>2024-06-09T10:10:00Z</time>
      </trkpt>
      <trkpt lat="49.39125" lon="5.80993">
        <ele>313.79998779297</ele>
        <time>2024-06-09T10:10:02Z</time>
      </trkpt>
      <trkpt lat="49.39125" lon="5.80991">
        <ele>314</ele>
        <time>2024-06-09T10:10:03Z</time>
      </trkpt>
      <trkpt lat="49.39125" lon="5.80989">
        <ele>314.20001220703</ele>
        <time>2024-06-09T10:10:04Z</time>
      </trkpt>
      <trkpt lat="49.39124" lon="5.80986">
        <ele>314.60000610352</ele>
        <time>2024-06-09T10:10:06Z</time>
      </trkpt>
      <trkpt lat="49.39123" lon="5.8098">
        <ele>315</ele>
        <time>2024-06-09T10:10:08Z</time>
      </trkpt>
      <trkpt lat="49.39123" lon="5.80978">
        <ele>315.20001220703</ele>
        <time>2024-06-09T10:10:09Z</time>
      </trkpt>
      <trkpt lat="49.39123" lon="5.80975">
        <ele>315.39999389648</ele>
        <time>2024-06-09T10:10:10Z</time>
      </trkpt>
      <trkpt lat="49.39123" lon="5.80971">
        <ele>315.60000610352</ele>
        <time>2024-06-09T10:10:12Z</time>
      </trkpt>
      <trkpt lat="49.39123" lon="5.80966">
        <ele>316</ele>
        <time>2024-06-09T10:10:14Z</time>
      </trkpt>
      <trkpt lat="49.39123" lon="5.80964">
        <ele>316.20001220703</ele>
        <time>2024-06-09T10:10:15Z</time>
      </trkpt>
      <trkpt lat="49.39123" lon="5.80961">
        <ele>316.39999389648</ele>
        <time>2024-06-09T10:10:16Z</time>
      </trkpt>
      <trkpt lat="49.39124" lon="5.80958">
        <ele>316.60000610352</ele>
        <time>2024-06-09T10:10:17Z</time>
      </trkpt>
      <trkpt lat="49.39124" lon="5.80955">
        <ele>316.79998779297</ele>
        <time>2024-06-09T10:10:18Z</time>
      </trkpt>
      <trkpt lat="49.39125" lon="5.8095">
        <ele>316.79998779297</ele>
        <time>2024-06-09T10:10:20Z</time>
      </trkpt>
      <trkpt lat="49.39126" lon="5.80943">
        <ele>317</ele>
        <time>2024-06-09T10:10:22Z</time>
      </trkpt>
      <trkpt lat="49.39126" lon="5.80936">
        <ele>317.39999389648</ele>
        <time>2024-06-09T10:10:24Z</time>
      </trkpt>
      <trkpt lat="49.39126" lon="5.80929">
        <ele>317.60000610352</ele>
        <time>2024-06-09T10:10:26Z</time>
      </trkpt>
      <trkpt lat="49.39126" lon="5.80921">
        <ele>317.79998779297</ele>
        <time>2024-06-09T10:10:28Z</time>
      </trkpt>
      <trkpt lat="49.39126" lon="5.80918">
        <ele>317.79998779297</ele>
        <time>2024-06-09T10:10:29Z</time>
      </trkpt>
      <trkpt lat="49.39127" lon="5.80915">
        <ele>318</ele>
        <time>2024-06-09T10:10:30Z</time>
      </trkpt>
      <trkpt lat="49.39127" lon="5.80909">
        <ele>318</ele>
        <time>2024-06-09T10:10:32Z</time>
      </trkpt>
      <trkpt lat="49.39128" lon="5.80902">
        <ele>318</ele>
        <time>2024-06-09T10:10:34Z</time>
      </trkpt>
      <trkpt lat="49.39128" lon="5.809">
        <ele>318</ele>
        <time>2024-06-09T10:10:35Z</time>
      </trkpt>
      <trkpt lat="49.39129" lon="5.80896">
        <ele>318</ele>
        <time>2024-06-09T10:10:36Z</time>
      </trkpt>
      <trkpt lat="49.3913" lon="5.80889">
        <ele>318.20001220703</ele>
        <time>2024-06-09T10:10:38Z</time>
      </trkpt>
      <trkpt lat="49.39131" lon="5.80885">
        <ele>318.60000610352</ele>
        <time>2024-06-09T10:10:39Z</time>
      </trkpt>
      <trkpt lat="49.39132" lon="5.80881">
        <ele>318.79998779297</ele>
        <time>2024-06-09T10:10:40Z</time>
      </trkpt>
      <trkpt lat="49.39133" lon="5.80878">
        <ele>319.20001220703</ele>
        <time>2024-06-09T10:10:41Z</time>
      </trkpt>
      <trkpt lat="49.39134" lon="5.80874">
        <ele>319.39999389648</ele>
        <time>2024-06-09T10:10:42Z</time>
      </trkpt>
      <trkpt lat="49.39135" lon="5.80871">
        <ele>319.60000610352</ele>
        <time>2024-06-09T10:10:43Z</time>
      </trkpt>
      <trkpt lat="49.39136" lon="5.80869">
        <ele>319.79998779297</ele>
        <time>2024-06-09T10:10:44Z</time>
      </trkpt>
      <trkpt lat="49.39137" lon="5.80862">
        <ele>320</ele>
        <time>2024-06-09T10:10:46Z</time>
      </trkpt>
      <trkpt lat="49.39138" lon="5.80858">
        <ele>320.39999389648</ele>
        <time>2024-06-09T10:10:47Z</time>
      </trkpt>
      <trkpt lat="49.39139" lon="5.80854">
        <ele>320.39999389648</ele>
        <time>2024-06-09T10:10:48Z</time>
      </trkpt>
      <trkpt lat="49.39141" lon="5.80847">
        <ele>320.60000610352</ele>
        <time>2024-06-09T10:10:50Z</time>
      </trkpt>
      <trkpt lat="49.39142" lon="5.80839">
        <ele>320.60000610352</ele>
        <time>2024-06-09T10:10:52Z</time>
      </trkpt>
      <trkpt lat="49.39142" lon="5.80834">
        <ele>320.60000610352</ele>
        <time>2024-06-09T10:10:53Z</time>
      </trkpt>
      <trkpt lat="49.39143" lon="5.8083">
        <ele>320.79998779297</ele>
        <time>2024-06-09T10:10:54Z</time>
      </trkpt>
      <trkpt lat="49.39145" lon="5.80821">
        <ele>320.79998779297</ele>
        <time>2024-06-09T10:10:56Z</time>
      </trkpt>
      <trkpt lat="49.39146" lon="5.80813">
        <ele>321</ele>
        <time>2024-06-09T10:10:58Z</time>
      </trkpt>
      <trkpt lat="49.39146" lon="5.80809">
        <ele>321.20001220703</ele>
        <time>2024-06-09T10:10:59Z</time>
      </trkpt>
      <trkpt lat="49.39147" lon="5.80805">
        <ele>321.20001220703</ele>
        <time>2024-06-09T10:11:00Z</time>
      </trkpt>
      <trkpt lat="49.39149" lon="5.80798">
        <ele>321.20001220703</ele>
        <time>2024-06-09T10:11:02Z</time>
      </trkpt>
      <trkpt lat="49.39151" lon="5.8079">
        <ele>321.20001220703</ele>
        <time>2024-06-09T10:11:04Z</time>
      </trkpt>
      <trkpt lat="49.39153" lon="5.80778">
        <ele>321.20001220703</ele>
        <time>2024-06-09T10:11:06Z</time>
      </trkpt>
      <trkpt lat="49.39155" lon="5.80765">
        <ele>321.20001220703</ele>
        <time>2024-06-09T10:11:08Z</time>
      </trkpt>
      <trkpt lat="49.39155" lon="5.80757">
        <ele>321.20001220703</ele>
        <time>2024-06-09T10:11:09Z</time>
      </trkpt>
      <trkpt lat="49.39156" lon="5.80749">
        <ele>321.20001220703</ele>
        <time>2024-06-09T10:11:10Z</time>
      </trkpt>
      <trkpt lat="49.39157" lon="5.80734">
        <ele>321.20001220703</ele>
        <time>2024-06-09T10:11:12Z</time>
      </trkpt>
      <trkpt lat="49.39158" lon="5.80717">
        <ele>321</ele>
        <time>2024-06-09T10:11:14Z</time>
      </trkpt>
      <trkpt lat="49.39158" lon="5.8071">
        <ele>321</ele>
        <time>2024-06-09T10:11:15Z</time>
      </trkpt>
      <trkpt lat="49.39158" lon="5.80704">
        <ele>321</ele>
        <time>2024-06-09T10:11:16Z</time>
      </trkpt>
      <trkpt lat="49.39157" lon="5.80692">
        <ele>321</ele>
        <time>2024-06-09T10:11:18Z</time>
      </trkpt>
      <trkpt lat="49.39157" lon="5.80681">
        <ele>321</ele>
        <time>2024-06-09T10:11:20Z</time>
      </trkpt>
      <trkpt lat="49.39155" lon="5.80671">
        <ele>321.20001220703</ele>
        <time>2024-06-09T10:11:22Z</time>
      </trkpt>
      <trkpt lat="49.39155" lon="5.80663">
        <ele>321.39999389648</ele>
        <time>2024-06-09T10:11:24Z</time>
      </trkpt>
      <trkpt lat="49.39154" lon="5.80654">
        <ele>322</ele>
        <time>2024-06-09T10:11:26Z</time>
      </trkpt>
      <trkpt lat="49.39153" lon="5.80647">
        <ele>322.79998779297</ele>
        <time>2024-06-09T10:11:28Z</time>
      </trkpt>
      <trkpt lat="49.39154" lon="5.80643">
        <ele>323.20001220703</ele>
        <time>2024-06-09T10:11:29Z</time>
      </trkpt>
      <trkpt lat="49.39154" lon="5.80638">
        <ele>323.60000610352</ele>
        <time>2024-06-09T10:11:30Z</time>
      </trkpt>
      <trkpt lat="49.39153" lon="5.8063">
        <ele>324</ele>
        <time>2024-06-09T10:11:32Z</time>
      </trkpt>
      <trkpt lat="49.3915" lon="5.80623">
        <ele>324.20001220703</ele>
        <time>2024-06-09T10:11:34Z</time>
      </trkpt>
      <trkpt lat="49.39149" lon="5.80619">
        <ele>324.39999389648</ele>
        <time>2024-06-09T10:11:35Z</time>
      </trkpt>
      <trkpt lat="49.39148" lon="5.80615">
        <ele>324.39999389648</ele>
        <time>2024-06-09T10:11:36Z</time>
      </trkpt>
      <trkpt lat="49.39146" lon="5.80607">
        <ele>324.60000610352</ele>
        <time>2024-06-09T10:11:38Z</time>
      </trkpt>
      <trkpt lat="49.39144" lon="5.80599">
        <ele>324.60000610352</ele>
        <time>2024-06-09T10:11:40Z</time>
      </trkpt>
      <trkpt lat="49.39142" lon="5.80591">
        <ele>324.79998779297</ele>
        <time>2024-06-09T10:11:42Z</time>
      </trkpt>
      <trkpt lat="49.39141" lon="5.80587">
        <ele>325</ele>
        <time>2024-06-09T10:11:43Z</time>
      </trkpt>
      <trkpt lat="49.3914" lon="5.80583">
        <ele>325.20001220703</ele>
        <time>2024-06-09T10:11:44Z</time>
      </trkpt>
      <trkpt lat="49.39138" lon="5.80575">
        <ele>325.60000610352</ele>
        <time>2024-06-09T10:11:46Z</time>
      </trkpt>
      <trkpt lat="49.39136" lon="5.80567">
        <ele>326</ele>
        <time>2024-06-09T10:11:48Z</time>
      </trkpt>
      <trkpt lat="49.39135" lon="5.8056">
        <ele>326.60000610352</ele>
        <time>2024-06-09T10:11:50Z</time>
      </trkpt>
      <trkpt lat="49.39132" lon="5.80552">
        <ele>327</ele>
        <time>2024-06-09T10:11:52Z</time>
      </trkpt>
      <trkpt lat="49.39131" lon="5.80545">
        <ele>327.60000610352</ele>
        <time>2024-06-09T10:11:54Z</time>
      </trkpt>
      <trkpt lat="49.39129" lon="5.80541">
        <ele>327.79998779297</ele>
        <time>2024-06-09T10:11:55Z</time>
      </trkpt>
      <trkpt lat="49.39128" lon="5.80538">
        <ele>328.20001220703</ele>
        <time>2024-06-09T10:11:56Z</time>
      </trkpt>
      <trkpt lat="49.39126" lon="5.8053">
        <ele>328.60000610352</ele>
        <time>2024-06-09T10:11:58Z</time>
      </trkpt>
      <trkpt lat="49.39125" lon="5.80527">
        <ele>328.79998779297</ele>
        <time>2024-06-09T10:11:59Z</time>
      </trkpt>
      <trkpt lat="49.39124" lon="5.80523">
        <ele>329</ele>
        <time>2024-06-09T10:12:00Z</time>
      </trkpt>
      <trkpt lat="49.39123" lon="5.8052">
        <ele>329.39999389648</ele>
        <time>2024-06-09T10:12:01Z</time>
      </trkpt>
      <trkpt lat="49.39122" lon="5.80516">
        <ele>329.60000610352</ele>
        <time>2024-06-09T10:12:02Z</time>
      </trkpt>
      <trkpt lat="49.39119" lon="5.80509">
        <ele>330</ele>
        <time>2024-06-09T10:12:04Z</time>
      </trkpt>
      <trkpt lat="49.39117" lon="5.80502">
        <ele>330.39999389648</ele>
        <time>2024-06-09T10:12:06Z</time>
      </trkpt>
      <trkpt lat="49.39114" lon="5.80494">
        <ele>330.60000610352</ele>
        <time>2024-06-09T10:12:08Z</time>
      </trkpt>
      <trkpt lat="49.39111" lon="5.80487">
        <ele>331</ele>
        <time>2024-06-09T10:12:10Z</time>
      </trkpt>
      <trkpt lat="49.39108" lon="5.80479">
        <ele>331.39999389648</ele>
        <time>2024-06-09T10:12:12Z</time>
      </trkpt>
      <trkpt lat="49.39106" lon="5.80472">
        <ele>331.79998779297</ele>
        <time>2024-06-09T10:12:14Z</time>
      </trkpt>
      <trkpt lat="49.39103" lon="5.80464">
        <ele>331.79998779297</ele>
        <time>2024-06-09T10:12:16Z</time>
      </trkpt>
      <trkpt lat="49.391" lon="5.80457">
        <ele>332</ele>
        <time>2024-06-09T10:12:18Z</time>
      </trkpt>
      <trkpt lat="49.39098" lon="5.80453">
        <ele>332</ele>
        <time>2024-06-09T10:12:19Z</time>
      </trkpt>
      <trkpt lat="49.39097" lon="5.8045">
        <ele>332.20001220703</ele>
        <time>2024-06-09T10:12:20Z</time>
      </trkpt>
      <trkpt lat="49.39094" lon="5.80442">
        <ele>332.20001220703</ele>
        <time>2024-06-09T10:12:22Z</time>
      </trkpt>
      <trkpt lat="49.39092" lon="5.80438">
        <ele>332.20001220703</ele>
        <time>2024-06-09T10:12:23Z</time>
      </trkpt>
      <trkpt lat="49.39091" lon="5.80434">
        <ele>332.39999389648</ele>
        <time>2024-06-09T10:12:24Z</time>
      </trkpt>
      <trkpt lat="49.39088" lon="5.80427">
        <ele>332.39999389648</ele>
        <time>2024-06-09T10:12:26Z</time>
      </trkpt>
      <trkpt lat="49.39085" lon="5.8042">
        <ele>332.60000610352</ele>
        <time>2024-06-09T10:12:28Z</time>
      </trkpt>
      <trkpt lat="49.39084" lon="5.80416">
        <ele>332.60000610352</ele>
        <time>2024-06-09T10:12:29Z</time>
      </trkpt>
      <trkpt lat="49.39082" lon="5.80412">
        <ele>332.60000610352</ele>
        <time>2024-06-09T10:12:30Z</time>
      </trkpt>
      <trkpt lat="49.3908" lon="5.80405">
        <ele>333.20001220703</ele>
        <time>2024-06-09T10:12:32Z</time>
      </trkpt>
      <trkpt lat="49.39077" lon="5.80398">
        <ele>333.39999389648</ele>
        <time>2024-06-09T10:12:34Z</time>
      </trkpt>
      <trkpt lat="49.39074" lon="5.8039">
        <ele>333.60000610352</ele>
        <time>2024-06-09T10:12:36Z</time>
      </trkpt>
      <trkpt lat="49.39072" lon="5.80383">
        <ele>333.79998779297</ele>
        <time>2024-06-09T10:12:38Z</time>
      </trkpt>
      <trkpt lat="49.39068" lon="5.80375">
        <ele>334.20001220703</ele>
        <time>2024-06-09T10:12:40Z</time>
      </trkpt>
      <trkpt lat="49.39065" lon="5.80367">
        <ele>334.60000610352</ele>
        <time>2024-06-09T10:12:42Z</time>
      </trkpt>
      <trkpt lat="49.39063" lon="5.80363">
        <ele>334.60000610352</ele>
        <time>2024-06-09T10:12:43Z</time>
      </trkpt>
      <trkpt lat="49.39061" lon="5.8036">
        <ele>334.79998779297</ele>
        <time>2024-06-09T10:12:44Z</time>
      </trkpt>
      <trkpt lat="49.39057" lon="5.80351">
        <ele>335</ele>
        <time>2024-06-09T10:12:46Z</time>
      </trkpt>
      <trkpt lat="49.39053" lon="5.80341">
        <ele>335</ele>
        <time>2024-06-09T10:12:48Z</time>
      </trkpt>
      <trkpt lat="49.3905" lon="5.80336">
        <ele>335</ele>
        <time>2024-06-09T10:12:49Z</time>
      </trkpt>
      <trkpt lat="49.39048" lon="5.8033">
        <ele>335</ele>
        <time>2024-06-09T10:12:50Z</time>
      </trkpt>
      <trkpt lat="49.39043" lon="5.8032">
        <ele>335</ele>
        <time>2024-06-09T10:12:52Z</time>
      </trkpt>
      <trkpt lat="49.39037" lon="5.80309">
        <ele>335</ele>
        <time>2024-06-09T10:12:54Z</time>
      </trkpt>
      <trkpt lat="49.39031" lon="5.80297">
        <ele>334.79998779297</ele>
        <time>2024-06-09T10:12:56Z</time>
      </trkpt>
      <trkpt lat="49.39024" lon="5.80284">
        <ele>334.20001220703</ele>
        <time>2024-06-09T10:12:58Z</time>
      </trkpt>
      <trkpt lat="49.39019" lon="5.8027">
        <ele>334.20001220703</ele>
        <time>2024-06-09T10:13:00Z</time>
      </trkpt>
      <trkpt lat="49.39013" lon="5.80256">
        <ele>334</ele>
        <time>2024-06-09T10:13:02Z</time>
      </trkpt>
      <trkpt lat="49.3901" lon="5.80249">
        <ele>333.79998779297</ele>
        <time>2024-06-09T10:13:03Z</time>
      </trkpt>
      <trkpt lat="49.39007" lon="5.80241">
        <ele>333.60000610352</ele>
        <time>2024-06-09T10:13:04Z</time>
      </trkpt>
      <trkpt lat="49.39001" lon="5.80225">
        <ele>333.60000610352</ele>
        <time>2024-06-09T10:13:06Z</time>
      </trkpt>
      <trkpt lat="49.38995" lon="5.80209">
        <ele>333</ele>
        <time>2024-06-09T10:13:08Z</time>
      </trkpt>
      <trkpt lat="49.38993" lon="5.80201">
        <ele>333</ele>
        <time>2024-06-09T10:13:09Z</time>
      </trkpt>
      <trkpt lat="49.38991" lon="5.80193">
        <ele>332.79998779297</ele>
        <time>2024-06-09T10:13:10Z</time>
      </trkpt>
      <trkpt lat="49.38989" lon="5.80185">
        <ele>332.79998779297</ele>
        <time>2024-06-09T10:13:11Z</time>
      </trkpt>
      <trkpt lat="49.38987" lon="5.80177">
        <ele>332.60000610352</ele>
        <time>2024-06-09T10:13:12Z</time>
      </trkpt>
      <trkpt lat="49.38983" lon="5.80161">
        <ele>332.20001220703</ele>
        <time>2024-06-09T10:13:14Z</time>
      </trkpt>
      <trkpt lat="49.3898" lon="5.80144">
        <ele>332</ele>
        <time>2024-06-09T10:13:16Z</time>
      </trkpt>
      <trkpt lat="49.38978" lon="5.80135">
        <ele>331.79998779297</ele>
        <time>2024-06-09T10:13:17Z</time>
      </trkpt>
      <trkpt lat="49.38977" lon="5.80127">
        <ele>331.60000610352</ele>
        <time>2024-06-09T10:13:18Z</time>
      </trkpt>
      <trkpt lat="49.38973" lon="5.80109">
        <ele>331.39999389648</ele>
        <time>2024-06-09T10:13:20Z</time>
      </trkpt>
      <trkpt lat="49.38968" lon="5.80091">
        <ele>331.20001220703</ele>
        <time>2024-06-09T10:13:22Z</time>
      </trkpt>
      <trkpt lat="49.38962" lon="5.80073">
        <ele>331</ele>
        <time>2024-06-09T10:13:24Z</time>
      </trkpt>
      <trkpt lat="49.38955" lon="5.80055">
        <ele>330.60000610352</ele>
        <time>2024-06-09T10:13:26Z</time>
      </trkpt>
      <trkpt lat="49.38948" lon="5.80036">
        <ele>330.20001220703</ele>
        <time>2024-06-09T10:13:28Z</time>
      </trkpt>
      <trkpt lat="49.38941" lon="5.80018">
        <ele>330</ele>
        <time>2024-06-09T10:13:30Z</time>
      </trkpt>
      <trkpt lat="49.38934" lon="5.79999">
        <ele>329.79998779297</ele>
        <time>2024-06-09T10:13:32Z</time>
      </trkpt>
      <trkpt lat="49.38931" lon="5.7999">
        <ele>329.60000610352</ele>
        <time>2024-06-09T10:13:33Z</time>
      </trkpt>
      <trkpt lat="49.38928" lon="5.79981">
        <ele>329.60000610352</ele>
        <time>2024-06-09T10:13:34Z</time>
      </trkpt>
      <trkpt lat="49.38923" lon="5.79962">
        <ele>329.39999389648</ele>
        <time>2024-06-09T10:13:36Z</time>
      </trkpt>
      <trkpt lat="49.38919" lon="5.79943">
        <ele>329</ele>
        <time>2024-06-09T10:13:38Z</time>
      </trkpt>
      <trkpt lat="49.38918" lon="5.79924">
        <ele>328.79998779297</ele>
        <time>2024-06-09T10:13:40Z</time>
      </trkpt>
      <trkpt lat="49.38919" lon="5.79915">
        <ele>328.79998779297</ele>
        <time>2024-06-09T10:13:41Z</time>
      </trkpt>
      <trkpt lat="49.38921" lon="5.79908">
        <ele>328.60000610352</ele>
        <time>2024-06-09T10:13:42Z</time>
      </trkpt>
      <trkpt lat="49.38925" lon="5.79903">
        <ele>328.60000610352</ele>
        <time>2024-06-09T10:13:43Z</time>
      </trkpt>
      <trkpt lat="49.38929" lon="5.79898">
        <ele>328</ele>
        <time>2024-06-09T10:13:44Z</time>
      </trkpt>
      <trkpt lat="49.38933" lon="5.79892">
        <ele>327.79998779297</ele>
        <time>2024-06-09T10:13:45Z</time>
      </trkpt>
      <trkpt lat="49.38936" lon="5.79887">
        <ele>327.60000610352</ele>
        <time>2024-06-09T10:13:46Z</time>
      </trkpt>
      <trkpt lat="49.38943" lon="5.79877">
        <ele>327.20001220703</ele>
        <time>2024-06-09T10:13:48Z</time>
      </trkpt>
      <trkpt lat="49.3895" lon="5.79867">
        <ele>326.79998779297</ele>
        <time>2024-06-09T10:13:50Z</time>
      </trkpt>
      <trkpt lat="49.38957" lon="5.79858">
        <ele>326.60000610352</ele>
        <time>2024-06-09T10:13:52Z</time>
      </trkpt>
      <trkpt lat="49.38963" lon="5.79848">
        <ele>326.60000610352</ele>
        <time>2024-06-09T10:13:54Z</time>
      </trkpt>
      <trkpt lat="49.3897" lon="5.79839">
        <ele>326.60000610352</ele>
        <time>2024-06-09T10:13:56Z</time>
      </trkpt>
      <trkpt lat="49.38974" lon="5.79835">
        <ele>326.60000610352</ele>
        <time>2024-06-09T10:13:57Z</time>
      </trkpt>
      <trkpt lat="49.38977" lon="5.79831">
        <ele>326.60000610352</ele>
        <time>2024-06-09T10:13:58Z</time>
      </trkpt>
      <trkpt lat="49.38982" lon="5.7982">
        <ele>326.79998779297</ele>
        <time>2024-06-09T10:14:00Z</time>
      </trkpt>
      <trkpt lat="49.38985" lon="5.79814">
        <ele>326.79998779297</ele>
        <time>2024-06-09T10:14:01Z</time>
      </trkpt>
      <trkpt lat="49.38987" lon="5.79807">
        <ele>326.79998779297</ele>
        <time>2024-06-09T10:14:02Z</time>
      </trkpt>
      <trkpt lat="49.38989" lon="5.79793">
        <ele>327</ele>
        <time>2024-06-09T10:14:04Z</time>
      </trkpt>
      <trkpt lat="49.38989" lon="5.79785">
        <ele>327</ele>
        <time>2024-06-09T10:14:05Z</time>
      </trkpt>
      <trkpt lat="49.38989" lon="5.79778">
        <ele>327.20001220703</ele>
        <time>2024-06-09T10:14:06Z</time>
      </trkpt>
      <trkpt lat="49.38989" lon="5.79762">
        <ele>327.39999389648</ele>
        <time>2024-06-09T10:14:08Z</time>
      </trkpt>
      <trkpt lat="49.3899" lon="5.79747">
        <ele>327.39999389648</ele>
        <time>2024-06-09T10:14:10Z</time>
      </trkpt>
      <trkpt lat="49.38992" lon="5.79731">
        <ele>327.39999389648</ele>
        <time>2024-06-09T10:14:12Z</time>
      </trkpt>
      <trkpt lat="49.38993" lon="5.79715">
        <ele>327.39999389648</ele>
        <time>2024-06-09T10:14:14Z</time>
      </trkpt>
      <trkpt lat="49.38993" lon="5.79699">
        <ele>327.39999389648</ele>
        <time>2024-06-09T10:14:16Z</time>
      </trkpt>
      <trkpt lat="49.38995" lon="5.79684">
        <ele>327.20001220703</ele>
        <time>2024-06-09T10:14:18Z</time>
      </trkpt>
      <trkpt lat="49.38995" lon="5.79676">
        <ele>327</ele>
        <time>2024-06-09T10:14:19Z</time>
      </trkpt>
      <trkpt lat="49.38996" lon="5.79668">
        <ele>327</ele>
        <time>2024-06-09T10:14:20Z</time>
      </trkpt>
      <trkpt lat="49.38997" lon="5.79652">
        <ele>327</ele>
        <time>2024-06-09T10:14:22Z</time>
      </trkpt>
      <trkpt lat="49.38997" lon="5.79636">
        <ele>326.79998779297</ele>
        <time>2024-06-09T10:14:24Z</time>
      </trkpt>
      <trkpt lat="49.38997" lon="5.79621">
        <ele>326.79998779297</ele>
        <time>2024-06-09T10:14:26Z</time>
      </trkpt>
      <trkpt lat="49.38997" lon="5.79614">
        <ele>326.79998779297</ele>
        <time>2024-06-09T10:14:27Z</time>
      </trkpt>
      <trkpt lat="49.38996" lon="5.79606">
        <ele>326.79998779297</ele>
        <time>2024-06-09T10:14:28Z</time>
      </trkpt>
      <trkpt lat="49.38996" lon="5.79593">
        <ele>326.79998779297</ele>
        <time>2024-06-09T10:14:30Z</time>
      </trkpt>
      <trkpt lat="49.39001" lon="5.79585">
        <ele>326.79998779297</ele>
        <time>2024-06-09T10:14:32Z</time>
      </trkpt>
      <trkpt lat="49.39008" lon="5.79588">
        <ele>326.79998779297</ele>
        <time>2024-06-09T10:14:34Z</time>
      </trkpt>
      <trkpt lat="49.39012" lon="5.79592">
        <ele>326.79998779297</ele>
        <time>2024-06-09T10:14:35Z</time>
      </trkpt>
      <trkpt lat="49.39015" lon="5.79595">
        <ele>326.79998779297</ele>
        <time>2024-06-09T10:14:36Z</time>
      </trkpt>
      <trkpt lat="49.39021" lon="5.79602">
        <ele>326.79998779297</ele>
        <time>2024-06-09T10:14:38Z</time>
      </trkpt>
      <trkpt lat="49.39027" lon="5.79608">
        <ele>326.79998779297</ele>
        <time>2024-06-09T10:14:40Z</time>
      </trkpt>
      <trkpt lat="49.39033" lon="5.79615">
        <ele>326.79998779297</ele>
        <time>2024-06-09T10:14:42Z</time>
      </trkpt>
      <trkpt lat="49.39039" lon="5.79621">
        <ele>327.20001220703</ele>
        <time>2024-06-09T10:14:44Z</time>
      </trkpt>
      <trkpt lat="49.39045" lon="5.79628">
        <ele>327.60000610352</ele>
        <time>2024-06-09T10:14:46Z</time>
      </trkpt>
      <trkpt lat="49.39051" lon="5.79634">
        <ele>328</ele>
        <time>2024-06-09T10:14:48Z</time>
      </trkpt>
      <trkpt lat="49.39056" lon="5.79641">
        <ele>328.20001220703</ele>
        <time>2024-06-09T10:14:50Z</time>
      </trkpt>
      <trkpt lat="49.39062" lon="5.79646">
        <ele>328.39999389648</ele>
        <time>2024-06-09T10:14:52Z</time>
      </trkpt>
      <trkpt lat="49.39068" lon="5.79652">
        <ele>328.60000610352</ele>
        <time>2024-06-09T10:14:54Z</time>
      </trkpt>
      <trkpt lat="49.39073" lon="5.79658">
        <ele>328.60000610352</ele>
        <time>2024-06-09T10:14:56Z</time>
      </trkpt>
      <trkpt lat="49.39079" lon="5.79664">
        <ele>328.79998779297</ele>
        <time>2024-06-09T10:14:58Z</time>
      </trkpt>
      <trkpt lat="49.39084" lon="5.7967">
        <ele>328.79998779297</ele>
        <time>2024-06-09T10:15:00Z</time>
      </trkpt>
      <trkpt lat="49.3909" lon="5.79676">
        <ele>329.20001220703</ele>
        <time>2024-06-09T10:15:02Z</time>
      </trkpt>
      <trkpt lat="49.39095" lon="5.79683">
        <ele>329.39999389648</ele>
        <time>2024-06-09T10:15:04Z</time>
      </trkpt>
      <trkpt lat="49.39101" lon="5.79689">
        <ele>329.60000610352</ele>
        <time>2024-06-09T10:15:06Z</time>
      </trkpt>
      <trkpt lat="49.39104" lon="5.79692">
        <ele>329.60000610352</ele>
        <time>2024-06-09T10:15:07Z</time>
      </trkpt>
      <trkpt lat="49.39107" lon="5.79695">
        <ele>329.79998779297</ele>
        <time>2024-06-09T10:15:08Z</time>
      </trkpt>
      <trkpt lat="49.39112" lon="5.79701">
        <ele>330</ele>
        <time>2024-06-09T10:15:10Z</time>
      </trkpt>
      <trkpt lat="49.39118" lon="5.79706">
        <ele>330.20001220703</ele>
        <time>2024-06-09T10:15:12Z</time>
      </trkpt>
      <trkpt lat="49.39123" lon="5.79712">
        <ele>330.39999389648</ele>
        <time>2024-06-09T10:15:14Z</time>
      </trkpt>
      <trkpt lat="49.39126" lon="5.79715">
        <ele>330.79998779297</ele>
        <time>2024-06-09T10:15:15Z</time>
      </trkpt>
      <trkpt lat="49.39129" lon="5.79718">
        <ele>331</ele>
        <time>2024-06-09T10:15:16Z</time>
      </trkpt>
      <trkpt lat="49.39134" lon="5.79725">
        <ele>331.20001220703</ele>
        <time>2024-06-09T10:15:18Z</time>
      </trkpt>
      <trkpt lat="49.3914" lon="5.7973">
        <ele>331.39999389648</ele>
        <time>2024-06-09T10:15:20Z</time>
      </trkpt>
      <trkpt lat="49.39146" lon="5.79736">
        <ele>331.60000610352</ele>
        <time>2024-06-09T10:15:22Z</time>
      </trkpt>
      <trkpt lat="49.39151" lon="5.79742">
        <ele>331.60000610352</ele>
        <time>2024-06-09T10:15:24Z</time>
      </trkpt>
      <trkpt lat="49.39154" lon="5.79745">
        <ele>331.79998779297</ele>
        <time>2024-06-09T10:15:25Z</time>
      </trkpt>
      <trkpt lat="49.39156" lon="5.79747">
        <ele>331.79998779297</ele>
        <time>2024-06-09T10:15:26Z</time>
      </trkpt>
      <trkpt lat="49.39161" lon="5.79753">
        <ele>332</ele>
        <time>2024-06-09T10:15:28Z</time>
      </trkpt>
      <trkpt lat="49.39167" lon="5.79759">
        <ele>332.20001220703</ele>
        <time>2024-06-09T10:15:30Z</time>
      </trkpt>
      <trkpt lat="49.39173" lon="5.79765">
        <ele>332.20001220703</ele>
        <time>2024-06-09T10:15:32Z</time>
      </trkpt>
      <trkpt lat="49.39179" lon="5.79771">
        <ele>332.39999389648</ele>
        <time>2024-06-09T10:15:34Z</time>
      </trkpt>
      <trkpt lat="49.39185" lon="5.79778">
        <ele>332.39999389648</ele>
        <time>2024-06-09T10:15:36Z</time>
      </trkpt>
      <trkpt lat="49.39191" lon="5.79785">
        <ele>332.39999389648</ele>
        <time>2024-06-09T10:15:38Z</time>
      </trkpt>
      <trkpt lat="49.39197" lon="5.79791">
        <ele>332.39999389648</ele>
        <time>2024-06-09T10:15:40Z</time>
      </trkpt>
      <trkpt lat="49.39201" lon="5.79794">
        <ele>332.39999389648</ele>
        <time>2024-06-09T10:15:41Z</time>
      </trkpt>
      <trkpt lat="49.39204" lon="5.79798">
        <ele>332.39999389648</ele>
        <time>2024-06-09T10:15:42Z</time>
      </trkpt>
      <trkpt lat="49.3921" lon="5.79805">
        <ele>332.39999389648</ele>
        <time>2024-06-09T10:15:44Z</time>
      </trkpt>
      <trkpt lat="49.39216" lon="5.79812">
        <ele>332.39999389648</ele>
        <time>2024-06-09T10:15:46Z</time>
      </trkpt>
      <trkpt lat="49.39222" lon="5.79818">
        <ele>332.39999389648</ele>
        <time>2024-06-09T10:15:48Z</time>
      </trkpt>
      <trkpt lat="49.39228" lon="5.79825">
        <ele>332.39999389648</ele>
        <time>2024-06-09T10:15:50Z</time>
      </trkpt>
      <trkpt lat="49.39231" lon="5.79829">
        <ele>332.39999389648</ele>
        <time>2024-06-09T10:15:51Z</time>
      </trkpt>
      <trkpt lat="49.39234" lon="5.79833">
        <ele>332.39999389648</ele>
        <time>2024-06-09T10:15:52Z</time>
      </trkpt>
      <trkpt lat="49.39241" lon="5.7984">
        <ele>332.39999389648</ele>
        <time>2024-06-09T10:15:54Z</time>
      </trkpt>
      <trkpt lat="49.39248" lon="5.79849">
        <ele>332.39999389648</ele>
        <time>2024-06-09T10:15:56Z</time>
      </trkpt>
      <trkpt lat="49.39256" lon="5.79857">
        <ele>332.39999389648</ele>
        <time>2024-06-09T10:15:58Z</time>
      </trkpt>
      <trkpt lat="49.3926" lon="5.79861">
        <ele>332.39999389648</ele>
        <time>2024-06-09T10:15:59Z</time>
      </trkpt>
      <trkpt lat="49.39264" lon="5.79866">
        <ele>332.20001220703</ele>
        <time>2024-06-09T10:16:00Z</time>
      </trkpt>
      <trkpt lat="49.39272" lon="5.79875">
        <ele>331.60000610352</ele>
        <time>2024-06-09T10:16:02Z</time>
      </trkpt>
      <trkpt lat="49.3928" lon="5.79885">
        <ele>331</ele>
        <time>2024-06-09T10:16:04Z</time>
      </trkpt>
      <trkpt lat="49.39289" lon="5.79894">
        <ele>330.79998779297</ele>
        <time>2024-06-09T10:16:06Z</time>
      </trkpt>
      <trkpt lat="49.39293" lon="5.79899">
        <ele>330.60000610352</ele>
        <time>2024-06-09T10:16:07Z</time>
      </trkpt>
      <trkpt lat="49.39298" lon="5.79905">
        <ele>330.39999389648</ele>
        <time>2024-06-09T10:16:08Z</time>
      </trkpt>
      <trkpt lat="49.39308" lon="5.79915">
        <ele>329.79998779297</ele>
        <time>2024-06-09T10:16:10Z</time>
      </trkpt>
      <trkpt lat="49.39313" lon="5.79921">
        <ele>329.60000610352</ele>
        <time>2024-06-09T10:16:11Z</time>
      </trkpt>
      <trkpt lat="49.39318" lon="5.79927">
        <ele>329.20001220703</ele>
        <time>2024-06-09T10:16:12Z</time>
      </trkpt>
      <trkpt lat="49.39329" lon="5.7994">
        <ele>328.60000610352</ele>
        <time>2024-06-09T10:16:14Z</time>
      </trkpt>
      <trkpt lat="49.39335" lon="5.79947">
        <ele>328.20001220703</ele>
        <time>2024-06-09T10:16:15Z</time>
      </trkpt>
      <trkpt lat="49.39341" lon="5.79954">
        <ele>327.79998779297</ele>
        <time>2024-06-09T10:16:16Z</time>
      </trkpt>
      <trkpt lat="49.39354" lon="5.79969">
        <ele>327.20001220703</ele>
        <time>2024-06-09T10:16:18Z</time>
      </trkpt>
      <trkpt lat="49.3936" lon="5.79978">
        <ele>326.79998779297</ele>
        <time>2024-06-09T10:16:19Z</time>
      </trkpt>
      <trkpt lat="49.39367" lon="5.79986">
        <ele>326.20001220703</ele>
        <time>2024-06-09T10:16:20Z</time>
      </trkpt>
      <trkpt lat="49.39374" lon="5.79994">
        <ele>325.60000610352</ele>
        <time>2024-06-09T10:16:21Z</time>
      </trkpt>
      <trkpt lat="49.3938" lon="5.80001">
        <ele>324.79998779297</ele>
        <time>2024-06-09T10:16:22Z</time>
      </trkpt>
      <trkpt lat="49.39385" lon="5.80004">
        <ele>324</ele>
        <time>2024-06-09T10:16:23Z</time>
      </trkpt>
      <trkpt lat="49.3939" lon="5.80006">
        <ele>323.20001220703</ele>
        <time>2024-06-09T10:16:24Z</time>
      </trkpt>
      <trkpt lat="49.39393" lon="5.80008">
        <ele>322.39999389648</ele>
        <time>2024-06-09T10:16:25Z</time>
      </trkpt>
      <trkpt lat="49.39394" lon="5.8001">
        <ele>321.79998779297</ele>
        <time>2024-06-09T10:16:26Z</time>
      </trkpt>
      <trkpt lat="49.39395" lon="5.80011">
        <ele>320.79998779297</ele>
        <time>2024-06-09T10:16:27Z</time>
      </trkpt>
      <trkpt lat="49.39395" lon="5.80013">
        <ele>320</ele>
        <time>2024-06-09T10:16:28Z</time>
      </trkpt>
      <trkpt lat="49.39394" lon="5.80016">
        <ele>318.79998779297</ele>
        <time>2024-06-09T10:16:29Z</time>
      </trkpt>
      <trkpt lat="49.39394" lon="5.8002">
        <ele>318</ele>
        <time>2024-06-09T10:16:30Z</time>
      </trkpt>
      <trkpt lat="49.39392" lon="5.80024">
        <ele>317.20001220703</ele>
        <time>2024-06-09T10:16:31Z</time>
      </trkpt>
      <trkpt lat="49.39391" lon="5.80029">
        <ele>317</ele>
        <time>2024-06-09T10:16:32Z</time>
      </trkpt>
      <trkpt lat="49.39389" lon="5.80032">
        <ele>316.79998779297</ele>
        <time>2024-06-09T10:16:33Z</time>
      </trkpt>
      <trkpt lat="49.39388" lon="5.80035">
        <ele>316.60000610352</ele>
        <time>2024-06-09T10:16:34Z</time>
      </trkpt>
      <trkpt lat="49.39387" lon="5.8004">
        <ele>316.20001220703</ele>
        <time>2024-06-09T10:16:36Z</time>
      </trkpt>
      <trkpt lat="49.39386" lon="5.80044">
        <ele>315.39999389648</ele>
        <time>2024-06-09T10:16:38Z</time>
      </trkpt>
      <trkpt lat="49.39385" lon="5.80045">
        <ele>315</ele>
        <time>2024-06-09T10:16:39Z</time>
      </trkpt>
      <trkpt lat="49.39385" lon="5.80046">
        <ele>314.60000610352</ele>
        <time>2024-06-09T10:16:40Z</time>
      </trkpt>
      <trkpt lat="49.39384" lon="5.80048">
        <ele>314.20001220703</ele>
        <time>2024-06-09T10:16:42Z</time>
      </trkpt>
      <trkpt lat="49.39384" lon="5.8005">
        <ele>314</ele>
        <time>2024-06-09T10:16:44Z</time>
      </trkpt>
      <trkpt lat="49.39384" lon="5.80051">
        <ele>314</ele>
        <time>2024-06-09T10:16:45Z</time>
      </trkpt>
      <trkpt lat="49.39384" lon="5.80053">
        <ele>314</ele>
        <time>2024-06-09T10:16:46Z</time>
      </trkpt>
      <trkpt lat="49.39384" lon="5.80058">
        <ele>314</ele>
        <time>2024-06-09T10:16:48Z</time>
      </trkpt>
      <trkpt lat="49.39383" lon="5.80062">
        <ele>314</ele>
        <time>2024-06-09T10:16:50Z</time>
      </trkpt>
      <trkpt lat="49.39382" lon="5.80067">
        <ele>314</ele>
        <time>2024-06-09T10:16:52Z</time>
      </trkpt>
      <trkpt lat="49.39381" lon="5.80069">
        <ele>314</ele>
        <time>2024-06-09T10:16:53Z</time>
      </trkpt>
      <trkpt lat="49.3938" lon="5.80071">
        <ele>314</ele>
        <time>2024-06-09T10:16:54Z</time>
      </trkpt>
      <trkpt lat="49.39379" lon="5.80074">
        <ele>313.79998779297</ele>
        <time>2024-06-09T10:16:56Z</time>
      </trkpt>
      <trkpt lat="49.39378" lon="5.80079">
        <ele>313.79998779297</ele>
        <time>2024-06-09T10:16:58Z</time>
      </trkpt>
      <trkpt lat="49.39375" lon="5.80084">
        <ele>313.79998779297</ele>
        <time>2024-06-09T10:17:00Z</time>
      </trkpt>
      <trkpt lat="49.39373" lon="5.80092">
        <ele>313.79998779297</ele>
        <time>2024-06-09T10:17:02Z</time>
      </trkpt>
      <trkpt lat="49.39372" lon="5.80102">
        <ele>313.79998779297</ele>
        <time>2024-06-09T10:17:04Z</time>
      </trkpt>
      <trkpt lat="49.39371" lon="5.80106">
        <ele>313.79998779297</ele>
        <time>2024-06-09T10:17:05Z</time>
      </trkpt>
      <trkpt lat="49.3937" lon="5.8011">
        <ele>313.60000610352</ele>
        <time>2024-06-09T10:17:06Z</time>
      </trkpt>
      <trkpt lat="49.3937" lon="5.80119">
        <ele>313.60000610352</ele>
        <time>2024-06-09T10:17:08Z</time>
      </trkpt>
      <trkpt lat="49.39369" lon="5.80126">
        <ele>313.60000610352</ele>
        <time>2024-06-09T10:17:09Z</time>
      </trkpt>
      <trkpt lat="49.39368" lon="5.80134">
        <ele>313.60000610352</ele>
        <time>2024-06-09T10:17:10Z</time>
      </trkpt>
      <trkpt lat="49.39368" lon="5.80152">
        <ele>313.60000610352</ele>
        <time>2024-06-09T10:17:12Z</time>
      </trkpt>
      <trkpt lat="49.39368" lon="5.80161">
        <ele>313.60000610352</ele>
        <time>2024-06-09T10:17:13Z</time>
      </trkpt>
      <trkpt lat="49.39368" lon="5.80168">
        <ele>313.60000610352</ele>
        <time>2024-06-09T10:17:14Z</time>
      </trkpt>
      <trkpt lat="49.39368" lon="5.8018">
        <ele>312.60000610352</ele>
        <time>2024-06-09T10:17:16Z</time>
      </trkpt>
      <trkpt lat="49.39369" lon="5.80187">
        <ele>311.39999389648</ele>
        <time>2024-06-09T10:17:17Z</time>
      </trkpt>
      <trkpt lat="49.39369" lon="5.80194">
        <ele>310.39999389648</ele>
        <time>2024-06-09T10:17:18Z</time>
      </trkpt>
      <trkpt lat="49.39371" lon="5.80199">
        <ele>308.79998779297</ele>
        <time>2024-06-09T10:17:19Z</time>
      </trkpt>
      <trkpt lat="49.39374" lon="5.80203">
        <ele>307.60000610352</ele>
        <time>2024-06-09T10:17:20Z</time>
      </trkpt>
      <trkpt lat="49.39378" lon="5.80213">
        <ele>306.20001220703</ele>
        <time>2024-06-09T10:17:22Z</time>
      </trkpt>
      <trkpt lat="49.39378" lon="5.8022">
        <ele>305.39999389648</ele>
        <time>2024-06-09T10:17:23Z</time>
      </trkpt>
      <trkpt lat="49.39379" lon="5.80225">
        <ele>304.79998779297</ele>
        <time>2024-06-09T10:17:24Z</time>
      </trkpt>
      <trkpt lat="49.3938" lon="5.80236">
        <ele>303.79998779297</ele>
        <time>2024-06-09T10:17:26Z</time>
      </trkpt>
      <trkpt lat="49.39381" lon="5.80243">
        <ele>303.39999389648</ele>
        <time>2024-06-09T10:17:27Z</time>
      </trkpt>
      <trkpt lat="49.39383" lon="5.80247">
        <ele>302.20001220703</ele>
        <time>2024-06-09T10:17:28Z</time>
      </trkpt>
      <trkpt lat="49.39385" lon="5.80252">
        <ele>300</ele>
        <time>2024-06-09T10:17:29Z</time>
      </trkpt>
      <trkpt lat="49.39386" lon="5.80258">
        <ele>298.20001220703</ele>
        <time>2024-06-09T10:17:30Z</time>
      </trkpt>
      <trkpt lat="49.39387" lon="5.80264">
        <ele>296.60000610352</ele>
        <time>2024-06-09T10:17:31Z</time>
      </trkpt>
      <trkpt lat="49.39387" lon="5.80269">
        <ele>295.79998779297</ele>
        <time>2024-06-09T10:17:32Z</time>
      </trkpt>
      <trkpt lat="49.39387" lon="5.80273">
        <ele>295</ele>
        <time>2024-06-09T10:17:33Z</time>
      </trkpt>
      <trkpt lat="49.39387" lon="5.80276">
        <ele>294.20001220703</ele>
        <time>2024-06-09T10:17:34Z</time>
      </trkpt>
      <trkpt lat="49.39387" lon="5.80281">
        <ele>293.60000610352</ele>
        <time>2024-06-09T10:17:35Z</time>
      </trkpt>
      <trkpt lat="49.39387" lon="5.80286">
        <ele>293</ele>
        <time>2024-06-09T10:17:36Z</time>
      </trkpt>
      <trkpt lat="49.39388" lon="5.80293">
        <ele>292.39999389648</ele>
        <time>2024-06-09T10:17:37Z</time>
      </trkpt>
      <trkpt lat="49.39388" lon="5.80298">
        <ele>291.39999389648</ele>
        <time>2024-06-09T10:17:38Z</time>
      </trkpt>
      <trkpt lat="49.39388" lon="5.80302">
        <ele>291.39999389648</ele>
        <time>2024-06-09T10:17:39Z</time>
      </trkpt>
      <trkpt lat="49.3939" lon="5.80308">
        <ele>291.20001220703</ele>
        <time>2024-06-09T10:17:40Z</time>
      </trkpt>
      <trkpt lat="49.39391" lon="5.80316">
        <ele>291.20001220703</ele>
        <time>2024-06-09T10:17:42Z</time>
      </trkpt>
      <trkpt lat="49.39392" lon="5.80322">
        <ele>291.20001220703</ele>
        <time>2024-06-09T10:17:44Z</time>
      </trkpt>
      <trkpt lat="49.39393" lon="5.80325">
        <ele>291.20001220703</ele>
        <time>2024-06-09T10:17:45Z</time>
      </trkpt>
      <trkpt lat="49.39394" lon="5.80327">
        <ele>291.20001220703</ele>
        <time>2024-06-09T10:17:46Z</time>
      </trkpt>
      <trkpt lat="49.39394" lon="5.80331">
        <ele>291.20001220703</ele>
        <time>2024-06-09T10:17:48Z</time>
      </trkpt>
      <trkpt lat="49.39394" lon="5.80334">
        <ele>291.20001220703</ele>
        <time>2024-06-09T10:17:50Z</time>
      </trkpt>
      <trkpt lat="49.39395" lon="5.80336">
        <ele>291.39999389648</ele>
        <time>2024-06-09T10:17:52Z</time>
      </trkpt>
      <trkpt lat="49.39396" lon="5.8034">
        <ele>291.60000610352</ele>
        <time>2024-06-09T10:17:54Z</time>
      </trkpt>
      <trkpt lat="49.39398" lon="5.80345">
        <ele>291.79998779297</ele>
        <time>2024-06-09T10:17:56Z</time>
      </trkpt>
      <trkpt lat="49.39399" lon="5.80353">
        <ele>292</ele>
        <time>2024-06-09T10:17:58Z</time>
      </trkpt>
      <trkpt lat="49.39399" lon="5.80362">
        <ele>292</ele>
        <time>2024-06-09T10:18:00Z</time>
      </trkpt>
      <trkpt lat="49.394" lon="5.80373">
        <ele>292</ele>
        <time>2024-06-09T10:18:02Z</time>
      </trkpt>
      <trkpt lat="49.394" lon="5.80378">
        <ele>291.79998779297</ele>
        <time>2024-06-09T10:18:03Z</time>
      </trkpt>
      <trkpt lat="49.394" lon="5.80381">
        <ele>291.79998779297</ele>
        <time>2024-06-09T10:18:04Z</time>
      </trkpt>
      <trkpt lat="49.39399" lon="5.80388">
        <ele>291.79998779297</ele>
        <time>2024-06-09T10:18:06Z</time>
      </trkpt>
      <trkpt lat="49.39399" lon="5.80394">
        <ele>291.79998779297</ele>
        <time>2024-06-09T10:18:08Z</time>
      </trkpt>
      <trkpt lat="49.39399" lon="5.80396">
        <ele>291.79998779297</ele>
        <time>2024-06-09T10:18:09Z</time>
      </trkpt>
      <trkpt lat="49.39398" lon="5.80398">
        <ele>291.79998779297</ele>
        <time>2024-06-09T10:18:10Z</time>
      </trkpt>
      <trkpt lat="49.39398" lon="5.80404">
        <ele>291.79998779297</ele>
        <time>2024-06-09T10:18:12Z</time>
      </trkpt>
      <trkpt lat="49.39399" lon="5.8041">
        <ele>291.79998779297</ele>
        <time>2024-06-09T10:18:14Z</time>
      </trkpt>
      <trkpt lat="49.39402" lon="5.80415">
        <ele>291.79998779297</ele>
        <time>2024-06-09T10:18:16Z</time>
      </trkpt>
      <trkpt lat="49.39407" lon="5.80422">
        <ele>291.79998779297</ele>
        <time>2024-06-09T10:18:18Z</time>
      </trkpt>
      <trkpt lat="49.3941" lon="5.80426">
        <ele>291.79998779297</ele>
        <time>2024-06-09T10:18:19Z</time>
      </trkpt>
      <trkpt lat="49.39412" lon="5.80431">
        <ele>291.79998779297</ele>
        <time>2024-06-09T10:18:20Z</time>
      </trkpt>
      <trkpt lat="49.39414" lon="5.80436">
        <ele>291.79998779297</ele>
        <time>2024-06-09T10:18:21Z</time>
      </trkpt>
      <trkpt lat="49.39416" lon="5.80436">
        <ele>291.79998779297</ele>
        <time>2024-06-09T10:18:22Z</time>
      </trkpt>
      <trkpt lat="49.39418" lon="5.8043">
        <ele>291.79998779297</ele>
        <time>2024-06-09T10:18:24Z</time>
      </trkpt>
      <trkpt lat="49.39418" lon="5.80424">
        <ele>291.60000610352</ele>
        <time>2024-06-09T10:18:25Z</time>
      </trkpt>
      <trkpt lat="49.39419" lon="5.80418">
        <ele>291</ele>
        <time>2024-06-09T10:18:26Z</time>
      </trkpt>
      <trkpt lat="49.3942" lon="5.80411">
        <ele>290.39999389648</ele>
        <time>2024-06-09T10:18:27Z</time>
      </trkpt>
      <trkpt lat="49.39421" lon="5.80403">
        <ele>289.60000610352</ele>
        <time>2024-06-09T10:18:28Z</time>
      </trkpt>
      <trkpt lat="49.39422" lon="5.80394">
        <ele>289</ele>
        <time>2024-06-09T10:18:29Z</time>
      </trkpt>
      <trkpt lat="49.39422" lon="5.80385">
        <ele>288.60000610352</ele>
        <time>2024-06-09T10:18:30Z</time>
      </trkpt>
      <trkpt lat="49.39424" lon="5.80364">
        <ele>287.39999389648</ele>
        <time>2024-06-09T10:18:32Z</time>
      </trkpt>
      <trkpt lat="49.39426" lon="5.8034">
        <ele>285.60000610352</ele>
        <time>2024-06-09T10:18:34Z</time>
      </trkpt>
      <trkpt lat="49.39426" lon="5.80328">
        <ele>284</ele>
        <time>2024-06-09T10:18:35Z</time>
      </trkpt>
      <trkpt lat="49.39427" lon="5.80315">
        <ele>283.39999389648</ele>
        <time>2024-06-09T10:18:36Z</time>
      </trkpt>
      <trkpt lat="49.39428" lon="5.80302">
        <ele>282.39999389648</ele>
        <time>2024-06-09T10:18:37Z</time>
      </trkpt>
      <trkpt lat="49.39429" lon="5.80289">
        <ele>281.39999389648</ele>
        <time>2024-06-09T10:18:38Z</time>
      </trkpt>
      <trkpt lat="49.39431" lon="5.80275">
        <ele>279.60000610352</ele>
        <time>2024-06-09T10:18:39Z</time>
      </trkpt>
      <trkpt lat="49.39432" lon="5.80262">
        <ele>278.39999389648</ele>
        <time>2024-06-09T10:18:40Z</time>
      </trkpt>
      <trkpt lat="49.39433" lon="5.80248">
        <ele>277.20001220703</ele>
        <time>2024-06-09T10:18:41Z</time>
      </trkpt>
      <trkpt lat="49.39433" lon="5.80235">
        <ele>276.60000610352</ele>
        <time>2024-06-09T10:18:42Z</time>
      </trkpt>
      <trkpt lat="49.39434" lon="5.80222">
        <ele>275.79998779297</ele>
        <time>2024-06-09T10:18:43Z</time>
      </trkpt>
      <trkpt lat="49.39435" lon="5.8021">
        <ele>275.20001220703</ele>
        <time>2024-06-09T10:18:44Z</time>
      </trkpt>
      <trkpt lat="49.39436" lon="5.80198">
        <ele>274.60000610352</ele>
        <time>2024-06-09T10:18:45Z</time>
      </trkpt>
      <trkpt lat="49.39437" lon="5.80189">
        <ele>274.20001220703</ele>
        <time>2024-06-09T10:18:46Z</time>
      </trkpt>
      <trkpt lat="49.39438" lon="5.80178">
        <ele>273.39999389648</ele>
        <time>2024-06-09T10:18:48Z</time>
      </trkpt>
      <trkpt lat="49.39438" lon="5.80176">
        <ele>273.20001220703</ele>
        <time>2024-06-09T10:18:49Z</time>
      </trkpt>
      <trkpt lat="49.39439" lon="5.80176">
        <ele>273.20001220703</ele>
        <time>2024-06-09T10:18:50Z</time>
      </trkpt>
      <trkpt lat="49.39439" lon="5.80176">
        <ele>273.20001220703</ele>
        <time>2024-06-09T10:18:52Z</time>
      </trkpt>
      <trkpt lat="49.3944" lon="5.80175">
        <ele>273.20001220703</ele>
        <time>2024-06-09T10:18:54Z</time>
      </trkpt>
      <trkpt lat="49.3944" lon="5.80173">
        <ele>273.20001220703</ele>
        <time>2024-06-09T10:18:56Z</time>
      </trkpt>
      <trkpt lat="49.3944" lon="5.80171">
        <ele>273.79998779297</ele>
        <time>2024-06-09T10:18:58Z</time>
      </trkpt>
      <trkpt lat="49.39441" lon="5.80168">
        <ele>274.20001220703</ele>
        <time>2024-06-09T10:19:00Z</time>
      </trkpt>
      <trkpt lat="49.39442" lon="5.80166">
        <ele>274.20001220703</ele>
        <time>2024-06-09T10:19:02Z</time>
      </trkpt>
      <trkpt lat="49.39442" lon="5.80165">
        <ele>274.39999389648</ele>
        <time>2024-06-09T10:19:04Z</time>
      </trkpt>
      <trkpt lat="49.39443" lon="5.80164">
        <ele>274.39999389648</ele>
        <time>2024-06-09T10:19:06Z</time>
      </trkpt>
      <trkpt lat="49.39443" lon="5.80162">
        <ele>274.39999389648</ele>
        <time>2024-06-09T10:19:08Z</time>
      </trkpt>
      <trkpt lat="49.39443" lon="5.80161">
        <ele>274.39999389648</ele>
        <time>2024-06-09T10:19:09Z</time>
      </trkpt>
      <trkpt lat="49.39444" lon="5.8016">
        <ele>274.39999389648</ele>
        <time>2024-06-09T10:19:10Z</time>
      </trkpt>
      <trkpt lat="49.39444" lon="5.80158">
        <ele>274.39999389648</ele>
        <time>2024-06-09T10:19:12Z</time>
      </trkpt>
      <trkpt lat="49.39445" lon="5.80155">
        <ele>274.60000610352</ele>
        <time>2024-06-09T10:19:14Z</time>
      </trkpt>
      <trkpt lat="49.39444" lon="5.80154">
        <ele>274.60000610352</ele>
        <time>2024-06-09T10:19:15Z</time>
      </trkpt>
      <trkpt lat="49.39445" lon="5.80152">
        <ele>274.60000610352</ele>
        <time>2024-06-09T10:19:16Z</time>
      </trkpt>
      <trkpt lat="49.39445" lon="5.8015">
        <ele>274.60000610352</ele>
        <time>2024-06-09T10:19:18Z</time>
      </trkpt>
      <trkpt lat="49.39446" lon="5.80147">
        <ele>274.60000610352</ele>
        <time>2024-06-09T10:19:20Z</time>
      </trkpt>
      <trkpt lat="49.39446" lon="5.80145">
        <ele>274.60000610352</ele>
        <time>2024-06-09T10:19:22Z</time>
      </trkpt>
      <trkpt lat="49.39445" lon="5.8014">
        <ele>274.60000610352</ele>
        <time>2024-06-09T10:19:24Z</time>
      </trkpt>
      <trkpt lat="49.39447" lon="5.80134">
        <ele>274.60000610352</ele>
        <time>2024-06-09T10:19:26Z</time>
      </trkpt>
      <trkpt lat="49.39448" lon="5.8013">
        <ele>274.60000610352</ele>
        <time>2024-06-09T10:19:27Z</time>
      </trkpt>
      <trkpt lat="49.39448" lon="5.80126">
        <ele>274.60000610352</ele>
        <time>2024-06-09T10:19:28Z</time>
      </trkpt>
      <trkpt lat="49.39451" lon="5.80119">
        <ele>274.39999389648</ele>
        <time>2024-06-09T10:19:30Z</time>
      </trkpt>
      <trkpt lat="49.39452" lon="5.80115">
        <ele>274.39999389648</ele>
        <time>2024-06-09T10:19:31Z</time>
      </trkpt>
      <trkpt lat="49.39454" lon="5.8011">
        <ele>274.39999389648</ele>
        <time>2024-06-09T10:19:32Z</time>
      </trkpt>
      <trkpt lat="49.39457" lon="5.80099">
        <ele>274.39999389648</ele>
        <time>2024-06-09T10:19:34Z</time>
      </trkpt>
      <trkpt lat="49.3946" lon="5.80091">
        <ele>274.20001220703</ele>
        <time>2024-06-09T10:19:36Z</time>
      </trkpt>
      <trkpt lat="49.39463" lon="5.80084">
        <ele>274.20001220703</ele>
        <time>2024-06-09T10:19:38Z</time>
      </trkpt>
      <trkpt lat="49.39466" lon="5.80076">
        <ele>274</ele>
        <time>2024-06-09T10:19:40Z</time>
      </trkpt>
      <trkpt lat="49.39469" lon="5.80072">
        <ele>273.79998779297</ele>
        <time>2024-06-09T10:19:41Z</time>
      </trkpt>
      <trkpt lat="49.39471" lon="5.80068">
        <ele>273.60000610352</ele>
        <time>2024-06-09T10:19:42Z</time>
      </trkpt>
      <trkpt lat="49.39475" lon="5.80059">
        <ele>273.60000610352</ele>
        <time>2024-06-09T10:19:44Z</time>
      </trkpt>
      <trkpt lat="49.39479" lon="5.8005">
        <ele>273.39999389648</ele>
        <time>2024-06-09T10:19:46Z</time>
      </trkpt>
      <trkpt lat="49.39484" lon="5.8004">
        <ele>273.39999389648</ele>
        <time>2024-06-09T10:19:48Z</time>
      </trkpt>
      <trkpt lat="49.39489" lon="5.8003">
        <ele>273.39999389648</ele>
        <time>2024-06-09T10:19:50Z</time>
      </trkpt>
      <trkpt lat="49.39495" lon="5.80022">
        <ele>273.20001220703</ele>
        <time>2024-06-09T10:19:52Z</time>
      </trkpt>
      <trkpt lat="49.39502" lon="5.80013">
        <ele>273.20001220703</ele>
        <time>2024-06-09T10:19:54Z</time>
      </trkpt>
      <trkpt lat="49.39512" lon="5.80004">
        <ele>273.20001220703</ele>
        <time>2024-06-09T10:19:56Z</time>
      </trkpt>
      <trkpt lat="49.39521" lon="5.79995">
        <ele>273.20001220703</ele>
        <time>2024-06-09T10:19:58Z</time>
      </trkpt>
      <trkpt lat="49.39532" lon="5.79986">
        <ele>273.20001220703</ele>
        <time>2024-06-09T10:20:00Z</time>
      </trkpt>
      <trkpt lat="49.39536" lon="5.79981">
        <ele>273.20001220703</ele>
        <time>2024-06-09T10:20:01Z</time>
      </trkpt>
      <trkpt lat="49.39541" lon="5.79978">
        <ele>273.20001220703</ele>
        <time>2024-06-09T10:20:02Z</time>
      </trkpt>
      <trkpt lat="49.39545" lon="5.79974">
        <ele>273</ele>
        <time>2024-06-09T10:20:03Z</time>
      </trkpt>
      <trkpt lat="49.39549" lon="5.79969">
        <ele>272.60000610352</ele>
        <time>2024-06-09T10:20:04Z</time>
      </trkpt>
      <trkpt lat="49.39557" lon="5.7996">
        <ele>272.39999389648</ele>
        <time>2024-06-09T10:20:06Z</time>
      </trkpt>
      <trkpt lat="49.39561" lon="5.79956">
        <ele>272</ele>
        <time>2024-06-09T10:20:07Z</time>
      </trkpt>
      <trkpt lat="49.39564" lon="5.79953">
        <ele>271.79998779297</ele>
        <time>2024-06-09T10:20:08Z</time>
      </trkpt>
      <trkpt lat="49.39569" lon="5.79948">
        <ele>271.79998779297</ele>
        <time>2024-06-09T10:20:10Z</time>
      </trkpt>
      <trkpt lat="49.39572" lon="5.79943">
        <ele>271.79998779297</ele>
        <time>2024-06-09T10:20:12Z</time>
      </trkpt>
      <trkpt lat="49.39574" lon="5.79941">
        <ele>271.79998779297</ele>
        <time>2024-06-09T10:20:13Z</time>
      </trkpt>
      <trkpt lat="49.39575" lon="5.7994">
        <ele>271.79998779297</ele>
        <time>2024-06-09T10:20:14Z</time>
      </trkpt>
      <trkpt lat="49.39577" lon="5.79936">
        <ele>271.79998779297</ele>
        <time>2024-06-09T10:20:16Z</time>
      </trkpt>
      <trkpt lat="49.3958" lon="5.79932">
        <ele>272.20001220703</ele>
        <time>2024-06-09T10:20:18Z</time>
      </trkpt>
      <trkpt lat="49.39584" lon="5.79928">
        <ele>273</ele>
        <time>2024-06-09T10:20:20Z</time>
      </trkpt>
      <trkpt lat="49.39585" lon="5.79927">
        <ele>273.39999389648</ele>
        <time>2024-06-09T10:20:21Z</time>
      </trkpt>
      <trkpt lat="49.39587" lon="5.79925">
        <ele>273.79998779297</ele>
        <time>2024-06-09T10:20:22Z</time>
      </trkpt>
      <trkpt lat="49.39591" lon="5.7992">
        <ele>274.20001220703</ele>
        <time>2024-06-09T10:20:24Z</time>
      </trkpt>
      <trkpt lat="49.39594" lon="5.79918">
        <ele>274.60000610352</ele>
        <time>2024-06-09T10:20:25Z</time>
      </trkpt>
      <trkpt lat="49.39596" lon="5.79916">
        <ele>274.79998779297</ele>
        <time>2024-06-09T10:20:26Z</time>
      </trkpt>
      <trkpt lat="49.396" lon="5.79912">
        <ele>275.39999389648</ele>
        <time>2024-06-09T10:20:28Z</time>
      </trkpt>
      <trkpt lat="49.39602" lon="5.7991">
        <ele>275.79998779297</ele>
        <time>2024-06-09T10:20:29Z</time>
      </trkpt>
      <trkpt lat="49.39603" lon="5.79908">
        <ele>276.20001220703</ele>
        <time>2024-06-09T10:20:30Z</time>
      </trkpt>
      <trkpt lat="49.39607" lon="5.79905">
        <ele>276.60000610352</ele>
        <time>2024-06-09T10:20:32Z</time>
      </trkpt>
      <trkpt lat="49.39611" lon="5.79901">
        <ele>277</ele>
        <time>2024-06-09T10:20:34Z</time>
      </trkpt>
      <trkpt lat="49.39613" lon="5.79898">
        <ele>277.39999389648</ele>
        <time>2024-06-09T10:20:35Z</time>
      </trkpt>
      <trkpt lat="49.39614" lon="5.79897">
        <ele>277.60000610352</ele>
        <time>2024-06-09T10:20:36Z</time>
      </trkpt>
      <trkpt lat="49.39619" lon="5.79894">
        <ele>278.20001220703</ele>
        <time>2024-06-09T10:20:38Z</time>
      </trkpt>
      <trkpt lat="49.39622" lon="5.79891">
        <ele>278.79998779297</ele>
        <time>2024-06-09T10:20:40Z</time>
      </trkpt>
      <trkpt lat="49.39626" lon="5.79887">
        <ele>279.20001220703</ele>
        <time>2024-06-09T10:20:42Z</time>
      </trkpt>
      <trkpt lat="49.39627" lon="5.79886">
        <ele>279.39999389648</ele>
        <time>2024-06-09T10:20:43Z</time>
      </trkpt>
      <trkpt lat="49.39628" lon="5.79884">
        <ele>279.60000610352</ele>
        <time>2024-06-09T10:20:44Z</time>
      </trkpt>
      <trkpt lat="49.39631" lon="5.79882">
        <ele>280</ele>
        <time>2024-06-09T10:20:46Z</time>
      </trkpt>
      <trkpt lat="49.39633" lon="5.7988">
        <ele>280.39999389648</ele>
        <time>2024-06-09T10:20:48Z</time>
      </trkpt>
      <trkpt lat="49.39635" lon="5.79879">
        <ele>280.60000610352</ele>
        <time>2024-06-09T10:20:49Z</time>
      </trkpt>
      <trkpt lat="49.39636" lon="5.79877">
        <ele>280.60000610352</ele>
        <time>2024-06-09T10:20:50Z</time>
      </trkpt>
      <trkpt lat="49.39639" lon="5.79874">
        <ele>281</ele>
        <time>2024-06-09T10:20:52Z</time>
      </trkpt>
      <trkpt lat="49.39641" lon="5.79871">
        <ele>281.20001220703</ele>
        <time>2024-06-09T10:20:54Z</time>
      </trkpt>
      <trkpt lat="49.39642" lon="5.79869">
        <ele>281.39999389648</ele>
        <time>2024-06-09T10:20:55Z</time>
      </trkpt>
      <trkpt lat="49.39642" lon="5.79867">
        <ele>281.60000610352</ele>
        <time>2024-06-09T10:20:56Z</time>
      </trkpt>
      <trkpt lat="49.39645" lon="5.79862">
        <ele>282.20001220703</ele>
        <time>2024-06-09T10:20:58Z</time>
      </trkpt>
      <trkpt lat="49.39646" lon="5.79858">
        <ele>282.60000610352</ele>
        <time>2024-06-09T10:21:00Z</time>
      </trkpt>
      <trkpt lat="49.39647" lon="5.79856">
        <ele>282.79998779297</ele>
        <time>2024-06-09T10:21:01Z</time>
      </trkpt>
      <trkpt lat="49.39647" lon="5.79854">
        <ele>283</ele>
        <time>2024-06-09T10:21:02Z</time>
      </trkpt>
      <trkpt lat="49.39649" lon="5.79848">
        <ele>283.39999389648</ele>
        <time>2024-06-09T10:21:04Z</time>
      </trkpt>
      <trkpt lat="49.39649" lon="5.79842">
        <ele>283.60000610352</ele>
        <time>2024-06-09T10:21:06Z</time>
      </trkpt>
      <trkpt lat="49.39649" lon="5.79838">
        <ele>283.60000610352</ele>
        <time>2024-06-09T10:21:07Z</time>
      </trkpt>
      <trkpt lat="49.3965" lon="5.79835">
        <ele>283.79998779297</ele>
        <time>2024-06-09T10:21:08Z</time>
      </trkpt>
      <trkpt lat="49.3965" lon="5.79826">
        <ele>283.79998779297</ele>
        <time>2024-06-09T10:21:10Z</time>
      </trkpt>
      <trkpt lat="49.3965" lon="5.79822">
        <ele>283.79998779297</ele>
        <time>2024-06-09T10:21:11Z</time>
      </trkpt>
      <trkpt lat="49.39651" lon="5.79816">
        <ele>283.79998779297</ele>
        <time>2024-06-09T10:21:12Z</time>
      </trkpt>
      <trkpt lat="49.39651" lon="5.79804">
        <ele>283.79998779297</ele>
        <time>2024-06-09T10:21:14Z</time>
      </trkpt>
      <trkpt lat="49.39651" lon="5.79797">
        <ele>283.79998779297</ele>
        <time>2024-06-09T10:21:15Z</time>
      </trkpt>
      <trkpt lat="49.39651" lon="5.7979">
        <ele>283.79998779297</ele>
        <time>2024-06-09T10:21:16Z</time>
      </trkpt>
      <trkpt lat="49.39651" lon="5.79782">
        <ele>283.79998779297</ele>
        <time>2024-06-09T10:21:17Z</time>
      </trkpt>
      <trkpt lat="49.3965" lon="5.79773">
        <ele>283.60000610352</ele>
        <time>2024-06-09T10:21:18Z</time>
      </trkpt>
      <trkpt lat="49.39649" lon="5.79763">
        <ele>283.39999389648</ele>
        <time>2024-06-09T10:21:19Z</time>
      </trkpt>
      <trkpt lat="49.39648" lon="5.79752">
        <ele>283.20001220703</ele>
        <time>2024-06-09T10:21:20Z</time>
      </trkpt>
      <trkpt lat="49.39644" lon="5.79731">
        <ele>282.39999389648</ele>
        <time>2024-06-09T10:21:22Z</time>
      </trkpt>
      <trkpt lat="49.39641" lon="5.7972">
        <ele>282</ele>
        <time>2024-06-09T10:21:23Z</time>
      </trkpt>
      <trkpt lat="49.39638" lon="5.79709">
        <ele>281.39999389648</ele>
        <time>2024-06-09T10:21:24Z</time>
      </trkpt>
      <trkpt lat="49.39631" lon="5.79686">
        <ele>278.20001220703</ele>
        <time>2024-06-09T10:21:26Z</time>
      </trkpt>
      <trkpt lat="49.39626" lon="5.79675">
        <ele>277.39999389648</ele>
        <time>2024-06-09T10:21:27Z</time>
      </trkpt>
      <trkpt lat="49.39622" lon="5.79663">
        <ele>276</ele>
        <time>2024-06-09T10:21:28Z</time>
      </trkpt>
      <trkpt lat="49.39617" lon="5.79652">
        <ele>274.79998779297</ele>
        <time>2024-06-09T10:21:29Z</time>
      </trkpt>
      <trkpt lat="49.39612" lon="5.79641">
        <ele>273.39999389648</ele>
        <time>2024-06-09T10:21:30Z</time>
      </trkpt>
      <trkpt lat="49.39607" lon="5.79633">
        <ele>272.20001220703</ele>
        <time>2024-06-09T10:21:31Z</time>
      </trkpt>
      <trkpt lat="49.39603" lon="5.79625">
        <ele>271</ele>
        <time>2024-06-09T10:21:32Z</time>
      </trkpt>
      <trkpt lat="49.39594" lon="5.79612">
        <ele>270.20001220703</ele>
        <time>2024-06-09T10:21:34Z</time>
      </trkpt>
      <trkpt lat="49.39591" lon="5.79604">
        <ele>270</ele>
        <time>2024-06-09T10:21:35Z</time>
      </trkpt>
      <trkpt lat="49.39589" lon="5.79597">
        <ele>270</ele>
        <time>2024-06-09T10:21:36Z</time>
      </trkpt>
      <trkpt lat="49.39584" lon="5.79582">
        <ele>269.79998779297</ele>
        <time>2024-06-09T10:21:38Z</time>
      </trkpt>
      <trkpt lat="49.39579" lon="5.79569">
        <ele>269.79998779297</ele>
        <time>2024-06-09T10:21:40Z</time>
      </trkpt>
      <trkpt lat="49.39575" lon="5.79556">
        <ele>270</ele>
        <time>2024-06-09T10:21:42Z</time>
      </trkpt>
      <trkpt lat="49.39574" lon="5.79549">
        <ele>270.20001220703</ele>
        <time>2024-06-09T10:21:43Z</time>
      </trkpt>
      <trkpt lat="49.39572" lon="5.79543">
        <ele>270.39999389648</ele>
        <time>2024-06-09T10:21:44Z</time>
      </trkpt>
      <trkpt lat="49.39568" lon="5.79529">
        <ele>270.60000610352</ele>
        <time>2024-06-09T10:21:46Z</time>
      </trkpt>
      <trkpt lat="49.39566" lon="5.79522">
        <ele>270.79998779297</ele>
        <time>2024-06-09T10:21:47Z</time>
      </trkpt>
      <trkpt lat="49.39564" lon="5.79515">
        <ele>271</ele>
        <time>2024-06-09T10:21:48Z</time>
      </trkpt>
      <trkpt lat="49.39563" lon="5.79508">
        <ele>271.20001220703</ele>
        <time>2024-06-09T10:21:49Z</time>
      </trkpt>
      <trkpt lat="49.39561" lon="5.79502">
        <ele>271.39999389648</ele>
        <time>2024-06-09T10:21:50Z</time>
      </trkpt>
      <trkpt lat="49.39559" lon="5.79488">
        <ele>271.79998779297</ele>
        <time>2024-06-09T10:21:52Z</time>
      </trkpt>
      <trkpt lat="49.39556" lon="5.79471">
        <ele>272</ele>
        <time>2024-06-09T10:21:54Z</time>
      </trkpt>
      <trkpt lat="49.39553" lon="5.79459">
        <ele>272</ele>
        <time>2024-06-09T10:21:56Z</time>
      </trkpt>
      <trkpt lat="49.3955" lon="5.79447">
        <ele>272.20001220703</ele>
        <time>2024-06-09T10:21:58Z</time>
      </trkpt>
      <trkpt lat="49.39548" lon="5.79441">
        <ele>272.20001220703</ele>
        <time>2024-06-09T10:21:59Z</time>
      </trkpt>
      <trkpt lat="49.39547" lon="5.79434">
        <ele>272.20001220703</ele>
        <time>2024-06-09T10:22:00Z</time>
      </trkpt>
      <trkpt lat="49.39546" lon="5.79427">
        <ele>272.20001220703</ele>
        <time>2024-06-09T10:22:01Z</time>
      </trkpt>
      <trkpt lat="49.39545" lon="5.79419">
        <ele>272.20001220703</ele>
        <time>2024-06-09T10:22:02Z</time>
      </trkpt>
      <trkpt lat="49.39545" lon="5.79405">
        <ele>272.79998779297</ele>
        <time>2024-06-09T10:22:04Z</time>
      </trkpt>
      <trkpt lat="49.39545" lon="5.79391">
        <ele>273</ele>
        <time>2024-06-09T10:22:06Z</time>
      </trkpt>
      <trkpt lat="49.39546" lon="5.79383">
        <ele>273</ele>
        <time>2024-06-09T10:22:07Z</time>
      </trkpt>
      <trkpt lat="49.39548" lon="5.79375">
        <ele>273</ele>
        <time>2024-06-09T10:22:08Z</time>
      </trkpt>
      <trkpt lat="49.39549" lon="5.79367">
        <ele>273</ele>
        <time>2024-06-09T10:22:09Z</time>
      </trkpt>
      <trkpt lat="49.39551" lon="5.7936">
        <ele>273</ele>
        <time>2024-06-09T10:22:10Z</time>
      </trkpt>
      <trkpt lat="49.39553" lon="5.79346">
        <ele>273</ele>
        <time>2024-06-09T10:22:12Z</time>
      </trkpt>
      <trkpt lat="49.39554" lon="5.7933">
        <ele>273</ele>
        <time>2024-06-09T10:22:14Z</time>
      </trkpt>
      <trkpt lat="49.39556" lon="5.79314">
        <ele>272.20001220703</ele>
        <time>2024-06-09T10:22:16Z</time>
      </trkpt>
      <trkpt lat="49.3956" lon="5.79295">
        <ele>271.60000610352</ele>
        <time>2024-06-09T10:22:18Z</time>
      </trkpt>
      <trkpt lat="49.39562" lon="5.79287">
        <ele>271.20001220703</ele>
        <time>2024-06-09T10:22:19Z</time>
      </trkpt>
      <trkpt lat="49.39566" lon="5.7928">
        <ele>271</ele>
        <time>2024-06-09T10:22:20Z</time>
      </trkpt>
      <trkpt lat="49.39571" lon="5.79262">
        <ele>270.79998779297</ele>
        <time>2024-06-09T10:22:22Z</time>
      </trkpt>
      <trkpt lat="49.39577" lon="5.79245">
        <ele>270.60000610352</ele>
        <time>2024-06-09T10:22:24Z</time>
      </trkpt>
      <trkpt lat="49.3958" lon="5.79237">
        <ele>270.39999389648</ele>
        <time>2024-06-09T10:22:25Z</time>
      </trkpt>
      <trkpt lat="49.39583" lon="5.7923">
        <ele>270.20001220703</ele>
        <time>2024-06-09T10:22:26Z</time>
      </trkpt>
      <trkpt lat="49.39588" lon="5.79214">
        <ele>269.79998779297</ele>
        <time>2024-06-09T10:22:28Z</time>
      </trkpt>
      <trkpt lat="49.39593" lon="5.79197">
        <ele>269.60000610352</ele>
        <time>2024-06-09T10:22:30Z</time>
      </trkpt>
      <trkpt lat="49.39599" lon="5.79182">
        <ele>269.39999389648</ele>
        <time>2024-06-09T10:22:32Z</time>
      </trkpt>
      <trkpt lat="49.39604" lon="5.79167">
        <ele>269.20001220703</ele>
        <time>2024-06-09T10:22:34Z</time>
      </trkpt>
      <trkpt lat="49.39607" lon="5.7916">
        <ele>269.20001220703</ele>
        <time>2024-06-09T10:22:35Z</time>
      </trkpt>
      <trkpt lat="49.39609" lon="5.79153">
        <ele>269</ele>
        <time>2024-06-09T10:22:36Z</time>
      </trkpt>
      <trkpt lat="49.39613" lon="5.79139">
        <ele>269</ele>
        <time>2024-06-09T10:22:38Z</time>
      </trkpt>
      <trkpt lat="49.39616" lon="5.79125">
        <ele>269</ele>
        <time>2024-06-09T10:22:40Z</time>
      </trkpt>
      <trkpt lat="49.39619" lon="5.7911">
        <ele>269</ele>
        <time>2024-06-09T10:22:42Z</time>
      </trkpt>
      <trkpt lat="49.39623" lon="5.79098">
        <ele>269</ele>
        <time>2024-06-09T10:22:44Z</time>
      </trkpt>
      <trkpt lat="49.39626" lon="5.79087">
        <ele>269</ele>
        <time>2024-06-09T10:22:46Z</time>
      </trkpt>
      <trkpt lat="49.39628" lon="5.79079">
        <ele>269</ele>
        <time>2024-06-09T10:22:48Z</time>
      </trkpt>
      <trkpt lat="49.39629" lon="5.79071">
        <ele>269.20001220703</ele>
        <time>2024-06-09T10:22:50Z</time>
      </trkpt>
      <trkpt lat="49.3963" lon="5.79068">
        <ele>269.60000610352</ele>
        <time>2024-06-09T10:22:51Z</time>
      </trkpt>
      <trkpt lat="49.39631" lon="5.79065">
        <ele>270.39999389648</ele>
        <time>2024-06-09T10:22:52Z</time>
      </trkpt>
      <trkpt lat="49.39631" lon="5.79061">
        <ele>271</ele>
        <time>2024-06-09T10:22:53Z</time>
      </trkpt>
      <trkpt lat="49.39633" lon="5.79058">
        <ele>271.39999389648</ele>
        <time>2024-06-09T10:22:54Z</time>
      </trkpt>
      <trkpt lat="49.39636" lon="5.79051">
        <ele>272.20001220703</ele>
        <time>2024-06-09T10:22:56Z</time>
      </trkpt>
      <trkpt lat="49.39638" lon="5.79044">
        <ele>273.20001220703</ele>
        <time>2024-06-09T10:22:58Z</time>
      </trkpt>
      <trkpt lat="49.39639" lon="5.79041">
        <ele>273.60000610352</ele>
        <time>2024-06-09T10:22:59Z</time>
      </trkpt>
      <trkpt lat="49.3964" lon="5.79039">
        <ele>274.20001220703</ele>
        <time>2024-06-09T10:23:00Z</time>
      </trkpt>
      <trkpt lat="49.39642" lon="5.79034">
        <ele>275</ele>
        <time>2024-06-09T10:23:02Z</time>
      </trkpt>
      <trkpt lat="49.39643" lon="5.79029">
        <ele>275.39999389648</ele>
        <time>2024-06-09T10:23:04Z</time>
      </trkpt>
      <trkpt lat="49.39644" lon="5.79025">
        <ele>276</ele>
        <time>2024-06-09T10:23:06Z</time>
      </trkpt>
      <trkpt lat="49.39645" lon="5.7902">
        <ele>276.39999389648</ele>
        <time>2024-06-09T10:23:08Z</time>
      </trkpt>
      <trkpt lat="49.39645" lon="5.79017">
        <ele>277</ele>
        <time>2024-06-09T10:23:10Z</time>
      </trkpt>
      <trkpt lat="49.39646" lon="5.79015">
        <ele>277.39999389648</ele>
        <time>2024-06-09T10:23:11Z</time>
      </trkpt>
      <trkpt lat="49.39646" lon="5.79014">
        <ele>277.60000610352</ele>
        <time>2024-06-09T10:23:12Z</time>
      </trkpt>
      <trkpt lat="49.39647" lon="5.79011">
        <ele>278.20001220703</ele>
        <time>2024-06-09T10:23:14Z</time>
      </trkpt>
      <trkpt lat="49.39648" lon="5.79007">
        <ele>278.79998779297</ele>
        <time>2024-06-09T10:23:16Z</time>
      </trkpt>
      <trkpt lat="49.39648" lon="5.79004">
        <ele>279.20001220703</ele>
        <time>2024-06-09T10:23:18Z</time>
      </trkpt>
      <trkpt lat="49.39648" lon="5.79">
        <ele>280</ele>
        <time>2024-06-09T10:23:20Z</time>
      </trkpt>
      <trkpt lat="49.39648" lon="5.78998">
        <ele>280.20001220703</ele>
        <time>2024-06-09T10:23:21Z</time>
      </trkpt>
      <trkpt lat="49.39648" lon="5.78996">
        <ele>280.39999389648</ele>
        <time>2024-06-09T10:23:22Z</time>
      </trkpt>
      <trkpt lat="49.39649" lon="5.78994">
        <ele>280.60000610352</ele>
        <time>2024-06-09T10:23:23Z</time>
      </trkpt>
      <trkpt lat="49.39649" lon="5.78991">
        <ele>280.79998779297</ele>
        <time>2024-06-09T10:23:24Z</time>
      </trkpt>
      <trkpt lat="49.39649" lon="5.78987">
        <ele>281</ele>
        <time>2024-06-09T10:23:26Z</time>
      </trkpt>
      <trkpt lat="49.39648" lon="5.78983">
        <ele>281.20001220703</ele>
        <time>2024-06-09T10:23:28Z</time>
      </trkpt>
      <trkpt lat="49.39648" lon="5.78981">
        <ele>281.39999389648</ele>
        <time>2024-06-09T10:23:29Z</time>
      </trkpt>
      <trkpt lat="49.39647" lon="5.7898">
        <ele>281.60000610352</ele>
        <time>2024-06-09T10:23:30Z</time>
      </trkpt>
      <trkpt lat="49.39646" lon="5.78979">
        <ele>281.79998779297</ele>
        <time>2024-06-09T10:23:32Z</time>
      </trkpt>
      <trkpt lat="49.39645" lon="5.78978">
        <ele>282</ele>
        <time>2024-06-09T10:23:34Z</time>
      </trkpt>
      <trkpt lat="49.39644" lon="5.78978">
        <ele>282.39999389648</ele>
        <time>2024-06-09T10:23:36Z</time>
      </trkpt>
      <trkpt lat="49.39642" lon="5.78978">
        <ele>283</ele>
        <time>2024-06-09T10:23:38Z</time>
      </trkpt>
      <trkpt lat="49.39641" lon="5.78979">
        <ele>283.39999389648</ele>
        <time>2024-06-09T10:23:40Z</time>
      </trkpt>
      <trkpt lat="49.39641" lon="5.7898">
        <ele>283.60000610352</ele>
        <time>2024-06-09T10:23:41Z</time>
      </trkpt>
      <trkpt lat="49.3964" lon="5.7898">
        <ele>283.79998779297</ele>
        <time>2024-06-09T10:23:42Z</time>
      </trkpt>
      <trkpt lat="49.3964" lon="5.78982">
        <ele>284</ele>
        <time>2024-06-09T10:23:43Z</time>
      </trkpt>
      <trkpt lat="49.39639" lon="5.78982">
        <ele>284.39999389648</ele>
        <time>2024-06-09T10:23:44Z</time>
      </trkpt>
      <trkpt lat="49.39639" lon="5.78984">
        <ele>284.79998779297</ele>
        <time>2024-06-09T10:23:46Z</time>
      </trkpt>
      <trkpt lat="49.39638" lon="5.78986">
        <ele>285</ele>
        <time>2024-06-09T10:23:48Z</time>
      </trkpt>
      <trkpt lat="49.39637" lon="5.78988">
        <ele>285.39999389648</ele>
        <time>2024-06-09T10:23:50Z</time>
      </trkpt>
      <trkpt lat="49.39635" lon="5.7899">
        <ele>285.79998779297</ele>
        <time>2024-06-09T10:23:52Z</time>
      </trkpt>
      <trkpt lat="49.39634" lon="5.78992">
        <ele>286.20001220703</ele>
        <time>2024-06-09T10:23:54Z</time>
      </trkpt>
      <trkpt lat="49.39633" lon="5.78994">
        <ele>286.39999389648</ele>
        <time>2024-06-09T10:23:56Z</time>
      </trkpt>
      <trkpt lat="49.39631" lon="5.78996">
        <ele>286.79998779297</ele>
        <time>2024-06-09T10:23:58Z</time>
      </trkpt>
      <trkpt lat="49.3963" lon="5.78999">
        <ele>287</ele>
        <time>2024-06-09T10:24:00Z</time>
      </trkpt>
      <trkpt lat="49.39629" lon="5.79001">
        <ele>287.60000610352</ele>
        <time>2024-06-09T10:24:02Z</time>
      </trkpt>
      <trkpt lat="49.39627" lon="5.79003">
        <ele>288</ele>
        <time>2024-06-09T10:24:04Z</time>
      </trkpt>
      <trkpt lat="49.39626" lon="5.79005">
        <ele>288.20001220703</ele>
        <time>2024-06-09T10:24:05Z</time>
      </trkpt>
      <trkpt lat="49.39625" lon="5.79006">
        <ele>288.20001220703</ele>
        <time>2024-06-09T10:24:06Z</time>
      </trkpt>
      <trkpt lat="49.39624" lon="5.79008">
        <ele>288.60000610352</ele>
        <time>2024-06-09T10:24:08Z</time>
      </trkpt>
      <trkpt lat="49.39623" lon="5.79009">
        <ele>288.79998779297</ele>
        <time>2024-06-09T10:24:09Z</time>
      </trkpt>
      <trkpt lat="49.39622" lon="5.7901">
        <ele>289</ele>
        <time>2024-06-09T10:24:10Z</time>
      </trkpt>
      <trkpt lat="49.39621" lon="5.79013">
        <ele>289.39999389648</ele>
        <time>2024-06-09T10:24:12Z</time>
      </trkpt>
      <trkpt lat="49.39619" lon="5.79015">
        <ele>289.79998779297</ele>
        <time>2024-06-09T10:24:14Z</time>
      </trkpt>
      <trkpt lat="49.39618" lon="5.79016">
        <ele>290</ele>
        <time>2024-06-09T10:24:15Z</time>
      </trkpt>
      <trkpt lat="49.39617" lon="5.79017">
        <ele>290</ele>
        <time>2024-06-09T10:24:16Z</time>
      </trkpt>
      <trkpt lat="49.39617" lon="5.79018">
        <ele>290.39999389648</ele>
        <time>2024-06-09T10:24:17Z</time>
      </trkpt>
      <trkpt lat="49.39616" lon="5.79019">
        <ele>290.60000610352</ele>
        <time>2024-06-09T10:24:18Z</time>
      </trkpt>
      <trkpt lat="49.39614" lon="5.79021">
        <ele>291</ele>
        <time>2024-06-09T10:24:20Z</time>
      </trkpt>
      <trkpt lat="49.39612" lon="5.79023">
        <ele>291.39999389648</ele>
        <time>2024-06-09T10:24:22Z</time>
      </trkpt>
      <trkpt lat="49.39611" lon="5.79026">
        <ele>292</ele>
        <time>2024-06-09T10:24:24Z</time>
      </trkpt>
      <trkpt lat="49.39608" lon="5.79029">
        <ele>292.39999389648</ele>
        <time>2024-06-09T10:24:26Z</time>
      </trkpt>
      <trkpt lat="49.39607" lon="5.7903">
        <ele>292.60000610352</ele>
        <time>2024-06-09T10:24:27Z</time>
      </trkpt>
      <trkpt lat="49.39606" lon="5.79031">
        <ele>292.79998779297</ele>
        <time>2024-06-09T10:24:28Z</time>
      </trkpt>
      <trkpt lat="49.39605" lon="5.79033">
        <ele>293.20001220703</ele>
        <time>2024-06-09T10:24:30Z</time>
      </trkpt>
      <trkpt lat="49.39603" lon="5.79034">
        <ele>293.60000610352</ele>
        <time>2024-06-09T10:24:32Z</time>
      </trkpt>
      <trkpt lat="49.39602" lon="5.79035">
        <ele>293.79998779297</ele>
        <time>2024-06-09T10:24:33Z</time>
      </trkpt>
      <trkpt lat="49.39601" lon="5.79036">
        <ele>294</ele>
        <time>2024-06-09T10:24:34Z</time>
      </trkpt>
      <trkpt lat="49.39599" lon="5.79037">
        <ele>294.60000610352</ele>
        <time>2024-06-09T10:24:36Z</time>
      </trkpt>
      <trkpt lat="49.39598" lon="5.79038">
        <ele>294.79998779297</ele>
        <time>2024-06-09T10:24:37Z</time>
      </trkpt>
      <trkpt lat="49.39597" lon="5.79037">
        <ele>295</ele>
        <time>2024-06-09T10:24:38Z</time>
      </trkpt>
      <trkpt lat="49.39594" lon="5.79036">
        <ele>295.39999389648</ele>
        <time>2024-06-09T10:24:40Z</time>
      </trkpt>
      <trkpt lat="49.39593" lon="5.79036">
        <ele>296</ele>
        <time>2024-06-09T10:24:41Z</time>
      </trkpt>
      <trkpt lat="49.39593" lon="5.79035">
        <ele>296.39999389648</ele>
        <time>2024-06-09T10:24:42Z</time>
      </trkpt>
      <trkpt lat="49.39592" lon="5.79033">
        <ele>296.79998779297</ele>
        <time>2024-06-09T10:24:44Z</time>
      </trkpt>
      <trkpt lat="49.39591" lon="5.79033">
        <ele>297.20001220703</ele>
        <time>2024-06-09T10:24:45Z</time>
      </trkpt>
      <trkpt lat="49.39591" lon="5.79032">
        <ele>297.60000610352</ele>
        <time>2024-06-09T10:24:46Z</time>
      </trkpt>
      <trkpt lat="49.3959" lon="5.7903">
        <ele>298</ele>
        <time>2024-06-09T10:24:48Z</time>
      </trkpt>
      <trkpt lat="49.39589" lon="5.79029">
        <ele>298.39999389648</ele>
        <time>2024-06-09T10:24:49Z</time>
      </trkpt>
      <trkpt lat="49.39588" lon="5.79028">
        <ele>298.60000610352</ele>
        <time>2024-06-09T10:24:50Z</time>
      </trkpt>
      <trkpt lat="49.39587" lon="5.79026">
        <ele>299</ele>
        <time>2024-06-09T10:24:52Z</time>
      </trkpt>
      <trkpt lat="49.39585" lon="5.79024">
        <ele>299.39999389648</ele>
        <time>2024-06-09T10:24:54Z</time>
      </trkpt>
      <trkpt lat="49.39585" lon="5.79021">
        <ele>299.79998779297</ele>
        <time>2024-06-09T10:24:56Z</time>
      </trkpt>
      <trkpt lat="49.39584" lon="5.79019">
        <ele>299.79998779297</ele>
        <time>2024-06-09T10:24:58Z</time>
      </trkpt>
      <trkpt lat="49.39583" lon="5.79016">
        <ele>300.20001220703</ele>
        <time>2024-06-09T10:25:00Z</time>
      </trkpt>
      <trkpt lat="49.39583" lon="5.79013">
        <ele>300.39999389648</ele>
        <time>2024-06-09T10:25:02Z</time>
      </trkpt>
      <trkpt lat="49.39583" lon="5.7901">
        <ele>300.79998779297</ele>
        <time>2024-06-09T10:25:04Z</time>
      </trkpt>
      <trkpt lat="49.39584" lon="5.79004">
        <ele>301</ele>
        <time>2024-06-09T10:25:06Z</time>
      </trkpt>
      <trkpt lat="49.39585" lon="5.78997">
        <ele>301.20001220703</ele>
        <time>2024-06-09T10:25:08Z</time>
      </trkpt>
      <trkpt lat="49.39587" lon="5.78988">
        <ele>301.20001220703</ele>
        <time>2024-06-09T10:25:10Z</time>
      </trkpt>
      <trkpt lat="49.39587" lon="5.78979">
        <ele>301.20001220703</ele>
        <time>2024-06-09T10:25:12Z</time>
      </trkpt>
      <trkpt lat="49.39588" lon="5.78972">
        <ele>300.60000610352</ele>
        <time>2024-06-09T10:25:14Z</time>
      </trkpt>
      <trkpt lat="49.39589" lon="5.78965">
        <ele>300</ele>
        <time>2024-06-09T10:25:16Z</time>
      </trkpt>
      <trkpt lat="49.3959" lon="5.78958">
        <ele>299.79998779297</ele>
        <time>2024-06-09T10:25:18Z</time>
      </trkpt>
      <trkpt lat="49.3959" lon="5.78953">
        <ele>299.60000610352</ele>
        <time>2024-06-09T10:25:19Z</time>
      </trkpt>
      <trkpt lat="49.3959" lon="5.78949">
        <ele>299.60000610352</ele>
        <time>2024-06-09T10:25:20Z</time>
      </trkpt>
      <trkpt lat="49.39591" lon="5.78943">
        <ele>299.60000610352</ele>
        <time>2024-06-09T10:25:22Z</time>
      </trkpt>
      <trkpt lat="49.39592" lon="5.78938">
        <ele>299.60000610352</ele>
        <time>2024-06-09T10:25:23Z</time>
      </trkpt>
      <trkpt lat="49.39593" lon="5.78933">
        <ele>299.20001220703</ele>
        <time>2024-06-09T10:25:24Z</time>
      </trkpt>
      <trkpt lat="49.39594" lon="5.78926">
        <ele>299.20001220703</ele>
        <time>2024-06-09T10:25:26Z</time>
      </trkpt>
      <trkpt lat="49.39594" lon="5.78921">
        <ele>299.60000610352</ele>
        <time>2024-06-09T10:25:27Z</time>
      </trkpt>
      <trkpt lat="49.39595" lon="5.78918">
        <ele>299.60000610352</ele>
        <time>2024-06-09T10:25:28Z</time>
      </trkpt>
      <trkpt lat="49.39597" lon="5.78912">
        <ele>299.60000610352</ele>
        <time>2024-06-09T10:25:30Z</time>
      </trkpt>
      <trkpt lat="49.39598" lon="5.78904">
        <ele>299.60000610352</ele>
        <time>2024-06-09T10:25:32Z</time>
      </trkpt>
      <trkpt lat="49.39601" lon="5.78897">
        <ele>299.60000610352</ele>
        <time>2024-06-09T10:25:34Z</time>
      </trkpt>
      <trkpt lat="49.39602" lon="5.78888">
        <ele>299.79998779297</ele>
        <time>2024-06-09T10:25:36Z</time>
      </trkpt>
      <trkpt lat="49.39605" lon="5.7888">
        <ele>299.79998779297</ele>
        <time>2024-06-09T10:25:38Z</time>
      </trkpt>
      <trkpt lat="49.39606" lon="5.78876">
        <ele>299.79998779297</ele>
        <time>2024-06-09T10:25:39Z</time>
      </trkpt>
      <trkpt lat="49.39607" lon="5.78871">
        <ele>299.79998779297</ele>
        <time>2024-06-09T10:25:40Z</time>
      </trkpt>
      <trkpt lat="49.3961" lon="5.7886">
        <ele>299.79998779297</ele>
        <time>2024-06-09T10:25:42Z</time>
      </trkpt>
      <trkpt lat="49.39613" lon="5.7885">
        <ele>299.79998779297</ele>
        <time>2024-06-09T10:25:44Z</time>
      </trkpt>
      <trkpt lat="49.39614" lon="5.78845">
        <ele>299.79998779297</ele>
        <time>2024-06-09T10:25:45Z</time>
      </trkpt>
      <trkpt lat="49.39616" lon="5.78838">
        <ele>299.79998779297</ele>
        <time>2024-06-09T10:25:46Z</time>
      </trkpt>
      <trkpt lat="49.39619" lon="5.78824">
        <ele>299.79998779297</ele>
        <time>2024-06-09T10:25:48Z</time>
      </trkpt>
      <trkpt lat="49.39619" lon="5.78815">
        <ele>299.79998779297</ele>
        <time>2024-06-09T10:25:50Z</time>
      </trkpt>
      <trkpt lat="49.39619" lon="5.78811">
        <ele>299.79998779297</ele>
        <time>2024-06-09T10:25:51Z</time>
      </trkpt>
      <trkpt lat="49.3962" lon="5.78807">
        <ele>299.79998779297</ele>
        <time>2024-06-09T10:25:52Z</time>
      </trkpt>
      <trkpt lat="49.39621" lon="5.78803">
        <ele>299.79998779297</ele>
        <time>2024-06-09T10:25:54Z</time>
      </trkpt>
      <trkpt lat="49.39622" lon="5.78798">
        <ele>300.20001220703</ele>
        <time>2024-06-09T10:25:56Z</time>
      </trkpt>
      <trkpt lat="49.39622" lon="5.78795">
        <ele>300.60000610352</ele>
        <time>2024-06-09T10:25:57Z</time>
      </trkpt>
      <trkpt lat="49.39622" lon="5.78792">
        <ele>301</ele>
        <time>2024-06-09T10:25:58Z</time>
      </trkpt>
      <trkpt lat="49.39623" lon="5.78785">
        <ele>302.39999389648</ele>
        <time>2024-06-09T10:26:00Z</time>
      </trkpt>
      <trkpt lat="49.39625" lon="5.7878">
        <ele>303.79998779297</ele>
        <time>2024-06-09T10:26:02Z</time>
      </trkpt>
      <trkpt lat="49.39625" lon="5.78775">
        <ele>304.79998779297</ele>
        <time>2024-06-09T10:26:04Z</time>
      </trkpt>
      <trkpt lat="49.39625" lon="5.78773">
        <ele>305</ele>
        <time>2024-06-09T10:26:05Z</time>
      </trkpt>
      <trkpt lat="49.39625" lon="5.78771">
        <ele>305</ele>
        <time>2024-06-09T10:26:06Z</time>
      </trkpt>
      <trkpt lat="49.39626" lon="5.78768">
        <ele>305</ele>
        <time>2024-06-09T10:26:07Z</time>
      </trkpt>
      <trkpt lat="49.39626" lon="5.78766">
        <ele>305.39999389648</ele>
        <time>2024-06-09T10:26:08Z</time>
      </trkpt>
      <trkpt lat="49.39626" lon="5.78762">
        <ele>305.79998779297</ele>
        <time>2024-06-09T10:26:10Z</time>
      </trkpt>
      <trkpt lat="49.39626" lon="5.78761">
        <ele>306.39999389648</ele>
        <time>2024-06-09T10:26:11Z</time>
      </trkpt>
      <trkpt lat="49.39626" lon="5.78759">
        <ele>306.60000610352</ele>
        <time>2024-06-09T10:26:12Z</time>
      </trkpt>
      <trkpt lat="49.39628" lon="5.78754">
        <ele>307.20001220703</ele>
        <time>2024-06-09T10:26:14Z</time>
      </trkpt>
      <trkpt lat="49.39628" lon="5.7875">
        <ele>307.60000610352</ele>
        <time>2024-06-09T10:26:16Z</time>
      </trkpt>
      <trkpt lat="49.39628" lon="5.78749">
        <ele>307.79998779297</ele>
        <time>2024-06-09T10:26:17Z</time>
      </trkpt>
      <trkpt lat="49.39629" lon="5.78746">
        <ele>308</ele>
        <time>2024-06-09T10:26:18Z</time>
      </trkpt>
      <trkpt lat="49.3963" lon="5.78742">
        <ele>308.39999389648</ele>
        <time>2024-06-09T10:26:20Z</time>
      </trkpt>
      <trkpt lat="49.39631" lon="5.78738">
        <ele>308.60000610352</ele>
        <time>2024-06-09T10:26:22Z</time>
      </trkpt>
      <trkpt lat="49.39633" lon="5.78733">
        <ele>308.79998779297</ele>
        <time>2024-06-09T10:26:24Z</time>
      </trkpt>
      <trkpt lat="49.39634" lon="5.7873">
        <ele>309</ele>
        <time>2024-06-09T10:26:25Z</time>
      </trkpt>
      <trkpt lat="49.39635" lon="5.78728">
        <ele>309</ele>
        <time>2024-06-09T10:26:26Z</time>
      </trkpt>
      <trkpt lat="49.39635" lon="5.78725">
        <ele>309.20001220703</ele>
        <time>2024-06-09T10:26:27Z</time>
      </trkpt>
      <trkpt lat="49.39636" lon="5.78723">
        <ele>309.20001220703</ele>
        <time>2024-06-09T10:26:28Z</time>
      </trkpt>
      <trkpt lat="49.39636" lon="5.78718">
        <ele>309.20001220703</ele>
        <time>2024-06-09T10:26:30Z</time>
      </trkpt>
      <trkpt lat="49.39637" lon="5.78712">
        <ele>309.39999389648</ele>
        <time>2024-06-09T10:26:32Z</time>
      </trkpt>
      <trkpt lat="49.39638" lon="5.78705">
        <ele>309.39999389648</ele>
        <time>2024-06-09T10:26:34Z</time>
      </trkpt>
      <trkpt lat="49.39638" lon="5.787">
        <ele>309.60000610352</ele>
        <time>2024-06-09T10:26:36Z</time>
      </trkpt>
      <trkpt lat="49.39639" lon="5.78697">
        <ele>309.79998779297</ele>
        <time>2024-06-09T10:26:37Z</time>
      </trkpt>
      <trkpt lat="49.39639" lon="5.78695">
        <ele>310</ele>
        <time>2024-06-09T10:26:38Z</time>
      </trkpt>
      <trkpt lat="49.3964" lon="5.7869">
        <ele>310.60000610352</ele>
        <time>2024-06-09T10:26:40Z</time>
      </trkpt>
      <trkpt lat="49.39641" lon="5.78687">
        <ele>310.79998779297</ele>
        <time>2024-06-09T10:26:41Z</time>
      </trkpt>
      <trkpt lat="49.39642" lon="5.78684">
        <ele>311</ele>
        <time>2024-06-09T10:26:42Z</time>
      </trkpt>
      <trkpt lat="49.39644" lon="5.78679">
        <ele>311.39999389648</ele>
        <time>2024-06-09T10:26:44Z</time>
      </trkpt>
      <trkpt lat="49.39645" lon="5.78674">
        <ele>311.39999389648</ele>
        <time>2024-06-09T10:26:46Z</time>
      </trkpt>
      <trkpt lat="49.39646" lon="5.78668">
        <ele>311.60000610352</ele>
        <time>2024-06-09T10:26:48Z</time>
      </trkpt>
      <trkpt lat="49.39647" lon="5.78663">
        <ele>311.79998779297</ele>
        <time>2024-06-09T10:26:50Z</time>
      </trkpt>
      <trkpt lat="49.39648" lon="5.78656">
        <ele>312</ele>
        <time>2024-06-09T10:26:52Z</time>
      </trkpt>
      <trkpt lat="49.3965" lon="5.7865">
        <ele>312</ele>
        <time>2024-06-09T10:26:54Z</time>
      </trkpt>
      <trkpt lat="49.39651" lon="5.78647">
        <ele>312</ele>
        <time>2024-06-09T10:26:55Z</time>
      </trkpt>
      <trkpt lat="49.39652" lon="5.78643">
        <ele>312</ele>
        <time>2024-06-09T10:26:56Z</time>
      </trkpt>
      <trkpt lat="49.39654" lon="5.78635">
        <ele>312.20001220703</ele>
        <time>2024-06-09T10:26:58Z</time>
      </trkpt>
      <trkpt lat="49.39654" lon="5.78627">
        <ele>312.20001220703</ele>
        <time>2024-06-09T10:27:00Z</time>
      </trkpt>
      <trkpt lat="49.39654" lon="5.78623">
        <ele>312.20001220703</ele>
        <time>2024-06-09T10:27:01Z</time>
      </trkpt>
      <trkpt lat="49.39653" lon="5.7862">
        <ele>312.20001220703</ele>
        <time>2024-06-09T10:27:02Z</time>
      </trkpt>
      <trkpt lat="49.39652" lon="5.78612">
        <ele>312.20001220703</ele>
        <time>2024-06-09T10:27:04Z</time>
      </trkpt>
      <trkpt lat="49.39653" lon="5.78606">
        <ele>312.39999389648</ele>
        <time>2024-06-09T10:27:06Z</time>
      </trkpt>
      <trkpt lat="49.39653" lon="5.786">
        <ele>313</ele>
        <time>2024-06-09T10:27:08Z</time>
      </trkpt>
      <trkpt lat="49.39653" lon="5.78597">
        <ele>313.20001220703</ele>
        <time>2024-06-09T10:27:09Z</time>
      </trkpt>
      <trkpt lat="49.39652" lon="5.78593">
        <ele>313.20001220703</ele>
        <time>2024-06-09T10:27:10Z</time>
      </trkpt>
      <trkpt lat="49.39653" lon="5.78587">
        <ele>313.39999389648</ele>
        <time>2024-06-09T10:27:12Z</time>
      </trkpt>
      <trkpt lat="49.39655" lon="5.78579">
        <ele>313.39999389648</ele>
        <time>2024-06-09T10:27:14Z</time>
      </trkpt>
      <trkpt lat="49.39657" lon="5.78571">
        <ele>313.39999389648</ele>
        <time>2024-06-09T10:27:16Z</time>
      </trkpt>
      <trkpt lat="49.39659" lon="5.78561">
        <ele>313.39999389648</ele>
        <time>2024-06-09T10:27:18Z</time>
      </trkpt>
      <trkpt lat="49.3966" lon="5.78551">
        <ele>313.39999389648</ele>
        <time>2024-06-09T10:27:20Z</time>
      </trkpt>
      <trkpt lat="49.3966" lon="5.78545">
        <ele>313.39999389648</ele>
        <time>2024-06-09T10:27:21Z</time>
      </trkpt>
      <trkpt lat="49.39661" lon="5.78539">
        <ele>313.39999389648</ele>
        <time>2024-06-09T10:27:22Z</time>
      </trkpt>
      <trkpt lat="49.39661" lon="5.78529">
        <ele>313</ele>
        <time>2024-06-09T10:27:24Z</time>
      </trkpt>
      <trkpt lat="49.39662" lon="5.78521">
        <ele>312.79998779297</ele>
        <time>2024-06-09T10:27:26Z</time>
      </trkpt>
      <trkpt lat="49.39664" lon="5.78513">
        <ele>312.39999389648</ele>
        <time>2024-06-09T10:27:28Z</time>
      </trkpt>
      <trkpt lat="49.39666" lon="5.785">
        <ele>312.20001220703</ele>
        <time>2024-06-09T10:27:30Z</time>
      </trkpt>
      <trkpt lat="49.39666" lon="5.78488">
        <ele>312.20001220703</ele>
        <time>2024-06-09T10:27:32Z</time>
      </trkpt>
      <trkpt lat="49.39665" lon="5.78478">
        <ele>312.20001220703</ele>
        <time>2024-06-09T10:27:34Z</time>
      </trkpt>
      <trkpt lat="49.39666" lon="5.78473">
        <ele>312.20001220703</ele>
        <time>2024-06-09T10:27:35Z</time>
      </trkpt>
      <trkpt lat="49.39667" lon="5.78468">
        <ele>312</ele>
        <time>2024-06-09T10:27:36Z</time>
      </trkpt>
      <trkpt lat="49.39672" lon="5.78463">
        <ele>311.39999389648</ele>
        <time>2024-06-09T10:27:38Z</time>
      </trkpt>
      <trkpt lat="49.39679" lon="5.78459">
        <ele>311.20001220703</ele>
        <time>2024-06-09T10:27:40Z</time>
      </trkpt>
      <trkpt lat="49.39683" lon="5.78457">
        <ele>311.20001220703</ele>
        <time>2024-06-09T10:27:41Z</time>
      </trkpt>
      <trkpt lat="49.39688" lon="5.78455">
        <ele>311</ele>
        <time>2024-06-09T10:27:42Z</time>
      </trkpt>
      <trkpt lat="49.39698" lon="5.78455">
        <ele>310.79998779297</ele>
        <time>2024-06-09T10:27:44Z</time>
      </trkpt>
      <trkpt lat="49.39702" lon="5.78452">
        <ele>310.79998779297</ele>
        <time>2024-06-09T10:27:45Z</time>
      </trkpt>
      <trkpt lat="49.39705" lon="5.78449">
        <ele>310.60000610352</ele>
        <time>2024-06-09T10:27:46Z</time>
      </trkpt>
      <trkpt lat="49.39706" lon="5.78437">
        <ele>309.20001220703</ele>
        <time>2024-06-09T10:27:48Z</time>
      </trkpt>
      <trkpt lat="49.39706" lon="5.78429">
        <ele>307.79998779297</ele>
        <time>2024-06-09T10:27:49Z</time>
      </trkpt>
      <trkpt lat="49.39706" lon="5.7842">
        <ele>306.60000610352</ele>
        <time>2024-06-09T10:27:50Z</time>
      </trkpt>
      <trkpt lat="49.39706" lon="5.7841">
        <ele>304.79998779297</ele>
        <time>2024-06-09T10:27:51Z</time>
      </trkpt>
      <trkpt lat="49.39705" lon="5.78401">
        <ele>303</ele>
        <time>2024-06-09T10:27:52Z</time>
      </trkpt>
      <trkpt lat="49.39704" lon="5.78391">
        <ele>301.60000610352</ele>
        <time>2024-06-09T10:27:53Z</time>
      </trkpt>
      <trkpt lat="49.39703" lon="5.78382">
        <ele>300.79998779297</ele>
        <time>2024-06-09T10:27:54Z</time>
      </trkpt>
      <trkpt lat="49.39702" lon="5.78374">
        <ele>300.20001220703</ele>
        <time>2024-06-09T10:27:55Z</time>
      </trkpt>
      <trkpt lat="49.39701" lon="5.78365">
        <ele>299.79998779297</ele>
        <time>2024-06-09T10:27:56Z</time>
      </trkpt>
      <trkpt lat="49.39699" lon="5.7835">
        <ele>299</ele>
        <time>2024-06-09T10:27:58Z</time>
      </trkpt>
      <trkpt lat="49.39697" lon="5.78335">
        <ele>298.39999389648</ele>
        <time>2024-06-09T10:28:00Z</time>
      </trkpt>
      <trkpt lat="49.39695" lon="5.78321">
        <ele>298.20001220703</ele>
        <time>2024-06-09T10:28:02Z</time>
      </trkpt>
      <trkpt lat="49.39693" lon="5.78308">
        <ele>298.20001220703</ele>
        <time>2024-06-09T10:28:04Z</time>
      </trkpt>
      <trkpt lat="49.39692" lon="5.78296">
        <ele>298.20001220703</ele>
        <time>2024-06-09T10:28:06Z</time>
      </trkpt>
      <trkpt lat="49.3969" lon="5.78285">
        <ele>298.20001220703</ele>
        <time>2024-06-09T10:28:08Z</time>
      </trkpt>
      <trkpt lat="49.39689" lon="5.78273">
        <ele>298.39999389648</ele>
        <time>2024-06-09T10:28:10Z</time>
      </trkpt>
      <trkpt lat="49.39689" lon="5.78268">
        <ele>298.39999389648</ele>
        <time>2024-06-09T10:28:11Z</time>
      </trkpt>
      <trkpt lat="49.39689" lon="5.78262">
        <ele>298.60000610352</ele>
        <time>2024-06-09T10:28:12Z</time>
      </trkpt>
      <trkpt lat="49.39688" lon="5.7825">
        <ele>299</ele>
        <time>2024-06-09T10:28:14Z</time>
      </trkpt>
      <trkpt lat="49.39688" lon="5.78239">
        <ele>299.39999389648</ele>
        <time>2024-06-09T10:28:16Z</time>
      </trkpt>
      <trkpt lat="49.39687" lon="5.78226">
        <ele>299.60000610352</ele>
        <time>2024-06-09T10:28:18Z</time>
      </trkpt>
      <trkpt lat="49.39687" lon="5.78213">
        <ele>299.60000610352</ele>
        <time>2024-06-09T10:28:20Z</time>
      </trkpt>
      <trkpt lat="49.39686" lon="5.78199">
        <ele>299.79998779297</ele>
        <time>2024-06-09T10:28:22Z</time>
      </trkpt>
      <trkpt lat="49.39685" lon="5.78186">
        <ele>299.79998779297</ele>
        <time>2024-06-09T10:28:24Z</time>
      </trkpt>
      <trkpt lat="49.39684" lon="5.78179">
        <ele>299.79998779297</ele>
        <time>2024-06-09T10:28:25Z</time>
      </trkpt>
      <trkpt lat="49.39684" lon="5.78172">
        <ele>300</ele>
        <time>2024-06-09T10:28:26Z</time>
      </trkpt>
      <trkpt lat="49.39683" lon="5.78156">
        <ele>300</ele>
        <time>2024-06-09T10:28:28Z</time>
      </trkpt>
      <trkpt lat="49.39682" lon="5.78139">
        <ele>300</ele>
        <time>2024-06-09T10:28:30Z</time>
      </trkpt>
      <trkpt lat="49.39682" lon="5.78131">
        <ele>300</ele>
        <time>2024-06-09T10:28:31Z</time>
      </trkpt>
      <trkpt lat="49.39681" lon="5.78123">
        <ele>299.79998779297</ele>
        <time>2024-06-09T10:28:32Z</time>
      </trkpt>
      <trkpt lat="49.3968" lon="5.78106">
        <ele>299.79998779297</ele>
        <time>2024-06-09T10:28:34Z</time>
      </trkpt>
      <trkpt lat="49.39679" lon="5.7809">
        <ele>299.20001220703</ele>
        <time>2024-06-09T10:28:36Z</time>
      </trkpt>
      <trkpt lat="49.39679" lon="5.78074">
        <ele>298.79998779297</ele>
        <time>2024-06-09T10:28:38Z</time>
      </trkpt>
      <trkpt lat="49.39678" lon="5.78067">
        <ele>298.60000610352</ele>
        <time>2024-06-09T10:28:39Z</time>
      </trkpt>
      <trkpt lat="49.39678" lon="5.78059">
        <ele>298.60000610352</ele>
        <time>2024-06-09T10:28:40Z</time>
      </trkpt>
      <trkpt lat="49.39677" lon="5.78044">
        <ele>298.39999389648</ele>
        <time>2024-06-09T10:28:42Z</time>
      </trkpt>
      <trkpt lat="49.39677" lon="5.78029">
        <ele>298.39999389648</ele>
        <time>2024-06-09T10:28:44Z</time>
      </trkpt>
      <trkpt lat="49.39677" lon="5.78014">
        <ele>298.39999389648</ele>
        <time>2024-06-09T10:28:46Z</time>
      </trkpt>
      <trkpt lat="49.39676" lon="5.78">
        <ele>298.39999389648</ele>
        <time>2024-06-09T10:28:48Z</time>
      </trkpt>
      <trkpt lat="49.39677" lon="5.77986">
        <ele>298.39999389648</ele>
        <time>2024-06-09T10:28:50Z</time>
      </trkpt>
      <trkpt lat="49.39677" lon="5.77974">
        <ele>298.60000610352</ele>
        <time>2024-06-09T10:28:52Z</time>
      </trkpt>
      <trkpt lat="49.39677" lon="5.77962">
        <ele>298.79998779297</ele>
        <time>2024-06-09T10:28:54Z</time>
      </trkpt>
      <trkpt lat="49.39678" lon="5.7795">
        <ele>299.20001220703</ele>
        <time>2024-06-09T10:28:56Z</time>
      </trkpt>
      <trkpt lat="49.39678" lon="5.77937">
        <ele>299.20001220703</ele>
        <time>2024-06-09T10:28:58Z</time>
      </trkpt>
      <trkpt lat="49.39677" lon="5.77923">
        <ele>299.39999389648</ele>
        <time>2024-06-09T10:29:00Z</time>
      </trkpt>
      <trkpt lat="49.39677" lon="5.77917">
        <ele>299.39999389648</ele>
        <time>2024-06-09T10:29:01Z</time>
      </trkpt>
      <trkpt lat="49.39677" lon="5.77911">
        <ele>299.39999389648</ele>
        <time>2024-06-09T10:29:02Z</time>
      </trkpt>
      <trkpt lat="49.39678" lon="5.77897">
        <ele>299.39999389648</ele>
        <time>2024-06-09T10:29:04Z</time>
      </trkpt>
      <trkpt lat="49.39679" lon="5.77884">
        <ele>299.39999389648</ele>
        <time>2024-06-09T10:29:06Z</time>
      </trkpt>
      <trkpt lat="49.3968" lon="5.77869">
        <ele>299.39999389648</ele>
        <time>2024-06-09T10:29:08Z</time>
      </trkpt>
      <trkpt lat="49.39681" lon="5.77854">
        <ele>299.39999389648</ele>
        <time>2024-06-09T10:29:10Z</time>
      </trkpt>
      <trkpt lat="49.39683" lon="5.77838">
        <ele>299.20001220703</ele>
        <time>2024-06-09T10:29:12Z</time>
      </trkpt>
      <trkpt lat="49.39686" lon="5.77821">
        <ele>298.60000610352</ele>
        <time>2024-06-09T10:29:14Z</time>
      </trkpt>
      <trkpt lat="49.39687" lon="5.77811">
        <ele>298.39999389648</ele>
        <time>2024-06-09T10:29:15Z</time>
      </trkpt>
      <trkpt lat="49.39689" lon="5.77801">
        <ele>298</ele>
        <time>2024-06-09T10:29:16Z</time>
      </trkpt>
      <trkpt lat="49.3969" lon="5.77789">
        <ele>298</ele>
        <time>2024-06-09T10:29:17Z</time>
      </trkpt>
      <trkpt lat="49.39692" lon="5.77776">
        <ele>297.79998779297</ele>
        <time>2024-06-09T10:29:18Z</time>
      </trkpt>
      <trkpt lat="49.39694" lon="5.77762">
        <ele>297.60000610352</ele>
        <time>2024-06-09T10:29:19Z</time>
      </trkpt>
      <trkpt lat="49.39695" lon="5.77747">
        <ele>297.39999389648</ele>
        <time>2024-06-09T10:29:20Z</time>
      </trkpt>
      <trkpt lat="49.39695" lon="5.77732">
        <ele>297.39999389648</ele>
        <time>2024-06-09T10:29:21Z</time>
      </trkpt>
      <trkpt lat="49.39695" lon="5.77718">
        <ele>296.79998779297</ele>
        <time>2024-06-09T10:29:22Z</time>
      </trkpt>
      <trkpt lat="49.39694" lon="5.77704">
        <ele>296.39999389648</ele>
        <time>2024-06-09T10:29:23Z</time>
      </trkpt>
      <trkpt lat="49.39693" lon="5.7769">
        <ele>295.60000610352</ele>
        <time>2024-06-09T10:29:24Z</time>
      </trkpt>
      <trkpt lat="49.39696" lon="5.77662">
        <ele>293.39999389648</ele>
        <time>2024-06-09T10:29:26Z</time>
      </trkpt>
      <trkpt lat="49.39699" lon="5.77648">
        <ele>292</ele>
        <time>2024-06-09T10:29:27Z</time>
      </trkpt>
      <trkpt lat="49.39702" lon="5.77634">
        <ele>290.20001220703</ele>
        <time>2024-06-09T10:29:28Z</time>
      </trkpt>
      <trkpt lat="49.39705" lon="5.77619">
        <ele>288.39999389648</ele>
        <time>2024-06-09T10:29:29Z</time>
      </trkpt>
      <trkpt lat="49.39707" lon="5.77603">
        <ele>287</ele>
        <time>2024-06-09T10:29:30Z</time>
      </trkpt>
      <trkpt lat="49.39707" lon="5.77588">
        <ele>285.60000610352</ele>
        <time>2024-06-09T10:29:31Z</time>
      </trkpt>
      <trkpt lat="49.39708" lon="5.77572">
        <ele>285.20001220703</ele>
        <time>2024-06-09T10:29:32Z</time>
      </trkpt>
      <trkpt lat="49.39709" lon="5.77541">
        <ele>283.79998779297</ele>
        <time>2024-06-09T10:29:34Z</time>
      </trkpt>
      <trkpt lat="49.39709" lon="5.77526">
        <ele>282</ele>
        <time>2024-06-09T10:29:35Z</time>
      </trkpt>
      <trkpt lat="49.39708" lon="5.77511">
        <ele>280.20001220703</ele>
        <time>2024-06-09T10:29:36Z</time>
      </trkpt>
      <trkpt lat="49.39706" lon="5.77496">
        <ele>278.39999389648</ele>
        <time>2024-06-09T10:29:37Z</time>
      </trkpt>
      <trkpt lat="49.39703" lon="5.77483">
        <ele>277.20001220703</ele>
        <time>2024-06-09T10:29:38Z</time>
      </trkpt>
      <trkpt lat="49.39698" lon="5.7746">
        <ele>276.39999389648</ele>
        <time>2024-06-09T10:29:40Z</time>
      </trkpt>
      <trkpt lat="49.39697" lon="5.77449">
        <ele>276.39999389648</ele>
        <time>2024-06-09T10:29:41Z</time>
      </trkpt>
      <trkpt lat="49.39696" lon="5.77438">
        <ele>276.20001220703</ele>
        <time>2024-06-09T10:29:42Z</time>
      </trkpt>
      <trkpt lat="49.39697" lon="5.77417">
        <ele>276.20001220703</ele>
        <time>2024-06-09T10:29:44Z</time>
      </trkpt>
      <trkpt lat="49.39697" lon="5.77405">
        <ele>276</ele>
        <time>2024-06-09T10:29:45Z</time>
      </trkpt>
      <trkpt lat="49.39697" lon="5.77394">
        <ele>276</ele>
        <time>2024-06-09T10:29:46Z</time>
      </trkpt>
      <trkpt lat="49.39697" lon="5.77374">
        <ele>276</ele>
        <time>2024-06-09T10:29:48Z</time>
      </trkpt>
      <trkpt lat="49.39697" lon="5.77356">
        <ele>276</ele>
        <time>2024-06-09T10:29:50Z</time>
      </trkpt>
      <trkpt lat="49.39697" lon="5.77341">
        <ele>276.39999389648</ele>
        <time>2024-06-09T10:29:52Z</time>
      </trkpt>
      <trkpt lat="49.39698" lon="5.77329">
        <ele>276.79998779297</ele>
        <time>2024-06-09T10:29:54Z</time>
      </trkpt>
      <trkpt lat="49.39698" lon="5.77323">
        <ele>276.79998779297</ele>
        <time>2024-06-09T10:29:55Z</time>
      </trkpt>
      <trkpt lat="49.39698" lon="5.77318">
        <ele>277</ele>
        <time>2024-06-09T10:29:56Z</time>
      </trkpt>
      <trkpt lat="49.39699" lon="5.77313">
        <ele>277.20001220703</ele>
        <time>2024-06-09T10:29:57Z</time>
      </trkpt>
      <trkpt lat="49.39699" lon="5.77309">
        <ele>277.39999389648</ele>
        <time>2024-06-09T10:29:58Z</time>
      </trkpt>
      <trkpt lat="49.39701" lon="5.77301">
        <ele>278.79998779297</ele>
        <time>2024-06-09T10:30:00Z</time>
      </trkpt>
      <trkpt lat="49.39701" lon="5.77292">
        <ele>279.79998779297</ele>
        <time>2024-06-09T10:30:02Z</time>
      </trkpt>
      <trkpt lat="49.39702" lon="5.77285">
        <ele>280.39999389648</ele>
        <time>2024-06-09T10:30:04Z</time>
      </trkpt>
      <trkpt lat="49.39702" lon="5.77281">
        <ele>280.60000610352</ele>
        <time>2024-06-09T10:30:05Z</time>
      </trkpt>
      <trkpt lat="49.39703" lon="5.77278">
        <ele>280.79998779297</ele>
        <time>2024-06-09T10:30:06Z</time>
      </trkpt>
      <trkpt lat="49.39703" lon="5.77274">
        <ele>280.79998779297</ele>
        <time>2024-06-09T10:30:07Z</time>
      </trkpt>
      <trkpt lat="49.39704" lon="5.77271">
        <ele>281.20001220703</ele>
        <time>2024-06-09T10:30:08Z</time>
      </trkpt>
      <trkpt lat="49.39706" lon="5.77265">
        <ele>281.60000610352</ele>
        <time>2024-06-09T10:30:10Z</time>
      </trkpt>
      <trkpt lat="49.39706" lon="5.77263">
        <ele>282</ele>
        <time>2024-06-09T10:30:11Z</time>
      </trkpt>
      <trkpt lat="49.39707" lon="5.77261">
        <ele>282.20001220703</ele>
        <time>2024-06-09T10:30:12Z</time>
      </trkpt>
      <trkpt lat="49.39708" lon="5.77257">
        <ele>282.39999389648</ele>
        <time>2024-06-09T10:30:14Z</time>
      </trkpt>
      <trkpt lat="49.39709" lon="5.77254">
        <ele>282.60000610352</ele>
        <time>2024-06-09T10:30:15Z</time>
      </trkpt>
      <trkpt lat="49.39709" lon="5.77251">
        <ele>282.79998779297</ele>
        <time>2024-06-09T10:30:16Z</time>
      </trkpt>
      <trkpt lat="49.3971" lon="5.77249">
        <ele>283</ele>
        <time>2024-06-09T10:30:17Z</time>
      </trkpt>
      <trkpt lat="49.3971" lon="5.77246">
        <ele>283.39999389648</ele>
        <time>2024-06-09T10:30:18Z</time>
      </trkpt>
      <trkpt lat="49.3971" lon="5.77243">
        <ele>283.79998779297</ele>
        <time>2024-06-09T10:30:19Z</time>
      </trkpt>
      <trkpt lat="49.3971" lon="5.77241">
        <ele>284.39999389648</ele>
        <time>2024-06-09T10:30:20Z</time>
      </trkpt>
      <trkpt lat="49.39711" lon="5.77235">
        <ele>285</ele>
        <time>2024-06-09T10:30:22Z</time>
      </trkpt>
      <trkpt lat="49.39711" lon="5.77233">
        <ele>285.20001220703</ele>
        <time>2024-06-09T10:30:23Z</time>
      </trkpt>
      <trkpt lat="49.39712" lon="5.77231">
        <ele>285.39999389648</ele>
        <time>2024-06-09T10:30:24Z</time>
      </trkpt>
      <trkpt lat="49.39713" lon="5.77227">
        <ele>286</ele>
        <time>2024-06-09T10:30:26Z</time>
      </trkpt>
      <trkpt lat="49.39713" lon="5.77222">
        <ele>286.79998779297</ele>
        <time>2024-06-09T10:30:28Z</time>
      </trkpt>
      <trkpt lat="49.39713" lon="5.77219">
        <ele>287</ele>
        <time>2024-06-09T10:30:29Z</time>
      </trkpt>
      <trkpt lat="49.39714" lon="5.77217">
        <ele>287.20001220703</ele>
        <time>2024-06-09T10:30:30Z</time>
      </trkpt>
      <trkpt lat="49.39715" lon="5.77212">
        <ele>287.79998779297</ele>
        <time>2024-06-09T10:30:32Z</time>
      </trkpt>
      <trkpt lat="49.39715" lon="5.77208">
        <ele>288.39999389648</ele>
        <time>2024-06-09T10:30:34Z</time>
      </trkpt>
      <trkpt lat="49.39716" lon="5.77205">
        <ele>288.60000610352</ele>
        <time>2024-06-09T10:30:35Z</time>
      </trkpt>
      <trkpt lat="49.39716" lon="5.77202">
        <ele>289</ele>
        <time>2024-06-09T10:30:36Z</time>
      </trkpt>
      <trkpt lat="49.39717" lon="5.77197">
        <ele>289.39999389648</ele>
        <time>2024-06-09T10:30:38Z</time>
      </trkpt>
      <trkpt lat="49.39718" lon="5.77192">
        <ele>289.79998779297</ele>
        <time>2024-06-09T10:30:40Z</time>
      </trkpt>
      <trkpt lat="49.39719" lon="5.77189">
        <ele>290.20001220703</ele>
        <time>2024-06-09T10:30:41Z</time>
      </trkpt>
      <trkpt lat="49.3972" lon="5.77188">
        <ele>290.39999389648</ele>
        <time>2024-06-09T10:30:42Z</time>
      </trkpt>
      <trkpt lat="49.39721" lon="5.77184">
        <ele>290.60000610352</ele>
        <time>2024-06-09T10:30:44Z</time>
      </trkpt>
      <trkpt lat="49.39723" lon="5.77179">
        <ele>291</ele>
        <time>2024-06-09T10:30:46Z</time>
      </trkpt>
      <trkpt lat="49.39723" lon="5.77176">
        <ele>291.20001220703</ele>
        <time>2024-06-09T10:30:47Z</time>
      </trkpt>
      <trkpt lat="49.39724" lon="5.77173">
        <ele>291.39999389648</ele>
        <time>2024-06-09T10:30:48Z</time>
      </trkpt>
      <trkpt lat="49.39724" lon="5.7717">
        <ele>291.60000610352</ele>
        <time>2024-06-09T10:30:49Z</time>
      </trkpt>
      <trkpt lat="49.39725" lon="5.77168">
        <ele>291.60000610352</ele>
        <time>2024-06-09T10:30:50Z</time>
      </trkpt>
      <trkpt lat="49.39726" lon="5.77163">
        <ele>292</ele>
        <time>2024-06-09T10:30:52Z</time>
      </trkpt>
      <trkpt lat="49.39726" lon="5.77158">
        <ele>292.39999389648</ele>
        <time>2024-06-09T10:30:54Z</time>
      </trkpt>
      <trkpt lat="49.39727" lon="5.77153">
        <ele>292.60000610352</ele>
        <time>2024-06-09T10:30:56Z</time>
      </trkpt>
      <trkpt lat="49.39727" lon="5.77148">
        <ele>293</ele>
        <time>2024-06-09T10:30:58Z</time>
      </trkpt>
      <trkpt lat="49.39726" lon="5.77144">
        <ele>293.20001220703</ele>
        <time>2024-06-09T10:31:00Z</time>
      </trkpt>
      <trkpt lat="49.39727" lon="5.77142">
        <ele>293.39999389648</ele>
        <time>2024-06-09T10:31:01Z</time>
      </trkpt>
      <trkpt lat="49.39727" lon="5.7714">
        <ele>293.60000610352</ele>
        <time>2024-06-09T10:31:02Z</time>
      </trkpt>
      <trkpt lat="49.39727" lon="5.77137">
        <ele>293.79998779297</ele>
        <time>2024-06-09T10:31:03Z</time>
      </trkpt>
      <trkpt lat="49.39726" lon="5.77135">
        <ele>294</ele>
        <time>2024-06-09T10:31:04Z</time>
      </trkpt>
      <trkpt lat="49.39725" lon="5.7713">
        <ele>294.39999389648</ele>
        <time>2024-06-09T10:31:06Z</time>
      </trkpt>
      <trkpt lat="49.39723" lon="5.77124">
        <ele>294.79998779297</ele>
        <time>2024-06-09T10:31:08Z</time>
      </trkpt>
      <trkpt lat="49.39723" lon="5.77122">
        <ele>295.20001220703</ele>
        <time>2024-06-09T10:31:09Z</time>
      </trkpt>
      <trkpt lat="49.39722" lon="5.77119">
        <ele>295.20001220703</ele>
        <time>2024-06-09T10:31:10Z</time>
      </trkpt>
      <trkpt lat="49.3972" lon="5.77114">
        <ele>295.39999389648</ele>
        <time>2024-06-09T10:31:12Z</time>
      </trkpt>
      <trkpt lat="49.3972" lon="5.77112">
        <ele>295.60000610352</ele>
        <time>2024-06-09T10:31:13Z</time>
      </trkpt>
      <trkpt lat="49.3972" lon="5.7711">
        <ele>295.60000610352</ele>
        <time>2024-06-09T10:31:14Z</time>
      </trkpt>
      <trkpt lat="49.3972" lon="5.77107">
        <ele>295.60000610352</ele>
        <time>2024-06-09T10:31:15Z</time>
      </trkpt>
      <trkpt lat="49.39719" lon="5.77105">
        <ele>295.60000610352</ele>
        <time>2024-06-09T10:31:16Z</time>
      </trkpt>
      <trkpt lat="49.39717" lon="5.77102">
        <ele>295.79998779297</ele>
        <time>2024-06-09T10:31:18Z</time>
      </trkpt>
      <trkpt lat="49.39717" lon="5.77098">
        <ele>295.79998779297</ele>
        <time>2024-06-09T10:31:20Z</time>
      </trkpt>
      <trkpt lat="49.39717" lon="5.77096">
        <ele>295.79998779297</ele>
        <time>2024-06-09T10:31:21Z</time>
      </trkpt>
      <trkpt lat="49.39717" lon="5.77093">
        <ele>295.79998779297</ele>
        <time>2024-06-09T10:31:22Z</time>
      </trkpt>
      <trkpt lat="49.39718" lon="5.77085">
        <ele>295.79998779297</ele>
        <time>2024-06-09T10:31:24Z</time>
      </trkpt>
      <trkpt lat="49.39721" lon="5.77081">
        <ele>295.79998779297</ele>
        <time>2024-06-09T10:31:25Z</time>
      </trkpt>
      <trkpt lat="49.39723" lon="5.77079">
        <ele>295.79998779297</ele>
        <time>2024-06-09T10:31:26Z</time>
      </trkpt>
      <trkpt lat="49.39726" lon="5.77077">
        <ele>295.79998779297</ele>
        <time>2024-06-09T10:31:27Z</time>
      </trkpt>
      <trkpt lat="49.39728" lon="5.77074">
        <ele>295.60000610352</ele>
        <time>2024-06-09T10:31:28Z</time>
      </trkpt>
      <trkpt lat="49.39732" lon="5.77069">
        <ele>295.39999389648</ele>
        <time>2024-06-09T10:31:30Z</time>
      </trkpt>
      <trkpt lat="49.39735" lon="5.77063">
        <ele>295</ele>
        <time>2024-06-09T10:31:32Z</time>
      </trkpt>
      <trkpt lat="49.39739" lon="5.77058">
        <ele>294.60000610352</ele>
        <time>2024-06-09T10:31:34Z</time>
      </trkpt>
      <trkpt lat="49.39742" lon="5.77048">
        <ele>294.39999389648</ele>
        <time>2024-06-09T10:31:36Z</time>
      </trkpt>
      <trkpt lat="49.39746" lon="5.77041">
        <ele>293.79998779297</ele>
        <time>2024-06-09T10:31:38Z</time>
      </trkpt>
      <trkpt lat="49.39751" lon="5.77037">
        <ele>293.39999389648</ele>
        <time>2024-06-09T10:31:40Z</time>
      </trkpt>
      <trkpt lat="49.39755" lon="5.77034">
        <ele>293.20001220703</ele>
        <time>2024-06-09T10:31:41Z</time>
      </trkpt>
      <trkpt lat="49.39759" lon="5.7703">
        <ele>293</ele>
        <time>2024-06-09T10:31:42Z</time>
      </trkpt>
      <trkpt lat="49.39765" lon="5.77025">
        <ele>292.79998779297</ele>
        <time>2024-06-09T10:31:44Z</time>
      </trkpt>
      <trkpt lat="49.39771" lon="5.7702">
        <ele>292.39999389648</ele>
        <time>2024-06-09T10:31:46Z</time>
      </trkpt>
      <trkpt lat="49.39774" lon="5.77018">
        <ele>292.20001220703</ele>
        <time>2024-06-09T10:31:47Z</time>
      </trkpt>
      <trkpt lat="49.39777" lon="5.77018">
        <ele>292.20001220703</ele>
        <time>2024-06-09T10:31:48Z</time>
      </trkpt>
      <trkpt lat="49.39781" lon="5.77016">
        <ele>292.20001220703</ele>
        <time>2024-06-09T10:31:49Z</time>
      </trkpt>
      <trkpt lat="49.39786" lon="5.77012">
        <ele>292</ele>
        <time>2024-06-09T10:31:50Z</time>
      </trkpt>
      <trkpt lat="49.39794" lon="5.77">
        <ele>291.79998779297</ele>
        <time>2024-06-09T10:31:52Z</time>
      </trkpt>
      <trkpt lat="49.39802" lon="5.76985">
        <ele>291.39999389648</ele>
        <time>2024-06-09T10:31:54Z</time>
      </trkpt>
      <trkpt lat="49.39806" lon="5.76974">
        <ele>291.39999389648</ele>
        <time>2024-06-09T10:31:55Z</time>
      </trkpt>
      <trkpt lat="49.3981" lon="5.76963">
        <ele>291.20001220703</ele>
        <time>2024-06-09T10:31:56Z</time>
      </trkpt>
      <trkpt lat="49.39814" lon="5.76942">
        <ele>289.39999389648</ele>
        <time>2024-06-09T10:31:58Z</time>
      </trkpt>
      <trkpt lat="49.39814" lon="5.76932">
        <ele>288.39999389648</ele>
        <time>2024-06-09T10:31:59Z</time>
      </trkpt>
      <trkpt lat="49.39816" lon="5.76925">
        <ele>287.39999389648</ele>
        <time>2024-06-09T10:32:00Z</time>
      </trkpt>
      <trkpt lat="49.39816" lon="5.76921">
        <ele>285.79998779297</ele>
        <time>2024-06-09T10:32:01Z</time>
      </trkpt>
      <trkpt lat="49.39816" lon="5.76918">
        <ele>284.20001220703</ele>
        <time>2024-06-09T10:32:02Z</time>
      </trkpt>
      <trkpt lat="49.39816" lon="5.76918">
        <ele>282.79998779297</ele>
        <time>2024-06-09T10:32:03Z</time>
      </trkpt>
      <trkpt lat="49.39817" lon="5.76917">
        <ele>281.39999389648</ele>
        <time>2024-06-09T10:32:04Z</time>
      </trkpt>
      <trkpt lat="49.39817" lon="5.76916">
        <ele>280.20001220703</ele>
        <time>2024-06-09T10:32:05Z</time>
      </trkpt>
      <trkpt lat="49.39818" lon="5.76916">
        <ele>279.60000610352</ele>
        <time>2024-06-09T10:32:06Z</time>
      </trkpt>
      <trkpt lat="49.39818" lon="5.76916">
        <ele>279</ele>
        <time>2024-06-09T10:32:08Z</time>
      </trkpt>
      <trkpt lat="49.39818" lon="5.76916">
        <ele>279</ele>
        <time>2024-06-09T10:32:10Z</time>
      </trkpt>
      <trkpt lat="49.39818" lon="5.76915">
        <ele>278.79998779297</ele>
        <time>2024-06-09T10:32:12Z</time>
      </trkpt>
      <trkpt lat="49.39818" lon="5.76914">
        <ele>278.60000610352</ele>
        <time>2024-06-09T10:32:14Z</time>
      </trkpt>
      <trkpt lat="49.39818" lon="5.76914">
        <ele>278.60000610352</ele>
        <time>2024-06-09T10:32:16Z</time>
      </trkpt>
      <trkpt lat="49.39818" lon="5.76914">
        <ele>278.79998779297</ele>
        <time>2024-06-09T10:32:18Z</time>
      </trkpt>
      <trkpt lat="49.39817" lon="5.76914">
        <ele>278.79998779297</ele>
        <time>2024-06-09T10:32:20Z</time>
      </trkpt>
      <trkpt lat="49.39817" lon="5.76914">
        <ele>278.79998779297</ele>
        <time>2024-06-09T10:32:22Z</time>
      </trkpt>
      <trkpt lat="49.39817" lon="5.76914">
        <ele>279</ele>
        <time>2024-06-09T10:32:24Z</time>
      </trkpt>
      <trkpt lat="49.39817" lon="5.76914">
        <ele>279</ele>
        <time>2024-06-09T10:32:26Z</time>
      </trkpt>
      <trkpt lat="49.39817" lon="5.76914">
        <ele>279</ele>
        <time>2024-06-09T10:32:28Z</time>
      </trkpt>
      <trkpt lat="49.39817" lon="5.76913">
        <ele>279.39999389648</ele>
        <time>2024-06-09T10:32:30Z</time>
      </trkpt>
      <trkpt lat="49.39817" lon="5.76914">
        <ele>279.39999389648</ele>
        <time>2024-06-09T10:32:32Z</time>
      </trkpt>
      <trkpt lat="49.39817" lon="5.76914">
        <ele>279.20001220703</ele>
        <time>2024-06-09T10:32:34Z</time>
      </trkpt>
      <trkpt lat="49.39817" lon="5.76914">
        <ele>279</ele>
        <time>2024-06-09T10:32:36Z</time>
      </trkpt>
      <trkpt lat="49.39817" lon="5.76915">
        <ele>279.20001220703</ele>
        <time>2024-06-09T10:32:38Z</time>
      </trkpt>
      <trkpt lat="49.39817" lon="5.76915">
        <ele>279.79998779297</ele>
        <time>2024-06-09T10:32:40Z</time>
      </trkpt>
      <trkpt lat="49.39817" lon="5.76915">
        <ele>279.39999389648</ele>
        <time>2024-06-09T10:32:42Z</time>
      </trkpt>
      <trkpt lat="49.39818" lon="5.76915">
        <ele>279.20001220703</ele>
        <time>2024-06-09T10:32:44Z</time>
      </trkpt>
      <trkpt lat="49.39818" lon="5.76915">
        <ele>279.20001220703</ele>
        <time>2024-06-09T10:32:46Z</time>
      </trkpt>
      <trkpt lat="49.39818" lon="5.76916">
        <ele>279.20001220703</ele>
        <time>2024-06-09T10:32:48Z</time>
      </trkpt>
      <trkpt lat="49.39817" lon="5.76916">
        <ele>279.20001220703</ele>
        <time>2024-06-09T10:32:50Z</time>
      </trkpt>
      <trkpt lat="49.39817" lon="5.76915">
        <ele>279.20001220703</ele>
        <time>2024-06-09T10:32:51Z</time>
      </trkpt>
      <trkpt lat="49.39817" lon="5.76915">
        <ele>279.20001220703</ele>
        <time>2024-06-09T10:32:52Z</time>
      </trkpt>
      <trkpt lat="49.39814" lon="5.76916">
        <ele>279.20001220703</ele>
        <time>2024-06-09T10:32:54Z</time>
      </trkpt>
      <trkpt lat="49.39811" lon="5.76917">
        <ele>279.20001220703</ele>
        <time>2024-06-09T10:32:56Z</time>
      </trkpt>
      <trkpt lat="49.39806" lon="5.76919">
        <ele>279.20001220703</ele>
        <time>2024-06-09T10:32:58Z</time>
      </trkpt>
      <trkpt lat="49.39802" lon="5.76922">
        <ele>279</ele>
        <time>2024-06-09T10:33:00Z</time>
      </trkpt>
      <trkpt lat="49.39798" lon="5.76925">
        <ele>278.39999389648</ele>
        <time>2024-06-09T10:33:02Z</time>
      </trkpt>
      <trkpt lat="49.39795" lon="5.76926">
        <ele>277.79998779297</ele>
        <time>2024-06-09T10:33:03Z</time>
      </trkpt>
      <trkpt lat="49.39793" lon="5.76927">
        <ele>277.39999389648</ele>
        <time>2024-06-09T10:33:04Z</time>
      </trkpt>
      <trkpt lat="49.39791" lon="5.76929">
        <ele>276.60000610352</ele>
        <time>2024-06-09T10:33:05Z</time>
      </trkpt>
      <trkpt lat="49.3979" lon="5.76931">
        <ele>275.79998779297</ele>
        <time>2024-06-09T10:33:06Z</time>
      </trkpt>
      <trkpt lat="49.39788" lon="5.76932">
        <ele>275</ele>
        <time>2024-06-09T10:33:07Z</time>
      </trkpt>
      <trkpt lat="49.39787" lon="5.76934">
        <ele>274.60000610352</ele>
        <time>2024-06-09T10:33:08Z</time>
      </trkpt>
      <trkpt lat="49.39784" lon="5.76937">
        <ele>274.20001220703</ele>
        <time>2024-06-09T10:33:10Z</time>
      </trkpt>
      <trkpt lat="49.39781" lon="5.7694">
        <ele>274</ele>
        <time>2024-06-09T10:33:12Z</time>
      </trkpt>
      <trkpt lat="49.39779" lon="5.76941">
        <ele>274</ele>
        <time>2024-06-09T10:33:13Z</time>
      </trkpt>
      <trkpt lat="49.39777" lon="5.76943">
        <ele>274</ele>
        <time>2024-06-09T10:33:14Z</time>
      </trkpt>
      <trkpt lat="49.39772" lon="5.76947">
        <ele>273.79998779297</ele>
        <time>2024-06-09T10:33:16Z</time>
      </trkpt>
      <trkpt lat="49.39767" lon="5.76951">
        <ele>273.60000610352</ele>
        <time>2024-06-09T10:33:18Z</time>
      </trkpt>
      <trkpt lat="49.39763" lon="5.76954">
        <ele>273.20001220703</ele>
        <time>2024-06-09T10:33:20Z</time>
      </trkpt>
      <trkpt lat="49.3976" lon="5.76956">
        <ele>273</ele>
        <time>2024-06-09T10:33:22Z</time>
      </trkpt>
      <trkpt lat="49.39756" lon="5.76958">
        <ele>273</ele>
        <time>2024-06-09T10:33:24Z</time>
      </trkpt>
      <trkpt lat="49.39753" lon="5.7696">
        <ele>273</ele>
        <time>2024-06-09T10:33:25Z</time>
      </trkpt>
      <trkpt lat="49.39751" lon="5.76961">
        <ele>272.79998779297</ele>
        <time>2024-06-09T10:33:26Z</time>
      </trkpt>
      <trkpt lat="49.39745" lon="5.76964">
        <ele>272.79998779297</ele>
        <time>2024-06-09T10:33:28Z</time>
      </trkpt>
      <trkpt lat="49.39736" lon="5.76968">
        <ele>272.60000610352</ele>
        <time>2024-06-09T10:33:30Z</time>
      </trkpt>
      <trkpt lat="49.39731" lon="5.7697">
        <ele>272.60000610352</ele>
        <time>2024-06-09T10:33:32Z</time>
      </trkpt>
      <trkpt lat="49.39729" lon="5.76972">
        <ele>272.60000610352</ele>
        <time>2024-06-09T10:33:33Z</time>
      </trkpt>
      <trkpt lat="49.39726" lon="5.76975">
        <ele>272.60000610352</ele>
        <time>2024-06-09T10:33:34Z</time>
      </trkpt>
      <trkpt lat="49.39721" lon="5.76979">
        <ele>272.60000610352</ele>
        <time>2024-06-09T10:33:36Z</time>
      </trkpt>
      <trkpt lat="49.39715" lon="5.76982">
        <ele>272.60000610352</ele>
        <time>2024-06-09T10:33:38Z</time>
      </trkpt>
      <trkpt lat="49.39706" lon="5.76984">
        <ele>272.60000610352</ele>
        <time>2024-06-09T10:33:40Z</time>
      </trkpt>
      <trkpt lat="49.39696" lon="5.76984">
        <ele>272.60000610352</ele>
        <time>2024-06-09T10:33:42Z</time>
      </trkpt>
      <trkpt lat="49.39688" lon="5.76987">
        <ele>273</ele>
        <time>2024-06-09T10:33:44Z</time>
      </trkpt>
      <trkpt lat="49.39685" lon="5.76988">
        <ele>273</ele>
        <time>2024-06-09T10:33:45Z</time>
      </trkpt>
      <trkpt lat="49.39682" lon="5.76989">
        <ele>273</ele>
        <time>2024-06-09T10:33:46Z</time>
      </trkpt>
      <trkpt lat="49.39675" lon="5.76989">
        <ele>273</ele>
        <time>2024-06-09T10:33:48Z</time>
      </trkpt>
      <trkpt lat="49.39667" lon="5.76984">
        <ele>273</ele>
        <time>2024-06-09T10:33:50Z</time>
      </trkpt>
      <trkpt lat="49.39663" lon="5.7698">
        <ele>273</ele>
        <time>2024-06-09T10:33:51Z</time>
      </trkpt>
      <trkpt lat="49.3966" lon="5.76974">
        <ele>273</ele>
        <time>2024-06-09T10:33:52Z</time>
      </trkpt>
      <trkpt lat="49.39655" lon="5.76958">
        <ele>273</ele>
        <time>2024-06-09T10:33:54Z</time>
      </trkpt>
      <trkpt lat="49.39648" lon="5.76938">
        <ele>272.79998779297</ele>
        <time>2024-06-09T10:33:56Z</time>
      </trkpt>
      <trkpt lat="49.39641" lon="5.7692">
        <ele>272.20001220703</ele>
        <time>2024-06-09T10:33:58Z</time>
      </trkpt>
      <trkpt lat="49.39637" lon="5.76912">
        <ele>271.60000610352</ele>
        <time>2024-06-09T10:33:59Z</time>
      </trkpt>
      <trkpt lat="49.39634" lon="5.76905">
        <ele>271.20001220703</ele>
        <time>2024-06-09T10:34:00Z</time>
      </trkpt>
      <trkpt lat="49.39631" lon="5.76899">
        <ele>271</ele>
        <time>2024-06-09T10:34:01Z</time>
      </trkpt>
      <trkpt lat="49.39627" lon="5.76893">
        <ele>271</ele>
        <time>2024-06-09T10:34:02Z</time>
      </trkpt>
      <trkpt lat="49.3962" lon="5.76884">
        <ele>271</ele>
        <time>2024-06-09T10:34:04Z</time>
      </trkpt>
      <trkpt lat="49.39611" lon="5.76876">
        <ele>271</ele>
        <time>2024-06-09T10:34:06Z</time>
      </trkpt>
      <trkpt lat="49.39605" lon="5.76872">
        <ele>271</ele>
        <time>2024-06-09T10:34:08Z</time>
      </trkpt>
      <trkpt lat="49.39598" lon="5.76869">
        <ele>271.20001220703</ele>
        <time>2024-06-09T10:34:10Z</time>
      </trkpt>
      <trkpt lat="49.39591" lon="5.76866">
        <ele>271.39999389648</ele>
        <time>2024-06-09T10:34:12Z</time>
      </trkpt>
      <trkpt lat="49.39585" lon="5.76865">
        <ele>271.79998779297</ele>
        <time>2024-06-09T10:34:14Z</time>
      </trkpt>
      <trkpt lat="49.39579" lon="5.76865">
        <ele>272.39999389648</ele>
        <time>2024-06-09T10:34:16Z</time>
      </trkpt>
      <trkpt lat="49.39575" lon="5.76865">
        <ele>272.79998779297</ele>
        <time>2024-06-09T10:34:17Z</time>
      </trkpt>
      <trkpt lat="49.39572" lon="5.76864">
        <ele>273</ele>
        <time>2024-06-09T10:34:18Z</time>
      </trkpt>
      <trkpt lat="49.39568" lon="5.76864">
        <ele>273.39999389648</ele>
        <time>2024-06-09T10:34:19Z</time>
      </trkpt>
      <trkpt lat="49.39565" lon="5.76863">
        <ele>273.60000610352</ele>
        <time>2024-06-09T10:34:20Z</time>
      </trkpt>
      <trkpt lat="49.39561" lon="5.76862">
        <ele>273.79998779297</ele>
        <time>2024-06-09T10:34:21Z</time>
      </trkpt>
      <trkpt lat="49.39557" lon="5.76862">
        <ele>274.20001220703</ele>
        <time>2024-06-09T10:34:22Z</time>
      </trkpt>
      <trkpt lat="49.39551" lon="5.76862">
        <ele>274.60000610352</ele>
        <time>2024-06-09T10:34:24Z</time>
      </trkpt>
      <trkpt lat="49.39547" lon="5.76862">
        <ele>275</ele>
        <time>2024-06-09T10:34:25Z</time>
      </trkpt>
      <trkpt lat="49.39544" lon="5.76862">
        <ele>275.20001220703</ele>
        <time>2024-06-09T10:34:26Z</time>
      </trkpt>
      <trkpt lat="49.39542" lon="5.76862">
        <ele>275.39999389648</ele>
        <time>2024-06-09T10:34:27Z</time>
      </trkpt>
      <trkpt lat="49.39539" lon="5.76862">
        <ele>275.39999389648</ele>
        <time>2024-06-09T10:34:28Z</time>
      </trkpt>
      <trkpt lat="49.39533" lon="5.76862">
        <ele>275.60000610352</ele>
        <time>2024-06-09T10:34:30Z</time>
      </trkpt>
      <trkpt lat="49.39528" lon="5.76862">
        <ele>276</ele>
        <time>2024-06-09T10:34:32Z</time>
      </trkpt>
      <trkpt lat="49.39526" lon="5.76863">
        <ele>276.20001220703</ele>
        <time>2024-06-09T10:34:33Z</time>
      </trkpt>
      <trkpt lat="49.39523" lon="5.76863">
        <ele>276.60000610352</ele>
        <time>2024-06-09T10:34:34Z</time>
      </trkpt>
      <trkpt lat="49.39518" lon="5.76864">
        <ele>277</ele>
        <time>2024-06-09T10:34:36Z</time>
      </trkpt>
      <trkpt lat="49.39516" lon="5.76865">
        <ele>277.20001220703</ele>
        <time>2024-06-09T10:34:37Z</time>
      </trkpt>
      <trkpt lat="49.39513" lon="5.76865">
        <ele>277.39999389648</ele>
        <time>2024-06-09T10:34:38Z</time>
      </trkpt>
      <trkpt lat="49.39511" lon="5.76866">
        <ele>277.60000610352</ele>
        <time>2024-06-09T10:34:39Z</time>
      </trkpt>
      <trkpt lat="49.39509" lon="5.76866">
        <ele>277.79998779297</ele>
        <time>2024-06-09T10:34:40Z</time>
      </trkpt>
      <trkpt lat="49.39504" lon="5.76868">
        <ele>278.20001220703</ele>
        <time>2024-06-09T10:34:42Z</time>
      </trkpt>
      <trkpt lat="49.395" lon="5.7687">
        <ele>278.79998779297</ele>
        <time>2024-06-09T10:34:44Z</time>
      </trkpt>
      <trkpt lat="49.39495" lon="5.76872">
        <ele>279.20001220703</ele>
        <time>2024-06-09T10:34:46Z</time>
      </trkpt>
      <trkpt lat="49.39493" lon="5.76872">
        <ele>279.39999389648</ele>
        <time>2024-06-09T10:34:47Z</time>
      </trkpt>
      <trkpt lat="49.39491" lon="5.76873">
        <ele>279.60000610352</ele>
        <time>2024-06-09T10:34:48Z</time>
      </trkpt>
      <trkpt lat="49.39486" lon="5.76875">
        <ele>279.79998779297</ele>
        <time>2024-06-09T10:34:50Z</time>
      </trkpt>
      <trkpt lat="49.39482" lon="5.76877">
        <ele>280.20001220703</ele>
        <time>2024-06-09T10:34:52Z</time>
      </trkpt>
      <trkpt lat="49.39478" lon="5.76879">
        <ele>280.60000610352</ele>
        <time>2024-06-09T10:34:54Z</time>
      </trkpt>
      <trkpt lat="49.39474" lon="5.76881">
        <ele>280.79998779297</ele>
        <time>2024-06-09T10:34:56Z</time>
      </trkpt>
      <trkpt lat="49.3947" lon="5.76882">
        <ele>281.20001220703</ele>
        <time>2024-06-09T10:34:58Z</time>
      </trkpt>
      <trkpt lat="49.39466" lon="5.76884">
        <ele>281.39999389648</ele>
        <time>2024-06-09T10:35:00Z</time>
      </trkpt>
      <trkpt lat="49.39463" lon="5.76886">
        <ele>281.79998779297</ele>
        <time>2024-06-09T10:35:02Z</time>
      </trkpt>
      <trkpt lat="49.39459" lon="5.76886">
        <ele>282.20001220703</ele>
        <time>2024-06-09T10:35:04Z</time>
      </trkpt>
      <trkpt lat="49.39456" lon="5.76887">
        <ele>282.60000610352</ele>
        <time>2024-06-09T10:35:06Z</time>
      </trkpt>
      <trkpt lat="49.39453" lon="5.76888">
        <ele>283</ele>
        <time>2024-06-09T10:35:08Z</time>
      </trkpt>
      <trkpt lat="49.39452" lon="5.76889">
        <ele>283</ele>
        <time>2024-06-09T10:35:09Z</time>
      </trkpt>
      <trkpt lat="49.3945" lon="5.7689">
        <ele>283.20001220703</ele>
        <time>2024-06-09T10:35:10Z</time>
      </trkpt>
      <trkpt lat="49.39447" lon="5.76891">
        <ele>283.60000610352</ele>
        <time>2024-06-09T10:35:12Z</time>
      </trkpt>
      <trkpt lat="49.39445" lon="5.76892">
        <ele>284</ele>
        <time>2024-06-09T10:35:13Z</time>
      </trkpt>
      <trkpt lat="49.39443" lon="5.76893">
        <ele>284</ele>
        <time>2024-06-09T10:35:14Z</time>
      </trkpt>
      <trkpt lat="49.3944" lon="5.76896">
        <ele>284.39999389648</ele>
        <time>2024-06-09T10:35:16Z</time>
      </trkpt>
      <trkpt lat="49.39438" lon="5.76898">
        <ele>284.60000610352</ele>
        <time>2024-06-09T10:35:17Z</time>
      </trkpt>
      <trkpt lat="49.39436" lon="5.769">
        <ele>284.79998779297</ele>
        <time>2024-06-09T10:35:18Z</time>
      </trkpt>
      <trkpt lat="49.39435" lon="5.76902">
        <ele>285</ele>
        <time>2024-06-09T10:35:19Z</time>
      </trkpt>
      <trkpt lat="49.39433" lon="5.76904">
        <ele>285</ele>
        <time>2024-06-09T10:35:20Z</time>
      </trkpt>
      <trkpt lat="49.3943" lon="5.76907">
        <ele>285.20001220703</ele>
        <time>2024-06-09T10:35:22Z</time>
      </trkpt>
      <trkpt lat="49.39427" lon="5.7691">
        <ele>285.39999389648</ele>
        <time>2024-06-09T10:35:24Z</time>
      </trkpt>
      <trkpt lat="49.39424" lon="5.76914">
        <ele>285.60000610352</ele>
        <time>2024-06-09T10:35:26Z</time>
      </trkpt>
      <trkpt lat="49.3942" lon="5.76917">
        <ele>285.79998779297</ele>
        <time>2024-06-09T10:35:28Z</time>
      </trkpt>
      <trkpt lat="49.39419" lon="5.76919">
        <ele>286</ele>
        <time>2024-06-09T10:35:29Z</time>
      </trkpt>
      <trkpt lat="49.39418" lon="5.7692">
        <ele>286</ele>
        <time>2024-06-09T10:35:30Z</time>
      </trkpt>
      <trkpt lat="49.39415" lon="5.76921">
        <ele>286.39999389648</ele>
        <time>2024-06-09T10:35:32Z</time>
      </trkpt>
      <trkpt lat="49.39413" lon="5.76923">
        <ele>286.39999389648</ele>
        <time>2024-06-09T10:35:33Z</time>
      </trkpt>
      <trkpt lat="49.39412" lon="5.76925">
        <ele>286.60000610352</ele>
        <time>2024-06-09T10:35:34Z</time>
      </trkpt>
      <trkpt lat="49.3941" lon="5.76926">
        <ele>286.79998779297</ele>
        <time>2024-06-09T10:35:35Z</time>
      </trkpt>
      <trkpt lat="49.39409" lon="5.76927">
        <ele>287.20001220703</ele>
        <time>2024-06-09T10:35:36Z</time>
      </trkpt>
      <trkpt lat="49.39408" lon="5.76929">
        <ele>287.39999389648</ele>
        <time>2024-06-09T10:35:37Z</time>
      </trkpt>
      <trkpt lat="49.39407" lon="5.7693">
        <ele>287.60000610352</ele>
        <time>2024-06-09T10:35:38Z</time>
      </trkpt>
      <trkpt lat="49.39405" lon="5.76932">
        <ele>288</ele>
        <time>2024-06-09T10:35:40Z</time>
      </trkpt>
      <trkpt lat="49.39403" lon="5.76934">
        <ele>288</ele>
        <time>2024-06-09T10:35:41Z</time>
      </trkpt>
      <trkpt lat="49.39402" lon="5.76935">
        <ele>288.20001220703</ele>
        <time>2024-06-09T10:35:42Z</time>
      </trkpt>
      <trkpt lat="49.39399" lon="5.76937">
        <ele>288.60000610352</ele>
        <time>2024-06-09T10:35:44Z</time>
      </trkpt>
      <trkpt lat="49.39396" lon="5.76939">
        <ele>288.79998779297</ele>
        <time>2024-06-09T10:35:46Z</time>
      </trkpt>
      <trkpt lat="49.39395" lon="5.76941">
        <ele>289</ele>
        <time>2024-06-09T10:35:47Z</time>
      </trkpt>
      <trkpt lat="49.39393" lon="5.76944">
        <ele>289.20001220703</ele>
        <time>2024-06-09T10:35:48Z</time>
      </trkpt>
      <trkpt lat="49.39392" lon="5.76946">
        <ele>289.20001220703</ele>
        <time>2024-06-09T10:35:49Z</time>
      </trkpt>
      <trkpt lat="49.3939" lon="5.76949">
        <ele>289.39999389648</ele>
        <time>2024-06-09T10:35:50Z</time>
      </trkpt>
      <trkpt lat="49.39386" lon="5.76952">
        <ele>289.79998779297</ele>
        <time>2024-06-09T10:35:52Z</time>
      </trkpt>
      <trkpt lat="49.39383" lon="5.76956">
        <ele>290.20001220703</ele>
        <time>2024-06-09T10:35:54Z</time>
      </trkpt>
      <trkpt lat="49.39381" lon="5.76958">
        <ele>290.20001220703</ele>
        <time>2024-06-09T10:35:55Z</time>
      </trkpt>
      <trkpt lat="49.3938" lon="5.76959">
        <ele>290.39999389648</ele>
        <time>2024-06-09T10:35:56Z</time>
      </trkpt>
      <trkpt lat="49.39376" lon="5.76963">
        <ele>290.79998779297</ele>
        <time>2024-06-09T10:35:58Z</time>
      </trkpt>
      <trkpt lat="49.39374" lon="5.76967">
        <ele>290.79998779297</ele>
        <time>2024-06-09T10:36:00Z</time>
      </trkpt>
      <trkpt lat="49.39372" lon="5.76969">
        <ele>291.20001220703</ele>
        <time>2024-06-09T10:36:02Z</time>
      </trkpt>
      <trkpt lat="49.39369" lon="5.76972">
        <ele>291.39999389648</ele>
        <time>2024-06-09T10:36:04Z</time>
      </trkpt>
      <trkpt lat="49.39367" lon="5.76974">
        <ele>291.79998779297</ele>
        <time>2024-06-09T10:36:06Z</time>
      </trkpt>
      <trkpt lat="49.39364" lon="5.76977">
        <ele>292.20001220703</ele>
        <time>2024-06-09T10:36:08Z</time>
      </trkpt>
      <trkpt lat="49.39363" lon="5.76978">
        <ele>292.79998779297</ele>
        <time>2024-06-09T10:36:09Z</time>
      </trkpt>
      <trkpt lat="49.39361" lon="5.7698">
        <ele>293</ele>
        <time>2024-06-09T10:36:10Z</time>
      </trkpt>
      <trkpt lat="49.39358" lon="5.76983">
        <ele>293.39999389648</ele>
        <time>2024-06-09T10:36:12Z</time>
      </trkpt>
      <trkpt lat="49.39356" lon="5.76985">
        <ele>293.39999389648</ele>
        <time>2024-06-09T10:36:13Z</time>
      </trkpt>
      <trkpt lat="49.39355" lon="5.76986">
        <ele>293.60000610352</ele>
        <time>2024-06-09T10:36:14Z</time>
      </trkpt>
      <trkpt lat="49.39352" lon="5.76989">
        <ele>293.60000610352</ele>
        <time>2024-06-09T10:36:16Z</time>
      </trkpt>
      <trkpt lat="49.39349" lon="5.76991">
        <ele>293.79998779297</ele>
        <time>2024-06-09T10:36:18Z</time>
      </trkpt>
      <trkpt lat="49.39347" lon="5.76993">
        <ele>294</ele>
        <time>2024-06-09T10:36:19Z</time>
      </trkpt>
      <trkpt lat="49.39345" lon="5.76993">
        <ele>294</ele>
        <time>2024-06-09T10:36:20Z</time>
      </trkpt>
      <trkpt lat="49.39341" lon="5.76994">
        <ele>294.20001220703</ele>
        <time>2024-06-09T10:36:22Z</time>
      </trkpt>
      <trkpt lat="49.39337" lon="5.76994">
        <ele>294.39999389648</ele>
        <time>2024-06-09T10:36:24Z</time>
      </trkpt>
      <trkpt lat="49.39334" lon="5.76995">
        <ele>294.60000610352</ele>
        <time>2024-06-09T10:36:26Z</time>
      </trkpt>
      <trkpt lat="49.3933" lon="5.76995">
        <ele>294.79998779297</ele>
        <time>2024-06-09T10:36:28Z</time>
      </trkpt>
      <trkpt lat="49.39328" lon="5.76994">
        <ele>294.79998779297</ele>
        <time>2024-06-09T10:36:29Z</time>
      </trkpt>
      <trkpt lat="49.39326" lon="5.76994">
        <ele>295</ele>
        <time>2024-06-09T10:36:30Z</time>
      </trkpt>
      <trkpt lat="49.39323" lon="5.76994">
        <ele>295.60000610352</ele>
        <time>2024-06-09T10:36:32Z</time>
      </trkpt>
      <trkpt lat="49.39319" lon="5.76993">
        <ele>296</ele>
        <time>2024-06-09T10:36:34Z</time>
      </trkpt>
      <trkpt lat="49.39316" lon="5.76992">
        <ele>296.39999389648</ele>
        <time>2024-06-09T10:36:36Z</time>
      </trkpt>
      <trkpt lat="49.39312" lon="5.76991">
        <ele>296.79998779297</ele>
        <time>2024-06-09T10:36:38Z</time>
      </trkpt>
      <trkpt lat="49.39308" lon="5.76991">
        <ele>297</ele>
        <time>2024-06-09T10:36:40Z</time>
      </trkpt>
      <trkpt lat="49.39304" lon="5.7699">
        <ele>297.20001220703</ele>
        <time>2024-06-09T10:36:42Z</time>
      </trkpt>
      <trkpt lat="49.393" lon="5.76989">
        <ele>297.60000610352</ele>
        <time>2024-06-09T10:36:44Z</time>
      </trkpt>
      <trkpt lat="49.39296" lon="5.76988">
        <ele>297.79998779297</ele>
        <time>2024-06-09T10:36:46Z</time>
      </trkpt>
      <trkpt lat="49.39295" lon="5.76987">
        <ele>298</ele>
        <time>2024-06-09T10:36:47Z</time>
      </trkpt>
      <trkpt lat="49.39292" lon="5.76987">
        <ele>298.20001220703</ele>
        <time>2024-06-09T10:36:48Z</time>
      </trkpt>
      <trkpt lat="49.39289" lon="5.76986">
        <ele>298.60000610352</ele>
        <time>2024-06-09T10:36:50Z</time>
      </trkpt>
      <trkpt lat="49.39285" lon="5.76985">
        <ele>298.79998779297</ele>
        <time>2024-06-09T10:36:52Z</time>
      </trkpt>
      <trkpt lat="49.39283" lon="5.76984">
        <ele>298.79998779297</ele>
        <time>2024-06-09T10:36:53Z</time>
      </trkpt>
      <trkpt lat="49.39281" lon="5.76983">
        <ele>298.79998779297</ele>
        <time>2024-06-09T10:36:54Z</time>
      </trkpt>
      <trkpt lat="49.39279" lon="5.76982">
        <ele>299</ele>
        <time>2024-06-09T10:36:55Z</time>
      </trkpt>
      <trkpt lat="49.39277" lon="5.76982">
        <ele>299</ele>
        <time>2024-06-09T10:36:56Z</time>
      </trkpt>
      <trkpt lat="49.39274" lon="5.7698">
        <ele>299.39999389648</ele>
        <time>2024-06-09T10:36:58Z</time>
      </trkpt>
      <trkpt lat="49.3927" lon="5.7698">
        <ele>299.60000610352</ele>
        <time>2024-06-09T10:37:00Z</time>
      </trkpt>
      <trkpt lat="49.39267" lon="5.76978">
        <ele>299.79998779297</ele>
        <time>2024-06-09T10:37:02Z</time>
      </trkpt>
      <trkpt lat="49.39265" lon="5.76977">
        <ele>299.79998779297</ele>
        <time>2024-06-09T10:37:03Z</time>
      </trkpt>
      <trkpt lat="49.39263" lon="5.76977">
        <ele>300</ele>
        <time>2024-06-09T10:37:04Z</time>
      </trkpt>
      <trkpt lat="49.3926" lon="5.76975">
        <ele>300.39999389648</ele>
        <time>2024-06-09T10:37:06Z</time>
      </trkpt>
      <trkpt lat="49.39258" lon="5.76974">
        <ele>300.60000610352</ele>
        <time>2024-06-09T10:37:07Z</time>
      </trkpt>
      <trkpt lat="49.39256" lon="5.76973">
        <ele>300.60000610352</ele>
        <time>2024-06-09T10:37:08Z</time>
      </trkpt>
      <trkpt lat="49.39253" lon="5.76971">
        <ele>301</ele>
        <time>2024-06-09T10:37:10Z</time>
      </trkpt>
      <trkpt lat="49.39251" lon="5.76968">
        <ele>301.39999389648</ele>
        <time>2024-06-09T10:37:12Z</time>
      </trkpt>
      <trkpt lat="49.39249" lon="5.76965">
        <ele>301.60000610352</ele>
        <time>2024-06-09T10:37:14Z</time>
      </trkpt>
      <trkpt lat="49.39247" lon="5.76962">
        <ele>301.79998779297</ele>
        <time>2024-06-09T10:37:16Z</time>
      </trkpt>
      <trkpt lat="49.39244" lon="5.76959">
        <ele>302</ele>
        <time>2024-06-09T10:37:18Z</time>
      </trkpt>
      <trkpt lat="49.39243" lon="5.76958">
        <ele>302.20001220703</ele>
        <time>2024-06-09T10:37:19Z</time>
      </trkpt>
      <trkpt lat="49.39241" lon="5.76956">
        <ele>302.20001220703</ele>
        <time>2024-06-09T10:37:20Z</time>
      </trkpt>
      <trkpt lat="49.39239" lon="5.76951">
        <ele>302.39999389648</ele>
        <time>2024-06-09T10:37:22Z</time>
      </trkpt>
      <trkpt lat="49.39237" lon="5.76947">
        <ele>302.60000610352</ele>
        <time>2024-06-09T10:37:24Z</time>
      </trkpt>
      <trkpt lat="49.39235" lon="5.76944">
        <ele>303</ele>
        <time>2024-06-09T10:37:26Z</time>
      </trkpt>
      <trkpt lat="49.39234" lon="5.76942">
        <ele>303.20001220703</ele>
        <time>2024-06-09T10:37:27Z</time>
      </trkpt>
      <trkpt lat="49.39233" lon="5.76941">
        <ele>303.60000610352</ele>
        <time>2024-06-09T10:37:28Z</time>
      </trkpt>
      <trkpt lat="49.3923" lon="5.76937">
        <ele>304</ele>
        <time>2024-06-09T10:37:30Z</time>
      </trkpt>
      <trkpt lat="49.39229" lon="5.76935">
        <ele>304.20001220703</ele>
        <time>2024-06-09T10:37:31Z</time>
      </trkpt>
      <trkpt lat="49.39227" lon="5.76933">
        <ele>304.20001220703</ele>
        <time>2024-06-09T10:37:32Z</time>
      </trkpt>
      <trkpt lat="49.39225" lon="5.76929">
        <ele>304.39999389648</ele>
        <time>2024-06-09T10:37:34Z</time>
      </trkpt>
      <trkpt lat="49.39224" lon="5.76925">
        <ele>304.79998779297</ele>
        <time>2024-06-09T10:37:36Z</time>
      </trkpt>
      <trkpt lat="49.39222" lon="5.76921">
        <ele>305</ele>
        <time>2024-06-09T10:37:38Z</time>
      </trkpt>
      <trkpt lat="49.3922" lon="5.76919">
        <ele>305.20001220703</ele>
        <time>2024-06-09T10:37:39Z</time>
      </trkpt>
      <trkpt lat="49.39219" lon="5.76917">
        <ele>305.20001220703</ele>
        <time>2024-06-09T10:37:40Z</time>
      </trkpt>
      <trkpt lat="49.39216" lon="5.76913">
        <ele>305.60000610352</ele>
        <time>2024-06-09T10:37:42Z</time>
      </trkpt>
      <trkpt lat="49.39213" lon="5.76909">
        <ele>305.79998779297</ele>
        <time>2024-06-09T10:37:44Z</time>
      </trkpt>
      <trkpt lat="49.39208" lon="5.76903">
        <ele>306</ele>
        <time>2024-06-09T10:37:46Z</time>
      </trkpt>
      <trkpt lat="49.39205" lon="5.769">
        <ele>306</ele>
        <time>2024-06-09T10:37:47Z</time>
      </trkpt>
      <trkpt lat="49.39203" lon="5.76898">
        <ele>306.20001220703</ele>
        <time>2024-06-09T10:37:48Z</time>
      </trkpt>
      <trkpt lat="49.39199" lon="5.76893">
        <ele>306.39999389648</ele>
        <time>2024-06-09T10:37:50Z</time>
      </trkpt>
      <trkpt lat="49.39195" lon="5.76887">
        <ele>306.60000610352</ele>
        <time>2024-06-09T10:37:52Z</time>
      </trkpt>
      <trkpt lat="49.39193" lon="5.76884">
        <ele>306.60000610352</ele>
        <time>2024-06-09T10:37:53Z</time>
      </trkpt>
      <trkpt lat="49.39193" lon="5.7688">
        <ele>306.60000610352</ele>
        <time>2024-06-09T10:37:54Z</time>
      </trkpt>
      <trkpt lat="49.39192" lon="5.76877">
        <ele>306.60000610352</ele>
        <time>2024-06-09T10:37:55Z</time>
      </trkpt>
      <trkpt lat="49.39193" lon="5.76873">
        <ele>306.60000610352</ele>
        <time>2024-06-09T10:37:56Z</time>
      </trkpt>
      <trkpt lat="49.39195" lon="5.76866">
        <ele>306.79998779297</ele>
        <time>2024-06-09T10:37:58Z</time>
      </trkpt>
      <trkpt lat="49.39196" lon="5.76856">
        <ele>306.79998779297</ele>
        <time>2024-06-09T10:38:00Z</time>
      </trkpt>
      <trkpt lat="49.39199" lon="5.76847">
        <ele>307.20001220703</ele>
        <time>2024-06-09T10:38:02Z</time>
      </trkpt>
      <trkpt lat="49.39203" lon="5.76838">
        <ele>307.20001220703</ele>
        <time>2024-06-09T10:38:04Z</time>
      </trkpt>
      <trkpt lat="49.39206" lon="5.76829">
        <ele>307.39999389648</ele>
        <time>2024-06-09T10:38:06Z</time>
      </trkpt>
      <trkpt lat="49.39209" lon="5.76819">
        <ele>307.39999389648</ele>
        <time>2024-06-09T10:38:08Z</time>
      </trkpt>
      <trkpt lat="49.39212" lon="5.76809">
        <ele>307.39999389648</ele>
        <time>2024-06-09T10:38:10Z</time>
      </trkpt>
      <trkpt lat="49.39216" lon="5.768">
        <ele>307.39999389648</ele>
        <time>2024-06-09T10:38:12Z</time>
      </trkpt>
      <trkpt lat="49.39218" lon="5.76796">
        <ele>307.39999389648</ele>
        <time>2024-06-09T10:38:13Z</time>
      </trkpt>
      <trkpt lat="49.3922" lon="5.76791">
        <ele>307.39999389648</ele>
        <time>2024-06-09T10:38:14Z</time>
      </trkpt>
      <trkpt lat="49.39223" lon="5.76782">
        <ele>307.39999389648</ele>
        <time>2024-06-09T10:38:16Z</time>
      </trkpt>
      <trkpt lat="49.39227" lon="5.76773">
        <ele>307.60000610352</ele>
        <time>2024-06-09T10:38:18Z</time>
      </trkpt>
      <trkpt lat="49.39231" lon="5.76764">
        <ele>307.60000610352</ele>
        <time>2024-06-09T10:38:20Z</time>
      </trkpt>
      <trkpt lat="49.39235" lon="5.76755">
        <ele>307.79998779297</ele>
        <time>2024-06-09T10:38:22Z</time>
      </trkpt>
      <trkpt lat="49.39237" lon="5.76751">
        <ele>308</ele>
        <time>2024-06-09T10:38:23Z</time>
      </trkpt>
      <trkpt lat="49.39238" lon="5.76746">
        <ele>308</ele>
        <time>2024-06-09T10:38:24Z</time>
      </trkpt>
      <trkpt lat="49.39242" lon="5.76738">
        <ele>308.39999389648</ele>
        <time>2024-06-09T10:38:26Z</time>
      </trkpt>
      <trkpt lat="49.39246" lon="5.76729">
        <ele>308.60000610352</ele>
        <time>2024-06-09T10:38:28Z</time>
      </trkpt>
      <trkpt lat="49.39247" lon="5.76725">
        <ele>308.79998779297</ele>
        <time>2024-06-09T10:38:29Z</time>
      </trkpt>
      <trkpt lat="49.39249" lon="5.76721">
        <ele>308.79998779297</ele>
        <time>2024-06-09T10:38:30Z</time>
      </trkpt>
      <trkpt lat="49.39253" lon="5.76713">
        <ele>309.20001220703</ele>
        <time>2024-06-09T10:38:32Z</time>
      </trkpt>
      <trkpt lat="49.39257" lon="5.76705">
        <ele>309.20001220703</ele>
        <time>2024-06-09T10:38:34Z</time>
      </trkpt>
      <trkpt lat="49.39261" lon="5.76697">
        <ele>309.39999389648</ele>
        <time>2024-06-09T10:38:36Z</time>
      </trkpt>
      <trkpt lat="49.39265" lon="5.76688">
        <ele>309.60000610352</ele>
        <time>2024-06-09T10:38:38Z</time>
      </trkpt>
      <trkpt lat="49.39269" lon="5.7668">
        <ele>309.79998779297</ele>
        <time>2024-06-09T10:38:40Z</time>
      </trkpt>
      <trkpt lat="49.39272" lon="5.76676">
        <ele>310</ele>
        <time>2024-06-09T10:38:41Z</time>
      </trkpt>
      <trkpt lat="49.39274" lon="5.76672">
        <ele>310.20001220703</ele>
        <time>2024-06-09T10:38:42Z</time>
      </trkpt>
      <trkpt lat="49.39278" lon="5.76665">
        <ele>310.20001220703</ele>
        <time>2024-06-09T10:38:44Z</time>
      </trkpt>
      <trkpt lat="49.39283" lon="5.76657">
        <ele>310.39999389648</ele>
        <time>2024-06-09T10:38:46Z</time>
      </trkpt>
      <trkpt lat="49.39288" lon="5.76648">
        <ele>310.39999389648</ele>
        <time>2024-06-09T10:38:48Z</time>
      </trkpt>
      <trkpt lat="49.39291" lon="5.76644">
        <ele>310.39999389648</ele>
        <time>2024-06-09T10:38:49Z</time>
      </trkpt>
      <trkpt lat="49.39294" lon="5.7664">
        <ele>310.39999389648</ele>
        <time>2024-06-09T10:38:50Z</time>
      </trkpt>
      <trkpt lat="49.39298" lon="5.76632">
        <ele>310.39999389648</ele>
        <time>2024-06-09T10:38:52Z</time>
      </trkpt>
      <trkpt lat="49.39302" lon="5.76624">
        <ele>310.39999389648</ele>
        <time>2024-06-09T10:38:54Z</time>
      </trkpt>
      <trkpt lat="49.39304" lon="5.7662">
        <ele>310.39999389648</ele>
        <time>2024-06-09T10:38:55Z</time>
      </trkpt>
      <trkpt lat="49.39305" lon="5.76615">
        <ele>310.39999389648</ele>
        <time>2024-06-09T10:38:56Z</time>
      </trkpt>
      <trkpt lat="49.39309" lon="5.76606">
        <ele>310.39999389648</ele>
        <time>2024-06-09T10:38:58Z</time>
      </trkpt>
      <trkpt lat="49.39313" lon="5.76596">
        <ele>310.20001220703</ele>
        <time>2024-06-09T10:39:00Z</time>
      </trkpt>
      <trkpt lat="49.39318" lon="5.76584">
        <ele>310.20001220703</ele>
        <time>2024-06-09T10:39:02Z</time>
      </trkpt>
      <trkpt lat="49.39324" lon="5.76571">
        <ele>310.20001220703</ele>
        <time>2024-06-09T10:39:04Z</time>
      </trkpt>
      <trkpt lat="49.39328" lon="5.76556">
        <ele>310</ele>
        <time>2024-06-09T10:39:06Z</time>
      </trkpt>
      <trkpt lat="49.3933" lon="5.76549">
        <ele>310</ele>
        <time>2024-06-09T10:39:07Z</time>
      </trkpt>
      <trkpt lat="49.39331" lon="5.76542">
        <ele>309.79998779297</ele>
        <time>2024-06-09T10:39:08Z</time>
      </trkpt>
      <trkpt lat="49.39333" lon="5.76528">
        <ele>309.79998779297</ele>
        <time>2024-06-09T10:39:10Z</time>
      </trkpt>
      <trkpt lat="49.39334" lon="5.76521">
        <ele>309.79998779297</ele>
        <time>2024-06-09T10:39:11Z</time>
      </trkpt>
      <trkpt lat="49.39336" lon="5.76515">
        <ele>309.60000610352</ele>
        <time>2024-06-09T10:39:12Z</time>
      </trkpt>
      <trkpt lat="49.39342" lon="5.76504">
        <ele>309.20001220703</ele>
        <time>2024-06-09T10:39:14Z</time>
      </trkpt>
      <trkpt lat="49.39351" lon="5.76496">
        <ele>309</ele>
        <time>2024-06-09T10:39:16Z</time>
      </trkpt>
      <trkpt lat="49.3936" lon="5.76489">
        <ele>308.79998779297</ele>
        <time>2024-06-09T10:39:18Z</time>
      </trkpt>
      <trkpt lat="49.39369" lon="5.76482">
        <ele>308.60000610352</ele>
        <time>2024-06-09T10:39:20Z</time>
      </trkpt>
      <trkpt lat="49.39373" lon="5.76477">
        <ele>308.60000610352</ele>
        <time>2024-06-09T10:39:21Z</time>
      </trkpt>
      <trkpt lat="49.39377" lon="5.76472">
        <ele>308.60000610352</ele>
        <time>2024-06-09T10:39:22Z</time>
      </trkpt>
      <trkpt lat="49.39383" lon="5.76462">
        <ele>308.39999389648</ele>
        <time>2024-06-09T10:39:24Z</time>
      </trkpt>
      <trkpt lat="49.39389" lon="5.76451">
        <ele>308.39999389648</ele>
        <time>2024-06-09T10:39:26Z</time>
      </trkpt>
      <trkpt lat="49.39394" lon="5.76441">
        <ele>308.20001220703</ele>
        <time>2024-06-09T10:39:28Z</time>
      </trkpt>
      <trkpt lat="49.39399" lon="5.7643">
        <ele>308.20001220703</ele>
        <time>2024-06-09T10:39:30Z</time>
      </trkpt>
      <trkpt lat="49.39405" lon="5.7642">
        <ele>308.20001220703</ele>
        <time>2024-06-09T10:39:32Z</time>
      </trkpt>
      <trkpt lat="49.39408" lon="5.76415">
        <ele>308.20001220703</ele>
        <time>2024-06-09T10:39:33Z</time>
      </trkpt>
      <trkpt lat="49.39412" lon="5.76412">
        <ele>308.20001220703</ele>
        <time>2024-06-09T10:39:34Z</time>
      </trkpt>
      <trkpt lat="49.39416" lon="5.76411">
        <ele>308.20001220703</ele>
        <time>2024-06-09T10:39:35Z</time>
      </trkpt>
      <trkpt lat="49.3942" lon="5.7641">
        <ele>308.20001220703</ele>
        <time>2024-06-09T10:39:36Z</time>
      </trkpt>
      <trkpt lat="49.39427" lon="5.76409">
        <ele>308.20001220703</ele>
        <time>2024-06-09T10:39:38Z</time>
      </trkpt>
      <trkpt lat="49.39429" lon="5.76408">
        <ele>308.20001220703</ele>
        <time>2024-06-09T10:39:39Z</time>
      </trkpt>
      <trkpt lat="49.39432" lon="5.76408">
        <ele>308.20001220703</ele>
        <time>2024-06-09T10:39:40Z</time>
      </trkpt>
      <trkpt lat="49.39436" lon="5.76413">
        <ele>308</ele>
        <time>2024-06-09T10:39:42Z</time>
      </trkpt>
      <trkpt lat="49.3944" lon="5.7642">
        <ele>308</ele>
        <time>2024-06-09T10:39:44Z</time>
      </trkpt>
      <trkpt lat="49.39443" lon="5.76428">
        <ele>308</ele>
        <time>2024-06-09T10:39:46Z</time>
      </trkpt>
    </trkseg>
  </trk>
</gpx>